<?xml version='1.0' encoding='UTF-8'?><gpx version="1.1" creator="JPX - https://github.com/jenetics/jpx" xmlns="http://www.topografix.com/GPX/1/1"><trk><trkseg><trkpt lat="43.9205384" lon="8.1025122"><ele>9.0</ele><time>2026-04-19T07:05:01.845Z</time></trkpt><trkpt lat="43.9205544" lon="8.102653"><ele>9.0</ele><time>2026-04-19T07:05:04.846Z</time></trkpt><trkpt lat="43.9205905" lon="8.1027738"><ele>9.0</ele><time>2026-04-19T07:05:06.845Z</time></trkpt><trkpt lat="43.9206217" lon="8.1028933"><ele>9.0</ele><time>2026-04-19T07:05:08.845Z</time></trkpt><trkpt lat="43.9206777" lon="8.1029703"><ele>9.0</ele><time>2026-04-19T07:05:10.846Z</time></trkpt><trkpt lat="43.9207546" lon="8.1029695"><ele>9.0</ele><time>2026-04-19T07:05:12.845Z</time></trkpt><trkpt lat="43.9208523" lon="8.1029454"><ele>9.0</ele><time>2026-04-19T07:05:14.845Z</time></trkpt><trkpt lat="43.9209656" lon="8.1029045"><ele>9.0</ele><time>2026-04-19T07:05:16.844Z</time></trkpt><trkpt lat="43.9210299" lon="8.1028769"><ele>9.0</ele><time>2026-04-19T07:05:17.845Z</time></trkpt><trkpt lat="43.9210977" lon="8.1028527"><ele>9.0</ele><time>2026-04-19T07:05:18.846Z</time></trkpt><trkpt lat="43.9211698" lon="8.1028181"><ele>9.0</ele><time>2026-04-19T07:05:19.846Z</time></trkpt><trkpt lat="43.9212385" lon="8.1027901"><ele>9.0</ele><time>2026-04-19T07:05:20.846Z</time></trkpt><trkpt lat="43.9213018" lon="8.1027696"><ele>9.0</ele><time>2026-04-19T07:05:21.846Z</time></trkpt><trkpt lat="43.9213674" lon="8.1027405"><ele>9.0</ele><time>2026-04-19T07:05:22.845Z</time></trkpt><trkpt lat="43.9214841" lon="8.1026967"><ele>9.0</ele><time>2026-04-19T07:05:24.846Z</time></trkpt><trkpt lat="43.9215716" lon="8.102673"><ele>9.0</ele><time>2026-04-19T07:05:26.846Z</time></trkpt><trkpt lat="43.9216509" lon="8.1027273"><ele>9.0</ele><time>2026-04-19T07:05:29.845Z</time></trkpt><trkpt lat="43.9217093" lon="8.1028889"><ele>8.8</ele><time>2026-04-19T07:05:31.846Z</time></trkpt><trkpt lat="43.9217441" lon="8.1029833"><ele>8.600000000000001</ele><time>2026-04-19T07:05:32.846Z</time></trkpt><trkpt lat="43.9217764" lon="8.1030802"><ele>8.4</ele><time>2026-04-19T07:05:33.845Z</time></trkpt><trkpt lat="43.9218331" lon="8.1032534"><ele>8.200000000000001</ele><time>2026-04-19T07:05:35.845Z</time></trkpt><trkpt lat="43.9218514" lon="8.1034119"><ele>8.0</ele><time>2026-04-19T07:05:37.845Z</time></trkpt><trkpt lat="43.9218786" lon="8.1034968"><ele>7.833333333333333</ele><time>2026-04-19T07:05:38.846Z</time></trkpt><trkpt lat="43.9219103" lon="8.1035737"><ele>7.666666666666666</ele><time>2026-04-19T07:05:39.845Z</time></trkpt><trkpt lat="43.9219554" lon="8.1036362"><ele>7.5</ele><time>2026-04-19T07:05:40.846Z</time></trkpt><trkpt lat="43.9219875" lon="8.103731"><ele>7.333333333333334</ele><time>2026-04-19T07:05:41.846Z</time></trkpt><trkpt lat="43.922029" lon="8.1038307"><ele>7.166666666666667</ele><time>2026-04-19T07:05:42.846Z</time></trkpt><trkpt lat="43.9220662" lon="8.1039437"><ele>7.0</ele><time>2026-04-19T07:05:43.845Z</time></trkpt><trkpt lat="43.9221072" lon="8.104058"><ele>7.199999999999999</ele><time>2026-04-19T07:05:44.846Z</time></trkpt><trkpt lat="43.9221467" lon="8.104185"><ele>7.3999999999999995</ele><time>2026-04-19T07:05:45.845Z</time></trkpt><trkpt lat="43.9221877" lon="8.1043151"><ele>7.6000000000000005</ele><time>2026-04-19T07:05:46.846Z</time></trkpt><trkpt lat="43.9222304" lon="8.1044517"><ele>7.800000000000001</ele><time>2026-04-19T07:05:47.845Z</time></trkpt><trkpt lat="43.9222784" lon="8.1045952"><ele>8.0</ele><time>2026-04-19T07:05:48.846Z</time></trkpt><trkpt lat="43.9223246" lon="8.1047457"><ele>8.0</ele><time>2026-04-19T07:05:49.845Z</time></trkpt><trkpt lat="43.9223723" lon="8.1048938"><ele>8.0</ele><time>2026-04-19T07:05:50.846Z</time></trkpt><trkpt lat="43.9224213" lon="8.1050475"><ele>8.0</ele><time>2026-04-19T07:05:51.846Z</time></trkpt><trkpt lat="43.9224657" lon="8.1052014"><ele>8.0</ele><time>2026-04-19T07:05:52.844Z</time></trkpt><trkpt lat="43.9225152" lon="8.1053577"><ele>7.75</ele><time>2026-04-19T07:05:53.845Z</time></trkpt><trkpt lat="43.9225604" lon="8.1055082"><ele>7.5</ele><time>2026-04-19T07:05:54.846Z</time></trkpt><trkpt lat="43.9226126" lon="8.1056574"><ele>7.25</ele><time>2026-04-19T07:05:55.845Z</time></trkpt><trkpt lat="43.9226671" lon="8.1058015"><ele>7.0</ele><time>2026-04-19T07:05:56.845Z</time></trkpt><trkpt lat="43.922717" lon="8.105952"><ele>6.0</ele><time>2026-04-19T07:05:57.846Z</time></trkpt><trkpt lat="43.9227667" lon="8.1060976"><ele>5.0</ele><time>2026-04-19T07:05:58.845Z</time></trkpt><trkpt lat="43.9228116" lon="8.1062512"><ele>4.0</ele><time>2026-04-19T07:05:59.845Z</time></trkpt><trkpt lat="43.9228617" lon="8.1064026"><ele>3.0</ele><time>2026-04-19T07:06:00.845Z</time></trkpt><trkpt lat="43.9229108" lon="8.1065518"><ele>3.75</ele><time>2026-04-19T07:06:01.845Z</time></trkpt><trkpt lat="43.9229626" lon="8.1066965"><ele>4.5</ele><time>2026-04-19T07:06:02.845Z</time></trkpt><trkpt lat="43.9230129" lon="8.1068407"><ele>5.25</ele><time>2026-04-19T07:06:03.845Z</time></trkpt><trkpt lat="43.9230637" lon="8.1069861"><ele>6.0</ele><time>2026-04-19T07:06:04.846Z</time></trkpt><trkpt lat="43.9231103" lon="8.1071275"><ele>6.0</ele><time>2026-04-19T07:06:05.846Z</time></trkpt><trkpt lat="43.9231571" lon="8.1072646"><ele>6.0</ele><time>2026-04-19T07:06:06.847Z</time></trkpt><trkpt lat="43.9231883" lon="8.1074115"><ele>6.0</ele><time>2026-04-19T07:06:07.846Z</time></trkpt><trkpt lat="43.9232245" lon="8.1075642"><ele>6.0</ele><time>2026-04-19T07:06:08.847Z</time></trkpt><trkpt lat="43.9232536" lon="8.1077151"><ele>6.0</ele><time>2026-04-19T07:06:09.845Z</time></trkpt><trkpt lat="43.92328" lon="8.107865"><ele>6.199999999999999</ele><time>2026-04-19T07:06:10.846Z</time></trkpt><trkpt lat="43.9233087" lon="8.1080118"><ele>6.3999999999999995</ele><time>2026-04-19T07:06:11.846Z</time></trkpt><trkpt lat="43.9233448" lon="8.1081597"><ele>6.6</ele><time>2026-04-19T07:06:12.844Z</time></trkpt><trkpt lat="43.923387" lon="8.1083022"><ele>6.8</ele><time>2026-04-19T07:06:13.845Z</time></trkpt><trkpt lat="43.9234421" lon="8.108437"><ele>7.0</ele><time>2026-04-19T07:06:14.845Z</time></trkpt><trkpt lat="43.9235179" lon="8.1085568"><ele>7.0</ele><time>2026-04-19T07:06:15.847Z</time></trkpt><trkpt lat="43.9236105" lon="8.1086624"><ele>7.0</ele><time>2026-04-19T07:06:16.845Z</time></trkpt><trkpt lat="43.9237167" lon="8.1087487"><ele>7.0</ele><time>2026-04-19T07:06:17.845Z</time></trkpt><trkpt lat="43.9238252" lon="8.1088276"><ele>7.0</ele><time>2026-04-19T07:06:18.846Z</time></trkpt><trkpt lat="43.9239396" lon="8.1089091"><ele>7.0</ele><time>2026-04-19T07:06:19.846Z</time></trkpt><trkpt lat="43.9240232" lon="8.1090052"><ele>7.0</ele><time>2026-04-19T07:06:20.845Z</time></trkpt><trkpt lat="43.9240863" lon="8.1091452"><ele>7.0</ele><time>2026-04-19T07:06:21.846Z</time></trkpt><trkpt lat="43.9241187" lon="8.1092969"><ele>7.0</ele><time>2026-04-19T07:06:22.845Z</time></trkpt><trkpt lat="43.9241521" lon="8.1094494"><ele>7.0</ele><time>2026-04-19T07:06:23.845Z</time></trkpt><trkpt lat="43.9241678" lon="8.1096041"><ele>6.999999999999999</ele><time>2026-04-19T07:06:24.845Z</time></trkpt><trkpt lat="43.9241826" lon="8.1097604"><ele>6.999999999999999</ele><time>2026-04-19T07:06:25.846Z</time></trkpt><trkpt lat="43.9241982" lon="8.1099131"><ele>7.0</ele><time>2026-04-19T07:06:26.846Z</time></trkpt><trkpt lat="43.9242141" lon="8.1100586"><ele>7.0</ele><time>2026-04-19T07:06:27.845Z</time></trkpt><trkpt lat="43.9242301" lon="8.1102006"><ele>7.8</ele><time>2026-04-19T07:06:28.845Z</time></trkpt><trkpt lat="43.9242438" lon="8.1103522"><ele>8.6</ele><time>2026-04-19T07:06:29.845Z</time></trkpt><trkpt lat="43.9242472" lon="8.1104925"><ele>9.4</ele><time>2026-04-19T07:06:30.845Z</time></trkpt><trkpt lat="43.9242541" lon="8.1106351"><ele>10.200000000000001</ele><time>2026-04-19T07:06:31.844Z</time></trkpt><trkpt lat="43.9242666" lon="8.1107838"><ele>11.0</ele><time>2026-04-19T07:06:32.844Z</time></trkpt><trkpt lat="43.9242777" lon="8.1109431"><ele>11.200000000000001</ele><time>2026-04-19T07:06:33.845Z</time></trkpt><trkpt lat="43.9242918" lon="8.1111001"><ele>11.4</ele><time>2026-04-19T07:06:34.844Z</time></trkpt><trkpt lat="43.9243056" lon="8.1112454"><ele>11.6</ele><time>2026-04-19T07:06:35.846Z</time></trkpt><trkpt lat="43.9243161" lon="8.1114013"><ele>11.8</ele><time>2026-04-19T07:06:36.847Z</time></trkpt><trkpt lat="43.9243257" lon="8.1115544"><ele>12.0</ele><time>2026-04-19T07:06:37.846Z</time></trkpt><trkpt lat="43.9243377" lon="8.1117121"><ele>13.0</ele><time>2026-04-19T07:06:38.846Z</time></trkpt><trkpt lat="43.9243494" lon="8.1118709"><ele>14.0</ele><time>2026-04-19T07:06:39.845Z</time></trkpt><trkpt lat="43.9243675" lon="8.1120293"><ele>15.0</ele><time>2026-04-19T07:06:40.846Z</time></trkpt><trkpt lat="43.9243835" lon="8.1121856"><ele>16.0</ele><time>2026-04-19T07:06:41.845Z</time></trkpt><trkpt lat="43.924404" lon="8.1123378"><ele>17.0</ele><time>2026-04-19T07:06:42.845Z</time></trkpt><trkpt lat="43.9244268" lon="8.1124966"><ele>18.0</ele><time>2026-04-19T07:06:43.845Z</time></trkpt><trkpt lat="43.924453" lon="8.1126565"><ele>19.0</ele><time>2026-04-19T07:06:44.844Z</time></trkpt><trkpt lat="43.924487" lon="8.1128151"><ele>20.0</ele><time>2026-04-19T07:06:45.844Z</time></trkpt><trkpt lat="43.9245178" lon="8.1129744"><ele>20.0</ele><time>2026-04-19T07:06:46.845Z</time></trkpt><trkpt lat="43.9245495" lon="8.1131359"><ele>20.0</ele><time>2026-04-19T07:06:47.846Z</time></trkpt><trkpt lat="43.9245778" lon="8.1132997"><ele>20.0</ele><time>2026-04-19T07:06:48.844Z</time></trkpt><trkpt lat="43.9246014" lon="8.1134572"><ele>20.0</ele><time>2026-04-19T07:06:49.845Z</time></trkpt><trkpt lat="43.9246223" lon="8.1136075"><ele>19.2</ele><time>2026-04-19T07:06:50.845Z</time></trkpt><trkpt lat="43.9246525" lon="8.1137503"><ele>18.4</ele><time>2026-04-19T07:06:51.846Z</time></trkpt><trkpt lat="43.9246725" lon="8.1139041"><ele>17.6</ele><time>2026-04-19T07:06:52.845Z</time></trkpt><trkpt lat="43.9246949" lon="8.1140523"><ele>16.8</ele><time>2026-04-19T07:06:53.846Z</time></trkpt><trkpt lat="43.9247183" lon="8.1141936"><ele>16.0</ele><time>2026-04-19T07:06:54.846Z</time></trkpt><trkpt lat="43.9247283" lon="8.1143443"><ele>17.6</ele><time>2026-04-19T07:06:55.845Z</time></trkpt><trkpt lat="43.92474" lon="8.1144917"><ele>19.200000000000003</ele><time>2026-04-19T07:06:56.846Z</time></trkpt><trkpt lat="43.9247542" lon="8.1146396"><ele>20.799999999999997</ele><time>2026-04-19T07:06:57.845Z</time></trkpt><trkpt lat="43.9247604" lon="8.1147905"><ele>22.4</ele><time>2026-04-19T07:06:58.847Z</time></trkpt><trkpt lat="43.9247854" lon="8.11494"><ele>24.0</ele><time>2026-04-19T07:06:59.845Z</time></trkpt><trkpt lat="43.9248172" lon="8.1150871"><ele>24.5</ele><time>2026-04-19T07:07:00.846Z</time></trkpt><trkpt lat="43.9248639" lon="8.1152236"><ele>25.0</ele><time>2026-04-19T07:07:01.846Z</time></trkpt><trkpt lat="43.9249155" lon="8.1153677"><ele>25.5</ele><time>2026-04-19T07:07:02.844Z</time></trkpt><trkpt lat="43.9249698" lon="8.1155147"><ele>26.0</ele><time>2026-04-19T07:07:03.846Z</time></trkpt><trkpt lat="43.9250248" lon="8.1156627"><ele>32.0</ele><time>2026-04-19T07:07:04.845Z</time></trkpt><trkpt lat="43.9250808" lon="8.1158116"><ele>38.0</ele><time>2026-04-19T07:07:05.846Z</time></trkpt><trkpt lat="43.9251363" lon="8.1159687"><ele>44.0</ele><time>2026-04-19T07:07:06.845Z</time></trkpt><trkpt lat="43.9251923" lon="8.1161208"><ele>50.0</ele><time>2026-04-19T07:07:07.845Z</time></trkpt><trkpt lat="43.9252553" lon="8.1162721"><ele>50.0</ele><time>2026-04-19T07:07:08.846Z</time></trkpt><trkpt lat="43.9253091" lon="8.1164325"><ele>50.0</ele><time>2026-04-19T07:07:09.845Z</time></trkpt><trkpt lat="43.9253617" lon="8.1165806"><ele>50.0</ele><time>2026-04-19T07:07:10.846Z</time></trkpt><trkpt lat="43.925409" lon="8.1167386"><ele>50.0</ele><time>2026-04-19T07:07:11.846Z</time></trkpt><trkpt lat="43.9254661" lon="8.1168905"><ele>43.75</ele><time>2026-04-19T07:07:12.846Z</time></trkpt><trkpt lat="43.9255218" lon="8.1170406"><ele>37.5</ele><time>2026-04-19T07:07:13.847Z</time></trkpt><trkpt lat="43.9255726" lon="8.1171997"><ele>31.25</ele><time>2026-04-19T07:07:14.846Z</time></trkpt><trkpt lat="43.9256128" lon="8.1173608"><ele>25.0</ele><time>2026-04-19T07:07:15.846Z</time></trkpt><trkpt lat="43.925617" lon="8.1175241"><ele>24.25</ele><time>2026-04-19T07:07:16.845Z</time></trkpt><trkpt lat="43.9255919" lon="8.1176842"><ele>23.5</ele><time>2026-04-19T07:07:17.846Z</time></trkpt><trkpt lat="43.925549" lon="8.1178385"><ele>22.75</ele><time>2026-04-19T07:07:18.846Z</time></trkpt><trkpt lat="43.9254945" lon="8.1179913"><ele>22.0</ele><time>2026-04-19T07:07:19.844Z</time></trkpt><trkpt lat="43.9254298" lon="8.1181389"><ele>24.25</ele><time>2026-04-19T07:07:20.845Z</time></trkpt><trkpt lat="43.925373" lon="8.1182985"><ele>26.5</ele><time>2026-04-19T07:07:21.846Z</time></trkpt><trkpt lat="43.9253386" lon="8.1184671"><ele>28.75</ele><time>2026-04-19T07:07:22.845Z</time></trkpt><trkpt lat="43.9253299" lon="8.1186373"><ele>31.0</ele><time>2026-04-19T07:07:23.845Z</time></trkpt><trkpt lat="43.9253358" lon="8.1188079"><ele>31.0</ele><time>2026-04-19T07:07:24.845Z</time></trkpt><trkpt lat="43.9253529" lon="8.1189698"><ele>31.0</ele><time>2026-04-19T07:07:25.845Z</time></trkpt><trkpt lat="43.9253822" lon="8.1191267"><ele>31.0</ele><time>2026-04-19T07:07:26.845Z</time></trkpt><trkpt lat="43.9254184" lon="8.1192828"><ele>31.0</ele><time>2026-04-19T07:07:27.846Z</time></trkpt><trkpt lat="43.925462" lon="8.1194293"><ele>30.5</ele><time>2026-04-19T07:07:28.846Z</time></trkpt><trkpt lat="43.9255146" lon="8.1195717"><ele>30.0</ele><time>2026-04-19T07:07:29.845Z</time></trkpt><trkpt lat="43.9255815" lon="8.1197047"><ele>29.5</ele><time>2026-04-19T07:07:30.845Z</time></trkpt><trkpt lat="43.9256575" lon="8.1198244"><ele>29.0</ele><time>2026-04-19T07:07:31.847Z</time></trkpt><trkpt lat="43.9257339" lon="8.1199423"><ele>26.75</ele><time>2026-04-19T07:07:32.846Z</time></trkpt><trkpt lat="43.925811" lon="8.1200683"><ele>24.5</ele><time>2026-04-19T07:07:33.845Z</time></trkpt><trkpt lat="43.9258876" lon="8.1201956"><ele>22.25</ele><time>2026-04-19T07:07:34.846Z</time></trkpt><trkpt lat="43.9259476" lon="8.1203385"><ele>20.0</ele><time>2026-04-19T07:07:35.844Z</time></trkpt><trkpt lat="43.9260065" lon="8.1204967"><ele>28.75</ele><time>2026-04-19T07:07:36.846Z</time></trkpt><trkpt lat="43.9260601" lon="8.1206585"><ele>37.5</ele><time>2026-04-19T07:07:37.846Z</time></trkpt><trkpt lat="43.9261007" lon="8.1208317"><ele>46.25</ele><time>2026-04-19T07:07:38.845Z</time></trkpt><trkpt lat="43.9261189" lon="8.1209998"><ele>55.0</ele><time>2026-04-19T07:07:39.846Z</time></trkpt><trkpt lat="43.9261321" lon="8.1211829"><ele>55.0</ele><time>2026-04-19T07:07:40.845Z</time></trkpt><trkpt lat="43.9261559" lon="8.1213602"><ele>55.0</ele><time>2026-04-19T07:07:41.845Z</time></trkpt><trkpt lat="43.9261996" lon="8.1215277"><ele>55.0</ele><time>2026-04-19T07:07:42.845Z</time></trkpt><trkpt lat="43.9262643" lon="8.1216857"><ele>55.0</ele><time>2026-04-19T07:07:43.845Z</time></trkpt><trkpt lat="43.9263205" lon="8.1218505"><ele>52.75</ele><time>2026-04-19T07:07:44.845Z</time></trkpt><trkpt lat="43.9263462" lon="8.1220253"><ele>50.5</ele><time>2026-04-19T07:07:45.846Z</time></trkpt><trkpt lat="43.926372" lon="8.1222108"><ele>48.25</ele><time>2026-04-19T07:07:46.845Z</time></trkpt><trkpt lat="43.9264096" lon="8.1223902"><ele>46.0</ele><time>2026-04-19T07:07:47.846Z</time></trkpt><trkpt lat="43.9264515" lon="8.1225647"><ele>43.25</ele><time>2026-04-19T07:07:48.845Z</time></trkpt><trkpt lat="43.9265003" lon="8.122736"><ele>40.5</ele><time>2026-04-19T07:07:49.845Z</time></trkpt><trkpt lat="43.9265552" lon="8.1229029"><ele>37.75</ele><time>2026-04-19T07:07:50.846Z</time></trkpt><trkpt lat="43.9266149" lon="8.1230667"><ele>35.0</ele><time>2026-04-19T07:07:51.845Z</time></trkpt><trkpt lat="43.9266687" lon="8.1232425"><ele>33.0</ele><time>2026-04-19T07:07:52.844Z</time></trkpt><trkpt lat="43.9267033" lon="8.1234235"><ele>31.0</ele><time>2026-04-19T07:07:53.846Z</time></trkpt><trkpt lat="43.9267179" lon="8.123604"><ele>29.0</ele><time>2026-04-19T07:07:54.847Z</time></trkpt><trkpt lat="43.9267216" lon="8.1237848"><ele>27.0</ele><time>2026-04-19T07:07:55.844Z</time></trkpt><trkpt lat="43.9267337" lon="8.1239627"><ele>37.75</ele><time>2026-04-19T07:07:56.846Z</time></trkpt><trkpt lat="43.9267471" lon="8.1241438"><ele>48.5</ele><time>2026-04-19T07:07:57.845Z</time></trkpt><trkpt lat="43.9267649" lon="8.1243283"><ele>59.25</ele><time>2026-04-19T07:07:58.845Z</time></trkpt><trkpt lat="43.9267759" lon="8.1245031"><ele>70.0</ele><time>2026-04-19T07:07:59.846Z</time></trkpt><trkpt lat="43.9267972" lon="8.1246783"><ele>70.0</ele><time>2026-04-19T07:08:00.845Z</time></trkpt><trkpt lat="43.9268378" lon="8.1248392"><ele>70.0</ele><time>2026-04-19T07:08:01.845Z</time></trkpt><trkpt lat="43.9268935" lon="8.1249943"><ele>70.0</ele><time>2026-04-19T07:08:02.845Z</time></trkpt><trkpt lat="43.9269527" lon="8.1251481"><ele>70.0</ele><time>2026-04-19T07:08:03.845Z</time></trkpt><trkpt lat="43.9270126" lon="8.1253042"><ele>65.5</ele><time>2026-04-19T07:08:04.844Z</time></trkpt><trkpt lat="43.9270717" lon="8.1254589"><ele>61.0</ele><time>2026-04-19T07:08:05.845Z</time></trkpt><trkpt lat="43.9271232" lon="8.1256104"><ele>56.5</ele><time>2026-04-19T07:08:06.845Z</time></trkpt><trkpt lat="43.927178" lon="8.1257754"><ele>52.0</ele><time>2026-04-19T07:08:07.845Z</time></trkpt><trkpt lat="43.9272433" lon="8.1259217"><ele>48.75</ele><time>2026-04-19T07:08:08.845Z</time></trkpt><trkpt lat="43.9273259" lon="8.1260612"><ele>45.5</ele><time>2026-04-19T07:08:09.846Z</time></trkpt><trkpt lat="43.9274181" lon="8.1261896"><ele>42.25</ele><time>2026-04-19T07:08:10.845Z</time></trkpt><trkpt lat="43.9275071" lon="8.1263387"><ele>39.0</ele><time>2026-04-19T07:08:11.845Z</time></trkpt><trkpt lat="43.9275929" lon="8.12648"><ele>42.75</ele><time>2026-04-19T07:08:12.845Z</time></trkpt><trkpt lat="43.9276812" lon="8.1266212"><ele>46.5</ele><time>2026-04-19T07:08:13.845Z</time></trkpt><trkpt lat="43.9277727" lon="8.126769"><ele>50.25</ele><time>2026-04-19T07:08:14.844Z</time></trkpt><trkpt lat="43.9278574" lon="8.1269173"><ele>54.0</ele><time>2026-04-19T07:08:15.846Z</time></trkpt><trkpt lat="43.927949" lon="8.1270604"><ele>54.0</ele><time>2026-04-19T07:08:16.846Z</time></trkpt><trkpt lat="43.9280353" lon="8.1272076"><ele>54.0</ele><time>2026-04-19T07:08:17.845Z</time></trkpt><trkpt lat="43.9281128" lon="8.1273635"><ele>54.0</ele><time>2026-04-19T07:08:18.846Z</time></trkpt><trkpt lat="43.9281601" lon="8.1275373"><ele>54.0</ele><time>2026-04-19T07:08:19.847Z</time></trkpt><trkpt lat="43.9281873" lon="8.1277231"><ele>53.5</ele><time>2026-04-19T07:08:20.846Z</time></trkpt><trkpt lat="43.9281915" lon="8.1279007"><ele>53.0</ele><time>2026-04-19T07:08:21.844Z</time></trkpt><trkpt lat="43.9281778" lon="8.1280715"><ele>52.5</ele><time>2026-04-19T07:08:22.846Z</time></trkpt><trkpt lat="43.9281977" lon="8.1282272"><ele>52.0</ele><time>2026-04-19T07:08:23.845Z</time></trkpt><trkpt lat="43.9282392" lon="8.1283599"><ele>50.0</ele><time>2026-04-19T07:08:24.845Z</time></trkpt><trkpt lat="43.9283082" lon="8.1284752"><ele>48.0</ele><time>2026-04-19T07:08:25.845Z</time></trkpt><trkpt lat="43.9283961" lon="8.1285689"><ele>46.0</ele><time>2026-04-19T07:08:26.844Z</time></trkpt><trkpt lat="43.9284858" lon="8.1286747"><ele>44.0</ele><time>2026-04-19T07:08:27.846Z</time></trkpt><trkpt lat="43.9285769" lon="8.1287779"><ele>53.0</ele><time>2026-04-19T07:08:28.844Z</time></trkpt><trkpt lat="43.9286772" lon="8.1288574"><ele>62.0</ele><time>2026-04-19T07:08:29.845Z</time></trkpt><trkpt lat="43.9287877" lon="8.1289275"><ele>71.0</ele><time>2026-04-19T07:08:30.845Z</time></trkpt><trkpt lat="43.9289101" lon="8.1289564"><ele>80.0</ele><time>2026-04-19T07:08:31.845Z</time></trkpt><trkpt lat="43.9290191" lon="8.1290204"><ele>81.25</ele><time>2026-04-19T07:08:32.846Z</time></trkpt><trkpt lat="43.9291134" lon="8.1291262"><ele>82.5</ele><time>2026-04-19T07:08:33.844Z</time></trkpt><trkpt lat="43.9291983" lon="8.1292594"><ele>83.75</ele><time>2026-04-19T07:08:34.845Z</time></trkpt><trkpt lat="43.9292692" lon="8.129404"><ele>85.0</ele><time>2026-04-19T07:08:35.846Z</time></trkpt><trkpt lat="43.9293528" lon="8.1295343"><ele>85.0</ele><time>2026-04-19T07:08:36.845Z</time></trkpt><trkpt lat="43.9294564" lon="8.1296317"><ele>85.0</ele><time>2026-04-19T07:08:37.846Z</time></trkpt><trkpt lat="43.9295781" lon="8.1296786"><ele>85.0</ele><time>2026-04-19T07:08:38.845Z</time></trkpt><trkpt lat="43.9296979" lon="8.1297014"><ele>85.0</ele><time>2026-04-19T07:08:39.845Z</time></trkpt><trkpt lat="43.9298184" lon="8.1297402"><ele>85.0</ele><time>2026-04-19T07:08:40.845Z</time></trkpt><trkpt lat="43.9299201" lon="8.1298379"><ele>85.0</ele><time>2026-04-19T07:08:41.844Z</time></trkpt><trkpt lat="43.9300216" lon="8.1299352"><ele>85.0</ele><time>2026-04-19T07:08:42.844Z</time></trkpt><trkpt lat="43.9301012" lon="8.1300729"><ele>85.0</ele><time>2026-04-19T07:08:43.844Z</time></trkpt><trkpt lat="43.930196" lon="8.130185"><ele>85.0</ele><time>2026-04-19T07:08:44.844Z</time></trkpt><trkpt lat="43.930304" lon="8.130283"><ele>85.0</ele><time>2026-04-19T07:08:45.846Z</time></trkpt><trkpt lat="43.930419" lon="8.1303688"><ele>85.0</ele><time>2026-04-19T07:08:46.845Z</time></trkpt><trkpt lat="43.9305369" lon="8.1304319"><ele>85.0</ele><time>2026-04-19T07:08:47.845Z</time></trkpt><trkpt lat="43.9306552" lon="8.1304899"><ele>85.0</ele><time>2026-04-19T07:08:48.847Z</time></trkpt><trkpt lat="43.9307624" lon="8.1305638"><ele>85.0</ele><time>2026-04-19T07:08:49.845Z</time></trkpt><trkpt lat="43.9308601" lon="8.1306452"><ele>85.0</ele><time>2026-04-19T07:08:50.845Z</time></trkpt><trkpt lat="43.930959" lon="8.1307331"><ele>85.0</ele><time>2026-04-19T07:08:51.845Z</time></trkpt><trkpt lat="43.9310581" lon="8.1308147"><ele>82.25</ele><time>2026-04-19T07:08:52.846Z</time></trkpt><trkpt lat="43.9311545" lon="8.1308917"><ele>79.5</ele><time>2026-04-19T07:08:53.845Z</time></trkpt><trkpt lat="43.9312583" lon="8.1309519"><ele>76.75</ele><time>2026-04-19T07:08:54.844Z</time></trkpt><trkpt lat="43.9313636" lon="8.1310159"><ele>74.0</ele><time>2026-04-19T07:08:55.846Z</time></trkpt><trkpt lat="43.9314751" lon="8.131037"><ele>74.0</ele><time>2026-04-19T07:08:56.845Z</time></trkpt><trkpt lat="43.9315801" lon="8.1310767"><ele>74.0</ele><time>2026-04-19T07:08:57.845Z</time></trkpt><trkpt lat="43.9316759" lon="8.1311336"><ele>74.0</ele><time>2026-04-19T07:08:58.846Z</time></trkpt><trkpt lat="43.9317625" lon="8.1311973"><ele>74.0</ele><time>2026-04-19T07:08:59.846Z</time></trkpt><trkpt lat="43.9318353" lon="8.1313105"><ele>74.0</ele><time>2026-04-19T07:09:00.845Z</time></trkpt><trkpt lat="43.9319018" lon="8.1314109"><ele>76.0</ele><time>2026-04-19T07:09:01.845Z</time></trkpt><trkpt lat="43.9319839" lon="8.1314789"><ele>78.0</ele><time>2026-04-19T07:09:02.845Z</time></trkpt><trkpt lat="43.932074" lon="8.131506"><ele>80.0</ele><time>2026-04-19T07:09:03.845Z</time></trkpt><trkpt lat="43.9321605" lon="8.1314975"><ele>82.0</ele><time>2026-04-19T07:09:04.845Z</time></trkpt><trkpt lat="43.9322493" lon="8.1314652"><ele>84.0</ele><time>2026-04-19T07:09:05.845Z</time></trkpt><trkpt lat="43.9323334" lon="8.1314088"><ele>84.0</ele><time>2026-04-19T07:09:06.845Z</time></trkpt><trkpt lat="43.9324229" lon="8.1313763"><ele>84.0</ele><time>2026-04-19T07:09:07.846Z</time></trkpt><trkpt lat="43.9325191" lon="8.1313632"><ele>84.0</ele><time>2026-04-19T07:09:08.846Z</time></trkpt><trkpt lat="43.9326145" lon="8.13138"><ele>84.0</ele><time>2026-04-19T07:09:09.846Z</time></trkpt><trkpt lat="43.9327097" lon="8.1314267"><ele>84.0</ele><time>2026-04-19T07:09:10.846Z</time></trkpt><trkpt lat="43.9327954" lon="8.1314948"><ele>80.0</ele><time>2026-04-19T07:09:11.845Z</time></trkpt><trkpt lat="43.9328773" lon="8.1315805"><ele>76.0</ele><time>2026-04-19T07:09:12.845Z</time></trkpt><trkpt lat="43.9329739" lon="8.1316435"><ele>72.0</ele><time>2026-04-19T07:09:13.844Z</time></trkpt><trkpt lat="43.933076" lon="8.1316846"><ele>68.0</ele><time>2026-04-19T07:09:14.846Z</time></trkpt><trkpt lat="43.9331825" lon="8.1316976"><ele>64.0</ele><time>2026-04-19T07:09:15.845Z</time></trkpt><trkpt lat="43.9332894" lon="8.1316985"><ele>63.75</ele><time>2026-04-19T07:09:16.845Z</time></trkpt><trkpt lat="43.9334035" lon="8.1316907"><ele>63.5</ele><time>2026-04-19T07:09:17.845Z</time></trkpt><trkpt lat="43.9335146" lon="8.1316795"><ele>63.25</ele><time>2026-04-19T07:09:18.844Z</time></trkpt><trkpt lat="43.9336288" lon="8.1316689"><ele>63.0</ele><time>2026-04-19T07:09:19.844Z</time></trkpt><trkpt lat="43.9337449" lon="8.1316691"><ele>63.0</ele><time>2026-04-19T07:09:20.845Z</time></trkpt><trkpt lat="43.9338642" lon="8.1316606"><ele>63.0</ele><time>2026-04-19T07:09:21.845Z</time></trkpt><trkpt lat="43.9339869" lon="8.1316585"><ele>63.0</ele><time>2026-04-19T07:09:22.845Z</time></trkpt><trkpt lat="43.9341115" lon="8.1316593"><ele>63.0</ele><time>2026-04-19T07:09:23.845Z</time></trkpt><trkpt lat="43.9342355" lon="8.1316682"><ele>66.25</ele><time>2026-04-19T07:09:24.845Z</time></trkpt><trkpt lat="43.9343582" lon="8.1316779"><ele>69.5</ele><time>2026-04-19T07:09:25.845Z</time></trkpt><trkpt lat="43.9344766" lon="8.1316937"><ele>72.75</ele><time>2026-04-19T07:09:26.845Z</time></trkpt><trkpt lat="43.9345995" lon="8.1317112"><ele>76.0</ele><time>2026-04-19T07:09:27.844Z</time></trkpt><trkpt lat="43.9347083" lon="8.1317642"><ele>76.0</ele><time>2026-04-19T07:09:28.846Z</time></trkpt><trkpt lat="43.9348173" lon="8.1318247"><ele>76.0</ele><time>2026-04-19T07:09:29.845Z</time></trkpt><trkpt lat="43.9349247" lon="8.1318981"><ele>76.0</ele><time>2026-04-19T07:09:30.845Z</time></trkpt><trkpt lat="43.9350186" lon="8.131993"><ele>76.0</ele><time>2026-04-19T07:09:31.846Z</time></trkpt><trkpt lat="43.9351042" lon="8.1321105"><ele>73.0</ele><time>2026-04-19T07:09:32.845Z</time></trkpt><trkpt lat="43.9351803" lon="8.1322341"><ele>70.0</ele><time>2026-04-19T07:09:33.845Z</time></trkpt><trkpt lat="43.9352631" lon="8.1323604"><ele>67.0</ele><time>2026-04-19T07:09:34.845Z</time></trkpt><trkpt lat="43.9353562" lon="8.1324721"><ele>64.0</ele><time>2026-04-19T07:09:35.845Z</time></trkpt><trkpt lat="43.9354552" lon="8.132546"><ele>64.0</ele><time>2026-04-19T07:09:36.844Z</time></trkpt><trkpt lat="43.9355596" lon="8.132591"><ele>64.0</ele><time>2026-04-19T07:09:37.844Z</time></trkpt><trkpt lat="43.9356683" lon="8.1326141"><ele>64.0</ele><time>2026-04-19T07:09:38.846Z</time></trkpt><trkpt lat="43.9357697" lon="8.1326236"><ele>64.0</ele><time>2026-04-19T07:09:39.845Z</time></trkpt><trkpt lat="43.9358741" lon="8.1326072"><ele>64.0</ele><time>2026-04-19T07:09:40.844Z</time></trkpt><trkpt lat="43.9359762" lon="8.1325786"><ele>66.0</ele><time>2026-04-19T07:09:41.845Z</time></trkpt><trkpt lat="43.9360781" lon="8.1325419"><ele>68.0</ele><time>2026-04-19T07:09:42.845Z</time></trkpt><trkpt lat="43.9361831" lon="8.1324989"><ele>70.0</ele><time>2026-04-19T07:09:43.845Z</time></trkpt><trkpt lat="43.9362861" lon="8.1324682"><ele>72.0</ele><time>2026-04-19T07:09:44.844Z</time></trkpt><trkpt lat="43.9363865" lon="8.1324493"><ele>74.0</ele><time>2026-04-19T07:09:45.845Z</time></trkpt><trkpt lat="43.9364915" lon="8.1325292"><ele>74.0</ele><time>2026-04-19T07:09:46.846Z</time></trkpt><trkpt lat="43.9365802" lon="8.1326093"><ele>74.0</ele><time>2026-04-19T07:09:47.845Z</time></trkpt><trkpt lat="43.9366722" lon="8.1326957"><ele>74.0</ele><time>2026-04-19T07:09:48.845Z</time></trkpt><trkpt lat="43.9367515" lon="8.1328032"><ele>74.0</ele><time>2026-04-19T07:09:49.846Z</time></trkpt><trkpt lat="43.9368284" lon="8.1329026"><ele>74.0</ele><time>2026-04-19T07:09:50.845Z</time></trkpt><trkpt lat="43.9369136" lon="8.1329944"><ele>72.60000000000001</ele><time>2026-04-19T07:09:51.845Z</time></trkpt><trkpt lat="43.9369982" lon="8.1330851"><ele>71.2</ele><time>2026-04-19T07:09:52.845Z</time></trkpt><trkpt lat="43.9370886" lon="8.1331687"><ele>69.80000000000001</ele><time>2026-04-19T07:09:53.845Z</time></trkpt><trkpt lat="43.9371739" lon="8.1332606"><ele>68.4</ele><time>2026-04-19T07:09:54.844Z</time></trkpt><trkpt lat="43.9372657" lon="8.1333463"><ele>67.0</ele><time>2026-04-19T07:09:55.845Z</time></trkpt><trkpt lat="43.9373602" lon="8.1334287"><ele>67.0</ele><time>2026-04-19T07:09:56.844Z</time></trkpt><trkpt lat="43.9374557" lon="8.1335113"><ele>67.0</ele><time>2026-04-19T07:09:57.845Z</time></trkpt><trkpt lat="43.9375466" lon="8.1336121"><ele>67.0</ele><time>2026-04-19T07:09:58.844Z</time></trkpt><trkpt lat="43.93765" lon="8.1336807"><ele>67.0</ele><time>2026-04-19T07:09:59.846Z</time></trkpt><trkpt lat="43.9377586" lon="8.1337397"><ele>70.5</ele><time>2026-04-19T07:10:00.845Z</time></trkpt><trkpt lat="43.9378776" lon="8.1337689"><ele>74.0</ele><time>2026-04-19T07:10:01.845Z</time></trkpt><trkpt lat="43.938" lon="8.1337819"><ele>77.5</ele><time>2026-04-19T07:10:02.844Z</time></trkpt><trkpt lat="43.9381293" lon="8.1337991"><ele>81.0</ele><time>2026-04-19T07:10:03.845Z</time></trkpt><trkpt lat="43.9382484" lon="8.1338765"><ele>81.0</ele><time>2026-04-19T07:10:04.845Z</time></trkpt><trkpt lat="43.9383638" lon="8.1339651"><ele>81.0</ele><time>2026-04-19T07:10:05.845Z</time></trkpt><trkpt lat="43.9384553" lon="8.1340523"><ele>81.0</ele><time>2026-04-19T07:10:06.845Z</time></trkpt><trkpt lat="43.9385494" lon="8.1341395"><ele>81.0</ele><time>2026-04-19T07:10:07.845Z</time></trkpt><trkpt lat="43.9386559" lon="8.1342194"><ele>75.2</ele><time>2026-04-19T07:10:08.845Z</time></trkpt><trkpt lat="43.9387647" lon="8.134237"><ele>69.39999999999999</ele><time>2026-04-19T07:10:09.845Z</time></trkpt><trkpt lat="43.9388706" lon="8.134235"><ele>63.6</ele><time>2026-04-19T07:10:10.845Z</time></trkpt><trkpt lat="43.9389777" lon="8.1342007"><ele>57.8</ele><time>2026-04-19T07:10:11.845Z</time></trkpt><trkpt lat="43.9390775" lon="8.134161"><ele>52.0</ele><time>2026-04-19T07:10:12.845Z</time></trkpt><trkpt lat="43.9391726" lon="8.1341024"><ele>56.6</ele><time>2026-04-19T07:10:13.845Z</time></trkpt><trkpt lat="43.9392682" lon="8.1340443"><ele>61.2</ele><time>2026-04-19T07:10:14.845Z</time></trkpt><trkpt lat="43.9393605" lon="8.1339938"><ele>65.8</ele><time>2026-04-19T07:10:15.845Z</time></trkpt><trkpt lat="43.9394504" lon="8.1339351"><ele>70.4</ele><time>2026-04-19T07:10:16.845Z</time></trkpt><trkpt lat="43.9395403" lon="8.1338733"><ele>75.0</ele><time>2026-04-19T07:10:17.845Z</time></trkpt><trkpt lat="43.9396285" lon="8.133828"><ele>75.0</ele><time>2026-04-19T07:10:18.845Z</time></trkpt><trkpt lat="43.9397297" lon="8.13379"><ele>75.0</ele><time>2026-04-19T07:10:19.844Z</time></trkpt><trkpt lat="43.9398388" lon="8.1337545"><ele>75.0</ele><time>2026-04-19T07:10:20.845Z</time></trkpt><trkpt lat="43.9399487" lon="8.1337365"><ele>75.0</ele><time>2026-04-19T07:10:21.845Z</time></trkpt><trkpt lat="43.9400614" lon="8.133716"><ele>75.0</ele><time>2026-04-19T07:10:22.845Z</time></trkpt><trkpt lat="43.9401718" lon="8.133662"><ele>72.8</ele><time>2026-04-19T07:10:23.844Z</time></trkpt><trkpt lat="43.9402732" lon="8.1336133"><ele>70.6</ele><time>2026-04-19T07:10:24.844Z</time></trkpt><trkpt lat="43.9403681" lon="8.1335561"><ele>68.4</ele><time>2026-04-19T07:10:25.845Z</time></trkpt><trkpt lat="43.9404581" lon="8.1335036"><ele>66.2</ele><time>2026-04-19T07:10:26.845Z</time></trkpt><trkpt lat="43.9405606" lon="8.1335062"><ele>64.0</ele><time>2026-04-19T07:10:27.844Z</time></trkpt><trkpt lat="43.940646" lon="8.1335531"><ele>64.0</ele><time>2026-04-19T07:10:28.845Z</time></trkpt><trkpt lat="43.9407321" lon="8.1336154"><ele>64.0</ele><time>2026-04-19T07:10:29.845Z</time></trkpt><trkpt lat="43.9407911" lon="8.133714"><ele>64.0</ele><time>2026-04-19T07:10:30.846Z</time></trkpt><trkpt lat="43.940841" lon="8.1338333"><ele>64.0</ele><time>2026-04-19T07:10:31.845Z</time></trkpt><trkpt lat="43.9408697" lon="8.1339564"><ele>64.0</ele><time>2026-04-19T07:10:32.845Z</time></trkpt><trkpt lat="43.9408863" lon="8.1340893"><ele>65.2</ele><time>2026-04-19T07:10:33.845Z</time></trkpt><trkpt lat="43.9408861" lon="8.1342231"><ele>66.4</ele><time>2026-04-19T07:10:34.845Z</time></trkpt><trkpt lat="43.9408927" lon="8.1343525"><ele>67.6</ele><time>2026-04-19T07:10:35.845Z</time></trkpt><trkpt lat="43.9409076" lon="8.1344757"><ele>68.8</ele><time>2026-04-19T07:10:36.846Z</time></trkpt><trkpt lat="43.9409514" lon="8.1345918"><ele>70.0</ele><time>2026-04-19T07:10:37.845Z</time></trkpt><trkpt lat="43.9410066" lon="8.1346908"><ele>70.0</ele><time>2026-04-19T07:10:38.845Z</time></trkpt><trkpt lat="43.9411005" lon="8.1347436"><ele>70.0</ele><time>2026-04-19T07:10:39.845Z</time></trkpt><trkpt lat="43.9411925" lon="8.1347806"><ele>70.0</ele><time>2026-04-19T07:10:40.845Z</time></trkpt><trkpt lat="43.9412912" lon="8.1348093"><ele>70.0</ele><time>2026-04-19T07:10:41.846Z</time></trkpt><trkpt lat="43.9413847" lon="8.1348552"><ele>70.0</ele><time>2026-04-19T07:10:42.845Z</time></trkpt><trkpt lat="43.9414639" lon="8.1349207"><ele>69.4</ele><time>2026-04-19T07:10:43.845Z</time></trkpt><trkpt lat="43.941546" lon="8.1349874"><ele>68.8</ele><time>2026-04-19T07:10:44.846Z</time></trkpt><trkpt lat="43.9416202" lon="8.1350755"><ele>68.2</ele><time>2026-04-19T07:10:45.845Z</time></trkpt><trkpt lat="43.9416897" lon="8.1351662"><ele>67.6</ele><time>2026-04-19T07:10:46.845Z</time></trkpt><trkpt lat="43.9417584" lon="8.1352481"><ele>67.0</ele><time>2026-04-19T07:10:47.845Z</time></trkpt><trkpt lat="43.9418441" lon="8.1353255"><ele>67.0</ele><time>2026-04-19T07:10:48.845Z</time></trkpt><trkpt lat="43.9419327" lon="8.1353823"><ele>67.0</ele><time>2026-04-19T07:10:49.845Z</time></trkpt><trkpt lat="43.9420279" lon="8.1354264"><ele>67.0</ele><time>2026-04-19T07:10:50.845Z</time></trkpt><trkpt lat="43.9421296" lon="8.1354453"><ele>67.0</ele><time>2026-04-19T07:10:51.844Z</time></trkpt><trkpt lat="43.9422283" lon="8.1354541"><ele>67.0</ele><time>2026-04-19T07:10:52.845Z</time></trkpt><trkpt lat="43.9423228" lon="8.135483"><ele>67.0</ele><time>2026-04-19T07:10:53.845Z</time></trkpt><trkpt lat="43.942414" lon="8.1355164"><ele>67.0</ele><time>2026-04-19T07:10:54.845Z</time></trkpt><trkpt lat="43.9425013" lon="8.135577"><ele>67.0</ele><time>2026-04-19T07:10:55.844Z</time></trkpt><trkpt lat="43.9425742" lon="8.1356734"><ele>67.0</ele><time>2026-04-19T07:10:56.845Z</time></trkpt><trkpt lat="43.9426523" lon="8.1357616"><ele>67.0</ele><time>2026-04-19T07:10:57.844Z</time></trkpt><trkpt lat="43.942743" lon="8.135834"><ele>62.6</ele><time>2026-04-19T07:10:58.844Z</time></trkpt><trkpt lat="43.9428425" lon="8.1358893"><ele>58.2</ele><time>2026-04-19T07:10:59.844Z</time></trkpt><trkpt lat="43.94295" lon="8.1359237"><ele>53.8</ele><time>2026-04-19T07:11:00.845Z</time></trkpt><trkpt lat="43.9430626" lon="8.1359421"><ele>49.4</ele><time>2026-04-19T07:11:01.846Z</time></trkpt><trkpt lat="43.9431707" lon="8.1359502"><ele>45.0</ele><time>2026-04-19T07:11:02.844Z</time></trkpt><trkpt lat="43.9432703" lon="8.1359689"><ele>45.0</ele><time>2026-04-19T07:11:03.844Z</time></trkpt><trkpt lat="43.9433634" lon="8.1360227"><ele>45.0</ele><time>2026-04-19T07:11:04.845Z</time></trkpt><trkpt lat="43.9434444" lon="8.136098"><ele>45.0</ele><time>2026-04-19T07:11:05.845Z</time></trkpt><trkpt lat="43.9435199" lon="8.1361938"><ele>45.0</ele><time>2026-04-19T07:11:06.845Z</time></trkpt><trkpt lat="43.9435829" lon="8.1363165"><ele>45.0</ele><time>2026-04-19T07:11:07.845Z</time></trkpt><trkpt lat="43.9436329" lon="8.1364372"><ele>43.6</ele><time>2026-04-19T07:11:08.845Z</time></trkpt><trkpt lat="43.9436774" lon="8.1365594"><ele>42.2</ele><time>2026-04-19T07:11:09.846Z</time></trkpt><trkpt lat="43.9437473" lon="8.1366642"><ele>40.8</ele><time>2026-04-19T07:11:10.845Z</time></trkpt><trkpt lat="43.9438181" lon="8.1367704"><ele>39.4</ele><time>2026-04-19T07:11:11.845Z</time></trkpt><trkpt lat="43.9439175" lon="8.1368365"><ele>38.0</ele><time>2026-04-19T07:11:12.845Z</time></trkpt><trkpt lat="43.9440198" lon="8.1368802"><ele>38.0</ele><time>2026-04-19T07:11:13.845Z</time></trkpt><trkpt lat="43.9441266" lon="8.1368986"><ele>38.0</ele><time>2026-04-19T07:11:14.844Z</time></trkpt><trkpt lat="43.9442323" lon="8.1369052"><ele>38.0</ele><time>2026-04-19T07:11:15.845Z</time></trkpt><trkpt lat="43.9443212" lon="8.1369419"><ele>38.0</ele><time>2026-04-19T07:11:16.845Z</time></trkpt><trkpt lat="43.944411" lon="8.1370073"><ele>38.0</ele><time>2026-04-19T07:11:17.845Z</time></trkpt><trkpt lat="43.9444905" lon="8.1370877"><ele>36.199999999999996</ele><time>2026-04-19T07:11:18.846Z</time></trkpt><trkpt lat="43.9445544" lon="8.137182"><ele>34.4</ele><time>2026-04-19T07:11:19.846Z</time></trkpt><trkpt lat="43.9446364" lon="8.1372784"><ele>32.599999999999994</ele><time>2026-04-19T07:11:20.845Z</time></trkpt><trkpt lat="43.9447192" lon="8.1373631"><ele>30.799999999999997</ele><time>2026-04-19T07:11:21.845Z</time></trkpt><trkpt lat="43.9448091" lon="8.1374243"><ele>29.0</ele><time>2026-04-19T07:11:22.845Z</time></trkpt><trkpt lat="43.9449108" lon="8.1374715"><ele>29.0</ele><time>2026-04-19T07:11:23.845Z</time></trkpt><trkpt lat="43.9450133" lon="8.1375181"><ele>29.0</ele><time>2026-04-19T07:11:24.845Z</time></trkpt><trkpt lat="43.9451209" lon="8.1375617"><ele>29.0</ele><time>2026-04-19T07:11:25.845Z</time></trkpt><trkpt lat="43.945228" lon="8.1376263"><ele>29.0</ele><time>2026-04-19T07:11:26.845Z</time></trkpt><trkpt lat="43.9453357" lon="8.1376963"><ele>30.799999999999997</ele><time>2026-04-19T07:11:27.845Z</time></trkpt><trkpt lat="43.9454401" lon="8.1377706"><ele>32.599999999999994</ele><time>2026-04-19T07:11:28.844Z</time></trkpt><trkpt lat="43.9455409" lon="8.1378416"><ele>34.4</ele><time>2026-04-19T07:11:29.845Z</time></trkpt><trkpt lat="43.9456421" lon="8.137905"><ele>36.199999999999996</ele><time>2026-04-19T07:11:30.844Z</time></trkpt><trkpt lat="43.9457426" lon="8.1379568"><ele>38.0</ele><time>2026-04-19T07:11:31.845Z</time></trkpt><trkpt lat="43.9458431" lon="8.1379924"><ele>37.6</ele><time>2026-04-19T07:11:32.845Z</time></trkpt><trkpt lat="43.9459451" lon="8.1380065"><ele>37.199999999999996</ele><time>2026-04-19T07:11:33.844Z</time></trkpt><trkpt lat="43.9460453" lon="8.1379982"><ele>36.8</ele><time>2026-04-19T07:11:34.844Z</time></trkpt><trkpt lat="43.9461437" lon="8.1379766"><ele>36.4</ele><time>2026-04-19T07:11:35.845Z</time></trkpt><trkpt lat="43.946248" lon="8.1379357"><ele>36.0</ele><time>2026-04-19T07:11:36.845Z</time></trkpt><trkpt lat="43.9463489" lon="8.1378933"><ele>36.0</ele><time>2026-04-19T07:11:37.844Z</time></trkpt><trkpt lat="43.9464541" lon="8.1378369"><ele>36.0</ele><time>2026-04-19T07:11:38.845Z</time></trkpt><trkpt lat="43.9465496" lon="8.137784"><ele>36.0</ele><time>2026-04-19T07:11:39.845Z</time></trkpt><trkpt lat="43.9466476" lon="8.1377287"><ele>36.0</ele><time>2026-04-19T07:11:40.846Z</time></trkpt><trkpt lat="43.9467475" lon="8.1377141"><ele>36.0</ele><time>2026-04-19T07:11:41.844Z</time></trkpt><trkpt lat="43.9468443" lon="8.1377246"><ele>36.8</ele><time>2026-04-19T07:11:42.845Z</time></trkpt><trkpt lat="43.9469439" lon="8.1377573"><ele>37.6</ele><time>2026-04-19T07:11:43.845Z</time></trkpt><trkpt lat="43.9470386" lon="8.1378098"><ele>38.4</ele><time>2026-04-19T07:11:44.844Z</time></trkpt><trkpt lat="43.9471295" lon="8.1378804"><ele>39.2</ele><time>2026-04-19T07:11:45.845Z</time></trkpt><trkpt lat="43.9472187" lon="8.1379668"><ele>40.0</ele><time>2026-04-19T07:11:46.845Z</time></trkpt><trkpt lat="43.9473111" lon="8.1380642"><ele>40.0</ele><time>2026-04-19T07:11:47.846Z</time></trkpt><trkpt lat="43.9474052" lon="8.1381632"><ele>40.0</ele><time>2026-04-19T07:11:48.845Z</time></trkpt><trkpt lat="43.9475045" lon="8.1382631"><ele>40.0</ele><time>2026-04-19T07:11:49.845Z</time></trkpt><trkpt lat="43.9476022" lon="8.1383698"><ele>40.0</ele><time>2026-04-19T07:11:50.845Z</time></trkpt><trkpt lat="43.9477076" lon="8.1384657"><ele>38.25</ele><time>2026-04-19T07:11:51.845Z</time></trkpt><trkpt lat="43.9478161" lon="8.1385555"><ele>36.5</ele><time>2026-04-19T07:11:52.845Z</time></trkpt><trkpt lat="43.9479301" lon="8.1386286"><ele>34.75</ele><time>2026-04-19T07:11:53.845Z</time></trkpt><trkpt lat="43.9480506" lon="8.1386836"><ele>33.0</ele><time>2026-04-19T07:11:54.844Z</time></trkpt><trkpt lat="43.948171" lon="8.1387244"><ele>33.0</ele><time>2026-04-19T07:11:55.844Z</time></trkpt><trkpt lat="43.9482863" lon="8.1387613"><ele>33.0</ele><time>2026-04-19T07:11:56.846Z</time></trkpt><trkpt lat="43.9483948" lon="8.1388194"><ele>33.0</ele><time>2026-04-19T07:11:57.846Z</time></trkpt><trkpt lat="43.9485" lon="8.1388709"><ele>33.0</ele><time>2026-04-19T07:11:58.845Z</time></trkpt><trkpt lat="43.948596" lon="8.1389152"><ele>33.0</ele><time>2026-04-19T07:11:59.844Z</time></trkpt><trkpt lat="43.9486797" lon="8.1389736"><ele>31.833333333333332</ele><time>2026-04-19T07:12:00.844Z</time></trkpt><trkpt lat="43.9487418" lon="8.1390325"><ele>30.666666666666664</ele><time>2026-04-19T07:12:01.844Z</time></trkpt><trkpt lat="43.9487903" lon="8.1390982"><ele>29.5</ele><time>2026-04-19T07:12:02.845Z</time></trkpt><trkpt lat="43.9488528" lon="8.1392136"><ele>28.333333333333332</ele><time>2026-04-19T07:12:04.844Z</time></trkpt><trkpt lat="43.9488776" lon="8.139296"><ele>27.166666666666664</ele><time>2026-04-19T07:12:06.845Z</time></trkpt><trkpt lat="43.9489299" lon="8.1394189"><ele>26.0</ele><time>2026-04-19T07:12:23.845Z</time></trkpt><trkpt lat="43.9490494" lon="8.1394706"><ele>25.999999999999996</ele><time>2026-04-19T07:12:25.846Z</time></trkpt><trkpt lat="43.9491239" lon="8.1394727"><ele>26.0</ele><time>2026-04-19T07:12:26.845Z</time></trkpt><trkpt lat="43.9492036" lon="8.1394583"><ele>26.0</ele><time>2026-04-19T07:12:27.845Z</time></trkpt><trkpt lat="43.9492926" lon="8.1394302"><ele>26.0</ele><time>2026-04-19T07:12:28.845Z</time></trkpt><trkpt lat="43.9493852" lon="8.1393993"><ele>25.999999999999996</ele><time>2026-04-19T07:12:29.844Z</time></trkpt><trkpt lat="43.949481" lon="8.1393629"><ele>26.0</ele><time>2026-04-19T07:12:30.846Z</time></trkpt><trkpt lat="43.9495743" lon="8.139335"><ele>25.0</ele><time>2026-04-19T07:12:31.845Z</time></trkpt><trkpt lat="43.949673" lon="8.1393217"><ele>24.0</ele><time>2026-04-19T07:12:32.845Z</time></trkpt><trkpt lat="43.9497833" lon="8.1392838"><ele>23.0</ele><time>2026-04-19T07:12:33.846Z</time></trkpt><trkpt lat="43.9498858" lon="8.1392575"><ele>22.0</ele><time>2026-04-19T07:12:34.845Z</time></trkpt><trkpt lat="43.949988" lon="8.1392335"><ele>21.0</ele><time>2026-04-19T07:12:35.845Z</time></trkpt><trkpt lat="43.9500943" lon="8.1392241"><ele>21.200000000000003</ele><time>2026-04-19T07:12:36.844Z</time></trkpt><trkpt lat="43.9502015" lon="8.1391978"><ele>21.400000000000002</ele><time>2026-04-19T07:12:37.845Z</time></trkpt><trkpt lat="43.9502975" lon="8.1391398"><ele>21.6</ele><time>2026-04-19T07:12:38.844Z</time></trkpt><trkpt lat="43.950393" lon="8.1390631"><ele>21.8</ele><time>2026-04-19T07:12:39.845Z</time></trkpt><trkpt lat="43.9504925" lon="8.1389904"><ele>22.0</ele><time>2026-04-19T07:12:40.844Z</time></trkpt><trkpt lat="43.950588" lon="8.1389296"><ele>22.0</ele><time>2026-04-19T07:12:41.845Z</time></trkpt><trkpt lat="43.9506878" lon="8.1388772"><ele>22.0</ele><time>2026-04-19T07:12:42.846Z</time></trkpt><trkpt lat="43.9507897" lon="8.1388235"><ele>22.0</ele><time>2026-04-19T07:12:43.845Z</time></trkpt><trkpt lat="43.950891" lon="8.1387945"><ele>22.0</ele><time>2026-04-19T07:12:44.844Z</time></trkpt><trkpt lat="43.9509908" lon="8.1387716"><ele>22.0</ele><time>2026-04-19T07:12:45.845Z</time></trkpt><trkpt lat="43.9510962" lon="8.1387627"><ele>22.0</ele><time>2026-04-19T07:12:46.844Z</time></trkpt><trkpt lat="43.9512024" lon="8.138763"><ele>22.0</ele><time>2026-04-19T07:12:47.844Z</time></trkpt><trkpt lat="43.9513056" lon="8.1387576"><ele>22.0</ele><time>2026-04-19T07:12:48.845Z</time></trkpt><trkpt lat="43.951401" lon="8.1387519"><ele>22.0</ele><time>2026-04-19T07:12:49.844Z</time></trkpt><trkpt lat="43.9514924" lon="8.1387395"><ele>22.0</ele><time>2026-04-19T07:12:50.845Z</time></trkpt><trkpt lat="43.9515769" lon="8.1387368"><ele>22.0</ele><time>2026-04-19T07:12:51.845Z</time></trkpt><trkpt lat="43.9516561" lon="8.1387275"><ele>22.0</ele><time>2026-04-19T07:12:52.845Z</time></trkpt><trkpt lat="43.9517311" lon="8.138708"><ele>22.0</ele><time>2026-04-19T07:12:53.845Z</time></trkpt><trkpt lat="43.9518096" lon="8.1386912"><ele>22.0</ele><time>2026-04-19T07:12:54.845Z</time></trkpt><trkpt lat="43.9518919" lon="8.1386677"><ele>22.0</ele><time>2026-04-19T07:12:55.845Z</time></trkpt><trkpt lat="43.9519731" lon="8.138638"><ele>22.0</ele><time>2026-04-19T07:12:56.845Z</time></trkpt><trkpt lat="43.9520581" lon="8.1386138"><ele>21.200000000000003</ele><time>2026-04-19T07:12:57.844Z</time></trkpt><trkpt lat="43.9521497" lon="8.138589"><ele>20.400000000000002</ele><time>2026-04-19T07:12:58.846Z</time></trkpt><trkpt lat="43.9522394" lon="8.1385708"><ele>19.6</ele><time>2026-04-19T07:12:59.845Z</time></trkpt><trkpt lat="43.9523256" lon="8.1385407"><ele>18.8</ele><time>2026-04-19T07:13:00.845Z</time></trkpt><trkpt lat="43.9524103" lon="8.138503"><ele>18.0</ele><time>2026-04-19T07:13:01.844Z</time></trkpt><trkpt lat="43.9524991" lon="8.1384582"><ele>17.2</ele><time>2026-04-19T07:13:02.846Z</time></trkpt><trkpt lat="43.9525873" lon="8.1384124"><ele>16.4</ele><time>2026-04-19T07:13:03.845Z</time></trkpt><trkpt lat="43.9526805" lon="8.1383632"><ele>15.599999999999998</ele><time>2026-04-19T07:13:04.844Z</time></trkpt><trkpt lat="43.9527696" lon="8.1383187"><ele>14.799999999999999</ele><time>2026-04-19T07:13:05.844Z</time></trkpt><trkpt lat="43.9528692" lon="8.1382887"><ele>14.0</ele><time>2026-04-19T07:13:06.845Z</time></trkpt><trkpt lat="43.9529681" lon="8.1382578"><ele>14.0</ele><time>2026-04-19T07:13:07.845Z</time></trkpt><trkpt lat="43.9530669" lon="8.1382203"><ele>13.999999999999998</ele><time>2026-04-19T07:13:08.845Z</time></trkpt><trkpt lat="43.9531553" lon="8.1381888"><ele>13.999999999999998</ele><time>2026-04-19T07:13:09.845Z</time></trkpt><trkpt lat="43.9532472" lon="8.1381556"><ele>14.0</ele><time>2026-04-19T07:13:10.845Z</time></trkpt><trkpt lat="43.9533376" lon="8.1381292"><ele>14.0</ele><time>2026-04-19T07:13:11.845Z</time></trkpt><trkpt lat="43.9534369" lon="8.1381137"><ele>18.0</ele><time>2026-04-19T07:13:12.844Z</time></trkpt><trkpt lat="43.9535383" lon="8.1381024"><ele>22.0</ele><time>2026-04-19T07:13:13.844Z</time></trkpt><trkpt lat="43.9536474" lon="8.138128"><ele>26.0</ele><time>2026-04-19T07:13:14.844Z</time></trkpt><trkpt lat="43.9537642" lon="8.1381388"><ele>30.0</ele><time>2026-04-19T07:13:15.844Z</time></trkpt><trkpt lat="43.9538778" lon="8.1381568"><ele>34.0</ele><time>2026-04-19T07:13:16.845Z</time></trkpt><trkpt lat="43.9539863" lon="8.1381675"><ele>34.0</ele><time>2026-04-19T07:13:17.844Z</time></trkpt><trkpt lat="43.954104" lon="8.138168"><ele>34.0</ele><time>2026-04-19T07:13:18.845Z</time></trkpt><trkpt lat="43.9542199" lon="8.1381731"><ele>34.0</ele><time>2026-04-19T07:13:19.845Z</time></trkpt><trkpt lat="43.9543328" lon="8.1381824"><ele>34.0</ele><time>2026-04-19T07:13:20.845Z</time></trkpt><trkpt lat="43.9544407" lon="8.1381838"><ele>33.4</ele><time>2026-04-19T07:13:21.845Z</time></trkpt><trkpt lat="43.9545435" lon="8.1381688"><ele>32.8</ele><time>2026-04-19T07:13:22.845Z</time></trkpt><trkpt lat="43.9546428" lon="8.138132"><ele>32.2</ele><time>2026-04-19T07:13:23.846Z</time></trkpt><trkpt lat="43.9547433" lon="8.138092"><ele>31.6</ele><time>2026-04-19T07:13:24.844Z</time></trkpt><trkpt lat="43.95484" lon="8.1380428"><ele>31.0</ele><time>2026-04-19T07:13:25.846Z</time></trkpt><trkpt lat="43.9549219" lon="8.1379672"><ele>31.0</ele><time>2026-04-19T07:13:26.844Z</time></trkpt><trkpt lat="43.9549914" lon="8.137857"><ele>31.0</ele><time>2026-04-19T07:13:27.845Z</time></trkpt><trkpt lat="43.9550434" lon="8.1377326"><ele>31.0</ele><time>2026-04-19T07:13:28.844Z</time></trkpt><trkpt lat="43.9550863" lon="8.1376049"><ele>31.0</ele><time>2026-04-19T07:13:29.844Z</time></trkpt><trkpt lat="43.9551283" lon="8.1374815"><ele>31.0</ele><time>2026-04-19T07:13:30.846Z</time></trkpt><trkpt lat="43.9551641" lon="8.1373504"><ele>35.6</ele><time>2026-04-19T07:13:31.844Z</time></trkpt><trkpt lat="43.9552025" lon="8.1372232"><ele>40.2</ele><time>2026-04-19T07:13:32.845Z</time></trkpt><trkpt lat="43.9552414" lon="8.1370935"><ele>44.800000000000004</ele><time>2026-04-19T07:13:33.845Z</time></trkpt><trkpt lat="43.9552751" lon="8.1369717"><ele>49.400000000000006</ele><time>2026-04-19T07:13:34.845Z</time></trkpt><trkpt lat="43.9553103" lon="8.1368569"><ele>54.0</ele><time>2026-04-19T07:13:35.845Z</time></trkpt><trkpt lat="43.9553582" lon="8.1367698"><ele>54.0</ele><time>2026-04-19T07:13:36.845Z</time></trkpt><trkpt lat="43.9554297" lon="8.1367966"><ele>54.0</ele><time>2026-04-19T07:13:37.845Z</time></trkpt><trkpt lat="43.9554946" lon="8.1368345"><ele>54.0</ele><time>2026-04-19T07:13:38.845Z</time></trkpt><trkpt lat="43.9555442" lon="8.1369043"><ele>54.0</ele><time>2026-04-19T07:13:39.845Z</time></trkpt><trkpt lat="43.9555886" lon="8.1370041"><ele>54.0</ele><time>2026-04-19T07:13:40.845Z</time></trkpt><trkpt lat="43.9556431" lon="8.1371043"><ele>54.0</ele><time>2026-04-19T07:13:41.845Z</time></trkpt><trkpt lat="43.9556953" lon="8.137184"><ele>54.0</ele><time>2026-04-19T07:13:42.844Z</time></trkpt><trkpt lat="43.9557481" lon="8.1372737"><ele>54.0</ele><time>2026-04-19T07:13:43.845Z</time></trkpt><trkpt lat="43.9558024" lon="8.1373661"><ele>54.0</ele><time>2026-04-19T07:13:44.844Z</time></trkpt><trkpt lat="43.9558565" lon="8.1374553"><ele>54.0</ele><time>2026-04-19T07:13:45.845Z</time></trkpt><trkpt lat="43.9559272" lon="8.1375274"><ele>54.0</ele><time>2026-04-19T07:13:46.845Z</time></trkpt><trkpt lat="43.9560081" lon="8.1375998"><ele>54.0</ele><time>2026-04-19T07:13:47.844Z</time></trkpt><trkpt lat="43.9560953" lon="8.1376577"><ele>50.5</ele><time>2026-04-19T07:13:48.844Z</time></trkpt><trkpt lat="43.9561948" lon="8.1376835"><ele>47.0</ele><time>2026-04-19T07:13:49.845Z</time></trkpt><trkpt lat="43.9563067" lon="8.1376795"><ele>43.5</ele><time>2026-04-19T07:13:50.843Z</time></trkpt><trkpt lat="43.9564244" lon="8.1376693"><ele>40.0</ele><time>2026-04-19T07:13:51.845Z</time></trkpt><trkpt lat="43.95656" lon="8.1376563"><ele>40.0</ele><time>2026-04-19T07:13:52.845Z</time></trkpt><trkpt lat="43.9566981" lon="8.1376461"><ele>40.0</ele><time>2026-04-19T07:13:53.845Z</time></trkpt><trkpt lat="43.956849" lon="8.1376381"><ele>40.0</ele><time>2026-04-19T07:13:54.846Z</time></trkpt><trkpt lat="43.9569974" lon="8.1376215"><ele>40.0</ele><time>2026-04-19T07:13:55.845Z</time></trkpt><trkpt lat="43.9571463" lon="8.1376099"><ele>38.5</ele><time>2026-04-19T07:13:56.845Z</time></trkpt><trkpt lat="43.9573017" lon="8.1375955"><ele>37.0</ele><time>2026-04-19T07:13:57.845Z</time></trkpt><trkpt lat="43.9574514" lon="8.1375844"><ele>35.5</ele><time>2026-04-19T07:13:58.845Z</time></trkpt><trkpt lat="43.9575933" lon="8.1375715"><ele>34.0</ele><time>2026-04-19T07:13:59.844Z</time></trkpt><trkpt lat="43.9577419" lon="8.1375555"><ele>31.2</ele><time>2026-04-19T07:14:00.845Z</time></trkpt><trkpt lat="43.9578757" lon="8.1375405"><ele>28.4</ele><time>2026-04-19T07:14:01.845Z</time></trkpt><trkpt lat="43.9579934" lon="8.1375306"><ele>25.6</ele><time>2026-04-19T07:14:02.845Z</time></trkpt><trkpt lat="43.9580843" lon="8.1375352"><ele>22.8</ele><time>2026-04-19T07:14:03.844Z</time></trkpt><trkpt lat="43.9581449" lon="8.1375595"><ele>20.0</ele><time>2026-04-19T07:14:04.844Z</time></trkpt><trkpt lat="43.958192" lon="8.1376244"><ele>20.0</ele><time>2026-04-19T07:14:05.844Z</time></trkpt><trkpt lat="43.9582287" lon="8.1377056"><ele>20.0</ele><time>2026-04-19T07:14:06.845Z</time></trkpt><trkpt lat="43.9582557" lon="8.1378103"><ele>20.0</ele><time>2026-04-19T07:14:07.845Z</time></trkpt><trkpt lat="43.9582947" lon="8.1378897"><ele>20.0</ele><time>2026-04-19T07:14:08.846Z</time></trkpt><trkpt lat="43.9583584" lon="8.1379506"><ele>20.0</ele><time>2026-04-19T07:14:09.846Z</time></trkpt><trkpt lat="43.958436" lon="8.1379878"><ele>20.0</ele><time>2026-04-19T07:14:10.845Z</time></trkpt><trkpt lat="43.9585188" lon="8.1380249"><ele>19.333333333333336</ele><time>2026-04-19T07:14:11.844Z</time></trkpt><trkpt lat="43.9585885" lon="8.1380534"><ele>18.666666666666668</ele><time>2026-04-19T07:14:12.845Z</time></trkpt><trkpt lat="43.9586451" lon="8.1381019"><ele>18.0</ele><time>2026-04-19T07:14:13.845Z</time></trkpt><trkpt lat="43.9587195" lon="8.1381686"><ele>17.333333333333332</ele><time>2026-04-19T07:14:15.845Z</time></trkpt><trkpt lat="43.9588297" lon="8.1381293"><ele>16.666666666666664</ele><time>2026-04-19T07:14:18.845Z</time></trkpt><trkpt lat="43.9588857" lon="8.1380878"><ele>16.0</ele><time>2026-04-19T07:14:19.845Z</time></trkpt><trkpt lat="43.9589581" lon="8.1380502"><ele>16.0</ele><time>2026-04-19T07:14:20.849Z</time></trkpt><trkpt lat="43.9590152" lon="8.1380001"><ele>16.0</ele><time>2026-04-19T07:14:21.845Z</time></trkpt><trkpt lat="43.9591074" lon="8.1379572"><ele>16.0</ele><time>2026-04-19T07:14:22.848Z</time></trkpt><trkpt lat="43.9592016" lon="8.1378983"><ele>16.0</ele><time>2026-04-19T07:14:23.845Z</time></trkpt><trkpt lat="43.9592974" lon="8.1378456"><ele>16.0</ele><time>2026-04-19T07:14:24.844Z</time></trkpt><trkpt lat="43.9593865" lon="8.1378089"><ele>15.25</ele><time>2026-04-19T07:14:25.847Z</time></trkpt><trkpt lat="43.9594759" lon="8.1377721"><ele>14.5</ele><time>2026-04-19T07:14:26.846Z</time></trkpt><trkpt lat="43.9595642" lon="8.1377365"><ele>13.75</ele><time>2026-04-19T07:14:27.845Z</time></trkpt><trkpt lat="43.9596539" lon="8.1376999"><ele>13.0</ele><time>2026-04-19T07:14:28.845Z</time></trkpt><trkpt lat="43.959818" lon="8.1376264"><ele>13.0</ele><time>2026-04-19T07:14:29.845Z</time></trkpt><trkpt lat="43.9599227" lon="8.1375595"><ele>13.0</ele><time>2026-04-19T07:14:30.845Z</time></trkpt><trkpt lat="43.9600331" lon="8.1375225"><ele>13.0</ele><time>2026-04-19T07:14:31.845Z</time></trkpt><trkpt lat="43.9601409" lon="8.137479"><ele>13.0</ele><time>2026-04-19T07:14:32.845Z</time></trkpt><trkpt lat="43.9602572" lon="8.1374312"><ele>13.0</ele><time>2026-04-19T07:14:33.844Z</time></trkpt><trkpt lat="43.9603672" lon="8.1373859"><ele>13.0</ele><time>2026-04-19T07:14:34.845Z</time></trkpt><trkpt lat="43.9604822" lon="8.1373389"><ele>13.0</ele><time>2026-04-19T07:14:35.845Z</time></trkpt><trkpt lat="43.960609" lon="8.1372937"><ele>13.0</ele><time>2026-04-19T07:14:36.845Z</time></trkpt><trkpt lat="43.9607252" lon="8.1372439"><ele>15.25</ele><time>2026-04-19T07:14:37.845Z</time></trkpt><trkpt lat="43.9608394" lon="8.1371875"><ele>17.5</ele><time>2026-04-19T07:14:38.844Z</time></trkpt><trkpt lat="43.9609666" lon="8.1371294"><ele>19.75</ele><time>2026-04-19T07:14:39.845Z</time></trkpt><trkpt lat="43.9610918" lon="8.1370786"><ele>22.0</ele><time>2026-04-19T07:14:40.843Z</time></trkpt><trkpt lat="43.9612218" lon="8.1370285"><ele>22.0</ele><time>2026-04-19T07:14:41.846Z</time></trkpt><trkpt lat="43.9613493" lon="8.1369791"><ele>22.0</ele><time>2026-04-19T07:14:42.845Z</time></trkpt><trkpt lat="43.9614786" lon="8.1369342"><ele>22.0</ele><time>2026-04-19T07:14:43.844Z</time></trkpt><trkpt lat="43.9616066" lon="8.1368846"><ele>22.0</ele><time>2026-04-19T07:14:44.844Z</time></trkpt><trkpt lat="43.9617372" lon="8.1368342"><ele>19.25</ele><time>2026-04-19T07:14:45.846Z</time></trkpt><trkpt lat="43.9618635" lon="8.136774"><ele>16.5</ele><time>2026-04-19T07:14:46.845Z</time></trkpt><trkpt lat="43.96199" lon="8.1367165"><ele>13.75</ele><time>2026-04-19T07:14:47.844Z</time></trkpt><trkpt lat="43.9621209" lon="8.1366736"><ele>11.0</ele><time>2026-04-19T07:14:48.845Z</time></trkpt><trkpt lat="43.9622438" lon="8.1366386"><ele>11.0</ele><time>2026-04-19T07:14:49.845Z</time></trkpt><trkpt lat="43.9623686" lon="8.1366058"><ele>11.0</ele><time>2026-04-19T07:14:50.844Z</time></trkpt><trkpt lat="43.9624876" lon="8.1365643"><ele>11.0</ele><time>2026-04-19T07:14:51.845Z</time></trkpt><trkpt lat="43.9625962" lon="8.1365142"><ele>11.0</ele><time>2026-04-19T07:14:52.845Z</time></trkpt><trkpt lat="43.9627135" lon="8.1364725"><ele>11.75</ele><time>2026-04-19T07:14:53.844Z</time></trkpt><trkpt lat="43.9628259" lon="8.1364236"><ele>12.5</ele><time>2026-04-19T07:14:54.845Z</time></trkpt><trkpt lat="43.9629473" lon="8.1363804"><ele>13.25</ele><time>2026-04-19T07:14:55.844Z</time></trkpt><trkpt lat="43.9630637" lon="8.136343"><ele>14.0</ele><time>2026-04-19T07:14:56.845Z</time></trkpt><trkpt lat="43.9631806" lon="8.1363015"><ele>14.0</ele><time>2026-04-19T07:14:57.845Z</time></trkpt><trkpt lat="43.9632987" lon="8.136264"><ele>14.0</ele><time>2026-04-19T07:14:58.844Z</time></trkpt><trkpt lat="43.9634169" lon="8.1362192"><ele>14.0</ele><time>2026-04-19T07:14:59.844Z</time></trkpt><trkpt lat="43.9635294" lon="8.1361737"><ele>14.0</ele><time>2026-04-19T07:15:00.845Z</time></trkpt><trkpt lat="43.963637" lon="8.1361332"><ele>13.75</ele><time>2026-04-19T07:15:01.844Z</time></trkpt><trkpt lat="43.9637493" lon="8.1360962"><ele>13.5</ele><time>2026-04-19T07:15:02.845Z</time></trkpt><trkpt lat="43.9638621" lon="8.1360523"><ele>13.25</ele><time>2026-04-19T07:15:03.844Z</time></trkpt><trkpt lat="43.9639747" lon="8.136012"><ele>13.0</ele><time>2026-04-19T07:15:04.844Z</time></trkpt><trkpt lat="43.9640827" lon="8.1359728"><ele>13.0</ele><time>2026-04-19T07:15:05.845Z</time></trkpt><trkpt lat="43.9641932" lon="8.1359298"><ele>13.0</ele><time>2026-04-19T07:15:06.845Z</time></trkpt><trkpt lat="43.9643031" lon="8.1358921"><ele>13.0</ele><time>2026-04-19T07:15:07.843Z</time></trkpt><trkpt lat="43.9644122" lon="8.135853"><ele>13.0</ele><time>2026-04-19T07:15:08.844Z</time></trkpt><trkpt lat="43.964527" lon="8.135825"><ele>13.0</ele><time>2026-04-19T07:15:09.845Z</time></trkpt><trkpt lat="43.9646471" lon="8.135793"><ele>13.0</ele><time>2026-04-19T07:15:10.845Z</time></trkpt><trkpt lat="43.9647631" lon="8.135774"><ele>13.0</ele><time>2026-04-19T07:15:11.845Z</time></trkpt><trkpt lat="43.9648829" lon="8.1357562"><ele>13.0</ele><time>2026-04-19T07:15:12.845Z</time></trkpt><trkpt lat="43.9650096" lon="8.1357386"><ele>14.0</ele><time>2026-04-19T07:15:13.845Z</time></trkpt><trkpt lat="43.9651337" lon="8.1357139"><ele>15.0</ele><time>2026-04-19T07:15:14.845Z</time></trkpt><trkpt lat="43.965259" lon="8.1356921"><ele>16.0</ele><time>2026-04-19T07:15:15.844Z</time></trkpt><trkpt lat="43.9653848" lon="8.1356743"><ele>17.0</ele><time>2026-04-19T07:15:16.844Z</time></trkpt><trkpt lat="43.9655087" lon="8.135657"><ele>17.0</ele><time>2026-04-19T07:15:17.845Z</time></trkpt><trkpt lat="43.9656355" lon="8.135635"><ele>17.0</ele><time>2026-04-19T07:15:18.845Z</time></trkpt><trkpt lat="43.9657604" lon="8.1356152"><ele>17.0</ele><time>2026-04-19T07:15:19.844Z</time></trkpt><trkpt lat="43.9658799" lon="8.1356013"><ele>17.0</ele><time>2026-04-19T07:15:20.845Z</time></trkpt><trkpt lat="43.9659957" lon="8.1355766"><ele>17.0</ele><time>2026-04-19T07:15:21.845Z</time></trkpt><trkpt lat="43.9661142" lon="8.1355596"><ele>17.0</ele><time>2026-04-19T07:15:22.844Z</time></trkpt><trkpt lat="43.9662317" lon="8.1355486"><ele>17.0</ele><time>2026-04-19T07:15:23.845Z</time></trkpt><trkpt lat="43.9663474" lon="8.1355314"><ele>17.0</ele><time>2026-04-19T07:15:24.844Z</time></trkpt><trkpt lat="43.9664604" lon="8.1355131"><ele>17.0</ele><time>2026-04-19T07:15:25.844Z</time></trkpt><trkpt lat="43.9665702" lon="8.1354774"><ele>17.0</ele><time>2026-04-19T07:15:26.845Z</time></trkpt><trkpt lat="43.9666766" lon="8.1354309"><ele>17.0</ele><time>2026-04-19T07:15:27.845Z</time></trkpt><trkpt lat="43.9667872" lon="8.1353782"><ele>17.0</ele><time>2026-04-19T07:15:28.845Z</time></trkpt><trkpt lat="43.9668991" lon="8.1353084"><ele>17.0</ele><time>2026-04-19T07:15:29.844Z</time></trkpt><trkpt lat="43.9670078" lon="8.1352425"><ele>17.0</ele><time>2026-04-19T07:15:30.845Z</time></trkpt><trkpt lat="43.9671171" lon="8.1351796"><ele>17.0</ele><time>2026-04-19T07:15:31.845Z</time></trkpt><trkpt lat="43.9672225" lon="8.1351188"><ele>17.0</ele><time>2026-04-19T07:15:32.845Z</time></trkpt><trkpt lat="43.9673265" lon="8.1350616"><ele>17.0</ele><time>2026-04-19T07:15:33.844Z</time></trkpt><trkpt lat="43.967431" lon="8.1350057"><ele>17.0</ele><time>2026-04-19T07:15:34.844Z</time></trkpt><trkpt lat="43.967534" lon="8.1349667"><ele>17.0</ele><time>2026-04-19T07:15:35.844Z</time></trkpt><trkpt lat="43.9676324" lon="8.1349481"><ele>17.0</ele><time>2026-04-19T07:15:36.845Z</time></trkpt><trkpt lat="43.9677311" lon="8.1349556"><ele>17.0</ele><time>2026-04-19T07:15:37.844Z</time></trkpt><trkpt lat="43.9678334" lon="8.1349849"><ele>16.8</ele><time>2026-04-19T07:15:38.844Z</time></trkpt><trkpt lat="43.9679322" lon="8.1350224"><ele>16.6</ele><time>2026-04-19T07:15:39.845Z</time></trkpt><trkpt lat="43.9680333" lon="8.1350636"><ele>16.400000000000002</ele><time>2026-04-19T07:15:40.846Z</time></trkpt><trkpt lat="43.9681345" lon="8.1350994"><ele>16.2</ele><time>2026-04-19T07:15:41.844Z</time></trkpt><trkpt lat="43.9682386" lon="8.1351195"><ele>16.0</ele><time>2026-04-19T07:15:42.844Z</time></trkpt><trkpt lat="43.9683434" lon="8.1351106"><ele>15.5</ele><time>2026-04-19T07:15:43.845Z</time></trkpt><trkpt lat="43.9684454" lon="8.1350724"><ele>15.0</ele><time>2026-04-19T07:15:44.845Z</time></trkpt><trkpt lat="43.9685503" lon="8.1350116"><ele>14.5</ele><time>2026-04-19T07:15:45.845Z</time></trkpt><trkpt lat="43.9686576" lon="8.1349329"><ele>14.0</ele><time>2026-04-19T07:15:46.844Z</time></trkpt><trkpt lat="43.9687601" lon="8.1348561"><ele>14.25</ele><time>2026-04-19T07:15:47.845Z</time></trkpt><trkpt lat="43.9688669" lon="8.1347749"><ele>14.5</ele><time>2026-04-19T07:15:48.845Z</time></trkpt><trkpt lat="43.9689783" lon="8.134706"><ele>14.75</ele><time>2026-04-19T07:15:49.844Z</time></trkpt><trkpt lat="43.9690913" lon="8.134633"><ele>15.0</ele><time>2026-04-19T07:15:50.844Z</time></trkpt><trkpt lat="43.9692083" lon="8.1345696"><ele>15.0</ele><time>2026-04-19T07:15:51.845Z</time></trkpt><trkpt lat="43.9693266" lon="8.1345127"><ele>15.0</ele><time>2026-04-19T07:15:52.845Z</time></trkpt><trkpt lat="43.9694457" lon="8.1344584"><ele>15.0</ele><time>2026-04-19T07:15:53.845Z</time></trkpt><trkpt lat="43.9695645" lon="8.1344082"><ele>15.0</ele><time>2026-04-19T07:15:54.845Z</time></trkpt><trkpt lat="43.9696807" lon="8.1343482"><ele>15.0</ele><time>2026-04-19T07:15:55.844Z</time></trkpt><trkpt lat="43.9697989" lon="8.1342946"><ele>15.0</ele><time>2026-04-19T07:15:56.845Z</time></trkpt><trkpt lat="43.9699085" lon="8.1342432"><ele>15.0</ele><time>2026-04-19T07:15:57.844Z</time></trkpt><trkpt lat="43.9700216" lon="8.1341901"><ele>15.0</ele><time>2026-04-19T07:15:58.844Z</time></trkpt><trkpt lat="43.9701325" lon="8.1341347"><ele>15.25</ele><time>2026-04-19T07:15:59.845Z</time></trkpt><trkpt lat="43.970245" lon="8.1340868"><ele>15.5</ele><time>2026-04-19T07:16:00.846Z</time></trkpt><trkpt lat="43.9703548" lon="8.1340346"><ele>15.75</ele><time>2026-04-19T07:16:01.845Z</time></trkpt><trkpt lat="43.9704657" lon="8.1339977"><ele>16.0</ele><time>2026-04-19T07:16:02.844Z</time></trkpt><trkpt lat="43.9705745" lon="8.1339564"><ele>16.2</ele><time>2026-04-19T07:16:03.846Z</time></trkpt><trkpt lat="43.9706823" lon="8.1339211"><ele>16.400000000000002</ele><time>2026-04-19T07:16:04.844Z</time></trkpt><trkpt lat="43.9707857" lon="8.1338966"><ele>16.6</ele><time>2026-04-19T07:16:05.844Z</time></trkpt><trkpt lat="43.9708966" lon="8.1338987"><ele>16.8</ele><time>2026-04-19T07:16:06.845Z</time></trkpt><trkpt lat="43.9710036" lon="8.1339164"><ele>17.0</ele><time>2026-04-19T07:16:07.845Z</time></trkpt><trkpt lat="43.9711069" lon="8.1339378"><ele>17.0</ele><time>2026-04-19T07:16:08.845Z</time></trkpt><trkpt lat="43.9712144" lon="8.1339646"><ele>17.0</ele><time>2026-04-19T07:16:09.845Z</time></trkpt><trkpt lat="43.9713221" lon="8.1339931"><ele>17.0</ele><time>2026-04-19T07:16:10.845Z</time></trkpt><trkpt lat="43.9714306" lon="8.1340249"><ele>17.0</ele><time>2026-04-19T07:16:11.845Z</time></trkpt><trkpt lat="43.9715339" lon="8.1340521"><ele>17.0</ele><time>2026-04-19T07:16:12.844Z</time></trkpt><trkpt lat="43.9716359" lon="8.1340758"><ele>17.2</ele><time>2026-04-19T07:16:13.845Z</time></trkpt><trkpt lat="43.971737" lon="8.1340926"><ele>17.4</ele><time>2026-04-19T07:16:14.844Z</time></trkpt><trkpt lat="43.9718258" lon="8.1341198"><ele>17.6</ele><time>2026-04-19T07:16:15.845Z</time></trkpt><trkpt lat="43.971912" lon="8.1341433"><ele>17.8</ele><time>2026-04-19T07:16:16.845Z</time></trkpt><trkpt lat="43.9719999" lon="8.1341697"><ele>18.0</ele><time>2026-04-19T07:16:17.844Z</time></trkpt><trkpt lat="43.9720867" lon="8.1341913"><ele>18.0</ele><time>2026-04-19T07:16:18.844Z</time></trkpt><trkpt lat="43.9721719" lon="8.1342109"><ele>18.0</ele><time>2026-04-19T07:16:19.845Z</time></trkpt><trkpt lat="43.9722646" lon="8.1342269"><ele>18.0</ele><time>2026-04-19T07:16:20.845Z</time></trkpt><trkpt lat="43.9723534" lon="8.1342483"><ele>18.0</ele><time>2026-04-19T07:16:21.845Z</time></trkpt><trkpt lat="43.9724445" lon="8.1342672"><ele>18.0</ele><time>2026-04-19T07:16:22.845Z</time></trkpt><trkpt lat="43.9725377" lon="8.1342801"><ele>17.8</ele><time>2026-04-19T07:16:23.843Z</time></trkpt><trkpt lat="43.9726338" lon="8.1342835"><ele>17.6</ele><time>2026-04-19T07:16:24.845Z</time></trkpt><trkpt lat="43.9727336" lon="8.1342862"><ele>17.4</ele><time>2026-04-19T07:16:25.843Z</time></trkpt><trkpt lat="43.9728365" lon="8.134278"><ele>17.2</ele><time>2026-04-19T07:16:26.843Z</time></trkpt><trkpt lat="43.9729336" lon="8.1342573"><ele>17.0</ele><time>2026-04-19T07:16:27.845Z</time></trkpt><trkpt lat="43.9730396" lon="8.1342207"><ele>17.0</ele><time>2026-04-19T07:16:28.845Z</time></trkpt><trkpt lat="43.9731412" lon="8.1341896"><ele>17.0</ele><time>2026-04-19T07:16:29.844Z</time></trkpt><trkpt lat="43.9732398" lon="8.1341559"><ele>17.0</ele><time>2026-04-19T07:16:30.845Z</time></trkpt><trkpt lat="43.9733444" lon="8.1341018"><ele>17.0</ele><time>2026-04-19T07:16:31.844Z</time></trkpt><trkpt lat="43.9734477" lon="8.1340384"><ele>17.0</ele><time>2026-04-19T07:16:32.844Z</time></trkpt><trkpt lat="43.973553" lon="8.1339748"><ele>17.0</ele><time>2026-04-19T07:16:33.844Z</time></trkpt><trkpt lat="43.9736602" lon="8.1339057"><ele>17.0</ele><time>2026-04-19T07:16:34.845Z</time></trkpt><trkpt lat="43.9737668" lon="8.1338353"><ele>17.0</ele><time>2026-04-19T07:16:35.845Z</time></trkpt><trkpt lat="43.9738696" lon="8.1337576"><ele>17.0</ele><time>2026-04-19T07:16:36.844Z</time></trkpt><trkpt lat="43.9739747" lon="8.1336849"><ele>17.0</ele><time>2026-04-19T07:16:37.844Z</time></trkpt><trkpt lat="43.9740826" lon="8.1336147"><ele>17.0</ele><time>2026-04-19T07:16:38.843Z</time></trkpt><trkpt lat="43.9741949" lon="8.1335452"><ele>17.0</ele><time>2026-04-19T07:16:39.844Z</time></trkpt><trkpt lat="43.9743024" lon="8.1334814"><ele>17.0</ele><time>2026-04-19T07:16:40.844Z</time></trkpt><trkpt lat="43.97441" lon="8.1334064"><ele>17.0</ele><time>2026-04-19T07:16:41.845Z</time></trkpt><trkpt lat="43.9745232" lon="8.1333295"><ele>17.0</ele><time>2026-04-19T07:16:42.844Z</time></trkpt><trkpt lat="43.9746346" lon="8.1332563"><ele>17.0</ele><time>2026-04-19T07:16:43.845Z</time></trkpt><trkpt lat="43.9747392" lon="8.1331761"><ele>17.0</ele><time>2026-04-19T07:16:44.845Z</time></trkpt><trkpt lat="43.9748478" lon="8.1331023"><ele>17.6</ele><time>2026-04-19T07:16:45.845Z</time></trkpt><trkpt lat="43.974949" lon="8.1330262"><ele>18.2</ele><time>2026-04-19T07:16:46.845Z</time></trkpt><trkpt lat="43.9750509" lon="8.1329526"><ele>18.8</ele><time>2026-04-19T07:16:47.845Z</time></trkpt><trkpt lat="43.9751418" lon="8.1328781"><ele>19.4</ele><time>2026-04-19T07:16:48.844Z</time></trkpt><trkpt lat="43.9752371" lon="8.1328151"><ele>20.0</ele><time>2026-04-19T07:16:49.844Z</time></trkpt><trkpt lat="43.9753297" lon="8.1327567"><ele>20.0</ele><time>2026-04-19T07:16:50.846Z</time></trkpt><trkpt lat="43.9754181" lon="8.1326943"><ele>20.0</ele><time>2026-04-19T07:16:51.845Z</time></trkpt><trkpt lat="43.9755084" lon="8.1326281"><ele>20.0</ele><time>2026-04-19T07:16:52.845Z</time></trkpt><trkpt lat="43.9755999" lon="8.1325624"><ele>20.0</ele><time>2026-04-19T07:16:53.845Z</time></trkpt><trkpt lat="43.9756888" lon="8.1324981"><ele>20.0</ele><time>2026-04-19T07:16:54.844Z</time></trkpt><trkpt lat="43.9757711" lon="8.1324374"><ele>20.4</ele><time>2026-04-19T07:16:55.845Z</time></trkpt><trkpt lat="43.9758588" lon="8.1323814"><ele>20.8</ele><time>2026-04-19T07:16:56.844Z</time></trkpt><trkpt lat="43.9759446" lon="8.1323317"><ele>21.200000000000003</ele><time>2026-04-19T07:16:57.844Z</time></trkpt><trkpt lat="43.9760286" lon="8.1322726"><ele>21.6</ele><time>2026-04-19T07:16:58.844Z</time></trkpt><trkpt lat="43.9761142" lon="8.1322226"><ele>22.0</ele><time>2026-04-19T07:16:59.845Z</time></trkpt><trkpt lat="43.9762006" lon="8.1321676"><ele>22.0</ele><time>2026-04-19T07:17:00.845Z</time></trkpt><trkpt lat="43.9762859" lon="8.1321195"><ele>22.0</ele><time>2026-04-19T07:17:01.845Z</time></trkpt><trkpt lat="43.9763782" lon="8.132084"><ele>22.0</ele><time>2026-04-19T07:17:02.845Z</time></trkpt><trkpt lat="43.9764731" lon="8.1320567"><ele>22.0</ele><time>2026-04-19T07:17:03.845Z</time></trkpt><trkpt lat="43.976568" lon="8.1320421"><ele>22.0</ele><time>2026-04-19T07:17:04.845Z</time></trkpt><trkpt lat="43.9766662" lon="8.1320404"><ele>22.200000000000003</ele><time>2026-04-19T07:17:05.845Z</time></trkpt><trkpt lat="43.9767709" lon="8.1320277"><ele>22.4</ele><time>2026-04-19T07:17:06.844Z</time></trkpt><trkpt lat="43.9768748" lon="8.1320223"><ele>22.6</ele><time>2026-04-19T07:17:07.845Z</time></trkpt><trkpt lat="43.9769798" lon="8.1320167"><ele>22.799999999999997</ele><time>2026-04-19T07:17:08.845Z</time></trkpt><trkpt lat="43.977094" lon="8.1320055"><ele>23.0</ele><time>2026-04-19T07:17:09.846Z</time></trkpt><trkpt lat="43.977207" lon="8.1320039"><ele>23.0</ele><time>2026-04-19T07:17:10.845Z</time></trkpt><trkpt lat="43.9773253" lon="8.1319992"><ele>23.0</ele><time>2026-04-19T07:17:11.845Z</time></trkpt><trkpt lat="43.9774367" lon="8.1319936"><ele>23.0</ele><time>2026-04-19T07:17:12.845Z</time></trkpt><trkpt lat="43.9775437" lon="8.1319928"><ele>23.0</ele><time>2026-04-19T07:17:13.845Z</time></trkpt><trkpt lat="43.9776534" lon="8.1319823"><ele>23.0</ele><time>2026-04-19T07:17:14.845Z</time></trkpt><trkpt lat="43.9777593" lon="8.1319764"><ele>23.0</ele><time>2026-04-19T07:17:15.844Z</time></trkpt><trkpt lat="43.9778608" lon="8.1319675"><ele>23.0</ele><time>2026-04-19T07:17:16.844Z</time></trkpt><trkpt lat="43.9779585" lon="8.1319593"><ele>23.0</ele><time>2026-04-19T07:17:17.844Z</time></trkpt><trkpt lat="43.9780602" lon="8.1319536"><ele>23.0</ele><time>2026-04-19T07:17:18.843Z</time></trkpt><trkpt lat="43.9781616" lon="8.1319525"><ele>23.0</ele><time>2026-04-19T07:17:19.845Z</time></trkpt><trkpt lat="43.978259" lon="8.1319479"><ele>23.0</ele><time>2026-04-19T07:17:20.845Z</time></trkpt><trkpt lat="43.9783462" lon="8.1319425"><ele>23.0</ele><time>2026-04-19T07:17:21.845Z</time></trkpt><trkpt lat="43.9784351" lon="8.1319327"><ele>23.0</ele><time>2026-04-19T07:17:22.844Z</time></trkpt><trkpt lat="43.9785294" lon="8.1319272"><ele>23.0</ele><time>2026-04-19T07:17:23.846Z</time></trkpt><trkpt lat="43.9786231" lon="8.1319215"><ele>23.0</ele><time>2026-04-19T07:17:24.845Z</time></trkpt><trkpt lat="43.9787168" lon="8.1319146"><ele>22.799999999999997</ele><time>2026-04-19T07:17:25.844Z</time></trkpt><trkpt lat="43.9788196" lon="8.1319053"><ele>22.6</ele><time>2026-04-19T07:17:26.845Z</time></trkpt><trkpt lat="43.978922" lon="8.1319002"><ele>22.4</ele><time>2026-04-19T07:17:27.845Z</time></trkpt><trkpt lat="43.9790229" lon="8.1318992"><ele>22.200000000000003</ele><time>2026-04-19T07:17:28.845Z</time></trkpt><trkpt lat="43.9791238" lon="8.1318954"><ele>22.0</ele><time>2026-04-19T07:17:29.844Z</time></trkpt><trkpt lat="43.9792284" lon="8.1318869"><ele>22.400000000000002</ele><time>2026-04-19T07:17:30.844Z</time></trkpt><trkpt lat="43.9793367" lon="8.1318769"><ele>22.8</ele><time>2026-04-19T07:17:31.845Z</time></trkpt><trkpt lat="43.9794404" lon="8.131879"><ele>23.2</ele><time>2026-04-19T07:17:32.843Z</time></trkpt><trkpt lat="43.9795489" lon="8.1318656"><ele>23.6</ele><time>2026-04-19T07:17:33.845Z</time></trkpt><trkpt lat="43.9796574" lon="8.1318622"><ele>24.0</ele><time>2026-04-19T07:17:34.845Z</time></trkpt><trkpt lat="43.9797677" lon="8.1318516"><ele>24.0</ele><time>2026-04-19T07:17:35.844Z</time></trkpt><trkpt lat="43.9798743" lon="8.1318464"><ele>24.0</ele><time>2026-04-19T07:17:36.845Z</time></trkpt><trkpt lat="43.9799786" lon="8.1318487"><ele>24.0</ele><time>2026-04-19T07:17:37.845Z</time></trkpt><trkpt lat="43.9800764" lon="8.1318636"><ele>24.0</ele><time>2026-04-19T07:17:38.846Z</time></trkpt><trkpt lat="43.9801741" lon="8.1318943"><ele>24.0</ele><time>2026-04-19T07:17:39.844Z</time></trkpt><trkpt lat="43.9802695" lon="8.1319233"><ele>24.166666666666668</ele><time>2026-04-19T07:17:40.844Z</time></trkpt><trkpt lat="43.9803605" lon="8.1319595"><ele>24.333333333333336</ele><time>2026-04-19T07:17:41.843Z</time></trkpt><trkpt lat="43.980448" lon="8.1319885"><ele>24.5</ele><time>2026-04-19T07:17:42.845Z</time></trkpt><trkpt lat="43.9805306" lon="8.1320152"><ele>24.666666666666668</ele><time>2026-04-19T07:17:43.844Z</time></trkpt><trkpt lat="43.9806098" lon="8.1320468"><ele>24.833333333333336</ele><time>2026-04-19T07:17:44.846Z</time></trkpt><trkpt lat="43.9806818" lon="8.1320757"><ele>25.0</ele><time>2026-04-19T07:17:45.845Z</time></trkpt><trkpt lat="43.9807484" lon="8.1321033"><ele>25.0</ele><time>2026-04-19T07:17:46.844Z</time></trkpt><trkpt lat="43.9808107" lon="8.1321237"><ele>25.0</ele><time>2026-04-19T07:17:47.845Z</time></trkpt><trkpt lat="43.980918" lon="8.1321743"><ele>25.0</ele><time>2026-04-19T07:17:49.843Z</time></trkpt><trkpt lat="43.981018" lon="8.1322397"><ele>25.0</ele><time>2026-04-19T07:17:51.845Z</time></trkpt><trkpt lat="43.98113" lon="8.1322538"><ele>25.0</ele><time>2026-04-19T07:17:53.845Z</time></trkpt><trkpt lat="43.9812459" lon="8.1321778"><ele>25.8</ele><time>2026-04-19T07:17:55.845Z</time></trkpt><trkpt lat="43.9813492" lon="8.1321048"><ele>26.6</ele><time>2026-04-19T07:17:57.843Z</time></trkpt><trkpt lat="43.9814289" lon="8.1320429"><ele>27.4</ele><time>2026-04-19T07:17:59.843Z</time></trkpt><trkpt lat="43.9815164" lon="8.1319756"><ele>28.2</ele><time>2026-04-19T07:18:01.845Z</time></trkpt><trkpt lat="43.9816191" lon="8.1318901"><ele>29.0</ele><time>2026-04-19T07:18:03.844Z</time></trkpt><trkpt lat="43.981679" lon="8.1318374"><ele>28.999999999999996</ele><time>2026-04-19T07:18:04.843Z</time></trkpt><trkpt lat="43.9817697" lon="8.1317459"><ele>29.0</ele><time>2026-04-19T07:18:06.843Z</time></trkpt><trkpt lat="43.9818767" lon="8.1316651"><ele>29.0</ele><time>2026-04-19T07:18:08.844Z</time></trkpt><trkpt lat="43.9819296" lon="8.1316166"><ele>29.0</ele><time>2026-04-19T07:18:09.845Z</time></trkpt><trkpt lat="43.9819906" lon="8.1315738"><ele>28.999999999999996</ele><time>2026-04-19T07:18:10.844Z</time></trkpt><trkpt lat="43.982053" lon="8.1315341"><ele>29.0</ele><time>2026-04-19T07:18:11.844Z</time></trkpt><trkpt lat="43.9821694" lon="8.1314776"><ele>28.999999999999996</ele><time>2026-04-19T07:18:13.844Z</time></trkpt><trkpt lat="43.9822746" lon="8.1314162"><ele>29.0</ele><time>2026-04-19T07:18:15.844Z</time></trkpt><trkpt lat="43.9823353" lon="8.1313727"><ele>29.0</ele><time>2026-04-19T07:18:16.843Z</time></trkpt><trkpt lat="43.9823889" lon="8.1313086"><ele>29.0</ele><time>2026-04-19T07:18:17.845Z</time></trkpt><trkpt lat="43.9824506" lon="8.1312451"><ele>28.999999999999996</ele><time>2026-04-19T07:18:18.843Z</time></trkpt><trkpt lat="43.9825057" lon="8.1311753"><ele>29.0</ele><time>2026-04-19T07:18:19.845Z</time></trkpt><trkpt lat="43.9825612" lon="8.1311111"><ele>28.833333333333332</ele><time>2026-04-19T07:18:20.845Z</time></trkpt><trkpt lat="43.9826377" lon="8.1310278"><ele>28.666666666666664</ele><time>2026-04-19T07:18:22.844Z</time></trkpt><trkpt lat="43.9826956" lon="8.130975"><ele>28.5</ele><time>2026-04-19T07:18:24.845Z</time></trkpt><trkpt lat="43.9827516" lon="8.1309186"><ele>28.333333333333336</ele><time>2026-04-19T07:18:26.844Z</time></trkpt><trkpt lat="43.9828412" lon="8.1308632"><ele>28.166666666666668</ele><time>2026-04-19T07:18:28.844Z</time></trkpt><trkpt lat="43.9828997" lon="8.1308149"><ele>28.0</ele><time>2026-04-19T07:18:29.843Z</time></trkpt><trkpt lat="43.9829608" lon="8.1307611"><ele>28.166666666666668</ele><time>2026-04-19T07:18:30.844Z</time></trkpt><trkpt lat="43.9830306" lon="8.1307013"><ele>28.333333333333336</ele><time>2026-04-19T07:18:31.845Z</time></trkpt><trkpt lat="43.9831005" lon="8.1306431"><ele>28.5</ele><time>2026-04-19T07:18:32.845Z</time></trkpt><trkpt lat="43.9831712" lon="8.1305797"><ele>28.666666666666664</ele><time>2026-04-19T07:18:33.846Z</time></trkpt><trkpt lat="43.9832546" lon="8.1305356"><ele>28.833333333333332</ele><time>2026-04-19T07:18:34.844Z</time></trkpt><trkpt lat="43.9833312" lon="8.1304906"><ele>29.0</ele><time>2026-04-19T07:18:35.844Z</time></trkpt><trkpt lat="43.9834093" lon="8.1304651"><ele>29.0</ele><time>2026-04-19T07:18:36.844Z</time></trkpt><trkpt lat="43.9834937" lon="8.1304783"><ele>29.0</ele><time>2026-04-19T07:18:37.844Z</time></trkpt><trkpt lat="43.9835805" lon="8.1305027"><ele>29.0</ele><time>2026-04-19T07:18:38.843Z</time></trkpt><trkpt lat="43.9836754" lon="8.1305296"><ele>29.0</ele><time>2026-04-19T07:18:39.845Z</time></trkpt><trkpt lat="43.9837704" lon="8.1305535"><ele>29.0</ele><time>2026-04-19T07:18:40.845Z</time></trkpt><trkpt lat="43.9838712" lon="8.1305863"><ele>29.0</ele><time>2026-04-19T07:18:41.844Z</time></trkpt><trkpt lat="43.9839762" lon="8.1306188"><ele>29.0</ele><time>2026-04-19T07:18:42.845Z</time></trkpt><trkpt lat="43.9840868" lon="8.1306456"><ele>29.0</ele><time>2026-04-19T07:18:43.846Z</time></trkpt><trkpt lat="43.9841898" lon="8.1306674"><ele>29.0</ele><time>2026-04-19T07:18:44.845Z</time></trkpt><trkpt lat="43.984292" lon="8.1306941"><ele>29.0</ele><time>2026-04-19T07:18:45.845Z</time></trkpt><trkpt lat="43.9843796" lon="8.1307222"><ele>29.333333333333332</ele><time>2026-04-19T07:18:46.844Z</time></trkpt><trkpt lat="43.9844502" lon="8.1307456"><ele>29.666666666666664</ele><time>2026-04-19T07:18:47.844Z</time></trkpt><trkpt lat="43.9845123" lon="8.1307802"><ele>30.0</ele><time>2026-04-19T07:18:48.844Z</time></trkpt><trkpt lat="43.9845846" lon="8.1309074"><ele>30.333333333333336</ele><time>2026-04-19T07:18:50.845Z</time></trkpt><trkpt lat="43.9846351" lon="8.1309759"><ele>30.666666666666668</ele><time>2026-04-19T07:18:51.845Z</time></trkpt><trkpt lat="43.9846948" lon="8.1310156"><ele>31.0</ele><time>2026-04-19T07:18:52.844Z</time></trkpt><trkpt lat="43.984758" lon="8.1310168"><ele>31.0</ele><time>2026-04-19T07:18:53.844Z</time></trkpt><trkpt lat="43.9848498" lon="8.1309237"><ele>31.0</ele><time>2026-04-19T07:18:55.844Z</time></trkpt><trkpt lat="43.9848774" lon="8.130759"><ele>31.0</ele><time>2026-04-19T07:18:57.846Z</time></trkpt><trkpt lat="43.984894" lon="8.1306661"><ele>31.0</ele><time>2026-04-19T07:18:58.844Z</time></trkpt><trkpt lat="43.984925" lon="8.130575"><ele>31.0</ele><time>2026-04-19T07:18:59.844Z</time></trkpt><trkpt lat="43.98497" lon="8.1304867"><ele>31.200000000000003</ele><time>2026-04-19T07:19:00.845Z</time></trkpt><trkpt lat="43.9850262" lon="8.1303985"><ele>31.400000000000002</ele><time>2026-04-19T07:19:01.844Z</time></trkpt><trkpt lat="43.9850884" lon="8.1303066"><ele>31.6</ele><time>2026-04-19T07:19:02.846Z</time></trkpt><trkpt lat="43.9851459" lon="8.1302139"><ele>31.8</ele><time>2026-04-19T07:19:03.845Z</time></trkpt><trkpt lat="43.9852096" lon="8.1301074"><ele>32.0</ele><time>2026-04-19T07:19:04.845Z</time></trkpt><trkpt lat="43.985278" lon="8.1299947"><ele>31.75</ele><time>2026-04-19T07:19:05.845Z</time></trkpt><trkpt lat="43.985341" lon="8.129876"><ele>31.5</ele><time>2026-04-19T07:19:06.843Z</time></trkpt><trkpt lat="43.9854133" lon="8.1297479"><ele>31.25</ele><time>2026-04-19T07:19:07.844Z</time></trkpt><trkpt lat="43.9854888" lon="8.1296209"><ele>31.0</ele><time>2026-04-19T07:19:08.844Z</time></trkpt><trkpt lat="43.9855668" lon="8.129498"><ele>31.0</ele><time>2026-04-19T07:19:09.844Z</time></trkpt><trkpt lat="43.985638" lon="8.1293794"><ele>31.0</ele><time>2026-04-19T07:19:10.844Z</time></trkpt><trkpt lat="43.9857088" lon="8.1292501"><ele>31.0</ele><time>2026-04-19T07:19:11.845Z</time></trkpt><trkpt lat="43.9857734" lon="8.129129"><ele>31.0</ele><time>2026-04-19T07:19:12.844Z</time></trkpt><trkpt lat="43.985833" lon="8.1290044"><ele>31.0</ele><time>2026-04-19T07:19:13.844Z</time></trkpt><trkpt lat="43.9858832" lon="8.1288739"><ele>31.8</ele><time>2026-04-19T07:19:14.845Z</time></trkpt><trkpt lat="43.9859278" lon="8.1287396"><ele>32.6</ele><time>2026-04-19T07:19:15.845Z</time></trkpt><trkpt lat="43.9859642" lon="8.1285989"><ele>33.4</ele><time>2026-04-19T07:19:16.843Z</time></trkpt><trkpt lat="43.9859916" lon="8.1284529"><ele>34.2</ele><time>2026-04-19T07:19:17.845Z</time></trkpt><trkpt lat="43.9860142" lon="8.1283029"><ele>35.0</ele><time>2026-04-19T07:19:18.844Z</time></trkpt><trkpt lat="43.986041" lon="8.1281455"><ele>35.0</ele><time>2026-04-19T07:19:19.844Z</time></trkpt><trkpt lat="43.9860647" lon="8.1279915"><ele>35.0</ele><time>2026-04-19T07:19:20.844Z</time></trkpt><trkpt lat="43.986089" lon="8.1278419"><ele>35.0</ele><time>2026-04-19T07:19:21.843Z</time></trkpt><trkpt lat="43.9861129" lon="8.1276891"><ele>35.0</ele><time>2026-04-19T07:19:22.844Z</time></trkpt><trkpt lat="43.9861414" lon="8.1275376"><ele>35.0</ele><time>2026-04-19T07:19:23.844Z</time></trkpt><trkpt lat="43.9861741" lon="8.1273866"><ele>35.2</ele><time>2026-04-19T07:19:24.846Z</time></trkpt><trkpt lat="43.9862078" lon="8.1272365"><ele>35.4</ele><time>2026-04-19T07:19:25.843Z</time></trkpt><trkpt lat="43.986235" lon="8.1270901"><ele>35.6</ele><time>2026-04-19T07:19:26.845Z</time></trkpt><trkpt lat="43.9862701" lon="8.1269446"><ele>35.8</ele><time>2026-04-19T07:19:27.845Z</time></trkpt><trkpt lat="43.9863044" lon="8.1267997"><ele>36.0</ele><time>2026-04-19T07:19:28.845Z</time></trkpt><trkpt lat="43.9863323" lon="8.1266576"><ele>35.8</ele><time>2026-04-19T07:19:29.845Z</time></trkpt><trkpt lat="43.9863498" lon="8.1265182"><ele>35.6</ele><time>2026-04-19T07:19:30.844Z</time></trkpt><trkpt lat="43.9863629" lon="8.1263776"><ele>35.4</ele><time>2026-04-19T07:19:31.845Z</time></trkpt><trkpt lat="43.9863702" lon="8.1262393"><ele>35.2</ele><time>2026-04-19T07:19:32.845Z</time></trkpt><trkpt lat="43.9863737" lon="8.1260969"><ele>35.0</ele><time>2026-04-19T07:19:33.844Z</time></trkpt><trkpt lat="43.9863824" lon="8.125953"><ele>35.0</ele><time>2026-04-19T07:19:34.845Z</time></trkpt><trkpt lat="43.9863843" lon="8.1258117"><ele>35.0</ele><time>2026-04-19T07:19:35.845Z</time></trkpt><trkpt lat="43.9863815" lon="8.1256801"><ele>35.0</ele><time>2026-04-19T07:19:36.844Z</time></trkpt><trkpt lat="43.9863739" lon="8.1255465"><ele>35.0</ele><time>2026-04-19T07:19:37.844Z</time></trkpt><trkpt lat="43.9863694" lon="8.1254052"><ele>35.0</ele><time>2026-04-19T07:19:38.844Z</time></trkpt><trkpt lat="43.986377" lon="8.1252708"><ele>35.0</ele><time>2026-04-19T07:19:39.845Z</time></trkpt><trkpt lat="43.9863818" lon="8.125137"><ele>35.0</ele><time>2026-04-19T07:19:40.843Z</time></trkpt><trkpt lat="43.9864233" lon="8.1250106"><ele>35.0</ele><time>2026-04-19T07:19:41.845Z</time></trkpt><trkpt lat="43.9864646" lon="8.1248803"><ele>35.0</ele><time>2026-04-19T07:19:42.845Z</time></trkpt><trkpt lat="43.9865207" lon="8.1247642"><ele>35.0</ele><time>2026-04-19T07:19:43.844Z</time></trkpt><trkpt lat="43.9865863" lon="8.1246517"><ele>35.2</ele><time>2026-04-19T07:19:44.843Z</time></trkpt><trkpt lat="43.9866559" lon="8.1245453"><ele>35.4</ele><time>2026-04-19T07:19:45.844Z</time></trkpt><trkpt lat="43.9867328" lon="8.1244398"><ele>35.6</ele><time>2026-04-19T07:19:46.844Z</time></trkpt><trkpt lat="43.9868147" lon="8.1243364"><ele>35.8</ele><time>2026-04-19T07:19:47.843Z</time></trkpt><trkpt lat="43.9869003" lon="8.1242252"><ele>36.0</ele><time>2026-04-19T07:19:48.844Z</time></trkpt><trkpt lat="43.9869807" lon="8.1241245"><ele>36.5</ele><time>2026-04-19T07:19:49.845Z</time></trkpt><trkpt lat="43.9870652" lon="8.1240181"><ele>37.0</ele><time>2026-04-19T07:19:50.845Z</time></trkpt><trkpt lat="43.987152" lon="8.1239129"><ele>37.5</ele><time>2026-04-19T07:19:51.844Z</time></trkpt><trkpt lat="43.9872337" lon="8.1237997"><ele>38.0</ele><time>2026-04-19T07:19:52.846Z</time></trkpt><trkpt lat="43.9873156" lon="8.1236918"><ele>38.0</ele><time>2026-04-19T07:19:53.845Z</time></trkpt><trkpt lat="43.9874042" lon="8.123578"><ele>38.0</ele><time>2026-04-19T07:19:54.844Z</time></trkpt><trkpt lat="43.9874961" lon="8.1234667"><ele>38.0</ele><time>2026-04-19T07:19:55.844Z</time></trkpt><trkpt lat="43.9875967" lon="8.1233552"><ele>38.0</ele><time>2026-04-19T07:19:56.844Z</time></trkpt><trkpt lat="43.9876873" lon="8.1232402"><ele>37.75</ele><time>2026-04-19T07:19:57.844Z</time></trkpt><trkpt lat="43.9877789" lon="8.1231339"><ele>37.5</ele><time>2026-04-19T07:19:58.845Z</time></trkpt><trkpt lat="43.9878766" lon="8.1230396"><ele>37.25</ele><time>2026-04-19T07:19:59.844Z</time></trkpt><trkpt lat="43.9879784" lon="8.1229632"><ele>37.0</ele><time>2026-04-19T07:20:00.844Z</time></trkpt><trkpt lat="43.9880855" lon="8.1229062"><ele>37.0</ele><time>2026-04-19T07:20:01.844Z</time></trkpt><trkpt lat="43.9881887" lon="8.1228692"><ele>37.0</ele><time>2026-04-19T07:20:02.845Z</time></trkpt><trkpt lat="43.9882923" lon="8.122848"><ele>37.0</ele><time>2026-04-19T07:20:03.844Z</time></trkpt><trkpt lat="43.9883939" lon="8.1228382"><ele>37.0</ele><time>2026-04-19T07:20:04.844Z</time></trkpt><trkpt lat="43.9884965" lon="8.1228456"><ele>37.0</ele><time>2026-04-19T07:20:05.845Z</time></trkpt><trkpt lat="43.9885767" lon="8.1228436"><ele>37.0</ele><time>2026-04-19T07:20:06.844Z</time></trkpt><trkpt lat="43.9886556" lon="8.1228305"><ele>37.0</ele><time>2026-04-19T07:20:07.844Z</time></trkpt><trkpt lat="43.9887309" lon="8.1228279"><ele>37.0</ele><time>2026-04-19T07:20:08.845Z</time></trkpt><trkpt lat="43.9888045" lon="8.1228237"><ele>37.0</ele><time>2026-04-19T07:20:09.845Z</time></trkpt><trkpt lat="43.9888819" lon="8.1228097"><ele>37.0</ele><time>2026-04-19T07:20:10.845Z</time></trkpt><trkpt lat="43.9889619" lon="8.1228054"><ele>37.0</ele><time>2026-04-19T07:20:11.844Z</time></trkpt><trkpt lat="43.9890499" lon="8.1228006"><ele>37.0</ele><time>2026-04-19T07:20:12.844Z</time></trkpt><trkpt lat="43.9891325" lon="8.1228077"><ele>37.0</ele><time>2026-04-19T07:20:13.846Z</time></trkpt><trkpt lat="43.9892262" lon="8.1228098"><ele>37.0</ele><time>2026-04-19T07:20:14.844Z</time></trkpt><trkpt lat="43.9893281" lon="8.1227925"><ele>37.0</ele><time>2026-04-19T07:20:15.844Z</time></trkpt><trkpt lat="43.989432" lon="8.1227597"><ele>37.0</ele><time>2026-04-19T07:20:16.845Z</time></trkpt><trkpt lat="43.9895313" lon="8.1227349"><ele>37.8</ele><time>2026-04-19T07:20:17.844Z</time></trkpt><trkpt lat="43.9896337" lon="8.1226952"><ele>38.6</ele><time>2026-04-19T07:20:18.844Z</time></trkpt><trkpt lat="43.9897345" lon="8.1226439"><ele>39.4</ele><time>2026-04-19T07:20:19.844Z</time></trkpt><trkpt lat="43.9898344" lon="8.1225935"><ele>40.199999999999996</ele><time>2026-04-19T07:20:20.845Z</time></trkpt><trkpt lat="43.9899384" lon="8.122544"><ele>41.0</ele><time>2026-04-19T07:20:21.845Z</time></trkpt><trkpt lat="43.9900375" lon="8.1224946"><ele>40.75</ele><time>2026-04-19T07:20:22.844Z</time></trkpt><trkpt lat="43.9901386" lon="8.1224477"><ele>40.5</ele><time>2026-04-19T07:20:23.845Z</time></trkpt><trkpt lat="43.9902462" lon="8.122395"><ele>40.25</ele><time>2026-04-19T07:20:24.845Z</time></trkpt><trkpt lat="43.9903509" lon="8.1223419"><ele>40.0</ele><time>2026-04-19T07:20:25.845Z</time></trkpt><trkpt lat="43.9904647" lon="8.1222895"><ele>40.0</ele><time>2026-04-19T07:20:26.844Z</time></trkpt><trkpt lat="43.9905717" lon="8.1222357"><ele>40.0</ele><time>2026-04-19T07:20:27.843Z</time></trkpt><trkpt lat="43.9906771" lon="8.1221829"><ele>40.0</ele><time>2026-04-19T07:20:28.845Z</time></trkpt><trkpt lat="43.9907744" lon="8.1221281"><ele>40.0</ele><time>2026-04-19T07:20:29.844Z</time></trkpt><trkpt lat="43.9908767" lon="8.1220768"><ele>40.0</ele><time>2026-04-19T07:20:30.846Z</time></trkpt><trkpt lat="43.9909749" lon="8.1220151"><ele>40.8</ele><time>2026-04-19T07:20:31.844Z</time></trkpt><trkpt lat="43.9910632" lon="8.1219515"><ele>41.6</ele><time>2026-04-19T07:20:32.844Z</time></trkpt><trkpt lat="43.9911587" lon="8.1218918"><ele>42.400000000000006</ele><time>2026-04-19T07:20:33.844Z</time></trkpt><trkpt lat="43.9912471" lon="8.1218353"><ele>43.2</ele><time>2026-04-19T07:20:34.844Z</time></trkpt><trkpt lat="43.9913347" lon="8.1217715"><ele>44.0</ele><time>2026-04-19T07:20:35.846Z</time></trkpt><trkpt lat="43.9914261" lon="8.1217038"><ele>44.0</ele><time>2026-04-19T07:20:36.845Z</time></trkpt><trkpt lat="43.9915148" lon="8.1216456"><ele>44.0</ele><time>2026-04-19T07:20:37.843Z</time></trkpt><trkpt lat="43.991606" lon="8.1215869"><ele>44.0</ele><time>2026-04-19T07:20:38.844Z</time></trkpt><trkpt lat="43.9916905" lon="8.1215219"><ele>44.0</ele><time>2026-04-19T07:20:39.844Z</time></trkpt><trkpt lat="43.9917791" lon="8.1214533"><ele>44.0</ele><time>2026-04-19T07:20:40.845Z</time></trkpt><trkpt lat="43.9918642" lon="8.1213698"><ele>44.0</ele><time>2026-04-19T07:20:41.845Z</time></trkpt><trkpt lat="43.991941" lon="8.1212864"><ele>44.0</ele><time>2026-04-19T07:20:42.845Z</time></trkpt><trkpt lat="43.9920154" lon="8.1211921"><ele>44.0</ele><time>2026-04-19T07:20:43.845Z</time></trkpt><trkpt lat="43.9920906" lon="8.1210972"><ele>44.0</ele><time>2026-04-19T07:20:44.845Z</time></trkpt><trkpt lat="43.992171" lon="8.1210022"><ele>44.0</ele><time>2026-04-19T07:20:45.845Z</time></trkpt><trkpt lat="43.992249" lon="8.120904"><ele>44.0</ele><time>2026-04-19T07:20:46.845Z</time></trkpt><trkpt lat="43.9923282" lon="8.1207994"><ele>44.0</ele><time>2026-04-19T07:20:47.846Z</time></trkpt><trkpt lat="43.9924128" lon="8.1206975"><ele>44.0</ele><time>2026-04-19T07:20:48.845Z</time></trkpt><trkpt lat="43.9924917" lon="8.1206058"><ele>44.0</ele><time>2026-04-19T07:20:49.844Z</time></trkpt><trkpt lat="43.9925713" lon="8.1205128"><ele>44.0</ele><time>2026-04-19T07:20:50.843Z</time></trkpt><trkpt lat="43.9926537" lon="8.1204269"><ele>44.800000000000004</ele><time>2026-04-19T07:20:51.844Z</time></trkpt><trkpt lat="43.9927272" lon="8.1203458"><ele>45.6</ele><time>2026-04-19T07:20:52.845Z</time></trkpt><trkpt lat="43.9928041" lon="8.1202636"><ele>46.4</ele><time>2026-04-19T07:20:53.845Z</time></trkpt><trkpt lat="43.9928839" lon="8.1201627"><ele>47.2</ele><time>2026-04-19T07:20:54.844Z</time></trkpt><trkpt lat="43.9929582" lon="8.1200607"><ele>48.0</ele><time>2026-04-19T07:20:55.845Z</time></trkpt><trkpt lat="43.993032" lon="8.1199593"><ele>47.4</ele><time>2026-04-19T07:20:56.844Z</time></trkpt><trkpt lat="43.9930984" lon="8.1198495"><ele>46.8</ele><time>2026-04-19T07:20:57.844Z</time></trkpt><trkpt lat="43.9931707" lon="8.1197394"><ele>46.2</ele><time>2026-04-19T07:20:58.845Z</time></trkpt><trkpt lat="43.9932293" lon="8.1196107"><ele>45.6</ele><time>2026-04-19T07:20:59.844Z</time></trkpt><trkpt lat="43.9932884" lon="8.119479"><ele>45.0</ele><time>2026-04-19T07:21:00.845Z</time></trkpt><trkpt lat="43.993337" lon="8.1193435"><ele>47.25</ele><time>2026-04-19T07:21:01.844Z</time></trkpt><trkpt lat="43.9933926" lon="8.1192004"><ele>49.5</ele><time>2026-04-19T07:21:02.844Z</time></trkpt><trkpt lat="43.9934441" lon="8.1190557"><ele>51.75</ele><time>2026-04-19T07:21:03.844Z</time></trkpt><trkpt lat="43.9934925" lon="8.1189089"><ele>54.0</ele><time>2026-04-19T07:21:04.844Z</time></trkpt><trkpt lat="43.9935365" lon="8.1187579"><ele>54.0</ele><time>2026-04-19T07:21:05.844Z</time></trkpt><trkpt lat="43.9935819" lon="8.1186001"><ele>54.0</ele><time>2026-04-19T07:21:06.844Z</time></trkpt><trkpt lat="43.9936257" lon="8.1184529"><ele>54.0</ele><time>2026-04-19T07:21:07.843Z</time></trkpt><trkpt lat="43.9936726" lon="8.1183047"><ele>54.0</ele><time>2026-04-19T07:21:08.844Z</time></trkpt><trkpt lat="43.9937229" lon="8.1181579"><ele>53.400000000000006</ele><time>2026-04-19T07:21:09.844Z</time></trkpt><trkpt lat="43.9937662" lon="8.1180122"><ele>52.800000000000004</ele><time>2026-04-19T07:21:10.845Z</time></trkpt><trkpt lat="43.9938048" lon="8.1178688"><ele>52.2</ele><time>2026-04-19T07:21:11.845Z</time></trkpt><trkpt lat="43.9938352" lon="8.1177183"><ele>51.599999999999994</ele><time>2026-04-19T07:21:12.846Z</time></trkpt><trkpt lat="43.9938657" lon="8.1175671"><ele>51.0</ele><time>2026-04-19T07:21:13.844Z</time></trkpt><trkpt lat="43.9938962" lon="8.1174255"><ele>50.599999999999994</ele><time>2026-04-19T07:21:14.845Z</time></trkpt><trkpt lat="43.993924" lon="8.1172819"><ele>50.2</ele><time>2026-04-19T07:21:15.844Z</time></trkpt><trkpt lat="43.9939506" lon="8.117141"><ele>49.8</ele><time>2026-04-19T07:21:16.844Z</time></trkpt><trkpt lat="43.9939763" lon="8.1169967"><ele>49.400000000000006</ele><time>2026-04-19T07:21:17.844Z</time></trkpt><trkpt lat="43.9940029" lon="8.1168475"><ele>49.0</ele><time>2026-04-19T07:21:18.844Z</time></trkpt><trkpt lat="43.9940282" lon="8.1167035"><ele>49.0</ele><time>2026-04-19T07:21:19.844Z</time></trkpt><trkpt lat="43.9940562" lon="8.1165626"><ele>49.0</ele><time>2026-04-19T07:21:20.845Z</time></trkpt><trkpt lat="43.9940813" lon="8.1164211"><ele>49.0</ele><time>2026-04-19T07:21:21.844Z</time></trkpt><trkpt lat="43.9941097" lon="8.1162809"><ele>49.0</ele><time>2026-04-19T07:21:22.845Z</time></trkpt><trkpt lat="43.9941331" lon="8.1161358"><ele>49.0</ele><time>2026-04-19T07:21:23.845Z</time></trkpt><trkpt lat="43.9941625" lon="8.115992"><ele>50.0</ele><time>2026-04-19T07:21:24.845Z</time></trkpt><trkpt lat="43.994196" lon="8.1158513"><ele>51.0</ele><time>2026-04-19T07:21:25.845Z</time></trkpt><trkpt lat="43.9942443" lon="8.1157169"><ele>52.00000000000001</ele><time>2026-04-19T07:21:26.844Z</time></trkpt><trkpt lat="43.9943018" lon="8.1155893"><ele>53.0</ele><time>2026-04-19T07:21:27.844Z</time></trkpt><trkpt lat="43.9943686" lon="8.1154746"><ele>54.0</ele><time>2026-04-19T07:21:28.845Z</time></trkpt><trkpt lat="43.9944464" lon="8.1153755"><ele>54.2</ele><time>2026-04-19T07:21:29.844Z</time></trkpt><trkpt lat="43.9945306" lon="8.1152877"><ele>54.400000000000006</ele><time>2026-04-19T07:21:30.845Z</time></trkpt><trkpt lat="43.9946192" lon="8.1152046"><ele>54.6</ele><time>2026-04-19T07:21:31.844Z</time></trkpt><trkpt lat="43.9946993" lon="8.1151226"><ele>54.8</ele><time>2026-04-19T07:21:32.845Z</time></trkpt><trkpt lat="43.994783" lon="8.1150386"><ele>55.0</ele><time>2026-04-19T07:21:33.845Z</time></trkpt><trkpt lat="43.9948639" lon="8.1149648"><ele>54.6</ele><time>2026-04-19T07:21:34.844Z</time></trkpt><trkpt lat="43.9949426" lon="8.11489"><ele>54.2</ele><time>2026-04-19T07:21:35.845Z</time></trkpt><trkpt lat="43.9950139" lon="8.1148196"><ele>53.8</ele><time>2026-04-19T07:21:36.844Z</time></trkpt><trkpt lat="43.9950967" lon="8.1147495"><ele>53.4</ele><time>2026-04-19T07:21:37.845Z</time></trkpt><trkpt lat="43.9951779" lon="8.114675"><ele>53.0</ele><time>2026-04-19T07:21:38.845Z</time></trkpt><trkpt lat="43.9952603" lon="8.1145955"><ele>53.0</ele><time>2026-04-19T07:21:39.844Z</time></trkpt><trkpt lat="43.9953329" lon="8.1145148"><ele>53.0</ele><time>2026-04-19T07:21:40.845Z</time></trkpt><trkpt lat="43.9954158" lon="8.1144371"><ele>53.0</ele><time>2026-04-19T07:21:41.844Z</time></trkpt><trkpt lat="43.9955024" lon="8.114361"><ele>53.0</ele><time>2026-04-19T07:21:42.844Z</time></trkpt><trkpt lat="43.9955835" lon="8.1142818"><ele>53.0</ele><time>2026-04-19T07:21:43.844Z</time></trkpt><trkpt lat="43.9956689" lon="8.114204"><ele>53.0</ele><time>2026-04-19T07:21:44.845Z</time></trkpt><trkpt lat="43.9957548" lon="8.1141295"><ele>53.0</ele><time>2026-04-19T07:21:45.845Z</time></trkpt><trkpt lat="43.9958323" lon="8.1140437"><ele>53.0</ele><time>2026-04-19T07:21:46.844Z</time></trkpt><trkpt lat="43.9959021" lon="8.1139494"><ele>53.0</ele><time>2026-04-19T07:21:47.844Z</time></trkpt><trkpt lat="43.9959881" lon="8.1138663"><ele>53.0</ele><time>2026-04-19T07:21:48.845Z</time></trkpt><trkpt lat="43.99607" lon="8.1137759"><ele>53.599999999999994</ele><time>2026-04-19T07:21:49.844Z</time></trkpt><trkpt lat="43.9961546" lon="8.1136961"><ele>54.199999999999996</ele><time>2026-04-19T07:21:50.845Z</time></trkpt><trkpt lat="43.9962424" lon="8.1136107"><ele>54.8</ele><time>2026-04-19T07:21:51.845Z</time></trkpt><trkpt lat="43.9963304" lon="8.1135293"><ele>55.4</ele><time>2026-04-19T07:21:52.844Z</time></trkpt><trkpt lat="43.9964157" lon="8.1134287"><ele>56.0</ele><time>2026-04-19T07:21:53.844Z</time></trkpt><trkpt lat="43.9964928" lon="8.113326"><ele>56.4</ele><time>2026-04-19T07:21:54.845Z</time></trkpt><trkpt lat="43.9965614" lon="8.1132167"><ele>56.8</ele><time>2026-04-19T07:21:55.845Z</time></trkpt><trkpt lat="43.9966256" lon="8.1131129"><ele>57.199999999999996</ele><time>2026-04-19T07:21:56.844Z</time></trkpt><trkpt lat="43.9967096" lon="8.1130242"><ele>57.599999999999994</ele><time>2026-04-19T07:21:57.844Z</time></trkpt><trkpt lat="43.9967997" lon="8.1129405"><ele>58.0</ele><time>2026-04-19T07:21:58.844Z</time></trkpt><trkpt lat="43.9968826" lon="8.1128542"><ele>58.0</ele><time>2026-04-19T07:21:59.845Z</time></trkpt><trkpt lat="43.9969642" lon="8.11277"><ele>58.0</ele><time>2026-04-19T07:22:00.845Z</time></trkpt><trkpt lat="43.9970428" lon="8.112689"><ele>58.0</ele><time>2026-04-19T07:22:01.844Z</time></trkpt><trkpt lat="43.9971207" lon="8.1126073"><ele>58.0</ele><time>2026-04-19T07:22:02.844Z</time></trkpt><trkpt lat="43.9972006" lon="8.1125332"><ele>58.0</ele><time>2026-04-19T07:22:03.844Z</time></trkpt><trkpt lat="43.9972835" lon="8.1124491"><ele>57.2</ele><time>2026-04-19T07:22:04.845Z</time></trkpt><trkpt lat="43.9973625" lon="8.1123671"><ele>56.4</ele><time>2026-04-19T07:22:05.844Z</time></trkpt><trkpt lat="43.9974437" lon="8.1122866"><ele>55.60000000000001</ele><time>2026-04-19T07:22:06.843Z</time></trkpt><trkpt lat="43.9975259" lon="8.1122023"><ele>54.800000000000004</ele><time>2026-04-19T07:22:07.844Z</time></trkpt><trkpt lat="43.9976057" lon="8.1121181"><ele>54.0</ele><time>2026-04-19T07:22:08.844Z</time></trkpt><trkpt lat="43.9976835" lon="8.1120303"><ele>55.800000000000004</ele><time>2026-04-19T07:22:09.844Z</time></trkpt><trkpt lat="43.9977649" lon="8.1119477"><ele>57.60000000000001</ele><time>2026-04-19T07:22:10.844Z</time></trkpt><trkpt lat="43.9978367" lon="8.111861"><ele>59.4</ele><time>2026-04-19T07:22:11.844Z</time></trkpt><trkpt lat="43.9979093" lon="8.1117727"><ele>61.2</ele><time>2026-04-19T07:22:12.844Z</time></trkpt><trkpt lat="43.9979963" lon="8.1116888"><ele>63.0</ele><time>2026-04-19T07:22:13.844Z</time></trkpt><trkpt lat="43.9980831" lon="8.1116073"><ele>62.8</ele><time>2026-04-19T07:22:14.845Z</time></trkpt><trkpt lat="43.9981654" lon="8.1115191"><ele>62.599999999999994</ele><time>2026-04-19T07:22:15.844Z</time></trkpt><trkpt lat="43.9982455" lon="8.1114272"><ele>62.400000000000006</ele><time>2026-04-19T07:22:16.846Z</time></trkpt><trkpt lat="43.9983258" lon="8.1113274"><ele>62.2</ele><time>2026-04-19T07:22:17.845Z</time></trkpt><trkpt lat="43.9984058" lon="8.1112229"><ele>62.0</ele><time>2026-04-19T07:22:18.844Z</time></trkpt><trkpt lat="43.9984917" lon="8.1111265"><ele>62.0</ele><time>2026-04-19T07:22:19.844Z</time></trkpt><trkpt lat="43.9985755" lon="8.1110273"><ele>62.0</ele><time>2026-04-19T07:22:20.845Z</time></trkpt><trkpt lat="43.9986575" lon="8.1109224"><ele>62.0</ele><time>2026-04-19T07:22:21.844Z</time></trkpt><trkpt lat="43.9987367" lon="8.1108223"><ele>62.0</ele><time>2026-04-19T07:22:22.844Z</time></trkpt><trkpt lat="43.9988207" lon="8.1107221"><ele>62.0</ele><time>2026-04-19T07:22:23.844Z</time></trkpt><trkpt lat="43.9989076" lon="8.1106328"><ele>61.400000000000006</ele><time>2026-04-19T07:22:24.844Z</time></trkpt><trkpt lat="43.9989902" lon="8.110534"><ele>60.800000000000004</ele><time>2026-04-19T07:22:25.844Z</time></trkpt><trkpt lat="43.9990656" lon="8.1104417"><ele>60.2</ele><time>2026-04-19T07:22:26.845Z</time></trkpt><trkpt lat="43.9991402" lon="8.1103481"><ele>59.6</ele><time>2026-04-19T07:22:27.844Z</time></trkpt><trkpt lat="43.9992103" lon="8.1102552"><ele>59.0</ele><time>2026-04-19T07:22:28.843Z</time></trkpt><trkpt lat="43.9992845" lon="8.1101618"><ele>60.6</ele><time>2026-04-19T07:22:29.844Z</time></trkpt><trkpt lat="43.9993544" lon="8.1100671"><ele>62.2</ele><time>2026-04-19T07:22:30.845Z</time></trkpt><trkpt lat="43.9994176" lon="8.109969"><ele>63.800000000000004</ele><time>2026-04-19T07:22:31.844Z</time></trkpt><trkpt lat="43.999477" lon="8.1098608"><ele>65.4</ele><time>2026-04-19T07:22:32.845Z</time></trkpt><trkpt lat="43.9995398" lon="8.1097515"><ele>67.0</ele><time>2026-04-19T07:22:33.844Z</time></trkpt><trkpt lat="43.999598" lon="8.1096442"><ele>67.0</ele><time>2026-04-19T07:22:34.844Z</time></trkpt><trkpt lat="43.9996516" lon="8.1095283"><ele>67.0</ele><time>2026-04-19T07:22:35.844Z</time></trkpt><trkpt lat="43.9997094" lon="8.1094113"><ele>67.0</ele><time>2026-04-19T07:22:36.845Z</time></trkpt><trkpt lat="43.9997621" lon="8.1092937"><ele>67.0</ele><time>2026-04-19T07:22:37.845Z</time></trkpt><trkpt lat="43.9998199" lon="8.1091832"><ele>67.0</ele><time>2026-04-19T07:22:38.845Z</time></trkpt><trkpt lat="43.9998759" lon="8.1090703"><ele>65.8</ele><time>2026-04-19T07:22:39.843Z</time></trkpt><trkpt lat="43.9999288" lon="8.1089565"><ele>64.6</ele><time>2026-04-19T07:22:40.843Z</time></trkpt><trkpt lat="43.9999849" lon="8.1088398"><ele>63.39999999999999</ele><time>2026-04-19T07:22:41.845Z</time></trkpt><trkpt lat="44.0000356" lon="8.1087304"><ele>62.199999999999996</ele><time>2026-04-19T07:22:42.844Z</time></trkpt><trkpt lat="44.0000806" lon="8.1086084"><ele>61.0</ele><time>2026-04-19T07:22:43.845Z</time></trkpt><trkpt lat="44.0001194" lon="8.1084864"><ele>61.0</ele><time>2026-04-19T07:22:44.844Z</time></trkpt><trkpt lat="44.0001562" lon="8.108358"><ele>60.99999999999999</ele><time>2026-04-19T07:22:45.845Z</time></trkpt><trkpt lat="44.0001907" lon="8.1082321"><ele>60.99999999999999</ele><time>2026-04-19T07:22:46.844Z</time></trkpt><trkpt lat="44.0002209" lon="8.1081016"><ele>61.0</ele><time>2026-04-19T07:22:47.843Z</time></trkpt><trkpt lat="44.0002439" lon="8.1079666"><ele>61.0</ele><time>2026-04-19T07:22:48.844Z</time></trkpt><trkpt lat="44.0002638" lon="8.1078321"><ele>61.0</ele><time>2026-04-19T07:22:49.845Z</time></trkpt><trkpt lat="44.0002737" lon="8.1076955"><ele>60.99999999999999</ele><time>2026-04-19T07:22:50.845Z</time></trkpt><trkpt lat="44.0002883" lon="8.1075491"><ele>60.99999999999999</ele><time>2026-04-19T07:22:51.844Z</time></trkpt><trkpt lat="44.0003056" lon="8.1074066"><ele>61.0</ele><time>2026-04-19T07:22:52.844Z</time></trkpt><trkpt lat="44.0003286" lon="8.1072648"><ele>61.0</ele><time>2026-04-19T07:22:53.845Z</time></trkpt><trkpt lat="44.000355" lon="8.1071259"><ele>60.8</ele><time>2026-04-19T07:22:54.845Z</time></trkpt><trkpt lat="44.0003908" lon="8.1069927"><ele>60.599999999999994</ele><time>2026-04-19T07:22:55.845Z</time></trkpt><trkpt lat="44.0004335" lon="8.1068624"><ele>60.4</ele><time>2026-04-19T07:22:56.845Z</time></trkpt><trkpt lat="44.0004842" lon="8.106736"><ele>60.2</ele><time>2026-04-19T07:22:57.846Z</time></trkpt><trkpt lat="44.0005379" lon="8.1066226"><ele>60.0</ele><time>2026-04-19T07:22:58.844Z</time></trkpt><trkpt lat="44.0005933" lon="8.106508"><ele>59.8</ele><time>2026-04-19T07:22:59.844Z</time></trkpt><trkpt lat="44.0006595" lon="8.1063971"><ele>59.6</ele><time>2026-04-19T07:23:00.845Z</time></trkpt><trkpt lat="44.0007229" lon="8.1062967"><ele>59.400000000000006</ele><time>2026-04-19T07:23:01.844Z</time></trkpt><trkpt lat="44.0007974" lon="8.1061966"><ele>59.2</ele><time>2026-04-19T07:23:02.844Z</time></trkpt><trkpt lat="44.0008657" lon="8.1060889"><ele>59.0</ele><time>2026-04-19T07:23:03.844Z</time></trkpt><trkpt lat="44.0009332" lon="8.1059822"><ele>59.800000000000004</ele><time>2026-04-19T07:23:04.844Z</time></trkpt><trkpt lat="44.0010036" lon="8.1058794"><ele>60.60000000000001</ele><time>2026-04-19T07:23:05.845Z</time></trkpt><trkpt lat="44.001074" lon="8.1057727"><ele>61.4</ele><time>2026-04-19T07:23:06.844Z</time></trkpt><trkpt lat="44.0011435" lon="8.1056627"><ele>62.2</ele><time>2026-04-19T07:23:07.844Z</time></trkpt><trkpt lat="44.0012175" lon="8.1055511"><ele>63.0</ele><time>2026-04-19T07:23:08.844Z</time></trkpt><trkpt lat="44.0012905" lon="8.1054381"><ele>63.0</ele><time>2026-04-19T07:23:09.844Z</time></trkpt><trkpt lat="44.0013642" lon="8.1053203"><ele>63.0</ele><time>2026-04-19T07:23:10.844Z</time></trkpt><trkpt lat="44.0014367" lon="8.1051942"><ele>63.0</ele><time>2026-04-19T07:23:11.844Z</time></trkpt><trkpt lat="44.0015088" lon="8.1050739"><ele>63.0</ele><time>2026-04-19T07:23:12.844Z</time></trkpt><trkpt lat="44.0015761" lon="8.1049516"><ele>62.8</ele><time>2026-04-19T07:23:13.843Z</time></trkpt><trkpt lat="44.0016526" lon="8.1048381"><ele>62.599999999999994</ele><time>2026-04-19T07:23:14.845Z</time></trkpt><trkpt lat="44.0017269" lon="8.1047263"><ele>62.400000000000006</ele><time>2026-04-19T07:23:15.844Z</time></trkpt><trkpt lat="44.0018034" lon="8.1046016"><ele>62.2</ele><time>2026-04-19T07:23:16.845Z</time></trkpt><trkpt lat="44.0018675" lon="8.1044977"><ele>62.0</ele><time>2026-04-19T07:23:17.843Z</time></trkpt><trkpt lat="44.0019385" lon="8.1043622"><ele>62.5</ele><time>2026-04-19T07:23:18.845Z</time></trkpt><trkpt lat="44.0019861" lon="8.104216"><ele>63.0</ele><time>2026-04-19T07:23:19.845Z</time></trkpt><trkpt lat="44.0020441" lon="8.1040708"><ele>63.5</ele><time>2026-04-19T07:23:20.843Z</time></trkpt><trkpt lat="44.0020805" lon="8.1039032"><ele>64.0</ele><time>2026-04-19T07:23:21.843Z</time></trkpt><trkpt lat="44.0021181" lon="8.1037347"><ele>64.0</ele><time>2026-04-19T07:23:22.845Z</time></trkpt><trkpt lat="44.0021485" lon="8.1035725"><ele>64.0</ele><time>2026-04-19T07:23:23.843Z</time></trkpt><trkpt lat="44.0021664" lon="8.1033998"><ele>64.0</ele><time>2026-04-19T07:23:24.845Z</time></trkpt><trkpt lat="44.0021863" lon="8.1032332"><ele>64.0</ele><time>2026-04-19T07:23:25.845Z</time></trkpt><trkpt lat="44.0022021" lon="8.1030618"><ele>63.75</ele><time>2026-04-19T07:23:26.844Z</time></trkpt><trkpt lat="44.0022214" lon="8.1028914"><ele>63.5</ele><time>2026-04-19T07:23:27.845Z</time></trkpt><trkpt lat="44.0022406" lon="8.1027165"><ele>63.25</ele><time>2026-04-19T07:23:28.844Z</time></trkpt><trkpt lat="44.0022615" lon="8.1025385"><ele>63.0</ele><time>2026-04-19T07:23:29.844Z</time></trkpt><trkpt lat="44.0022811" lon="8.1023585"><ele>63.5</ele><time>2026-04-19T07:23:30.845Z</time></trkpt><trkpt lat="44.0023014" lon="8.1021819"><ele>64.0</ele><time>2026-04-19T07:23:31.844Z</time></trkpt><trkpt lat="44.0023193" lon="8.1020046"><ele>64.5</ele><time>2026-04-19T07:23:32.844Z</time></trkpt><trkpt lat="44.0023338" lon="8.1018257"><ele>65.0</ele><time>2026-04-19T07:23:33.844Z</time></trkpt><trkpt lat="44.0023507" lon="8.101647"><ele>65.5</ele><time>2026-04-19T07:23:34.845Z</time></trkpt><trkpt lat="44.0023673" lon="8.1014701"><ele>66.0</ele><time>2026-04-19T07:23:35.843Z</time></trkpt><trkpt lat="44.0023743" lon="8.1012928"><ele>66.5</ele><time>2026-04-19T07:23:36.844Z</time></trkpt><trkpt lat="44.002391" lon="8.1011149"><ele>67.0</ele><time>2026-04-19T07:23:37.845Z</time></trkpt><trkpt lat="44.0024088" lon="8.1009337"><ele>67.0</ele><time>2026-04-19T07:23:38.844Z</time></trkpt><trkpt lat="44.0024229" lon="8.1007562"><ele>67.0</ele><time>2026-04-19T07:23:39.844Z</time></trkpt><trkpt lat="44.0024423" lon="8.1005819"><ele>67.0</ele><time>2026-04-19T07:23:40.844Z</time></trkpt><trkpt lat="44.00247" lon="8.1004104"><ele>67.0</ele><time>2026-04-19T07:23:41.844Z</time></trkpt><trkpt lat="44.0025012" lon="8.1002383"><ele>68.0</ele><time>2026-04-19T07:23:42.845Z</time></trkpt><trkpt lat="44.0025429" lon="8.1000823"><ele>69.0</ele><time>2026-04-19T07:23:43.844Z</time></trkpt><trkpt lat="44.0025961" lon="8.0999215"><ele>70.0</ele><time>2026-04-19T07:23:44.844Z</time></trkpt><trkpt lat="44.0026518" lon="8.0997644"><ele>71.0</ele><time>2026-04-19T07:23:45.844Z</time></trkpt><trkpt lat="44.0027087" lon="8.0996115"><ele>71.0</ele><time>2026-04-19T07:23:46.844Z</time></trkpt><trkpt lat="44.0027662" lon="8.0994584"><ele>71.0</ele><time>2026-04-19T07:23:47.845Z</time></trkpt><trkpt lat="44.0028241" lon="8.0993049"><ele>71.0</ele><time>2026-04-19T07:23:48.845Z</time></trkpt><trkpt lat="44.0028852" lon="8.0991526"><ele>71.0</ele><time>2026-04-19T07:23:49.845Z</time></trkpt><trkpt lat="44.0029533" lon="8.0990014"><ele>71.0</ele><time>2026-04-19T07:23:50.845Z</time></trkpt><trkpt lat="44.0030389" lon="8.0988658"><ele>71.0</ele><time>2026-04-19T07:23:51.844Z</time></trkpt><trkpt lat="44.0031313" lon="8.0987475"><ele>71.0</ele><time>2026-04-19T07:23:52.844Z</time></trkpt><trkpt lat="44.0032273" lon="8.0986191"><ele>71.0</ele><time>2026-04-19T07:23:53.844Z</time></trkpt><trkpt lat="44.0033047" lon="8.0984714"><ele>73.0</ele><time>2026-04-19T07:23:54.843Z</time></trkpt><trkpt lat="44.0033789" lon="8.0983158"><ele>75.0</ele><time>2026-04-19T07:23:55.844Z</time></trkpt><trkpt lat="44.0034304" lon="8.0981426"><ele>77.0</ele><time>2026-04-19T07:23:56.845Z</time></trkpt><trkpt lat="44.0034665" lon="8.0979578"><ele>79.0</ele><time>2026-04-19T07:23:57.844Z</time></trkpt><trkpt lat="44.0035028" lon="8.0977635"><ele>79.0</ele><time>2026-04-19T07:23:58.844Z</time></trkpt><trkpt lat="44.0035297" lon="8.09757"><ele>79.0</ele><time>2026-04-19T07:23:59.843Z</time></trkpt><trkpt lat="44.003549" lon="8.0973689"><ele>79.0</ele><time>2026-04-19T07:24:00.843Z</time></trkpt><trkpt lat="44.0035789" lon="8.097166"><ele>79.0</ele><time>2026-04-19T07:24:01.844Z</time></trkpt><trkpt lat="44.0036" lon="8.0969656"><ele>78.25</ele><time>2026-04-19T07:24:02.844Z</time></trkpt><trkpt lat="44.0036207" lon="8.0967659"><ele>77.5</ele><time>2026-04-19T07:24:03.844Z</time></trkpt><trkpt lat="44.0036349" lon="8.0965667"><ele>76.75</ele><time>2026-04-19T07:24:04.844Z</time></trkpt><trkpt lat="44.0036414" lon="8.0963734"><ele>76.0</ele><time>2026-04-19T07:24:05.844Z</time></trkpt><trkpt lat="44.0036456" lon="8.0961799"><ele>75.75</ele><time>2026-04-19T07:24:06.845Z</time></trkpt><trkpt lat="44.0036429" lon="8.0959792"><ele>75.5</ele><time>2026-04-19T07:24:07.844Z</time></trkpt><trkpt lat="44.003643" lon="8.0957772"><ele>75.25</ele><time>2026-04-19T07:24:08.846Z</time></trkpt><trkpt lat="44.0036436" lon="8.095578"><ele>75.0</ele><time>2026-04-19T07:24:09.845Z</time></trkpt><trkpt lat="44.0036402" lon="8.095377"><ele>76.25</ele><time>2026-04-19T07:24:10.844Z</time></trkpt><trkpt lat="44.0036355" lon="8.0951718"><ele>77.5</ele><time>2026-04-19T07:24:11.845Z</time></trkpt><trkpt lat="44.0036352" lon="8.0949746"><ele>78.75</ele><time>2026-04-19T07:24:12.844Z</time></trkpt><trkpt lat="44.0036393" lon="8.0947726"><ele>80.0</ele><time>2026-04-19T07:24:13.844Z</time></trkpt><trkpt lat="44.0036495" lon="8.0945795"><ele>80.0</ele><time>2026-04-19T07:24:14.844Z</time></trkpt><trkpt lat="44.0036739" lon="8.0943857"><ele>80.0</ele><time>2026-04-19T07:24:15.844Z</time></trkpt><trkpt lat="44.0037114" lon="8.0942009"><ele>80.0</ele><time>2026-04-19T07:24:16.844Z</time></trkpt><trkpt lat="44.0037588" lon="8.094023"><ele>80.0</ele><time>2026-04-19T07:24:17.843Z</time></trkpt><trkpt lat="44.0038086" lon="8.0938424"><ele>79.5</ele><time>2026-04-19T07:24:18.846Z</time></trkpt><trkpt lat="44.0038568" lon="8.0936603"><ele>79.0</ele><time>2026-04-19T07:24:19.844Z</time></trkpt><trkpt lat="44.0039048" lon="8.0934776"><ele>78.5</ele><time>2026-04-19T07:24:20.844Z</time></trkpt><trkpt lat="44.0039542" lon="8.0933024"><ele>78.0</ele><time>2026-04-19T07:24:21.844Z</time></trkpt><trkpt lat="44.0040033" lon="8.0931202"><ele>78.0</ele><time>2026-04-19T07:24:22.845Z</time></trkpt><trkpt lat="44.0040495" lon="8.0929347"><ele>78.0</ele><time>2026-04-19T07:24:23.844Z</time></trkpt><trkpt lat="44.0040847" lon="8.0927516"><ele>78.0</ele><time>2026-04-19T07:24:24.844Z</time></trkpt><trkpt lat="44.004095" lon="8.0925579"><ele>78.0</ele><time>2026-04-19T07:24:25.844Z</time></trkpt><trkpt lat="44.0040847" lon="8.0923583"><ele>78.5</ele><time>2026-04-19T07:24:26.844Z</time></trkpt><trkpt lat="44.0040739" lon="8.0921629"><ele>79.0</ele><time>2026-04-19T07:24:27.844Z</time></trkpt><trkpt lat="44.0040573" lon="8.0919683"><ele>79.5</ele><time>2026-04-19T07:24:28.844Z</time></trkpt><trkpt lat="44.0040416" lon="8.0917853"><ele>80.0</ele><time>2026-04-19T07:24:29.844Z</time></trkpt><trkpt lat="44.0040374" lon="8.0916085"><ele>80.0</ele><time>2026-04-19T07:24:30.845Z</time></trkpt><trkpt lat="44.0040321" lon="8.0914313"><ele>80.0</ele><time>2026-04-19T07:24:31.843Z</time></trkpt><trkpt lat="44.0040697" lon="8.0912501"><ele>80.0</ele><time>2026-04-19T07:24:32.844Z</time></trkpt><trkpt lat="44.00412" lon="8.0910638"><ele>80.0</ele><time>2026-04-19T07:24:33.845Z</time></trkpt><trkpt lat="44.0041667" lon="8.0908782"><ele>81.5</ele><time>2026-04-19T07:24:34.844Z</time></trkpt><trkpt lat="44.004196" lon="8.0906784"><ele>83.0</ele><time>2026-04-19T07:24:35.844Z</time></trkpt><trkpt lat="44.0042374" lon="8.0904742"><ele>84.5</ele><time>2026-04-19T07:24:36.844Z</time></trkpt><trkpt lat="44.0042866" lon="8.0902773"><ele>86.0</ele><time>2026-04-19T07:24:37.844Z</time></trkpt><trkpt lat="44.004334" lon="8.0900811"><ele>86.0</ele><time>2026-04-19T07:24:38.844Z</time></trkpt><trkpt lat="44.0043736" lon="8.0898815"><ele>86.0</ele><time>2026-04-19T07:24:39.843Z</time></trkpt><trkpt lat="44.0044112" lon="8.0896814"><ele>86.0</ele><time>2026-04-19T07:24:40.844Z</time></trkpt><trkpt lat="44.0044437" lon="8.0894789"><ele>86.0</ele><time>2026-04-19T07:24:41.844Z</time></trkpt><trkpt lat="44.0044635" lon="8.0892663"><ele>88.0</ele><time>2026-04-19T07:24:42.843Z</time></trkpt><trkpt lat="44.0044621" lon="8.0890602"><ele>90.0</ele><time>2026-04-19T07:24:43.845Z</time></trkpt><trkpt lat="44.0044437" lon="8.0888633"><ele>92.0</ele><time>2026-04-19T07:24:44.845Z</time></trkpt><trkpt lat="44.0044105" lon="8.0886711"><ele>94.0</ele><time>2026-04-19T07:24:45.845Z</time></trkpt><trkpt lat="44.0043625" lon="8.0884806"><ele>94.0</ele><time>2026-04-19T07:24:46.844Z</time></trkpt><trkpt lat="44.0043252" lon="8.0883016"><ele>94.0</ele><time>2026-04-19T07:24:47.843Z</time></trkpt><trkpt lat="44.0042979" lon="8.0881146"><ele>94.0</ele><time>2026-04-19T07:24:48.844Z</time></trkpt><trkpt lat="44.0042416" lon="8.0879321"><ele>94.0</ele><time>2026-04-19T07:24:49.844Z</time></trkpt><trkpt lat="44.0041847" lon="8.0877567"><ele>92.75</ele><time>2026-04-19T07:24:50.844Z</time></trkpt><trkpt lat="44.0041275" lon="8.0875871"><ele>91.5</ele><time>2026-04-19T07:24:51.844Z</time></trkpt><trkpt lat="44.0040636" lon="8.0874264"><ele>90.25</ele><time>2026-04-19T07:24:52.843Z</time></trkpt><trkpt lat="44.0040002" lon="8.0872652"><ele>89.0</ele><time>2026-04-19T07:24:53.843Z</time></trkpt><trkpt lat="44.0039351" lon="8.0871019"><ele>89.0</ele><time>2026-04-19T07:24:54.845Z</time></trkpt><trkpt lat="44.0038639" lon="8.0869374"><ele>89.0</ele><time>2026-04-19T07:24:55.843Z</time></trkpt><trkpt lat="44.0037914" lon="8.0867842"><ele>89.0</ele><time>2026-04-19T07:24:56.843Z</time></trkpt><trkpt lat="44.0037288" lon="8.086631"><ele>89.0</ele><time>2026-04-19T07:24:57.845Z</time></trkpt><trkpt lat="44.0036624" lon="8.0864744"><ele>90.5</ele><time>2026-04-19T07:24:58.844Z</time></trkpt><trkpt lat="44.0035967" lon="8.0863278"><ele>92.0</ele><time>2026-04-19T07:24:59.844Z</time></trkpt><trkpt lat="44.0035283" lon="8.0861781"><ele>93.5</ele><time>2026-04-19T07:25:00.844Z</time></trkpt><trkpt lat="44.0034645" lon="8.0860302"><ele>95.0</ele><time>2026-04-19T07:25:01.844Z</time></trkpt><trkpt lat="44.0034164" lon="8.0858718"><ele>94.5</ele><time>2026-04-19T07:25:02.844Z</time></trkpt><trkpt lat="44.0033792" lon="8.0857055"><ele>94.0</ele><time>2026-04-19T07:25:03.844Z</time></trkpt><trkpt lat="44.0033759" lon="8.0855255"><ele>93.5</ele><time>2026-04-19T07:25:04.844Z</time></trkpt><trkpt lat="44.003392" lon="8.0853555"><ele>93.0</ele><time>2026-04-19T07:25:05.843Z</time></trkpt><trkpt lat="44.0034262" lon="8.0851961"><ele>93.0</ele><time>2026-04-19T07:25:06.844Z</time></trkpt><trkpt lat="44.0034675" lon="8.085043"><ele>93.0</ele><time>2026-04-19T07:25:07.844Z</time></trkpt><trkpt lat="44.0035424" lon="8.0849086"><ele>93.0</ele><time>2026-04-19T07:25:08.845Z</time></trkpt><trkpt lat="44.0036232" lon="8.0847712"><ele>93.0</ele><time>2026-04-19T07:25:09.845Z</time></trkpt><trkpt lat="44.0037027" lon="8.0846247"><ele>93.0</ele><time>2026-04-19T07:25:10.845Z</time></trkpt><trkpt lat="44.0037828" lon="8.0844831"><ele>93.0</ele><time>2026-04-19T07:25:11.844Z</time></trkpt><trkpt lat="44.0038456" lon="8.0843284"><ele>93.0</ele><time>2026-04-19T07:25:12.845Z</time></trkpt><trkpt lat="44.0038902" lon="8.0841745"><ele>93.0</ele><time>2026-04-19T07:25:13.845Z</time></trkpt><trkpt lat="44.0039235" lon="8.0840196"><ele>92.5</ele><time>2026-04-19T07:25:14.845Z</time></trkpt><trkpt lat="44.0039516" lon="8.0838625"><ele>92.0</ele><time>2026-04-19T07:25:15.845Z</time></trkpt><trkpt lat="44.0039799" lon="8.0837071"><ele>91.5</ele><time>2026-04-19T07:25:16.844Z</time></trkpt><trkpt lat="44.0040074" lon="8.0835506"><ele>91.0</ele><time>2026-04-19T07:25:17.844Z</time></trkpt><trkpt lat="44.0040143" lon="8.0833923"><ele>91.5</ele><time>2026-04-19T07:25:18.843Z</time></trkpt><trkpt lat="44.0040093" lon="8.0832417"><ele>92.0</ele><time>2026-04-19T07:25:19.844Z</time></trkpt><trkpt lat="44.0039853" lon="8.083086"><ele>92.5</ele><time>2026-04-19T07:25:20.843Z</time></trkpt><trkpt lat="44.0039564" lon="8.0829322"><ele>93.0</ele><time>2026-04-19T07:25:21.843Z</time></trkpt><trkpt lat="44.0039169" lon="8.0827795"><ele>93.0</ele><time>2026-04-19T07:25:22.845Z</time></trkpt><trkpt lat="44.0038803" lon="8.0826347"><ele>93.0</ele><time>2026-04-19T07:25:23.845Z</time></trkpt><trkpt lat="44.0038294" lon="8.0824844"><ele>93.0</ele><time>2026-04-19T07:25:24.845Z</time></trkpt><trkpt lat="44.0037698" lon="8.0823402"><ele>93.0</ele><time>2026-04-19T07:25:25.844Z</time></trkpt><trkpt lat="44.0037168" lon="8.0821926"><ele>93.2</ele><time>2026-04-19T07:25:26.843Z</time></trkpt><trkpt lat="44.0036623" lon="8.0820532"><ele>93.4</ele><time>2026-04-19T07:25:27.843Z</time></trkpt><trkpt lat="44.0036071" lon="8.0819217"><ele>93.60000000000001</ele><time>2026-04-19T07:25:28.844Z</time></trkpt><trkpt lat="44.0035496" lon="8.0817885"><ele>93.80000000000001</ele><time>2026-04-19T07:25:29.844Z</time></trkpt><trkpt lat="44.0034798" lon="8.0816822"><ele>94.0</ele><time>2026-04-19T07:25:30.844Z</time></trkpt><trkpt lat="44.003423" lon="8.0815667"><ele>94.4</ele><time>2026-04-19T07:25:31.843Z</time></trkpt><trkpt lat="44.0033627" lon="8.0814456"><ele>94.80000000000001</ele><time>2026-04-19T07:25:32.844Z</time></trkpt><trkpt lat="44.0032944" lon="8.0813323"><ele>95.19999999999999</ele><time>2026-04-19T07:25:33.844Z</time></trkpt><trkpt lat="44.0032269" lon="8.0812084"><ele>95.6</ele><time>2026-04-19T07:25:34.844Z</time></trkpt><trkpt lat="44.0031587" lon="8.0810802"><ele>96.0</ele><time>2026-04-19T07:25:35.844Z</time></trkpt><trkpt lat="44.0030892" lon="8.080954"><ele>96.0</ele><time>2026-04-19T07:25:36.844Z</time></trkpt><trkpt lat="44.0030213" lon="8.0808204"><ele>96.0</ele><time>2026-04-19T07:25:37.844Z</time></trkpt><trkpt lat="44.0029516" lon="8.0807001"><ele>96.0</ele><time>2026-04-19T07:25:38.844Z</time></trkpt><trkpt lat="44.0028828" lon="8.0805773"><ele>96.0</ele><time>2026-04-19T07:25:39.844Z</time></trkpt><trkpt lat="44.0028174" lon="8.0804556"><ele>96.75</ele><time>2026-04-19T07:25:40.844Z</time></trkpt><trkpt lat="44.0027531" lon="8.0803302"><ele>97.5</ele><time>2026-04-19T07:25:41.845Z</time></trkpt><trkpt lat="44.0026887" lon="8.0801976"><ele>98.25</ele><time>2026-04-19T07:25:42.845Z</time></trkpt><trkpt lat="44.0026286" lon="8.0800599"><ele>99.0</ele><time>2026-04-19T07:25:43.844Z</time></trkpt><trkpt lat="44.0025965" lon="8.079913"><ele>98.75</ele><time>2026-04-19T07:25:44.846Z</time></trkpt><trkpt lat="44.0025699" lon="8.0797617"><ele>98.5</ele><time>2026-04-19T07:25:45.844Z</time></trkpt><trkpt lat="44.002527" lon="8.0796146"><ele>98.25</ele><time>2026-04-19T07:25:46.843Z</time></trkpt><trkpt lat="44.0024898" lon="8.0794652"><ele>98.0</ele><time>2026-04-19T07:25:47.845Z</time></trkpt><trkpt lat="44.0024575" lon="8.0793171"><ele>98.0</ele><time>2026-04-19T07:25:48.845Z</time></trkpt><trkpt lat="44.00243" lon="8.0791634"><ele>98.0</ele><time>2026-04-19T07:25:49.845Z</time></trkpt><trkpt lat="44.0024006" lon="8.079008"><ele>98.0</ele><time>2026-04-19T07:25:50.844Z</time></trkpt><trkpt lat="44.0023672" lon="8.0788502"><ele>98.0</ele><time>2026-04-19T07:25:51.844Z</time></trkpt><trkpt lat="44.0023446" lon="8.0786912"><ele>98.5</ele><time>2026-04-19T07:25:52.843Z</time></trkpt><trkpt lat="44.0023113" lon="8.0785288"><ele>99.0</ele><time>2026-04-19T07:25:53.844Z</time></trkpt><trkpt lat="44.002283" lon="8.0783687"><ele>99.5</ele><time>2026-04-19T07:25:54.844Z</time></trkpt><trkpt lat="44.0022534" lon="8.0782181"><ele>100.0</ele><time>2026-04-19T07:25:55.844Z</time></trkpt><trkpt lat="44.0022324" lon="8.0780598"><ele>100.6</ele><time>2026-04-19T07:25:56.844Z</time></trkpt><trkpt lat="44.002207" lon="8.0779048"><ele>101.2</ele><time>2026-04-19T07:25:57.845Z</time></trkpt><trkpt lat="44.0021775" lon="8.0777547"><ele>101.80000000000001</ele><time>2026-04-19T07:25:58.845Z</time></trkpt><trkpt lat="44.0021526" lon="8.0776083"><ele>102.4</ele><time>2026-04-19T07:25:59.844Z</time></trkpt><trkpt lat="44.0021245" lon="8.0774579"><ele>103.0</ele><time>2026-04-19T07:26:00.844Z</time></trkpt><trkpt lat="44.0020995" lon="8.0773077"><ele>103.80000000000001</ele><time>2026-04-19T07:26:01.844Z</time></trkpt><trkpt lat="44.0020718" lon="8.0771607"><ele>104.6</ele><time>2026-04-19T07:26:02.844Z</time></trkpt><trkpt lat="44.0020456" lon="8.0770205"><ele>105.39999999999999</ele><time>2026-04-19T07:26:03.843Z</time></trkpt><trkpt lat="44.0020196" lon="8.0768668"><ele>106.19999999999999</ele><time>2026-04-19T07:26:04.845Z</time></trkpt><trkpt lat="44.0019904" lon="8.0767151"><ele>107.0</ele><time>2026-04-19T07:26:05.844Z</time></trkpt><trkpt lat="44.0019627" lon="8.076569"><ele>107.19999999999999</ele><time>2026-04-19T07:26:06.845Z</time></trkpt><trkpt lat="44.0019308" lon="8.0764246"><ele>107.39999999999999</ele><time>2026-04-19T07:26:07.844Z</time></trkpt><trkpt lat="44.0018898" lon="8.0762826"><ele>107.60000000000001</ele><time>2026-04-19T07:26:08.845Z</time></trkpt><trkpt lat="44.0018626" lon="8.0761337"><ele>107.80000000000001</ele><time>2026-04-19T07:26:09.844Z</time></trkpt><trkpt lat="44.0018321" lon="8.0759855"><ele>108.0</ele><time>2026-04-19T07:26:10.844Z</time></trkpt><trkpt lat="44.0018075" lon="8.0758432"><ele>108.80000000000001</ele><time>2026-04-19T07:26:11.844Z</time></trkpt><trkpt lat="44.0017798" lon="8.075698"><ele>109.60000000000001</ele><time>2026-04-19T07:26:12.844Z</time></trkpt><trkpt lat="44.0017541" lon="8.0755373"><ele>110.39999999999999</ele><time>2026-04-19T07:26:13.844Z</time></trkpt><trkpt lat="44.0017262" lon="8.0753841"><ele>111.19999999999999</ele><time>2026-04-19T07:26:14.844Z</time></trkpt><trkpt lat="44.0017026" lon="8.0752425"><ele>112.0</ele><time>2026-04-19T07:26:15.844Z</time></trkpt><trkpt lat="44.0016892" lon="8.0750925"><ele>112.0</ele><time>2026-04-19T07:26:16.844Z</time></trkpt><trkpt lat="44.0016726" lon="8.0749445"><ele>111.99999999999999</ele><time>2026-04-19T07:26:17.844Z</time></trkpt><trkpt lat="44.0016664" lon="8.074791"><ele>111.99999999999999</ele><time>2026-04-19T07:26:18.844Z</time></trkpt><trkpt lat="44.0016598" lon="8.0746404"><ele>112.0</ele><time>2026-04-19T07:26:19.844Z</time></trkpt><trkpt lat="44.0016461" lon="8.0744872"><ele>112.0</ele><time>2026-04-19T07:26:20.844Z</time></trkpt><trkpt lat="44.0016375" lon="8.0743379"><ele>110.8</ele><time>2026-04-19T07:26:21.845Z</time></trkpt><trkpt lat="44.0016323" lon="8.0741945"><ele>109.6</ele><time>2026-04-19T07:26:22.844Z</time></trkpt><trkpt lat="44.0016306" lon="8.0740531"><ele>108.39999999999999</ele><time>2026-04-19T07:26:23.844Z</time></trkpt><trkpt lat="44.0016332" lon="8.0739134"><ele>107.19999999999999</ele><time>2026-04-19T07:26:24.844Z</time></trkpt><trkpt lat="44.0016328" lon="8.0737674"><ele>106.0</ele><time>2026-04-19T07:26:25.844Z</time></trkpt><trkpt lat="44.0016269" lon="8.0736205"><ele>106.0</ele><time>2026-04-19T07:26:26.843Z</time></trkpt><trkpt lat="44.0016226" lon="8.0734708"><ele>106.0</ele><time>2026-04-19T07:26:27.844Z</time></trkpt><trkpt lat="44.0016176" lon="8.0733195"><ele>106.0</ele><time>2026-04-19T07:26:28.844Z</time></trkpt><trkpt lat="44.0016134" lon="8.0731685"><ele>106.0</ele><time>2026-04-19T07:26:29.844Z</time></trkpt><trkpt lat="44.0015996" lon="8.0730191"><ele>106.0</ele><time>2026-04-19T07:26:30.844Z</time></trkpt><trkpt lat="44.0015962" lon="8.0728691"><ele>106.75</ele><time>2026-04-19T07:26:31.844Z</time></trkpt><trkpt lat="44.0015828" lon="8.0727092"><ele>107.5</ele><time>2026-04-19T07:26:32.845Z</time></trkpt><trkpt lat="44.0015781" lon="8.0725526"><ele>108.25</ele><time>2026-04-19T07:26:33.846Z</time></trkpt><trkpt lat="44.0015764" lon="8.0723973"><ele>109.0</ele><time>2026-04-19T07:26:34.844Z</time></trkpt><trkpt lat="44.0015708" lon="8.0722394"><ele>109.5</ele><time>2026-04-19T07:26:35.845Z</time></trkpt><trkpt lat="44.0015584" lon="8.0720799"><ele>110.0</ele><time>2026-04-19T07:26:36.844Z</time></trkpt><trkpt lat="44.0015532" lon="8.0719224"><ele>110.5</ele><time>2026-04-19T07:26:37.845Z</time></trkpt><trkpt lat="44.0015445" lon="8.071759"><ele>111.0</ele><time>2026-04-19T07:26:38.843Z</time></trkpt><trkpt lat="44.0015365" lon="8.0716043"><ele>111.0</ele><time>2026-04-19T07:26:39.844Z</time></trkpt><trkpt lat="44.0015288" lon="8.0714461"><ele>111.0</ele><time>2026-04-19T07:26:40.844Z</time></trkpt><trkpt lat="44.0015177" lon="8.0712888"><ele>111.0</ele><time>2026-04-19T07:26:41.844Z</time></trkpt><trkpt lat="44.0015118" lon="8.0711284"><ele>111.0</ele><time>2026-04-19T07:26:42.844Z</time></trkpt><trkpt lat="44.0015004" lon="8.0709665"><ele>111.0</ele><time>2026-04-19T07:26:43.845Z</time></trkpt><trkpt lat="44.0014857" lon="8.0708024"><ele>111.0</ele><time>2026-04-19T07:26:44.844Z</time></trkpt><trkpt lat="44.0014627" lon="8.0706409"><ele>111.0</ele><time>2026-04-19T07:26:45.845Z</time></trkpt><trkpt lat="44.0014307" lon="8.0704816"><ele>111.0</ele><time>2026-04-19T07:26:46.844Z</time></trkpt><trkpt lat="44.0013944" lon="8.0703211"><ele>111.5</ele><time>2026-04-19T07:26:47.844Z</time></trkpt><trkpt lat="44.0013473" lon="8.0701621"><ele>112.0</ele><time>2026-04-19T07:26:48.844Z</time></trkpt><trkpt lat="44.0013006" lon="8.0700085"><ele>112.5</ele><time>2026-04-19T07:26:49.845Z</time></trkpt><trkpt lat="44.0012445" lon="8.0698469"><ele>113.0</ele><time>2026-04-19T07:26:50.845Z</time></trkpt><trkpt lat="44.0011928" lon="8.0696866"><ele>113.75</ele><time>2026-04-19T07:26:51.846Z</time></trkpt><trkpt lat="44.0011438" lon="8.0695338"><ele>114.5</ele><time>2026-04-19T07:26:52.844Z</time></trkpt><trkpt lat="44.0010901" lon="8.0693837"><ele>115.25</ele><time>2026-04-19T07:26:53.844Z</time></trkpt><trkpt lat="44.0010428" lon="8.069232"><ele>116.0</ele><time>2026-04-19T07:26:54.844Z</time></trkpt><trkpt lat="44.0010042" lon="8.0690727"><ele>117.25</ele><time>2026-04-19T07:26:55.844Z</time></trkpt><trkpt lat="44.000972" lon="8.0689104"><ele>118.5</ele><time>2026-04-19T07:26:56.844Z</time></trkpt><trkpt lat="44.0009547" lon="8.0687427"><ele>119.75</ele><time>2026-04-19T07:26:57.845Z</time></trkpt><trkpt lat="44.0009418" lon="8.0685775"><ele>121.0</ele><time>2026-04-19T07:26:58.845Z</time></trkpt><trkpt lat="44.0009347" lon="8.0684095"><ele>121.75</ele><time>2026-04-19T07:26:59.845Z</time></trkpt><trkpt lat="44.0009272" lon="8.0682468"><ele>122.5</ele><time>2026-04-19T07:27:00.844Z</time></trkpt><trkpt lat="44.0009211" lon="8.0680882"><ele>123.25</ele><time>2026-04-19T07:27:01.844Z</time></trkpt><trkpt lat="44.0009193" lon="8.0679298"><ele>124.0</ele><time>2026-04-19T07:27:02.844Z</time></trkpt><trkpt lat="44.0009251" lon="8.0677695"><ele>124.0</ele><time>2026-04-19T07:27:03.844Z</time></trkpt><trkpt lat="44.0009343" lon="8.0676122"><ele>124.0</ele><time>2026-04-19T07:27:04.844Z</time></trkpt><trkpt lat="44.0009426" lon="8.0674592"><ele>124.0</ele><time>2026-04-19T07:27:05.845Z</time></trkpt><trkpt lat="44.0009525" lon="8.0673067"><ele>124.0</ele><time>2026-04-19T07:27:06.844Z</time></trkpt><trkpt lat="44.0009656" lon="8.0671522"><ele>124.0</ele><time>2026-04-19T07:27:07.844Z</time></trkpt><trkpt lat="44.0009709" lon="8.0670014"><ele>124.2</ele><time>2026-04-19T07:27:08.846Z</time></trkpt><trkpt lat="44.0009735" lon="8.0668501"><ele>124.4</ele><time>2026-04-19T07:27:09.843Z</time></trkpt><trkpt lat="44.0009703" lon="8.0666992"><ele>124.6</ele><time>2026-04-19T07:27:10.844Z</time></trkpt><trkpt lat="44.0009636" lon="8.0665487"><ele>124.8</ele><time>2026-04-19T07:27:11.845Z</time></trkpt><trkpt lat="44.0009455" lon="8.0664041"><ele>125.0</ele><time>2026-04-19T07:27:12.843Z</time></trkpt><trkpt lat="44.0009281" lon="8.0662615"><ele>125.0</ele><time>2026-04-19T07:27:13.845Z</time></trkpt><trkpt lat="44.0009044" lon="8.0661255"><ele>125.0</ele><time>2026-04-19T07:27:14.844Z</time></trkpt><trkpt lat="44.0008829" lon="8.0659856"><ele>125.0</ele><time>2026-04-19T07:27:15.844Z</time></trkpt><trkpt lat="44.0008706" lon="8.0658553"><ele>125.0</ele><time>2026-04-19T07:27:16.845Z</time></trkpt><trkpt lat="44.0008695" lon="8.0657214"><ele>125.0</ele><time>2026-04-19T07:27:17.844Z</time></trkpt><trkpt lat="44.0008738" lon="8.0655852"><ele>126.25</ele><time>2026-04-19T07:27:18.845Z</time></trkpt><trkpt lat="44.0008868" lon="8.0654441"><ele>127.5</ele><time>2026-04-19T07:27:19.846Z</time></trkpt><trkpt lat="44.0009018" lon="8.0652888"><ele>128.75</ele><time>2026-04-19T07:27:20.846Z</time></trkpt><trkpt lat="44.0009135" lon="8.0651269"><ele>130.0</ele><time>2026-04-19T07:27:21.843Z</time></trkpt><trkpt lat="44.0009194" lon="8.0649482"><ele>131.75</ele><time>2026-04-19T07:27:22.844Z</time></trkpt><trkpt lat="44.0009248" lon="8.0647747"><ele>133.5</ele><time>2026-04-19T07:27:23.844Z</time></trkpt><trkpt lat="44.0009164" lon="8.064596"><ele>135.25</ele><time>2026-04-19T07:27:24.844Z</time></trkpt><trkpt lat="44.0008978" lon="8.0644289"><ele>137.0</ele><time>2026-04-19T07:27:25.845Z</time></trkpt><trkpt lat="44.0008709" lon="8.064269"><ele>137.0</ele><time>2026-04-19T07:27:26.845Z</time></trkpt><trkpt lat="44.0008433" lon="8.0641178"><ele>137.0</ele><time>2026-04-19T07:27:27.844Z</time></trkpt><trkpt lat="44.000815" lon="8.0639629"><ele>137.0</ele><time>2026-04-19T07:27:28.843Z</time></trkpt><trkpt lat="44.0007897" lon="8.0638152"><ele>137.0</ele><time>2026-04-19T07:27:29.845Z</time></trkpt><trkpt lat="44.0007656" lon="8.0636666"><ele>137.0</ele><time>2026-04-19T07:27:30.844Z</time></trkpt><trkpt lat="44.0007428" lon="8.063515"><ele>135.2</ele><time>2026-04-19T07:27:31.845Z</time></trkpt><trkpt lat="44.0007202" lon="8.063365"><ele>133.39999999999998</ele><time>2026-04-19T07:27:32.844Z</time></trkpt><trkpt lat="44.0006966" lon="8.0632184"><ele>131.60000000000002</ele><time>2026-04-19T07:27:33.844Z</time></trkpt><trkpt lat="44.0006739" lon="8.063079"><ele>129.8</ele><time>2026-04-19T07:27:34.844Z</time></trkpt><trkpt lat="44.0006512" lon="8.0629397"><ele>128.0</ele><time>2026-04-19T07:27:35.844Z</time></trkpt><trkpt lat="44.0006295" lon="8.0628007"><ele>128.0</ele><time>2026-04-19T07:27:36.844Z</time></trkpt><trkpt lat="44.0005997" lon="8.0626621"><ele>128.0</ele><time>2026-04-19T07:27:37.844Z</time></trkpt><trkpt lat="44.0005774" lon="8.0625283"><ele>128.0</ele><time>2026-04-19T07:27:38.844Z</time></trkpt><trkpt lat="44.0005594" lon="8.0623898"><ele>128.0</ele><time>2026-04-19T07:27:39.843Z</time></trkpt><trkpt lat="44.0005364" lon="8.0622488"><ele>128.0</ele><time>2026-04-19T07:27:40.846Z</time></trkpt><trkpt lat="44.0005168" lon="8.0621118"><ele>128.6</ele><time>2026-04-19T07:27:41.844Z</time></trkpt><trkpt lat="44.0004988" lon="8.0619737"><ele>129.20000000000002</ele><time>2026-04-19T07:27:42.845Z</time></trkpt><trkpt lat="44.000473" lon="8.0618353"><ele>129.8</ele><time>2026-04-19T07:27:43.844Z</time></trkpt><trkpt lat="44.0004494" lon="8.0616912"><ele>130.4</ele><time>2026-04-19T07:27:44.843Z</time></trkpt><trkpt lat="44.000425" lon="8.0615492"><ele>131.0</ele><time>2026-04-19T07:27:45.844Z</time></trkpt><trkpt lat="44.0004026" lon="8.0614"><ele>131.6</ele><time>2026-04-19T07:27:46.844Z</time></trkpt><trkpt lat="44.0003817" lon="8.0612626"><ele>132.2</ele><time>2026-04-19T07:27:47.844Z</time></trkpt><trkpt lat="44.0003586" lon="8.0611185"><ele>132.8</ele><time>2026-04-19T07:27:48.845Z</time></trkpt><trkpt lat="44.0003338" lon="8.0609837"><ele>133.4</ele><time>2026-04-19T07:27:49.844Z</time></trkpt><trkpt lat="44.0003055" lon="8.0608451"><ele>134.0</ele><time>2026-04-19T07:27:50.845Z</time></trkpt><trkpt lat="44.0002837" lon="8.0607041"><ele>134.2</ele><time>2026-04-19T07:27:51.844Z</time></trkpt><trkpt lat="44.0002633" lon="8.0605617"><ele>134.4</ele><time>2026-04-19T07:27:52.843Z</time></trkpt><trkpt lat="44.0002413" lon="8.0604209"><ele>134.6</ele><time>2026-04-19T07:27:53.844Z</time></trkpt><trkpt lat="44.000229" lon="8.0602792"><ele>134.8</ele><time>2026-04-19T07:27:54.844Z</time></trkpt><trkpt lat="44.0002223" lon="8.0601356"><ele>135.0</ele><time>2026-04-19T07:27:55.844Z</time></trkpt><trkpt lat="44.0002203" lon="8.0599986"><ele>135.4</ele><time>2026-04-19T07:27:56.844Z</time></trkpt><trkpt lat="44.0002198" lon="8.0598545"><ele>135.8</ele><time>2026-04-19T07:27:57.844Z</time></trkpt><trkpt lat="44.0002226" lon="8.0597151"><ele>136.2</ele><time>2026-04-19T07:27:58.844Z</time></trkpt><trkpt lat="44.000221" lon="8.0595763"><ele>136.6</ele><time>2026-04-19T07:27:59.844Z</time></trkpt><trkpt lat="44.0002187" lon="8.0594402"><ele>137.0</ele><time>2026-04-19T07:28:00.844Z</time></trkpt><trkpt lat="44.0002235" lon="8.0593022"><ele>137.0</ele><time>2026-04-19T07:28:01.844Z</time></trkpt><trkpt lat="44.0002293" lon="8.0591672"><ele>137.0</ele><time>2026-04-19T07:28:02.843Z</time></trkpt><trkpt lat="44.0002285" lon="8.0590316"><ele>137.0</ele><time>2026-04-19T07:28:03.844Z</time></trkpt><trkpt lat="44.0002294" lon="8.0588943"><ele>137.0</ele><time>2026-04-19T07:28:04.843Z</time></trkpt><trkpt lat="44.0002267" lon="8.0587582"><ele>137.0</ele><time>2026-04-19T07:28:05.845Z</time></trkpt><trkpt lat="44.0002262" lon="8.0586257"><ele>137.4</ele><time>2026-04-19T07:28:06.844Z</time></trkpt><trkpt lat="44.0002261" lon="8.0584949"><ele>137.79999999999998</ele><time>2026-04-19T07:28:07.845Z</time></trkpt><trkpt lat="44.0002237" lon="8.0583592"><ele>138.2</ele><time>2026-04-19T07:28:08.844Z</time></trkpt><trkpt lat="44.000225" lon="8.0582259"><ele>138.6</ele><time>2026-04-19T07:28:09.844Z</time></trkpt><trkpt lat="44.0002253" lon="8.0580927"><ele>139.0</ele><time>2026-04-19T07:28:10.844Z</time></trkpt><trkpt lat="44.0002199" lon="8.057971"><ele>139.28571428571428</ele><time>2026-04-19T07:28:11.844Z</time></trkpt><trkpt lat="44.000218" lon="8.0578535"><ele>139.57142857142858</ele><time>2026-04-19T07:28:12.844Z</time></trkpt><trkpt lat="44.0002084" lon="8.0577363"><ele>139.85714285714286</ele><time>2026-04-19T07:28:13.845Z</time></trkpt><trkpt lat="44.0002046" lon="8.0576434"><ele>140.14285714285714</ele><time>2026-04-19T07:28:14.844Z</time></trkpt><trkpt lat="44.0002134" lon="8.0575459"><ele>140.42857142857142</ele><time>2026-04-19T07:28:15.844Z</time></trkpt><trkpt lat="44.0002215" lon="8.0574482"><ele>140.71428571428572</ele><time>2026-04-19T07:28:16.845Z</time></trkpt><trkpt lat="44.0002329" lon="8.0573596"><ele>141.0</ele><time>2026-04-19T07:28:17.844Z</time></trkpt><trkpt lat="44.0002272" lon="8.0572063"><ele>141.66666666666666</ele><time>2026-04-19T07:28:19.844Z</time></trkpt><trkpt lat="44.0001398" lon="8.0571021"><ele>142.33333333333334</ele><time>2026-04-19T07:28:21.843Z</time></trkpt><trkpt lat="44.0000827" lon="8.0570568"><ele>143.0</ele><time>2026-04-19T07:28:22.844Z</time></trkpt><trkpt lat="44.0000134" lon="8.0570018"><ele>143.66666666666669</ele><time>2026-04-19T07:28:23.844Z</time></trkpt><trkpt lat="43.9999492" lon="8.0569504"><ele>144.33333333333334</ele><time>2026-04-19T07:28:24.844Z</time></trkpt><trkpt lat="43.9998718" lon="8.0569032"><ele>145.0</ele><time>2026-04-19T07:28:25.844Z</time></trkpt><trkpt lat="43.9997951" lon="8.0568533"><ele>145.0</ele><time>2026-04-19T07:28:26.844Z</time></trkpt><trkpt lat="43.9997272" lon="8.0568071"><ele>145.0</ele><time>2026-04-19T07:28:27.845Z</time></trkpt><trkpt lat="43.9996661" lon="8.0567691"><ele>145.0</ele><time>2026-04-19T07:28:28.845Z</time></trkpt><trkpt lat="43.9996103" lon="8.056727"><ele>145.0</ele><time>2026-04-19T07:28:29.844Z</time></trkpt><trkpt lat="43.9995539" lon="8.0566748"><ele>145.0</ele><time>2026-04-19T07:28:30.844Z</time></trkpt><trkpt lat="43.9995065" lon="8.0566172"><ele>145.0</ele><time>2026-04-19T07:28:31.844Z</time></trkpt><trkpt lat="43.9994669" lon="8.0565341"><ele>145.0</ele><time>2026-04-19T07:28:32.844Z</time></trkpt><trkpt lat="43.9994419" lon="8.0564373"><ele>145.0</ele><time>2026-04-19T07:28:33.844Z</time></trkpt><trkpt lat="43.999429" lon="8.0563263"><ele>145.0</ele><time>2026-04-19T07:28:34.844Z</time></trkpt><trkpt lat="43.9994227" lon="8.0562029"><ele>145.0</ele><time>2026-04-19T07:28:35.844Z</time></trkpt><trkpt lat="43.9994205" lon="8.0560777"><ele>145.0</ele><time>2026-04-19T07:28:36.843Z</time></trkpt><trkpt lat="43.9994227" lon="8.0559425"><ele>145.0</ele><time>2026-04-19T07:28:37.844Z</time></trkpt><trkpt lat="43.9994186" lon="8.0558021"><ele>145.2</ele><time>2026-04-19T07:28:38.844Z</time></trkpt><trkpt lat="43.9994016" lon="8.0556582"><ele>145.4</ele><time>2026-04-19T07:28:39.846Z</time></trkpt><trkpt lat="43.9993773" lon="8.0555117"><ele>145.6</ele><time>2026-04-19T07:28:40.845Z</time></trkpt><trkpt lat="43.9993511" lon="8.0553723"><ele>145.8</ele><time>2026-04-19T07:28:41.844Z</time></trkpt><trkpt lat="43.9993228" lon="8.0552258"><ele>146.0</ele><time>2026-04-19T07:28:42.845Z</time></trkpt><trkpt lat="43.9992841" lon="8.0550708"><ele>145.5</ele><time>2026-04-19T07:28:43.843Z</time></trkpt><trkpt lat="43.9992451" lon="8.054917"><ele>145.0</ele><time>2026-04-19T07:28:44.844Z</time></trkpt><trkpt lat="43.9992183" lon="8.0547596"><ele>144.5</ele><time>2026-04-19T07:28:45.843Z</time></trkpt><trkpt lat="43.9991935" lon="8.0546063"><ele>144.0</ele><time>2026-04-19T07:28:46.845Z</time></trkpt><trkpt lat="43.9991677" lon="8.05445"><ele>147.75</ele><time>2026-04-19T07:28:47.844Z</time></trkpt><trkpt lat="43.9991458" lon="8.0542871"><ele>151.5</ele><time>2026-04-19T07:28:48.845Z</time></trkpt><trkpt lat="43.9991274" lon="8.0541291"><ele>155.25</ele><time>2026-04-19T07:28:49.844Z</time></trkpt><trkpt lat="43.9991103" lon="8.0539665"><ele>159.0</ele><time>2026-04-19T07:28:50.844Z</time></trkpt><trkpt lat="43.999097" lon="8.0538098"><ele>159.25</ele><time>2026-04-19T07:28:51.844Z</time></trkpt><trkpt lat="43.9990829" lon="8.0536472"><ele>159.5</ele><time>2026-04-19T07:28:52.844Z</time></trkpt><trkpt lat="43.9990655" lon="8.0534867"><ele>159.75</ele><time>2026-04-19T07:28:53.845Z</time></trkpt><trkpt lat="43.9990499" lon="8.053324"><ele>160.0</ele><time>2026-04-19T07:28:54.844Z</time></trkpt><trkpt lat="43.9990365" lon="8.0531586"><ele>160.0</ele><time>2026-04-19T07:28:55.844Z</time></trkpt><trkpt lat="43.9990236" lon="8.0529923"><ele>160.0</ele><time>2026-04-19T07:28:56.844Z</time></trkpt><trkpt lat="43.9990064" lon="8.0528257"><ele>160.0</ele><time>2026-04-19T07:28:57.844Z</time></trkpt><trkpt lat="43.9989898" lon="8.0526606"><ele>160.0</ele><time>2026-04-19T07:28:58.844Z</time></trkpt><trkpt lat="43.9989731" lon="8.0524998"><ele>160.25</ele><time>2026-04-19T07:28:59.844Z</time></trkpt><trkpt lat="43.998958" lon="8.0523398"><ele>160.5</ele><time>2026-04-19T07:29:00.844Z</time></trkpt><trkpt lat="43.9989436" lon="8.0521784"><ele>160.75</ele><time>2026-04-19T07:29:01.845Z</time></trkpt><trkpt lat="43.9989266" lon="8.0520165"><ele>161.0</ele><time>2026-04-19T07:29:02.844Z</time></trkpt><trkpt lat="43.9989109" lon="8.0518548"><ele>161.0</ele><time>2026-04-19T07:29:03.844Z</time></trkpt><trkpt lat="43.9989003" lon="8.0517029"><ele>161.0</ele><time>2026-04-19T07:29:04.844Z</time></trkpt><trkpt lat="43.9988665" lon="8.0515532"><ele>161.0</ele><time>2026-04-19T07:29:05.845Z</time></trkpt><trkpt lat="43.9988318" lon="8.051407"><ele>161.0</ele><time>2026-04-19T07:29:06.844Z</time></trkpt><trkpt lat="43.9987854" lon="8.0512667"><ele>161.0</ele><time>2026-04-19T07:29:07.844Z</time></trkpt><trkpt lat="43.9987421" lon="8.0511293"><ele>161.0</ele><time>2026-04-19T07:29:08.844Z</time></trkpt><trkpt lat="43.9986941" lon="8.050999"><ele>161.0</ele><time>2026-04-19T07:29:09.844Z</time></trkpt><trkpt lat="43.9986428" lon="8.0508695"><ele>161.0</ele><time>2026-04-19T07:29:10.843Z</time></trkpt><trkpt lat="43.998595" lon="8.0507479"><ele>161.0</ele><time>2026-04-19T07:29:11.844Z</time></trkpt><trkpt lat="43.998548" lon="8.0506344"><ele>161.0</ele><time>2026-04-19T07:29:12.843Z</time></trkpt><trkpt lat="43.9985104" lon="8.0505354"><ele>162.85714285714286</ele><time>2026-04-19T07:29:13.844Z</time></trkpt><trkpt lat="43.9985039" lon="8.0504414"><ele>164.71428571428572</ele><time>2026-04-19T07:29:14.844Z</time></trkpt><trkpt lat="43.998527" lon="8.0503539"><ele>166.57142857142856</ele><time>2026-04-19T07:29:15.844Z</time></trkpt><trkpt lat="43.9985719" lon="8.0502821"><ele>168.42857142857144</ele><time>2026-04-19T07:29:16.844Z</time></trkpt><trkpt lat="43.9986224" lon="8.0502262"><ele>170.28571428571428</ele><time>2026-04-19T07:29:17.844Z</time></trkpt><trkpt lat="43.9986829" lon="8.0501905"><ele>172.14285714285714</ele><time>2026-04-19T07:29:18.845Z</time></trkpt><trkpt lat="43.9987628" lon="8.0501779"><ele>174.0</ele><time>2026-04-19T07:29:19.844Z</time></trkpt><trkpt lat="43.9988402" lon="8.0501543"><ele>174.0</ele><time>2026-04-19T07:29:20.845Z</time></trkpt><trkpt lat="43.9989174" lon="8.0501021"><ele>174.0</ele><time>2026-04-19T07:29:21.845Z</time></trkpt><trkpt lat="43.9989842" lon="8.0500151"><ele>174.0</ele><time>2026-04-19T07:29:22.844Z</time></trkpt><trkpt lat="43.9990427" lon="8.0499127"><ele>174.0</ele><time>2026-04-19T07:29:23.844Z</time></trkpt><trkpt lat="43.9990802" lon="8.0497945"><ele>174.0</ele><time>2026-04-19T07:29:24.844Z</time></trkpt><trkpt lat="43.9991031" lon="8.049674"><ele>174.2</ele><time>2026-04-19T07:29:25.844Z</time></trkpt><trkpt lat="43.9991263" lon="8.0495351"><ele>174.39999999999998</ele><time>2026-04-19T07:29:26.844Z</time></trkpt><trkpt lat="43.9991466" lon="8.0493918"><ele>174.6</ele><time>2026-04-19T07:29:27.844Z</time></trkpt><trkpt lat="43.9991682" lon="8.0492591"><ele>174.8</ele><time>2026-04-19T07:29:28.845Z</time></trkpt><trkpt lat="43.9991929" lon="8.049122"><ele>175.0</ele><time>2026-04-19T07:29:29.845Z</time></trkpt><trkpt lat="43.9992333" lon="8.0489853"><ele>176.0</ele><time>2026-04-19T07:29:30.844Z</time></trkpt><trkpt lat="43.9992761" lon="8.0488408"><ele>177.0</ele><time>2026-04-19T07:29:31.844Z</time></trkpt><trkpt lat="43.9993205" lon="8.0487001"><ele>178.0</ele><time>2026-04-19T07:29:32.844Z</time></trkpt><trkpt lat="43.9993656" lon="8.0485607"><ele>179.0</ele><time>2026-04-19T07:29:33.844Z</time></trkpt><trkpt lat="43.999416" lon="8.0484182"><ele>180.0</ele><time>2026-04-19T07:29:34.844Z</time></trkpt><trkpt lat="43.9994672" lon="8.0482756"><ele>182.75</ele><time>2026-04-19T07:29:35.844Z</time></trkpt><trkpt lat="43.9995305" lon="8.0481367"><ele>185.5</ele><time>2026-04-19T07:29:36.844Z</time></trkpt><trkpt lat="43.9996111" lon="8.0480218"><ele>188.25</ele><time>2026-04-19T07:29:37.845Z</time></trkpt><trkpt lat="43.9996948" lon="8.0479113"><ele>191.0</ele><time>2026-04-19T07:29:38.844Z</time></trkpt><trkpt lat="43.9997826" lon="8.0477994"><ele>191.0</ele><time>2026-04-19T07:29:39.845Z</time></trkpt><trkpt lat="43.9998656" lon="8.0476763"><ele>191.0</ele><time>2026-04-19T07:29:40.844Z</time></trkpt><trkpt lat="43.9999421" lon="8.0475397"><ele>191.0</ele><time>2026-04-19T07:29:41.844Z</time></trkpt><trkpt lat="44.0000122" lon="8.0473897"><ele>191.0</ele><time>2026-04-19T07:29:42.844Z</time></trkpt><trkpt lat="44.0000649" lon="8.047237"><ele>193.0</ele><time>2026-04-19T07:29:43.844Z</time></trkpt><trkpt lat="44.0001153" lon="8.04708"><ele>195.0</ele><time>2026-04-19T07:29:44.843Z</time></trkpt><trkpt lat="44.0001573" lon="8.0469318"><ele>197.0</ele><time>2026-04-19T07:29:45.843Z</time></trkpt><trkpt lat="44.0001722" lon="8.0467793"><ele>199.0</ele><time>2026-04-19T07:29:46.843Z</time></trkpt><trkpt lat="44.0001576" lon="8.0466224"><ele>199.0</ele><time>2026-04-19T07:29:47.845Z</time></trkpt><trkpt lat="44.0001329" lon="8.0464684"><ele>199.0</ele><time>2026-04-19T07:29:48.845Z</time></trkpt><trkpt lat="44.0000898" lon="8.046321"><ele>199.0</ele><time>2026-04-19T07:29:49.844Z</time></trkpt><trkpt lat="44.0000364" lon="8.0461808"><ele>199.0</ele><time>2026-04-19T07:29:50.843Z</time></trkpt><trkpt lat="43.9999717" lon="8.0460462"><ele>199.0</ele><time>2026-04-19T07:29:51.844Z</time></trkpt><trkpt lat="43.9999052" lon="8.0459197"><ele>199.0</ele><time>2026-04-19T07:29:52.844Z</time></trkpt><trkpt lat="43.9998488" lon="8.0457892"><ele>199.0</ele><time>2026-04-19T07:29:53.844Z</time></trkpt><trkpt lat="43.9997976" lon="8.0456473"><ele>199.0</ele><time>2026-04-19T07:29:54.845Z</time></trkpt><trkpt lat="43.9998096" lon="8.0455116"><ele>199.0</ele><time>2026-04-19T07:29:55.844Z</time></trkpt><trkpt lat="43.9998268" lon="8.0453503"><ele>199.39999999999998</ele><time>2026-04-19T07:29:56.844Z</time></trkpt><trkpt lat="43.9998341" lon="8.0451988"><ele>199.8</ele><time>2026-04-19T07:29:57.845Z</time></trkpt><trkpt lat="43.9998464" lon="8.0450472"><ele>200.2</ele><time>2026-04-19T07:29:58.845Z</time></trkpt><trkpt lat="43.9998496" lon="8.0449021"><ele>200.60000000000002</ele><time>2026-04-19T07:29:59.844Z</time></trkpt><trkpt lat="43.9998451" lon="8.0447471"><ele>201.0</ele><time>2026-04-19T07:30:00.844Z</time></trkpt><trkpt lat="43.9998186" lon="8.044606"><ele>201.0</ele><time>2026-04-19T07:30:01.844Z</time></trkpt><trkpt lat="43.9997742" lon="8.0444737"><ele>201.0</ele><time>2026-04-19T07:30:02.845Z</time></trkpt><trkpt lat="43.9997144" lon="8.0443637"><ele>201.0</ele><time>2026-04-19T07:30:03.844Z</time></trkpt><trkpt lat="43.9996405" lon="8.0442568"><ele>201.0</ele><time>2026-04-19T07:30:04.844Z</time></trkpt><trkpt lat="43.9995857" lon="8.044151"><ele>201.0</ele><time>2026-04-19T07:30:05.844Z</time></trkpt><trkpt lat="43.9995395" lon="8.0440266"><ele>200.60000000000002</ele><time>2026-04-19T07:30:06.845Z</time></trkpt><trkpt lat="43.9995138" lon="8.0438944"><ele>200.2</ele><time>2026-04-19T07:30:07.843Z</time></trkpt><trkpt lat="43.9995037" lon="8.0437602"><ele>199.8</ele><time>2026-04-19T07:30:08.845Z</time></trkpt><trkpt lat="43.9994854" lon="8.0436056"><ele>199.39999999999998</ele><time>2026-04-19T07:30:09.843Z</time></trkpt><trkpt lat="43.9995032" lon="8.0434461"><ele>199.0</ele><time>2026-04-19T07:30:10.844Z</time></trkpt><trkpt lat="43.9995143" lon="8.0432898"><ele>200.0</ele><time>2026-04-19T07:30:11.844Z</time></trkpt><trkpt lat="43.9995318" lon="8.043132"><ele>201.0</ele><time>2026-04-19T07:30:12.845Z</time></trkpt><trkpt lat="43.9995549" lon="8.0429792"><ele>202.0</ele><time>2026-04-19T07:30:13.844Z</time></trkpt><trkpt lat="43.9995829" lon="8.0428164"><ele>203.0</ele><time>2026-04-19T07:30:14.844Z</time></trkpt><trkpt lat="43.9996177" lon="8.042657"><ele>203.0</ele><time>2026-04-19T07:30:15.843Z</time></trkpt><trkpt lat="43.9996392" lon="8.0425004"><ele>203.0</ele><time>2026-04-19T07:30:16.843Z</time></trkpt><trkpt lat="43.999638" lon="8.042347"><ele>203.0</ele><time>2026-04-19T07:30:17.845Z</time></trkpt><trkpt lat="43.9996163" lon="8.0421891"><ele>203.0</ele><time>2026-04-19T07:30:18.844Z</time></trkpt><trkpt lat="43.9995599" lon="8.0420434"><ele>203.25</ele><time>2026-04-19T07:30:19.845Z</time></trkpt><trkpt lat="43.9994759" lon="8.0419083"><ele>203.5</ele><time>2026-04-19T07:30:20.845Z</time></trkpt><trkpt lat="43.9993778" lon="8.0417846"><ele>203.75</ele><time>2026-04-19T07:30:21.844Z</time></trkpt><trkpt lat="43.9992587" lon="8.0416773"><ele>204.0</ele><time>2026-04-19T07:30:22.844Z</time></trkpt><trkpt lat="43.9991476" lon="8.041622"><ele>204.0</ele><time>2026-04-19T07:30:23.844Z</time></trkpt><trkpt lat="43.9990392" lon="8.0415807"><ele>204.0</ele><time>2026-04-19T07:30:24.844Z</time></trkpt><trkpt lat="43.9989495" lon="8.0415826"><ele>204.0</ele><time>2026-04-19T07:30:25.845Z</time></trkpt><trkpt lat="43.99887" lon="8.0416423"><ele>204.0</ele><time>2026-04-19T07:30:26.845Z</time></trkpt><trkpt lat="43.9988163" lon="8.0417308"><ele>204.0</ele><time>2026-04-19T07:30:27.844Z</time></trkpt><trkpt lat="43.998756" lon="8.0418256"><ele>206.2</ele><time>2026-04-19T07:30:28.844Z</time></trkpt><trkpt lat="43.9986935" lon="8.0419051"><ele>208.39999999999998</ele><time>2026-04-19T07:30:29.843Z</time></trkpt><trkpt lat="43.9986232" lon="8.0419581"><ele>210.6</ele><time>2026-04-19T07:30:30.844Z</time></trkpt><trkpt lat="43.9985051" lon="8.0419781"><ele>212.8</ele><time>2026-04-19T07:30:32.844Z</time></trkpt><trkpt lat="43.9984273" lon="8.0419269"><ele>215.0</ele><time>2026-04-19T07:30:33.844Z</time></trkpt><trkpt lat="43.9983962" lon="8.0417328"><ele>216.6</ele><time>2026-04-19T07:30:34.844Z</time></trkpt><trkpt lat="43.998376" lon="8.0416004"><ele>218.2</ele><time>2026-04-19T07:30:35.844Z</time></trkpt><trkpt lat="43.9983432" lon="8.0414514"><ele>219.8</ele><time>2026-04-19T07:30:36.844Z</time></trkpt><trkpt lat="43.9983113" lon="8.0412934"><ele>221.4</ele><time>2026-04-19T07:30:37.844Z</time></trkpt><trkpt lat="43.9982796" lon="8.0411387"><ele>223.0</ele><time>2026-04-19T07:30:38.844Z</time></trkpt><trkpt lat="43.9982684" lon="8.04099"><ele>223.0</ele><time>2026-04-19T07:30:39.844Z</time></trkpt><trkpt lat="43.9982071" lon="8.0408297"><ele>223.0</ele><time>2026-04-19T07:30:40.845Z</time></trkpt><trkpt lat="43.9981968" lon="8.0406674"><ele>223.0</ele><time>2026-04-19T07:30:41.844Z</time></trkpt><trkpt lat="43.9981775" lon="8.0404848"><ele>223.0</ele><time>2026-04-19T07:30:42.844Z</time></trkpt><trkpt lat="43.9981451" lon="8.0403213"><ele>222.75</ele><time>2026-04-19T07:30:43.844Z</time></trkpt><trkpt lat="43.9981303" lon="8.0401358"><ele>222.5</ele><time>2026-04-19T07:30:44.843Z</time></trkpt><trkpt lat="43.9981142" lon="8.0399487"><ele>222.25</ele><time>2026-04-19T07:30:45.845Z</time></trkpt><trkpt lat="43.9981109" lon="8.0397612"><ele>222.0</ele><time>2026-04-19T07:30:46.844Z</time></trkpt><trkpt lat="43.9981065" lon="8.0395727"><ele>221.5</ele><time>2026-04-19T07:30:47.844Z</time></trkpt><trkpt lat="43.9980982" lon="8.0393942"><ele>221.0</ele><time>2026-04-19T07:30:48.844Z</time></trkpt><trkpt lat="43.9981079" lon="8.0392049"><ele>220.5</ele><time>2026-04-19T07:30:49.844Z</time></trkpt><trkpt lat="43.998123" lon="8.0390372"><ele>220.0</ele><time>2026-04-19T07:30:50.844Z</time></trkpt><trkpt lat="43.9981036" lon="8.0388759"><ele>220.0</ele><time>2026-04-19T07:30:51.843Z</time></trkpt><trkpt lat="43.9980636" lon="8.0387343"><ele>220.0</ele><time>2026-04-19T07:30:52.844Z</time></trkpt><trkpt lat="43.9980023" lon="8.0386042"><ele>220.0</ele><time>2026-04-19T07:30:53.845Z</time></trkpt><trkpt lat="43.997945" lon="8.0384931"><ele>220.0</ele><time>2026-04-19T07:30:54.844Z</time></trkpt><trkpt lat="43.9978887" lon="8.0383654"><ele>220.0</ele><time>2026-04-19T07:30:55.844Z</time></trkpt><trkpt lat="43.9978528" lon="8.0382251"><ele>219.0</ele><time>2026-04-19T07:30:56.844Z</time></trkpt><trkpt lat="43.9978284" lon="8.0380823"><ele>218.0</ele><time>2026-04-19T07:30:57.844Z</time></trkpt><trkpt lat="43.997803" lon="8.0379226"><ele>217.0</ele><time>2026-04-19T07:30:58.844Z</time></trkpt><trkpt lat="43.9977765" lon="8.0377627"><ele>216.0</ele><time>2026-04-19T07:30:59.845Z</time></trkpt><trkpt lat="43.997753" lon="8.037595"><ele>215.5</ele><time>2026-04-19T07:31:00.843Z</time></trkpt><trkpt lat="43.9977347" lon="8.0374132"><ele>215.0</ele><time>2026-04-19T07:31:01.844Z</time></trkpt><trkpt lat="43.9977181" lon="8.0372464"><ele>214.5</ele><time>2026-04-19T07:31:02.845Z</time></trkpt><trkpt lat="43.9976891" lon="8.0370743"><ele>214.0</ele><time>2026-04-19T07:31:03.844Z</time></trkpt><trkpt lat="43.9976648" lon="8.0369014"><ele>214.0</ele><time>2026-04-19T07:31:04.845Z</time></trkpt><trkpt lat="43.9976478" lon="8.0367413"><ele>214.0</ele><time>2026-04-19T07:31:05.845Z</time></trkpt><trkpt lat="43.9976233" lon="8.0365878"><ele>214.0</ele><time>2026-04-19T07:31:06.844Z</time></trkpt><trkpt lat="43.9975752" lon="8.0364454"><ele>214.0</ele><time>2026-04-19T07:31:07.844Z</time></trkpt><trkpt lat="43.9975009" lon="8.0363153"><ele>218.0</ele><time>2026-04-19T07:31:08.844Z</time></trkpt><trkpt lat="43.9974225" lon="8.0362013"><ele>221.99999999999997</ele><time>2026-04-19T07:31:09.844Z</time></trkpt><trkpt lat="43.9973462" lon="8.0361008"><ele>225.99999999999997</ele><time>2026-04-19T07:31:10.844Z</time></trkpt><trkpt lat="43.997242" lon="8.0360464"><ele>230.0</ele><time>2026-04-19T07:31:11.844Z</time></trkpt><trkpt lat="43.997135" lon="8.0359937"><ele>234.0</ele><time>2026-04-19T07:31:12.844Z</time></trkpt><trkpt lat="43.9970251" lon="8.0359742"><ele>234.0</ele><time>2026-04-19T07:31:13.844Z</time></trkpt><trkpt lat="43.996903" lon="8.0359749"><ele>234.0</ele><time>2026-04-19T07:31:14.843Z</time></trkpt><trkpt lat="43.9967777" lon="8.035946"><ele>234.0</ele><time>2026-04-19T07:31:15.844Z</time></trkpt><trkpt lat="43.9966684" lon="8.0359101"><ele>234.0</ele><time>2026-04-19T07:31:16.843Z</time></trkpt><trkpt lat="43.996558" lon="8.0358478"><ele>236.6</ele><time>2026-04-19T07:31:17.844Z</time></trkpt><trkpt lat="43.9964464" lon="8.0358093"><ele>239.2</ele><time>2026-04-19T07:31:18.844Z</time></trkpt><trkpt lat="43.9963398" lon="8.035789"><ele>241.79999999999998</ele><time>2026-04-19T07:31:19.844Z</time></trkpt><trkpt lat="43.9962593" lon="8.0357732"><ele>244.39999999999998</ele><time>2026-04-19T07:31:20.844Z</time></trkpt><trkpt lat="43.9961749" lon="8.0357292"><ele>247.0</ele><time>2026-04-19T07:31:22.844Z</time></trkpt><trkpt lat="43.996151" lon="8.0356403"><ele>248.2</ele><time>2026-04-19T07:31:23.844Z</time></trkpt><trkpt lat="43.9961645" lon="8.0355456"><ele>249.39999999999998</ele><time>2026-04-19T07:31:24.844Z</time></trkpt><trkpt lat="43.9962775" lon="8.0354758"><ele>250.60000000000002</ele><time>2026-04-19T07:31:25.843Z</time></trkpt><trkpt lat="43.9963612" lon="8.0353959"><ele>251.8</ele><time>2026-04-19T07:31:26.844Z</time></trkpt><trkpt lat="43.9964462" lon="8.03532"><ele>253.0</ele><time>2026-04-19T07:31:27.844Z</time></trkpt><trkpt lat="43.9965438" lon="8.0352545"><ele>253.0</ele><time>2026-04-19T07:31:28.843Z</time></trkpt><trkpt lat="43.9966313" lon="8.0351854"><ele>253.0</ele><time>2026-04-19T07:31:29.844Z</time></trkpt><trkpt lat="43.9967348" lon="8.0351121"><ele>253.0</ele><time>2026-04-19T07:31:30.843Z</time></trkpt><trkpt lat="43.996838" lon="8.0350374"><ele>253.0</ele><time>2026-04-19T07:31:31.845Z</time></trkpt><trkpt lat="43.9969443" lon="8.0349629"><ele>252.2</ele><time>2026-04-19T07:31:32.845Z</time></trkpt><trkpt lat="43.9970418" lon="8.0348769"><ele>251.4</ele><time>2026-04-19T07:31:33.844Z</time></trkpt><trkpt lat="43.9971189" lon="8.0347842"><ele>250.59999999999997</ele><time>2026-04-19T07:31:34.844Z</time></trkpt><trkpt lat="43.997183" lon="8.0346647"><ele>249.79999999999998</ele><time>2026-04-19T07:31:35.843Z</time></trkpt><trkpt lat="43.9972038" lon="8.0345362"><ele>249.0</ele><time>2026-04-19T07:31:36.844Z</time></trkpt><trkpt lat="43.99721" lon="8.0344124"><ele>249.0</ele><time>2026-04-19T07:31:37.844Z</time></trkpt><trkpt lat="43.9971761" lon="8.0342831"><ele>248.99999999999997</ele><time>2026-04-19T07:31:38.843Z</time></trkpt><trkpt lat="43.9971393" lon="8.0341519"><ele>248.99999999999997</ele><time>2026-04-19T07:31:39.844Z</time></trkpt><trkpt lat="43.9971068" lon="8.0340248"><ele>249.0</ele><time>2026-04-19T07:31:40.844Z</time></trkpt><trkpt lat="43.9970921" lon="8.0338934"><ele>249.0</ele><time>2026-04-19T07:31:41.844Z</time></trkpt><trkpt lat="43.9971085" lon="8.0337767"><ele>250.5</ele><time>2026-04-19T07:31:42.844Z</time></trkpt><trkpt lat="43.997155" lon="8.0336839"><ele>252.0</ele><time>2026-04-19T07:31:43.843Z</time></trkpt><trkpt lat="43.9972136" lon="8.0336217"><ele>253.5</ele><time>2026-04-19T07:31:44.844Z</time></trkpt><trkpt lat="43.9972869" lon="8.0335959"><ele>255.0</ele><time>2026-04-19T07:31:45.844Z</time></trkpt><trkpt lat="43.9973605" lon="8.0335525"><ele>256.5</ele><time>2026-04-19T07:31:46.843Z</time></trkpt><trkpt lat="43.9974299" lon="8.0334867"><ele>258.0</ele><time>2026-04-19T07:31:47.842Z</time></trkpt><trkpt lat="43.9974861" lon="8.0333954"><ele>254.0</ele><time>2026-04-19T07:31:48.844Z</time></trkpt><trkpt lat="43.9975294" lon="8.0332988"><ele>250.0</ele><time>2026-04-19T07:31:49.844Z</time></trkpt><trkpt lat="43.9975646" lon="8.0331967"><ele>246.0</ele><time>2026-04-19T07:31:50.844Z</time></trkpt><trkpt lat="43.9975976" lon="8.0330918"><ele>242.0</ele><time>2026-04-19T07:31:51.846Z</time></trkpt><trkpt lat="43.9976379" lon="8.0329824"><ele>238.0</ele><time>2026-04-19T07:31:52.844Z</time></trkpt><trkpt lat="43.9976657" lon="8.0328643"><ele>234.0</ele><time>2026-04-19T07:31:53.843Z</time></trkpt><trkpt lat="43.9976699" lon="8.0327435"><ele>234.0</ele><time>2026-04-19T07:31:54.843Z</time></trkpt><trkpt lat="43.9976473" lon="8.0326412"><ele>234.0</ele><time>2026-04-19T07:31:55.844Z</time></trkpt><trkpt lat="43.9975943" lon="8.0325508"><ele>234.0</ele><time>2026-04-19T07:31:56.843Z</time></trkpt><trkpt lat="43.9975298" lon="8.0324604"><ele>234.0</ele><time>2026-04-19T07:31:57.845Z</time></trkpt><trkpt lat="43.9974596" lon="8.0323606"><ele>234.0</ele><time>2026-04-19T07:31:58.844Z</time></trkpt><trkpt lat="43.997404" lon="8.0322568"><ele>234.0</ele><time>2026-04-19T07:31:59.844Z</time></trkpt><trkpt lat="43.9973775" lon="8.0321463"><ele>234.2</ele><time>2026-04-19T07:32:00.844Z</time></trkpt><trkpt lat="43.9973519" lon="8.0320423"><ele>234.39999999999998</ele><time>2026-04-19T07:32:01.844Z</time></trkpt><trkpt lat="43.9973616" lon="8.0319443"><ele>234.6</ele><time>2026-04-19T07:32:02.845Z</time></trkpt><trkpt lat="43.9974717" lon="8.0318542"><ele>234.8</ele><time>2026-04-19T07:32:03.844Z</time></trkpt><trkpt lat="43.9975145" lon="8.0317404"><ele>235.0</ele><time>2026-04-19T07:32:04.844Z</time></trkpt><trkpt lat="43.997531" lon="8.0316013"><ele>236.5</ele><time>2026-04-19T07:32:05.844Z</time></trkpt><trkpt lat="43.9975129" lon="8.0314544"><ele>238.0</ele><time>2026-04-19T07:32:06.845Z</time></trkpt><trkpt lat="43.9974852" lon="8.0313003"><ele>239.5</ele><time>2026-04-19T07:32:07.843Z</time></trkpt><trkpt lat="43.9974542" lon="8.0311426"><ele>241.0</ele><time>2026-04-19T07:32:08.844Z</time></trkpt><trkpt lat="43.9974178" lon="8.0309736"><ele>246.25</ele><time>2026-04-19T07:32:09.844Z</time></trkpt><trkpt lat="43.9973777" lon="8.0307924"><ele>251.5</ele><time>2026-04-19T07:32:10.844Z</time></trkpt><trkpt lat="43.997327" lon="8.0306096"><ele>256.75</ele><time>2026-04-19T07:32:11.844Z</time></trkpt><trkpt lat="43.9972838" lon="8.0304243"><ele>262.0</ele><time>2026-04-19T07:32:12.844Z</time></trkpt><trkpt lat="43.9972451" lon="8.0302424"><ele>262.0</ele><time>2026-04-19T07:32:13.844Z</time></trkpt><trkpt lat="43.9972179" lon="8.0301049"><ele>262.0</ele><time>2026-04-19T07:32:14.844Z</time></trkpt><trkpt lat="43.9972158" lon="8.0299645"><ele>262.0</ele><time>2026-04-19T07:32:15.845Z</time></trkpt><trkpt lat="43.9972302" lon="8.0298438"><ele>262.0</ele><time>2026-04-19T07:32:16.845Z</time></trkpt><trkpt lat="43.9973206" lon="8.0296842"><ele>262.0</ele><time>2026-04-19T07:32:18.844Z</time></trkpt><trkpt lat="43.9974174" lon="8.0296233"><ele>261.2</ele><time>2026-04-19T07:32:19.844Z</time></trkpt><trkpt lat="43.9975011" lon="8.029551"><ele>260.4</ele><time>2026-04-19T07:32:20.844Z</time></trkpt><trkpt lat="43.9975982" lon="8.0294708"><ele>259.6</ele><time>2026-04-19T07:32:21.844Z</time></trkpt><trkpt lat="43.9976897" lon="8.029391"><ele>258.8</ele><time>2026-04-19T07:32:22.844Z</time></trkpt><trkpt lat="43.9977705" lon="8.0293161"><ele>258.0</ele><time>2026-04-19T07:32:23.842Z</time></trkpt><trkpt lat="43.997836" lon="8.0292034"><ele>260.0</ele><time>2026-04-19T07:32:24.844Z</time></trkpt><trkpt lat="43.9978998" lon="8.029073"><ele>262.0</ele><time>2026-04-19T07:32:25.844Z</time></trkpt><trkpt lat="43.9979574" lon="8.0289304"><ele>264.0</ele><time>2026-04-19T07:32:26.845Z</time></trkpt><trkpt lat="43.9980185" lon="8.0287839"><ele>266.0</ele><time>2026-04-19T07:32:27.844Z</time></trkpt><trkpt lat="43.9980845" lon="8.0286374"><ele>266.0</ele><time>2026-04-19T07:32:28.844Z</time></trkpt><trkpt lat="43.9981586" lon="8.0284873"><ele>266.0</ele><time>2026-04-19T07:32:29.844Z</time></trkpt><trkpt lat="43.99823" lon="8.0283479"><ele>266.0</ele><time>2026-04-19T07:32:30.844Z</time></trkpt><trkpt lat="43.9982978" lon="8.0282083"><ele>266.0</ele><time>2026-04-19T07:32:31.844Z</time></trkpt><trkpt lat="43.9983563" lon="8.0280678"><ele>267.5</ele><time>2026-04-19T07:32:32.844Z</time></trkpt><trkpt lat="43.998408" lon="8.0279352"><ele>269.0</ele><time>2026-04-19T07:32:33.845Z</time></trkpt><trkpt lat="43.9984532" lon="8.0278183"><ele>270.5</ele><time>2026-04-19T07:32:34.843Z</time></trkpt><trkpt lat="43.9985174" lon="8.0277433"><ele>272.0</ele><time>2026-04-19T07:32:35.844Z</time></trkpt><trkpt lat="43.9985876" lon="8.0277138"><ele>273.5</ele><time>2026-04-19T07:32:36.845Z</time></trkpt><trkpt lat="43.9986604" lon="8.0277149"><ele>275.0</ele><time>2026-04-19T07:32:37.843Z</time></trkpt><trkpt lat="43.9987501" lon="8.0277355"><ele>275.0</ele><time>2026-04-19T07:32:38.843Z</time></trkpt><trkpt lat="43.9988499" lon="8.0277548"><ele>275.0</ele><time>2026-04-19T07:32:39.844Z</time></trkpt><trkpt lat="43.9989544" lon="8.0277748"><ele>275.0</ele><time>2026-04-19T07:32:40.844Z</time></trkpt><trkpt lat="43.9990628" lon="8.0277961"><ele>275.0</ele><time>2026-04-19T07:32:41.844Z</time></trkpt><trkpt lat="43.9991653" lon="8.0278185"><ele>275.0</ele><time>2026-04-19T07:32:42.843Z</time></trkpt><trkpt lat="43.9992659" lon="8.0278481"><ele>279.0</ele><time>2026-04-19T07:32:43.844Z</time></trkpt><trkpt lat="43.9993476" lon="8.0278968"><ele>283.0</ele><time>2026-04-19T07:32:44.844Z</time></trkpt><trkpt lat="43.9994044" lon="8.0280018"><ele>287.0</ele><time>2026-04-19T07:32:45.844Z</time></trkpt><trkpt lat="43.9994392" lon="8.0281145"><ele>291.0</ele><time>2026-04-19T07:32:46.844Z</time></trkpt><trkpt lat="43.9994584" lon="8.0282581"><ele>295.0</ele><time>2026-04-19T07:32:47.844Z</time></trkpt><trkpt lat="43.9994702" lon="8.0284311"><ele>295.0</ele><time>2026-04-19T07:32:48.844Z</time></trkpt><trkpt lat="43.9994818" lon="8.0285823"><ele>295.0</ele><time>2026-04-19T07:32:49.844Z</time></trkpt><trkpt lat="43.9994863" lon="8.028738"><ele>295.0</ele><time>2026-04-19T07:32:50.843Z</time></trkpt><trkpt lat="43.9994738" lon="8.0288893"><ele>295.0</ele><time>2026-04-19T07:32:51.844Z</time></trkpt><trkpt lat="43.9994375" lon="8.0290386"><ele>295.0</ele><time>2026-04-19T07:32:52.844Z</time></trkpt><trkpt lat="43.9994008" lon="8.0291848"><ele>292.6</ele><time>2026-04-19T07:32:53.845Z</time></trkpt><trkpt lat="43.9993655" lon="8.0293454"><ele>290.2</ele><time>2026-04-19T07:32:54.843Z</time></trkpt><trkpt lat="43.9993342" lon="8.0294993"><ele>287.8</ele><time>2026-04-19T07:32:55.844Z</time></trkpt><trkpt lat="43.9993197" lon="8.0296383"><ele>285.4</ele><time>2026-04-19T07:32:56.843Z</time></trkpt><trkpt lat="43.9993195" lon="8.0297604"><ele>283.0</ele><time>2026-04-19T07:32:57.845Z</time></trkpt><trkpt lat="43.9993493" lon="8.0298679"><ele>283.0</ele><time>2026-04-19T07:32:58.845Z</time></trkpt><trkpt lat="43.9993916" lon="8.0299607"><ele>283.0</ele><time>2026-04-19T07:32:59.844Z</time></trkpt><trkpt lat="43.9994791" lon="8.0299566"><ele>283.0</ele><time>2026-04-19T07:33:00.843Z</time></trkpt><trkpt lat="43.9995517" lon="8.0299491"><ele>283.0</ele><time>2026-04-19T07:33:01.844Z</time></trkpt><trkpt lat="43.9996357" lon="8.0299104"><ele>283.0</ele><time>2026-04-19T07:33:02.843Z</time></trkpt><trkpt lat="43.9997166" lon="8.029866"><ele>283.0</ele><time>2026-04-19T07:33:03.844Z</time></trkpt><trkpt lat="43.9997921" lon="8.0298272"><ele>283.0</ele><time>2026-04-19T07:33:04.843Z</time></trkpt><trkpt lat="43.9998657" lon="8.0298311"><ele>283.0</ele><time>2026-04-19T07:33:05.844Z</time></trkpt><trkpt lat="43.9999261" lon="8.0298771"><ele>283.0</ele><time>2026-04-19T07:33:06.844Z</time></trkpt><trkpt lat="43.9999743" lon="8.0299476"><ele>283.0</ele><time>2026-04-19T07:33:07.844Z</time></trkpt><trkpt lat="43.9999893" lon="8.030064"><ele>283.0</ele><time>2026-04-19T07:33:08.843Z</time></trkpt><trkpt lat="44.0000036" lon="8.0301763"><ele>283.0</ele><time>2026-04-19T07:33:09.844Z</time></trkpt><trkpt lat="44.000027" lon="8.0302967"><ele>280.8</ele><time>2026-04-19T07:33:10.843Z</time></trkpt><trkpt lat="44.0000562" lon="8.0304132"><ele>278.6</ele><time>2026-04-19T07:33:11.844Z</time></trkpt><trkpt lat="44.0000947" lon="8.0305245"><ele>276.4</ele><time>2026-04-19T07:33:12.843Z</time></trkpt><trkpt lat="44.0001384" lon="8.0306358"><ele>274.2</ele><time>2026-04-19T07:33:13.843Z</time></trkpt><trkpt lat="44.0001847" lon="8.030748"><ele>272.0</ele><time>2026-04-19T07:33:14.843Z</time></trkpt><trkpt lat="44.0002249" lon="8.030859"><ele>271.0</ele><time>2026-04-19T07:33:15.845Z</time></trkpt><trkpt lat="44.0002398" lon="8.0309701"><ele>270.0</ele><time>2026-04-19T07:33:16.844Z</time></trkpt><trkpt lat="44.0002106" lon="8.0310998"><ele>269.0</ele><time>2026-04-19T07:33:17.844Z</time></trkpt><trkpt lat="44.0001776" lon="8.0312149"><ele>268.0</ele><time>2026-04-19T07:33:18.843Z</time></trkpt><trkpt lat="44.0001607" lon="8.0313271"><ele>267.0</ele><time>2026-04-19T07:33:19.843Z</time></trkpt><trkpt lat="44.0001434" lon="8.0314341"><ele>266.0</ele><time>2026-04-19T07:33:20.843Z</time></trkpt><trkpt lat="44.0001651" lon="8.031553"><ele>265.6</ele><time>2026-04-19T07:33:21.844Z</time></trkpt><trkpt lat="44.0001917" lon="8.0316637"><ele>265.20000000000005</ele><time>2026-04-19T07:33:22.844Z</time></trkpt><trkpt lat="44.0002281" lon="8.0317801"><ele>264.79999999999995</ele><time>2026-04-19T07:33:23.845Z</time></trkpt><trkpt lat="44.0002663" lon="8.0319074"><ele>264.4</ele><time>2026-04-19T07:33:24.845Z</time></trkpt><trkpt lat="44.0003137" lon="8.0320415"><ele>264.0</ele><time>2026-04-19T07:33:25.844Z</time></trkpt><trkpt lat="44.0003615" lon="8.0321647"><ele>264.0</ele><time>2026-04-19T07:33:26.844Z</time></trkpt><trkpt lat="44.0004188" lon="8.032288"><ele>264.0</ele><time>2026-04-19T07:33:27.844Z</time></trkpt><trkpt lat="44.0004844" lon="8.0324105"><ele>264.0</ele><time>2026-04-19T07:33:28.844Z</time></trkpt><trkpt lat="44.0005534" lon="8.0325325"><ele>264.0</ele><time>2026-04-19T07:33:29.843Z</time></trkpt><trkpt lat="44.0006206" lon="8.0326589"><ele>264.0</ele><time>2026-04-19T07:33:30.844Z</time></trkpt><trkpt lat="44.0006893" lon="8.0327823"><ele>262.5</ele><time>2026-04-19T07:33:31.843Z</time></trkpt><trkpt lat="44.0007552" lon="8.0329139"><ele>261.0</ele><time>2026-04-19T07:33:32.843Z</time></trkpt><trkpt lat="44.0008121" lon="8.0330536"><ele>259.5</ele><time>2026-04-19T07:33:33.844Z</time></trkpt><trkpt lat="44.0008649" lon="8.0332078"><ele>258.0</ele><time>2026-04-19T07:33:34.844Z</time></trkpt><trkpt lat="44.0009172" lon="8.0333675"><ele>264.0</ele><time>2026-04-19T07:33:35.843Z</time></trkpt><trkpt lat="44.0009871" lon="8.0335069"><ele>270.0</ele><time>2026-04-19T07:33:36.844Z</time></trkpt><trkpt lat="44.001056" lon="8.0336478"><ele>276.0</ele><time>2026-04-19T07:33:37.844Z</time></trkpt><trkpt lat="44.0011317" lon="8.0337754"><ele>282.0</ele><time>2026-04-19T07:33:38.844Z</time></trkpt><trkpt lat="44.0011906" lon="8.0339358"><ele>282.0</ele><time>2026-04-19T07:33:39.844Z</time></trkpt><trkpt lat="44.0012368" lon="8.0340895"><ele>282.0</ele><time>2026-04-19T07:33:40.843Z</time></trkpt><trkpt lat="44.0012716" lon="8.0342415"><ele>282.0</ele><time>2026-04-19T07:33:41.844Z</time></trkpt><trkpt lat="44.0013152" lon="8.0343892"><ele>282.0</ele><time>2026-04-19T07:33:42.844Z</time></trkpt><trkpt lat="44.0013462" lon="8.0345294"><ele>280.4</ele><time>2026-04-19T07:33:43.843Z</time></trkpt><trkpt lat="44.0013833" lon="8.0346599"><ele>278.79999999999995</ele><time>2026-04-19T07:33:44.844Z</time></trkpt><trkpt lat="44.0014355" lon="8.0347749"><ele>277.2</ele><time>2026-04-19T07:33:45.844Z</time></trkpt><trkpt lat="44.0014955" lon="8.0348873"><ele>275.59999999999997</ele><time>2026-04-19T07:33:46.844Z</time></trkpt><trkpt lat="44.0015685" lon="8.0349992"><ele>274.0</ele><time>2026-04-19T07:33:47.845Z</time></trkpt><trkpt lat="44.0016446" lon="8.0351207"><ele>279.25</ele><time>2026-04-19T07:33:48.844Z</time></trkpt><trkpt lat="44.0017152" lon="8.0352327"><ele>284.5</ele><time>2026-04-19T07:33:49.844Z</time></trkpt><trkpt lat="44.0017978" lon="8.035341"><ele>289.75</ele><time>2026-04-19T07:33:50.844Z</time></trkpt><trkpt lat="44.0018816" lon="8.0354577"><ele>295.0</ele><time>2026-04-19T07:33:51.844Z</time></trkpt><trkpt lat="44.0019679" lon="8.0355708"><ele>295.0</ele><time>2026-04-19T07:33:52.844Z</time></trkpt><trkpt lat="44.0020435" lon="8.0356928"><ele>295.0</ele><time>2026-04-19T07:33:53.844Z</time></trkpt><trkpt lat="44.0021213" lon="8.0358061"><ele>295.0</ele><time>2026-04-19T07:33:54.844Z</time></trkpt><trkpt lat="44.0021974" lon="8.03591"><ele>295.0</ele><time>2026-04-19T07:33:55.844Z</time></trkpt><trkpt lat="44.002265" lon="8.0360104"><ele>295.0</ele><time>2026-04-19T07:33:56.844Z</time></trkpt><trkpt lat="44.0023188" lon="8.0361039"><ele>293.42857142857144</ele><time>2026-04-19T07:33:57.843Z</time></trkpt><trkpt lat="44.0023426" lon="8.0362011"><ele>291.8571428571429</ele><time>2026-04-19T07:33:58.843Z</time></trkpt><trkpt lat="44.0023392" lon="8.0362891"><ele>290.2857142857143</ele><time>2026-04-19T07:33:59.843Z</time></trkpt><trkpt lat="44.0023008" lon="8.0363752"><ele>288.7142857142857</ele><time>2026-04-19T07:34:00.845Z</time></trkpt><trkpt lat="44.0022587" lon="8.0364553"><ele>287.1428571428571</ele><time>2026-04-19T07:34:01.844Z</time></trkpt><trkpt lat="44.0022194" lon="8.0365394"><ele>285.57142857142856</ele><time>2026-04-19T07:34:02.842Z</time></trkpt><trkpt lat="44.0022007" lon="8.0366338"><ele>284.0</ele><time>2026-04-19T07:34:03.842Z</time></trkpt><trkpt lat="44.002199" lon="8.0367357"><ele>283.5</ele><time>2026-04-19T07:34:04.844Z</time></trkpt><trkpt lat="44.002231" lon="8.0368375"><ele>283.0</ele><time>2026-04-19T07:34:05.844Z</time></trkpt><trkpt lat="44.0022776" lon="8.0369253"><ele>282.5</ele><time>2026-04-19T07:34:06.845Z</time></trkpt><trkpt lat="44.0023445" lon="8.0370021"><ele>282.0</ele><time>2026-04-19T07:34:07.844Z</time></trkpt><trkpt lat="44.0024268" lon="8.0370508"><ele>281.5</ele><time>2026-04-19T07:34:08.843Z</time></trkpt><trkpt lat="44.0025138" lon="8.0370757"><ele>281.0</ele><time>2026-04-19T07:34:09.844Z</time></trkpt><trkpt lat="44.0026076" lon="8.0370679"><ele>285.0</ele><time>2026-04-19T07:34:10.845Z</time></trkpt><trkpt lat="44.0027044" lon="8.0370772"><ele>289.0</ele><time>2026-04-19T07:34:11.845Z</time></trkpt><trkpt lat="44.0027857" lon="8.0370965"><ele>293.0</ele><time>2026-04-19T07:34:12.843Z</time></trkpt><trkpt lat="44.0028543" lon="8.0371421"><ele>297.0</ele><time>2026-04-19T07:34:13.844Z</time></trkpt><trkpt lat="44.0029077" lon="8.0372293"><ele>301.0</ele><time>2026-04-19T07:34:14.843Z</time></trkpt><trkpt lat="44.0029312" lon="8.0373284"><ele>305.0</ele><time>2026-04-19T07:34:15.844Z</time></trkpt><trkpt lat="44.0029218" lon="8.037427"><ele>304.83333333333337</ele><time>2026-04-19T07:34:16.844Z</time></trkpt><trkpt lat="44.002916" lon="8.0375272"><ele>304.6666666666667</ele><time>2026-04-19T07:34:17.844Z</time></trkpt><trkpt lat="44.002935" lon="8.0376206"><ele>304.5</ele><time>2026-04-19T07:34:18.844Z</time></trkpt><trkpt lat="44.0029711" lon="8.0377071"><ele>304.3333333333333</ele><time>2026-04-19T07:34:19.844Z</time></trkpt><trkpt lat="44.003023" lon="8.0377823"><ele>304.16666666666663</ele><time>2026-04-19T07:34:20.845Z</time></trkpt><trkpt lat="44.0030954" lon="8.0378332"><ele>304.0</ele><time>2026-04-19T07:34:21.843Z</time></trkpt><trkpt lat="44.0031769" lon="8.0378897"><ele>304.0</ele><time>2026-04-19T07:34:22.844Z</time></trkpt><trkpt lat="44.0032647" lon="8.0379548"><ele>304.0</ele><time>2026-04-19T07:34:23.844Z</time></trkpt><trkpt lat="44.0033547" lon="8.0380243"><ele>304.0</ele><time>2026-04-19T07:34:24.844Z</time></trkpt><trkpt lat="44.003445" lon="8.0380991"><ele>304.0</ele><time>2026-04-19T07:34:25.844Z</time></trkpt><trkpt lat="44.0035401" lon="8.0381753"><ele>304.0</ele><time>2026-04-19T07:34:26.844Z</time></trkpt><trkpt lat="44.0036458" lon="8.0382508"><ele>306.0</ele><time>2026-04-19T07:34:27.844Z</time></trkpt><trkpt lat="44.003742" lon="8.0383429"><ele>308.0</ele><time>2026-04-19T07:34:28.844Z</time></trkpt><trkpt lat="44.0038304" lon="8.0384508"><ele>310.0</ele><time>2026-04-19T07:34:29.844Z</time></trkpt><trkpt lat="44.0039122" lon="8.0385731"><ele>312.0</ele><time>2026-04-19T07:34:30.843Z</time></trkpt><trkpt lat="44.0039736" lon="8.0387174"><ele>312.0</ele><time>2026-04-19T07:34:31.843Z</time></trkpt><trkpt lat="44.0040227" lon="8.0388671"><ele>312.0</ele><time>2026-04-19T07:34:32.843Z</time></trkpt><trkpt lat="44.0040668" lon="8.0390341"><ele>312.0</ele><time>2026-04-19T07:34:33.844Z</time></trkpt><trkpt lat="44.0041001" lon="8.039196"><ele>312.0</ele><time>2026-04-19T07:34:34.845Z</time></trkpt><trkpt lat="44.004133" lon="8.0393622"><ele>309.4</ele><time>2026-04-19T07:34:35.843Z</time></trkpt><trkpt lat="44.0041607" lon="8.0395239"><ele>306.79999999999995</ele><time>2026-04-19T07:34:36.844Z</time></trkpt><trkpt lat="44.0041718" lon="8.0396547"><ele>304.2</ele><time>2026-04-19T07:34:37.845Z</time></trkpt><trkpt lat="44.0041625" lon="8.0397777"><ele>301.59999999999997</ele><time>2026-04-19T07:34:38.844Z</time></trkpt><trkpt lat="44.0041438" lon="8.0398937"><ele>299.0</ele><time>2026-04-19T07:34:39.844Z</time></trkpt><trkpt lat="44.0041263" lon="8.0399874"><ele>299.0</ele><time>2026-04-19T07:34:40.844Z</time></trkpt><trkpt lat="44.0041597" lon="8.0401427"><ele>299.0</ele><time>2026-04-19T07:34:42.844Z</time></trkpt><trkpt lat="44.0042497" lon="8.0401549"><ele>299.0</ele><time>2026-04-19T07:34:44.844Z</time></trkpt><trkpt lat="44.0043192" lon="8.0400039"><ele>299.0</ele><time>2026-04-19T07:34:46.844Z</time></trkpt><trkpt lat="44.0043446" lon="8.039898"><ele>299.0</ele><time>2026-04-19T07:34:47.844Z</time></trkpt><trkpt lat="44.0043719" lon="8.0397868"><ele>305.0</ele><time>2026-04-19T07:34:48.843Z</time></trkpt><trkpt lat="44.0043865" lon="8.0396582"><ele>311.0</ele><time>2026-04-19T07:34:49.844Z</time></trkpt><trkpt lat="44.004392" lon="8.0395246"><ele>317.0</ele><time>2026-04-19T07:34:50.843Z</time></trkpt><trkpt lat="44.0043943" lon="8.0393882"><ele>323.0</ele><time>2026-04-19T07:34:51.844Z</time></trkpt><trkpt lat="44.0043896" lon="8.0392468"><ele>329.0</ele><time>2026-04-19T07:34:52.843Z</time></trkpt><trkpt lat="44.0043826" lon="8.039093"><ele>330.25</ele><time>2026-04-19T07:34:53.844Z</time></trkpt><trkpt lat="44.004365" lon="8.0389345"><ele>331.5</ele><time>2026-04-19T07:34:54.844Z</time></trkpt><trkpt lat="44.0043464" lon="8.0387798"><ele>332.75</ele><time>2026-04-19T07:34:55.844Z</time></trkpt><trkpt lat="44.004335" lon="8.038629"><ele>334.0</ele><time>2026-04-19T07:34:56.843Z</time></trkpt><trkpt lat="44.0042986" lon="8.0384665"><ele>334.0</ele><time>2026-04-19T07:34:57.843Z</time></trkpt><trkpt lat="44.0042421" lon="8.0383042"><ele>334.0</ele><time>2026-04-19T07:34:58.844Z</time></trkpt><trkpt lat="44.0042208" lon="8.0381459"><ele>334.0</ele><time>2026-04-19T07:34:59.844Z</time></trkpt><trkpt lat="44.0042088" lon="8.0379839"><ele>334.0</ele><time>2026-04-19T07:35:00.844Z</time></trkpt><trkpt lat="44.0042122" lon="8.0378261"><ele>335.0</ele><time>2026-04-19T07:35:01.844Z</time></trkpt><trkpt lat="44.0042221" lon="8.0376582"><ele>336.0</ele><time>2026-04-19T07:35:02.844Z</time></trkpt><trkpt lat="44.0042448" lon="8.0374939"><ele>337.0</ele><time>2026-04-19T07:35:03.843Z</time></trkpt><trkpt lat="44.004277" lon="8.037333"><ele>338.0</ele><time>2026-04-19T07:35:04.844Z</time></trkpt><trkpt lat="44.0043152" lon="8.0371743"><ele>338.5</ele><time>2026-04-19T07:35:05.844Z</time></trkpt><trkpt lat="44.0043518" lon="8.0370133"><ele>339.0</ele><time>2026-04-19T07:35:06.844Z</time></trkpt><trkpt lat="44.004357" lon="8.0368405"><ele>339.5</ele><time>2026-04-19T07:35:07.843Z</time></trkpt><trkpt lat="44.0043619" lon="8.0366738"><ele>340.0</ele><time>2026-04-19T07:35:08.844Z</time></trkpt><trkpt lat="44.0043716" lon="8.0365104"><ele>341.75</ele><time>2026-04-19T07:35:09.844Z</time></trkpt><trkpt lat="44.0043622" lon="8.0363346"><ele>343.5</ele><time>2026-04-19T07:35:10.845Z</time></trkpt><trkpt lat="44.0043446" lon="8.0361627"><ele>345.25</ele><time>2026-04-19T07:35:11.844Z</time></trkpt><trkpt lat="44.0043327" lon="8.0359892"><ele>347.0</ele><time>2026-04-19T07:35:12.844Z</time></trkpt><trkpt lat="44.0043011" lon="8.035819"><ele>345.25</ele><time>2026-04-19T07:35:13.844Z</time></trkpt><trkpt lat="44.004266" lon="8.0356543"><ele>343.5</ele><time>2026-04-19T07:35:14.844Z</time></trkpt><trkpt lat="44.0042073" lon="8.0354914"><ele>341.75</ele><time>2026-04-19T07:35:15.844Z</time></trkpt><trkpt lat="44.004135" lon="8.0353439"><ele>340.0</ele><time>2026-04-19T07:35:16.843Z</time></trkpt><trkpt lat="44.0040661" lon="8.0352102"><ele>340.0</ele><time>2026-04-19T07:35:17.844Z</time></trkpt><trkpt lat="44.0039805" lon="8.0350994"><ele>340.0</ele><time>2026-04-19T07:35:18.843Z</time></trkpt><trkpt lat="44.0038924" lon="8.0350027"><ele>340.0</ele><time>2026-04-19T07:35:19.844Z</time></trkpt><trkpt lat="44.0038077" lon="8.0349135"><ele>340.0</ele><time>2026-04-19T07:35:20.843Z</time></trkpt><trkpt lat="44.0037347" lon="8.0348275"><ele>340.0</ele><time>2026-04-19T07:35:21.844Z</time></trkpt><trkpt lat="44.0036779" lon="8.0347334"><ele>342.6</ele><time>2026-04-19T07:35:22.845Z</time></trkpt><trkpt lat="44.0036382" lon="8.0346274"><ele>345.2</ele><time>2026-04-19T07:35:23.845Z</time></trkpt><trkpt lat="44.0036099" lon="8.034511"><ele>347.79999999999995</ele><time>2026-04-19T07:35:24.845Z</time></trkpt><trkpt lat="44.0036058" lon="8.0343887"><ele>350.4</ele><time>2026-04-19T07:35:25.843Z</time></trkpt><trkpt lat="44.0036451" lon="8.0342279"><ele>353.0</ele><time>2026-04-19T07:35:26.844Z</time></trkpt><trkpt lat="44.003639" lon="8.0341019"><ele>354.59999999999997</ele><time>2026-04-19T07:35:27.844Z</time></trkpt><trkpt lat="44.0036298" lon="8.0339657"><ele>356.2</ele><time>2026-04-19T07:35:28.843Z</time></trkpt><trkpt lat="44.0036129" lon="8.0338423"><ele>357.8</ele><time>2026-04-19T07:35:29.843Z</time></trkpt><trkpt lat="44.0035832" lon="8.0337001"><ele>359.4</ele><time>2026-04-19T07:35:30.845Z</time></trkpt><trkpt lat="44.0035596" lon="8.033562"><ele>361.0</ele><time>2026-04-19T07:35:31.845Z</time></trkpt><trkpt lat="44.003519" lon="8.0334281"><ele>362.75</ele><time>2026-04-19T07:35:32.844Z</time></trkpt><trkpt lat="44.0034726" lon="8.0332935"><ele>364.5</ele><time>2026-04-19T07:35:33.843Z</time></trkpt><trkpt lat="44.0034261" lon="8.0331457"><ele>366.25</ele><time>2026-04-19T07:35:34.844Z</time></trkpt><trkpt lat="44.0033849" lon="8.0329969"><ele>368.0</ele><time>2026-04-19T07:35:35.843Z</time></trkpt><trkpt lat="44.0033497" lon="8.0328438"><ele>365.25</ele><time>2026-04-19T07:35:36.843Z</time></trkpt><trkpt lat="44.0033298" lon="8.0326894"><ele>362.5</ele><time>2026-04-19T07:35:37.844Z</time></trkpt><trkpt lat="44.003295" lon="8.0325338"><ele>359.75</ele><time>2026-04-19T07:35:38.845Z</time></trkpt><trkpt lat="44.0032465" lon="8.0323896"><ele>357.0</ele><time>2026-04-19T07:35:39.843Z</time></trkpt><trkpt lat="44.0031951" lon="8.0322563"><ele>357.0</ele><time>2026-04-19T07:35:40.843Z</time></trkpt><trkpt lat="44.0031272" lon="8.0321341"><ele>357.0</ele><time>2026-04-19T07:35:41.843Z</time></trkpt><trkpt lat="44.0030502" lon="8.0320223"><ele>357.0</ele><time>2026-04-19T07:35:42.844Z</time></trkpt><trkpt lat="44.0029698" lon="8.031914"><ele>357.0</ele><time>2026-04-19T07:35:43.843Z</time></trkpt><trkpt lat="44.0029039" lon="8.0318119"><ele>357.0</ele><time>2026-04-19T07:35:44.844Z</time></trkpt><trkpt lat="44.0028554" lon="8.0317149"><ele>358.0</ele><time>2026-04-19T07:35:45.844Z</time></trkpt><trkpt lat="44.0028245" lon="8.031615"><ele>359.0</ele><time>2026-04-19T07:35:46.843Z</time></trkpt><trkpt lat="44.0028197" lon="8.0315021"><ele>360.0</ele><time>2026-04-19T07:35:47.844Z</time></trkpt><trkpt lat="44.0028413" lon="8.0313839"><ele>361.0</ele><time>2026-04-19T07:35:48.844Z</time></trkpt><trkpt lat="44.0028639" lon="8.031259"><ele>362.0</ele><time>2026-04-19T07:35:49.843Z</time></trkpt><trkpt lat="44.0028927" lon="8.0311171"><ele>363.0</ele><time>2026-04-19T07:35:50.843Z</time></trkpt><trkpt lat="44.002905" lon="8.0309715"><ele>363.0</ele><time>2026-04-19T07:35:51.843Z</time></trkpt><trkpt lat="44.0028918" lon="8.0308236"><ele>363.0</ele><time>2026-04-19T07:35:52.844Z</time></trkpt><trkpt lat="44.0028538" lon="8.0306886"><ele>363.0</ele><time>2026-04-19T07:35:53.844Z</time></trkpt><trkpt lat="44.0027805" lon="8.0305648"><ele>363.0</ele><time>2026-04-19T07:35:54.843Z</time></trkpt><trkpt lat="44.0027197" lon="8.0304389"><ele>363.0</ele><time>2026-04-19T07:35:55.844Z</time></trkpt><trkpt lat="44.0026692" lon="8.0303009"><ele>364.59999999999997</ele><time>2026-04-19T07:35:56.843Z</time></trkpt><trkpt lat="44.0026404" lon="8.0301595"><ele>366.2</ele><time>2026-04-19T07:35:57.843Z</time></trkpt><trkpt lat="44.0026233" lon="8.0300215"><ele>367.8</ele><time>2026-04-19T07:35:58.844Z</time></trkpt><trkpt lat="44.0026321" lon="8.0299011"><ele>369.4</ele><time>2026-04-19T07:35:59.844Z</time></trkpt><trkpt lat="44.0026588" lon="8.0297977"><ele>371.0</ele><time>2026-04-19T07:36:00.843Z</time></trkpt><trkpt lat="44.0027396" lon="8.0297381"><ele>371.0</ele><time>2026-04-19T07:36:01.844Z</time></trkpt><trkpt lat="44.0028172" lon="8.0296746"><ele>371.0</ele><time>2026-04-19T07:36:02.843Z</time></trkpt><trkpt lat="44.0028815" lon="8.0295814"><ele>371.0</ele><time>2026-04-19T07:36:03.844Z</time></trkpt><trkpt lat="44.0029339" lon="8.0294638"><ele>371.0</ele><time>2026-04-19T07:36:04.844Z</time></trkpt><trkpt lat="44.0029797" lon="8.0293353"><ele>371.0</ele><time>2026-04-19T07:36:05.844Z</time></trkpt><trkpt lat="44.0030109" lon="8.0292119"><ele>371.20000000000005</ele><time>2026-04-19T07:36:06.843Z</time></trkpt><trkpt lat="44.0030138" lon="8.0290656"><ele>371.40000000000003</ele><time>2026-04-19T07:36:07.844Z</time></trkpt><trkpt lat="44.003011" lon="8.0289188"><ele>371.6</ele><time>2026-04-19T07:36:08.844Z</time></trkpt><trkpt lat="44.0030081" lon="8.0287733"><ele>371.8</ele><time>2026-04-19T07:36:09.843Z</time></trkpt><trkpt lat="44.0029993" lon="8.0286111"><ele>372.0</ele><time>2026-04-19T07:36:10.845Z</time></trkpt><trkpt lat="44.0029933" lon="8.0284592"><ele>373.5</ele><time>2026-04-19T07:36:11.845Z</time></trkpt><trkpt lat="44.0029756" lon="8.0283054"><ele>375.0</ele><time>2026-04-19T07:36:12.844Z</time></trkpt><trkpt lat="44.0029668" lon="8.0281458"><ele>376.5</ele><time>2026-04-19T07:36:13.845Z</time></trkpt><trkpt lat="44.0029552" lon="8.0279819"><ele>378.0</ele><time>2026-04-19T07:36:14.843Z</time></trkpt><trkpt lat="44.0029344" lon="8.0278112"><ele>378.0</ele><time>2026-04-19T07:36:15.843Z</time></trkpt><trkpt lat="44.0029141" lon="8.027641"><ele>378.0</ele><time>2026-04-19T07:36:16.844Z</time></trkpt><trkpt lat="44.0028971" lon="8.0274686"><ele>378.0</ele><time>2026-04-19T07:36:17.843Z</time></trkpt><trkpt lat="44.0028792" lon="8.0272923"><ele>378.0</ele><time>2026-04-19T07:36:18.844Z</time></trkpt><trkpt lat="44.0028886" lon="8.0271179"><ele>378.75</ele><time>2026-04-19T07:36:19.843Z</time></trkpt><trkpt lat="44.0029069" lon="8.0269415"><ele>379.5</ele><time>2026-04-19T07:36:20.843Z</time></trkpt><trkpt lat="44.0029149" lon="8.0267669"><ele>380.25</ele><time>2026-04-19T07:36:21.843Z</time></trkpt><trkpt lat="44.0029313" lon="8.0265967"><ele>381.0</ele><time>2026-04-19T07:36:22.844Z</time></trkpt><trkpt lat="44.0029478" lon="8.0264435"><ele>383.0</ele><time>2026-04-19T07:36:23.843Z</time></trkpt><trkpt lat="44.0029724" lon="8.0263012"><ele>385.0</ele><time>2026-04-19T07:36:24.844Z</time></trkpt><trkpt lat="44.0029753" lon="8.0261585"><ele>387.0</ele><time>2026-04-19T07:36:25.843Z</time></trkpt><trkpt lat="44.0029488" lon="8.0260188"><ele>389.0</ele><time>2026-04-19T07:36:26.844Z</time></trkpt><trkpt lat="44.0028903" lon="8.0258895"><ele>391.0</ele><time>2026-04-19T07:36:27.843Z</time></trkpt><trkpt lat="44.0028311" lon="8.0257577"><ele>394.5</ele><time>2026-04-19T07:36:28.843Z</time></trkpt><trkpt lat="44.0027627" lon="8.0256222"><ele>398.0</ele><time>2026-04-19T07:36:29.845Z</time></trkpt><trkpt lat="44.0026936" lon="8.0254837"><ele>401.5</ele><time>2026-04-19T07:36:30.844Z</time></trkpt><trkpt lat="44.0026243" lon="8.0253348"><ele>405.0</ele><time>2026-04-19T07:36:31.844Z</time></trkpt><trkpt lat="44.0025567" lon="8.0251818"><ele>401.5</ele><time>2026-04-19T07:36:32.843Z</time></trkpt><trkpt lat="44.0024889" lon="8.0250384"><ele>398.0</ele><time>2026-04-19T07:36:33.845Z</time></trkpt><trkpt lat="44.0024204" lon="8.0248764"><ele>394.5</ele><time>2026-04-19T07:36:34.844Z</time></trkpt><trkpt lat="44.0023508" lon="8.0247256"><ele>391.0</ele><time>2026-04-19T07:36:35.844Z</time></trkpt><trkpt lat="44.0022752" lon="8.024596"><ele>391.00000000000006</ele><time>2026-04-19T07:36:36.843Z</time></trkpt><trkpt lat="44.0022013" lon="8.0244732"><ele>391.0</ele><time>2026-04-19T07:36:37.843Z</time></trkpt><trkpt lat="44.002156" lon="8.0243649"><ele>391.0</ele><time>2026-04-19T07:36:38.844Z</time></trkpt><trkpt lat="44.0021518" lon="8.024268"><ele>391.0</ele><time>2026-04-19T07:36:39.844Z</time></trkpt><trkpt lat="44.0021748" lon="8.0241712"><ele>391.00000000000006</ele><time>2026-04-19T07:36:40.843Z</time></trkpt><trkpt lat="44.0022124" lon="8.0240795"><ele>391.0</ele><time>2026-04-19T07:36:41.844Z</time></trkpt><trkpt lat="44.0022662" lon="8.0239837"><ele>393.20000000000005</ele><time>2026-04-19T07:36:42.843Z</time></trkpt><trkpt lat="44.0023311" lon="8.0238835"><ele>395.40000000000003</ele><time>2026-04-19T07:36:43.843Z</time></trkpt><trkpt lat="44.0024028" lon="8.0237743"><ele>397.6</ele><time>2026-04-19T07:36:44.844Z</time></trkpt><trkpt lat="44.0024712" lon="8.0236699"><ele>399.8</ele><time>2026-04-19T07:36:45.844Z</time></trkpt><trkpt lat="44.0025481" lon="8.0235716"><ele>402.0</ele><time>2026-04-19T07:36:46.844Z</time></trkpt><trkpt lat="44.0026074" lon="8.0234666"><ele>404.5</ele><time>2026-04-19T07:36:47.844Z</time></trkpt><trkpt lat="44.0026287" lon="8.0233641"><ele>407.0</ele><time>2026-04-19T07:36:48.845Z</time></trkpt><trkpt lat="44.0026164" lon="8.0232758"><ele>409.5</ele><time>2026-04-19T07:36:49.843Z</time></trkpt><trkpt lat="44.0025648" lon="8.0232031"><ele>412.0</ele><time>2026-04-19T07:36:50.844Z</time></trkpt><trkpt lat="44.0025123" lon="8.0231432"><ele>414.5</ele><time>2026-04-19T07:36:51.844Z</time></trkpt><trkpt lat="44.002361" lon="8.0230908"><ele>417.0</ele><time>2026-04-19T07:36:53.844Z</time></trkpt><trkpt lat="44.0022678" lon="8.0230598"><ele>417.0</ele><time>2026-04-19T07:36:54.845Z</time></trkpt><trkpt lat="44.0021861" lon="8.0230385"><ele>417.0</ele><time>2026-04-19T07:36:55.844Z</time></trkpt><trkpt lat="44.0021194" lon="8.0230397"><ele>417.0</ele><time>2026-04-19T07:36:56.845Z</time></trkpt><trkpt lat="44.0020312" lon="8.0230113"><ele>417.0</ele><time>2026-04-19T07:36:57.843Z</time></trkpt><trkpt lat="44.0019433" lon="8.0229703"><ele>417.0</ele><time>2026-04-19T07:36:58.844Z</time></trkpt><trkpt lat="44.0018608" lon="8.0229189"><ele>417.0</ele><time>2026-04-19T07:36:59.845Z</time></trkpt><trkpt lat="44.0017914" lon="8.022846"><ele>417.0</ele><time>2026-04-19T07:37:00.845Z</time></trkpt><trkpt lat="44.0017506" lon="8.0227609"><ele>417.0</ele><time>2026-04-19T07:37:01.844Z</time></trkpt><trkpt lat="44.0017149" lon="8.0226681"><ele>417.0</ele><time>2026-04-19T07:37:02.843Z</time></trkpt><trkpt lat="44.0017314" lon="8.0225554"><ele>417.0</ele><time>2026-04-19T07:37:03.844Z</time></trkpt><trkpt lat="44.0017263" lon="8.0224366"><ele>417.0</ele><time>2026-04-19T07:37:04.845Z</time></trkpt><trkpt lat="44.0017043" lon="8.0223266"><ele>417.0</ele><time>2026-04-19T07:37:05.843Z</time></trkpt><trkpt lat="44.001656" lon="8.0222382"><ele>418.6666666666667</ele><time>2026-04-19T07:37:06.844Z</time></trkpt><trkpt lat="44.0015811" lon="8.0221659"><ele>420.33333333333337</ele><time>2026-04-19T07:37:07.844Z</time></trkpt><trkpt lat="44.0015101" lon="8.0220962"><ele>422.0</ele><time>2026-04-19T07:37:08.844Z</time></trkpt><trkpt lat="44.001447" lon="8.0220176"><ele>423.6666666666667</ele><time>2026-04-19T07:37:09.844Z</time></trkpt><trkpt lat="44.0014032" lon="8.0219278"><ele>425.33333333333337</ele><time>2026-04-19T07:37:10.844Z</time></trkpt><trkpt lat="44.0013804" lon="8.0218075"><ele>427.0</ele><time>2026-04-19T07:37:11.843Z</time></trkpt><trkpt lat="44.001324" lon="8.0217159"><ele>428.50000000000006</ele><time>2026-04-19T07:37:12.844Z</time></trkpt><trkpt lat="44.0012696" lon="8.0216286"><ele>430.0</ele><time>2026-04-19T07:37:13.844Z</time></trkpt><trkpt lat="44.0011729" lon="8.0216226"><ele>431.5</ele><time>2026-04-19T07:37:14.844Z</time></trkpt><trkpt lat="44.0010887" lon="8.0216052"><ele>433.0</ele><time>2026-04-19T07:37:15.844Z</time></trkpt><trkpt lat="44.000994" lon="8.0215946"><ele>434.50000000000006</ele><time>2026-04-19T07:37:16.844Z</time></trkpt><trkpt lat="44.0009149" lon="8.0216147"><ele>436.0</ele><time>2026-04-19T07:37:17.844Z</time></trkpt><trkpt lat="44.0008325" lon="8.0216161"><ele>436.0</ele><time>2026-04-19T07:37:18.843Z</time></trkpt><trkpt lat="44.0007483" lon="8.0215653"><ele>436.0</ele><time>2026-04-19T07:37:20.844Z</time></trkpt><trkpt lat="44.0007563" lon="8.0214232"><ele>436.0</ele><time>2026-04-19T07:37:22.842Z</time></trkpt><trkpt lat="44.000819" lon="8.0214081"><ele>436.0</ele><time>2026-04-19T07:37:23.844Z</time></trkpt><trkpt lat="44.000952" lon="8.0214029"><ele>436.0</ele><time>2026-04-19T07:37:25.844Z</time></trkpt><trkpt lat="44.0010328" lon="8.0214084"><ele>438.8</ele><time>2026-04-19T07:37:26.844Z</time></trkpt><trkpt lat="44.0011183" lon="8.0214394"><ele>441.6</ele><time>2026-04-19T07:37:27.844Z</time></trkpt><trkpt lat="44.0012084" lon="8.0214469"><ele>444.4</ele><time>2026-04-19T07:37:28.843Z</time></trkpt><trkpt lat="44.0013139" lon="8.0214771"><ele>447.2</ele><time>2026-04-19T07:37:29.844Z</time></trkpt><trkpt lat="44.0014103" lon="8.0215384"><ele>450.0</ele><time>2026-04-19T07:37:30.844Z</time></trkpt><trkpt lat="44.0015008" lon="8.021619"><ele>446.75</ele><time>2026-04-19T07:37:31.844Z</time></trkpt><trkpt lat="44.001598" lon="8.0217069"><ele>443.5</ele><time>2026-04-19T07:37:32.844Z</time></trkpt><trkpt lat="44.001697" lon="8.021784"><ele>440.25</ele><time>2026-04-19T07:37:33.843Z</time></trkpt><trkpt lat="44.0017975" lon="8.0218549"><ele>437.0</ele><time>2026-04-19T07:37:34.843Z</time></trkpt><trkpt lat="44.0019032" lon="8.0219227"><ele>437.0</ele><time>2026-04-19T07:37:35.844Z</time></trkpt><trkpt lat="44.0020095" lon="8.0219946"><ele>437.0</ele><time>2026-04-19T07:37:36.842Z</time></trkpt><trkpt lat="44.0021192" lon="8.0220673"><ele>437.0</ele><time>2026-04-19T07:37:37.844Z</time></trkpt><trkpt lat="44.0022269" lon="8.0221365"><ele>437.0</ele><time>2026-04-19T07:37:38.844Z</time></trkpt><trkpt lat="44.0023304" lon="8.0222217"><ele>437.0</ele><time>2026-04-19T07:37:39.844Z</time></trkpt><trkpt lat="44.0024293" lon="8.0222962"><ele>437.00000000000006</ele><time>2026-04-19T07:37:40.844Z</time></trkpt><trkpt lat="44.0025256" lon="8.0223649"><ele>437.00000000000006</ele><time>2026-04-19T07:37:41.844Z</time></trkpt><trkpt lat="44.0026273" lon="8.0224341"><ele>437.0</ele><time>2026-04-19T07:37:42.843Z</time></trkpt><trkpt lat="44.0027202" lon="8.0224097"><ele>437.0</ele><time>2026-04-19T07:37:43.843Z</time></trkpt><trkpt lat="44.0028048" lon="8.0223938"><ele>436.6</ele><time>2026-04-19T07:37:44.844Z</time></trkpt><trkpt lat="44.0028811" lon="8.0223519"><ele>436.20000000000005</ele><time>2026-04-19T07:37:45.844Z</time></trkpt><trkpt lat="44.0030077" lon="8.0223384"><ele>435.8</ele><time>2026-04-19T07:37:47.843Z</time></trkpt><trkpt lat="44.0030766" lon="8.0224045"><ele>435.4</ele><time>2026-04-19T07:37:48.844Z</time></trkpt><trkpt lat="44.003137" lon="8.0224899"><ele>435.0</ele><time>2026-04-19T07:37:49.842Z</time></trkpt><trkpt lat="44.0031919" lon="8.0225859"><ele>435.0</ele><time>2026-04-19T07:37:50.842Z</time></trkpt><trkpt lat="44.0032556" lon="8.0226823"><ele>435.0</ele><time>2026-04-19T07:37:51.843Z</time></trkpt><trkpt lat="44.0033194" lon="8.0227851"><ele>435.0</ele><time>2026-04-19T07:37:52.844Z</time></trkpt><trkpt lat="44.0033789" lon="8.0229013"><ele>435.0</ele><time>2026-04-19T07:37:53.844Z</time></trkpt><trkpt lat="44.0034371" lon="8.0230293"><ele>435.0</ele><time>2026-04-19T07:37:54.844Z</time></trkpt><trkpt lat="44.0034889" lon="8.023166"><ele>437.0</ele><time>2026-04-19T07:37:55.844Z</time></trkpt><trkpt lat="44.0035177" lon="8.0233218"><ele>439.0</ele><time>2026-04-19T07:37:56.843Z</time></trkpt><trkpt lat="44.0035239" lon="8.0234778"><ele>441.0</ele><time>2026-04-19T07:37:57.843Z</time></trkpt><trkpt lat="44.0035121" lon="8.0236376"><ele>443.0</ele><time>2026-04-19T07:37:58.843Z</time></trkpt><trkpt lat="44.0034939" lon="8.0238016"><ele>443.0</ele><time>2026-04-19T07:37:59.844Z</time></trkpt><trkpt lat="44.003463" lon="8.0239242"><ele>442.99999999999994</ele><time>2026-04-19T07:38:00.844Z</time></trkpt><trkpt lat="44.0034609" lon="8.0240519"><ele>442.99999999999994</ele><time>2026-04-19T07:38:01.844Z</time></trkpt><trkpt lat="44.0034874" lon="8.0241664"><ele>443.0</ele><time>2026-04-19T07:38:02.844Z</time></trkpt><trkpt lat="44.0035422" lon="8.0242758"><ele>443.0</ele><time>2026-04-19T07:38:03.843Z</time></trkpt><trkpt lat="44.0036043" lon="8.0243674"><ele>442.49999999999994</ele><time>2026-04-19T07:38:04.845Z</time></trkpt><trkpt lat="44.0036714" lon="8.0244538"><ele>442.0</ele><time>2026-04-19T07:38:05.844Z</time></trkpt><trkpt lat="44.0037391" lon="8.0245262"><ele>441.5</ele><time>2026-04-19T07:38:06.843Z</time></trkpt><trkpt lat="44.0038118" lon="8.024582"><ele>441.0</ele><time>2026-04-19T07:38:07.843Z</time></trkpt><trkpt lat="44.0038859" lon="8.0245993"><ele>440.49999999999994</ele><time>2026-04-19T07:38:08.844Z</time></trkpt><trkpt lat="44.0039628" lon="8.0245871"><ele>440.0</ele><time>2026-04-19T07:38:09.844Z</time></trkpt><trkpt lat="44.0040394" lon="8.0245461"><ele>439.99999999999994</ele><time>2026-04-19T07:38:10.844Z</time></trkpt><trkpt lat="44.0041203" lon="8.0245167"><ele>440.0</ele><time>2026-04-19T07:38:11.843Z</time></trkpt><trkpt lat="44.0042007" lon="8.0245216"><ele>440.0</ele><time>2026-04-19T07:38:12.844Z</time></trkpt><trkpt lat="44.0042781" lon="8.0245555"><ele>440.0</ele><time>2026-04-19T07:38:13.845Z</time></trkpt><trkpt lat="44.0043524" lon="8.0245949"><ele>439.99999999999994</ele><time>2026-04-19T07:38:14.844Z</time></trkpt><trkpt lat="44.0044016" lon="8.0246932"><ele>440.0</ele><time>2026-04-19T07:38:15.844Z</time></trkpt><trkpt lat="44.0044191" lon="8.0248256"><ele>442.66666666666663</ele><time>2026-04-19T07:38:16.844Z</time></trkpt><trkpt lat="44.0044335" lon="8.02494"><ele>445.3333333333333</ele><time>2026-04-19T07:38:17.844Z</time></trkpt><trkpt lat="44.0044208" lon="8.0250337"><ele>448.0</ele><time>2026-04-19T07:38:18.843Z</time></trkpt><trkpt lat="44.0043789" lon="8.0251163"><ele>450.66666666666663</ele><time>2026-04-19T07:38:19.844Z</time></trkpt><trkpt lat="44.004317" lon="8.0252009"><ele>453.3333333333333</ele><time>2026-04-19T07:38:20.844Z</time></trkpt><trkpt lat="44.0042662" lon="8.0252775"><ele>456.0</ele><time>2026-04-19T07:38:21.844Z</time></trkpt><trkpt lat="44.0042258" lon="8.0253683"><ele>456.0</ele><time>2026-04-19T07:38:22.843Z</time></trkpt><trkpt lat="44.0042268" lon="8.0254697"><ele>456.0</ele><time>2026-04-19T07:38:23.845Z</time></trkpt><trkpt lat="44.0042374" lon="8.0255787"><ele>456.0</ele><time>2026-04-19T07:38:24.842Z</time></trkpt><trkpt lat="44.0042596" lon="8.0257119"><ele>456.0</ele><time>2026-04-19T07:38:25.845Z</time></trkpt><trkpt lat="44.0042878" lon="8.0258415"><ele>456.0</ele><time>2026-04-19T07:38:26.843Z</time></trkpt><trkpt lat="44.0043326" lon="8.0259558"><ele>456.0</ele><time>2026-04-19T07:38:27.843Z</time></trkpt><trkpt lat="44.0044025" lon="8.0260557"><ele>455.0</ele><time>2026-04-19T07:38:28.842Z</time></trkpt><trkpt lat="44.0044734" lon="8.0261587"><ele>454.0</ele><time>2026-04-19T07:38:29.844Z</time></trkpt><trkpt lat="44.0045576" lon="8.0262435"><ele>453.0</ele><time>2026-04-19T07:38:30.843Z</time></trkpt><trkpt lat="44.0046393" lon="8.0263341"><ele>452.0</ele><time>2026-04-19T07:38:31.843Z</time></trkpt><trkpt lat="44.0047051" lon="8.0264302"><ele>451.0</ele><time>2026-04-19T07:38:32.844Z</time></trkpt><trkpt lat="44.0047425" lon="8.0265204"><ele>451.00000000000006</ele><time>2026-04-19T07:38:33.844Z</time></trkpt><trkpt lat="44.0047574" lon="8.0266295"><ele>451.0</ele><time>2026-04-19T07:38:34.842Z</time></trkpt><trkpt lat="44.004772" lon="8.0267451"><ele>451.0</ele><time>2026-04-19T07:38:35.844Z</time></trkpt><trkpt lat="44.0048156" lon="8.0268305"><ele>451.0</ele><time>2026-04-19T07:38:36.843Z</time></trkpt><trkpt lat="44.0048691" lon="8.0269155"><ele>451.00000000000006</ele><time>2026-04-19T07:38:37.844Z</time></trkpt><trkpt lat="44.004938" lon="8.0269934"><ele>451.0</ele><time>2026-04-19T07:38:38.844Z</time></trkpt><trkpt lat="44.0049958" lon="8.027084"><ele>452.6666666666667</ele><time>2026-04-19T07:38:39.844Z</time></trkpt><trkpt lat="44.0050514" lon="8.0271834"><ele>454.33333333333337</ele><time>2026-04-19T07:38:40.843Z</time></trkpt><trkpt lat="44.0050982" lon="8.0272889"><ele>456.0</ele><time>2026-04-19T07:38:41.843Z</time></trkpt><trkpt lat="44.0051378" lon="8.0273925"><ele>457.66666666666663</ele><time>2026-04-19T07:38:42.843Z</time></trkpt><trkpt lat="44.0051654" lon="8.0274845"><ele>459.3333333333333</ele><time>2026-04-19T07:38:43.845Z</time></trkpt><trkpt lat="44.005218" lon="8.0275934"><ele>461.0</ele><time>2026-04-19T07:38:45.842Z</time></trkpt><trkpt lat="44.0052831" lon="8.0275425"><ele>462.3333333333333</ele><time>2026-04-19T07:38:48.844Z</time></trkpt><trkpt lat="44.0052566" lon="8.0273948"><ele>463.66666666666663</ele><time>2026-04-19T07:38:50.844Z</time></trkpt><trkpt lat="44.0052497" lon="8.0272966"><ele>465.0</ele><time>2026-04-19T07:38:51.844Z</time></trkpt><trkpt lat="44.0052419" lon="8.0271941"><ele>466.33333333333337</ele><time>2026-04-19T07:38:52.844Z</time></trkpt><trkpt lat="44.005227" lon="8.0270946"><ele>467.6666666666667</ele><time>2026-04-19T07:38:53.843Z</time></trkpt><trkpt lat="44.0052212" lon="8.0269954"><ele>469.0</ele><time>2026-04-19T07:38:54.844Z</time></trkpt><trkpt lat="44.0052137" lon="8.0268979"><ele>469.0</ele><time>2026-04-19T07:38:55.842Z</time></trkpt><trkpt lat="44.0052052" lon="8.0268028"><ele>469.0</ele><time>2026-04-19T07:38:56.844Z</time></trkpt><trkpt lat="44.0051999" lon="8.026708"><ele>469.0</ele><time>2026-04-19T07:38:57.845Z</time></trkpt><trkpt lat="44.0051868" lon="8.0266157"><ele>469.0</ele><time>2026-04-19T07:38:58.843Z</time></trkpt><trkpt lat="44.0051768" lon="8.0265143"><ele>469.0</ele><time>2026-04-19T07:38:59.844Z</time></trkpt><trkpt lat="44.0051753" lon="8.0264083"><ele>469.0</ele><time>2026-04-19T07:39:00.843Z</time></trkpt><trkpt lat="44.0051675" lon="8.0262992"><ele>469.0</ele><time>2026-04-19T07:39:01.844Z</time></trkpt><trkpt lat="44.0051695" lon="8.0261921"><ele>469.79999999999995</ele><time>2026-04-19T07:39:02.843Z</time></trkpt><trkpt lat="44.0051761" lon="8.0260687"><ele>470.59999999999997</ele><time>2026-04-19T07:39:03.844Z</time></trkpt><trkpt lat="44.0051905" lon="8.0259451"><ele>471.4</ele><time>2026-04-19T07:39:04.844Z</time></trkpt><trkpt lat="44.0052097" lon="8.0258127"><ele>472.2</ele><time>2026-04-19T07:39:05.843Z</time></trkpt><trkpt lat="44.0052281" lon="8.0256789"><ele>473.0</ele><time>2026-04-19T07:39:06.844Z</time></trkpt><trkpt lat="44.0052394" lon="8.0255355"><ele>473.59999999999997</ele><time>2026-04-19T07:39:07.845Z</time></trkpt><trkpt lat="44.0052484" lon="8.0253944"><ele>474.19999999999993</ele><time>2026-04-19T07:39:08.842Z</time></trkpt><trkpt lat="44.0052587" lon="8.0252455"><ele>474.8</ele><time>2026-04-19T07:39:09.844Z</time></trkpt><trkpt lat="44.0052712" lon="8.0250943"><ele>475.4</ele><time>2026-04-19T07:39:10.843Z</time></trkpt><trkpt lat="44.005279" lon="8.0249342"><ele>476.0</ele><time>2026-04-19T07:39:11.844Z</time></trkpt><trkpt lat="44.0052948" lon="8.0247805"><ele>476.4</ele><time>2026-04-19T07:39:12.844Z</time></trkpt><trkpt lat="44.0053099" lon="8.0246207"><ele>476.8</ele><time>2026-04-19T07:39:13.845Z</time></trkpt><trkpt lat="44.0053217" lon="8.0244685"><ele>477.19999999999993</ele><time>2026-04-19T07:39:14.844Z</time></trkpt><trkpt lat="44.0053335" lon="8.0243209"><ele>477.59999999999997</ele><time>2026-04-19T07:39:15.843Z</time></trkpt><trkpt lat="44.005346" lon="8.0241894"><ele>478.0</ele><time>2026-04-19T07:39:16.844Z</time></trkpt><trkpt lat="44.0053518" lon="8.0240773"><ele>478.00000000000006</ele><time>2026-04-19T07:39:17.845Z</time></trkpt><trkpt lat="44.0053548" lon="8.0239847"><ele>478.0</ele><time>2026-04-19T07:39:18.844Z</time></trkpt><trkpt lat="44.0054077" lon="8.0239057"><ele>478.0</ele><time>2026-04-19T07:39:20.844Z</time></trkpt><trkpt lat="44.0054711" lon="8.0239809"><ele>478.0</ele><time>2026-04-19T07:39:22.844Z</time></trkpt><trkpt lat="44.0054819" lon="8.024167"><ele>478.00000000000006</ele><time>2026-04-19T07:39:24.844Z</time></trkpt><trkpt lat="44.0054865" lon="8.0242719"><ele>478.0</ele><time>2026-04-19T07:39:25.844Z</time></trkpt><trkpt lat="44.005495" lon="8.0243846"><ele>478.00000000000006</ele><time>2026-04-19T07:39:26.843Z</time></trkpt><trkpt lat="44.0055113" lon="8.0245008"><ele>478.0</ele><time>2026-04-19T07:39:27.844Z</time></trkpt><trkpt lat="44.0055202" lon="8.024619"><ele>478.0</ele><time>2026-04-19T07:39:28.844Z</time></trkpt><trkpt lat="44.0055308" lon="8.0247421"><ele>478.0</ele><time>2026-04-19T07:39:29.843Z</time></trkpt><trkpt lat="44.0055455" lon="8.0248605"><ele>478.00000000000006</ele><time>2026-04-19T07:39:30.844Z</time></trkpt><trkpt lat="44.0055618" lon="8.0249868"><ele>478.0</ele><time>2026-04-19T07:39:31.844Z</time></trkpt><trkpt lat="44.0055771" lon="8.0251031"><ele>477.59999999999997</ele><time>2026-04-19T07:39:32.843Z</time></trkpt><trkpt lat="44.005589" lon="8.0252113"><ele>477.19999999999993</ele><time>2026-04-19T07:39:33.844Z</time></trkpt><trkpt lat="44.0055962" lon="8.0253455"><ele>476.8</ele><time>2026-04-19T07:39:34.843Z</time></trkpt><trkpt lat="44.00561" lon="8.0254734"><ele>476.4</ele><time>2026-04-19T07:39:35.843Z</time></trkpt><trkpt lat="44.0056304" lon="8.0256285"><ele>476.0</ele><time>2026-04-19T07:39:36.844Z</time></trkpt><trkpt lat="44.0056376" lon="8.0257637"><ele>475.4</ele><time>2026-04-19T07:39:37.842Z</time></trkpt><trkpt lat="44.005647" lon="8.0258931"><ele>474.8</ele><time>2026-04-19T07:39:38.844Z</time></trkpt><trkpt lat="44.0056577" lon="8.0260253"><ele>474.19999999999993</ele><time>2026-04-19T07:39:39.843Z</time></trkpt><trkpt lat="44.0056653" lon="8.0261563"><ele>473.59999999999997</ele><time>2026-04-19T07:39:40.844Z</time></trkpt><trkpt lat="44.0056928" lon="8.026287"><ele>473.0</ele><time>2026-04-19T07:39:41.843Z</time></trkpt><trkpt lat="44.0057421" lon="8.026398"><ele>472.99999999999994</ele><time>2026-04-19T07:39:42.843Z</time></trkpt><trkpt lat="44.0058016" lon="8.0264952"><ele>473.0</ele><time>2026-04-19T07:39:43.845Z</time></trkpt><trkpt lat="44.005896" lon="8.0264998"><ele>473.0</ele><time>2026-04-19T07:39:44.844Z</time></trkpt><trkpt lat="44.0059727" lon="8.0264825"><ele>473.0</ele><time>2026-04-19T07:39:45.845Z</time></trkpt><trkpt lat="44.0060435" lon="8.0264385"><ele>472.99999999999994</ele><time>2026-04-19T07:39:46.843Z</time></trkpt><trkpt lat="44.0061158" lon="8.0263837"><ele>473.0</ele><time>2026-04-19T07:39:47.843Z</time></trkpt><trkpt lat="44.0061941" lon="8.0263202"><ele>478.79999999999995</ele><time>2026-04-19T07:39:48.844Z</time></trkpt><trkpt lat="44.0062715" lon="8.0262494"><ele>484.59999999999997</ele><time>2026-04-19T07:39:49.843Z</time></trkpt><trkpt lat="44.0063552" lon="8.0261779"><ele>490.40000000000003</ele><time>2026-04-19T07:39:50.844Z</time></trkpt><trkpt lat="44.0064376" lon="8.0260998"><ele>496.20000000000005</ele><time>2026-04-19T07:39:51.844Z</time></trkpt><trkpt lat="44.0065249" lon="8.0260161"><ele>502.0</ele><time>2026-04-19T07:39:52.843Z</time></trkpt><trkpt lat="44.0066147" lon="8.0259367"><ele>503.0</ele><time>2026-04-19T07:39:53.843Z</time></trkpt><trkpt lat="44.0067103" lon="8.0258771"><ele>504.00000000000006</ele><time>2026-04-19T07:39:54.843Z</time></trkpt><trkpt lat="44.0068135" lon="8.0258248"><ele>505.00000000000006</ele><time>2026-04-19T07:39:55.843Z</time></trkpt><trkpt lat="44.006917" lon="8.0257845"><ele>506.0</ele><time>2026-04-19T07:39:56.844Z</time></trkpt><trkpt lat="44.0070269" lon="8.0257647"><ele>507.0</ele><time>2026-04-19T07:39:57.843Z</time></trkpt><trkpt lat="44.0071385" lon="8.0257458"><ele>509.8</ele><time>2026-04-19T07:39:58.843Z</time></trkpt><trkpt lat="44.0072388" lon="8.0257121"><ele>512.6</ele><time>2026-04-19T07:39:59.844Z</time></trkpt><trkpt lat="44.0073423" lon="8.0256702"><ele>515.4000000000001</ele><time>2026-04-19T07:40:00.843Z</time></trkpt><trkpt lat="44.0074418" lon="8.025631"><ele>518.2</ele><time>2026-04-19T07:40:01.843Z</time></trkpt><trkpt lat="44.007535" lon="8.0255712"><ele>521.0</ele><time>2026-04-19T07:40:02.844Z</time></trkpt><trkpt lat="44.0076252" lon="8.0255026"><ele>523.4</ele><time>2026-04-19T07:40:03.844Z</time></trkpt><trkpt lat="44.0077097" lon="8.02541"><ele>525.8</ele><time>2026-04-19T07:40:04.845Z</time></trkpt><trkpt lat="44.0078022" lon="8.0253226"><ele>528.1999999999999</ele><time>2026-04-19T07:40:05.844Z</time></trkpt><trkpt lat="44.0078946" lon="8.0252499"><ele>530.6</ele><time>2026-04-19T07:40:06.844Z</time></trkpt><trkpt lat="44.0079911" lon="8.0251822"><ele>533.0</ele><time>2026-04-19T07:40:07.843Z</time></trkpt><trkpt lat="44.0080833" lon="8.0251235"><ele>533.0</ele><time>2026-04-19T07:40:08.843Z</time></trkpt><trkpt lat="44.0081787" lon="8.0250731"><ele>533.0</ele><time>2026-04-19T07:40:09.844Z</time></trkpt><trkpt lat="44.0082737" lon="8.0250168"><ele>533.0</ele><time>2026-04-19T07:40:10.845Z</time></trkpt><trkpt lat="44.0083706" lon="8.0249575"><ele>533.0</ele><time>2026-04-19T07:40:11.844Z</time></trkpt><trkpt lat="44.0084714" lon="8.0249001"><ele>533.0</ele><time>2026-04-19T07:40:12.843Z</time></trkpt><trkpt lat="44.0085731" lon="8.0248466"><ele>539.1999999999999</ele><time>2026-04-19T07:40:13.844Z</time></trkpt><trkpt lat="44.008674" lon="8.0247982"><ele>545.4</ele><time>2026-04-19T07:40:14.844Z</time></trkpt><trkpt lat="44.0087798" lon="8.0247408"><ele>551.5999999999999</ele><time>2026-04-19T07:40:15.843Z</time></trkpt><trkpt lat="44.0088838" lon="8.0246855"><ele>557.8</ele><time>2026-04-19T07:40:16.842Z</time></trkpt><trkpt lat="44.0089855" lon="8.0246478"><ele>564.0</ele><time>2026-04-19T07:40:17.842Z</time></trkpt><trkpt lat="44.0090877" lon="8.0245934"><ele>561.2</ele><time>2026-04-19T07:40:18.845Z</time></trkpt><trkpt lat="44.0091819" lon="8.0245214"><ele>558.4</ele><time>2026-04-19T07:40:19.843Z</time></trkpt><trkpt lat="44.0092666" lon="8.0244314"><ele>555.6</ele><time>2026-04-19T07:40:20.845Z</time></trkpt><trkpt lat="44.0093429" lon="8.0243121"><ele>552.8</ele><time>2026-04-19T07:40:21.844Z</time></trkpt><trkpt lat="44.0094102" lon="8.0241889"><ele>550.0</ele><time>2026-04-19T07:40:22.844Z</time></trkpt><trkpt lat="44.009474" lon="8.0240616"><ele>557.0</ele><time>2026-04-19T07:40:23.843Z</time></trkpt><trkpt lat="44.0095456" lon="8.0239396"><ele>564.0</ele><time>2026-04-19T07:40:24.844Z</time></trkpt><trkpt lat="44.0096256" lon="8.0238166"><ele>571.0</ele><time>2026-04-19T07:40:25.844Z</time></trkpt><trkpt lat="44.0097062" lon="8.0236997"><ele>578.0</ele><time>2026-04-19T07:40:26.844Z</time></trkpt><trkpt lat="44.0097841" lon="8.0235876"><ele>578.0</ele><time>2026-04-19T07:40:27.844Z</time></trkpt><trkpt lat="44.0098587" lon="8.0234853"><ele>578.0</ele><time>2026-04-19T07:40:28.843Z</time></trkpt><trkpt lat="44.0099447" lon="8.0234304"><ele>578.0</ele><time>2026-04-19T07:40:29.844Z</time></trkpt><trkpt lat="44.0100256" lon="8.0233895"><ele>578.0</ele><time>2026-04-19T07:40:30.844Z</time></trkpt><trkpt lat="44.0101113" lon="8.0234281"><ele>578.0</ele><time>2026-04-19T07:40:31.843Z</time></trkpt><trkpt lat="44.0101919" lon="8.023437"><ele>576.4</ele><time>2026-04-19T07:40:32.843Z</time></trkpt><trkpt lat="44.0102805" lon="8.0234265"><ele>574.8</ele><time>2026-04-19T07:40:33.843Z</time></trkpt><trkpt lat="44.010366" lon="8.0234006"><ele>573.2</ele><time>2026-04-19T07:40:34.843Z</time></trkpt><trkpt lat="44.0104525" lon="8.0233623"><ele>571.6</ele><time>2026-04-19T07:40:35.844Z</time></trkpt><trkpt lat="44.0105452" lon="8.0233165"><ele>570.0</ele><time>2026-04-19T07:40:36.844Z</time></trkpt><trkpt lat="44.0106424" lon="8.0232772"><ele>570.0</ele><time>2026-04-19T07:40:37.844Z</time></trkpt><trkpt lat="44.0107374" lon="8.0232435"><ele>570.0</ele><time>2026-04-19T07:40:38.843Z</time></trkpt><trkpt lat="44.0108354" lon="8.0232017"><ele>570.0</ele><time>2026-04-19T07:40:39.843Z</time></trkpt><trkpt lat="44.0109392" lon="8.0231819"><ele>570.0</ele><time>2026-04-19T07:40:40.844Z</time></trkpt><trkpt lat="44.0110485" lon="8.0231819"><ele>570.0</ele><time>2026-04-19T07:40:41.843Z</time></trkpt><trkpt lat="44.0111482" lon="8.023242"><ele>570.0</ele><time>2026-04-19T07:40:42.842Z</time></trkpt><trkpt lat="44.011254" lon="8.0232541"><ele>570.0</ele><time>2026-04-19T07:40:43.843Z</time></trkpt><trkpt lat="44.0113613" lon="8.0232668"><ele>570.0</ele><time>2026-04-19T07:40:44.844Z</time></trkpt><trkpt lat="44.0114491" lon="8.0232973"><ele>570.0</ele><time>2026-04-19T07:40:45.844Z</time></trkpt><trkpt lat="44.0115372" lon="8.0233933"><ele>570.0</ele><time>2026-04-19T07:40:46.844Z</time></trkpt><trkpt lat="44.0116308" lon="8.0234519"><ele>565.6</ele><time>2026-04-19T07:40:47.844Z</time></trkpt><trkpt lat="44.0117363" lon="8.0234908"><ele>561.2</ele><time>2026-04-19T07:40:48.844Z</time></trkpt><trkpt lat="44.0118446" lon="8.0235038"><ele>556.8</ele><time>2026-04-19T07:40:49.844Z</time></trkpt><trkpt lat="44.0119418" lon="8.0234959"><ele>552.4</ele><time>2026-04-19T07:40:50.844Z</time></trkpt><trkpt lat="44.0120164" lon="8.0234784"><ele>548.0</ele><time>2026-04-19T07:40:51.842Z</time></trkpt><trkpt lat="44.0121122" lon="8.0233914"><ele>549.6666666666666</ele><time>2026-04-19T07:40:53.844Z</time></trkpt><trkpt lat="44.0121019" lon="8.0232364"><ele>551.3333333333333</ele><time>2026-04-19T07:40:55.844Z</time></trkpt><trkpt lat="44.0120678" lon="8.0231611"><ele>553.0</ele><time>2026-04-19T07:40:56.844Z</time></trkpt><trkpt lat="44.0120171" lon="8.0230825"><ele>554.6666666666666</ele><time>2026-04-19T07:40:57.842Z</time></trkpt><trkpt lat="44.0119627" lon="8.0229992"><ele>556.3333333333334</ele><time>2026-04-19T07:40:58.844Z</time></trkpt><trkpt lat="44.011903" lon="8.0229166"><ele>558.0</ele><time>2026-04-19T07:40:59.842Z</time></trkpt><trkpt lat="44.0118416" lon="8.0228325"><ele>558.0</ele><time>2026-04-19T07:41:00.844Z</time></trkpt><trkpt lat="44.011772" lon="8.0227429"><ele>558.0</ele><time>2026-04-19T07:41:01.843Z</time></trkpt><trkpt lat="44.0116912" lon="8.0226778"><ele>558.0</ele><time>2026-04-19T07:41:02.845Z</time></trkpt><trkpt lat="44.0115986" lon="8.0226153"><ele>558.0</ele><time>2026-04-19T07:41:03.843Z</time></trkpt><trkpt lat="44.0115065" lon="8.0225522"><ele>558.0</ele><time>2026-04-19T07:41:04.844Z</time></trkpt><trkpt lat="44.0114163" lon="8.0224788"><ele>557.8</ele><time>2026-04-19T07:41:05.843Z</time></trkpt><trkpt lat="44.0113266" lon="8.0223878"><ele>557.5999999999999</ele><time>2026-04-19T07:41:06.844Z</time></trkpt><trkpt lat="44.0112468" lon="8.0222956"><ele>557.4000000000001</ele><time>2026-04-19T07:41:07.843Z</time></trkpt><trkpt lat="44.01116" lon="8.022204"><ele>557.2</ele><time>2026-04-19T07:41:08.843Z</time></trkpt><trkpt lat="44.0110798" lon="8.0221071"><ele>557.0</ele><time>2026-04-19T07:41:09.844Z</time></trkpt><trkpt lat="44.0109997" lon="8.0220098"><ele>557.0</ele><time>2026-04-19T07:41:10.845Z</time></trkpt><trkpt lat="44.0109275" lon="8.0219296"><ele>557.0</ele><time>2026-04-19T07:41:11.843Z</time></trkpt><trkpt lat="44.0108459" lon="8.021875"><ele>557.0</ele><time>2026-04-19T07:41:12.844Z</time></trkpt><trkpt lat="44.0107581" lon="8.0218576"><ele>557.0</ele><time>2026-04-19T07:41:13.844Z</time></trkpt><trkpt lat="44.0106678" lon="8.0218766"><ele>557.0</ele><time>2026-04-19T07:41:14.844Z</time></trkpt><trkpt lat="44.0105736" lon="8.021904"><ele>556.8000000000001</ele><time>2026-04-19T07:41:15.843Z</time></trkpt><trkpt lat="44.0104738" lon="8.021932"><ele>556.6</ele><time>2026-04-19T07:41:16.844Z</time></trkpt><trkpt lat="44.0103765" lon="8.0219648"><ele>556.4000000000001</ele><time>2026-04-19T07:41:17.844Z</time></trkpt><trkpt lat="44.0102747" lon="8.0220136"><ele>556.2</ele><time>2026-04-19T07:41:18.843Z</time></trkpt><trkpt lat="44.0101777" lon="8.0220659"><ele>556.0</ele><time>2026-04-19T07:41:19.844Z</time></trkpt><trkpt lat="44.0100835" lon="8.0221236"><ele>559.6</ele><time>2026-04-19T07:41:20.842Z</time></trkpt><trkpt lat="44.0099875" lon="8.0221647"><ele>563.2</ele><time>2026-04-19T07:41:21.843Z</time></trkpt><trkpt lat="44.0098907" lon="8.0221842"><ele>566.8</ele><time>2026-04-19T07:41:22.844Z</time></trkpt><trkpt lat="44.0097874" lon="8.0221739"><ele>570.4</ele><time>2026-04-19T07:41:23.844Z</time></trkpt><trkpt lat="44.0096846" lon="8.0221497"><ele>574.0</ele><time>2026-04-19T07:41:24.844Z</time></trkpt><trkpt lat="44.0095787" lon="8.0221106"><ele>574.0</ele><time>2026-04-19T07:41:25.844Z</time></trkpt><trkpt lat="44.0094764" lon="8.0220529"><ele>574.0</ele><time>2026-04-19T07:41:26.844Z</time></trkpt><trkpt lat="44.0093755" lon="8.0219777"><ele>574.0</ele><time>2026-04-19T07:41:27.843Z</time></trkpt><trkpt lat="44.0092718" lon="8.021892"><ele>574.0</ele><time>2026-04-19T07:41:28.843Z</time></trkpt><trkpt lat="44.0091705" lon="8.0218034"><ele>577.25</ele><time>2026-04-19T07:41:29.843Z</time></trkpt><trkpt lat="44.0090638" lon="8.0217068"><ele>580.5</ele><time>2026-04-19T07:41:30.844Z</time></trkpt><trkpt lat="44.0089632" lon="8.0216109"><ele>583.75</ele><time>2026-04-19T07:41:31.843Z</time></trkpt><trkpt lat="44.0088554" lon="8.0215203"><ele>587.0</ele><time>2026-04-19T07:41:32.844Z</time></trkpt><trkpt lat="44.0087581" lon="8.0214233"><ele>587.0</ele><time>2026-04-19T07:41:33.843Z</time></trkpt><trkpt lat="44.008677" lon="8.0213042"><ele>587.0</ele><time>2026-04-19T07:41:34.844Z</time></trkpt><trkpt lat="44.0086092" lon="8.0211646"><ele>587.0</ele><time>2026-04-19T07:41:35.843Z</time></trkpt><trkpt lat="44.0085616" lon="8.0210144"><ele>587.0</ele><time>2026-04-19T07:41:36.843Z</time></trkpt><trkpt lat="44.0085253" lon="8.020847"><ele>585.0</ele><time>2026-04-19T07:41:37.843Z</time></trkpt><trkpt lat="44.0084727" lon="8.0206804"><ele>583.0</ele><time>2026-04-19T07:41:38.843Z</time></trkpt><trkpt lat="44.0084097" lon="8.020518"><ele>581.0</ele><time>2026-04-19T07:41:39.844Z</time></trkpt><trkpt lat="44.0083324" lon="8.0203541"><ele>579.0</ele><time>2026-04-19T07:41:40.844Z</time></trkpt><trkpt lat="44.0082546" lon="8.02021"><ele>579.0</ele><time>2026-04-19T07:41:41.843Z</time></trkpt><trkpt lat="44.0081813" lon="8.0200731"><ele>579.0</ele><time>2026-04-19T07:41:42.844Z</time></trkpt><trkpt lat="44.0080952" lon="8.01995"><ele>579.0</ele><time>2026-04-19T07:41:43.844Z</time></trkpt><trkpt lat="44.0079845" lon="8.019865"><ele>579.0</ele><time>2026-04-19T07:41:44.844Z</time></trkpt><trkpt lat="44.0078704" lon="8.019785"><ele>576.75</ele><time>2026-04-19T07:41:45.844Z</time></trkpt><trkpt lat="44.0077537" lon="8.019722"><ele>574.5</ele><time>2026-04-19T07:41:46.843Z</time></trkpt><trkpt lat="44.0076404" lon="8.0196726"><ele>572.25</ele><time>2026-04-19T07:41:47.844Z</time></trkpt><trkpt lat="44.0075407" lon="8.0196511"><ele>570.0</ele><time>2026-04-19T07:41:48.844Z</time></trkpt><trkpt lat="44.0074352" lon="8.0196606"><ele>570.0</ele><time>2026-04-19T07:41:49.844Z</time></trkpt><trkpt lat="44.0073343" lon="8.0197042"><ele>570.0</ele><time>2026-04-19T07:41:50.843Z</time></trkpt><trkpt lat="44.0072258" lon="8.0197443"><ele>570.0</ele><time>2026-04-19T07:41:51.843Z</time></trkpt><trkpt lat="44.0071228" lon="8.019782"><ele>570.0</ele><time>2026-04-19T07:41:52.843Z</time></trkpt><trkpt lat="44.0070241" lon="8.0197876"><ele>570.0</ele><time>2026-04-19T07:41:53.843Z</time></trkpt><trkpt lat="44.0069283" lon="8.0197607"><ele>570.0</ele><time>2026-04-19T07:41:54.843Z</time></trkpt><trkpt lat="44.0068445" lon="8.019695"><ele>570.0</ele><time>2026-04-19T07:41:55.843Z</time></trkpt><trkpt lat="44.0067675" lon="8.0196064"><ele>570.0</ele><time>2026-04-19T07:41:56.844Z</time></trkpt><trkpt lat="44.0066991" lon="8.0194995"><ele>570.0</ele><time>2026-04-19T07:41:57.843Z</time></trkpt><trkpt lat="44.0066349" lon="8.0193827"><ele>570.0</ele><time>2026-04-19T07:41:58.844Z</time></trkpt><trkpt lat="44.0065698" lon="8.019271"><ele>571.0</ele><time>2026-04-19T07:41:59.843Z</time></trkpt><trkpt lat="44.0065034" lon="8.0191593"><ele>572.0</ele><time>2026-04-19T07:42:00.844Z</time></trkpt><trkpt lat="44.0064206" lon="8.0190508"><ele>573.0</ele><time>2026-04-19T07:42:01.844Z</time></trkpt><trkpt lat="44.0063384" lon="8.0189431"><ele>574.0</ele><time>2026-04-19T07:42:02.843Z</time></trkpt><trkpt lat="44.0062494" lon="8.0188247"><ele>574.0</ele><time>2026-04-19T07:42:03.843Z</time></trkpt><trkpt lat="44.0061687" lon="8.0187032"><ele>574.0</ele><time>2026-04-19T07:42:04.858Z</time></trkpt><trkpt lat="44.0060982" lon="8.0185795"><ele>574.0</ele><time>2026-04-19T07:42:05.842Z</time></trkpt><trkpt lat="44.0060241" lon="8.0184671"><ele>574.0</ele><time>2026-04-19T07:42:06.848Z</time></trkpt><trkpt lat="44.00594" lon="8.0183743"><ele>574.0</ele><time>2026-04-19T07:42:07.848Z</time></trkpt><trkpt lat="44.0058436" lon="8.0183078"><ele>572.0</ele><time>2026-04-19T07:42:08.843Z</time></trkpt><trkpt lat="44.0057427" lon="8.0182534"><ele>570.0</ele><time>2026-04-19T07:42:09.842Z</time></trkpt><trkpt lat="44.0056358" lon="8.018209"><ele>568.0</ele><time>2026-04-19T07:42:10.847Z</time></trkpt><trkpt lat="44.0055329" lon="8.0181649"><ele>566.0</ele><time>2026-04-19T07:42:11.844Z</time></trkpt><trkpt lat="44.0054322" lon="8.0181151"><ele>564.0</ele><time>2026-04-19T07:42:12.846Z</time></trkpt><trkpt lat="44.0053277" lon="8.0180656"><ele>564.0</ele><time>2026-04-19T07:42:13.843Z</time></trkpt><trkpt lat="44.0052211" lon="8.0180201"><ele>564.0</ele><time>2026-04-19T07:42:14.843Z</time></trkpt><trkpt lat="44.005114" lon="8.0179726"><ele>564.0</ele><time>2026-04-19T07:42:15.843Z</time></trkpt><trkpt lat="44.0050107" lon="8.0179377"><ele>564.0</ele><time>2026-04-19T07:42:16.843Z</time></trkpt><trkpt lat="44.0049098" lon="8.0179117"><ele>564.0</ele><time>2026-04-19T07:42:17.843Z</time></trkpt><trkpt lat="44.0048144" lon="8.0178873"><ele>566.8</ele><time>2026-04-19T07:42:18.843Z</time></trkpt><trkpt lat="44.0047285" lon="8.0178511"><ele>569.5999999999999</ele><time>2026-04-19T07:42:19.843Z</time></trkpt><trkpt lat="44.0046552" lon="8.0177822"><ele>572.4</ele><time>2026-04-19T07:42:20.847Z</time></trkpt><trkpt lat="44.0045959" lon="8.0176804"><ele>575.1999999999999</ele><time>2026-04-19T07:42:21.843Z</time></trkpt><trkpt lat="44.0045393" lon="8.0175868"><ele>578.0</ele><time>2026-04-19T07:42:22.842Z</time></trkpt><trkpt lat="44.0044839" lon="8.0174886"><ele>576.6</ele><time>2026-04-19T07:42:23.848Z</time></trkpt><trkpt lat="44.0044253" lon="8.0173859"><ele>575.1999999999999</ele><time>2026-04-19T07:42:24.85Z</time></trkpt><trkpt lat="44.0043671" lon="8.0172886"><ele>573.8</ele><time>2026-04-19T07:42:25.843Z</time></trkpt><trkpt lat="44.0042994" lon="8.0171849"><ele>572.4</ele><time>2026-04-19T07:42:26.844Z</time></trkpt><trkpt lat="44.0042391" lon="8.0170964"><ele>571.0</ele><time>2026-04-19T07:42:27.845Z</time></trkpt><trkpt lat="44.0041658" lon="8.0170022"><ele>574.0</ele><time>2026-04-19T07:42:28.844Z</time></trkpt><trkpt lat="44.0040931" lon="8.0169062"><ele>577.0</ele><time>2026-04-19T07:42:29.844Z</time></trkpt><trkpt lat="44.0040098" lon="8.0168109"><ele>580.0</ele><time>2026-04-19T07:42:30.843Z</time></trkpt><trkpt lat="44.0039313" lon="8.0167077"><ele>583.0</ele><time>2026-04-19T07:42:31.843Z</time></trkpt><trkpt lat="44.0038494" lon="8.0166212"><ele>586.0</ele><time>2026-04-19T07:42:32.844Z</time></trkpt><trkpt lat="44.0037643" lon="8.0165289"><ele>586.0</ele><time>2026-04-19T07:42:33.844Z</time></trkpt><trkpt lat="44.0036768" lon="8.0164356"><ele>586.0</ele><time>2026-04-19T07:42:34.842Z</time></trkpt><trkpt lat="44.0035938" lon="8.0163322"><ele>586.0</ele><time>2026-04-19T07:42:35.843Z</time></trkpt><trkpt lat="44.0035163" lon="8.0162337"><ele>586.0</ele><time>2026-04-19T07:42:36.843Z</time></trkpt><trkpt lat="44.00344" lon="8.0161348"><ele>586.0</ele><time>2026-04-19T07:42:37.844Z</time></trkpt><trkpt lat="44.0033655" lon="8.0160361"><ele>587.8</ele><time>2026-04-19T07:42:38.843Z</time></trkpt><trkpt lat="44.0033053" lon="8.0159328"><ele>589.6</ele><time>2026-04-19T07:42:39.844Z</time></trkpt><trkpt lat="44.0032545" lon="8.0158015"><ele>591.4</ele><time>2026-04-19T07:42:40.843Z</time></trkpt><trkpt lat="44.0032081" lon="8.0156645"><ele>593.2</ele><time>2026-04-19T07:42:41.844Z</time></trkpt><trkpt lat="44.003173" lon="8.0155252"><ele>595.0</ele><time>2026-04-19T07:42:42.844Z</time></trkpt><trkpt lat="44.0031531" lon="8.0153789"><ele>598.25</ele><time>2026-04-19T07:42:43.843Z</time></trkpt><trkpt lat="44.0031467" lon="8.0152303"><ele>601.5</ele><time>2026-04-19T07:42:44.844Z</time></trkpt><trkpt lat="44.0031568" lon="8.0150763"><ele>604.75</ele><time>2026-04-19T07:42:45.843Z</time></trkpt><trkpt lat="44.0031709" lon="8.0149148"><ele>608.0</ele><time>2026-04-19T07:42:46.843Z</time></trkpt><trkpt lat="44.003201" lon="8.0147577"><ele>609.5</ele><time>2026-04-19T07:42:47.843Z</time></trkpt><trkpt lat="44.0032297" lon="8.0146015"><ele>611.0</ele><time>2026-04-19T07:42:48.845Z</time></trkpt><trkpt lat="44.0032633" lon="8.0144441"><ele>612.5</ele><time>2026-04-19T07:42:49.843Z</time></trkpt><trkpt lat="44.0032906" lon="8.0142862"><ele>614.0</ele><time>2026-04-19T07:42:50.843Z</time></trkpt><trkpt lat="44.0033036" lon="8.0141334"><ele>614.0</ele><time>2026-04-19T07:42:51.844Z</time></trkpt><trkpt lat="44.0032952" lon="8.0139879"><ele>614.0</ele><time>2026-04-19T07:42:52.844Z</time></trkpt><trkpt lat="44.0032577" lon="8.0138509"><ele>614.0</ele><time>2026-04-19T07:42:53.844Z</time></trkpt><trkpt lat="44.0031973" lon="8.0137261"><ele>614.0</ele><time>2026-04-19T07:42:54.843Z</time></trkpt><trkpt lat="44.0031268" lon="8.0136193"><ele>614.0</ele><time>2026-04-19T07:42:55.843Z</time></trkpt><trkpt lat="44.0030507" lon="8.0135126"><ele>614.0</ele><time>2026-04-19T07:42:56.843Z</time></trkpt><trkpt lat="44.0029789" lon="8.0134043"><ele>614.0</ele><time>2026-04-19T07:42:57.843Z</time></trkpt><trkpt lat="44.0029173" lon="8.0132793"><ele>614.0</ele><time>2026-04-19T07:42:58.844Z</time></trkpt><trkpt lat="44.0028629" lon="8.0131544"><ele>614.0</ele><time>2026-04-19T07:42:59.843Z</time></trkpt><trkpt lat="44.0028282" lon="8.0130126"><ele>614.0</ele><time>2026-04-19T07:43:00.845Z</time></trkpt><trkpt lat="44.0028014" lon="8.0128686"><ele>612.4</ele><time>2026-04-19T07:43:01.844Z</time></trkpt><trkpt lat="44.0027736" lon="8.0127262"><ele>610.8</ele><time>2026-04-19T07:43:02.843Z</time></trkpt><trkpt lat="44.0027411" lon="8.01259"><ele>609.2</ele><time>2026-04-19T07:43:03.843Z</time></trkpt><trkpt lat="44.0027013" lon="8.0124528"><ele>607.6</ele><time>2026-04-19T07:43:04.844Z</time></trkpt><trkpt lat="44.0026498" lon="8.0123199"><ele>606.0</ele><time>2026-04-19T07:43:05.843Z</time></trkpt><trkpt lat="44.0025861" lon="8.012196"><ele>605.2</ele><time>2026-04-19T07:43:06.844Z</time></trkpt><trkpt lat="44.0025213" lon="8.0120677"><ele>604.4000000000001</ele><time>2026-04-19T07:43:07.843Z</time></trkpt><trkpt lat="44.002476" lon="8.011939"><ele>603.6</ele><time>2026-04-19T07:43:08.843Z</time></trkpt><trkpt lat="44.0024435" lon="8.0118187"><ele>602.8000000000001</ele><time>2026-04-19T07:43:09.844Z</time></trkpt><trkpt lat="44.0024355" lon="8.0116768"><ele>602.0</ele><time>2026-04-19T07:43:10.844Z</time></trkpt><trkpt lat="44.0024564" lon="8.0115477"><ele>602.2</ele><time>2026-04-19T07:43:11.843Z</time></trkpt><trkpt lat="44.0024958" lon="8.0114134"><ele>602.4000000000001</ele><time>2026-04-19T07:43:12.844Z</time></trkpt><trkpt lat="44.0025154" lon="8.0112728"><ele>602.5999999999999</ele><time>2026-04-19T07:43:13.843Z</time></trkpt><trkpt lat="44.0025278" lon="8.0111302"><ele>602.8</ele><time>2026-04-19T07:43:14.842Z</time></trkpt><trkpt lat="44.0025397" lon="8.0109871"><ele>603.0</ele><time>2026-04-19T07:43:15.844Z</time></trkpt><trkpt lat="44.0025318" lon="8.0108408"><ele>602.6</ele><time>2026-04-19T07:43:16.843Z</time></trkpt><trkpt lat="44.0025201" lon="8.0106961"><ele>602.1999999999999</ele><time>2026-04-19T07:43:17.844Z</time></trkpt><trkpt lat="44.0025035" lon="8.0105617"><ele>601.8</ele><time>2026-04-19T07:43:18.843Z</time></trkpt><trkpt lat="44.0024621" lon="8.0104337"><ele>601.4</ele><time>2026-04-19T07:43:19.844Z</time></trkpt><trkpt lat="44.0024085" lon="8.0103172"><ele>601.0</ele><time>2026-04-19T07:43:20.843Z</time></trkpt><trkpt lat="44.0023484" lon="8.0102066"><ele>605.0</ele><time>2026-04-19T07:43:21.843Z</time></trkpt><trkpt lat="44.0022756" lon="8.010087"><ele>609.0</ele><time>2026-04-19T07:43:22.844Z</time></trkpt><trkpt lat="44.002216" lon="8.0099591"><ele>613.0</ele><time>2026-04-19T07:43:23.845Z</time></trkpt><trkpt lat="44.0021691" lon="8.0098358"><ele>617.0</ele><time>2026-04-19T07:43:24.844Z</time></trkpt><trkpt lat="44.0021418" lon="8.0096958"><ele>621.0</ele><time>2026-04-19T07:43:25.843Z</time></trkpt><trkpt lat="44.0021329" lon="8.0095555"><ele>621.8</ele><time>2026-04-19T07:43:26.843Z</time></trkpt><trkpt lat="44.0021395" lon="8.009421"><ele>622.6</ele><time>2026-04-19T07:43:27.842Z</time></trkpt><trkpt lat="44.0021719" lon="8.0092842"><ele>623.4</ele><time>2026-04-19T07:43:28.842Z</time></trkpt><trkpt lat="44.0022068" lon="8.00915"><ele>624.2</ele><time>2026-04-19T07:43:29.844Z</time></trkpt><trkpt lat="44.0022383" lon="8.0090104"><ele>625.0</ele><time>2026-04-19T07:43:30.843Z</time></trkpt><trkpt lat="44.0022634" lon="8.0088711"><ele>629.4</ele><time>2026-04-19T07:43:31.844Z</time></trkpt><trkpt lat="44.0022953" lon="8.0087393"><ele>633.8</ele><time>2026-04-19T07:43:32.843Z</time></trkpt><trkpt lat="44.0023216" lon="8.0086015"><ele>638.2</ele><time>2026-04-19T07:43:33.843Z</time></trkpt><trkpt lat="44.0023384" lon="8.0084572"><ele>642.6</ele><time>2026-04-19T07:43:34.843Z</time></trkpt><trkpt lat="44.0023502" lon="8.0083138"><ele>647.0</ele><time>2026-04-19T07:43:35.843Z</time></trkpt><trkpt lat="44.0023608" lon="8.0081674"><ele>650.2</ele><time>2026-04-19T07:43:36.843Z</time></trkpt><trkpt lat="44.0023727" lon="8.0080222"><ele>653.4000000000001</ele><time>2026-04-19T07:43:37.844Z</time></trkpt><trkpt lat="44.0023956" lon="8.007877"><ele>656.5999999999999</ele><time>2026-04-19T07:43:38.844Z</time></trkpt><trkpt lat="44.0024308" lon="8.0077297"><ele>659.8</ele><time>2026-04-19T07:43:39.844Z</time></trkpt><trkpt lat="44.0024759" lon="8.0075999"><ele>663.0</ele><time>2026-04-19T07:43:40.843Z</time></trkpt><trkpt lat="44.002536" lon="8.0074719"><ele>656.4</ele><time>2026-04-19T07:43:41.843Z</time></trkpt><trkpt lat="44.0025936" lon="8.007339"><ele>649.8</ele><time>2026-04-19T07:43:42.843Z</time></trkpt><trkpt lat="44.0026483" lon="8.0072136"><ele>643.2</ele><time>2026-04-19T07:43:43.844Z</time></trkpt><trkpt lat="44.002719" lon="8.0070885"><ele>636.6</ele><time>2026-04-19T07:43:44.843Z</time></trkpt><trkpt lat="44.0027845" lon="8.0069722"><ele>630.0</ele><time>2026-04-19T07:43:45.844Z</time></trkpt><trkpt lat="44.0028375" lon="8.0068494"><ele>630.0</ele><time>2026-04-19T07:43:46.844Z</time></trkpt><trkpt lat="44.0028525" lon="8.0067203"><ele>630.0</ele><time>2026-04-19T07:43:47.843Z</time></trkpt><trkpt lat="44.0028394" lon="8.0065914"><ele>630.0</ele><time>2026-04-19T07:43:48.843Z</time></trkpt><trkpt lat="44.0028228" lon="8.0064752"><ele>630.0</ele><time>2026-04-19T07:43:49.844Z</time></trkpt><trkpt lat="44.0027749" lon="8.0063757"><ele>630.0</ele><time>2026-04-19T07:43:50.844Z</time></trkpt><trkpt lat="44.0027156" lon="8.0062639"><ele>629.6</ele><time>2026-04-19T07:43:51.844Z</time></trkpt><trkpt lat="44.0026634" lon="8.0061509"><ele>629.2</ele><time>2026-04-19T07:43:52.844Z</time></trkpt><trkpt lat="44.0026027" lon="8.006044"><ele>628.8</ele><time>2026-04-19T07:43:53.843Z</time></trkpt><trkpt lat="44.0025395" lon="8.0059357"><ele>628.4</ele><time>2026-04-19T07:43:54.843Z</time></trkpt><trkpt lat="44.0024833" lon="8.0058159"><ele>628.0</ele><time>2026-04-19T07:43:55.843Z</time></trkpt><trkpt lat="44.0024377" lon="8.0057029"><ele>629.6666666666667</ele><time>2026-04-19T07:43:56.843Z</time></trkpt><trkpt lat="44.0024035" lon="8.0055889"><ele>631.3333333333334</ele><time>2026-04-19T07:43:57.844Z</time></trkpt><trkpt lat="44.0024087" lon="8.0054688"><ele>633.0</ele><time>2026-04-19T07:43:58.843Z</time></trkpt><trkpt lat="44.0024185" lon="8.0053473"><ele>634.6666666666666</ele><time>2026-04-19T07:43:59.844Z</time></trkpt><trkpt lat="44.0024439" lon="8.0052458"><ele>636.3333333333333</ele><time>2026-04-19T07:44:00.843Z</time></trkpt><trkpt lat="44.0025105" lon="8.005165"><ele>638.0</ele><time>2026-04-19T07:44:01.844Z</time></trkpt><trkpt lat="44.002596" lon="8.0051213"><ele>638.0</ele><time>2026-04-19T07:44:02.844Z</time></trkpt><trkpt lat="44.0026725" lon="8.0051074"><ele>638.0</ele><time>2026-04-19T07:44:03.844Z</time></trkpt><trkpt lat="44.0027667" lon="8.0051061"><ele>638.0</ele><time>2026-04-19T07:44:04.843Z</time></trkpt><trkpt lat="44.0028628" lon="8.0050993"><ele>638.0</ele><time>2026-04-19T07:44:05.844Z</time></trkpt><trkpt lat="44.0029608" lon="8.0050766"><ele>638.0</ele><time>2026-04-19T07:44:06.844Z</time></trkpt><trkpt lat="44.0030494" lon="8.005056"><ele>638.0</ele><time>2026-04-19T07:44:07.843Z</time></trkpt><trkpt lat="44.0031339" lon="8.0050263"><ele>638.0</ele><time>2026-04-19T07:44:08.843Z</time></trkpt><trkpt lat="44.0032108" lon="8.0049934"><ele>638.0</ele><time>2026-04-19T07:44:09.843Z</time></trkpt><trkpt lat="44.0032587" lon="8.0049185"><ele>638.0</ele><time>2026-04-19T07:44:10.844Z</time></trkpt><trkpt lat="44.0032797" lon="8.0048273"><ele>638.0</ele><time>2026-04-19T07:44:11.843Z</time></trkpt><trkpt lat="44.00329" lon="8.0047253"><ele>638.0</ele><time>2026-04-19T07:44:12.843Z</time></trkpt><trkpt lat="44.0032768" lon="8.0046254"><ele>638.5</ele><time>2026-04-19T07:44:13.843Z</time></trkpt><trkpt lat="44.0032808" lon="8.0045197"><ele>639.0</ele><time>2026-04-19T07:44:14.844Z</time></trkpt><trkpt lat="44.003328" lon="8.0044265"><ele>639.5</ele><time>2026-04-19T07:44:15.844Z</time></trkpt><trkpt lat="44.0033786" lon="8.0043471"><ele>640.0</ele><time>2026-04-19T07:44:16.843Z</time></trkpt><trkpt lat="44.0034615" lon="8.0043026"><ele>640.5</ele><time>2026-04-19T07:44:17.843Z</time></trkpt><trkpt lat="44.0035384" lon="8.0042513"><ele>641.0</ele><time>2026-04-19T07:44:18.844Z</time></trkpt><trkpt lat="44.003621" lon="8.0041978"><ele>647.0</ele><time>2026-04-19T07:44:19.843Z</time></trkpt><trkpt lat="44.0037154" lon="8.00415"><ele>653.0</ele><time>2026-04-19T07:44:20.842Z</time></trkpt><trkpt lat="44.0038176" lon="8.0041026"><ele>659.0</ele><time>2026-04-19T07:44:21.842Z</time></trkpt><trkpt lat="44.0039119" lon="8.0040428"><ele>665.0</ele><time>2026-04-19T07:44:22.842Z</time></trkpt><trkpt lat="44.0039998" lon="8.0039775"><ele>671.0</ele><time>2026-04-19T07:44:23.843Z</time></trkpt><trkpt lat="44.0040845" lon="8.0038948"><ele>671.0</ele><time>2026-04-19T07:44:24.843Z</time></trkpt><trkpt lat="44.0041582" lon="8.0037982"><ele>671.0</ele><time>2026-04-19T07:44:25.844Z</time></trkpt><trkpt lat="44.0042153" lon="8.003683"><ele>671.0</ele><time>2026-04-19T07:44:26.842Z</time></trkpt><trkpt lat="44.0042548" lon="8.0035514"><ele>671.0</ele><time>2026-04-19T07:44:27.842Z</time></trkpt><trkpt lat="44.0042806" lon="8.0034075"><ele>671.0</ele><time>2026-04-19T07:44:28.842Z</time></trkpt><trkpt lat="44.004295" lon="8.0032657"><ele>665.4</ele><time>2026-04-19T07:44:29.842Z</time></trkpt><trkpt lat="44.004315" lon="8.0031206"><ele>659.8</ele><time>2026-04-19T07:44:30.842Z</time></trkpt><trkpt lat="44.0043256" lon="8.0029772"><ele>654.1999999999999</ele><time>2026-04-19T07:44:31.842Z</time></trkpt><trkpt lat="44.0043253" lon="8.0028345"><ele>648.5999999999999</ele><time>2026-04-19T07:44:32.842Z</time></trkpt><trkpt lat="44.0043403" lon="8.0027116"><ele>643.0</ele><time>2026-04-19T07:44:33.843Z</time></trkpt><trkpt lat="44.0043699" lon="8.0025867"><ele>648.2</ele><time>2026-04-19T07:44:34.843Z</time></trkpt><trkpt lat="44.0044144" lon="8.0024726"><ele>653.4</ele><time>2026-04-19T07:44:35.843Z</time></trkpt><trkpt lat="44.0044867" lon="8.0023997"><ele>658.6</ele><time>2026-04-19T07:44:36.842Z</time></trkpt><trkpt lat="44.0045573" lon="8.0023201"><ele>663.8000000000001</ele><time>2026-04-19T07:44:37.843Z</time></trkpt><trkpt lat="44.0046249" lon="8.0022309"><ele>669.0</ele><time>2026-04-19T07:44:38.843Z</time></trkpt><trkpt lat="44.0046976" lon="8.002146"><ele>669.0</ele><time>2026-04-19T07:44:39.843Z</time></trkpt><trkpt lat="44.0047742" lon="8.0020883"><ele>669.0</ele><time>2026-04-19T07:44:40.844Z</time></trkpt><trkpt lat="44.004856" lon="8.0020746"><ele>669.0</ele><time>2026-04-19T07:44:41.843Z</time></trkpt><trkpt lat="44.0049419" lon="8.0020762"><ele>669.0</ele><time>2026-04-19T07:44:42.842Z</time></trkpt><trkpt lat="44.0050244" lon="8.002069"><ele>669.0</ele><time>2026-04-19T07:44:43.843Z</time></trkpt><trkpt lat="44.0051027" lon="8.0020227"><ele>669.0</ele><time>2026-04-19T07:44:44.843Z</time></trkpt><trkpt lat="44.0051753" lon="8.0019507"><ele>671.0</ele><time>2026-04-19T07:44:45.843Z</time></trkpt><trkpt lat="44.0052436" lon="8.0018698"><ele>673.0</ele><time>2026-04-19T07:44:46.842Z</time></trkpt><trkpt lat="44.0053161" lon="8.001794"><ele>675.0</ele><time>2026-04-19T07:44:47.843Z</time></trkpt><trkpt lat="44.0053987" lon="8.0017265"><ele>677.0</ele><time>2026-04-19T07:44:48.842Z</time></trkpt><trkpt lat="44.0054867" lon="8.0016724"><ele>679.0</ele><time>2026-04-19T07:44:49.843Z</time></trkpt><trkpt lat="44.0055821" lon="8.0016302"><ele>679.0</ele><time>2026-04-19T07:44:50.842Z</time></trkpt><trkpt lat="44.0056842" lon="8.0016144"><ele>679.0</ele><time>2026-04-19T07:44:51.843Z</time></trkpt><trkpt lat="44.0057879" lon="8.0016379"><ele>679.0</ele><time>2026-04-19T07:44:52.843Z</time></trkpt><trkpt lat="44.0058851" lon="8.0016983"><ele>679.0</ele><time>2026-04-19T07:44:53.842Z</time></trkpt><trkpt lat="44.0059718" lon="8.0017864"><ele>679.0</ele><time>2026-04-19T07:44:54.843Z</time></trkpt><trkpt lat="44.0060552" lon="8.0018777"><ele>671.6666666666667</ele><time>2026-04-19T07:44:55.843Z</time></trkpt><trkpt lat="44.0061346" lon="8.001955"><ele>664.3333333333334</ele><time>2026-04-19T07:44:56.843Z</time></trkpt><trkpt lat="44.0062165" lon="8.0019844"><ele>657.0</ele><time>2026-04-19T07:44:57.843Z</time></trkpt><trkpt lat="44.0062989" lon="8.0019708"><ele>649.6666666666666</ele><time>2026-04-19T07:44:58.843Z</time></trkpt><trkpt lat="44.0063795" lon="8.0019297"><ele>642.3333333333333</ele><time>2026-04-19T07:44:59.842Z</time></trkpt><trkpt lat="44.0064553" lon="8.0018745"><ele>635.0</ele><time>2026-04-19T07:45:00.844Z</time></trkpt><trkpt lat="44.0065138" lon="8.0017713"><ele>634.4</ele><time>2026-04-19T07:45:01.843Z</time></trkpt><trkpt lat="44.006557" lon="8.0016566"><ele>633.8</ele><time>2026-04-19T07:45:02.843Z</time></trkpt><trkpt lat="44.0066009" lon="8.0015433"><ele>633.2</ele><time>2026-04-19T07:45:03.843Z</time></trkpt><trkpt lat="44.0066518" lon="8.0014237"><ele>632.6</ele><time>2026-04-19T07:45:04.844Z</time></trkpt><trkpt lat="44.0067059" lon="8.0013195"><ele>632.0</ele><time>2026-04-19T07:45:05.845Z</time></trkpt><trkpt lat="44.0067534" lon="8.0012269"><ele>632.0</ele><time>2026-04-19T07:45:06.843Z</time></trkpt><trkpt lat="44.0067861" lon="8.0011285"><ele>632.0</ele><time>2026-04-19T07:45:07.844Z</time></trkpt><trkpt lat="44.0068012" lon="8.001039"><ele>632.0</ele><time>2026-04-19T07:45:08.843Z</time></trkpt><trkpt lat="44.0067527" lon="8.0008992"><ele>632.0</ele><time>2026-04-19T07:45:10.843Z</time></trkpt><trkpt lat="44.0066939" lon="8.0008516"><ele>632.0</ele><time>2026-04-19T07:45:11.844Z</time></trkpt><trkpt lat="44.0066277" lon="8.0008056"><ele>632.0</ele><time>2026-04-19T07:45:12.843Z</time></trkpt><trkpt lat="44.0065497" lon="8.0007489"><ele>635.5</ele><time>2026-04-19T07:45:13.844Z</time></trkpt><trkpt lat="44.0064792" lon="8.0006882"><ele>639.0</ele><time>2026-04-19T07:45:14.843Z</time></trkpt><trkpt lat="44.006413" lon="8.0006118"><ele>642.5</ele><time>2026-04-19T07:45:15.843Z</time></trkpt><trkpt lat="44.006364" lon="8.0005137"><ele>646.0</ele><time>2026-04-19T07:45:16.843Z</time></trkpt><trkpt lat="44.0063293" lon="8.0004004"><ele>649.5</ele><time>2026-04-19T07:45:17.844Z</time></trkpt><trkpt lat="44.006294" lon="8.0002923"><ele>653.0</ele><time>2026-04-19T07:45:18.843Z</time></trkpt><trkpt lat="44.0062659" lon="8.0001682"><ele>653.0</ele><time>2026-04-19T07:45:19.844Z</time></trkpt><trkpt lat="44.0062229" lon="8.0000703"><ele>653.0</ele><time>2026-04-19T07:45:20.843Z</time></trkpt><trkpt lat="44.0061664" lon="7.9999798"><ele>653.0</ele><time>2026-04-19T07:45:21.844Z</time></trkpt><trkpt lat="44.0060927" lon="7.9998997"><ele>653.0</ele><time>2026-04-19T07:45:22.844Z</time></trkpt><trkpt lat="44.0060151" lon="7.9998167"><ele>653.0</ele><time>2026-04-19T07:45:23.842Z</time></trkpt><trkpt lat="44.0059379" lon="7.9997263"><ele>653.0</ele><time>2026-04-19T07:45:24.843Z</time></trkpt><trkpt lat="44.0058726" lon="7.9996243"><ele>653.0</ele><time>2026-04-19T07:45:25.844Z</time></trkpt><trkpt lat="44.0058131" lon="7.9995227"><ele>653.0</ele><time>2026-04-19T07:45:26.844Z</time></trkpt><trkpt lat="44.0057633" lon="7.9994109"><ele>653.0</ele><time>2026-04-19T07:45:27.844Z</time></trkpt><trkpt lat="44.0057238" lon="7.9992946"><ele>653.0</ele><time>2026-04-19T07:45:28.845Z</time></trkpt><trkpt lat="44.0056788" lon="7.999178"><ele>660.2</ele><time>2026-04-19T07:45:29.843Z</time></trkpt><trkpt lat="44.0056289" lon="7.9990816"><ele>667.4</ele><time>2026-04-19T07:45:30.844Z</time></trkpt><trkpt lat="44.0055525" lon="7.9989843"><ele>674.6</ele><time>2026-04-19T07:45:31.844Z</time></trkpt><trkpt lat="44.0054824" lon="7.9988817"><ele>681.8000000000001</ele><time>2026-04-19T07:45:32.843Z</time></trkpt><trkpt lat="44.0054153" lon="7.9987712"><ele>689.0</ele><time>2026-04-19T07:45:33.843Z</time></trkpt><trkpt lat="44.0053466" lon="7.9986538"><ele>689.0</ele><time>2026-04-19T07:45:34.843Z</time></trkpt><trkpt lat="44.0052875" lon="7.9985373"><ele>689.0</ele><time>2026-04-19T07:45:35.844Z</time></trkpt><trkpt lat="44.0052372" lon="7.9984162"><ele>689.0</ele><time>2026-04-19T07:45:36.844Z</time></trkpt><trkpt lat="44.0051868" lon="7.9982965"><ele>689.0</ele><time>2026-04-19T07:45:37.843Z</time></trkpt><trkpt lat="44.005142" lon="7.998187"><ele>689.0</ele><time>2026-04-19T07:45:38.844Z</time></trkpt><trkpt lat="44.005119" lon="7.9980845"><ele>685.4000000000001</ele><time>2026-04-19T07:45:39.843Z</time></trkpt><trkpt lat="44.0051182" lon="7.9979738"><ele>681.8</ele><time>2026-04-19T07:45:40.844Z</time></trkpt><trkpt lat="44.0051373" lon="7.9978622"><ele>678.2</ele><time>2026-04-19T07:45:41.843Z</time></trkpt><trkpt lat="44.0051804" lon="7.9977526"><ele>674.5999999999999</ele><time>2026-04-19T07:45:42.843Z</time></trkpt><trkpt lat="44.0052273" lon="7.9976433"><ele>671.0</ele><time>2026-04-19T07:45:43.844Z</time></trkpt><trkpt lat="44.005283" lon="7.9975171"><ele>672.1999999999999</ele><time>2026-04-19T07:45:44.843Z</time></trkpt><trkpt lat="44.005333" lon="7.9973842"><ele>673.4</ele><time>2026-04-19T07:45:45.843Z</time></trkpt><trkpt lat="44.0053808" lon="7.9972496"><ele>674.6</ele><time>2026-04-19T07:45:46.844Z</time></trkpt><trkpt lat="44.0054343" lon="7.9971184"><ele>675.8</ele><time>2026-04-19T07:45:47.843Z</time></trkpt><trkpt lat="44.0054978" lon="7.9969785"><ele>677.0</ele><time>2026-04-19T07:45:48.843Z</time></trkpt><trkpt lat="44.0055551" lon="7.9968362"><ele>677.0</ele><time>2026-04-19T07:45:49.842Z</time></trkpt><trkpt lat="44.0056248" lon="7.9967019"><ele>677.0</ele><time>2026-04-19T07:45:50.844Z</time></trkpt><trkpt lat="44.005708" lon="7.9965779"><ele>677.0</ele><time>2026-04-19T07:45:51.844Z</time></trkpt><trkpt lat="44.0057951" lon="7.9964596"><ele>677.0</ele><time>2026-04-19T07:45:52.843Z</time></trkpt><trkpt lat="44.0058903" lon="7.9963496"><ele>671.0</ele><time>2026-04-19T07:45:53.843Z</time></trkpt><trkpt lat="44.0059884" lon="7.9962417"><ele>665.0</ele><time>2026-04-19T07:45:54.843Z</time></trkpt><trkpt lat="44.0060823" lon="7.9961453"><ele>659.0</ele><time>2026-04-19T07:45:55.843Z</time></trkpt><trkpt lat="44.0061713" lon="7.9960579"><ele>653.0</ele><time>2026-04-19T07:45:56.844Z</time></trkpt><trkpt lat="44.0062495" lon="7.9959649"><ele>653.0</ele><time>2026-04-19T07:45:57.844Z</time></trkpt><trkpt lat="44.0062913" lon="7.995871"><ele>653.0</ele><time>2026-04-19T07:45:58.842Z</time></trkpt><trkpt lat="44.00631" lon="7.9957601"><ele>653.0</ele><time>2026-04-19T07:45:59.845Z</time></trkpt><trkpt lat="44.0063062" lon="7.9956471"><ele>653.0</ele><time>2026-04-19T07:46:00.844Z</time></trkpt><trkpt lat="44.0062909" lon="7.9955295"><ele>653.0</ele><time>2026-04-19T07:46:01.843Z</time></trkpt><trkpt lat="44.0062876" lon="7.9954035"><ele>653.0</ele><time>2026-04-19T07:46:02.843Z</time></trkpt><trkpt lat="44.0062819" lon="7.9952693"><ele>659.0</ele><time>2026-04-19T07:46:03.843Z</time></trkpt><trkpt lat="44.0062803" lon="7.9951314"><ele>665.0</ele><time>2026-04-19T07:46:04.844Z</time></trkpt><trkpt lat="44.0062813" lon="7.9949929"><ele>671.0</ele><time>2026-04-19T07:46:05.843Z</time></trkpt><trkpt lat="44.0062795" lon="7.9948535"><ele>677.0</ele><time>2026-04-19T07:46:06.844Z</time></trkpt><trkpt lat="44.0062814" lon="7.9947054"><ele>683.0</ele><time>2026-04-19T07:46:07.842Z</time></trkpt><trkpt lat="44.006306" lon="7.9945688"><ele>687.0</ele><time>2026-04-19T07:46:08.843Z</time></trkpt><trkpt lat="44.0063553" lon="7.9944442"><ele>691.0</ele><time>2026-04-19T07:46:09.843Z</time></trkpt><trkpt lat="44.0063963" lon="7.9943169"><ele>695.0</ele><time>2026-04-19T07:46:10.842Z</time></trkpt><trkpt lat="44.0064418" lon="7.9941855"><ele>699.0</ele><time>2026-04-19T07:46:11.844Z</time></trkpt><trkpt lat="44.006487" lon="7.9940523"><ele>703.0</ele><time>2026-04-19T07:46:12.843Z</time></trkpt><trkpt lat="44.0065315" lon="7.9939269"><ele>705.0</ele><time>2026-04-19T07:46:13.843Z</time></trkpt><trkpt lat="44.0065758" lon="7.9937941"><ele>707.0</ele><time>2026-04-19T07:46:14.843Z</time></trkpt><trkpt lat="44.0066123" lon="7.9936654"><ele>709.0</ele><time>2026-04-19T07:46:15.844Z</time></trkpt><trkpt lat="44.0066453" lon="7.9935289"><ele>711.0</ele><time>2026-04-19T07:46:16.844Z</time></trkpt><trkpt lat="44.0066801" lon="7.9933868"><ele>713.0</ele><time>2026-04-19T07:46:17.843Z</time></trkpt><trkpt lat="44.006707" lon="7.9932497"><ele>703.5</ele><time>2026-04-19T07:46:18.843Z</time></trkpt><trkpt lat="44.0067342" lon="7.9929606"><ele>694.0</ele><time>2026-04-19T07:46:20.843Z</time></trkpt><trkpt lat="44.0067385" lon="7.9928105"><ele>684.5</ele><time>2026-04-19T07:46:21.843Z</time></trkpt><trkpt lat="44.0067387" lon="7.9926585"><ele>675.0</ele><time>2026-04-19T07:46:22.843Z</time></trkpt><trkpt lat="44.0067361" lon="7.9925074"><ele>678.0</ele><time>2026-04-19T07:46:23.843Z</time></trkpt><trkpt lat="44.0067422" lon="7.992353"><ele>681.0</ele><time>2026-04-19T07:46:24.844Z</time></trkpt><trkpt lat="44.0067393" lon="7.9921974"><ele>684.0</ele><time>2026-04-19T07:46:25.843Z</time></trkpt><trkpt lat="44.0067419" lon="7.9920373"><ele>687.0</ele><time>2026-04-19T07:46:26.844Z</time></trkpt><trkpt lat="44.0067607" lon="7.9918814"><ele>687.0</ele><time>2026-04-19T07:46:27.843Z</time></trkpt><trkpt lat="44.006784" lon="7.9917264"><ele>687.0</ele><time>2026-04-19T07:46:28.843Z</time></trkpt><trkpt lat="44.0068211" lon="7.991583"><ele>687.0</ele><time>2026-04-19T07:46:29.845Z</time></trkpt><trkpt lat="44.0068738" lon="7.9914616"><ele>687.0</ele><time>2026-04-19T07:46:30.843Z</time></trkpt><trkpt lat="44.0069193" lon="7.9913683"><ele>687.0</ele><time>2026-04-19T07:46:31.843Z</time></trkpt><trkpt lat="44.0069693" lon="7.9912878"><ele>686.0</ele><time>2026-04-19T07:46:32.844Z</time></trkpt><trkpt lat="44.0070507" lon="7.9912175"><ele>685.0</ele><time>2026-04-19T07:46:34.843Z</time></trkpt><trkpt lat="44.0070895" lon="7.9911387"><ele>684.0</ele><time>2026-04-19T07:47:19.843Z</time></trkpt><trkpt lat="44.0071251" lon="7.9910593"><ele>683.0</ele><time>2026-04-19T07:47:25.844Z</time></trkpt><trkpt lat="44.0071429" lon="7.9909711"><ele>682.0</ele><time>2026-04-19T07:48:09.843Z</time></trkpt><trkpt lat="44.007127" lon="7.991064"><ele>681.0</ele><time>2026-04-19T07:48:17.844Z</time></trkpt><trkpt lat="44.0070732" lon="7.9911675"><ele>681.0</ele><time>2026-04-19T07:48:52.843Z</time></trkpt><trkpt lat="44.007111" lon="7.9910814"><ele>681.0</ele><time>2026-04-19T07:49:33.257Z</time></trkpt><trkpt lat="44.0071839" lon="7.9909949"><ele>681.0</ele><time>2026-04-19T07:49:35.843Z</time></trkpt><trkpt lat="44.0072232" lon="7.9909207"><ele>681.0</ele><time>2026-04-19T07:49:37.843Z</time></trkpt><trkpt lat="44.007252" lon="7.9908194"><ele>681.0</ele><time>2026-04-19T07:49:39.843Z</time></trkpt><trkpt lat="44.0072934" lon="7.9906591"><ele>681.0</ele><time>2026-04-19T07:49:41.844Z</time></trkpt><trkpt lat="44.0073269" lon="7.9905708"><ele>680.5999999999999</ele><time>2026-04-19T07:49:42.844Z</time></trkpt><trkpt lat="44.0073704" lon="7.9904824"><ele>680.2</ele><time>2026-04-19T07:49:43.842Z</time></trkpt><trkpt lat="44.0074287" lon="7.9903803"><ele>679.8</ele><time>2026-04-19T07:49:44.844Z</time></trkpt><trkpt lat="44.0074873" lon="7.9902763"><ele>679.4000000000001</ele><time>2026-04-19T07:49:45.851Z</time></trkpt><trkpt lat="44.0075432" lon="7.990165"><ele>679.0</ele><time>2026-04-19T07:49:46.848Z</time></trkpt><trkpt lat="44.0075961" lon="7.9900533"><ele>677.2</ele><time>2026-04-19T07:49:47.847Z</time></trkpt><trkpt lat="44.0076559" lon="7.9899497"><ele>675.4000000000001</ele><time>2026-04-19T07:49:48.845Z</time></trkpt><trkpt lat="44.0077239" lon="7.9898486"><ele>673.6</ele><time>2026-04-19T07:49:49.847Z</time></trkpt><trkpt lat="44.0077944" lon="7.9897431"><ele>671.8</ele><time>2026-04-19T07:49:50.843Z</time></trkpt><trkpt lat="44.0078607" lon="7.9896312"><ele>670.0</ele><time>2026-04-19T07:49:51.844Z</time></trkpt><trkpt lat="44.0079133" lon="7.9895041"><ele>670.0</ele><time>2026-04-19T07:49:52.843Z</time></trkpt><trkpt lat="44.0079552" lon="7.9893686"><ele>670.0</ele><time>2026-04-19T07:49:53.842Z</time></trkpt><trkpt lat="44.0079758" lon="7.9892303"><ele>670.0</ele><time>2026-04-19T07:49:54.849Z</time></trkpt><trkpt lat="44.007971" lon="7.9890968"><ele>670.0</ele><time>2026-04-19T07:49:55.846Z</time></trkpt><trkpt lat="44.0079576" lon="7.9889603"><ele>670.0</ele><time>2026-04-19T07:49:56.843Z</time></trkpt><trkpt lat="44.0079723" lon="7.9888716"><ele>665.6</ele><time>2026-04-19T07:49:57.842Z</time></trkpt><trkpt lat="44.0080317" lon="7.9887245"><ele>661.2</ele><time>2026-04-19T07:49:59.845Z</time></trkpt><trkpt lat="44.0080988" lon="7.9886632"><ele>656.8</ele><time>2026-04-19T07:50:00.844Z</time></trkpt><trkpt lat="44.0081778" lon="7.9886059"><ele>652.4</ele><time>2026-04-19T07:50:01.843Z</time></trkpt><trkpt lat="44.0082525" lon="7.9885383"><ele>648.0</ele><time>2026-04-19T07:50:02.843Z</time></trkpt><trkpt lat="44.0083156" lon="7.9884631"><ele>650.0</ele><time>2026-04-19T07:50:03.843Z</time></trkpt><trkpt lat="44.0083748" lon="7.9883976"><ele>652.0</ele><time>2026-04-19T07:50:04.843Z</time></trkpt><trkpt lat="44.0084497" lon="7.9883507"><ele>654.0</ele><time>2026-04-19T07:50:05.846Z</time></trkpt><trkpt lat="44.0085459" lon="7.9883131"><ele>656.0</ele><time>2026-04-19T07:50:06.844Z</time></trkpt><trkpt lat="44.0086303" lon="7.9882453"><ele>658.0</ele><time>2026-04-19T07:50:07.842Z</time></trkpt><trkpt lat="44.0086983" lon="7.9881484"><ele>658.0</ele><time>2026-04-19T07:50:08.844Z</time></trkpt><trkpt lat="44.0087607" lon="7.988048"><ele>658.0</ele><time>2026-04-19T07:50:09.843Z</time></trkpt><trkpt lat="44.0088254" lon="7.9879409"><ele>658.0</ele><time>2026-04-19T07:50:10.847Z</time></trkpt><trkpt lat="44.0088735" lon="7.9878146"><ele>658.0</ele><time>2026-04-19T07:50:11.848Z</time></trkpt><trkpt lat="44.0089137" lon="7.9876677"><ele>658.0</ele><time>2026-04-19T07:50:12.848Z</time></trkpt><trkpt lat="44.0089525" lon="7.9875239"><ele>658.6666666666667</ele><time>2026-04-19T07:50:13.848Z</time></trkpt><trkpt lat="44.0089834" lon="7.9873924"><ele>659.3333333333334</ele><time>2026-04-19T07:50:14.848Z</time></trkpt><trkpt lat="44.0090228" lon="7.9872908"><ele>660.0</ele><time>2026-04-19T07:50:15.847Z</time></trkpt><trkpt lat="44.0090846" lon="7.9872374"><ele>660.6666666666666</ele><time>2026-04-19T07:50:16.849Z</time></trkpt><trkpt lat="44.009165" lon="7.9872043"><ele>661.3333333333333</ele><time>2026-04-19T07:50:17.847Z</time></trkpt><trkpt lat="44.0092492" lon="7.9871618"><ele>662.0</ele><time>2026-04-19T07:50:18.847Z</time></trkpt><trkpt lat="44.0093326" lon="7.9871001"><ele>662.0</ele><time>2026-04-19T07:50:19.848Z</time></trkpt><trkpt lat="44.0093991" lon="7.9870066"><ele>662.0</ele><time>2026-04-19T07:50:20.846Z</time></trkpt><trkpt lat="44.0094495" lon="7.9868847"><ele>662.0</ele><time>2026-04-19T07:50:21.85Z</time></trkpt><trkpt lat="44.0094809" lon="7.9867399"><ele>662.0</ele><time>2026-04-19T07:50:22.843Z</time></trkpt><trkpt lat="44.0094992" lon="7.9865809"><ele>662.0</ele><time>2026-04-19T07:50:23.842Z</time></trkpt><trkpt lat="44.0094872" lon="7.986412"><ele>658.0</ele><time>2026-04-19T07:50:24.843Z</time></trkpt><trkpt lat="44.0094648" lon="7.9862473"><ele>654.0</ele><time>2026-04-19T07:50:25.844Z</time></trkpt><trkpt lat="44.0094459" lon="7.9860988"><ele>650.0</ele><time>2026-04-19T07:50:26.843Z</time></trkpt><trkpt lat="44.0094643" lon="7.9859566"><ele>646.0</ele><time>2026-04-19T07:50:27.844Z</time></trkpt><trkpt lat="44.0094982" lon="7.9858218"><ele>642.0</ele><time>2026-04-19T07:50:28.843Z</time></trkpt><trkpt lat="44.0095085" lon="7.9856887"><ele>639.0</ele><time>2026-04-19T07:50:29.843Z</time></trkpt><trkpt lat="44.0094925" lon="7.9855603"><ele>636.0</ele><time>2026-04-19T07:50:30.843Z</time></trkpt><trkpt lat="44.0094525" lon="7.9854437"><ele>633.0</ele><time>2026-04-19T07:50:31.842Z</time></trkpt><trkpt lat="44.009416" lon="7.9853277"><ele>630.0</ele><time>2026-04-19T07:50:32.843Z</time></trkpt><trkpt lat="44.0094023" lon="7.9852061"><ele>627.0</ele><time>2026-04-19T07:50:33.843Z</time></trkpt><trkpt lat="44.0094062" lon="7.9850678"><ele>624.5</ele><time>2026-04-19T07:50:34.842Z</time></trkpt><trkpt lat="44.0094601" lon="7.9849267"><ele>622.0</ele><time>2026-04-19T07:50:35.843Z</time></trkpt><trkpt lat="44.0095222" lon="7.984778"><ele>619.5</ele><time>2026-04-19T07:50:36.844Z</time></trkpt><trkpt lat="44.0095761" lon="7.9846286"><ele>617.0</ele><time>2026-04-19T07:50:37.843Z</time></trkpt><trkpt lat="44.0096543" lon="7.9844948"><ele>617.0</ele><time>2026-04-19T07:50:38.842Z</time></trkpt><trkpt lat="44.0097302" lon="7.9843758"><ele>617.0</ele><time>2026-04-19T07:50:39.843Z</time></trkpt><trkpt lat="44.0097967" lon="7.9842476"><ele>617.0</ele><time>2026-04-19T07:50:40.843Z</time></trkpt><trkpt lat="44.009839" lon="7.9840997"><ele>617.0</ele><time>2026-04-19T07:50:41.843Z</time></trkpt><trkpt lat="44.0098599" lon="7.9839357"><ele>612.25</ele><time>2026-04-19T07:50:42.844Z</time></trkpt><trkpt lat="44.0098704" lon="7.9837734"><ele>607.5</ele><time>2026-04-19T07:50:43.844Z</time></trkpt><trkpt lat="44.0098763" lon="7.9836061"><ele>602.75</ele><time>2026-04-19T07:50:44.843Z</time></trkpt><trkpt lat="44.0099264" lon="7.9834568"><ele>598.0</ele><time>2026-04-19T07:50:45.842Z</time></trkpt><trkpt lat="44.0099703" lon="7.9832985"><ele>605.75</ele><time>2026-04-19T07:50:46.842Z</time></trkpt><trkpt lat="44.0100093" lon="7.9831258"><ele>613.5</ele><time>2026-04-19T07:50:47.844Z</time></trkpt><trkpt lat="44.0100371" lon="7.9829439"><ele>621.25</ele><time>2026-04-19T07:50:48.844Z</time></trkpt><trkpt lat="44.0100369" lon="7.982774"><ele>629.0</ele><time>2026-04-19T07:50:49.843Z</time></trkpt><trkpt lat="44.0100331" lon="7.9825959"><ele>627.75</ele><time>2026-04-19T07:50:50.843Z</time></trkpt><trkpt lat="44.0100467" lon="7.9824351"><ele>626.5</ele><time>2026-04-19T07:50:51.843Z</time></trkpt><trkpt lat="44.0100203" lon="7.9822781"><ele>625.25</ele><time>2026-04-19T07:50:52.843Z</time></trkpt><trkpt lat="44.0099782" lon="7.9821278"><ele>624.0</ele><time>2026-04-19T07:50:53.842Z</time></trkpt><trkpt lat="44.0099294" lon="7.9819769"><ele>615.75</ele><time>2026-04-19T07:50:54.843Z</time></trkpt><trkpt lat="44.0098842" lon="7.9818177"><ele>607.5</ele><time>2026-04-19T07:50:55.842Z</time></trkpt><trkpt lat="44.0098441" lon="7.9816584"><ele>599.25</ele><time>2026-04-19T07:50:56.843Z</time></trkpt><trkpt lat="44.0098074" lon="7.9815041"><ele>591.0</ele><time>2026-04-19T07:50:57.843Z</time></trkpt><trkpt lat="44.0097736" lon="7.9813613"><ele>591.0</ele><time>2026-04-19T07:50:58.843Z</time></trkpt><trkpt lat="44.0097446" lon="7.9812259"><ele>591.0</ele><time>2026-04-19T07:50:59.844Z</time></trkpt><trkpt lat="44.0097441" lon="7.9811026"><ele>591.0</ele><time>2026-04-19T07:51:00.843Z</time></trkpt><trkpt lat="44.0097683" lon="7.9809822"><ele>591.0</ele><time>2026-04-19T07:51:01.843Z</time></trkpt><trkpt lat="44.0098154" lon="7.9808566"><ele>591.0</ele><time>2026-04-19T07:51:02.843Z</time></trkpt><trkpt lat="44.0098995" lon="7.9807222"><ele>588.75</ele><time>2026-04-19T07:51:03.845Z</time></trkpt><trkpt lat="44.0099849" lon="7.9805703"><ele>586.5</ele><time>2026-04-19T07:51:04.842Z</time></trkpt><trkpt lat="44.0100632" lon="7.9804183"><ele>584.25</ele><time>2026-04-19T07:51:05.843Z</time></trkpt><trkpt lat="44.0101296" lon="7.9802605"><ele>582.0</ele><time>2026-04-19T07:51:06.843Z</time></trkpt><trkpt lat="44.0102048" lon="7.9801151"><ele>586.25</ele><time>2026-04-19T07:51:07.843Z</time></trkpt><trkpt lat="44.010272" lon="7.9799787"><ele>590.5</ele><time>2026-04-19T07:51:08.844Z</time></trkpt><trkpt lat="44.0103227" lon="7.9798326"><ele>594.75</ele><time>2026-04-19T07:51:09.844Z</time></trkpt><trkpt lat="44.0103483" lon="7.9796788"><ele>599.0</ele><time>2026-04-19T07:51:10.843Z</time></trkpt><trkpt lat="44.0103741" lon="7.9795253"><ele>599.0</ele><time>2026-04-19T07:51:11.842Z</time></trkpt><trkpt lat="44.0103842" lon="7.9793713"><ele>599.0</ele><time>2026-04-19T07:51:12.843Z</time></trkpt><trkpt lat="44.0103724" lon="7.9792204"><ele>599.0</ele><time>2026-04-19T07:51:13.848Z</time></trkpt><trkpt lat="44.0103464" lon="7.9790711"><ele>599.0</ele><time>2026-04-19T07:51:14.842Z</time></trkpt><trkpt lat="44.0103293" lon="7.9789118"><ele>599.0</ele><time>2026-04-19T07:51:15.842Z</time></trkpt><trkpt lat="44.0103201" lon="7.9787462"><ele>595.0</ele><time>2026-04-19T07:51:16.844Z</time></trkpt><trkpt lat="44.0103135" lon="7.9785746"><ele>591.0</ele><time>2026-04-19T07:51:17.842Z</time></trkpt><trkpt lat="44.0103035" lon="7.9783969"><ele>587.0</ele><time>2026-04-19T07:51:18.842Z</time></trkpt><trkpt lat="44.0102726" lon="7.9782251"><ele>583.0</ele><time>2026-04-19T07:51:19.843Z</time></trkpt><trkpt lat="44.0102251" lon="7.9780659"><ele>582.6</ele><time>2026-04-19T07:51:20.844Z</time></trkpt><trkpt lat="44.0101809" lon="7.9779241"><ele>582.1999999999999</ele><time>2026-04-19T07:51:21.842Z</time></trkpt><trkpt lat="44.0101661" lon="7.9778002"><ele>581.8</ele><time>2026-04-19T07:51:22.843Z</time></trkpt><trkpt lat="44.0101804" lon="7.9776767"><ele>581.4</ele><time>2026-04-19T07:51:23.843Z</time></trkpt><trkpt lat="44.010229" lon="7.9775722"><ele>581.0</ele><time>2026-04-19T07:51:24.844Z</time></trkpt><trkpt lat="44.0102765" lon="7.9774692"><ele>580.6666666666666</ele><time>2026-04-19T07:51:25.844Z</time></trkpt><trkpt lat="44.010295" lon="7.9773517"><ele>580.3333333333333</ele><time>2026-04-19T07:51:26.843Z</time></trkpt><trkpt lat="44.0102874" lon="7.9772456"><ele>580.0</ele><time>2026-04-19T07:51:27.843Z</time></trkpt><trkpt lat="44.0102547" lon="7.9771435"><ele>579.6666666666666</ele><time>2026-04-19T07:51:28.843Z</time></trkpt><trkpt lat="44.0101953" lon="7.9770363"><ele>579.3333333333334</ele><time>2026-04-19T07:51:29.843Z</time></trkpt><trkpt lat="44.0101204" lon="7.9769379"><ele>579.0</ele><time>2026-04-19T07:51:30.843Z</time></trkpt><trkpt lat="44.0100353" lon="7.9768471"><ele>570.25</ele><time>2026-04-19T07:51:31.843Z</time></trkpt><trkpt lat="44.0099488" lon="7.9767294"><ele>561.5</ele><time>2026-04-19T07:51:32.844Z</time></trkpt><trkpt lat="44.0098802" lon="7.9766001"><ele>552.75</ele><time>2026-04-19T07:51:33.849Z</time></trkpt><trkpt lat="44.0098136" lon="7.9764514"><ele>544.0</ele><time>2026-04-19T07:51:34.843Z</time></trkpt><trkpt lat="44.0097421" lon="7.9762921"><ele>544.0</ele><time>2026-04-19T07:51:35.843Z</time></trkpt><trkpt lat="44.009668" lon="7.9761357"><ele>544.0</ele><time>2026-04-19T07:51:36.843Z</time></trkpt><trkpt lat="44.0096097" lon="7.9759699"><ele>544.0</ele><time>2026-04-19T07:51:37.843Z</time></trkpt><trkpt lat="44.0095669" lon="7.975798"><ele>544.0</ele><time>2026-04-19T07:51:38.844Z</time></trkpt><trkpt lat="44.0095178" lon="7.9756239"><ele>546.75</ele><time>2026-04-19T07:51:39.843Z</time></trkpt><trkpt lat="44.0094616" lon="7.9754704"><ele>549.5</ele><time>2026-04-19T07:51:40.843Z</time></trkpt><trkpt lat="44.0094012" lon="7.9753194"><ele>552.25</ele><time>2026-04-19T07:51:41.842Z</time></trkpt><trkpt lat="44.0093392" lon="7.9751869"><ele>555.0</ele><time>2026-04-19T07:51:42.843Z</time></trkpt><trkpt lat="44.0092815" lon="7.975092"><ele>557.0</ele><time>2026-04-19T07:51:43.843Z</time></trkpt><trkpt lat="44.0092257" lon="7.9749934"><ele>559.0</ele><time>2026-04-19T07:51:44.843Z</time></trkpt><trkpt lat="44.0092529" lon="7.974829"><ele>561.0</ele><time>2026-04-19T07:51:46.843Z</time></trkpt><trkpt lat="44.0093437" lon="7.9747849"><ele>563.0</ele><time>2026-04-19T07:51:48.843Z</time></trkpt><trkpt lat="44.0094949" lon="7.9748488"><ele>563.0</ele><time>2026-04-19T07:51:50.843Z</time></trkpt><trkpt lat="44.0095856" lon="7.9748967"><ele>563.0</ele><time>2026-04-19T07:51:51.843Z</time></trkpt><trkpt lat="44.0096707" lon="7.9749691"><ele>563.0</ele><time>2026-04-19T07:51:52.843Z</time></trkpt><trkpt lat="44.0097513" lon="7.9750402"><ele>563.0</ele><time>2026-04-19T07:51:53.844Z</time></trkpt><trkpt lat="44.0098231" lon="7.9751202"><ele>563.0</ele><time>2026-04-19T07:51:54.842Z</time></trkpt><trkpt lat="44.0098987" lon="7.9752289"><ele>561.4</ele><time>2026-04-19T07:51:55.842Z</time></trkpt><trkpt lat="44.0099754" lon="7.9753258"><ele>559.8</ele><time>2026-04-19T07:51:56.843Z</time></trkpt><trkpt lat="44.0100632" lon="7.9753606"><ele>558.2</ele><time>2026-04-19T07:51:57.842Z</time></trkpt><trkpt lat="44.0101513" lon="7.9753856"><ele>556.6</ele><time>2026-04-19T07:51:58.843Z</time></trkpt><trkpt lat="44.0102604" lon="7.9753742"><ele>555.0</ele><time>2026-04-19T07:51:59.844Z</time></trkpt><trkpt lat="44.0103629" lon="7.9753168"><ele>556.4</ele><time>2026-04-19T07:52:00.842Z</time></trkpt><trkpt lat="44.0104689" lon="7.9752684"><ele>557.8</ele><time>2026-04-19T07:52:01.844Z</time></trkpt><trkpt lat="44.0105683" lon="7.9751978"><ele>559.2</ele><time>2026-04-19T07:52:02.842Z</time></trkpt><trkpt lat="44.0106715" lon="7.9751283"><ele>560.6</ele><time>2026-04-19T07:52:03.844Z</time></trkpt><trkpt lat="44.0107656" lon="7.9750464"><ele>562.0</ele><time>2026-04-19T07:52:04.844Z</time></trkpt><trkpt lat="44.0108626" lon="7.9749634"><ele>562.0</ele><time>2026-04-19T07:52:05.844Z</time></trkpt><trkpt lat="44.0109634" lon="7.9748799"><ele>562.0</ele><time>2026-04-19T07:52:06.843Z</time></trkpt><trkpt lat="44.011058" lon="7.9747884"><ele>562.0</ele><time>2026-04-19T07:52:07.843Z</time></trkpt><trkpt lat="44.0111525" lon="7.9747263"><ele>562.0</ele><time>2026-04-19T07:52:08.844Z</time></trkpt><trkpt lat="44.0112379" lon="7.9746832"><ele>562.0</ele><time>2026-04-19T07:52:09.844Z</time></trkpt><trkpt lat="44.0113199" lon="7.9746581"><ele>562.0</ele><time>2026-04-19T07:52:10.844Z</time></trkpt><trkpt lat="44.0114028" lon="7.9746471"><ele>562.0</ele><time>2026-04-19T07:52:11.843Z</time></trkpt><trkpt lat="44.0114625" lon="7.9747024"><ele>562.0</ele><time>2026-04-19T07:52:12.844Z</time></trkpt><trkpt lat="44.0115334" lon="7.9747501"><ele>562.0</ele><time>2026-04-19T07:52:13.844Z</time></trkpt><trkpt lat="44.0116132" lon="7.9747683"><ele>562.0</ele><time>2026-04-19T07:52:14.843Z</time></trkpt><trkpt lat="44.0116951" lon="7.9747686"><ele>562.0</ele><time>2026-04-19T07:52:15.843Z</time></trkpt><trkpt lat="44.0117938" lon="7.9747427"><ele>564.0</ele><time>2026-04-19T07:52:16.844Z</time></trkpt><trkpt lat="44.0118809" lon="7.9746832"><ele>566.0</ele><time>2026-04-19T07:52:17.844Z</time></trkpt><trkpt lat="44.0119806" lon="7.9746172"><ele>568.0</ele><time>2026-04-19T07:52:18.844Z</time></trkpt><trkpt lat="44.0120678" lon="7.9745248"><ele>570.0</ele><time>2026-04-19T07:52:19.843Z</time></trkpt><trkpt lat="44.0121546" lon="7.9744147"><ele>572.0</ele><time>2026-04-19T07:52:20.843Z</time></trkpt><trkpt lat="44.0122457" lon="7.9743046"><ele>572.0</ele><time>2026-04-19T07:52:21.843Z</time></trkpt><trkpt lat="44.0123367" lon="7.9742048"><ele>572.0</ele><time>2026-04-19T07:52:22.843Z</time></trkpt><trkpt lat="44.0124257" lon="7.9741005"><ele>572.0</ele><time>2026-04-19T07:52:23.845Z</time></trkpt><trkpt lat="44.0125143" lon="7.9740135"><ele>572.0</ele><time>2026-04-19T07:52:24.842Z</time></trkpt><trkpt lat="44.0125957" lon="7.9739248"><ele>572.0</ele><time>2026-04-19T07:52:25.844Z</time></trkpt><trkpt lat="44.0126638" lon="7.9738497"><ele>568.0</ele><time>2026-04-19T07:52:26.843Z</time></trkpt><trkpt lat="44.0127203" lon="7.9737914"><ele>564.0</ele><time>2026-04-19T07:52:27.843Z</time></trkpt><trkpt lat="44.0127774" lon="7.9737511"><ele>560.0</ele><time>2026-04-19T07:52:28.842Z</time></trkpt><trkpt lat="44.0128638" lon="7.9737288"><ele>556.0</ele><time>2026-04-19T07:52:30.843Z</time></trkpt><trkpt lat="44.012947" lon="7.9737695"><ele>552.0</ele><time>2026-04-19T07:52:32.842Z</time></trkpt><trkpt lat="44.0129925" lon="7.9738326"><ele>548.0</ele><time>2026-04-19T07:52:33.843Z</time></trkpt><trkpt lat="44.013039" lon="7.9739187"><ele>548.0</ele><time>2026-04-19T07:52:34.843Z</time></trkpt><trkpt lat="44.0130876" lon="7.9740489"><ele>548.0</ele><time>2026-04-19T07:52:35.843Z</time></trkpt><trkpt lat="44.0131296" lon="7.9741659"><ele>548.0</ele><time>2026-04-19T07:52:36.842Z</time></trkpt><trkpt lat="44.0131762" lon="7.9742896"><ele>548.0</ele><time>2026-04-19T07:52:37.843Z</time></trkpt><trkpt lat="44.0132223" lon="7.9744126"><ele>548.0</ele><time>2026-04-19T07:52:38.844Z</time></trkpt><trkpt lat="44.0132585" lon="7.9745663"><ele>551.8</ele><time>2026-04-19T07:52:39.843Z</time></trkpt><trkpt lat="44.0133548" lon="7.974635"><ele>555.5999999999999</ele><time>2026-04-19T07:52:40.843Z</time></trkpt><trkpt lat="44.0134414" lon="7.9747153"><ele>559.4000000000001</ele><time>2026-04-19T07:52:41.843Z</time></trkpt><trkpt lat="44.0135312" lon="7.9747742"><ele>563.2</ele><time>2026-04-19T07:52:42.843Z</time></trkpt><trkpt lat="44.0136308" lon="7.9748465"><ele>567.0</ele><time>2026-04-19T07:52:43.843Z</time></trkpt><trkpt lat="44.0137304" lon="7.9749503"><ele>576.25</ele><time>2026-04-19T07:52:44.844Z</time></trkpt><trkpt lat="44.013851" lon="7.9750348"><ele>585.5</ele><time>2026-04-19T07:52:45.843Z</time></trkpt><trkpt lat="44.0139407" lon="7.975086"><ele>594.75</ele><time>2026-04-19T07:52:46.844Z</time></trkpt><trkpt lat="44.0140461" lon="7.9751771"><ele>604.0</ele><time>2026-04-19T07:52:47.843Z</time></trkpt><trkpt lat="44.0141118" lon="7.9752804"><ele>601.3333333333334</ele><time>2026-04-19T07:52:48.843Z</time></trkpt><trkpt lat="44.0141611" lon="7.9753666"><ele>598.6666666666667</ele><time>2026-04-19T07:52:49.842Z</time></trkpt><trkpt lat="44.014235" lon="7.9754228"><ele>596.0</ele><time>2026-04-19T07:52:50.843Z</time></trkpt><trkpt lat="44.0143087" lon="7.9754221"><ele>593.3333333333334</ele><time>2026-04-19T07:52:51.843Z</time></trkpt><trkpt lat="44.0143785" lon="7.9753515"><ele>590.6666666666666</ele><time>2026-04-19T07:52:52.843Z</time></trkpt><trkpt lat="44.0144382" lon="7.9752417"><ele>588.0</ele><time>2026-04-19T07:52:53.844Z</time></trkpt><trkpt lat="44.0144853" lon="7.9751225"><ele>578.75</ele><time>2026-04-19T07:52:54.842Z</time></trkpt><trkpt lat="44.0145354" lon="7.9749978"><ele>569.5</ele><time>2026-04-19T07:52:55.843Z</time></trkpt><trkpt lat="44.0145898" lon="7.9748673"><ele>560.25</ele><time>2026-04-19T07:52:56.843Z</time></trkpt><trkpt lat="44.0146439" lon="7.9747112"><ele>551.0</ele><time>2026-04-19T07:52:57.843Z</time></trkpt><trkpt lat="44.0146838" lon="7.9745532"><ele>551.0</ele><time>2026-04-19T07:52:58.842Z</time></trkpt><trkpt lat="44.0147347" lon="7.9743909"><ele>551.0</ele><time>2026-04-19T07:52:59.844Z</time></trkpt><trkpt lat="44.0147951" lon="7.9742412"><ele>551.0</ele><time>2026-04-19T07:53:00.844Z</time></trkpt><trkpt lat="44.0148535" lon="7.9741062"><ele>551.0</ele><time>2026-04-19T07:53:01.843Z</time></trkpt><trkpt lat="44.0149124" lon="7.9739902"><ele>550.4</ele><time>2026-04-19T07:53:02.844Z</time></trkpt><trkpt lat="44.0150071" lon="7.9739475"><ele>549.8</ele><time>2026-04-19T07:53:03.843Z</time></trkpt><trkpt lat="44.0151175" lon="7.9739505"><ele>549.1999999999999</ele><time>2026-04-19T07:53:04.843Z</time></trkpt><trkpt lat="44.015221" lon="7.9739503"><ele>548.6</ele><time>2026-04-19T07:53:05.843Z</time></trkpt><trkpt lat="44.0153207" lon="7.9739508"><ele>548.0</ele><time>2026-04-19T07:53:06.843Z</time></trkpt><trkpt lat="44.0154289" lon="7.9739625"><ele>548.0</ele><time>2026-04-19T07:53:07.843Z</time></trkpt><trkpt lat="44.0155314" lon="7.9739833"><ele>548.0</ele><time>2026-04-19T07:53:08.843Z</time></trkpt><trkpt lat="44.0156544" lon="7.9739926"><ele>548.0</ele><time>2026-04-19T07:53:09.843Z</time></trkpt><trkpt lat="44.0157796" lon="7.973998"><ele>548.0</ele><time>2026-04-19T07:53:10.842Z</time></trkpt><trkpt lat="44.0158954" lon="7.9740007"><ele>552.5</ele><time>2026-04-19T07:53:11.843Z</time></trkpt><trkpt lat="44.0160163" lon="7.9740146"><ele>557.0</ele><time>2026-04-19T07:53:12.843Z</time></trkpt><trkpt lat="44.0161358" lon="7.9740369"><ele>561.5</ele><time>2026-04-19T07:53:13.844Z</time></trkpt><trkpt lat="44.0162588" lon="7.9740365"><ele>566.0</ele><time>2026-04-19T07:53:14.844Z</time></trkpt><trkpt lat="44.0163786" lon="7.974039"><ele>566.0</ele><time>2026-04-19T07:53:15.843Z</time></trkpt><trkpt lat="44.0165041" lon="7.9740454"><ele>566.0</ele><time>2026-04-19T07:53:16.844Z</time></trkpt><trkpt lat="44.0166031" lon="7.9740803"><ele>566.0</ele><time>2026-04-19T07:53:17.844Z</time></trkpt><trkpt lat="44.0167072" lon="7.9741115"><ele>566.0</ele><time>2026-04-19T07:53:18.844Z</time></trkpt><trkpt lat="44.0167769" lon="7.974172"><ele>566.0</ele><time>2026-04-19T07:53:19.844Z</time></trkpt><trkpt lat="44.0168229" lon="7.9742722"><ele>565.5</ele><time>2026-04-19T07:53:20.844Z</time></trkpt><trkpt lat="44.0168836" lon="7.9742959"><ele>565.0</ele><time>2026-04-19T07:53:21.845Z</time></trkpt><trkpt lat="44.0169539" lon="7.9743035"><ele>564.5</ele><time>2026-04-19T07:53:22.844Z</time></trkpt><trkpt lat="44.0170169" lon="7.9742565"><ele>564.0</ele><time>2026-04-19T07:53:23.844Z</time></trkpt><trkpt lat="44.0170696" lon="7.9741814"><ele>563.5</ele><time>2026-04-19T07:53:24.843Z</time></trkpt><trkpt lat="44.0171081" lon="7.9740873"><ele>563.0</ele><time>2026-04-19T07:53:25.844Z</time></trkpt><trkpt lat="44.0171591" lon="7.9739762"><ele>563.0</ele><time>2026-04-19T07:53:26.843Z</time></trkpt><trkpt lat="44.0172133" lon="7.9738692"><ele>563.0</ele><time>2026-04-19T07:53:27.843Z</time></trkpt><trkpt lat="44.0172717" lon="7.9737785"><ele>563.0</ele><time>2026-04-19T07:53:28.843Z</time></trkpt><trkpt lat="44.0173097" lon="7.9736912"><ele>563.0</ele><time>2026-04-19T07:53:29.844Z</time></trkpt><trkpt lat="44.0173477" lon="7.9735951"><ele>563.0</ele><time>2026-04-19T07:53:30.843Z</time></trkpt><trkpt lat="44.0173696" lon="7.9734994"><ele>563.0</ele><time>2026-04-19T07:53:31.844Z</time></trkpt><trkpt lat="44.0173156" lon="7.9734162"><ele>558.8</ele><time>2026-04-19T07:53:32.843Z</time></trkpt><trkpt lat="44.0172313" lon="7.9732713"><ele>554.5999999999999</ele><time>2026-04-19T07:53:34.842Z</time></trkpt><trkpt lat="44.0171689" lon="7.973191"><ele>550.4000000000001</ele><time>2026-04-19T07:53:35.843Z</time></trkpt><trkpt lat="44.0171078" lon="7.9731034"><ele>546.2</ele><time>2026-04-19T07:53:36.844Z</time></trkpt><trkpt lat="44.0170557" lon="7.9729735"><ele>542.0</ele><time>2026-04-19T07:53:37.843Z</time></trkpt><trkpt lat="44.017005" lon="7.9728423"><ele>542.0</ele><time>2026-04-19T07:53:38.843Z</time></trkpt><trkpt lat="44.0169546" lon="7.9727166"><ele>542.0</ele><time>2026-04-19T07:53:39.843Z</time></trkpt><trkpt lat="44.0169204" lon="7.9725669"><ele>542.0</ele><time>2026-04-19T07:53:40.844Z</time></trkpt><trkpt lat="44.0168741" lon="7.9724213"><ele>542.0</ele><time>2026-04-19T07:53:41.843Z</time></trkpt><trkpt lat="44.0168376" lon="7.9722684"><ele>542.0</ele><time>2026-04-19T07:53:42.843Z</time></trkpt><trkpt lat="44.0167765" lon="7.9721211"><ele>540.0</ele><time>2026-04-19T07:53:43.843Z</time></trkpt><trkpt lat="44.0167168" lon="7.9719916"><ele>538.0</ele><time>2026-04-19T07:53:44.843Z</time></trkpt><trkpt lat="44.0166451" lon="7.9718617"><ele>536.0</ele><time>2026-04-19T07:53:45.843Z</time></trkpt><trkpt lat="44.0165584" lon="7.9717476"><ele>534.0</ele><time>2026-04-19T07:53:46.843Z</time></trkpt><trkpt lat="44.0164758" lon="7.9716297"><ele>534.0</ele><time>2026-04-19T07:53:47.843Z</time></trkpt><trkpt lat="44.0163969" lon="7.9714995"><ele>534.0</ele><time>2026-04-19T07:53:48.845Z</time></trkpt><trkpt lat="44.0163238" lon="7.9713444"><ele>534.0</ele><time>2026-04-19T07:53:49.843Z</time></trkpt><trkpt lat="44.0162729" lon="7.9711912"><ele>534.0</ele><time>2026-04-19T07:53:50.843Z</time></trkpt><trkpt lat="44.0162241" lon="7.9710428"><ele>534.0</ele><time>2026-04-19T07:53:51.843Z</time></trkpt><trkpt lat="44.0161507" lon="7.9708928"><ele>534.0</ele><time>2026-04-19T07:53:52.844Z</time></trkpt><trkpt lat="44.0161027" lon="7.9707539"><ele>534.0</ele><time>2026-04-19T07:53:53.843Z</time></trkpt><trkpt lat="44.0160584" lon="7.970615"><ele>534.0</ele><time>2026-04-19T07:53:54.843Z</time></trkpt><trkpt lat="44.0160465" lon="7.9704787"><ele>534.0</ele><time>2026-04-19T07:53:55.843Z</time></trkpt><trkpt lat="44.0161039" lon="7.9703717"><ele>537.1666666666666</ele><time>2026-04-19T07:53:56.843Z</time></trkpt><trkpt lat="44.0162037" lon="7.9703158"><ele>540.3333333333334</ele><time>2026-04-19T07:53:57.843Z</time></trkpt><trkpt lat="44.0162752" lon="7.9702649"><ele>543.5</ele><time>2026-04-19T07:53:58.843Z</time></trkpt><trkpt lat="44.0163594" lon="7.970258"><ele>546.6666666666667</ele><time>2026-04-19T07:53:59.843Z</time></trkpt><trkpt lat="44.0164408" lon="7.9702347"><ele>549.8333333333334</ele><time>2026-04-19T07:54:00.843Z</time></trkpt><trkpt lat="44.0165109" lon="7.9702252"><ele>553.0</ele><time>2026-04-19T07:54:01.843Z</time></trkpt><trkpt lat="44.0165924" lon="7.9701731"><ele>553.0</ele><time>2026-04-19T07:54:02.843Z</time></trkpt><trkpt lat="44.0166486" lon="7.9700827"><ele>553.0</ele><time>2026-04-19T07:54:03.842Z</time></trkpt><trkpt lat="44.0167047" lon="7.9699789"><ele>553.0</ele><time>2026-04-19T07:54:04.843Z</time></trkpt><trkpt lat="44.0167597" lon="7.9698588"><ele>553.0</ele><time>2026-04-19T07:54:05.843Z</time></trkpt><trkpt lat="44.0168189" lon="7.9697528"><ele>553.0</ele><time>2026-04-19T07:54:06.844Z</time></trkpt><trkpt lat="44.0168941" lon="7.9696611"><ele>553.8</ele><time>2026-04-19T07:54:07.843Z</time></trkpt><trkpt lat="44.0169724" lon="7.9695873"><ele>554.5999999999999</ele><time>2026-04-19T07:54:08.843Z</time></trkpt><trkpt lat="44.0170407" lon="7.9694968"><ele>555.4000000000001</ele><time>2026-04-19T07:54:09.843Z</time></trkpt><trkpt lat="44.0170882" lon="7.9693834"><ele>556.2</ele><time>2026-04-19T07:54:10.843Z</time></trkpt><trkpt lat="44.017131" lon="7.9692628"><ele>557.0</ele><time>2026-04-19T07:54:11.843Z</time></trkpt><trkpt lat="44.0171606" lon="7.9691364"><ele>557.0</ele><time>2026-04-19T07:54:12.843Z</time></trkpt><trkpt lat="44.0171821" lon="7.9690153"><ele>557.0</ele><time>2026-04-19T07:54:13.844Z</time></trkpt><trkpt lat="44.017117" lon="7.9688878"><ele>557.0</ele><time>2026-04-19T07:54:14.843Z</time></trkpt><trkpt lat="44.0170585" lon="7.9687954"><ele>557.0</ele><time>2026-04-19T07:54:15.843Z</time></trkpt><trkpt lat="44.0169764" lon="7.9687309"><ele>557.0</ele><time>2026-04-19T07:54:16.843Z</time></trkpt><trkpt lat="44.0168869" lon="7.9686759"><ele>557.0</ele><time>2026-04-19T07:54:17.843Z</time></trkpt><trkpt lat="44.0168078" lon="7.968621"><ele>557.0</ele><time>2026-04-19T07:54:18.843Z</time></trkpt><trkpt lat="44.0167349" lon="7.9685322"><ele>557.0</ele><time>2026-04-19T07:54:19.843Z</time></trkpt><trkpt lat="44.0166496" lon="7.9684253"><ele>557.0</ele><time>2026-04-19T07:54:20.844Z</time></trkpt><trkpt lat="44.0165582" lon="7.9683184"><ele>557.0</ele><time>2026-04-19T07:54:21.844Z</time></trkpt><trkpt lat="44.016488" lon="7.9682283"><ele>552.75</ele><time>2026-04-19T07:54:22.842Z</time></trkpt><trkpt lat="44.0164359" lon="7.968087"><ele>548.5</ele><time>2026-04-19T07:54:23.844Z</time></trkpt><trkpt lat="44.0164012" lon="7.9679304"><ele>544.25</ele><time>2026-04-19T07:54:24.843Z</time></trkpt><trkpt lat="44.0163852" lon="7.967772"><ele>540.0</ele><time>2026-04-19T07:54:25.843Z</time></trkpt><trkpt lat="44.0164825" lon="7.967641"><ele>541.0</ele><time>2026-04-19T07:54:26.843Z</time></trkpt><trkpt lat="44.016538" lon="7.9675207"><ele>542.0</ele><time>2026-04-19T07:54:27.843Z</time></trkpt><trkpt lat="44.0166014" lon="7.967408"><ele>543.0</ele><time>2026-04-19T07:54:28.842Z</time></trkpt><trkpt lat="44.016663" lon="7.9672891"><ele>544.0</ele><time>2026-04-19T07:54:29.843Z</time></trkpt><trkpt lat="44.0166919" lon="7.9671435"><ele>545.0</ele><time>2026-04-19T07:54:30.843Z</time></trkpt><trkpt lat="44.0167146" lon="7.9669977"><ele>548.5</ele><time>2026-04-19T07:54:31.844Z</time></trkpt><trkpt lat="44.0167213" lon="7.9668632"><ele>552.0</ele><time>2026-04-19T07:54:32.844Z</time></trkpt><trkpt lat="44.0167131" lon="7.9667439"><ele>555.5</ele><time>2026-04-19T07:54:33.843Z</time></trkpt><trkpt lat="44.0166651" lon="7.9666478"><ele>559.0</ele><time>2026-04-19T07:54:34.843Z</time></trkpt><trkpt lat="44.0165948" lon="7.9665988"><ele>562.5</ele><time>2026-04-19T07:54:35.843Z</time></trkpt><trkpt lat="44.0165085" lon="7.9665658"><ele>566.0</ele><time>2026-04-19T07:54:36.843Z</time></trkpt><trkpt lat="44.0164196" lon="7.9665493"><ele>566.0</ele><time>2026-04-19T07:54:37.843Z</time></trkpt><trkpt lat="44.0163227" lon="7.9665242"><ele>566.0</ele><time>2026-04-19T07:54:38.843Z</time></trkpt><trkpt lat="44.016222" lon="7.966502"><ele>566.0</ele><time>2026-04-19T07:54:39.842Z</time></trkpt><trkpt lat="44.0161174" lon="7.9664395"><ele>566.0</ele><time>2026-04-19T07:54:40.843Z</time></trkpt><trkpt lat="44.0160313" lon="7.9663678"><ele>566.0</ele><time>2026-04-19T07:54:41.843Z</time></trkpt><trkpt lat="44.0159281" lon="7.9662941"><ele>566.0</ele><time>2026-04-19T07:54:42.843Z</time></trkpt><trkpt lat="44.0158736" lon="7.9661725"><ele>566.0</ele><time>2026-04-19T07:54:43.843Z</time></trkpt><trkpt lat="44.01581" lon="7.9660286"><ele>566.0</ele><time>2026-04-19T07:54:44.843Z</time></trkpt><trkpt lat="44.0157537" lon="7.9659153"><ele>566.0</ele><time>2026-04-19T07:54:45.844Z</time></trkpt><trkpt lat="44.0156978" lon="7.9657979"><ele>566.0</ele><time>2026-04-19T07:54:46.843Z</time></trkpt><trkpt lat="44.0156193" lon="7.9656992"><ele>572.6</ele><time>2026-04-19T07:54:47.843Z</time></trkpt><trkpt lat="44.0155459" lon="7.9656562"><ele>579.2</ele><time>2026-04-19T07:54:48.843Z</time></trkpt><trkpt lat="44.0154444" lon="7.9656523"><ele>585.8</ele><time>2026-04-19T07:54:49.844Z</time></trkpt><trkpt lat="44.015359" lon="7.9656611"><ele>592.4</ele><time>2026-04-19T07:54:50.843Z</time></trkpt><trkpt lat="44.0152682" lon="7.9657043"><ele>599.0</ele><time>2026-04-19T07:54:51.843Z</time></trkpt><trkpt lat="44.0151847" lon="7.9657775"><ele>592.8</ele><time>2026-04-19T07:54:52.843Z</time></trkpt><trkpt lat="44.0151021" lon="7.9658717"><ele>586.5999999999999</ele><time>2026-04-19T07:54:53.843Z</time></trkpt><trkpt lat="44.0150358" lon="7.9659451"><ele>580.4</ele><time>2026-04-19T07:54:54.844Z</time></trkpt><trkpt lat="44.0149554" lon="7.9660383"><ele>574.1999999999999</ele><time>2026-04-19T07:54:55.843Z</time></trkpt><trkpt lat="44.0148564" lon="7.9661357"><ele>568.0</ele><time>2026-04-19T07:54:56.843Z</time></trkpt><trkpt lat="44.0147929" lon="7.9662143"><ele>567.4</ele><time>2026-04-19T07:54:57.843Z</time></trkpt><trkpt lat="44.0147122" lon="7.9662546"><ele>566.8</ele><time>2026-04-19T07:54:58.843Z</time></trkpt><trkpt lat="44.0146095" lon="7.9662477"><ele>566.2</ele><time>2026-04-19T07:54:59.844Z</time></trkpt><trkpt lat="44.014516" lon="7.9662273"><ele>565.6</ele><time>2026-04-19T07:55:00.842Z</time></trkpt><trkpt lat="44.0144252" lon="7.9661904"><ele>565.0</ele><time>2026-04-19T07:55:01.843Z</time></trkpt><trkpt lat="44.0143386" lon="7.9661072"><ele>565.0</ele><time>2026-04-19T07:55:02.843Z</time></trkpt><trkpt lat="44.0142825" lon="7.9659995"><ele>565.0</ele><time>2026-04-19T07:55:03.844Z</time></trkpt><trkpt lat="44.0142086" lon="7.9658885"><ele>565.0</ele><time>2026-04-19T07:55:04.842Z</time></trkpt><trkpt lat="44.0141638" lon="7.9657606"><ele>565.0</ele><time>2026-04-19T07:55:05.843Z</time></trkpt><trkpt lat="44.014133" lon="7.9656249"><ele>565.0</ele><time>2026-04-19T07:55:06.843Z</time></trkpt><trkpt lat="44.0141153" lon="7.9654839"><ele>563.6</ele><time>2026-04-19T07:55:07.843Z</time></trkpt><trkpt lat="44.0140788" lon="7.9653361"><ele>562.2</ele><time>2026-04-19T07:55:08.844Z</time></trkpt><trkpt lat="44.0140425" lon="7.9651891"><ele>560.8</ele><time>2026-04-19T07:55:09.842Z</time></trkpt><trkpt lat="44.0140062" lon="7.9650488"><ele>559.4</ele><time>2026-04-19T07:55:10.843Z</time></trkpt><trkpt lat="44.0139783" lon="7.9649104"><ele>558.0</ele><time>2026-04-19T07:55:11.843Z</time></trkpt><trkpt lat="44.0139549" lon="7.9647596"><ele>558.0</ele><time>2026-04-19T07:55:12.842Z</time></trkpt><trkpt lat="44.0139752" lon="7.9645862"><ele>558.0</ele><time>2026-04-19T07:55:13.843Z</time></trkpt><trkpt lat="44.0139731" lon="7.9644231"><ele>558.0</ele><time>2026-04-19T07:55:14.843Z</time></trkpt><trkpt lat="44.013987" lon="7.9642534"><ele>558.0</ele><time>2026-04-19T07:55:15.843Z</time></trkpt><trkpt lat="44.0140086" lon="7.9640959"><ele>559.25</ele><time>2026-04-19T07:55:16.844Z</time></trkpt><trkpt lat="44.0140104" lon="7.9639311"><ele>560.5</ele><time>2026-04-19T07:55:17.843Z</time></trkpt><trkpt lat="44.0139966" lon="7.9637722"><ele>561.75</ele><time>2026-04-19T07:55:18.843Z</time></trkpt><trkpt lat="44.0139586" lon="7.9636079"><ele>563.0</ele><time>2026-04-19T07:55:19.843Z</time></trkpt><trkpt lat="44.0139313" lon="7.9634293"><ele>566.25</ele><time>2026-04-19T07:55:20.842Z</time></trkpt><trkpt lat="44.0138969" lon="7.9632648"><ele>569.5</ele><time>2026-04-19T07:55:21.842Z</time></trkpt><trkpt lat="44.0138605" lon="7.9630994"><ele>572.75</ele><time>2026-04-19T07:55:22.843Z</time></trkpt><trkpt lat="44.0137905" lon="7.962954"><ele>576.0</ele><time>2026-04-19T07:55:23.842Z</time></trkpt><trkpt lat="44.0137113" lon="7.9628138"><ele>576.0</ele><time>2026-04-19T07:55:24.842Z</time></trkpt><trkpt lat="44.0136277" lon="7.9626794"><ele>576.0</ele><time>2026-04-19T07:55:25.844Z</time></trkpt><trkpt lat="44.0135412" lon="7.9625452"><ele>576.0</ele><time>2026-04-19T07:55:26.844Z</time></trkpt><trkpt lat="44.013449" lon="7.9624186"><ele>576.0</ele><time>2026-04-19T07:55:27.843Z</time></trkpt><trkpt lat="44.0133566" lon="7.9623105"><ele>573.25</ele><time>2026-04-19T07:55:28.844Z</time></trkpt><trkpt lat="44.0132669" lon="7.9622003"><ele>570.5</ele><time>2026-04-19T07:55:29.844Z</time></trkpt><trkpt lat="44.0131957" lon="7.9620733"><ele>567.75</ele><time>2026-04-19T07:55:30.843Z</time></trkpt><trkpt lat="44.0131452" lon="7.9619434"><ele>565.0</ele><time>2026-04-19T07:55:31.843Z</time></trkpt><trkpt lat="44.0131164" lon="7.961796"><ele>566.75</ele><time>2026-04-19T07:55:32.843Z</time></trkpt><trkpt lat="44.0131149" lon="7.9616324"><ele>568.5</ele><time>2026-04-19T07:55:33.843Z</time></trkpt><trkpt lat="44.0131131" lon="7.9614882"><ele>570.25</ele><time>2026-04-19T07:55:34.843Z</time></trkpt><trkpt lat="44.0131144" lon="7.9613288"><ele>572.0</ele><time>2026-04-19T07:55:35.843Z</time></trkpt><trkpt lat="44.0131239" lon="7.9611664"><ele>572.0</ele><time>2026-04-19T07:55:36.843Z</time></trkpt><trkpt lat="44.0131214" lon="7.9609983"><ele>572.0</ele><time>2026-04-19T07:55:37.843Z</time></trkpt><trkpt lat="44.013114" lon="7.9608437"><ele>572.0</ele><time>2026-04-19T07:55:38.842Z</time></trkpt><trkpt lat="44.0130929" lon="7.9606812"><ele>572.0</ele><time>2026-04-19T07:55:39.844Z</time></trkpt><trkpt lat="44.0130574" lon="7.9605251"><ele>574.5</ele><time>2026-04-19T07:55:40.842Z</time></trkpt><trkpt lat="44.0130076" lon="7.9603906"><ele>577.0</ele><time>2026-04-19T07:55:41.844Z</time></trkpt><trkpt lat="44.0129477" lon="7.9602575"><ele>579.5</ele><time>2026-04-19T07:55:42.843Z</time></trkpt><trkpt lat="44.0128564" lon="7.9601509"><ele>582.0</ele><time>2026-04-19T07:55:43.843Z</time></trkpt><trkpt lat="44.0127711" lon="7.9600484"><ele>582.25</ele><time>2026-04-19T07:55:44.844Z</time></trkpt><trkpt lat="44.0126754" lon="7.9599301"><ele>582.5</ele><time>2026-04-19T07:55:45.844Z</time></trkpt><trkpt lat="44.0125884" lon="7.9598154"><ele>582.75</ele><time>2026-04-19T07:55:46.844Z</time></trkpt><trkpt lat="44.0124938" lon="7.9597038"><ele>583.0</ele><time>2026-04-19T07:55:47.843Z</time></trkpt><trkpt lat="44.0124008" lon="7.9595883"><ele>583.0</ele><time>2026-04-19T07:55:48.843Z</time></trkpt><trkpt lat="44.0123228" lon="7.9594485"><ele>583.0</ele><time>2026-04-19T07:55:49.843Z</time></trkpt><trkpt lat="44.0122189" lon="7.9593416"><ele>583.0</ele><time>2026-04-19T07:55:50.843Z</time></trkpt><trkpt lat="44.0120969" lon="7.959246"><ele>583.0</ele><time>2026-04-19T07:55:51.843Z</time></trkpt><trkpt lat="44.0119645" lon="7.9592159"><ele>590.75</ele><time>2026-04-19T07:55:52.844Z</time></trkpt><trkpt lat="44.0118355" lon="7.9591842"><ele>598.5</ele><time>2026-04-19T07:55:53.843Z</time></trkpt><trkpt lat="44.0117025" lon="7.9591493"><ele>606.25</ele><time>2026-04-19T07:55:54.843Z</time></trkpt><trkpt lat="44.0115644" lon="7.9591238"><ele>614.0</ele><time>2026-04-19T07:55:55.843Z</time></trkpt><trkpt lat="44.0114399" lon="7.9591142"><ele>614.0</ele><time>2026-04-19T07:55:56.843Z</time></trkpt><trkpt lat="44.0113121" lon="7.9591077"><ele>614.0</ele><time>2026-04-19T07:55:57.843Z</time></trkpt><trkpt lat="44.0111896" lon="7.9590846"><ele>614.0</ele><time>2026-04-19T07:55:58.843Z</time></trkpt><trkpt lat="44.0110596" lon="7.9590803"><ele>614.0</ele><time>2026-04-19T07:55:59.843Z</time></trkpt><trkpt lat="44.010932" lon="7.9590969"><ele>607.0</ele><time>2026-04-19T07:56:00.843Z</time></trkpt><trkpt lat="44.0108062" lon="7.9591362"><ele>600.0</ele><time>2026-04-19T07:56:01.843Z</time></trkpt><trkpt lat="44.0107013" lon="7.9592041"><ele>593.0</ele><time>2026-04-19T07:56:02.843Z</time></trkpt><trkpt lat="44.0105952" lon="7.9592225"><ele>586.0</ele><time>2026-04-19T07:56:03.843Z</time></trkpt><trkpt lat="44.0104929" lon="7.9592087"><ele>586.0</ele><time>2026-04-19T07:56:04.843Z</time></trkpt><trkpt lat="44.0103936" lon="7.9591711"><ele>586.0</ele><time>2026-04-19T07:56:05.844Z</time></trkpt><trkpt lat="44.0103499" lon="7.959047"><ele>586.0</ele><time>2026-04-19T07:56:06.843Z</time></trkpt><trkpt lat="44.0103203" lon="7.9589282"><ele>586.0</ele><time>2026-04-19T07:56:07.843Z</time></trkpt><trkpt lat="44.0103064" lon="7.958801"><ele>586.0</ele><time>2026-04-19T07:56:08.843Z</time></trkpt><trkpt lat="44.0103238" lon="7.9586618"><ele>586.0</ele><time>2026-04-19T07:56:09.842Z</time></trkpt><trkpt lat="44.0103546" lon="7.9585187"><ele>586.0</ele><time>2026-04-19T07:56:10.844Z</time></trkpt><trkpt lat="44.0103677" lon="7.9583731"><ele>586.0</ele><time>2026-04-19T07:56:11.843Z</time></trkpt><trkpt lat="44.0103829" lon="7.9582179"><ele>586.0</ele><time>2026-04-19T07:56:12.844Z</time></trkpt><trkpt lat="44.0104017" lon="7.9580608"><ele>586.0</ele><time>2026-04-19T07:56:13.843Z</time></trkpt><trkpt lat="44.0104106" lon="7.9579166"><ele>586.75</ele><time>2026-04-19T07:56:14.842Z</time></trkpt><trkpt lat="44.0104339" lon="7.9577566"><ele>587.5</ele><time>2026-04-19T07:56:15.843Z</time></trkpt><trkpt lat="44.0104672" lon="7.9576045"><ele>588.25</ele><time>2026-04-19T07:56:16.843Z</time></trkpt><trkpt lat="44.0104826" lon="7.9574404"><ele>589.0</ele><time>2026-04-19T07:56:17.843Z</time></trkpt><trkpt lat="44.0104651" lon="7.9572833"><ele>590.5</ele><time>2026-04-19T07:56:18.843Z</time></trkpt><trkpt lat="44.0104248" lon="7.9571355"><ele>592.0</ele><time>2026-04-19T07:56:19.843Z</time></trkpt><trkpt lat="44.0103749" lon="7.956983"><ele>593.5</ele><time>2026-04-19T07:56:20.844Z</time></trkpt><trkpt lat="44.010311" lon="7.9568377"><ele>595.0</ele><time>2026-04-19T07:56:21.843Z</time></trkpt><trkpt lat="44.010235" lon="7.9567134"><ele>597.4</ele><time>2026-04-19T07:56:22.842Z</time></trkpt><trkpt lat="44.0101575" lon="7.9565969"><ele>599.8</ele><time>2026-04-19T07:56:23.843Z</time></trkpt><trkpt lat="44.0100928" lon="7.9564824"><ele>602.2</ele><time>2026-04-19T07:56:24.843Z</time></trkpt><trkpt lat="44.0100841" lon="7.9563381"><ele>604.6</ele><time>2026-04-19T07:56:25.843Z</time></trkpt><trkpt lat="44.0100704" lon="7.9561938"><ele>607.0</ele><time>2026-04-19T07:56:26.843Z</time></trkpt><trkpt lat="44.0101005" lon="7.9560426"><ele>607.0</ele><time>2026-04-19T07:56:27.842Z</time></trkpt><trkpt lat="44.0101393" lon="7.9559041"><ele>607.0</ele><time>2026-04-19T07:56:28.845Z</time></trkpt><trkpt lat="44.0102039" lon="7.9558084"><ele>607.0</ele><time>2026-04-19T07:56:29.843Z</time></trkpt><trkpt lat="44.0102834" lon="7.9557294"><ele>607.0</ele><time>2026-04-19T07:56:30.843Z</time></trkpt><trkpt lat="44.0103555" lon="7.9556738"><ele>607.0</ele><time>2026-04-19T07:56:31.843Z</time></trkpt><trkpt lat="44.0104254" lon="7.9556236"><ele>606.0</ele><time>2026-04-19T07:56:32.843Z</time></trkpt><trkpt lat="44.0104995" lon="7.9555679"><ele>605.0</ele><time>2026-04-19T07:56:33.843Z</time></trkpt><trkpt lat="44.010567" lon="7.9555014"><ele>604.0</ele><time>2026-04-19T07:56:34.843Z</time></trkpt><trkpt lat="44.0106255" lon="7.9554232"><ele>603.0</ele><time>2026-04-19T07:56:35.844Z</time></trkpt><trkpt lat="44.0106687" lon="7.9553248"><ele>602.0</ele><time>2026-04-19T07:56:36.843Z</time></trkpt><trkpt lat="44.0107129" lon="7.9552266"><ele>601.0</ele><time>2026-04-19T07:56:37.842Z</time></trkpt><trkpt lat="44.0107408" lon="7.9551182"><ele>599.8333333333334</ele><time>2026-04-19T07:56:38.844Z</time></trkpt><trkpt lat="44.010765" lon="7.9550112"><ele>598.6666666666667</ele><time>2026-04-19T07:56:39.844Z</time></trkpt><trkpt lat="44.0107764" lon="7.9548977"><ele>597.5</ele><time>2026-04-19T07:56:40.844Z</time></trkpt><trkpt lat="44.0107762" lon="7.9547749"><ele>596.3333333333334</ele><time>2026-04-19T07:56:41.843Z</time></trkpt><trkpt lat="44.0107635" lon="7.9546506"><ele>595.1666666666666</ele><time>2026-04-19T07:56:42.842Z</time></trkpt><trkpt lat="44.0107293" lon="7.9545198"><ele>594.0</ele><time>2026-04-19T07:56:43.843Z</time></trkpt><trkpt lat="44.0106886" lon="7.9543922"><ele>594.0</ele><time>2026-04-19T07:56:44.844Z</time></trkpt><trkpt lat="44.0106468" lon="7.9542609"><ele>594.0</ele><time>2026-04-19T07:56:45.844Z</time></trkpt><trkpt lat="44.0106037" lon="7.9541285"><ele>594.0</ele><time>2026-04-19T07:56:46.843Z</time></trkpt><trkpt lat="44.0105601" lon="7.9539875"><ele>594.0</ele><time>2026-04-19T07:56:47.843Z</time></trkpt><trkpt lat="44.0105154" lon="7.9538479"><ele>594.0</ele><time>2026-04-19T07:56:48.843Z</time></trkpt><trkpt lat="44.010472" lon="7.9537022"><ele>594.0</ele><time>2026-04-19T07:56:49.844Z</time></trkpt><trkpt lat="44.0104272" lon="7.953558"><ele>594.0</ele><time>2026-04-19T07:56:50.843Z</time></trkpt><trkpt lat="44.0103795" lon="7.9534218"><ele>594.0</ele><time>2026-04-19T07:56:51.843Z</time></trkpt><trkpt lat="44.0103367" lon="7.9532854"><ele>594.0</ele><time>2026-04-19T07:56:52.843Z</time></trkpt><trkpt lat="44.0102981" lon="7.9531546"><ele>594.0</ele><time>2026-04-19T07:56:53.844Z</time></trkpt><trkpt lat="44.0102736" lon="7.9530121"><ele>597.0</ele><time>2026-04-19T07:56:54.844Z</time></trkpt><trkpt lat="44.0102658" lon="7.952871"><ele>600.0</ele><time>2026-04-19T07:56:55.844Z</time></trkpt><trkpt lat="44.0102546" lon="7.9527118"><ele>603.0</ele><time>2026-04-19T07:56:56.843Z</time></trkpt><trkpt lat="44.0102426" lon="7.952569"><ele>606.0</ele><time>2026-04-19T07:56:57.843Z</time></trkpt><trkpt lat="44.0102375" lon="7.9524335"><ele>609.0</ele><time>2026-04-19T07:56:58.843Z</time></trkpt><trkpt lat="44.0102325" lon="7.9523205"><ele>607.4</ele><time>2026-04-19T07:56:59.843Z</time></trkpt><trkpt lat="44.0102246" lon="7.9522177"><ele>605.8</ele><time>2026-04-19T07:57:00.844Z</time></trkpt><trkpt lat="44.0101866" lon="7.9520844"><ele>604.2</ele><time>2026-04-19T07:57:02.843Z</time></trkpt><trkpt lat="44.0101021" lon="7.9520169"><ele>602.6</ele><time>2026-04-19T07:57:04.843Z</time></trkpt><trkpt lat="44.0099855" lon="7.9519936"><ele>601.0</ele><time>2026-04-19T07:57:06.844Z</time></trkpt><trkpt lat="44.0099222" lon="7.9519823"><ele>601.0</ele><time>2026-04-19T07:57:07.842Z</time></trkpt><trkpt lat="44.0098155" lon="7.9520033"><ele>601.0</ele><time>2026-04-19T07:57:09.842Z</time></trkpt><trkpt lat="44.0097162" lon="7.9520248"><ele>601.0</ele><time>2026-04-19T07:57:11.843Z</time></trkpt><trkpt lat="44.0096357" lon="7.9520011"><ele>601.0</ele><time>2026-04-19T07:57:15.843Z</time></trkpt><trkpt lat="44.0095747" lon="7.9518998"><ele>601.0</ele><time>2026-04-19T07:57:28.842Z</time></trkpt><trkpt lat="44.0095021" lon="7.9517952"><ele>601.0</ele><time>2026-04-19T07:57:30.842Z</time></trkpt><trkpt lat="44.0094599" lon="7.9517091"><ele>601.0</ele><time>2026-04-19T07:57:31.844Z</time></trkpt><trkpt lat="44.0094171" lon="7.9516287"><ele>601.0</ele><time>2026-04-19T07:57:32.843Z</time></trkpt><trkpt lat="44.0093543" lon="7.9515395"><ele>601.0</ele><time>2026-04-19T07:57:33.844Z</time></trkpt><trkpt lat="44.0092811" lon="7.9514597"><ele>601.0</ele><time>2026-04-19T07:57:34.843Z</time></trkpt><trkpt lat="44.0091987" lon="7.9513727"><ele>601.0</ele><time>2026-04-19T07:57:35.842Z</time></trkpt><trkpt lat="44.0091029" lon="7.9513076"><ele>602.0</ele><time>2026-04-19T07:57:36.843Z</time></trkpt><trkpt lat="44.0090036" lon="7.9512978"><ele>603.0</ele><time>2026-04-19T07:57:37.843Z</time></trkpt><trkpt lat="44.0088994" lon="7.9512905"><ele>604.0</ele><time>2026-04-19T07:57:38.844Z</time></trkpt><trkpt lat="44.0087989" lon="7.951292"><ele>605.0</ele><time>2026-04-19T07:57:39.842Z</time></trkpt><trkpt lat="44.0086995" lon="7.9513045"><ele>606.0</ele><time>2026-04-19T07:57:40.843Z</time></trkpt><trkpt lat="44.0086049" lon="7.9513228"><ele>606.0</ele><time>2026-04-19T07:57:41.842Z</time></trkpt><trkpt lat="44.0085137" lon="7.9513401"><ele>606.0</ele><time>2026-04-19T07:57:42.843Z</time></trkpt><trkpt lat="44.0084224" lon="7.9513441"><ele>606.0</ele><time>2026-04-19T07:57:43.843Z</time></trkpt><trkpt lat="44.0083325" lon="7.9513211"><ele>606.0</ele><time>2026-04-19T07:57:44.843Z</time></trkpt><trkpt lat="44.0082519" lon="7.9512654"><ele>606.0</ele><time>2026-04-19T07:57:45.843Z</time></trkpt><trkpt lat="44.0081765" lon="7.9511816"><ele>605.8</ele><time>2026-04-19T07:57:46.843Z</time></trkpt><trkpt lat="44.0081003" lon="7.951094"><ele>605.6</ele><time>2026-04-19T07:57:47.843Z</time></trkpt><trkpt lat="44.008033" lon="7.9510258"><ele>605.4</ele><time>2026-04-19T07:57:48.843Z</time></trkpt><trkpt lat="44.0079474" lon="7.9509486"><ele>605.2</ele><time>2026-04-19T07:57:49.843Z</time></trkpt><trkpt lat="44.0078624" lon="7.9508687"><ele>605.0</ele><time>2026-04-19T07:57:50.843Z</time></trkpt><trkpt lat="44.0077665" lon="7.9507989"><ele>605.0</ele><time>2026-04-19T07:57:51.843Z</time></trkpt><trkpt lat="44.0076633" lon="7.9507631"><ele>605.0</ele><time>2026-04-19T07:57:52.844Z</time></trkpt><trkpt lat="44.0075572" lon="7.9507344"><ele>605.0</ele><time>2026-04-19T07:57:53.842Z</time></trkpt><trkpt lat="44.0074528" lon="7.9507164"><ele>605.0</ele><time>2026-04-19T07:57:54.843Z</time></trkpt><trkpt lat="44.0073748" lon="7.950645"><ele>605.0</ele><time>2026-04-19T07:57:55.844Z</time></trkpt><trkpt lat="44.007288" lon="7.9505876"><ele>605.2</ele><time>2026-04-19T07:57:56.843Z</time></trkpt><trkpt lat="44.0071843" lon="7.9505401"><ele>605.4</ele><time>2026-04-19T07:57:57.843Z</time></trkpt><trkpt lat="44.0070765" lon="7.9505371"><ele>605.6</ele><time>2026-04-19T07:57:58.843Z</time></trkpt><trkpt lat="44.0069709" lon="7.9505716"><ele>605.8</ele><time>2026-04-19T07:57:59.844Z</time></trkpt><trkpt lat="44.0068685" lon="7.95063"><ele>606.0</ele><time>2026-04-19T07:58:00.843Z</time></trkpt><trkpt lat="44.0067646" lon="7.9507099"><ele>605.75</ele><time>2026-04-19T07:58:01.843Z</time></trkpt><trkpt lat="44.0066611" lon="7.9507836"><ele>605.5</ele><time>2026-04-19T07:58:02.845Z</time></trkpt><trkpt lat="44.0065552" lon="7.9508411"><ele>605.25</ele><time>2026-04-19T07:58:03.843Z</time></trkpt><trkpt lat="44.0064409" lon="7.9509096"><ele>605.0</ele><time>2026-04-19T07:58:04.843Z</time></trkpt><trkpt lat="44.006339" lon="7.9509522"><ele>599.4</ele><time>2026-04-19T07:58:05.843Z</time></trkpt><trkpt lat="44.0062571" lon="7.9509701"><ele>593.8</ele><time>2026-04-19T07:58:06.844Z</time></trkpt><trkpt lat="44.0061518" lon="7.9509478"><ele>588.2</ele><time>2026-04-19T07:58:07.843Z</time></trkpt><trkpt lat="44.0060406" lon="7.9509436"><ele>582.6</ele><time>2026-04-19T07:58:08.843Z</time></trkpt><trkpt lat="44.0059207" lon="7.9509421"><ele>577.0</ele><time>2026-04-19T07:58:09.842Z</time></trkpt><trkpt lat="44.0058141" lon="7.9509665"><ele>575.5</ele><time>2026-04-19T07:58:10.843Z</time></trkpt><trkpt lat="44.0057074" lon="7.9509865"><ele>574.0</ele><time>2026-04-19T07:58:11.843Z</time></trkpt><trkpt lat="44.0056372" lon="7.9510352"><ele>572.5</ele><time>2026-04-19T07:58:12.843Z</time></trkpt><trkpt lat="44.0056073" lon="7.9511138"><ele>571.0</ele><time>2026-04-19T07:58:13.843Z</time></trkpt><trkpt lat="44.0056426" lon="7.9512655"><ele>569.5</ele><time>2026-04-19T07:58:15.844Z</time></trkpt><trkpt lat="44.005707" lon="7.9512621"><ele>568.0</ele><time>2026-04-19T07:58:16.843Z</time></trkpt><trkpt lat="44.0057762" lon="7.9512237"><ele>569.5</ele><time>2026-04-19T07:58:17.843Z</time></trkpt><trkpt lat="44.0058534" lon="7.951179"><ele>571.0</ele><time>2026-04-19T07:58:18.843Z</time></trkpt><trkpt lat="44.0059437" lon="7.9511477"><ele>572.5</ele><time>2026-04-19T07:58:19.843Z</time></trkpt><trkpt lat="44.0060337" lon="7.9511472"><ele>574.0</ele><time>2026-04-19T07:58:20.843Z</time></trkpt><trkpt lat="44.0061209" lon="7.9511681"><ele>575.5</ele><time>2026-04-19T07:58:21.842Z</time></trkpt><trkpt lat="44.0062089" lon="7.9511886"><ele>577.0</ele><time>2026-04-19T07:58:22.843Z</time></trkpt><trkpt lat="44.0063068" lon="7.9511827"><ele>577.0</ele><time>2026-04-19T07:58:23.843Z</time></trkpt><trkpt lat="44.0064029" lon="7.9511427"><ele>577.0</ele><time>2026-04-19T07:58:24.843Z</time></trkpt><trkpt lat="44.0065052" lon="7.9511259"><ele>577.0</ele><time>2026-04-19T07:58:25.842Z</time></trkpt><trkpt lat="44.0065925" lon="7.9511295"><ele>577.0</ele><time>2026-04-19T07:58:26.843Z</time></trkpt><trkpt lat="44.0066891" lon="7.9511123"><ele>577.0</ele><time>2026-04-19T07:58:27.843Z</time></trkpt><trkpt lat="44.0067787" lon="7.9510769"><ele>576.1666666666667</ele><time>2026-04-19T07:58:28.842Z</time></trkpt><trkpt lat="44.006856" lon="7.9510424"><ele>575.3333333333334</ele><time>2026-04-19T07:58:29.843Z</time></trkpt><trkpt lat="44.0069376" lon="7.9510214"><ele>574.5</ele><time>2026-04-19T07:58:30.843Z</time></trkpt><trkpt lat="44.0070065" lon="7.9510623"><ele>573.6666666666666</ele><time>2026-04-19T07:58:31.843Z</time></trkpt><trkpt lat="44.0070681" lon="7.9511387"><ele>572.8333333333333</ele><time>2026-04-19T07:58:32.843Z</time></trkpt><trkpt lat="44.0071197" lon="7.951244"><ele>572.0</ele><time>2026-04-19T07:58:33.843Z</time></trkpt><trkpt lat="44.0071816" lon="7.9513498"><ele>572.0</ele><time>2026-04-19T07:58:34.843Z</time></trkpt><trkpt lat="44.0072603" lon="7.9514336"><ele>572.0</ele><time>2026-04-19T07:58:35.842Z</time></trkpt><trkpt lat="44.0073551" lon="7.9514771"><ele>572.0</ele><time>2026-04-19T07:58:36.843Z</time></trkpt><trkpt lat="44.0074558" lon="7.9515339"><ele>572.0</ele><time>2026-04-19T07:58:37.843Z</time></trkpt><trkpt lat="44.007551" lon="7.9515974"><ele>572.0</ele><time>2026-04-19T07:58:38.843Z</time></trkpt><trkpt lat="44.0076282" lon="7.951697"><ele>570.0</ele><time>2026-04-19T07:58:39.844Z</time></trkpt><trkpt lat="44.0076873" lon="7.951822"><ele>568.0</ele><time>2026-04-19T07:58:40.843Z</time></trkpt><trkpt lat="44.0077369" lon="7.9519604"><ele>566.0</ele><time>2026-04-19T07:58:41.844Z</time></trkpt><trkpt lat="44.0077913" lon="7.952092"><ele>564.0</ele><time>2026-04-19T07:58:42.843Z</time></trkpt><trkpt lat="44.0078469" lon="7.95222"><ele>562.0</ele><time>2026-04-19T07:58:43.842Z</time></trkpt><trkpt lat="44.0079031" lon="7.9523305"><ele>562.0</ele><time>2026-04-19T07:58:44.843Z</time></trkpt><trkpt lat="44.0079631" lon="7.9524069"><ele>562.0</ele><time>2026-04-19T07:58:45.842Z</time></trkpt><trkpt lat="44.008017" lon="7.9524697"><ele>562.0</ele><time>2026-04-19T07:58:46.842Z</time></trkpt><trkpt lat="44.0080612" lon="7.9526016"><ele>562.0</ele><time>2026-04-19T07:58:48.843Z</time></trkpt><trkpt lat="44.0079671" lon="7.9525846"><ele>562.0</ele><time>2026-04-19T07:58:50.845Z</time></trkpt><trkpt lat="44.0079194" lon="7.9525074"><ele>562.0</ele><time>2026-04-19T07:58:51.842Z</time></trkpt><trkpt lat="44.0078722" lon="7.9524332"><ele>562.0</ele><time>2026-04-19T07:58:52.843Z</time></trkpt><trkpt lat="44.0078189" lon="7.9523397"><ele>562.0</ele><time>2026-04-19T07:58:53.842Z</time></trkpt><trkpt lat="44.0077484" lon="7.9522468"><ele>562.0</ele><time>2026-04-19T07:58:54.843Z</time></trkpt><trkpt lat="44.0076726" lon="7.9521356"><ele>562.0</ele><time>2026-04-19T07:58:55.843Z</time></trkpt><trkpt lat="44.0075922" lon="7.9520362"><ele>562.0</ele><time>2026-04-19T07:58:56.843Z</time></trkpt><trkpt lat="44.0074928" lon="7.9519528"><ele>564.5</ele><time>2026-04-19T07:58:57.844Z</time></trkpt><trkpt lat="44.0073849" lon="7.951892"><ele>567.0</ele><time>2026-04-19T07:58:58.843Z</time></trkpt><trkpt lat="44.0072741" lon="7.9518274"><ele>569.5</ele><time>2026-04-19T07:58:59.842Z</time></trkpt><trkpt lat="44.0071815" lon="7.9517757"><ele>572.0</ele><time>2026-04-19T07:59:00.842Z</time></trkpt><trkpt lat="44.0070865" lon="7.9516688"><ele>572.0</ele><time>2026-04-19T07:59:01.843Z</time></trkpt><trkpt lat="44.0069966" lon="7.9515879"><ele>572.0</ele><time>2026-04-19T07:59:02.844Z</time></trkpt><trkpt lat="44.0068943" lon="7.9515529"><ele>572.0</ele><time>2026-04-19T07:59:03.843Z</time></trkpt><trkpt lat="44.0067977" lon="7.9515352"><ele>572.0</ele><time>2026-04-19T07:59:04.843Z</time></trkpt><trkpt lat="44.0066953" lon="7.951551"><ele>572.0</ele><time>2026-04-19T07:59:05.843Z</time></trkpt><trkpt lat="44.0066019" lon="7.9515809"><ele>573.0</ele><time>2026-04-19T07:59:06.842Z</time></trkpt><trkpt lat="44.0065146" lon="7.951647"><ele>574.0</ele><time>2026-04-19T07:59:07.842Z</time></trkpt><trkpt lat="44.0064212" lon="7.9517399"><ele>575.0</ele><time>2026-04-19T07:59:08.843Z</time></trkpt><trkpt lat="44.0063281" lon="7.9518181"><ele>576.0</ele><time>2026-04-19T07:59:09.843Z</time></trkpt><trkpt lat="44.0062271" lon="7.9518895"><ele>577.0</ele><time>2026-04-19T07:59:10.843Z</time></trkpt><trkpt lat="44.0061176" lon="7.9519424"><ele>569.75</ele><time>2026-04-19T07:59:11.843Z</time></trkpt><trkpt lat="44.0060109" lon="7.9519938"><ele>562.5</ele><time>2026-04-19T07:59:12.843Z</time></trkpt><trkpt lat="44.0058914" lon="7.952035"><ele>555.25</ele><time>2026-04-19T07:59:13.843Z</time></trkpt><trkpt lat="44.0057846" lon="7.9521041"><ele>548.0</ele><time>2026-04-19T07:59:14.842Z</time></trkpt><trkpt lat="44.0056745" lon="7.9521827"><ele>547.0</ele><time>2026-04-19T07:59:15.842Z</time></trkpt><trkpt lat="44.0055713" lon="7.9522611"><ele>546.0</ele><time>2026-04-19T07:59:16.843Z</time></trkpt><trkpt lat="44.0054719" lon="7.9523195"><ele>545.0</ele><time>2026-04-19T07:59:17.843Z</time></trkpt><trkpt lat="44.0053836" lon="7.952365"><ele>544.0</ele><time>2026-04-19T07:59:18.843Z</time></trkpt><trkpt lat="44.0052864" lon="7.9523908"><ele>543.0</ele><time>2026-04-19T07:59:19.843Z</time></trkpt><trkpt lat="44.0052079" lon="7.952367"><ele>543.0</ele><time>2026-04-19T07:59:20.842Z</time></trkpt><trkpt lat="44.0051325" lon="7.9523117"><ele>543.0</ele><time>2026-04-19T07:59:21.843Z</time></trkpt><trkpt lat="44.0050672" lon="7.9522706"><ele>543.0</ele><time>2026-04-19T07:59:22.843Z</time></trkpt><trkpt lat="44.004987" lon="7.9522101"><ele>543.0</ele><time>2026-04-19T07:59:23.843Z</time></trkpt><trkpt lat="44.004907" lon="7.9521539"><ele>543.0</ele><time>2026-04-19T07:59:24.844Z</time></trkpt><trkpt lat="44.0048309" lon="7.9520837"><ele>543.0</ele><time>2026-04-19T07:59:25.844Z</time></trkpt><trkpt lat="44.004753" lon="7.9520126"><ele>543.6</ele><time>2026-04-19T07:59:26.842Z</time></trkpt><trkpt lat="44.0046708" lon="7.9519314"><ele>544.1999999999999</ele><time>2026-04-19T07:59:27.843Z</time></trkpt><trkpt lat="44.0045907" lon="7.9518483"><ele>544.8</ele><time>2026-04-19T07:59:28.843Z</time></trkpt><trkpt lat="44.0045173" lon="7.9517636"><ele>545.4</ele><time>2026-04-19T07:59:29.843Z</time></trkpt><trkpt lat="44.0044654" lon="7.9516444"><ele>546.0</ele><time>2026-04-19T07:59:30.843Z</time></trkpt><trkpt lat="44.0044118" lon="7.9515372"><ele>546.0</ele><time>2026-04-19T07:59:31.843Z</time></trkpt><trkpt lat="44.0043476" lon="7.9514413"><ele>546.0</ele><time>2026-04-19T07:59:32.843Z</time></trkpt><trkpt lat="44.004265" lon="7.9513871"><ele>546.0</ele><time>2026-04-19T07:59:33.843Z</time></trkpt><trkpt lat="44.0041757" lon="7.9513681"><ele>546.0</ele><time>2026-04-19T07:59:34.843Z</time></trkpt><trkpt lat="44.0040767" lon="7.951363"><ele>546.0</ele><time>2026-04-19T07:59:35.843Z</time></trkpt><trkpt lat="44.0039866" lon="7.9514043"><ele>544.0</ele><time>2026-04-19T07:59:36.844Z</time></trkpt><trkpt lat="44.0039286" lon="7.9514811"><ele>542.0</ele><time>2026-04-19T07:59:37.843Z</time></trkpt><trkpt lat="44.0038827" lon="7.9515849"><ele>540.0</ele><time>2026-04-19T07:59:38.843Z</time></trkpt><trkpt lat="44.0038482" lon="7.9516986"><ele>538.0</ele><time>2026-04-19T07:59:39.843Z</time></trkpt><trkpt lat="44.0038277" lon="7.9518398"><ele>536.0</ele><time>2026-04-19T07:59:40.843Z</time></trkpt><trkpt lat="44.0038041" lon="7.9519711"><ele>536.0</ele><time>2026-04-19T07:59:41.843Z</time></trkpt><trkpt lat="44.0037976" lon="7.9521022"><ele>536.0</ele><time>2026-04-19T07:59:42.842Z</time></trkpt><trkpt lat="44.0037655" lon="7.9522081"><ele>536.0</ele><time>2026-04-19T07:59:43.843Z</time></trkpt><trkpt lat="44.0037263" lon="7.9523079"><ele>536.0</ele><time>2026-04-19T07:59:44.843Z</time></trkpt><trkpt lat="44.0036437" lon="7.952367"><ele>536.0</ele><time>2026-04-19T07:59:45.843Z</time></trkpt><trkpt lat="44.0035585" lon="7.952407"><ele>536.0</ele><time>2026-04-19T07:59:46.843Z</time></trkpt><trkpt lat="44.0034559" lon="7.9524497"><ele>536.0</ele><time>2026-04-19T07:59:47.842Z</time></trkpt><trkpt lat="44.0033593" lon="7.9524793"><ele>536.0</ele><time>2026-04-19T07:59:48.843Z</time></trkpt><trkpt lat="44.0032638" lon="7.9525034"><ele>536.0</ele><time>2026-04-19T07:59:49.843Z</time></trkpt><trkpt lat="44.0031663" lon="7.9525074"><ele>536.0</ele><time>2026-04-19T07:59:50.842Z</time></trkpt><trkpt lat="44.0030725" lon="7.9525076"><ele>536.0</ele><time>2026-04-19T07:59:51.843Z</time></trkpt><trkpt lat="44.0029837" lon="7.9524637"><ele>536.8333333333333</ele><time>2026-04-19T07:59:52.843Z</time></trkpt><trkpt lat="44.0029197" lon="7.9524047"><ele>537.6666666666666</ele><time>2026-04-19T07:59:53.844Z</time></trkpt><trkpt lat="44.0028361" lon="7.952372"><ele>538.5</ele><time>2026-04-19T07:59:54.844Z</time></trkpt><trkpt lat="44.0027609" lon="7.9523608"><ele>539.3333333333334</ele><time>2026-04-19T07:59:55.842Z</time></trkpt><trkpt lat="44.0026924" lon="7.9524199"><ele>540.1666666666667</ele><time>2026-04-19T07:59:56.843Z</time></trkpt><trkpt lat="44.0026455" lon="7.9525036"><ele>541.0</ele><time>2026-04-19T07:59:57.843Z</time></trkpt><trkpt lat="44.0025825" lon="7.9526086"><ele>537.6</ele><time>2026-04-19T07:59:58.842Z</time></trkpt><trkpt lat="44.0025165" lon="7.9527128"><ele>534.2</ele><time>2026-04-19T07:59:59.843Z</time></trkpt><trkpt lat="44.0024511" lon="7.9528109"><ele>530.8</ele><time>2026-04-19T08:00:00.842Z</time></trkpt><trkpt lat="44.0023901" lon="7.9528964"><ele>527.4</ele><time>2026-04-19T08:00:01.843Z</time></trkpt><trkpt lat="44.0023137" lon="7.9529668"><ele>524.0</ele><time>2026-04-19T08:00:02.843Z</time></trkpt><trkpt lat="44.002209" lon="7.9529372"><ele>524.0</ele><time>2026-04-19T08:00:03.842Z</time></trkpt><trkpt lat="44.0021275" lon="7.9529468"><ele>524.0</ele><time>2026-04-19T08:00:04.843Z</time></trkpt><trkpt lat="44.0020495" lon="7.9530128"><ele>524.0</ele><time>2026-04-19T08:00:05.843Z</time></trkpt><trkpt lat="44.0019921" lon="7.9530762"><ele>524.0</ele><time>2026-04-19T08:00:06.843Z</time></trkpt><trkpt lat="44.0019584" lon="7.9531815"><ele>524.0</ele><time>2026-04-19T08:00:07.843Z</time></trkpt><trkpt lat="44.0019501" lon="7.9532947"><ele>524.0</ele><time>2026-04-19T08:00:08.843Z</time></trkpt><trkpt lat="44.0019604" lon="7.9534212"><ele>520.0</ele><time>2026-04-19T08:00:09.843Z</time></trkpt><trkpt lat="44.0019627" lon="7.9535498"><ele>516.0</ele><time>2026-04-19T08:00:10.843Z</time></trkpt><trkpt lat="44.0019575" lon="7.9536681"><ele>512.0</ele><time>2026-04-19T08:00:11.843Z</time></trkpt><trkpt lat="44.0019381" lon="7.9537694"><ele>508.0</ele><time>2026-04-19T08:00:12.843Z</time></trkpt><trkpt lat="44.001847" lon="7.9538418"><ele>504.0</ele><time>2026-04-19T08:00:14.844Z</time></trkpt><trkpt lat="44.0017453" lon="7.9537624"><ele>504.0</ele><time>2026-04-19T08:00:16.843Z</time></trkpt><trkpt lat="44.0016858" lon="7.9536832"><ele>504.0</ele><time>2026-04-19T08:00:17.842Z</time></trkpt><trkpt lat="44.0016297" lon="7.9535431"><ele>504.0</ele><time>2026-04-19T08:00:18.843Z</time></trkpt><trkpt lat="44.0015726" lon="7.9534338"><ele>504.0</ele><time>2026-04-19T08:00:19.843Z</time></trkpt><trkpt lat="44.0015139" lon="7.9533433"><ele>504.0</ele><time>2026-04-19T08:00:20.843Z</time></trkpt><trkpt lat="44.0014506" lon="7.953247"><ele>509.6</ele><time>2026-04-19T08:00:21.843Z</time></trkpt><trkpt lat="44.0013753" lon="7.953171"><ele>515.2</ele><time>2026-04-19T08:00:22.844Z</time></trkpt><trkpt lat="44.001295" lon="7.9531116"><ele>520.8000000000001</ele><time>2026-04-19T08:00:23.843Z</time></trkpt><trkpt lat="44.0012118" lon="7.9530623"><ele>526.4</ele><time>2026-04-19T08:00:24.844Z</time></trkpt><trkpt lat="44.001139" lon="7.953062"><ele>532.0</ele><time>2026-04-19T08:00:25.843Z</time></trkpt><trkpt lat="44.0010548" lon="7.9531553"><ele>532.0</ele><time>2026-04-19T08:00:27.843Z</time></trkpt><trkpt lat="44.0010592" lon="7.9533203"><ele>532.0</ele><time>2026-04-19T08:00:29.843Z</time></trkpt><trkpt lat="44.001077" lon="7.9534195"><ele>532.0</ele><time>2026-04-19T08:00:30.844Z</time></trkpt><trkpt lat="44.0011021" lon="7.9535392"><ele>532.0</ele><time>2026-04-19T08:00:31.843Z</time></trkpt><trkpt lat="44.0011274" lon="7.9536718"><ele>532.0</ele><time>2026-04-19T08:00:32.843Z</time></trkpt><trkpt lat="44.0011615" lon="7.953812"><ele>530.8000000000001</ele><time>2026-04-19T08:00:33.844Z</time></trkpt><trkpt lat="44.0011403" lon="7.9539633"><ele>529.6</ele><time>2026-04-19T08:00:34.843Z</time></trkpt><trkpt lat="44.0011231" lon="7.954116"><ele>528.4000000000001</ele><time>2026-04-19T08:00:35.842Z</time></trkpt><trkpt lat="44.0010883" lon="7.9542654"><ele>527.2</ele><time>2026-04-19T08:00:36.843Z</time></trkpt><trkpt lat="44.0010425" lon="7.9543998"><ele>526.0</ele><time>2026-04-19T08:00:37.843Z</time></trkpt><trkpt lat="44.0009777" lon="7.9545247"><ele>528.75</ele><time>2026-04-19T08:00:38.843Z</time></trkpt><trkpt lat="44.0008972" lon="7.9546343"><ele>531.5</ele><time>2026-04-19T08:00:39.844Z</time></trkpt><trkpt lat="44.0008131" lon="7.9547635"><ele>534.25</ele><time>2026-04-19T08:00:40.843Z</time></trkpt><trkpt lat="44.0007419" lon="7.9548817"><ele>537.0</ele><time>2026-04-19T08:00:41.842Z</time></trkpt><trkpt lat="44.0006719" lon="7.9549975"><ele>535.0</ele><time>2026-04-19T08:00:42.843Z</time></trkpt><trkpt lat="44.0006248" lon="7.9551374"><ele>533.0</ele><time>2026-04-19T08:00:43.843Z</time></trkpt><trkpt lat="44.000586" lon="7.9552754"><ele>531.0</ele><time>2026-04-19T08:00:44.843Z</time></trkpt><trkpt lat="44.0005743" lon="7.9554302"><ele>529.0</ele><time>2026-04-19T08:00:45.843Z</time></trkpt><trkpt lat="44.0005646" lon="7.9555739"><ele>527.0</ele><time>2026-04-19T08:00:46.843Z</time></trkpt><trkpt lat="44.0005508" lon="7.9557302"><ele>525.4</ele><time>2026-04-19T08:00:47.844Z</time></trkpt><trkpt lat="44.0005456" lon="7.9558801"><ele>523.8000000000001</ele><time>2026-04-19T08:00:48.843Z</time></trkpt><trkpt lat="44.0005529" lon="7.9560241"><ele>522.2</ele><time>2026-04-19T08:00:49.843Z</time></trkpt><trkpt lat="44.000569" lon="7.9561688"><ele>520.6</ele><time>2026-04-19T08:00:50.842Z</time></trkpt><trkpt lat="44.0006042" lon="7.9563145"><ele>519.0</ele><time>2026-04-19T08:00:51.843Z</time></trkpt><trkpt lat="44.0006448" lon="7.9564591"><ele>519.0</ele><time>2026-04-19T08:00:52.844Z</time></trkpt><trkpt lat="44.000683" lon="7.9565995"><ele>519.0</ele><time>2026-04-19T08:00:53.841Z</time></trkpt><trkpt lat="44.0007237" lon="7.9567329"><ele>519.0</ele><time>2026-04-19T08:00:54.844Z</time></trkpt><trkpt lat="44.0007558" lon="7.9568589"><ele>519.0</ele><time>2026-04-19T08:00:55.843Z</time></trkpt><trkpt lat="44.0007518" lon="7.9569744"><ele>519.0</ele><time>2026-04-19T08:00:56.843Z</time></trkpt><trkpt lat="44.0007141" lon="7.9570905"><ele>515.0</ele><time>2026-04-19T08:00:57.843Z</time></trkpt><trkpt lat="44.0006666" lon="7.9572267"><ele>511.0</ele><time>2026-04-19T08:00:58.843Z</time></trkpt><trkpt lat="44.000616" lon="7.9573606"><ele>507.0</ele><time>2026-04-19T08:00:59.843Z</time></trkpt><trkpt lat="44.0005655" lon="7.9574921"><ele>503.0</ele><time>2026-04-19T08:01:00.844Z</time></trkpt><trkpt lat="44.0005165" lon="7.9576084"><ele>499.0</ele><time>2026-04-19T08:01:01.843Z</time></trkpt><trkpt lat="44.0004402" lon="7.9576561"><ele>496.1666666666667</ele><time>2026-04-19T08:01:02.843Z</time></trkpt><trkpt lat="44.0003506" lon="7.9576823"><ele>493.33333333333337</ele><time>2026-04-19T08:01:03.842Z</time></trkpt><trkpt lat="44.0002698" lon="7.9577102"><ele>490.5</ele><time>2026-04-19T08:01:04.843Z</time></trkpt><trkpt lat="44.0001814" lon="7.9577536"><ele>487.66666666666663</ele><time>2026-04-19T08:01:05.843Z</time></trkpt><trkpt lat="44.0001082" lon="7.9578107"><ele>484.8333333333333</ele><time>2026-04-19T08:01:06.843Z</time></trkpt><trkpt lat="44.0000355" lon="7.9578845"><ele>482.0</ele><time>2026-04-19T08:01:07.844Z</time></trkpt><trkpt lat="43.9999811" lon="7.9579763"><ele>482.0</ele><time>2026-04-19T08:01:08.843Z</time></trkpt><trkpt lat="43.9999473" lon="7.9580832"><ele>482.00000000000006</ele><time>2026-04-19T08:01:09.843Z</time></trkpt><trkpt lat="43.9999519" lon="7.9582081"><ele>482.00000000000006</ele><time>2026-04-19T08:01:10.843Z</time></trkpt><trkpt lat="43.9999658" lon="7.9583384"><ele>482.0</ele><time>2026-04-19T08:01:11.844Z</time></trkpt><trkpt lat="43.9999777" lon="7.958477"><ele>482.0</ele><time>2026-04-19T08:01:12.843Z</time></trkpt><trkpt lat="43.9999841" lon="7.9586276"><ele>479.8</ele><time>2026-04-19T08:01:13.843Z</time></trkpt><trkpt lat="43.9999824" lon="7.9587809"><ele>477.6</ele><time>2026-04-19T08:01:14.843Z</time></trkpt><trkpt lat="43.9999806" lon="7.9589256"><ele>475.40000000000003</ele><time>2026-04-19T08:01:15.843Z</time></trkpt><trkpt lat="43.9999708" lon="7.9590687"><ele>473.20000000000005</ele><time>2026-04-19T08:01:16.843Z</time></trkpt><trkpt lat="43.9999441" lon="7.959204"><ele>471.0</ele><time>2026-04-19T08:01:17.842Z</time></trkpt><trkpt lat="43.9999011" lon="7.9593266"><ele>467.25</ele><time>2026-04-19T08:01:18.844Z</time></trkpt><trkpt lat="43.9998221" lon="7.9594555"><ele>463.5</ele><time>2026-04-19T08:01:19.843Z</time></trkpt><trkpt lat="43.9997588" lon="7.9595858"><ele>459.75</ele><time>2026-04-19T08:01:20.844Z</time></trkpt><trkpt lat="43.9996973" lon="7.9597162"><ele>456.0</ele><time>2026-04-19T08:01:21.843Z</time></trkpt><trkpt lat="43.9996542" lon="7.9598484"><ele>456.0</ele><time>2026-04-19T08:01:22.843Z</time></trkpt><trkpt lat="43.9996117" lon="7.9599879"><ele>456.0</ele><time>2026-04-19T08:01:23.843Z</time></trkpt><trkpt lat="43.9995451" lon="7.960134"><ele>456.0</ele><time>2026-04-19T08:01:24.843Z</time></trkpt><trkpt lat="43.9994664" lon="7.9602951"><ele>456.0</ele><time>2026-04-19T08:01:25.843Z</time></trkpt><trkpt lat="43.9994023" lon="7.9604696"><ele>455.5</ele><time>2026-04-19T08:01:26.843Z</time></trkpt><trkpt lat="43.9993407" lon="7.9606489"><ele>455.0</ele><time>2026-04-19T08:01:27.843Z</time></trkpt><trkpt lat="43.9992852" lon="7.9608272"><ele>454.5</ele><time>2026-04-19T08:01:28.842Z</time></trkpt><trkpt lat="43.9992112" lon="7.9610063"><ele>454.0</ele><time>2026-04-19T08:01:29.843Z</time></trkpt><trkpt lat="43.9991553" lon="7.9611799"><ele>454.0</ele><time>2026-04-19T08:01:30.842Z</time></trkpt><trkpt lat="43.9990965" lon="7.9613508"><ele>454.0</ele><time>2026-04-19T08:01:31.842Z</time></trkpt><trkpt lat="43.9990407" lon="7.9615142"><ele>454.0</ele><time>2026-04-19T08:01:32.843Z</time></trkpt><trkpt lat="43.9989962" lon="7.9616641"><ele>454.0</ele><time>2026-04-19T08:01:33.842Z</time></trkpt><trkpt lat="43.9989474" lon="7.9617922"><ele>451.1666666666667</ele><time>2026-04-19T08:01:34.844Z</time></trkpt><trkpt lat="43.9989038" lon="7.961897"><ele>448.33333333333337</ele><time>2026-04-19T08:01:35.843Z</time></trkpt><trkpt lat="43.9988584" lon="7.9619861"><ele>445.5</ele><time>2026-04-19T08:01:36.843Z</time></trkpt><trkpt lat="43.9987886" lon="7.9620216"><ele>442.66666666666663</ele><time>2026-04-19T08:01:37.842Z</time></trkpt><trkpt lat="43.9987187" lon="7.9620267"><ele>439.8333333333333</ele><time>2026-04-19T08:01:38.843Z</time></trkpt><trkpt lat="43.9986542" lon="7.9620115"><ele>437.0</ele><time>2026-04-19T08:01:39.844Z</time></trkpt><trkpt lat="43.9985885" lon="7.9619551"><ele>437.0</ele><time>2026-04-19T08:01:40.844Z</time></trkpt><trkpt lat="43.9985222" lon="7.9618604"><ele>437.00000000000006</ele><time>2026-04-19T08:01:41.842Z</time></trkpt><trkpt lat="43.998528" lon="7.9617039"><ele>437.00000000000006</ele><time>2026-04-19T08:01:42.842Z</time></trkpt><trkpt lat="43.9985173" lon="7.9615706"><ele>437.0</ele><time>2026-04-19T08:01:43.843Z</time></trkpt><trkpt lat="43.9985237" lon="7.9614306"><ele>437.0</ele><time>2026-04-19T08:01:44.843Z</time></trkpt><trkpt lat="43.9985284" lon="7.9612996"><ele>440.40000000000003</ele><time>2026-04-19T08:01:45.843Z</time></trkpt><trkpt lat="43.9985158" lon="7.9611595"><ele>443.80000000000007</ele><time>2026-04-19T08:01:46.843Z</time></trkpt><trkpt lat="43.9984927" lon="7.9610189"><ele>447.2</ele><time>2026-04-19T08:01:47.843Z</time></trkpt><trkpt lat="43.9984642" lon="7.9608795"><ele>450.6</ele><time>2026-04-19T08:01:48.843Z</time></trkpt><trkpt lat="43.998426" lon="7.9607486"><ele>454.0</ele><time>2026-04-19T08:01:49.843Z</time></trkpt><trkpt lat="43.9983954" lon="7.9606189"><ele>453.0</ele><time>2026-04-19T08:01:50.844Z</time></trkpt><trkpt lat="43.9983795" lon="7.9604805"><ele>452.0</ele><time>2026-04-19T08:01:51.843Z</time></trkpt><trkpt lat="43.9983732" lon="7.9603376"><ele>451.0</ele><time>2026-04-19T08:01:52.842Z</time></trkpt><trkpt lat="43.9983582" lon="7.960197"><ele>450.0</ele><time>2026-04-19T08:01:53.842Z</time></trkpt><trkpt lat="43.9983382" lon="7.9600618"><ele>449.0</ele><time>2026-04-19T08:01:54.844Z</time></trkpt><trkpt lat="43.9983026" lon="7.9599286"><ele>449.0</ele><time>2026-04-19T08:01:55.843Z</time></trkpt><trkpt lat="43.9982463" lon="7.9598085"><ele>449.0</ele><time>2026-04-19T08:01:56.842Z</time></trkpt><trkpt lat="43.9981779" lon="7.9596999"><ele>449.0</ele><time>2026-04-19T08:01:57.843Z</time></trkpt><trkpt lat="43.9981161" lon="7.9596065"><ele>449.0</ele><time>2026-04-19T08:01:58.843Z</time></trkpt><trkpt lat="43.9980193" lon="7.9595321"><ele>449.0</ele><time>2026-04-19T08:01:59.843Z</time></trkpt><trkpt lat="43.9979319" lon="7.9594454"><ele>449.0</ele><time>2026-04-19T08:02:00.842Z</time></trkpt><trkpt lat="43.9978447" lon="7.9593545"><ele>449.0</ele><time>2026-04-19T08:02:01.843Z</time></trkpt><trkpt lat="43.9977667" lon="7.9592467"><ele>449.0</ele><time>2026-04-19T08:02:02.843Z</time></trkpt><trkpt lat="43.9976905" lon="7.9591353"><ele>449.0</ele><time>2026-04-19T08:02:03.843Z</time></trkpt><trkpt lat="43.9976067" lon="7.9590222"><ele>449.0</ele><time>2026-04-19T08:02:04.843Z</time></trkpt><trkpt lat="43.997525" lon="7.9589091"><ele>447.79999999999995</ele><time>2026-04-19T08:02:05.843Z</time></trkpt><trkpt lat="43.9974516" lon="7.9588016"><ele>446.59999999999997</ele><time>2026-04-19T08:02:06.843Z</time></trkpt><trkpt lat="43.9973805" lon="7.9586878"><ele>445.4</ele><time>2026-04-19T08:02:07.843Z</time></trkpt><trkpt lat="43.9973217" lon="7.9585705"><ele>444.2</ele><time>2026-04-19T08:02:08.843Z</time></trkpt><trkpt lat="43.9972786" lon="7.9584412"><ele>443.0</ele><time>2026-04-19T08:02:09.843Z</time></trkpt><trkpt lat="43.9972624" lon="7.9583012"><ele>443.0</ele><time>2026-04-19T08:02:10.843Z</time></trkpt><trkpt lat="43.9972605" lon="7.9581464"><ele>442.99999999999994</ele><time>2026-04-19T08:02:11.843Z</time></trkpt><trkpt lat="43.9972769" lon="7.9579923"><ele>442.99999999999994</ele><time>2026-04-19T08:02:12.844Z</time></trkpt><trkpt lat="43.9972853" lon="7.9578371"><ele>443.0</ele><time>2026-04-19T08:02:13.843Z</time></trkpt><trkpt lat="43.9972921" lon="7.9576968"><ele>443.0</ele><time>2026-04-19T08:02:14.843Z</time></trkpt><trkpt lat="43.9972983" lon="7.9575663"><ele>443.3333333333333</ele><time>2026-04-19T08:02:15.843Z</time></trkpt><trkpt lat="43.9972904" lon="7.9574394"><ele>443.66666666666663</ele><time>2026-04-19T08:02:16.842Z</time></trkpt><trkpt lat="43.9972738" lon="7.9573267"><ele>444.0</ele><time>2026-04-19T08:02:17.843Z</time></trkpt><trkpt lat="43.9972544" lon="7.9572232"><ele>444.33333333333337</ele><time>2026-04-19T08:02:18.842Z</time></trkpt><trkpt lat="43.9972239" lon="7.9571323"><ele>444.6666666666667</ele><time>2026-04-19T08:02:19.842Z</time></trkpt><trkpt lat="43.9971907" lon="7.9570564"><ele>445.0</ele><time>2026-04-19T08:02:20.843Z</time></trkpt><trkpt lat="43.9971606" lon="7.9569706"><ele>445.00000000000006</ele><time>2026-04-19T08:02:21.843Z</time></trkpt><trkpt lat="43.9971229" lon="7.9568762"><ele>445.0</ele><time>2026-04-19T08:02:22.843Z</time></trkpt><trkpt lat="43.9970809" lon="7.9567831"><ele>445.0</ele><time>2026-04-19T08:02:23.843Z</time></trkpt><trkpt lat="43.9970371" lon="7.9566835"><ele>445.0</ele><time>2026-04-19T08:02:24.843Z</time></trkpt><trkpt lat="43.9969836" lon="7.9565874"><ele>445.00000000000006</ele><time>2026-04-19T08:02:25.843Z</time></trkpt><trkpt lat="43.9969236" lon="7.9564827"><ele>445.0</ele><time>2026-04-19T08:02:26.844Z</time></trkpt><trkpt lat="43.9968576" lon="7.9563855"><ele>446.4</ele><time>2026-04-19T08:02:27.843Z</time></trkpt><trkpt lat="43.9967922" lon="7.9562899"><ele>447.8</ele><time>2026-04-19T08:02:28.844Z</time></trkpt><trkpt lat="43.9967339" lon="7.9562076"><ele>449.20000000000005</ele><time>2026-04-19T08:02:29.843Z</time></trkpt><trkpt lat="43.9966638" lon="7.956113"><ele>450.6</ele><time>2026-04-19T08:02:30.842Z</time></trkpt><trkpt lat="43.9965908" lon="7.9560258"><ele>452.0</ele><time>2026-04-19T08:02:31.844Z</time></trkpt><trkpt lat="43.9965111" lon="7.9559661"><ele>447.40000000000003</ele><time>2026-04-19T08:02:32.843Z</time></trkpt><trkpt lat="43.9964306" lon="7.9558787"><ele>442.80000000000007</ele><time>2026-04-19T08:02:33.843Z</time></trkpt><trkpt lat="43.9963554" lon="7.9557848"><ele>438.2</ele><time>2026-04-19T08:02:34.843Z</time></trkpt><trkpt lat="43.9962814" lon="7.9556886"><ele>433.6</ele><time>2026-04-19T08:02:35.843Z</time></trkpt><trkpt lat="43.9962114" lon="7.9555876"><ele>429.0</ele><time>2026-04-19T08:02:36.843Z</time></trkpt><trkpt lat="43.996144" lon="7.955488"><ele>429.0</ele><time>2026-04-19T08:02:37.842Z</time></trkpt><trkpt lat="43.9960651" lon="7.9553783"><ele>429.0</ele><time>2026-04-19T08:02:38.843Z</time></trkpt><trkpt lat="43.9959767" lon="7.9552755"><ele>429.0</ele><time>2026-04-19T08:02:39.842Z</time></trkpt><trkpt lat="43.995876" lon="7.9551781"><ele>429.0</ele><time>2026-04-19T08:02:40.842Z</time></trkpt><trkpt lat="43.99577" lon="7.9550965"><ele>427.4</ele><time>2026-04-19T08:02:41.843Z</time></trkpt><trkpt lat="43.995662" lon="7.9550353"><ele>425.79999999999995</ele><time>2026-04-19T08:02:42.844Z</time></trkpt><trkpt lat="43.9955663" lon="7.9549698"><ele>424.20000000000005</ele><time>2026-04-19T08:02:43.843Z</time></trkpt><trkpt lat="43.9954842" lon="7.9548901"><ele>422.6</ele><time>2026-04-19T08:02:44.843Z</time></trkpt><trkpt lat="43.9954162" lon="7.9547969"><ele>421.0</ele><time>2026-04-19T08:02:45.843Z</time></trkpt><trkpt lat="43.9953534" lon="7.9547408"><ele>421.00000000000006</ele><time>2026-04-19T08:02:46.843Z</time></trkpt><trkpt lat="43.9952864" lon="7.9547221"><ele>421.0</ele><time>2026-04-19T08:02:47.843Z</time></trkpt><trkpt lat="43.9952029" lon="7.9547012"><ele>421.0</ele><time>2026-04-19T08:02:48.843Z</time></trkpt><trkpt lat="43.9951552" lon="7.9547901"><ele>421.0</ele><time>2026-04-19T08:02:49.844Z</time></trkpt><trkpt lat="43.995121" lon="7.9548728"><ele>421.00000000000006</ele><time>2026-04-19T08:02:50.842Z</time></trkpt><trkpt lat="43.9950823" lon="7.9549635"><ele>421.0</ele><time>2026-04-19T08:02:51.843Z</time></trkpt><trkpt lat="43.9950337" lon="7.9550646"><ele>415.8</ele><time>2026-04-19T08:02:52.843Z</time></trkpt><trkpt lat="43.9949585" lon="7.9551489"><ele>410.6</ele><time>2026-04-19T08:02:53.843Z</time></trkpt><trkpt lat="43.9948747" lon="7.9552196"><ele>405.4</ele><time>2026-04-19T08:02:54.843Z</time></trkpt><trkpt lat="43.9947892" lon="7.9552595"><ele>400.2</ele><time>2026-04-19T08:02:55.843Z</time></trkpt><trkpt lat="43.9946932" lon="7.9552775"><ele>395.0</ele><time>2026-04-19T08:02:56.843Z</time></trkpt><trkpt lat="43.9946006" lon="7.9552856"><ele>395.0</ele><time>2026-04-19T08:02:57.842Z</time></trkpt><trkpt lat="43.9944943" lon="7.9552392"><ele>395.0</ele><time>2026-04-19T08:02:58.843Z</time></trkpt><trkpt lat="43.9943934" lon="7.9552152"><ele>395.0</ele><time>2026-04-19T08:02:59.841Z</time></trkpt><trkpt lat="43.9942889" lon="7.9551855"><ele>395.0</ele><time>2026-04-19T08:03:00.843Z</time></trkpt><trkpt lat="43.9942014" lon="7.9551755"><ele>395.0</ele><time>2026-04-19T08:03:01.843Z</time></trkpt><trkpt lat="43.9941147" lon="7.9551656"><ele>394.49999999999994</ele><time>2026-04-19T08:03:02.843Z</time></trkpt><trkpt lat="43.9940303" lon="7.955198"><ele>394.0</ele><time>2026-04-19T08:03:03.844Z</time></trkpt><trkpt lat="43.9939542" lon="7.9552562"><ele>393.5</ele><time>2026-04-19T08:03:04.842Z</time></trkpt><trkpt lat="43.9938801" lon="7.9553356"><ele>393.0</ele><time>2026-04-19T08:03:05.843Z</time></trkpt><trkpt lat="43.9938472" lon="7.9554297"><ele>392.49999999999994</ele><time>2026-04-19T08:03:06.844Z</time></trkpt><trkpt lat="43.9938105" lon="7.9555563"><ele>392.0</ele><time>2026-04-19T08:03:07.843Z</time></trkpt><trkpt lat="43.9937523" lon="7.9556758"><ele>392.0</ele><time>2026-04-19T08:03:08.842Z</time></trkpt><trkpt lat="43.9936915" lon="7.9557808"><ele>392.0</ele><time>2026-04-19T08:03:09.843Z</time></trkpt><trkpt lat="43.9936226" lon="7.9558968"><ele>392.0</ele><time>2026-04-19T08:03:10.843Z</time></trkpt><trkpt lat="43.993559" lon="7.9559909"><ele>392.0</ele><time>2026-04-19T08:03:11.842Z</time></trkpt><trkpt lat="43.993474" lon="7.9560755"><ele>392.0</ele><time>2026-04-19T08:03:12.841Z</time></trkpt><trkpt lat="43.9933886" lon="7.956157"><ele>391.8333333333333</ele><time>2026-04-19T08:03:13.843Z</time></trkpt><trkpt lat="43.9933174" lon="7.956229"><ele>391.66666666666663</ele><time>2026-04-19T08:03:14.843Z</time></trkpt><trkpt lat="43.9932578" lon="7.956305"><ele>391.5</ele><time>2026-04-19T08:03:15.843Z</time></trkpt><trkpt lat="43.9932385" lon="7.9564036"><ele>391.33333333333337</ele><time>2026-04-19T08:03:16.843Z</time></trkpt><trkpt lat="43.9932256" lon="7.9565028"><ele>391.1666666666667</ele><time>2026-04-19T08:03:17.844Z</time></trkpt><trkpt lat="43.99323" lon="7.9566029"><ele>391.0</ele><time>2026-04-19T08:03:18.842Z</time></trkpt><trkpt lat="43.99324" lon="7.9567045"><ele>389.83333333333337</ele><time>2026-04-19T08:03:19.841Z</time></trkpt><trkpt lat="43.9932451" lon="7.9568305"><ele>388.6666666666667</ele><time>2026-04-19T08:03:20.843Z</time></trkpt><trkpt lat="43.9932399" lon="7.9569426"><ele>387.5</ele><time>2026-04-19T08:03:21.842Z</time></trkpt><trkpt lat="43.9932403" lon="7.9570623"><ele>386.33333333333337</ele><time>2026-04-19T08:03:22.843Z</time></trkpt><trkpt lat="43.9932304" lon="7.9571796"><ele>385.1666666666667</ele><time>2026-04-19T08:03:23.842Z</time></trkpt><trkpt lat="43.9931924" lon="7.9572828"><ele>384.0</ele><time>2026-04-19T08:03:24.843Z</time></trkpt><trkpt lat="43.9931461" lon="7.9573801"><ele>384.0</ele><time>2026-04-19T08:03:25.842Z</time></trkpt><trkpt lat="43.9931114" lon="7.9574934"><ele>384.0</ele><time>2026-04-19T08:03:26.842Z</time></trkpt><trkpt lat="43.9930554" lon="7.9576036"><ele>384.0</ele><time>2026-04-19T08:03:27.842Z</time></trkpt><trkpt lat="43.9930132" lon="7.957712"><ele>384.0</ele><time>2026-04-19T08:03:28.843Z</time></trkpt><trkpt lat="43.9929471" lon="7.9578001"><ele>384.0</ele><time>2026-04-19T08:03:29.843Z</time></trkpt><trkpt lat="43.9928908" lon="7.9579112"><ele>382.3333333333333</ele><time>2026-04-19T08:03:30.843Z</time></trkpt><trkpt lat="43.9928458" lon="7.9580146"><ele>380.6666666666667</ele><time>2026-04-19T08:03:31.842Z</time></trkpt><trkpt lat="43.9927987" lon="7.9581162"><ele>379.0</ele><time>2026-04-19T08:03:32.842Z</time></trkpt><trkpt lat="43.9927627" lon="7.9582114"><ele>377.33333333333337</ele><time>2026-04-19T08:03:33.843Z</time></trkpt><trkpt lat="43.9927149" lon="7.9583002"><ele>375.6666666666667</ele><time>2026-04-19T08:03:34.843Z</time></trkpt><trkpt lat="43.9926521" lon="7.9583591"><ele>374.0</ele><time>2026-04-19T08:03:35.843Z</time></trkpt><trkpt lat="43.9925917" lon="7.9584195"><ele>373.83333333333337</ele><time>2026-04-19T08:03:36.844Z</time></trkpt><trkpt lat="43.9925202" lon="7.958462"><ele>373.6666666666667</ele><time>2026-04-19T08:03:37.843Z</time></trkpt><trkpt lat="43.9924397" lon="7.9585239"><ele>373.5</ele><time>2026-04-19T08:03:38.843Z</time></trkpt><trkpt lat="43.9923585" lon="7.9585697"><ele>373.3333333333333</ele><time>2026-04-19T08:03:39.842Z</time></trkpt><trkpt lat="43.9922737" lon="7.9586188"><ele>373.16666666666663</ele><time>2026-04-19T08:03:40.843Z</time></trkpt><trkpt lat="43.9921939" lon="7.9586631"><ele>373.0</ele><time>2026-04-19T08:03:41.843Z</time></trkpt><trkpt lat="43.9920864" lon="7.9587106"><ele>373.0</ele><time>2026-04-19T08:03:42.843Z</time></trkpt><trkpt lat="43.9920069" lon="7.9588132"><ele>373.0</ele><time>2026-04-19T08:03:43.842Z</time></trkpt><trkpt lat="43.9919485" lon="7.9589256"><ele>373.0</ele><time>2026-04-19T08:03:44.843Z</time></trkpt><trkpt lat="43.9918962" lon="7.959045"><ele>373.0</ele><time>2026-04-19T08:03:45.843Z</time></trkpt><trkpt lat="43.9918184" lon="7.9591529"><ele>373.0</ele><time>2026-04-19T08:03:46.842Z</time></trkpt><trkpt lat="43.9917422" lon="7.9592694"><ele>371.75</ele><time>2026-04-19T08:03:47.843Z</time></trkpt><trkpt lat="43.9916557" lon="7.959388"><ele>370.5</ele><time>2026-04-19T08:03:48.843Z</time></trkpt><trkpt lat="43.991563" lon="7.9595214"><ele>369.25</ele><time>2026-04-19T08:03:49.842Z</time></trkpt><trkpt lat="43.9914754" lon="7.9596487"><ele>368.0</ele><time>2026-04-19T08:03:50.841Z</time></trkpt><trkpt lat="43.9913879" lon="7.9597613"><ele>368.0</ele><time>2026-04-19T08:03:51.843Z</time></trkpt><trkpt lat="43.9913159" lon="7.9598814"><ele>368.0</ele><time>2026-04-19T08:03:52.842Z</time></trkpt><trkpt lat="43.9912481" lon="7.9600046"><ele>368.0</ele><time>2026-04-19T08:03:53.843Z</time></trkpt><trkpt lat="43.9912072" lon="7.9601622"><ele>368.0</ele><time>2026-04-19T08:03:54.842Z</time></trkpt><trkpt lat="43.991169" lon="7.9603115"><ele>362.75</ele><time>2026-04-19T08:03:55.844Z</time></trkpt><trkpt lat="43.991109" lon="7.9604543"><ele>357.5</ele><time>2026-04-19T08:03:56.842Z</time></trkpt><trkpt lat="43.9910383" lon="7.960593"><ele>352.25</ele><time>2026-04-19T08:03:57.841Z</time></trkpt><trkpt lat="43.9909647" lon="7.9607267"><ele>347.0</ele><time>2026-04-19T08:03:58.843Z</time></trkpt><trkpt lat="43.9908923" lon="7.9608645"><ele>348.25</ele><time>2026-04-19T08:03:59.843Z</time></trkpt><trkpt lat="43.9908148" lon="7.961011"><ele>349.5</ele><time>2026-04-19T08:04:00.843Z</time></trkpt><trkpt lat="43.9907277" lon="7.9611433"><ele>350.75</ele><time>2026-04-19T08:04:01.842Z</time></trkpt><trkpt lat="43.9906545" lon="7.9612587"><ele>352.0</ele><time>2026-04-19T08:04:02.843Z</time></trkpt><trkpt lat="43.9905917" lon="7.9613329"><ele>352.0</ele><time>2026-04-19T08:04:03.843Z</time></trkpt><trkpt lat="43.9905424" lon="7.9613888"><ele>352.0</ele><time>2026-04-19T08:04:04.844Z</time></trkpt><trkpt lat="43.9904731" lon="7.961491"><ele>352.0</ele><time>2026-04-19T08:04:06.843Z</time></trkpt><trkpt lat="43.9904662" lon="7.9615881"><ele>352.0</ele><time>2026-04-19T08:04:07.842Z</time></trkpt><trkpt lat="43.9904613" lon="7.9617052"><ele>352.0</ele><time>2026-04-19T08:04:09.843Z</time></trkpt><trkpt lat="43.9903998" lon="7.9617357"><ele>352.0</ele><time>2026-04-19T08:04:11.843Z</time></trkpt><trkpt lat="43.9903451" lon="7.9617903"><ele>351.40000000000003</ele><time>2026-04-19T08:04:12.843Z</time></trkpt><trkpt lat="43.9902849" lon="7.9618522"><ele>350.8</ele><time>2026-04-19T08:04:13.843Z</time></trkpt><trkpt lat="43.9902496" lon="7.9619608"><ele>350.2</ele><time>2026-04-19T08:04:14.843Z</time></trkpt><trkpt lat="43.9902082" lon="7.9620377"><ele>349.6</ele><time>2026-04-19T08:04:15.843Z</time></trkpt><trkpt lat="43.990111" lon="7.962082"><ele>349.0</ele><time>2026-04-19T08:04:17.842Z</time></trkpt><trkpt lat="43.9899904" lon="7.9620309"><ele>349.0</ele><time>2026-04-19T08:04:19.843Z</time></trkpt><trkpt lat="43.989915" lon="7.9619946"><ele>349.0</ele><time>2026-04-19T08:04:20.842Z</time></trkpt><trkpt lat="43.9898326" lon="7.9619743"><ele>349.0</ele><time>2026-04-19T08:04:21.843Z</time></trkpt><trkpt lat="43.9897461" lon="7.9619614"><ele>349.0</ele><time>2026-04-19T08:04:22.843Z</time></trkpt><trkpt lat="43.9896515" lon="7.9619842"><ele>349.0</ele><time>2026-04-19T08:04:23.843Z</time></trkpt><trkpt lat="43.989562" lon="7.9620269"><ele>349.0</ele><time>2026-04-19T08:04:24.842Z</time></trkpt><trkpt lat="43.9894851" lon="7.962091"><ele>349.0</ele><time>2026-04-19T08:04:25.843Z</time></trkpt><trkpt lat="43.9894072" lon="7.9621471"><ele>349.0</ele><time>2026-04-19T08:04:26.843Z</time></trkpt><trkpt lat="43.9893312" lon="7.9621753"><ele>349.0</ele><time>2026-04-19T08:04:27.843Z</time></trkpt><trkpt lat="43.9892662" lon="7.9621737"><ele>349.0</ele><time>2026-04-19T08:04:28.842Z</time></trkpt><trkpt lat="43.989193" lon="7.9621381"><ele>349.0</ele><time>2026-04-19T08:04:29.844Z</time></trkpt><trkpt lat="43.9891108" lon="7.9621064"><ele>349.0</ele><time>2026-04-19T08:04:30.844Z</time></trkpt><trkpt lat="43.9890267" lon="7.9620979"><ele>350.6</ele><time>2026-04-19T08:04:31.842Z</time></trkpt><trkpt lat="43.9889427" lon="7.9621052"><ele>352.2</ele><time>2026-04-19T08:04:32.843Z</time></trkpt><trkpt lat="43.9888446" lon="7.9621168"><ele>353.8</ele><time>2026-04-19T08:04:33.843Z</time></trkpt><trkpt lat="43.9887446" lon="7.9621376"><ele>355.40000000000003</ele><time>2026-04-19T08:04:34.842Z</time></trkpt><trkpt lat="43.9886426" lon="7.9621708"><ele>357.0</ele><time>2026-04-19T08:04:35.842Z</time></trkpt><trkpt lat="43.9885448" lon="7.9622142"><ele>357.0</ele><time>2026-04-19T08:04:36.843Z</time></trkpt><trkpt lat="43.9884558" lon="7.9622703"><ele>357.0</ele><time>2026-04-19T08:04:37.842Z</time></trkpt><trkpt lat="43.9883762" lon="7.9623387"><ele>357.0</ele><time>2026-04-19T08:04:38.844Z</time></trkpt><trkpt lat="43.9883026" lon="7.9624216"><ele>357.0</ele><time>2026-04-19T08:04:39.843Z</time></trkpt><trkpt lat="43.9882297" lon="7.9624988"><ele>357.0</ele><time>2026-04-19T08:04:40.843Z</time></trkpt><trkpt lat="43.9881555" lon="7.9625678"><ele>355.0</ele><time>2026-04-19T08:04:41.842Z</time></trkpt><trkpt lat="43.9880865" lon="7.9626302"><ele>353.0</ele><time>2026-04-19T08:04:42.843Z</time></trkpt><trkpt lat="43.9880095" lon="7.9626605"><ele>351.0</ele><time>2026-04-19T08:04:43.843Z</time></trkpt><trkpt lat="43.9879212" lon="7.9626705"><ele>349.0</ele><time>2026-04-19T08:04:44.842Z</time></trkpt><trkpt lat="43.9878423" lon="7.962685"><ele>347.0</ele><time>2026-04-19T08:04:45.842Z</time></trkpt><trkpt lat="43.9877599" lon="7.9627139"><ele>345.0</ele><time>2026-04-19T08:04:46.843Z</time></trkpt><trkpt lat="43.9876878" lon="7.9627493"><ele>345.0</ele><time>2026-04-19T08:04:47.843Z</time></trkpt><trkpt lat="43.9876015" lon="7.962755"><ele>345.0</ele><time>2026-04-19T08:04:48.844Z</time></trkpt><trkpt lat="43.9875188" lon="7.9627463"><ele>345.0</ele><time>2026-04-19T08:04:49.843Z</time></trkpt><trkpt lat="43.9874304" lon="7.9627371"><ele>345.0</ele><time>2026-04-19T08:04:50.844Z</time></trkpt><trkpt lat="43.9873486" lon="7.9627462"><ele>345.0</ele><time>2026-04-19T08:04:51.843Z</time></trkpt><trkpt lat="43.9872661" lon="7.9627632"><ele>345.0</ele><time>2026-04-19T08:04:52.843Z</time></trkpt><trkpt lat="43.9871845" lon="7.9627647"><ele>346.2</ele><time>2026-04-19T08:04:53.843Z</time></trkpt><trkpt lat="43.9871195" lon="7.9627477"><ele>347.4</ele><time>2026-04-19T08:04:54.843Z</time></trkpt><trkpt lat="43.987035" lon="7.9626179"><ele>348.6</ele><time>2026-04-19T08:04:56.843Z</time></trkpt><trkpt lat="43.9870034" lon="7.9625206"><ele>349.8</ele><time>2026-04-19T08:04:57.842Z</time></trkpt><trkpt lat="43.9869754" lon="7.9624066"><ele>351.0</ele><time>2026-04-19T08:04:58.842Z</time></trkpt><trkpt lat="43.9869553" lon="7.9622788"><ele>356.20000000000005</ele><time>2026-04-19T08:04:59.842Z</time></trkpt><trkpt lat="43.986945" lon="7.9621448"><ele>361.40000000000003</ele><time>2026-04-19T08:05:00.843Z</time></trkpt><trkpt lat="43.9869267" lon="7.9620066"><ele>366.6</ele><time>2026-04-19T08:05:01.843Z</time></trkpt><trkpt lat="43.9868994" lon="7.9618629"><ele>371.8</ele><time>2026-04-19T08:05:02.841Z</time></trkpt><trkpt lat="43.9868861" lon="7.9617265"><ele>377.0</ele><time>2026-04-19T08:05:03.842Z</time></trkpt><trkpt lat="43.9868828" lon="7.9615858"><ele>379.8</ele><time>2026-04-19T08:05:04.843Z</time></trkpt><trkpt lat="43.9868892" lon="7.961445"><ele>382.6</ele><time>2026-04-19T08:05:05.842Z</time></trkpt><trkpt lat="43.9869083" lon="7.9613014"><ele>385.40000000000003</ele><time>2026-04-19T08:05:06.842Z</time></trkpt><trkpt lat="43.9869315" lon="7.9611521"><ele>388.20000000000005</ele><time>2026-04-19T08:05:07.843Z</time></trkpt><trkpt lat="43.9869349" lon="7.9610137"><ele>391.0</ele><time>2026-04-19T08:05:08.843Z</time></trkpt><trkpt lat="43.9869254" lon="7.9608837"><ele>391.57142857142856</ele><time>2026-04-19T08:05:09.842Z</time></trkpt><trkpt lat="43.9869105" lon="7.9607689"><ele>392.1428571428571</ele><time>2026-04-19T08:05:10.843Z</time></trkpt><trkpt lat="43.9868771" lon="7.96069"><ele>392.71428571428567</ele><time>2026-04-19T08:05:11.841Z</time></trkpt><trkpt lat="43.9868189" lon="7.9606435"><ele>393.2857142857143</ele><time>2026-04-19T08:05:12.843Z</time></trkpt><trkpt lat="43.986756" lon="7.9606059"><ele>393.8571428571429</ele><time>2026-04-19T08:05:13.843Z</time></trkpt><trkpt lat="43.9866816" lon="7.9606053"><ele>394.4285714285714</ele><time>2026-04-19T08:05:14.841Z</time></trkpt><trkpt lat="43.9866066" lon="7.9605889"><ele>395.0</ele><time>2026-04-19T08:05:15.843Z</time></trkpt><trkpt lat="43.9865427" lon="7.9605616"><ele>391.57142857142856</ele><time>2026-04-19T08:05:16.843Z</time></trkpt><trkpt lat="43.9864822" lon="7.9605102"><ele>388.14285714285717</ele><time>2026-04-19T08:05:17.842Z</time></trkpt><trkpt lat="43.9864288" lon="7.960443"><ele>384.7142857142857</ele><time>2026-04-19T08:05:18.843Z</time></trkpt><trkpt lat="43.986371" lon="7.9603797"><ele>381.2857142857143</ele><time>2026-04-19T08:05:19.843Z</time></trkpt><trkpt lat="43.98632" lon="7.9602998"><ele>377.8571428571429</ele><time>2026-04-19T08:05:20.844Z</time></trkpt><trkpt lat="43.9862692" lon="7.9602273"><ele>374.42857142857144</ele><time>2026-04-19T08:05:21.842Z</time></trkpt><trkpt lat="43.9862038" lon="7.9601623"><ele>371.0</ele><time>2026-04-19T08:05:22.843Z</time></trkpt><trkpt lat="43.9861325" lon="7.9601199"><ele>371.0</ele><time>2026-04-19T08:05:23.843Z</time></trkpt><trkpt lat="43.9860613" lon="7.9601006"><ele>371.0</ele><time>2026-04-19T08:05:24.842Z</time></trkpt><trkpt lat="43.985988" lon="7.9601012"><ele>371.0</ele><time>2026-04-19T08:05:25.843Z</time></trkpt><trkpt lat="43.9859068" lon="7.9600951"><ele>371.0</ele><time>2026-04-19T08:05:26.844Z</time></trkpt><trkpt lat="43.9858231" lon="7.9600801"><ele>371.0</ele><time>2026-04-19T08:05:27.843Z</time></trkpt><trkpt lat="43.9857339" lon="7.9600646"><ele>371.0</ele><time>2026-04-19T08:05:28.842Z</time></trkpt><trkpt lat="43.9856433" lon="7.9600278"><ele>372.4</ele><time>2026-04-19T08:05:29.843Z</time></trkpt><trkpt lat="43.9855544" lon="7.9599971"><ele>373.8</ele><time>2026-04-19T08:05:30.842Z</time></trkpt><trkpt lat="43.9854595" lon="7.9599773"><ele>375.2</ele><time>2026-04-19T08:05:31.843Z</time></trkpt><trkpt lat="43.9853653" lon="7.9599715"><ele>376.59999999999997</ele><time>2026-04-19T08:05:32.843Z</time></trkpt><trkpt lat="43.9852623" lon="7.9599924"><ele>378.0</ele><time>2026-04-19T08:05:33.843Z</time></trkpt><trkpt lat="43.9851638" lon="7.9600037"><ele>378.0</ele><time>2026-04-19T08:05:34.843Z</time></trkpt><trkpt lat="43.9850697" lon="7.9600034"><ele>378.0</ele><time>2026-04-19T08:05:35.842Z</time></trkpt><trkpt lat="43.9849708" lon="7.9599924"><ele>378.0</ele><time>2026-04-19T08:05:36.843Z</time></trkpt><trkpt lat="43.9848685" lon="7.9599586"><ele>378.0</ele><time>2026-04-19T08:05:37.842Z</time></trkpt><trkpt lat="43.984775" lon="7.9599581"><ele>378.0</ele><time>2026-04-19T08:05:38.842Z</time></trkpt><trkpt lat="43.9846884" lon="7.9599899"><ele>374.6666666666667</ele><time>2026-04-19T08:05:39.843Z</time></trkpt><trkpt lat="43.9846127" lon="7.9600539"><ele>371.3333333333333</ele><time>2026-04-19T08:05:40.843Z</time></trkpt><trkpt lat="43.9845575" lon="7.9601398"><ele>368.0</ele><time>2026-04-19T08:05:41.844Z</time></trkpt><trkpt lat="43.9845139" lon="7.9602353"><ele>364.66666666666663</ele><time>2026-04-19T08:05:42.842Z</time></trkpt><trkpt lat="43.9844675" lon="7.9603118"><ele>361.3333333333333</ele><time>2026-04-19T08:05:43.843Z</time></trkpt><trkpt lat="43.9844117" lon="7.9603963"><ele>358.0</ele><time>2026-04-19T08:05:44.842Z</time></trkpt><trkpt lat="43.9843649" lon="7.9605013"><ele>358.0</ele><time>2026-04-19T08:05:45.842Z</time></trkpt><trkpt lat="43.9843289" lon="7.960626"><ele>358.0</ele><time>2026-04-19T08:05:46.842Z</time></trkpt><trkpt lat="43.9842915" lon="7.9607423"><ele>358.0</ele><time>2026-04-19T08:05:47.843Z</time></trkpt><trkpt lat="43.9842414" lon="7.9608515"><ele>358.0</ele><time>2026-04-19T08:05:48.842Z</time></trkpt><trkpt lat="43.9841879" lon="7.9609531"><ele>358.0</ele><time>2026-04-19T08:05:49.842Z</time></trkpt><trkpt lat="43.9841279" lon="7.9610535"><ele>358.2</ele><time>2026-04-19T08:05:50.842Z</time></trkpt><trkpt lat="43.984058" lon="7.9611388"><ele>358.4</ele><time>2026-04-19T08:05:51.843Z</time></trkpt><trkpt lat="43.9839932" lon="7.9612328"><ele>358.59999999999997</ele><time>2026-04-19T08:05:52.843Z</time></trkpt><trkpt lat="43.9839313" lon="7.9613395"><ele>358.79999999999995</ele><time>2026-04-19T08:05:53.843Z</time></trkpt><trkpt lat="43.9838739" lon="7.961459"><ele>359.0</ele><time>2026-04-19T08:05:54.843Z</time></trkpt><trkpt lat="43.9838104" lon="7.9615728"><ele>359.0</ele><time>2026-04-19T08:05:55.843Z</time></trkpt><trkpt lat="43.9837484" lon="7.9616794"><ele>359.0</ele><time>2026-04-19T08:05:56.843Z</time></trkpt><trkpt lat="43.9837022" lon="7.961813"><ele>359.0</ele><time>2026-04-19T08:05:57.842Z</time></trkpt><trkpt lat="43.9836377" lon="7.9619068"><ele>359.0</ele><time>2026-04-19T08:05:58.843Z</time></trkpt><trkpt lat="43.9835963" lon="7.9619935"><ele>359.0</ele><time>2026-04-19T08:05:59.843Z</time></trkpt><trkpt lat="43.9835174" lon="7.9620837"><ele>359.5</ele><time>2026-04-19T08:06:00.843Z</time></trkpt><trkpt lat="43.9834483" lon="7.9621601"><ele>360.0</ele><time>2026-04-19T08:06:01.843Z</time></trkpt><trkpt lat="43.9833839" lon="7.9622265"><ele>360.5</ele><time>2026-04-19T08:06:02.842Z</time></trkpt><trkpt lat="43.9833189" lon="7.9622921"><ele>361.0</ele><time>2026-04-19T08:06:03.842Z</time></trkpt><trkpt lat="43.9832564" lon="7.9623724"><ele>361.5</ele><time>2026-04-19T08:06:04.842Z</time></trkpt><trkpt lat="43.9832128" lon="7.9624656"><ele>362.0</ele><time>2026-04-19T08:06:05.842Z</time></trkpt><trkpt lat="43.9831772" lon="7.9625632"><ele>357.83333333333337</ele><time>2026-04-19T08:06:06.843Z</time></trkpt><trkpt lat="43.9831273" lon="7.9626606"><ele>353.6666666666667</ele><time>2026-04-19T08:06:07.843Z</time></trkpt><trkpt lat="43.9830779" lon="7.9627693"><ele>349.5</ele><time>2026-04-19T08:06:08.843Z</time></trkpt><trkpt lat="43.9830311" lon="7.9628698"><ele>345.3333333333333</ele><time>2026-04-19T08:06:09.841Z</time></trkpt><trkpt lat="43.9829817" lon="7.9629468"><ele>341.16666666666663</ele><time>2026-04-19T08:06:10.842Z</time></trkpt><trkpt lat="43.9829213" lon="7.9630136"><ele>337.0</ele><time>2026-04-19T08:06:11.843Z</time></trkpt><trkpt lat="43.9828566" lon="7.9630699"><ele>337.00000000000006</ele><time>2026-04-19T08:06:12.843Z</time></trkpt><trkpt lat="43.982792" lon="7.9630984"><ele>337.0</ele><time>2026-04-19T08:06:13.842Z</time></trkpt><trkpt lat="43.982728" lon="7.9630994"><ele>337.0</ele><time>2026-04-19T08:06:14.842Z</time></trkpt><trkpt lat="43.9826578" lon="7.9630777"><ele>337.0</ele><time>2026-04-19T08:06:15.843Z</time></trkpt><trkpt lat="43.9825918" lon="7.9630214"><ele>337.0</ele><time>2026-04-19T08:06:16.843Z</time></trkpt><trkpt lat="43.982528" lon="7.9629658"><ele>337.00000000000006</ele><time>2026-04-19T08:06:17.842Z</time></trkpt><trkpt lat="43.9824715" lon="7.9629017"><ele>337.0</ele><time>2026-04-19T08:06:18.843Z</time></trkpt><trkpt lat="43.9824026" lon="7.9628527"><ele>339.5</ele><time>2026-04-19T08:06:19.843Z</time></trkpt><trkpt lat="43.9823396" lon="7.9628026"><ele>342.0</ele><time>2026-04-19T08:06:20.843Z</time></trkpt><trkpt lat="43.9822738" lon="7.9627455"><ele>344.5</ele><time>2026-04-19T08:06:21.843Z</time></trkpt><trkpt lat="43.9822074" lon="7.9627089"><ele>347.0</ele><time>2026-04-19T08:06:22.843Z</time></trkpt><trkpt lat="43.9821293" lon="7.962684"><ele>349.5</ele><time>2026-04-19T08:06:23.843Z</time></trkpt><trkpt lat="43.9820534" lon="7.9626683"><ele>352.0</ele><time>2026-04-19T08:06:24.841Z</time></trkpt><trkpt lat="43.9819637" lon="7.962652"><ele>352.0</ele><time>2026-04-19T08:06:25.842Z</time></trkpt><trkpt lat="43.9818876" lon="7.9626236"><ele>352.0</ele><time>2026-04-19T08:06:26.842Z</time></trkpt><trkpt lat="43.9818027" lon="7.9625867"><ele>352.0</ele><time>2026-04-19T08:06:27.843Z</time></trkpt><trkpt lat="43.9817197" lon="7.9625317"><ele>352.0</ele><time>2026-04-19T08:06:28.843Z</time></trkpt><trkpt lat="43.9816484" lon="7.962485"><ele>352.0</ele><time>2026-04-19T08:06:29.843Z</time></trkpt><trkpt lat="43.98156" lon="7.9624349"><ele>352.0</ele><time>2026-04-19T08:06:30.843Z</time></trkpt><trkpt lat="43.9814725" lon="7.9623852"><ele>354.16666666666663</ele><time>2026-04-19T08:06:31.843Z</time></trkpt><trkpt lat="43.9813995" lon="7.9623649"><ele>356.3333333333333</ele><time>2026-04-19T08:06:32.842Z</time></trkpt><trkpt lat="43.981313" lon="7.9623361"><ele>358.5</ele><time>2026-04-19T08:06:33.842Z</time></trkpt><trkpt lat="43.9812454" lon="7.9623378"><ele>360.6666666666667</ele><time>2026-04-19T08:06:34.842Z</time></trkpt><trkpt lat="43.9811774" lon="7.9623378"><ele>362.83333333333337</ele><time>2026-04-19T08:06:35.842Z</time></trkpt><trkpt lat="43.9810743" lon="7.9623439"><ele>365.0</ele><time>2026-04-19T08:06:37.843Z</time></trkpt><trkpt lat="43.9809463" lon="7.9623412"><ele>365.0</ele><time>2026-04-19T08:06:39.843Z</time></trkpt><trkpt lat="43.9808798" lon="7.9623516"><ele>365.0</ele><time>2026-04-19T08:06:40.843Z</time></trkpt><trkpt lat="43.980805" lon="7.9623522"><ele>365.0</ele><time>2026-04-19T08:06:41.841Z</time></trkpt><trkpt lat="43.9807329" lon="7.9623638"><ele>365.0</ele><time>2026-04-19T08:06:42.842Z</time></trkpt><trkpt lat="43.9806575" lon="7.9623578"><ele>365.0</ele><time>2026-04-19T08:06:43.843Z</time></trkpt><trkpt lat="43.9805707" lon="7.9623585"><ele>365.0</ele><time>2026-04-19T08:06:44.844Z</time></trkpt><trkpt lat="43.9804788" lon="7.9623331"><ele>364.1666666666667</ele><time>2026-04-19T08:06:45.842Z</time></trkpt><trkpt lat="43.980392" lon="7.9623242"><ele>363.33333333333337</ele><time>2026-04-19T08:06:46.843Z</time></trkpt><trkpt lat="43.9803099" lon="7.9623089"><ele>362.5</ele><time>2026-04-19T08:06:47.842Z</time></trkpt><trkpt lat="43.9802469" lon="7.9622958"><ele>361.6666666666667</ele><time>2026-04-19T08:06:48.843Z</time></trkpt><trkpt lat="43.980172" lon="7.9622596"><ele>360.8333333333333</ele><time>2026-04-19T08:06:50.844Z</time></trkpt><trkpt lat="43.9801112" lon="7.9623217"><ele>360.0</ele><time>2026-04-19T08:06:57.843Z</time></trkpt><trkpt lat="43.9800231" lon="7.9624363"><ele>359.1428571428571</ele><time>2026-04-19T08:06:59.843Z</time></trkpt><trkpt lat="43.9799496" lon="7.9624429"><ele>358.28571428571433</ele><time>2026-04-19T08:07:00.842Z</time></trkpt><trkpt lat="43.9798742" lon="7.9624418"><ele>357.42857142857144</ele><time>2026-04-19T08:07:01.843Z</time></trkpt><trkpt lat="43.9797976" lon="7.9624288"><ele>356.57142857142856</ele><time>2026-04-19T08:07:02.841Z</time></trkpt><trkpt lat="43.9797253" lon="7.9623936"><ele>355.71428571428567</ele><time>2026-04-19T08:07:03.844Z</time></trkpt><trkpt lat="43.9796659" lon="7.9623537"><ele>354.8571428571429</ele><time>2026-04-19T08:07:04.844Z</time></trkpt><trkpt lat="43.9796149" lon="7.9622824"><ele>354.0</ele><time>2026-04-19T08:07:05.842Z</time></trkpt><trkpt lat="43.9795579" lon="7.9622027"><ele>354.0</ele><time>2026-04-19T08:07:06.842Z</time></trkpt><trkpt lat="43.9795204" lon="7.9621306"><ele>354.0</ele><time>2026-04-19T08:07:07.843Z</time></trkpt><trkpt lat="43.9794964" lon="7.962041"><ele>354.0</ele><time>2026-04-19T08:07:08.842Z</time></trkpt><trkpt lat="43.9794751" lon="7.9619349"><ele>354.0</ele><time>2026-04-19T08:07:09.843Z</time></trkpt><trkpt lat="43.9794621" lon="7.9618176"><ele>354.0</ele><time>2026-04-19T08:07:10.844Z</time></trkpt><trkpt lat="43.979454" lon="7.9616836"><ele>354.0</ele><time>2026-04-19T08:07:11.844Z</time></trkpt><trkpt lat="43.979465" lon="7.9615541"><ele>356.79999999999995</ele><time>2026-04-19T08:07:12.843Z</time></trkpt><trkpt lat="43.9794809" lon="7.9614329"><ele>359.59999999999997</ele><time>2026-04-19T08:07:13.842Z</time></trkpt><trkpt lat="43.9794993" lon="7.9612835"><ele>362.4</ele><time>2026-04-19T08:07:14.842Z</time></trkpt><trkpt lat="43.9795149" lon="7.9611522"><ele>365.2</ele><time>2026-04-19T08:07:15.843Z</time></trkpt><trkpt lat="43.9795408" lon="7.961018"><ele>368.0</ele><time>2026-04-19T08:07:16.842Z</time></trkpt><trkpt lat="43.979557" lon="7.9608691"><ele>368.1666666666667</ele><time>2026-04-19T08:07:17.843Z</time></trkpt><trkpt lat="43.9795838" lon="7.9607434"><ele>368.33333333333337</ele><time>2026-04-19T08:07:18.842Z</time></trkpt><trkpt lat="43.9795953" lon="7.9606141"><ele>368.5</ele><time>2026-04-19T08:07:19.842Z</time></trkpt><trkpt lat="43.9795978" lon="7.9604877"><ele>368.6666666666667</ele><time>2026-04-19T08:07:20.843Z</time></trkpt><trkpt lat="43.9795957" lon="7.9603711"><ele>368.8333333333333</ele><time>2026-04-19T08:07:21.843Z</time></trkpt><trkpt lat="43.9795859" lon="7.9602559"><ele>369.0</ele><time>2026-04-19T08:07:22.842Z</time></trkpt><trkpt lat="43.9795752" lon="7.9601421"><ele>369.0</ele><time>2026-04-19T08:07:23.843Z</time></trkpt><trkpt lat="43.9795682" lon="7.9600351"><ele>369.0</ele><time>2026-04-19T08:07:24.843Z</time></trkpt><trkpt lat="43.9795438" lon="7.9599082"><ele>369.0</ele><time>2026-04-19T08:07:25.842Z</time></trkpt><trkpt lat="43.9795232" lon="7.9597944"><ele>369.0</ele><time>2026-04-19T08:07:26.842Z</time></trkpt><trkpt lat="43.979507" lon="7.9596715"><ele>369.0</ele><time>2026-04-19T08:07:27.844Z</time></trkpt><trkpt lat="43.9794831" lon="7.959536"><ele>369.0</ele><time>2026-04-19T08:07:28.842Z</time></trkpt><trkpt lat="43.9794563" lon="7.9594272"><ele>369.4</ele><time>2026-04-19T08:07:29.843Z</time></trkpt><trkpt lat="43.9794127" lon="7.9593119"><ele>369.79999999999995</ele><time>2026-04-19T08:07:30.843Z</time></trkpt><trkpt lat="43.9793613" lon="7.9592179"><ele>370.20000000000005</ele><time>2026-04-19T08:07:31.841Z</time></trkpt><trkpt lat="43.979298" lon="7.959115"><ele>370.6</ele><time>2026-04-19T08:07:32.845Z</time></trkpt><trkpt lat="43.9792334" lon="7.9590008"><ele>371.0</ele><time>2026-04-19T08:07:33.843Z</time></trkpt><trkpt lat="43.9791629" lon="7.9588934"><ele>364.8</ele><time>2026-04-19T08:07:34.841Z</time></trkpt><trkpt lat="43.9790909" lon="7.9587901"><ele>358.6</ele><time>2026-04-19T08:07:35.842Z</time></trkpt><trkpt lat="43.9790197" lon="7.9586933"><ele>352.4</ele><time>2026-04-19T08:07:36.843Z</time></trkpt><trkpt lat="43.9789672" lon="7.9586047"><ele>346.2</ele><time>2026-04-19T08:07:37.846Z</time></trkpt><trkpt lat="43.9789081" lon="7.9584452"><ele>340.0</ele><time>2026-04-19T08:07:39.844Z</time></trkpt><trkpt lat="43.9789164" lon="7.95833"><ele>340.0</ele><time>2026-04-19T08:07:40.843Z</time></trkpt><trkpt lat="43.9789232" lon="7.9582018"><ele>340.0</ele><time>2026-04-19T08:07:41.843Z</time></trkpt><trkpt lat="43.9789505" lon="7.9580596"><ele>340.0</ele><time>2026-04-19T08:07:42.842Z</time></trkpt><trkpt lat="43.978974" lon="7.9579075"><ele>340.0</ele><time>2026-04-19T08:07:43.842Z</time></trkpt><trkpt lat="43.9789975" lon="7.9577537"><ele>340.0</ele><time>2026-04-19T08:07:44.846Z</time></trkpt><trkpt lat="43.9790183" lon="7.9576031"><ele>337.25</ele><time>2026-04-19T08:07:45.843Z</time></trkpt><trkpt lat="43.9790378" lon="7.9574444"><ele>334.5</ele><time>2026-04-19T08:07:46.842Z</time></trkpt><trkpt lat="43.9790532" lon="7.9572808"><ele>331.75</ele><time>2026-04-19T08:07:47.844Z</time></trkpt><trkpt lat="43.979073" lon="7.9571181"><ele>329.0</ele><time>2026-04-19T08:07:48.842Z</time></trkpt><trkpt lat="43.9790914" lon="7.9569672"><ele>329.0</ele><time>2026-04-19T08:07:49.843Z</time></trkpt><trkpt lat="43.979105" lon="7.9568136"><ele>329.0</ele><time>2026-04-19T08:07:50.842Z</time></trkpt><trkpt lat="43.9791391" lon="7.9566689"><ele>329.0</ele><time>2026-04-19T08:07:51.842Z</time></trkpt><trkpt lat="43.9791686" lon="7.956525"><ele>329.0</ele><time>2026-04-19T08:07:52.844Z</time></trkpt><trkpt lat="43.9791957" lon="7.9563876"><ele>329.0</ele><time>2026-04-19T08:07:53.842Z</time></trkpt><trkpt lat="43.9792159" lon="7.9562483"><ele>326.0</ele><time>2026-04-19T08:07:54.842Z</time></trkpt><trkpt lat="43.9792241" lon="7.9561148"><ele>323.0</ele><time>2026-04-19T08:07:55.843Z</time></trkpt><trkpt lat="43.9792117" lon="7.9559919"><ele>320.0</ele><time>2026-04-19T08:07:56.843Z</time></trkpt><trkpt lat="43.9791977" lon="7.9558515"><ele>317.0</ele><time>2026-04-19T08:07:57.842Z</time></trkpt><trkpt lat="43.9791839" lon="7.9557205"><ele>314.0</ele><time>2026-04-19T08:07:58.843Z</time></trkpt><trkpt lat="43.9791702" lon="7.9555885"><ele>314.0</ele><time>2026-04-19T08:07:59.843Z</time></trkpt><trkpt lat="43.979163" lon="7.9554474"><ele>314.0</ele><time>2026-04-19T08:08:00.843Z</time></trkpt><trkpt lat="43.9791505" lon="7.9552969"><ele>314.0</ele><time>2026-04-19T08:08:01.843Z</time></trkpt><trkpt lat="43.9791386" lon="7.9551695"><ele>314.0</ele><time>2026-04-19T08:08:02.846Z</time></trkpt><trkpt lat="43.9791292" lon="7.9550559"><ele>314.0</ele><time>2026-04-19T08:08:03.845Z</time></trkpt><trkpt lat="43.9791195" lon="7.9549514"><ele>314.0</ele><time>2026-04-19T08:08:04.843Z</time></trkpt><trkpt lat="43.9791365" lon="7.9548608"><ele>314.0</ele><time>2026-04-19T08:08:05.846Z</time></trkpt><trkpt lat="43.9791557" lon="7.9547659"><ele>314.0</ele><time>2026-04-19T08:08:06.843Z</time></trkpt><trkpt lat="43.9791856" lon="7.9546833"><ele>314.0</ele><time>2026-04-19T08:08:07.848Z</time></trkpt><trkpt lat="43.9792222" lon="7.9545715"><ele>314.0</ele><time>2026-04-19T08:08:08.846Z</time></trkpt><trkpt lat="43.9792644" lon="7.9544526"><ele>314.0</ele><time>2026-04-19T08:08:09.842Z</time></trkpt><trkpt lat="43.9792966" lon="7.9543314"><ele>316.33333333333337</ele><time>2026-04-19T08:08:10.844Z</time></trkpt><trkpt lat="43.9793486" lon="7.9542354"><ele>318.6666666666667</ele><time>2026-04-19T08:08:11.845Z</time></trkpt><trkpt lat="43.9793916" lon="7.9541366"><ele>321.0</ele><time>2026-04-19T08:08:12.844Z</time></trkpt><trkpt lat="43.9794345" lon="7.9540308"><ele>323.3333333333333</ele><time>2026-04-19T08:08:13.845Z</time></trkpt><trkpt lat="43.9794715" lon="7.953921"><ele>325.66666666666663</ele><time>2026-04-19T08:08:14.847Z</time></trkpt><trkpt lat="43.9795014" lon="7.953793"><ele>328.0</ele><time>2026-04-19T08:08:15.845Z</time></trkpt><trkpt lat="43.9795299" lon="7.9536624"><ele>328.0</ele><time>2026-04-19T08:08:16.845Z</time></trkpt><trkpt lat="43.9795419" lon="7.9535231"><ele>328.0</ele><time>2026-04-19T08:08:17.845Z</time></trkpt><trkpt lat="43.9795429" lon="7.9533805"><ele>328.0</ele><time>2026-04-19T08:08:18.847Z</time></trkpt><trkpt lat="43.9795432" lon="7.9532374"><ele>328.0</ele><time>2026-04-19T08:08:19.845Z</time></trkpt><trkpt lat="43.9795364" lon="7.9531016"><ele>328.0</ele><time>2026-04-19T08:08:20.842Z</time></trkpt><trkpt lat="43.9795198" lon="7.9529515"><ele>324.0</ele><time>2026-04-19T08:08:21.843Z</time></trkpt><trkpt lat="43.9795009" lon="7.9528161"><ele>320.0</ele><time>2026-04-19T08:08:22.846Z</time></trkpt><trkpt lat="43.9794901" lon="7.952669"><ele>316.0</ele><time>2026-04-19T08:08:23.843Z</time></trkpt><trkpt lat="43.9794835" lon="7.9525289"><ele>312.0</ele><time>2026-04-19T08:08:24.844Z</time></trkpt><trkpt lat="43.9794833" lon="7.9523919"><ele>308.0</ele><time>2026-04-19T08:08:25.844Z</time></trkpt><trkpt lat="43.9794665" lon="7.9522624"><ele>306.8</ele><time>2026-04-19T08:08:26.844Z</time></trkpt><trkpt lat="43.9794398" lon="7.9521342"><ele>305.6</ele><time>2026-04-19T08:08:27.845Z</time></trkpt><trkpt lat="43.9794009" lon="7.9520175"><ele>304.4</ele><time>2026-04-19T08:08:28.844Z</time></trkpt><trkpt lat="43.9793629" lon="7.9519101"><ele>303.2</ele><time>2026-04-19T08:08:29.843Z</time></trkpt><trkpt lat="43.9793101" lon="7.9518223"><ele>302.0</ele><time>2026-04-19T08:08:30.842Z</time></trkpt><trkpt lat="43.9792518" lon="7.9517197"><ele>301.83333333333337</ele><time>2026-04-19T08:08:31.843Z</time></trkpt><trkpt lat="43.9791967" lon="7.9516171"><ele>301.6666666666667</ele><time>2026-04-19T08:08:32.842Z</time></trkpt><trkpt lat="43.9791527" lon="7.951489"><ele>301.5</ele><time>2026-04-19T08:08:33.842Z</time></trkpt><trkpt lat="43.9791174" lon="7.9513895"><ele>301.3333333333333</ele><time>2026-04-19T08:08:34.843Z</time></trkpt><trkpt lat="43.9790899" lon="7.9512886"><ele>301.16666666666663</ele><time>2026-04-19T08:08:35.843Z</time></trkpt><trkpt lat="43.979056" lon="7.9511992"><ele>301.0</ele><time>2026-04-19T08:08:36.847Z</time></trkpt><trkpt lat="43.9790121" lon="7.9510621"><ele>299.57142857142856</ele><time>2026-04-19T08:08:38.847Z</time></trkpt><trkpt lat="43.9789647" lon="7.9509275"><ele>298.1428571428571</ele><time>2026-04-19T08:08:40.843Z</time></trkpt><trkpt lat="43.9789262" lon="7.950848"><ele>296.7142857142857</ele><time>2026-04-19T08:08:41.842Z</time></trkpt><trkpt lat="43.9788878" lon="7.9507742"><ele>295.2857142857143</ele><time>2026-04-19T08:08:42.843Z</time></trkpt><trkpt lat="43.9788375" lon="7.9507055"><ele>293.85714285714283</ele><time>2026-04-19T08:08:43.843Z</time></trkpt><trkpt lat="43.9787853" lon="7.9506499"><ele>292.42857142857144</ele><time>2026-04-19T08:08:44.842Z</time></trkpt><trkpt lat="43.9787317" lon="7.950603"><ele>291.0</ele><time>2026-04-19T08:08:45.842Z</time></trkpt><trkpt lat="43.9786509" lon="7.9505319"><ele>291.0</ele><time>2026-04-19T08:08:47.843Z</time></trkpt><trkpt lat="43.9785605" lon="7.9504445"><ele>291.0</ele><time>2026-04-19T08:08:49.844Z</time></trkpt><trkpt lat="43.9784541" lon="7.9503518"><ele>291.0</ele><time>2026-04-19T08:08:51.842Z</time></trkpt><trkpt lat="43.978396" lon="7.950318"><ele>291.0</ele><time>2026-04-19T08:08:52.842Z</time></trkpt><trkpt lat="43.978334" lon="7.950268"><ele>291.0</ele><time>2026-04-19T08:08:53.842Z</time></trkpt><trkpt lat="43.9782797" lon="7.9502095"><ele>291.0</ele><time>2026-04-19T08:08:54.842Z</time></trkpt><trkpt lat="43.9782265" lon="7.950143"><ele>289.2857142857143</ele><time>2026-04-19T08:08:55.843Z</time></trkpt><trkpt lat="43.9781811" lon="7.9500767"><ele>287.57142857142856</ele><time>2026-04-19T08:08:56.843Z</time></trkpt><trkpt lat="43.9781422" lon="7.9500037"><ele>285.85714285714283</ele><time>2026-04-19T08:08:57.843Z</time></trkpt><trkpt lat="43.9781065" lon="7.9499186"><ele>284.1428571428571</ele><time>2026-04-19T08:08:58.843Z</time></trkpt><trkpt lat="43.9780734" lon="7.9498407"><ele>282.42857142857144</ele><time>2026-04-19T08:08:59.843Z</time></trkpt><trkpt lat="43.9780466" lon="7.9497539"><ele>280.71428571428567</ele><time>2026-04-19T08:09:01.843Z</time></trkpt><trkpt lat="43.9779836" lon="7.9496831"><ele>279.0</ele><time>2026-04-19T08:09:03.842Z</time></trkpt><trkpt lat="43.9779966" lon="7.9495682"><ele>279.0</ele><time>2026-04-19T08:09:06.842Z</time></trkpt><trkpt lat="43.9780982" lon="7.9495061"><ele>279.0</ele><time>2026-04-19T08:09:08.842Z</time></trkpt><trkpt lat="43.978169" lon="7.9494494"><ele>279.0</ele><time>2026-04-19T08:09:09.842Z</time></trkpt><trkpt lat="43.9782455" lon="7.9493804"><ele>279.0</ele><time>2026-04-19T08:09:10.842Z</time></trkpt><trkpt lat="43.978314" lon="7.9492912"><ele>279.0</ele><time>2026-04-19T08:09:11.842Z</time></trkpt><trkpt lat="43.9783735" lon="7.9491837"><ele>280.4</ele><time>2026-04-19T08:09:12.842Z</time></trkpt><trkpt lat="43.9784278" lon="7.9490618"><ele>281.79999999999995</ele><time>2026-04-19T08:09:13.842Z</time></trkpt><trkpt lat="43.978474" lon="7.948938"><ele>283.20000000000005</ele><time>2026-04-19T08:09:14.842Z</time></trkpt><trkpt lat="43.9785147" lon="7.9488156"><ele>284.6</ele><time>2026-04-19T08:09:15.842Z</time></trkpt><trkpt lat="43.9785526" lon="7.9487099"><ele>286.0</ele><time>2026-04-19T08:09:16.842Z</time></trkpt><trkpt lat="43.9785839" lon="7.9486169"><ele>286.0</ele><time>2026-04-19T08:09:17.843Z</time></trkpt><trkpt lat="43.9786113" lon="7.9485371"><ele>286.0</ele><time>2026-04-19T08:09:18.843Z</time></trkpt><trkpt lat="43.9786314" lon="7.9484028"><ele>286.0</ele><time>2026-04-19T08:09:20.843Z</time></trkpt><trkpt lat="43.9785671" lon="7.9483255"><ele>286.0</ele><time>2026-04-19T08:09:22.843Z</time></trkpt><trkpt lat="43.9784337" lon="7.9482912"><ele>286.0</ele><time>2026-04-19T08:09:24.842Z</time></trkpt><trkpt lat="43.9783547" lon="7.9482704"><ele>282.66666666666663</ele><time>2026-04-19T08:09:25.844Z</time></trkpt><trkpt lat="43.9782725" lon="7.948266"><ele>279.3333333333333</ele><time>2026-04-19T08:09:26.842Z</time></trkpt><trkpt lat="43.9781917" lon="7.9482667"><ele>276.0</ele><time>2026-04-19T08:09:27.843Z</time></trkpt><trkpt lat="43.9781015" lon="7.9482773"><ele>272.6666666666667</ele><time>2026-04-19T08:09:28.842Z</time></trkpt><trkpt lat="43.9780038" lon="7.9482584"><ele>269.33333333333337</ele><time>2026-04-19T08:09:29.843Z</time></trkpt><trkpt lat="43.9779091" lon="7.948248"><ele>266.0</ele><time>2026-04-19T08:09:30.842Z</time></trkpt><trkpt lat="43.9778093" lon="7.948221"><ele>266.0</ele><time>2026-04-19T08:09:31.842Z</time></trkpt><trkpt lat="43.9777106" lon="7.9481923"><ele>266.0</ele><time>2026-04-19T08:09:32.842Z</time></trkpt><trkpt lat="43.9776094" lon="7.9481437"><ele>266.0</ele><time>2026-04-19T08:09:33.843Z</time></trkpt><trkpt lat="43.9775086" lon="7.948101"><ele>266.0</ele><time>2026-04-19T08:09:34.842Z</time></trkpt><trkpt lat="43.9774126" lon="7.9480489"><ele>266.0</ele><time>2026-04-19T08:09:35.843Z</time></trkpt><trkpt lat="43.9773151" lon="7.9479844"><ele>265.40000000000003</ele><time>2026-04-19T08:09:36.842Z</time></trkpt><trkpt lat="43.9772228" lon="7.9479269"><ele>264.8</ele><time>2026-04-19T08:09:37.843Z</time></trkpt><trkpt lat="43.9771418" lon="7.9478144"><ele>264.20000000000005</ele><time>2026-04-19T08:09:38.842Z</time></trkpt><trkpt lat="43.9770748" lon="7.9477074"><ele>263.6</ele><time>2026-04-19T08:09:39.843Z</time></trkpt><trkpt lat="43.9770152" lon="7.9475956"><ele>263.0</ele><time>2026-04-19T08:09:40.842Z</time></trkpt><trkpt lat="43.9769611" lon="7.9474997"><ele>263.0</ele><time>2026-04-19T08:09:41.841Z</time></trkpt><trkpt lat="43.9769506" lon="7.9473844"><ele>263.0</ele><time>2026-04-19T08:09:42.844Z</time></trkpt><trkpt lat="43.9769324" lon="7.9472682"><ele>263.0</ele><time>2026-04-19T08:09:43.842Z</time></trkpt><trkpt lat="43.9769396" lon="7.9471344"><ele>263.0</ele><time>2026-04-19T08:09:44.843Z</time></trkpt><trkpt lat="43.9769422" lon="7.9469897"><ele>263.0</ele><time>2026-04-19T08:09:45.842Z</time></trkpt><trkpt lat="43.9769457" lon="7.9468679"><ele>263.0</ele><time>2026-04-19T08:09:46.843Z</time></trkpt><trkpt lat="43.9769479" lon="7.9467479"><ele>263.0</ele><time>2026-04-19T08:09:47.842Z</time></trkpt><trkpt lat="43.9769206" lon="7.9466439"><ele>263.0</ele><time>2026-04-19T08:09:48.843Z</time></trkpt><trkpt lat="43.9768783" lon="7.9465622"><ele>263.0</ele><time>2026-04-19T08:09:49.842Z</time></trkpt><trkpt lat="43.9768151" lon="7.946505"><ele>263.0</ele><time>2026-04-19T08:09:50.843Z</time></trkpt><trkpt lat="43.9767459" lon="7.9464626"><ele>263.0</ele><time>2026-04-19T08:09:51.842Z</time></trkpt><trkpt lat="43.9766932" lon="7.9464077"><ele>258.83333333333337</ele><time>2026-04-19T08:09:52.842Z</time></trkpt><trkpt lat="43.976656" lon="7.9463234"><ele>254.66666666666669</ele><time>2026-04-19T08:09:53.842Z</time></trkpt><trkpt lat="43.9766482" lon="7.9462325"><ele>250.5</ele><time>2026-04-19T08:09:54.842Z</time></trkpt><trkpt lat="43.9766497" lon="7.9461326"><ele>246.33333333333331</ele><time>2026-04-19T08:09:55.842Z</time></trkpt><trkpt lat="43.9766665" lon="7.9460304"><ele>242.16666666666666</ele><time>2026-04-19T08:09:56.841Z</time></trkpt><trkpt lat="43.9766563" lon="7.9459149"><ele>238.0</ele><time>2026-04-19T08:09:57.841Z</time></trkpt><trkpt lat="43.976651" lon="7.945784"><ele>237.83333333333331</ele><time>2026-04-19T08:09:58.843Z</time></trkpt><trkpt lat="43.9766397" lon="7.9456542"><ele>237.66666666666666</ele><time>2026-04-19T08:09:59.843Z</time></trkpt><trkpt lat="43.9766297" lon="7.9455292"><ele>237.5</ele><time>2026-04-19T08:10:00.842Z</time></trkpt><trkpt lat="43.9766336" lon="7.9453958"><ele>237.33333333333331</ele><time>2026-04-19T08:10:01.843Z</time></trkpt><trkpt lat="43.9766423" lon="7.9452791"><ele>237.16666666666666</ele><time>2026-04-19T08:10:02.842Z</time></trkpt><trkpt lat="43.9766439" lon="7.9451866"><ele>237.0</ele><time>2026-04-19T08:10:03.843Z</time></trkpt><trkpt lat="43.9766236" lon="7.9450514"><ele>237.0</ele><time>2026-04-19T08:10:05.842Z</time></trkpt><trkpt lat="43.9765907" lon="7.9449267"><ele>237.0</ele><time>2026-04-19T08:10:07.842Z</time></trkpt><trkpt lat="43.9765739" lon="7.9447843"><ele>237.0</ele><time>2026-04-19T08:10:09.843Z</time></trkpt><trkpt lat="43.9765765" lon="7.9446777"><ele>237.0</ele><time>2026-04-19T08:10:10.843Z</time></trkpt><trkpt lat="43.9765943" lon="7.9445381"><ele>237.0</ele><time>2026-04-19T08:10:11.842Z</time></trkpt><trkpt lat="43.9766058" lon="7.9444195"><ele>237.0</ele><time>2026-04-19T08:10:12.843Z</time></trkpt><trkpt lat="43.9766132" lon="7.9443067"><ele>237.0</ele><time>2026-04-19T08:10:13.843Z</time></trkpt><trkpt lat="43.9766251" lon="7.9441999"><ele>237.0</ele><time>2026-04-19T08:10:14.842Z</time></trkpt><trkpt lat="43.976647" lon="7.9441117"><ele>237.0</ele><time>2026-04-19T08:10:15.844Z</time></trkpt><trkpt lat="43.976684" lon="7.9440393"><ele>237.0</ele><time>2026-04-19T08:10:16.844Z</time></trkpt><trkpt lat="43.9767442" lon="7.943996"><ele>237.0</ele><time>2026-04-19T08:10:17.843Z</time></trkpt><trkpt lat="43.9768868" lon="7.9440113"><ele>238.66666666666666</ele><time>2026-04-19T08:10:19.843Z</time></trkpt><trkpt lat="43.9769601" lon="7.9440718"><ele>240.33333333333331</ele><time>2026-04-19T08:10:20.843Z</time></trkpt><trkpt lat="43.9770357" lon="7.9441247"><ele>242.0</ele><time>2026-04-19T08:10:21.842Z</time></trkpt><trkpt lat="43.9771176" lon="7.9441692"><ele>243.66666666666666</ele><time>2026-04-19T08:10:22.843Z</time></trkpt><trkpt lat="43.977209" lon="7.9442025"><ele>245.33333333333331</ele><time>2026-04-19T08:10:23.843Z</time></trkpt><trkpt lat="43.9772997" lon="7.9442364"><ele>247.0</ele><time>2026-04-19T08:10:24.843Z</time></trkpt><trkpt lat="43.9773899" lon="7.9442692"><ele>251.2</ele><time>2026-04-19T08:10:25.843Z</time></trkpt><trkpt lat="43.9774832" lon="7.9442895"><ele>255.39999999999998</ele><time>2026-04-19T08:10:26.843Z</time></trkpt><trkpt lat="43.9775791" lon="7.9443262"><ele>259.6</ele><time>2026-04-19T08:10:27.842Z</time></trkpt><trkpt lat="43.9776705" lon="7.9443551"><ele>263.8</ele><time>2026-04-19T08:10:28.843Z</time></trkpt><trkpt lat="43.9777658" lon="7.9443873"><ele>268.0</ele><time>2026-04-19T08:10:29.842Z</time></trkpt><trkpt lat="43.9778644" lon="7.9444209"><ele>271.6</ele><time>2026-04-19T08:10:30.842Z</time></trkpt><trkpt lat="43.9779557" lon="7.9444486"><ele>275.20000000000005</ele><time>2026-04-19T08:10:31.843Z</time></trkpt><trkpt lat="43.9780461" lon="7.9444682"><ele>278.8</ele><time>2026-04-19T08:10:32.843Z</time></trkpt><trkpt lat="43.9781512" lon="7.9444713"><ele>282.40000000000003</ele><time>2026-04-19T08:10:33.842Z</time></trkpt><trkpt lat="43.9782457" lon="7.9444738"><ele>286.0</ele><time>2026-04-19T08:10:34.843Z</time></trkpt><trkpt lat="43.9783478" lon="7.9444728"><ele>288.8</ele><time>2026-04-19T08:10:35.843Z</time></trkpt><trkpt lat="43.9784493" lon="7.9444624"><ele>291.6</ele><time>2026-04-19T08:10:36.843Z</time></trkpt><trkpt lat="43.9785536" lon="7.9444592"><ele>294.4</ele><time>2026-04-19T08:10:37.842Z</time></trkpt><trkpt lat="43.9786498" lon="7.9444598"><ele>297.2</ele><time>2026-04-19T08:10:38.843Z</time></trkpt><trkpt lat="43.9787462" lon="7.9444524"><ele>300.0</ele><time>2026-04-19T08:10:39.843Z</time></trkpt><trkpt lat="43.9788451" lon="7.9444513"><ele>300.0</ele><time>2026-04-19T08:10:40.842Z</time></trkpt><trkpt lat="43.9789459" lon="7.9444508"><ele>300.0</ele><time>2026-04-19T08:10:41.843Z</time></trkpt><trkpt lat="43.9790471" lon="7.9444455"><ele>300.0</ele><time>2026-04-19T08:10:42.842Z</time></trkpt><trkpt lat="43.9791458" lon="7.9444418"><ele>300.0</ele><time>2026-04-19T08:10:43.843Z</time></trkpt><trkpt lat="43.9792279" lon="7.9444306"><ele>300.0</ele><time>2026-04-19T08:10:44.843Z</time></trkpt><trkpt lat="43.9793187" lon="7.9444211"><ele>299.0</ele><time>2026-04-19T08:10:45.842Z</time></trkpt><trkpt lat="43.9793728" lon="7.9443743"><ele>298.0</ele><time>2026-04-19T08:10:46.843Z</time></trkpt><trkpt lat="43.9794285" lon="7.9442447"><ele>297.0</ele><time>2026-04-19T08:10:48.841Z</time></trkpt><trkpt lat="43.9794286" lon="7.9441461"><ele>296.0</ele><time>2026-04-19T08:10:49.842Z</time></trkpt><trkpt lat="43.9793624" lon="7.9440496"><ele>295.0</ele><time>2026-04-19T08:10:50.842Z</time></trkpt><trkpt lat="43.9792969" lon="7.9439724"><ele>294.0</ele><time>2026-04-19T08:10:51.843Z</time></trkpt><trkpt lat="43.9792173" lon="7.9439073"><ele>289.2</ele><time>2026-04-19T08:10:52.843Z</time></trkpt><trkpt lat="43.979134" lon="7.9438533"><ele>284.4</ele><time>2026-04-19T08:10:53.843Z</time></trkpt><trkpt lat="43.9790484" lon="7.9438094"><ele>279.6</ele><time>2026-04-19T08:10:54.843Z</time></trkpt><trkpt lat="43.9789584" lon="7.9437643"><ele>274.8</ele><time>2026-04-19T08:10:55.842Z</time></trkpt><trkpt lat="43.9788631" lon="7.9437064"><ele>270.0</ele><time>2026-04-19T08:10:56.842Z</time></trkpt><trkpt lat="43.9787707" lon="7.943632"><ele>270.0</ele><time>2026-04-19T08:10:57.842Z</time></trkpt><trkpt lat="43.9786786" lon="7.9435647"><ele>270.0</ele><time>2026-04-19T08:10:58.843Z</time></trkpt><trkpt lat="43.9785948" lon="7.9434984"><ele>270.0</ele><time>2026-04-19T08:10:59.843Z</time></trkpt><trkpt lat="43.9785044" lon="7.9434328"><ele>270.0</ele><time>2026-04-19T08:11:00.842Z</time></trkpt><trkpt lat="43.9784094" lon="7.9433627"><ele>270.0</ele><time>2026-04-19T08:11:01.843Z</time></trkpt><trkpt lat="43.978317" lon="7.9432895"><ele>268.8</ele><time>2026-04-19T08:11:02.842Z</time></trkpt><trkpt lat="43.9782248" lon="7.9432174"><ele>267.6</ele><time>2026-04-19T08:11:03.842Z</time></trkpt><trkpt lat="43.9781339" lon="7.9431441"><ele>266.4</ele><time>2026-04-19T08:11:04.841Z</time></trkpt><trkpt lat="43.9780524" lon="7.9430733"><ele>265.2</ele><time>2026-04-19T08:11:05.843Z</time></trkpt><trkpt lat="43.9779879" lon="7.9429946"><ele>264.0</ele><time>2026-04-19T08:11:06.843Z</time></trkpt><trkpt lat="43.977945" lon="7.9429078"><ele>264.0</ele><time>2026-04-19T08:11:07.844Z</time></trkpt><trkpt lat="43.9779442" lon="7.9428203"><ele>264.0</ele><time>2026-04-19T08:11:08.842Z</time></trkpt><trkpt lat="43.9779715" lon="7.9427354"><ele>264.0</ele><time>2026-04-19T08:11:09.842Z</time></trkpt><trkpt lat="43.9780183" lon="7.9426595"><ele>264.0</ele><time>2026-04-19T08:11:10.842Z</time></trkpt><trkpt lat="43.9780789" lon="7.9425826"><ele>264.0</ele><time>2026-04-19T08:11:11.842Z</time></trkpt><trkpt lat="43.9781418" lon="7.9424968"><ele>264.0</ele><time>2026-04-19T08:11:12.842Z</time></trkpt><trkpt lat="43.9782102" lon="7.9424058"><ele>266.8</ele><time>2026-04-19T08:11:13.842Z</time></trkpt><trkpt lat="43.9782792" lon="7.942313"><ele>269.59999999999997</ele><time>2026-04-19T08:11:14.842Z</time></trkpt><trkpt lat="43.9783481" lon="7.9422178"><ele>272.4</ele><time>2026-04-19T08:11:15.842Z</time></trkpt><trkpt lat="43.9784109" lon="7.9421102"><ele>275.2</ele><time>2026-04-19T08:11:16.842Z</time></trkpt><trkpt lat="43.9784634" lon="7.9419738"><ele>278.0</ele><time>2026-04-19T08:11:17.842Z</time></trkpt><trkpt lat="43.9785057" lon="7.9418342"><ele>288.5</ele><time>2026-04-19T08:11:18.842Z</time></trkpt><trkpt lat="43.9785458" lon="7.9416874"><ele>299.0</ele><time>2026-04-19T08:11:19.843Z</time></trkpt><trkpt lat="43.9785831" lon="7.941535"><ele>309.5</ele><time>2026-04-19T08:11:20.842Z</time></trkpt><trkpt lat="43.9786214" lon="7.941387"><ele>320.0</ele><time>2026-04-19T08:11:21.842Z</time></trkpt><trkpt lat="43.9786553" lon="7.9412319"><ele>320.0</ele><time>2026-04-19T08:11:22.842Z</time></trkpt><trkpt lat="43.9786868" lon="7.9410774"><ele>320.0</ele><time>2026-04-19T08:11:23.843Z</time></trkpt><trkpt lat="43.9787217" lon="7.9409235"><ele>320.0</ele><time>2026-04-19T08:11:24.842Z</time></trkpt><trkpt lat="43.9787487" lon="7.9407655"><ele>320.0</ele><time>2026-04-19T08:11:25.842Z</time></trkpt><trkpt lat="43.9787685" lon="7.9406103"><ele>318.4</ele><time>2026-04-19T08:11:26.843Z</time></trkpt><trkpt lat="43.9787825" lon="7.9404562"><ele>316.8</ele><time>2026-04-19T08:11:27.842Z</time></trkpt><trkpt lat="43.9787911" lon="7.9402954"><ele>315.2</ele><time>2026-04-19T08:11:28.843Z</time></trkpt><trkpt lat="43.9787987" lon="7.9401438"><ele>313.6</ele><time>2026-04-19T08:11:29.842Z</time></trkpt><trkpt lat="43.978801" lon="7.9399882"><ele>312.0</ele><time>2026-04-19T08:11:30.843Z</time></trkpt><trkpt lat="43.9788045" lon="7.9398376"><ele>311.0</ele><time>2026-04-19T08:11:31.842Z</time></trkpt><trkpt lat="43.9788121" lon="7.9397012"><ele>310.0</ele><time>2026-04-19T08:11:32.843Z</time></trkpt><trkpt lat="43.9788737" lon="7.9395663"><ele>309.0</ele><time>2026-04-19T08:11:33.842Z</time></trkpt><trkpt lat="43.9789251" lon="7.9394499"><ele>308.0</ele><time>2026-04-19T08:11:34.843Z</time></trkpt><trkpt lat="43.9789878" lon="7.9393399"><ele>307.0</ele><time>2026-04-19T08:11:35.842Z</time></trkpt><trkpt lat="43.9790483" lon="7.9392286"><ele>305.0</ele><time>2026-04-19T08:11:36.841Z</time></trkpt><trkpt lat="43.9790968" lon="7.9390967"><ele>303.0</ele><time>2026-04-19T08:11:37.842Z</time></trkpt><trkpt lat="43.9791377" lon="7.9389689"><ele>301.0</ele><time>2026-04-19T08:11:38.842Z</time></trkpt><trkpt lat="43.9791758" lon="7.9388494"><ele>299.0</ele><time>2026-04-19T08:11:39.842Z</time></trkpt><trkpt lat="43.9792019" lon="7.9387106"><ele>297.0</ele><time>2026-04-19T08:11:40.843Z</time></trkpt><trkpt lat="43.9792452" lon="7.9385783"><ele>305.0</ele><time>2026-04-19T08:11:41.843Z</time></trkpt><trkpt lat="43.9792856" lon="7.9384495"><ele>313.0</ele><time>2026-04-19T08:11:42.842Z</time></trkpt><trkpt lat="43.9793112" lon="7.9383225"><ele>321.0</ele><time>2026-04-19T08:11:43.843Z</time></trkpt><trkpt lat="43.9793369" lon="7.9381753"><ele>329.0</ele><time>2026-04-19T08:11:44.842Z</time></trkpt><trkpt lat="43.9793624" lon="7.9380478"><ele>337.0</ele><time>2026-04-19T08:11:45.843Z</time></trkpt><trkpt lat="43.9793859" lon="7.9379137"><ele>337.0</ele><time>2026-04-19T08:11:46.842Z</time></trkpt><trkpt lat="43.9794034" lon="7.9377752"><ele>337.0</ele><time>2026-04-19T08:11:47.842Z</time></trkpt><trkpt lat="43.9793936" lon="7.9376493"><ele>337.0</ele><time>2026-04-19T08:11:48.843Z</time></trkpt><trkpt lat="43.9794184" lon="7.9375179"><ele>337.0</ele><time>2026-04-19T08:11:49.843Z</time></trkpt><trkpt lat="43.9794422" lon="7.9373855"><ele>337.0</ele><time>2026-04-19T08:11:50.842Z</time></trkpt><trkpt lat="43.9794802" lon="7.9372602"><ele>335.20000000000005</ele><time>2026-04-19T08:11:51.842Z</time></trkpt><trkpt lat="43.9795439" lon="7.9371427"><ele>333.4</ele><time>2026-04-19T08:11:52.842Z</time></trkpt><trkpt lat="43.9796214" lon="7.9370484"><ele>331.6</ele><time>2026-04-19T08:11:53.842Z</time></trkpt><trkpt lat="43.9797282" lon="7.9370401"><ele>329.79999999999995</ele><time>2026-04-19T08:11:54.842Z</time></trkpt><trkpt lat="43.9798174" lon="7.9370074"><ele>328.0</ele><time>2026-04-19T08:11:55.842Z</time></trkpt><trkpt lat="43.9799017" lon="7.9369635"><ele>328.0</ele><time>2026-04-19T08:11:56.843Z</time></trkpt><trkpt lat="43.979994" lon="7.936925"><ele>328.0</ele><time>2026-04-19T08:11:57.841Z</time></trkpt><trkpt lat="43.980065" lon="7.9368582"><ele>328.0</ele><time>2026-04-19T08:11:58.843Z</time></trkpt><trkpt lat="43.9801424" lon="7.9368021"><ele>328.0</ele><time>2026-04-19T08:11:59.842Z</time></trkpt><trkpt lat="43.9802212" lon="7.9367683"><ele>328.0</ele><time>2026-04-19T08:12:00.842Z</time></trkpt><trkpt lat="43.9802903" lon="7.9367431"><ele>328.0</ele><time>2026-04-19T08:12:01.843Z</time></trkpt><trkpt lat="43.98036" lon="7.9367334"><ele>329.0</ele><time>2026-04-19T08:12:02.842Z</time></trkpt><trkpt lat="43.9804329" lon="7.9367538"><ele>330.0</ele><time>2026-04-19T08:12:03.843Z</time></trkpt><trkpt lat="43.9805392" lon="7.9366829"><ele>331.0</ele><time>2026-04-19T08:12:05.843Z</time></trkpt><trkpt lat="43.980493" lon="7.9365365"><ele>332.0</ele><time>2026-04-19T08:12:07.842Z</time></trkpt><trkpt lat="43.9804514" lon="7.9364509"><ele>333.0</ele><time>2026-04-19T08:12:08.842Z</time></trkpt><trkpt lat="43.9804022" lon="7.9363476"><ele>333.0</ele><time>2026-04-19T08:12:09.842Z</time></trkpt><trkpt lat="43.9803362" lon="7.9362583"><ele>333.0</ele><time>2026-04-19T08:12:10.843Z</time></trkpt><trkpt lat="43.9802703" lon="7.9361897"><ele>333.0</ele><time>2026-04-19T08:12:11.842Z</time></trkpt><trkpt lat="43.9801849" lon="7.9361428"><ele>333.0</ele><time>2026-04-19T08:12:12.843Z</time></trkpt><trkpt lat="43.9801002" lon="7.9361002"><ele>333.0</ele><time>2026-04-19T08:12:13.842Z</time></trkpt><trkpt lat="43.980033" lon="7.9360341"><ele>333.0</ele><time>2026-04-19T08:12:14.843Z</time></trkpt><trkpt lat="43.9799775" lon="7.935944"><ele>333.1666666666667</ele><time>2026-04-19T08:12:15.844Z</time></trkpt><trkpt lat="43.9799216" lon="7.9358359"><ele>333.3333333333333</ele><time>2026-04-19T08:12:16.842Z</time></trkpt><trkpt lat="43.979918" lon="7.9357366"><ele>333.5</ele><time>2026-04-19T08:12:17.843Z</time></trkpt><trkpt lat="43.9799298" lon="7.9356229"><ele>333.66666666666663</ele><time>2026-04-19T08:12:18.842Z</time></trkpt><trkpt lat="43.9799837" lon="7.9355254"><ele>333.8333333333333</ele><time>2026-04-19T08:12:19.842Z</time></trkpt><trkpt lat="43.9800197" lon="7.935413"><ele>334.0</ele><time>2026-04-19T08:12:20.842Z</time></trkpt><trkpt lat="43.980115" lon="7.9353361"><ele>334.0</ele><time>2026-04-19T08:12:21.843Z</time></trkpt><trkpt lat="43.980207" lon="7.9352885"><ele>334.0</ele><time>2026-04-19T08:12:22.843Z</time></trkpt><trkpt lat="43.9803047" lon="7.9352525"><ele>334.0</ele><time>2026-04-19T08:12:23.842Z</time></trkpt><trkpt lat="43.9803997" lon="7.9352188"><ele>334.0</ele><time>2026-04-19T08:12:24.842Z</time></trkpt><trkpt lat="43.9804866" lon="7.9351974"><ele>334.0</ele><time>2026-04-19T08:12:25.843Z</time></trkpt><trkpt lat="43.9805789" lon="7.9351518"><ele>334.0</ele><time>2026-04-19T08:12:26.842Z</time></trkpt><trkpt lat="43.9806551" lon="7.9350817"><ele>334.0</ele><time>2026-04-19T08:12:27.841Z</time></trkpt><trkpt lat="43.980712" lon="7.934981"><ele>334.0</ele><time>2026-04-19T08:12:28.841Z</time></trkpt><trkpt lat="43.9807365" lon="7.934862"><ele>334.0</ele><time>2026-04-19T08:12:29.841Z</time></trkpt><trkpt lat="43.9807485" lon="7.9347297"><ele>334.0</ele><time>2026-04-19T08:12:30.842Z</time></trkpt><trkpt lat="43.9807139" lon="7.9345906"><ele>334.0</ele><time>2026-04-19T08:12:31.842Z</time></trkpt><trkpt lat="43.9806686" lon="7.9344568"><ele>334.0</ele><time>2026-04-19T08:12:32.842Z</time></trkpt><trkpt lat="43.9806299" lon="7.9343071"><ele>334.0</ele><time>2026-04-19T08:12:33.841Z</time></trkpt><trkpt lat="43.9806087" lon="7.9341811"><ele>334.0</ele><time>2026-04-19T08:12:34.842Z</time></trkpt><trkpt lat="43.9806229" lon="7.9340601"><ele>334.0</ele><time>2026-04-19T08:12:35.842Z</time></trkpt><trkpt lat="43.9806468" lon="7.9339515"><ele>334.8333333333333</ele><time>2026-04-19T08:12:36.843Z</time></trkpt><trkpt lat="43.9807326" lon="7.9338702"><ele>335.66666666666663</ele><time>2026-04-19T08:12:37.842Z</time></trkpt><trkpt lat="43.9808059" lon="7.9337859"><ele>336.5</ele><time>2026-04-19T08:12:38.842Z</time></trkpt><trkpt lat="43.9808683" lon="7.9336998"><ele>337.3333333333333</ele><time>2026-04-19T08:12:39.842Z</time></trkpt><trkpt lat="43.980923" lon="7.9336155"><ele>338.1666666666667</ele><time>2026-04-19T08:12:40.843Z</time></trkpt><trkpt lat="43.9809646" lon="7.9335275"><ele>339.0</ele><time>2026-04-19T08:12:41.842Z</time></trkpt><trkpt lat="43.9809714" lon="7.9334332"><ele>340.5</ele><time>2026-04-19T08:12:42.841Z</time></trkpt><trkpt lat="43.9809451" lon="7.9333513"><ele>342.0</ele><time>2026-04-19T08:12:43.842Z</time></trkpt><trkpt lat="43.9808872" lon="7.9332825"><ele>343.5</ele><time>2026-04-19T08:12:44.843Z</time></trkpt><trkpt lat="43.9808157" lon="7.9332532"><ele>345.0</ele><time>2026-04-19T08:12:45.842Z</time></trkpt><trkpt lat="43.9807238" lon="7.9332839"><ele>346.5</ele><time>2026-04-19T08:12:46.843Z</time></trkpt><trkpt lat="43.9806394" lon="7.933291"><ele>348.0</ele><time>2026-04-19T08:12:47.843Z</time></trkpt><trkpt lat="43.9805567" lon="7.9332818"><ele>348.0</ele><time>2026-04-19T08:12:48.842Z</time></trkpt><trkpt lat="43.9804752" lon="7.9332246"><ele>348.0</ele><time>2026-04-19T08:12:49.843Z</time></trkpt><trkpt lat="43.9804024" lon="7.9331442"><ele>348.0</ele><time>2026-04-19T08:12:50.842Z</time></trkpt><trkpt lat="43.9803357" lon="7.9330574"><ele>348.0</ele><time>2026-04-19T08:12:51.841Z</time></trkpt><trkpt lat="43.980261" lon="7.932952"><ele>348.0</ele><time>2026-04-19T08:12:52.843Z</time></trkpt><trkpt lat="43.9801992" lon="7.9328264"><ele>348.0</ele><time>2026-04-19T08:12:53.842Z</time></trkpt><trkpt lat="43.9801563" lon="7.9327057"><ele>348.0</ele><time>2026-04-19T08:12:54.842Z</time></trkpt><trkpt lat="43.9801207" lon="7.9325578"><ele>348.0</ele><time>2026-04-19T08:12:55.842Z</time></trkpt><trkpt lat="43.9801116" lon="7.9324296"><ele>348.0</ele><time>2026-04-19T08:12:56.842Z</time></trkpt><trkpt lat="43.98012" lon="7.9322902"><ele>348.0</ele><time>2026-04-19T08:12:57.842Z</time></trkpt><trkpt lat="43.9801513" lon="7.9321549"><ele>351.2</ele><time>2026-04-19T08:12:58.841Z</time></trkpt><trkpt lat="43.9801858" lon="7.9320167"><ele>354.4</ele><time>2026-04-19T08:12:59.842Z</time></trkpt><trkpt lat="43.9801993" lon="7.9318768"><ele>357.59999999999997</ele><time>2026-04-19T08:13:00.843Z</time></trkpt><trkpt lat="43.9801929" lon="7.9317307"><ele>360.79999999999995</ele><time>2026-04-19T08:13:01.842Z</time></trkpt><trkpt lat="43.9802013" lon="7.9315905"><ele>364.0</ele><time>2026-04-19T08:13:02.843Z</time></trkpt><trkpt lat="43.9802655" lon="7.9314814"><ele>365.2</ele><time>2026-04-19T08:13:03.842Z</time></trkpt><trkpt lat="43.9803257" lon="7.9313935"><ele>366.4</ele><time>2026-04-19T08:13:04.842Z</time></trkpt><trkpt lat="43.9804091" lon="7.9313082"><ele>367.6</ele><time>2026-04-19T08:13:05.842Z</time></trkpt><trkpt lat="43.9805015" lon="7.9312208"><ele>368.8</ele><time>2026-04-19T08:13:06.843Z</time></trkpt><trkpt lat="43.9805959" lon="7.9311344"><ele>370.0</ele><time>2026-04-19T08:13:07.844Z</time></trkpt><trkpt lat="43.9806806" lon="7.9310327"><ele>370.0</ele><time>2026-04-19T08:13:08.843Z</time></trkpt><trkpt lat="43.9807546" lon="7.9309176"><ele>370.0</ele><time>2026-04-19T08:13:09.844Z</time></trkpt><trkpt lat="43.980821" lon="7.9307947"><ele>370.0</ele><time>2026-04-19T08:13:10.843Z</time></trkpt><trkpt lat="43.9808847" lon="7.9306795"><ele>370.0</ele><time>2026-04-19T08:13:11.843Z</time></trkpt><trkpt lat="43.9809234" lon="7.9305658"><ele>370.0</ele><time>2026-04-19T08:13:12.842Z</time></trkpt><trkpt lat="43.980922" lon="7.9304536"><ele>369.0</ele><time>2026-04-19T08:13:13.842Z</time></trkpt><trkpt lat="43.9808873" lon="7.9303558"><ele>368.0</ele><time>2026-04-19T08:13:14.842Z</time></trkpt><trkpt lat="43.980821" lon="7.930292"><ele>367.0</ele><time>2026-04-19T08:13:15.844Z</time></trkpt><trkpt lat="43.9807301" lon="7.9302614"><ele>366.0</ele><time>2026-04-19T08:13:16.843Z</time></trkpt><trkpt lat="43.9806298" lon="7.9302613"><ele>365.0</ele><time>2026-04-19T08:13:17.842Z</time></trkpt><trkpt lat="43.9805219" lon="7.9302847"><ele>365.0</ele><time>2026-04-19T08:13:18.842Z</time></trkpt><trkpt lat="43.9804209" lon="7.9303006"><ele>365.0</ele><time>2026-04-19T08:13:19.842Z</time></trkpt><trkpt lat="43.9803245" lon="7.9302995"><ele>365.0</ele><time>2026-04-19T08:13:20.842Z</time></trkpt><trkpt lat="43.9802416" lon="7.9302472"><ele>365.0</ele><time>2026-04-19T08:13:21.843Z</time></trkpt><trkpt lat="43.9801975" lon="7.9301843"><ele>365.0</ele><time>2026-04-19T08:13:22.842Z</time></trkpt><trkpt lat="43.9801944" lon="7.9300914"><ele>365.0</ele><time>2026-04-19T08:13:23.842Z</time></trkpt><trkpt lat="43.9802244" lon="7.9299985"><ele>366.2</ele><time>2026-04-19T08:13:24.842Z</time></trkpt><trkpt lat="43.9802684" lon="7.9299037"><ele>367.4</ele><time>2026-04-19T08:13:25.843Z</time></trkpt><trkpt lat="43.9803143" lon="7.9297969"><ele>368.6</ele><time>2026-04-19T08:13:26.842Z</time></trkpt><trkpt lat="43.9803552" lon="7.9296776"><ele>369.8</ele><time>2026-04-19T08:13:27.843Z</time></trkpt><trkpt lat="43.9803837" lon="7.9295396"><ele>371.0</ele><time>2026-04-19T08:13:28.841Z</time></trkpt><trkpt lat="43.9804156" lon="7.9293959"><ele>371.0</ele><time>2026-04-19T08:13:29.843Z</time></trkpt><trkpt lat="43.9804453" lon="7.9292396"><ele>371.0</ele><time>2026-04-19T08:13:30.842Z</time></trkpt><trkpt lat="43.9804447" lon="7.9290928"><ele>371.0</ele><time>2026-04-19T08:13:31.844Z</time></trkpt><trkpt lat="43.9804091" lon="7.9289383"><ele>371.0</ele><time>2026-04-19T08:13:32.842Z</time></trkpt><trkpt lat="43.9803558" lon="7.9287962"><ele>373.6</ele><time>2026-04-19T08:13:33.843Z</time></trkpt><trkpt lat="43.9802944" lon="7.9286534"><ele>376.20000000000005</ele><time>2026-04-19T08:13:34.843Z</time></trkpt><trkpt lat="43.9802401" lon="7.9285222"><ele>378.79999999999995</ele><time>2026-04-19T08:13:35.842Z</time></trkpt><trkpt lat="43.9801933" lon="7.9283861"><ele>381.4</ele><time>2026-04-19T08:13:36.843Z</time></trkpt><trkpt lat="43.9801965" lon="7.9282565"><ele>384.0</ele><time>2026-04-19T08:13:37.844Z</time></trkpt><trkpt lat="43.9802889" lon="7.9281551"><ele>385.4</ele><time>2026-04-19T08:13:38.841Z</time></trkpt><trkpt lat="43.9803496" lon="7.9280709"><ele>386.79999999999995</ele><time>2026-04-19T08:13:39.841Z</time></trkpt><trkpt lat="43.9804265" lon="7.9279659"><ele>388.20000000000005</ele><time>2026-04-19T08:13:40.843Z</time></trkpt><trkpt lat="43.9804823" lon="7.9278456"><ele>389.6</ele><time>2026-04-19T08:13:41.842Z</time></trkpt><trkpt lat="43.9805009" lon="7.9277065"><ele>391.0</ele><time>2026-04-19T08:13:42.842Z</time></trkpt><trkpt lat="43.980505" lon="7.9275598"><ele>391.4</ele><time>2026-04-19T08:13:43.842Z</time></trkpt><trkpt lat="43.9805093" lon="7.9274063"><ele>391.8</ele><time>2026-04-19T08:13:44.842Z</time></trkpt><trkpt lat="43.9805303" lon="7.9272555"><ele>392.2</ele><time>2026-04-19T08:13:45.842Z</time></trkpt><trkpt lat="43.9805631" lon="7.9271159"><ele>392.59999999999997</ele><time>2026-04-19T08:13:46.842Z</time></trkpt><trkpt lat="43.9806133" lon="7.9269862"><ele>393.0</ele><time>2026-04-19T08:13:47.843Z</time></trkpt><trkpt lat="43.9806735" lon="7.9268508"><ele>393.0</ele><time>2026-04-19T08:13:48.842Z</time></trkpt><trkpt lat="43.9807236" lon="7.9267284"><ele>393.0</ele><time>2026-04-19T08:13:49.841Z</time></trkpt><trkpt lat="43.9808412" lon="7.9266632"><ele>393.0</ele><time>2026-04-19T08:13:50.842Z</time></trkpt><trkpt lat="43.9809179" lon="7.9265636"><ele>393.0</ele><time>2026-04-19T08:13:51.842Z</time></trkpt><trkpt lat="43.980977" lon="7.9264375"><ele>393.0</ele><time>2026-04-19T08:13:52.842Z</time></trkpt><trkpt lat="43.9810383" lon="7.9263043"><ele>396.2</ele><time>2026-04-19T08:13:53.842Z</time></trkpt><trkpt lat="43.981086" lon="7.9261654"><ele>399.4</ele><time>2026-04-19T08:13:54.842Z</time></trkpt><trkpt lat="43.9811438" lon="7.9260452"><ele>402.59999999999997</ele><time>2026-04-19T08:13:55.843Z</time></trkpt><trkpt lat="43.9811783" lon="7.925924"><ele>405.79999999999995</ele><time>2026-04-19T08:13:56.842Z</time></trkpt><trkpt lat="43.9811827" lon="7.925788"><ele>409.0</ele><time>2026-04-19T08:13:57.842Z</time></trkpt><trkpt lat="43.9811776" lon="7.9256542"><ele>409.0</ele><time>2026-04-19T08:13:58.842Z</time></trkpt><trkpt lat="43.9811751" lon="7.9255252"><ele>409.0</ele><time>2026-04-19T08:13:59.842Z</time></trkpt><trkpt lat="43.9811745" lon="7.9254"><ele>409.0</ele><time>2026-04-19T08:14:00.843Z</time></trkpt><trkpt lat="43.981222" lon="7.9253003"><ele>409.0</ele><time>2026-04-19T08:14:01.842Z</time></trkpt><trkpt lat="43.9812979" lon="7.9251944"><ele>409.0</ele><time>2026-04-19T08:14:02.842Z</time></trkpt><trkpt lat="43.98137" lon="7.925105"><ele>408.2</ele><time>2026-04-19T08:14:03.843Z</time></trkpt><trkpt lat="43.9814579" lon="7.9250119"><ele>407.4</ele><time>2026-04-19T08:14:04.843Z</time></trkpt><trkpt lat="43.981536" lon="7.9249218"><ele>406.6</ele><time>2026-04-19T08:14:05.842Z</time></trkpt><trkpt lat="43.9815961" lon="7.9248117"><ele>405.8</ele><time>2026-04-19T08:14:06.842Z</time></trkpt><trkpt lat="43.9816508" lon="7.9246837"><ele>405.0</ele><time>2026-04-19T08:14:07.843Z</time></trkpt><trkpt lat="43.9816998" lon="7.9245521"><ele>409.0</ele><time>2026-04-19T08:14:08.842Z</time></trkpt><trkpt lat="43.9817488" lon="7.9244113"><ele>413.0</ele><time>2026-04-19T08:14:09.842Z</time></trkpt><trkpt lat="43.9817897" lon="7.9242656"><ele>417.0</ele><time>2026-04-19T08:14:10.842Z</time></trkpt><trkpt lat="43.9818466" lon="7.9241439"><ele>421.0</ele><time>2026-04-19T08:14:11.841Z</time></trkpt><trkpt lat="43.9818906" lon="7.9240316"><ele>425.0</ele><time>2026-04-19T08:14:12.842Z</time></trkpt><trkpt lat="43.9819343" lon="7.9239585"><ele>424.99999999999994</ele><time>2026-04-19T08:14:13.841Z</time></trkpt><trkpt lat="43.9819991" lon="7.9239587"><ele>425.0</ele><time>2026-04-19T08:14:15.842Z</time></trkpt><trkpt lat="43.9819616" lon="7.9240982"><ele>425.0</ele><time>2026-04-19T08:14:18.843Z</time></trkpt><trkpt lat="43.9819319" lon="7.9241759"><ele>425.0</ele><time>2026-04-19T08:14:19.842Z</time></trkpt><trkpt lat="43.9818965" lon="7.9242682"><ele>424.99999999999994</ele><time>2026-04-19T08:14:20.843Z</time></trkpt><trkpt lat="43.9818688" lon="7.9243721"><ele>425.0</ele><time>2026-04-19T08:14:21.842Z</time></trkpt><trkpt lat="43.9818419" lon="7.9244828"><ele>427.2</ele><time>2026-04-19T08:14:22.843Z</time></trkpt><trkpt lat="43.9818169" lon="7.9246107"><ele>429.4</ele><time>2026-04-19T08:14:23.842Z</time></trkpt><trkpt lat="43.9817877" lon="7.9247328"><ele>431.6</ele><time>2026-04-19T08:14:24.843Z</time></trkpt><trkpt lat="43.9817532" lon="7.9248538"><ele>433.8</ele><time>2026-04-19T08:14:25.843Z</time></trkpt><trkpt lat="43.9817162" lon="7.9249636"><ele>436.0</ele><time>2026-04-19T08:14:26.844Z</time></trkpt><trkpt lat="43.9816847" lon="7.9251221"><ele>436.00000000000006</ele><time>2026-04-19T08:14:28.843Z</time></trkpt><trkpt lat="43.9817482" lon="7.9251637"><ele>436.0</ele><time>2026-04-19T08:14:30.842Z</time></trkpt><trkpt lat="43.9818282" lon="7.9250651"><ele>436.0</ele><time>2026-04-19T08:14:32.842Z</time></trkpt><trkpt lat="43.9818658" lon="7.9249871"><ele>436.0</ele><time>2026-04-19T08:14:33.842Z</time></trkpt><trkpt lat="43.9819003" lon="7.9248977"><ele>436.00000000000006</ele><time>2026-04-19T08:14:34.842Z</time></trkpt><trkpt lat="43.9819398" lon="7.9247944"><ele>436.0</ele><time>2026-04-19T08:14:35.842Z</time></trkpt><trkpt lat="43.9819821" lon="7.9246897"><ele>436.0</ele><time>2026-04-19T08:14:36.842Z</time></trkpt><trkpt lat="43.9820145" lon="7.924571"><ele>436.0</ele><time>2026-04-19T08:14:37.842Z</time></trkpt><trkpt lat="43.9820563" lon="7.9244605"><ele>436.0</ele><time>2026-04-19T08:14:38.841Z</time></trkpt><trkpt lat="43.9820918" lon="7.9243579"><ele>436.0</ele><time>2026-04-19T08:14:39.843Z</time></trkpt><trkpt lat="43.9821673" lon="7.9242723"><ele>436.0</ele><time>2026-04-19T08:14:40.842Z</time></trkpt><trkpt lat="43.9822404" lon="7.9241966"><ele>433.8</ele><time>2026-04-19T08:14:41.842Z</time></trkpt><trkpt lat="43.9823113" lon="7.9241211"><ele>431.6</ele><time>2026-04-19T08:14:42.843Z</time></trkpt><trkpt lat="43.9823803" lon="7.9240323"><ele>429.4</ele><time>2026-04-19T08:14:43.842Z</time></trkpt><trkpt lat="43.9824277" lon="7.9239246"><ele>427.2</ele><time>2026-04-19T08:14:44.843Z</time></trkpt><trkpt lat="43.9824483" lon="7.9237996"><ele>425.0</ele><time>2026-04-19T08:14:45.843Z</time></trkpt><trkpt lat="43.982455" lon="7.9236715"><ele>425.0</ele><time>2026-04-19T08:14:46.843Z</time></trkpt><trkpt lat="43.9824525" lon="7.9235254"><ele>425.0</ele><time>2026-04-19T08:14:47.842Z</time></trkpt><trkpt lat="43.9824612" lon="7.9233865"><ele>425.0</ele><time>2026-04-19T08:14:48.842Z</time></trkpt><trkpt lat="43.9824738" lon="7.9232468"><ele>425.0</ele><time>2026-04-19T08:14:49.842Z</time></trkpt><trkpt lat="43.9824907" lon="7.9231169"><ele>425.0</ele><time>2026-04-19T08:14:50.841Z</time></trkpt><trkpt lat="43.982517" lon="7.9229925"><ele>429.16666666666663</ele><time>2026-04-19T08:14:51.842Z</time></trkpt><trkpt lat="43.9825547" lon="7.9228798"><ele>433.3333333333333</ele><time>2026-04-19T08:14:52.841Z</time></trkpt><trkpt lat="43.9825952" lon="7.9227645"><ele>437.5</ele><time>2026-04-19T08:14:53.842Z</time></trkpt><trkpt lat="43.9826339" lon="7.9226625"><ele>441.66666666666663</ele><time>2026-04-19T08:14:54.842Z</time></trkpt><trkpt lat="43.9826686" lon="7.922554"><ele>445.8333333333333</ele><time>2026-04-19T08:14:55.842Z</time></trkpt><trkpt lat="43.9826772" lon="7.9224468"><ele>450.0</ele><time>2026-04-19T08:14:56.842Z</time></trkpt><trkpt lat="43.9826579" lon="7.9223509"><ele>450.0</ele><time>2026-04-19T08:14:57.841Z</time></trkpt><trkpt lat="43.9826386" lon="7.9222328"><ele>450.0</ele><time>2026-04-19T08:14:58.841Z</time></trkpt><trkpt lat="43.9825529" lon="7.9222187"><ele>450.0</ele><time>2026-04-19T08:14:59.841Z</time></trkpt><trkpt lat="43.9824825" lon="7.922213"><ele>450.0</ele><time>2026-04-19T08:15:00.843Z</time></trkpt><trkpt lat="43.9824093" lon="7.9222253"><ele>450.0</ele><time>2026-04-19T08:15:01.842Z</time></trkpt><trkpt lat="43.9823324" lon="7.9222351"><ele>450.0</ele><time>2026-04-19T08:15:02.841Z</time></trkpt><trkpt lat="43.982252" lon="7.9222097"><ele>445.6</ele><time>2026-04-19T08:15:03.841Z</time></trkpt><trkpt lat="43.982164" lon="7.9221784"><ele>441.2</ele><time>2026-04-19T08:15:04.842Z</time></trkpt><trkpt lat="43.9820736" lon="7.9221479"><ele>436.79999999999995</ele><time>2026-04-19T08:15:05.843Z</time></trkpt><trkpt lat="43.9819801" lon="7.9221074"><ele>432.4</ele><time>2026-04-19T08:15:06.842Z</time></trkpt><trkpt lat="43.9818827" lon="7.922079"><ele>428.0</ele><time>2026-04-19T08:15:07.841Z</time></trkpt><trkpt lat="43.9818092" lon="7.9220518"><ele>427.99999999999994</ele><time>2026-04-19T08:15:08.842Z</time></trkpt><trkpt lat="43.9817267" lon="7.9220273"><ele>428.0</ele><time>2026-04-19T08:15:09.842Z</time></trkpt><trkpt lat="43.981653" lon="7.9220144"><ele>428.0</ele><time>2026-04-19T08:15:10.842Z</time></trkpt><trkpt lat="43.9815726" lon="7.9219842"><ele>428.0</ele><time>2026-04-19T08:15:11.842Z</time></trkpt><trkpt lat="43.9814849" lon="7.9219691"><ele>427.99999999999994</ele><time>2026-04-19T08:15:12.842Z</time></trkpt><trkpt lat="43.9813873" lon="7.9219386"><ele>428.0</ele><time>2026-04-19T08:15:13.842Z</time></trkpt><trkpt lat="43.9812874" lon="7.921915"><ele>426.16666666666663</ele><time>2026-04-19T08:15:14.842Z</time></trkpt><trkpt lat="43.9811912" lon="7.9218895"><ele>424.3333333333333</ele><time>2026-04-19T08:15:15.843Z</time></trkpt><trkpt lat="43.9810943" lon="7.9219076"><ele>422.5</ele><time>2026-04-19T08:15:16.841Z</time></trkpt><trkpt lat="43.9810173" lon="7.9219199"><ele>420.66666666666663</ele><time>2026-04-19T08:15:17.841Z</time></trkpt><trkpt lat="43.9809451" lon="7.9219319"><ele>418.8333333333333</ele><time>2026-04-19T08:15:18.842Z</time></trkpt><trkpt lat="43.980879" lon="7.9219585"><ele>417.0</ele><time>2026-04-19T08:15:19.841Z</time></trkpt><trkpt lat="43.9808153" lon="7.9219911"><ele>415.8</ele><time>2026-04-19T08:15:20.843Z</time></trkpt><trkpt lat="43.9807427" lon="7.9219833"><ele>414.6</ele><time>2026-04-19T08:15:22.843Z</time></trkpt><trkpt lat="43.9807135" lon="7.9218459"><ele>413.40000000000003</ele><time>2026-04-19T08:15:24.842Z</time></trkpt><trkpt lat="43.9807121" lon="7.9217102"><ele>412.20000000000005</ele><time>2026-04-19T08:15:26.843Z</time></trkpt><trkpt lat="43.98075" lon="7.9215723"><ele>411.0</ele><time>2026-04-19T08:15:27.842Z</time></trkpt><trkpt lat="43.9807789" lon="7.9214696"><ele>414.0</ele><time>2026-04-19T08:15:28.843Z</time></trkpt><trkpt lat="43.9808223" lon="7.9213521"><ele>417.0</ele><time>2026-04-19T08:15:29.842Z</time></trkpt><trkpt lat="43.9808591" lon="7.9212405"><ele>420.0</ele><time>2026-04-19T08:15:30.842Z</time></trkpt><trkpt lat="43.9809033" lon="7.921141"><ele>423.0</ele><time>2026-04-19T08:15:31.842Z</time></trkpt><trkpt lat="43.9809488" lon="7.9210531"><ele>426.0</ele><time>2026-04-19T08:15:32.843Z</time></trkpt><trkpt lat="43.9810078" lon="7.9209862"><ele>429.0</ele><time>2026-04-19T08:15:33.842Z</time></trkpt><trkpt lat="43.9810892" lon="7.9209529"><ele>430.2</ele><time>2026-04-19T08:15:34.842Z</time></trkpt><trkpt lat="43.981166" lon="7.9209139"><ele>431.4</ele><time>2026-04-19T08:15:35.842Z</time></trkpt><trkpt lat="43.9812304" lon="7.9208639"><ele>432.6</ele><time>2026-04-19T08:15:36.843Z</time></trkpt><trkpt lat="43.9812961" lon="7.9208433"><ele>433.8</ele><time>2026-04-19T08:15:37.843Z</time></trkpt><trkpt lat="43.9814165" lon="7.9208427"><ele>435.0</ele><time>2026-04-19T08:15:39.843Z</time></trkpt><trkpt lat="43.9815178" lon="7.9209757"><ele>435.0</ele><time>2026-04-19T08:15:40.842Z</time></trkpt><trkpt lat="43.9816057" lon="7.9210236"><ele>435.0</ele><time>2026-04-19T08:15:41.843Z</time></trkpt><trkpt lat="43.9816863" lon="7.9210771"><ele>435.0</ele><time>2026-04-19T08:15:42.842Z</time></trkpt><trkpt lat="43.9817531" lon="7.9211145"><ele>435.0</ele><time>2026-04-19T08:15:43.842Z</time></trkpt><trkpt lat="43.9818142" lon="7.9211398"><ele>435.0</ele><time>2026-04-19T08:15:44.843Z</time></trkpt><trkpt lat="43.9818739" lon="7.9211965"><ele>435.0</ele><time>2026-04-19T08:15:53.842Z</time></trkpt><trkpt lat="43.9819795" lon="7.9211891"><ele>436.00000000000006</ele><time>2026-04-19T08:15:56.842Z</time></trkpt><trkpt lat="43.9820433" lon="7.9211609"><ele>437.0</ele><time>2026-04-19T08:15:57.842Z</time></trkpt><trkpt lat="43.9821071" lon="7.9211227"><ele>438.0</ele><time>2026-04-19T08:15:58.843Z</time></trkpt><trkpt lat="43.982168" lon="7.9210832"><ele>439.0</ele><time>2026-04-19T08:15:59.841Z</time></trkpt><trkpt lat="43.982247" lon="7.9210829"><ele>440.0</ele><time>2026-04-19T08:16:00.842Z</time></trkpt><trkpt lat="43.9823261" lon="7.9210962"><ele>441.00000000000006</ele><time>2026-04-19T08:16:01.842Z</time></trkpt><trkpt lat="43.9824084" lon="7.9211188"><ele>442.0</ele><time>2026-04-19T08:16:02.843Z</time></trkpt><trkpt lat="43.9824928" lon="7.9211452"><ele>443.6666666666667</ele><time>2026-04-19T08:16:03.841Z</time></trkpt><trkpt lat="43.9825837" lon="7.921163"><ele>445.33333333333337</ele><time>2026-04-19T08:16:04.842Z</time></trkpt><trkpt lat="43.9826627" lon="7.9211815"><ele>447.0</ele><time>2026-04-19T08:16:05.842Z</time></trkpt><trkpt lat="43.9827461" lon="7.9211624"><ele>448.66666666666663</ele><time>2026-04-19T08:16:06.841Z</time></trkpt><trkpt lat="43.9828298" lon="7.9211095"><ele>450.3333333333333</ele><time>2026-04-19T08:16:07.842Z</time></trkpt><trkpt lat="43.9828985" lon="7.9210315"><ele>452.0</ele><time>2026-04-19T08:16:08.842Z</time></trkpt><trkpt lat="43.9829606" lon="7.9209654"><ele>452.0</ele><time>2026-04-19T08:16:09.843Z</time></trkpt><trkpt lat="43.9830754" lon="7.920992"><ele>452.00000000000006</ele><time>2026-04-19T08:16:11.843Z</time></trkpt><trkpt lat="43.9831702" lon="7.9211003"><ele>452.00000000000006</ele><time>2026-04-19T08:16:13.842Z</time></trkpt><trkpt lat="43.9831797" lon="7.9212121"><ele>452.0</ele><time>2026-04-19T08:16:14.842Z</time></trkpt><trkpt lat="43.9832129" lon="7.9212919"><ele>452.0</ele><time>2026-04-19T08:16:15.842Z</time></trkpt><trkpt lat="43.9832989" lon="7.9214347"><ele>452.0</ele><time>2026-04-19T08:16:17.843Z</time></trkpt><trkpt lat="43.9833355" lon="7.921512"><ele>452.00000000000006</ele><time>2026-04-19T08:16:18.842Z</time></trkpt><trkpt lat="43.9834149" lon="7.9216386"><ele>452.00000000000006</ele><time>2026-04-19T08:16:20.842Z</time></trkpt><trkpt lat="43.9834895" lon="7.9217796"><ele>452.0</ele><time>2026-04-19T08:16:22.842Z</time></trkpt><trkpt lat="43.9835329" lon="7.9218628"><ele>452.0</ele><time>2026-04-19T08:16:23.842Z</time></trkpt><trkpt lat="43.9835722" lon="7.9219411"><ele>457.20000000000005</ele><time>2026-04-19T08:16:24.842Z</time></trkpt><trkpt lat="43.9836057" lon="7.9220352"><ele>462.40000000000003</ele><time>2026-04-19T08:16:25.842Z</time></trkpt><trkpt lat="43.9836297" lon="7.9221215"><ele>467.59999999999997</ele><time>2026-04-19T08:16:26.842Z</time></trkpt><trkpt lat="43.9836409" lon="7.922284"><ele>472.79999999999995</ele><time>2026-04-19T08:16:28.842Z</time></trkpt><trkpt lat="43.983646" lon="7.9224569"><ele>478.0</ele><time>2026-04-19T08:16:30.842Z</time></trkpt><trkpt lat="43.983651" lon="7.9225508"><ele>479.6666666666667</ele><time>2026-04-19T08:16:31.842Z</time></trkpt><trkpt lat="43.9836346" lon="7.9226468"><ele>481.33333333333337</ele><time>2026-04-19T08:16:32.842Z</time></trkpt><trkpt lat="43.9836093" lon="7.9227284"><ele>483.0</ele><time>2026-04-19T08:16:33.843Z</time></trkpt><trkpt lat="43.9835583" lon="7.9228756"><ele>484.66666666666663</ele><time>2026-04-19T08:16:35.842Z</time></trkpt><trkpt lat="43.9835399" lon="7.9229679"><ele>486.3333333333333</ele><time>2026-04-19T08:16:36.842Z</time></trkpt><trkpt lat="43.9835175" lon="7.9230631"><ele>488.0</ele><time>2026-04-19T08:16:37.842Z</time></trkpt><trkpt lat="43.983499" lon="7.923165"><ele>487.99999999999994</ele><time>2026-04-19T08:16:38.842Z</time></trkpt><trkpt lat="43.9834748" lon="7.92326"><ele>488.0</ele><time>2026-04-19T08:16:39.841Z</time></trkpt><trkpt lat="43.983457" lon="7.9233455"><ele>488.0</ele><time>2026-04-19T08:16:40.844Z</time></trkpt><trkpt lat="43.9834349" lon="7.9235071"><ele>488.0</ele><time>2026-04-19T08:16:42.841Z</time></trkpt><trkpt lat="43.9834304" lon="7.9235977"><ele>487.99999999999994</ele><time>2026-04-19T08:16:43.841Z</time></trkpt><trkpt lat="43.9834405" lon="7.9236945"><ele>488.0</ele><time>2026-04-19T08:16:44.842Z</time></trkpt><trkpt lat="43.9834599" lon="7.9237958"><ele>488.99999999999994</ele><time>2026-04-19T08:16:45.842Z</time></trkpt><trkpt lat="43.9834856" lon="7.923902"><ele>490.0</ele><time>2026-04-19T08:16:46.842Z</time></trkpt><trkpt lat="43.983506" lon="7.9240071"><ele>491.0</ele><time>2026-04-19T08:16:47.843Z</time></trkpt><trkpt lat="43.9835301" lon="7.9241197"><ele>492.0</ele><time>2026-04-19T08:16:48.842Z</time></trkpt><trkpt lat="43.9835484" lon="7.9242346"><ele>492.99999999999994</ele><time>2026-04-19T08:16:49.843Z</time></trkpt><trkpt lat="43.9835561" lon="7.9243528"><ele>494.0</ele><time>2026-04-19T08:16:50.841Z</time></trkpt><trkpt lat="43.9835537" lon="7.924475"><ele>496.4</ele><time>2026-04-19T08:16:51.841Z</time></trkpt><trkpt lat="43.9835404" lon="7.9245994"><ele>498.79999999999995</ele><time>2026-04-19T08:16:52.841Z</time></trkpt><trkpt lat="43.9835174" lon="7.924717"><ele>501.20000000000005</ele><time>2026-04-19T08:16:53.842Z</time></trkpt><trkpt lat="43.9834932" lon="7.9248416"><ele>503.6</ele><time>2026-04-19T08:16:54.841Z</time></trkpt><trkpt lat="43.9834721" lon="7.9249743"><ele>506.0</ele><time>2026-04-19T08:16:55.843Z</time></trkpt><trkpt lat="43.9834658" lon="7.9251047"><ele>507.20000000000005</ele><time>2026-04-19T08:16:56.842Z</time></trkpt><trkpt lat="43.983465" lon="7.9252351"><ele>508.40000000000003</ele><time>2026-04-19T08:16:57.841Z</time></trkpt><trkpt lat="43.9834598" lon="7.9253744"><ele>509.6</ele><time>2026-04-19T08:16:58.842Z</time></trkpt><trkpt lat="43.9834511" lon="7.9255073"><ele>510.8</ele><time>2026-04-19T08:16:59.843Z</time></trkpt><trkpt lat="43.9834292" lon="7.9256345"><ele>512.0</ele><time>2026-04-19T08:17:00.843Z</time></trkpt><trkpt lat="43.9834033" lon="7.9257666"><ele>512.0</ele><time>2026-04-19T08:17:01.843Z</time></trkpt><trkpt lat="43.9833702" lon="7.9258893"><ele>512.0</ele><time>2026-04-19T08:17:02.842Z</time></trkpt><trkpt lat="43.9833365" lon="7.9260262"><ele>512.0</ele><time>2026-04-19T08:17:03.842Z</time></trkpt><trkpt lat="43.9833072" lon="7.9261615"><ele>512.0</ele><time>2026-04-19T08:17:04.843Z</time></trkpt><trkpt lat="43.9832754" lon="7.9262969"><ele>512.0</ele><time>2026-04-19T08:17:05.842Z</time></trkpt><trkpt lat="43.9832564" lon="7.9264442"><ele>507.0</ele><time>2026-04-19T08:17:06.843Z</time></trkpt><trkpt lat="43.9832277" lon="7.9265781"><ele>502.00000000000006</ele><time>2026-04-19T08:17:07.843Z</time></trkpt><trkpt lat="43.9831945" lon="7.9267091"><ele>497.00000000000006</ele><time>2026-04-19T08:17:08.842Z</time></trkpt><trkpt lat="43.9831529" lon="7.9268345"><ele>492.0</ele><time>2026-04-19T08:17:09.842Z</time></trkpt><trkpt lat="43.9831048" lon="7.9269462"><ele>487.0</ele><time>2026-04-19T08:17:10.842Z</time></trkpt><trkpt lat="43.9830577" lon="7.9270504"><ele>486.83333333333337</ele><time>2026-04-19T08:17:11.843Z</time></trkpt><trkpt lat="43.9830137" lon="7.9271477"><ele>486.6666666666667</ele><time>2026-04-19T08:17:12.843Z</time></trkpt><trkpt lat="43.9829826" lon="7.927256"><ele>486.5</ele><time>2026-04-19T08:17:13.843Z</time></trkpt><trkpt lat="43.9829768" lon="7.9273624"><ele>486.33333333333337</ele><time>2026-04-19T08:17:14.841Z</time></trkpt><trkpt lat="43.9829928" lon="7.9274548"><ele>486.1666666666667</ele><time>2026-04-19T08:17:15.842Z</time></trkpt><trkpt lat="43.9830299" lon="7.9275268"><ele>486.0</ele><time>2026-04-19T08:17:16.842Z</time></trkpt><trkpt lat="43.9831334" lon="7.9275687"><ele>486.0</ele><time>2026-04-19T08:17:18.841Z</time></trkpt><trkpt lat="43.9832198" lon="7.9274578"><ele>486.0</ele><time>2026-04-19T08:17:20.841Z</time></trkpt><trkpt lat="43.9832571" lon="7.9273764"><ele>486.0</ele><time>2026-04-19T08:17:21.842Z</time></trkpt><trkpt lat="43.9833025" lon="7.9272949"><ele>486.0</ele><time>2026-04-19T08:17:22.842Z</time></trkpt><trkpt lat="43.9833433" lon="7.9271994"><ele>486.0</ele><time>2026-04-19T08:17:23.841Z</time></trkpt><trkpt lat="43.9833875" lon="7.927101"><ele>486.0</ele><time>2026-04-19T08:17:24.843Z</time></trkpt><trkpt lat="43.9834419" lon="7.9270081"><ele>487.0</ele><time>2026-04-19T08:17:25.842Z</time></trkpt><trkpt lat="43.9834902" lon="7.9269399"><ele>488.0</ele><time>2026-04-19T08:17:26.841Z</time></trkpt><trkpt lat="43.983543" lon="7.9268568"><ele>489.0</ele><time>2026-04-19T08:17:27.842Z</time></trkpt><trkpt lat="43.9835955" lon="7.9267804"><ele>490.0</ele><time>2026-04-19T08:17:28.842Z</time></trkpt><trkpt lat="43.9836508" lon="7.9267372"><ele>491.0</ele><time>2026-04-19T08:17:29.841Z</time></trkpt><trkpt lat="43.9837501" lon="7.9267058"><ele>492.0</ele><time>2026-04-19T08:17:31.841Z</time></trkpt><trkpt lat="43.9838265" lon="7.9266955"><ele>492.0</ele><time>2026-04-19T08:17:32.842Z</time></trkpt><trkpt lat="43.9838895" lon="7.9266967"><ele>492.0</ele><time>2026-04-19T08:17:33.842Z</time></trkpt><trkpt lat="43.9840154" lon="7.9267518"><ele>492.0</ele><time>2026-04-19T08:17:35.842Z</time></trkpt><trkpt lat="43.9840844" lon="7.9267932"><ele>492.0</ele><time>2026-04-19T08:17:36.842Z</time></trkpt><trkpt lat="43.9841493" lon="7.9268294"><ele>492.0</ele><time>2026-04-19T08:17:37.843Z</time></trkpt><trkpt lat="43.9842265" lon="7.9268787"><ele>492.0</ele><time>2026-04-19T08:17:38.842Z</time></trkpt><trkpt lat="43.9843041" lon="7.9269125"><ele>495.3333333333333</ele><time>2026-04-19T08:17:39.842Z</time></trkpt><trkpt lat="43.9843817" lon="7.9269496"><ele>498.66666666666663</ele><time>2026-04-19T08:17:40.842Z</time></trkpt><trkpt lat="43.9844599" lon="7.9269943"><ele>502.0</ele><time>2026-04-19T08:17:41.842Z</time></trkpt><trkpt lat="43.9845437" lon="7.927025"><ele>505.3333333333333</ele><time>2026-04-19T08:17:42.842Z</time></trkpt><trkpt lat="43.9846215" lon="7.9270658"><ele>508.66666666666663</ele><time>2026-04-19T08:17:43.842Z</time></trkpt><trkpt lat="43.9847032" lon="7.9270977"><ele>512.0</ele><time>2026-04-19T08:17:44.842Z</time></trkpt><trkpt lat="43.9847777" lon="7.9271416"><ele>511.99999999999994</ele><time>2026-04-19T08:17:45.842Z</time></trkpt><trkpt lat="43.9848564" lon="7.9271957"><ele>512.0</ele><time>2026-04-19T08:17:46.842Z</time></trkpt><trkpt lat="43.9849292" lon="7.927255"><ele>512.0</ele><time>2026-04-19T08:17:47.842Z</time></trkpt><trkpt lat="43.9850101" lon="7.9273151"><ele>512.0</ele><time>2026-04-19T08:17:48.842Z</time></trkpt><trkpt lat="43.9850901" lon="7.9273684"><ele>511.99999999999994</ele><time>2026-04-19T08:17:49.842Z</time></trkpt><trkpt lat="43.9851768" lon="7.9274215"><ele>512.0</ele><time>2026-04-19T08:17:50.843Z</time></trkpt><trkpt lat="43.985238" lon="7.9274925"><ele>514.8333333333333</ele><time>2026-04-19T08:17:51.842Z</time></trkpt><trkpt lat="43.9852949" lon="7.9275768"><ele>517.6666666666666</ele><time>2026-04-19T08:17:52.842Z</time></trkpt><trkpt lat="43.9853495" lon="7.9276679"><ele>520.5</ele><time>2026-04-19T08:17:53.842Z</time></trkpt><trkpt lat="43.9853937" lon="7.927765"><ele>523.3333333333334</ele><time>2026-04-19T08:17:54.843Z</time></trkpt><trkpt lat="43.9854347" lon="7.9278635"><ele>526.1666666666667</ele><time>2026-04-19T08:17:55.842Z</time></trkpt><trkpt lat="43.9854648" lon="7.9279787"><ele>529.0</ele><time>2026-04-19T08:17:56.842Z</time></trkpt><trkpt lat="43.9854961" lon="7.9280833"><ele>529.0</ele><time>2026-04-19T08:17:57.842Z</time></trkpt><trkpt lat="43.9855282" lon="7.9281919"><ele>529.0</ele><time>2026-04-19T08:17:58.842Z</time></trkpt><trkpt lat="43.9855646" lon="7.9283063"><ele>529.0</ele><time>2026-04-19T08:17:59.844Z</time></trkpt><trkpt lat="43.9856047" lon="7.9284159"><ele>529.0</ele><time>2026-04-19T08:18:00.842Z</time></trkpt><trkpt lat="43.9856643" lon="7.9285174"><ele>529.0</ele><time>2026-04-19T08:18:01.842Z</time></trkpt><trkpt lat="43.9857238" lon="7.9286152"><ele>529.0</ele><time>2026-04-19T08:18:02.842Z</time></trkpt><trkpt lat="43.9857869" lon="7.9287104"><ele>532.2</ele><time>2026-04-19T08:18:03.842Z</time></trkpt><trkpt lat="43.9858537" lon="7.9288004"><ele>535.4</ele><time>2026-04-19T08:18:04.842Z</time></trkpt><trkpt lat="43.9859342" lon="7.9288805"><ele>538.6</ele><time>2026-04-19T08:18:05.842Z</time></trkpt><trkpt lat="43.9860101" lon="7.928968"><ele>541.8</ele><time>2026-04-19T08:18:06.843Z</time></trkpt><trkpt lat="43.9860811" lon="7.9290645"><ele>545.0</ele><time>2026-04-19T08:18:07.841Z</time></trkpt><trkpt lat="43.9861495" lon="7.929162"><ele>542.6666666666666</ele><time>2026-04-19T08:18:08.843Z</time></trkpt><trkpt lat="43.9862029" lon="7.9292779"><ele>540.3333333333333</ele><time>2026-04-19T08:18:09.842Z</time></trkpt><trkpt lat="43.9862476" lon="7.9293943"><ele>538.0</ele><time>2026-04-19T08:18:10.843Z</time></trkpt><trkpt lat="43.9862869" lon="7.929507"><ele>535.6666666666666</ele><time>2026-04-19T08:18:11.842Z</time></trkpt><trkpt lat="43.9863196" lon="7.9296162"><ele>533.3333333333334</ele><time>2026-04-19T08:18:12.842Z</time></trkpt><trkpt lat="43.9863615" lon="7.9296874"><ele>531.0</ele><time>2026-04-19T08:18:13.842Z</time></trkpt><trkpt lat="43.986447" lon="7.9297181"><ele>531.0</ele><time>2026-04-19T08:18:15.842Z</time></trkpt><trkpt lat="43.9864978" lon="7.9295916"><ele>531.0</ele><time>2026-04-19T08:18:17.842Z</time></trkpt><trkpt lat="43.9864782" lon="7.9294306"><ele>531.0</ele><time>2026-04-19T08:18:19.843Z</time></trkpt><trkpt lat="43.9864359" lon="7.9292595"><ele>531.0</ele><time>2026-04-19T08:18:21.842Z</time></trkpt><trkpt lat="43.9864152" lon="7.9291576"><ele>531.0</ele><time>2026-04-19T08:18:22.842Z</time></trkpt><trkpt lat="43.9863924" lon="7.9290609"><ele>533.3333333333334</ele><time>2026-04-19T08:18:23.842Z</time></trkpt><trkpt lat="43.9863718" lon="7.9289594"><ele>535.6666666666666</ele><time>2026-04-19T08:18:24.843Z</time></trkpt><trkpt lat="43.9863419" lon="7.9288601"><ele>538.0</ele><time>2026-04-19T08:18:25.842Z</time></trkpt><trkpt lat="43.9863005" lon="7.9287719"><ele>540.3333333333333</ele><time>2026-04-19T08:18:26.842Z</time></trkpt><trkpt lat="43.9862482" lon="7.9286925"><ele>542.6666666666666</ele><time>2026-04-19T08:18:27.841Z</time></trkpt><trkpt lat="43.9862043" lon="7.9286031"><ele>545.0</ele><time>2026-04-19T08:18:28.842Z</time></trkpt><trkpt lat="43.9861704" lon="7.9285019"><ele>545.0</ele><time>2026-04-19T08:18:29.843Z</time></trkpt><trkpt lat="43.9861529" lon="7.9283935"><ele>545.0</ele><time>2026-04-19T08:18:30.842Z</time></trkpt><trkpt lat="43.9861541" lon="7.9282848"><ele>545.0</ele><time>2026-04-19T08:18:31.843Z</time></trkpt><trkpt lat="43.9861571" lon="7.9281758"><ele>545.0</ele><time>2026-04-19T08:18:32.842Z</time></trkpt><trkpt lat="43.9861607" lon="7.9280695"><ele>545.0</ele><time>2026-04-19T08:18:33.842Z</time></trkpt><trkpt lat="43.9861679" lon="7.9279612"><ele>545.0</ele><time>2026-04-19T08:18:34.842Z</time></trkpt><trkpt lat="43.9861748" lon="7.9278472"><ele>547.2</ele><time>2026-04-19T08:18:35.842Z</time></trkpt><trkpt lat="43.9861911" lon="7.9277287"><ele>549.4</ele><time>2026-04-19T08:18:36.842Z</time></trkpt><trkpt lat="43.9862175" lon="7.9276072"><ele>551.6</ele><time>2026-04-19T08:18:37.842Z</time></trkpt><trkpt lat="43.9862482" lon="7.9274784"><ele>553.8</ele><time>2026-04-19T08:18:38.842Z</time></trkpt><trkpt lat="43.9862817" lon="7.9273512"><ele>556.0</ele><time>2026-04-19T08:18:39.842Z</time></trkpt><trkpt lat="43.9863021" lon="7.9272197"><ele>557.4</ele><time>2026-04-19T08:18:40.842Z</time></trkpt><trkpt lat="43.9863168" lon="7.9270873"><ele>558.8</ele><time>2026-04-19T08:18:41.842Z</time></trkpt><trkpt lat="43.9863068" lon="7.9269534"><ele>560.1999999999999</ele><time>2026-04-19T08:18:42.841Z</time></trkpt><trkpt lat="43.9862947" lon="7.9268303"><ele>561.6</ele><time>2026-04-19T08:18:43.842Z</time></trkpt><trkpt lat="43.9862818" lon="7.9267185"><ele>563.0</ele><time>2026-04-19T08:18:44.842Z</time></trkpt><trkpt lat="43.9862721" lon="7.9266002"><ele>563.1999999999999</ele><time>2026-04-19T08:18:45.842Z</time></trkpt><trkpt lat="43.986262" lon="7.9264971"><ele>563.4</ele><time>2026-04-19T08:18:46.842Z</time></trkpt><trkpt lat="43.9862566" lon="7.9264003"><ele>563.5999999999999</ele><time>2026-04-19T08:18:47.842Z</time></trkpt><trkpt lat="43.9862336" lon="7.9262598"><ele>563.8</ele><time>2026-04-19T08:18:49.842Z</time></trkpt><trkpt lat="43.9863104" lon="7.9262529"><ele>564.0</ele><time>2026-04-19T08:27:00.842Z</time></trkpt><trkpt lat="43.9864275" lon="7.9263374"><ele>564.0</ele><time>2026-04-19T08:27:02.841Z</time></trkpt><trkpt lat="43.9864547" lon="7.9264479"><ele>564.0</ele><time>2026-04-19T08:27:03.841Z</time></trkpt><trkpt lat="43.9864625" lon="7.9265524"><ele>564.0</ele><time>2026-04-19T08:27:04.841Z</time></trkpt><trkpt lat="43.9864795" lon="7.9266473"><ele>564.0</ele><time>2026-04-19T08:27:05.842Z</time></trkpt><trkpt lat="43.9865" lon="7.9267403"><ele>564.0</ele><time>2026-04-19T08:27:06.842Z</time></trkpt><trkpt lat="43.9865176" lon="7.9268428"><ele>564.0</ele><time>2026-04-19T08:27:07.841Z</time></trkpt><trkpt lat="43.9865304" lon="7.9269502"><ele>563.8333333333334</ele><time>2026-04-19T08:27:08.841Z</time></trkpt><trkpt lat="43.98654" lon="7.9270668"><ele>563.6666666666666</ele><time>2026-04-19T08:27:09.841Z</time></trkpt><trkpt lat="43.9865385" lon="7.9271875"><ele>563.5</ele><time>2026-04-19T08:27:10.842Z</time></trkpt><trkpt lat="43.9865264" lon="7.9273052"><ele>563.3333333333333</ele><time>2026-04-19T08:27:11.842Z</time></trkpt><trkpt lat="43.9865119" lon="7.9274226"><ele>563.1666666666666</ele><time>2026-04-19T08:27:12.841Z</time></trkpt><trkpt lat="43.9864995" lon="7.9275414"><ele>563.0</ele><time>2026-04-19T08:27:13.841Z</time></trkpt><trkpt lat="43.9864927" lon="7.9276528"><ele>562.0</ele><time>2026-04-19T08:27:14.841Z</time></trkpt><trkpt lat="43.9865001" lon="7.9277573"><ele>561.0</ele><time>2026-04-19T08:27:15.841Z</time></trkpt><trkpt lat="43.9865227" lon="7.927851"><ele>560.0</ele><time>2026-04-19T08:27:16.84Z</time></trkpt><trkpt lat="43.9865638" lon="7.927929"><ele>559.0</ele><time>2026-04-19T08:27:17.841Z</time></trkpt><trkpt lat="43.9866215" lon="7.9279901"><ele>558.0</ele><time>2026-04-19T08:27:18.841Z</time></trkpt><trkpt lat="43.9866896" lon="7.9280339"><ele>557.0</ele><time>2026-04-19T08:27:19.841Z</time></trkpt><trkpt lat="43.9867654" lon="7.9280645"><ele>556.0</ele><time>2026-04-19T08:27:20.841Z</time></trkpt><trkpt lat="43.9868404" lon="7.9280814"><ele>557.3333333333334</ele><time>2026-04-19T08:27:21.841Z</time></trkpt><trkpt lat="43.9869107" lon="7.9281077"><ele>558.6666666666667</ele><time>2026-04-19T08:27:22.842Z</time></trkpt><trkpt lat="43.9869715" lon="7.928171"><ele>560.0</ele><time>2026-04-19T08:27:23.841Z</time></trkpt><trkpt lat="43.9870189" lon="7.9282657"><ele>561.3333333333334</ele><time>2026-04-19T08:27:24.842Z</time></trkpt><trkpt lat="43.9870633" lon="7.9283595"><ele>562.6666666666666</ele><time>2026-04-19T08:27:25.841Z</time></trkpt><trkpt lat="43.9871194" lon="7.9284327"><ele>564.0</ele><time>2026-04-19T08:27:26.84Z</time></trkpt><trkpt lat="43.9871904" lon="7.9284745"><ele>564.0</ele><time>2026-04-19T08:27:27.842Z</time></trkpt><trkpt lat="43.9872668" lon="7.928508"><ele>564.0</ele><time>2026-04-19T08:27:28.842Z</time></trkpt><trkpt lat="43.9873531" lon="7.9285226"><ele>564.0</ele><time>2026-04-19T08:27:29.841Z</time></trkpt><trkpt lat="43.987442" lon="7.9285437"><ele>564.0</ele><time>2026-04-19T08:27:30.842Z</time></trkpt><trkpt lat="43.9875264" lon="7.9285871"><ele>564.0</ele><time>2026-04-19T08:27:31.841Z</time></trkpt><trkpt lat="43.9876008" lon="7.9286547"><ele>564.0</ele><time>2026-04-19T08:27:32.841Z</time></trkpt><trkpt lat="43.987662" lon="7.9287448"><ele>567.0</ele><time>2026-04-19T08:27:33.842Z</time></trkpt><trkpt lat="43.9877182" lon="7.9288405"><ele>570.0</ele><time>2026-04-19T08:27:34.842Z</time></trkpt><trkpt lat="43.9877825" lon="7.92892"><ele>573.0</ele><time>2026-04-19T08:27:35.841Z</time></trkpt><trkpt lat="43.9878573" lon="7.9289658"><ele>576.0</ele><time>2026-04-19T08:27:36.841Z</time></trkpt><trkpt lat="43.9879391" lon="7.9289868"><ele>579.0</ele><time>2026-04-19T08:27:37.841Z</time></trkpt><trkpt lat="43.9880246" lon="7.9289904"><ele>582.0</ele><time>2026-04-19T08:27:38.841Z</time></trkpt><trkpt lat="43.9881134" lon="7.9289843"><ele>582.0</ele><time>2026-04-19T08:27:39.841Z</time></trkpt><trkpt lat="43.9882023" lon="7.9289744"><ele>582.0</ele><time>2026-04-19T08:27:40.842Z</time></trkpt><trkpt lat="43.9882879" lon="7.9289722"><ele>582.0</ele><time>2026-04-19T08:27:41.842Z</time></trkpt><trkpt lat="43.9883661" lon="7.9289704"><ele>582.0</ele><time>2026-04-19T08:27:42.842Z</time></trkpt><trkpt lat="43.9884431" lon="7.928992"><ele>582.0</ele><time>2026-04-19T08:27:43.841Z</time></trkpt><trkpt lat="43.988482" lon="7.9290836"><ele>582.0</ele><time>2026-04-19T08:27:44.841Z</time></trkpt><trkpt lat="43.9885022" lon="7.9291764"><ele>587.0</ele><time>2026-04-19T08:27:45.841Z</time></trkpt><trkpt lat="43.9885263" lon="7.929273"><ele>592.0</ele><time>2026-04-19T08:27:46.842Z</time></trkpt><trkpt lat="43.9885683" lon="7.9293662"><ele>597.0</ele><time>2026-04-19T08:27:47.841Z</time></trkpt><trkpt lat="43.9886211" lon="7.9294593"><ele>602.0</ele><time>2026-04-19T08:27:48.842Z</time></trkpt><trkpt lat="43.988671" lon="7.9295469"><ele>607.0</ele><time>2026-04-19T08:27:49.841Z</time></trkpt><trkpt lat="43.9887172" lon="7.9296261"><ele>612.0</ele><time>2026-04-19T08:27:50.841Z</time></trkpt><trkpt lat="43.9888169" lon="7.9296678"><ele>612.0</ele><time>2026-04-19T08:27:52.841Z</time></trkpt><trkpt lat="43.9888503" lon="7.9295775"><ele>612.0</ele><time>2026-04-19T08:27:54.841Z</time></trkpt><trkpt lat="43.9887896" lon="7.9294269"><ele>612.0</ele><time>2026-04-19T08:27:56.841Z</time></trkpt><trkpt lat="43.9887483" lon="7.9293356"><ele>612.0</ele><time>2026-04-19T08:27:57.842Z</time></trkpt><trkpt lat="43.9887164" lon="7.9292361"><ele>612.0</ele><time>2026-04-19T08:27:58.841Z</time></trkpt><trkpt lat="43.9887045" lon="7.9291178"><ele>612.0</ele><time>2026-04-19T08:27:59.841Z</time></trkpt><trkpt lat="43.9887136" lon="7.9289949"><ele>612.4</ele><time>2026-04-19T08:28:00.842Z</time></trkpt><trkpt lat="43.9887166" lon="7.928863"><ele>612.8000000000001</ele><time>2026-04-19T08:28:01.841Z</time></trkpt><trkpt lat="43.9887117" lon="7.9287163"><ele>613.2</ele><time>2026-04-19T08:28:02.841Z</time></trkpt><trkpt lat="43.9886798" lon="7.9285851"><ele>613.6</ele><time>2026-04-19T08:28:03.841Z</time></trkpt><trkpt lat="43.9886438" lon="7.9284548"><ele>614.0</ele><time>2026-04-19T08:28:04.842Z</time></trkpt><trkpt lat="43.9886154" lon="7.9283183"><ele>615.4</ele><time>2026-04-19T08:28:05.841Z</time></trkpt><trkpt lat="43.9886067" lon="7.9281701"><ele>616.8</ele><time>2026-04-19T08:28:06.842Z</time></trkpt><trkpt lat="43.9885939" lon="7.9280224"><ele>618.2</ele><time>2026-04-19T08:28:07.84Z</time></trkpt><trkpt lat="43.9885834" lon="7.9278666"><ele>619.6</ele><time>2026-04-19T08:28:08.84Z</time></trkpt><trkpt lat="43.9885462" lon="7.9277236"><ele>621.0</ele><time>2026-04-19T08:28:09.841Z</time></trkpt><trkpt lat="43.9884979" lon="7.9276025"><ele>622.6666666666666</ele><time>2026-04-19T08:28:10.841Z</time></trkpt><trkpt lat="43.9884363" lon="7.9274941"><ele>624.3333333333334</ele><time>2026-04-19T08:28:11.841Z</time></trkpt><trkpt lat="43.9883776" lon="7.9273974"><ele>626.0</ele><time>2026-04-19T08:28:12.84Z</time></trkpt><trkpt lat="43.9883237" lon="7.9272998"><ele>627.6666666666667</ele><time>2026-04-19T08:28:13.841Z</time></trkpt><trkpt lat="43.9882721" lon="7.9272052"><ele>629.3333333333334</ele><time>2026-04-19T08:28:14.841Z</time></trkpt><trkpt lat="43.9882277" lon="7.9271087"><ele>631.0</ele><time>2026-04-19T08:28:15.84Z</time></trkpt><trkpt lat="43.988187" lon="7.9270059"><ele>628.5</ele><time>2026-04-19T08:28:16.842Z</time></trkpt><trkpt lat="43.9881609" lon="7.926898"><ele>626.0</ele><time>2026-04-19T08:28:17.841Z</time></trkpt><trkpt lat="43.9881295" lon="7.9267883"><ele>623.5</ele><time>2026-04-19T08:28:18.843Z</time></trkpt><trkpt lat="43.9880996" lon="7.9266708"><ele>621.0</ele><time>2026-04-19T08:28:19.842Z</time></trkpt><trkpt lat="43.9880684" lon="7.9265456"><ele>618.5</ele><time>2026-04-19T08:28:20.842Z</time></trkpt><trkpt lat="43.9880471" lon="7.9264142"><ele>616.0</ele><time>2026-04-19T08:28:21.84Z</time></trkpt><trkpt lat="43.988033" lon="7.9262741"><ele>616.0</ele><time>2026-04-19T08:28:22.842Z</time></trkpt><trkpt lat="43.988035" lon="7.9261324"><ele>616.0</ele><time>2026-04-19T08:28:23.841Z</time></trkpt><trkpt lat="43.9880446" lon="7.9259922"><ele>616.0</ele><time>2026-04-19T08:28:24.841Z</time></trkpt><trkpt lat="43.988058" lon="7.9258507"><ele>616.0</ele><time>2026-04-19T08:28:25.841Z</time></trkpt><trkpt lat="43.9880712" lon="7.9257139"><ele>616.0</ele><time>2026-04-19T08:28:26.842Z</time></trkpt><trkpt lat="43.9880912" lon="7.925583"><ele>617.0</ele><time>2026-04-19T08:28:27.841Z</time></trkpt><trkpt lat="43.9881119" lon="7.9254556"><ele>618.0</ele><time>2026-04-19T08:28:28.84Z</time></trkpt><trkpt lat="43.9881443" lon="7.9253353"><ele>619.0</ele><time>2026-04-19T08:28:29.842Z</time></trkpt><trkpt lat="43.9881617" lon="7.9252001"><ele>620.0</ele><time>2026-04-19T08:28:30.842Z</time></trkpt><trkpt lat="43.9881777" lon="7.925069"><ele>621.0</ele><time>2026-04-19T08:28:31.84Z</time></trkpt><trkpt lat="43.9881942" lon="7.9249357"><ele>621.6</ele><time>2026-04-19T08:28:32.842Z</time></trkpt><trkpt lat="43.988192" lon="7.9247958"><ele>622.2</ele><time>2026-04-19T08:28:33.841Z</time></trkpt><trkpt lat="43.9881876" lon="7.924653"><ele>622.8</ele><time>2026-04-19T08:28:34.841Z</time></trkpt><trkpt lat="43.9881659" lon="7.9245127"><ele>623.4</ele><time>2026-04-19T08:28:35.841Z</time></trkpt><trkpt lat="43.9881272" lon="7.9243809"><ele>624.0</ele><time>2026-04-19T08:28:36.841Z</time></trkpt><trkpt lat="43.9880715" lon="7.9242757"><ele>626.0</ele><time>2026-04-19T08:28:37.841Z</time></trkpt><trkpt lat="43.9880023" lon="7.9241777"><ele>628.0</ele><time>2026-04-19T08:28:38.841Z</time></trkpt><trkpt lat="43.9879316" lon="7.9240787"><ele>630.0</ele><time>2026-04-19T08:28:39.841Z</time></trkpt><trkpt lat="43.9878611" lon="7.9239906"><ele>632.0</ele><time>2026-04-19T08:28:40.841Z</time></trkpt><trkpt lat="43.9877912" lon="7.9238955"><ele>634.0</ele><time>2026-04-19T08:28:41.841Z</time></trkpt><trkpt lat="43.9877581" lon="7.9237833"><ele>634.0</ele><time>2026-04-19T08:28:43.841Z</time></trkpt><trkpt lat="43.9878405" lon="7.9237882"><ele>634.0</ele><time>2026-04-19T08:28:46.841Z</time></trkpt><trkpt lat="43.9879412" lon="7.923913"><ele>634.0</ele><time>2026-04-19T08:28:48.841Z</time></trkpt><trkpt lat="43.9880058" lon="7.9239833"><ele>634.0</ele><time>2026-04-19T08:28:49.843Z</time></trkpt><trkpt lat="43.9880807" lon="7.9240535"><ele>634.0</ele><time>2026-04-19T08:28:50.841Z</time></trkpt><trkpt lat="43.9881551" lon="7.9241317"><ele>634.0</ele><time>2026-04-19T08:28:51.842Z</time></trkpt><trkpt lat="43.9882294" lon="7.9242178"><ele>634.0</ele><time>2026-04-19T08:28:52.841Z</time></trkpt><trkpt lat="43.9882988" lon="7.9243082"><ele>634.0</ele><time>2026-04-19T08:28:53.842Z</time></trkpt><trkpt lat="43.9883464" lon="7.9244256"><ele>634.0</ele><time>2026-04-19T08:28:54.841Z</time></trkpt><trkpt lat="43.9883958" lon="7.9245395"><ele>634.0</ele><time>2026-04-19T08:28:55.841Z</time></trkpt><trkpt lat="43.9884486" lon="7.9246595"><ele>637.4</ele><time>2026-04-19T08:28:56.841Z</time></trkpt><trkpt lat="43.9885061" lon="7.9247835"><ele>640.8</ele><time>2026-04-19T08:28:57.841Z</time></trkpt><trkpt lat="43.9885615" lon="7.9249097"><ele>644.1999999999999</ele><time>2026-04-19T08:28:58.842Z</time></trkpt><trkpt lat="43.988611" lon="7.9250483"><ele>647.5999999999999</ele><time>2026-04-19T08:28:59.841Z</time></trkpt><trkpt lat="43.988659" lon="7.9251748"><ele>651.0</ele><time>2026-04-19T08:29:00.841Z</time></trkpt><trkpt lat="43.9886978" lon="7.9252981"><ele>651.0</ele><time>2026-04-19T08:29:01.841Z</time></trkpt><trkpt lat="43.9887238" lon="7.9254404"><ele>651.0</ele><time>2026-04-19T08:29:02.841Z</time></trkpt><trkpt lat="43.9887554" lon="7.9255776"><ele>651.0</ele><time>2026-04-19T08:29:03.841Z</time></trkpt><trkpt lat="43.9887745" lon="7.9257215"><ele>651.0</ele><time>2026-04-19T08:29:04.841Z</time></trkpt><trkpt lat="43.988786" lon="7.9258595"><ele>651.0</ele><time>2026-04-19T08:29:05.841Z</time></trkpt><trkpt lat="43.9887943" lon="7.9260002"><ele>649.8</ele><time>2026-04-19T08:29:06.842Z</time></trkpt><trkpt lat="43.9888038" lon="7.9261268"><ele>648.5999999999999</ele><time>2026-04-19T08:29:07.841Z</time></trkpt><trkpt lat="43.9888294" lon="7.9262429"><ele>647.4</ele><time>2026-04-19T08:29:08.841Z</time></trkpt><trkpt lat="43.988884" lon="7.9263552"><ele>646.2</ele><time>2026-04-19T08:29:09.842Z</time></trkpt><trkpt lat="43.9889578" lon="7.9264567"><ele>645.0</ele><time>2026-04-19T08:29:10.841Z</time></trkpt><trkpt lat="43.9890334" lon="7.9265578"><ele>645.0</ele><time>2026-04-19T08:29:11.841Z</time></trkpt><trkpt lat="43.989103" lon="7.9266582"><ele>645.0</ele><time>2026-04-19T08:29:12.842Z</time></trkpt><trkpt lat="43.9891591" lon="7.9267796"><ele>645.0</ele><time>2026-04-19T08:29:13.84Z</time></trkpt><trkpt lat="43.9892" lon="7.926916"><ele>645.0</ele><time>2026-04-19T08:29:14.842Z</time></trkpt><trkpt lat="43.9892501" lon="7.9270421"><ele>645.0</ele><time>2026-04-19T08:29:15.841Z</time></trkpt><trkpt lat="43.9893103" lon="7.9271541"><ele>648.0</ele><time>2026-04-19T08:29:16.841Z</time></trkpt><trkpt lat="43.989375" lon="7.9272558"><ele>651.0</ele><time>2026-04-19T08:29:17.841Z</time></trkpt><trkpt lat="43.9894418" lon="7.9273618"><ele>654.0</ele><time>2026-04-19T08:29:18.841Z</time></trkpt><trkpt lat="43.9894935" lon="7.927468"><ele>657.0</ele><time>2026-04-19T08:29:19.842Z</time></trkpt><trkpt lat="43.989548" lon="7.9275942"><ele>660.0</ele><time>2026-04-19T08:29:20.842Z</time></trkpt><trkpt lat="43.9896034" lon="7.9277129"><ele>660.0</ele><time>2026-04-19T08:29:21.841Z</time></trkpt><trkpt lat="43.9896758" lon="7.9278184"><ele>660.0</ele><time>2026-04-19T08:29:22.841Z</time></trkpt><trkpt lat="43.9897522" lon="7.9279103"><ele>660.0</ele><time>2026-04-19T08:29:23.841Z</time></trkpt><trkpt lat="43.9898262" lon="7.9279881"><ele>660.0</ele><time>2026-04-19T08:29:24.841Z</time></trkpt><trkpt lat="43.9898828" lon="7.9280722"><ele>660.0</ele><time>2026-04-19T08:29:25.842Z</time></trkpt><trkpt lat="43.9899126" lon="7.9281669"><ele>660.0</ele><time>2026-04-19T08:29:26.84Z</time></trkpt><trkpt lat="43.989879" lon="7.9283338"><ele>660.0</ele><time>2026-04-19T08:29:28.841Z</time></trkpt><trkpt lat="43.9898231" lon="7.9284078"><ele>660.0</ele><time>2026-04-19T08:29:29.842Z</time></trkpt><trkpt lat="43.9897867" lon="7.9284929"><ele>660.0</ele><time>2026-04-19T08:29:30.842Z</time></trkpt><trkpt lat="43.9897785" lon="7.9285978"><ele>660.0</ele><time>2026-04-19T08:29:31.842Z</time></trkpt><trkpt lat="43.9898062" lon="7.9286868"><ele>660.0</ele><time>2026-04-19T08:29:32.841Z</time></trkpt><trkpt lat="43.9898539" lon="7.9287705"><ele>659.8333333333334</ele><time>2026-04-19T08:29:33.84Z</time></trkpt><trkpt lat="43.9898981" lon="7.9288642"><ele>659.6666666666666</ele><time>2026-04-19T08:29:34.841Z</time></trkpt><trkpt lat="43.9899433" lon="7.9289654"><ele>659.5</ele><time>2026-04-19T08:29:35.841Z</time></trkpt><trkpt lat="43.9899878" lon="7.9290697"><ele>659.3333333333333</ele><time>2026-04-19T08:29:36.84Z</time></trkpt><trkpt lat="43.9900102" lon="7.9292034"><ele>659.1666666666666</ele><time>2026-04-19T08:29:37.841Z</time></trkpt><trkpt lat="43.9900353" lon="7.9293267"><ele>659.0</ele><time>2026-04-19T08:29:38.84Z</time></trkpt><trkpt lat="43.9900525" lon="7.9294608"><ele>660.2</ele><time>2026-04-19T08:29:39.841Z</time></trkpt><trkpt lat="43.9900615" lon="7.9295952"><ele>661.4000000000001</ele><time>2026-04-19T08:29:40.841Z</time></trkpt><trkpt lat="43.9900537" lon="7.9297345"><ele>662.6</ele><time>2026-04-19T08:29:41.841Z</time></trkpt><trkpt lat="43.9900369" lon="7.9298681"><ele>663.8</ele><time>2026-04-19T08:29:42.841Z</time></trkpt><trkpt lat="43.9900113" lon="7.9299917"><ele>665.0</ele><time>2026-04-19T08:29:43.841Z</time></trkpt><trkpt lat="43.9899913" lon="7.9301211"><ele>665.0</ele><time>2026-04-19T08:29:44.841Z</time></trkpt><trkpt lat="43.9899682" lon="7.9302479"><ele>665.0</ele><time>2026-04-19T08:29:45.841Z</time></trkpt><trkpt lat="43.9899567" lon="7.9303754"><ele>665.0</ele><time>2026-04-19T08:29:46.842Z</time></trkpt><trkpt lat="43.9899549" lon="7.9304988"><ele>665.0</ele><time>2026-04-19T08:29:47.841Z</time></trkpt><trkpt lat="43.989971" lon="7.9306163"><ele>665.0</ele><time>2026-04-19T08:29:48.84Z</time></trkpt><trkpt lat="43.9900014" lon="7.9307288"><ele>665.0</ele><time>2026-04-19T08:29:49.842Z</time></trkpt><trkpt lat="43.9900318" lon="7.9308325"><ele>665.1666666666666</ele><time>2026-04-19T08:29:50.841Z</time></trkpt><trkpt lat="43.9900554" lon="7.9309345"><ele>665.3333333333333</ele><time>2026-04-19T08:29:51.841Z</time></trkpt><trkpt lat="43.9900532" lon="7.9310447"><ele>665.5</ele><time>2026-04-19T08:29:52.841Z</time></trkpt><trkpt lat="43.9900334" lon="7.9311498"><ele>665.6666666666666</ele><time>2026-04-19T08:29:53.841Z</time></trkpt><trkpt lat="43.9900016" lon="7.9312621"><ele>665.8333333333334</ele><time>2026-04-19T08:29:54.842Z</time></trkpt><trkpt lat="43.9899759" lon="7.9313789"><ele>666.0</ele><time>2026-04-19T08:29:55.842Z</time></trkpt><trkpt lat="43.9899608" lon="7.9314934"><ele>666.0</ele><time>2026-04-19T08:29:56.841Z</time></trkpt><trkpt lat="43.9899386" lon="7.9316035"><ele>666.0</ele><time>2026-04-19T08:29:57.84Z</time></trkpt><trkpt lat="43.989899" lon="7.9317145"><ele>666.0</ele><time>2026-04-19T08:29:58.84Z</time></trkpt><trkpt lat="43.9898932" lon="7.9318299"><ele>666.0</ele><time>2026-04-19T08:29:59.842Z</time></trkpt><trkpt lat="43.9898938" lon="7.931951"><ele>666.0</ele><time>2026-04-19T08:30:00.841Z</time></trkpt><trkpt lat="43.9899155" lon="7.932073"><ele>666.0</ele><time>2026-04-19T08:30:01.841Z</time></trkpt><trkpt lat="43.9899536" lon="7.9321912"><ele>666.5999999999999</ele><time>2026-04-19T08:30:02.841Z</time></trkpt><trkpt lat="43.9899984" lon="7.9322974"><ele>667.2</ele><time>2026-04-19T08:30:03.841Z</time></trkpt><trkpt lat="43.9900533" lon="7.9324017"><ele>667.8</ele><time>2026-04-19T08:30:04.841Z</time></trkpt><trkpt lat="43.9901344" lon="7.9324726"><ele>668.4000000000001</ele><time>2026-04-19T08:30:05.841Z</time></trkpt><trkpt lat="43.9902024" lon="7.9325405"><ele>669.0</ele><time>2026-04-19T08:30:06.841Z</time></trkpt><trkpt lat="43.9902909" lon="7.9325863"><ele>669.6</ele><time>2026-04-19T08:30:07.841Z</time></trkpt><trkpt lat="43.9903734" lon="7.9326265"><ele>670.2</ele><time>2026-04-19T08:30:08.84Z</time></trkpt><trkpt lat="43.9904667" lon="7.9326561"><ele>670.8000000000001</ele><time>2026-04-19T08:30:09.84Z</time></trkpt><trkpt lat="43.9905549" lon="7.9326859"><ele>671.4000000000001</ele><time>2026-04-19T08:30:10.841Z</time></trkpt><trkpt lat="43.9906452" lon="7.9327304"><ele>672.0</ele><time>2026-04-19T08:30:11.841Z</time></trkpt><trkpt lat="43.9907354" lon="7.9327923"><ele>672.0</ele><time>2026-04-19T08:30:12.841Z</time></trkpt><trkpt lat="43.9908314" lon="7.9328605"><ele>672.0</ele><time>2026-04-19T08:30:13.841Z</time></trkpt><trkpt lat="43.9909188" lon="7.932935"><ele>672.0</ele><time>2026-04-19T08:30:14.842Z</time></trkpt><trkpt lat="43.9910022" lon="7.9330079"><ele>672.0</ele><time>2026-04-19T08:30:15.841Z</time></trkpt><trkpt lat="43.9910822" lon="7.9330869"><ele>672.0</ele><time>2026-04-19T08:30:16.842Z</time></trkpt><trkpt lat="43.9911646" lon="7.9331525"><ele>675.5</ele><time>2026-04-19T08:30:17.841Z</time></trkpt><trkpt lat="43.99125" lon="7.9332089"><ele>679.0</ele><time>2026-04-19T08:30:18.841Z</time></trkpt><trkpt lat="43.9913402" lon="7.9332427"><ele>682.5</ele><time>2026-04-19T08:30:19.841Z</time></trkpt><trkpt lat="43.9914243" lon="7.933259"><ele>686.0</ele><time>2026-04-19T08:30:20.841Z</time></trkpt><trkpt lat="43.9915081" lon="7.9332766"><ele>689.5</ele><time>2026-04-19T08:30:21.84Z</time></trkpt><trkpt lat="43.9915717" lon="7.9332849"><ele>693.0</ele><time>2026-04-19T08:30:22.84Z</time></trkpt><trkpt lat="43.9916489" lon="7.9332116"><ele>693.0</ele><time>2026-04-19T08:30:24.841Z</time></trkpt><trkpt lat="43.9916085" lon="7.9330932"><ele>693.0</ele><time>2026-04-19T08:30:26.842Z</time></trkpt><trkpt lat="43.9915156" lon="7.932979"><ele>693.0</ele><time>2026-04-19T08:30:28.841Z</time></trkpt><trkpt lat="43.9914641" lon="7.9329056"><ele>693.0</ele><time>2026-04-19T08:30:29.841Z</time></trkpt><trkpt lat="43.9914003" lon="7.9328387"><ele>693.0</ele><time>2026-04-19T08:30:30.841Z</time></trkpt><trkpt lat="43.9913328" lon="7.9327691"><ele>693.0</ele><time>2026-04-19T08:30:31.841Z</time></trkpt><trkpt lat="43.9912622" lon="7.9326919"><ele>693.0</ele><time>2026-04-19T08:30:32.841Z</time></trkpt><trkpt lat="43.9911946" lon="7.932622"><ele>693.0</ele><time>2026-04-19T08:30:33.842Z</time></trkpt><trkpt lat="43.9911233" lon="7.9325574"><ele>693.0</ele><time>2026-04-19T08:30:34.841Z</time></trkpt><trkpt lat="43.991057" lon="7.9324807"><ele>693.0</ele><time>2026-04-19T08:30:35.841Z</time></trkpt><trkpt lat="43.9909886" lon="7.9323974"><ele>693.0</ele><time>2026-04-19T08:30:36.841Z</time></trkpt><trkpt lat="43.9909212" lon="7.9322998"><ele>693.0</ele><time>2026-04-19T08:30:37.841Z</time></trkpt><trkpt lat="43.9908592" lon="7.9322016"><ele>693.0</ele><time>2026-04-19T08:30:38.841Z</time></trkpt><trkpt lat="43.9908237" lon="7.9320847"><ele>693.0</ele><time>2026-04-19T08:30:39.84Z</time></trkpt><trkpt lat="43.9908042" lon="7.9319732"><ele>693.0</ele><time>2026-04-19T08:30:40.841Z</time></trkpt><trkpt lat="43.9907965" lon="7.9318497"><ele>693.0</ele><time>2026-04-19T08:30:41.841Z</time></trkpt><trkpt lat="43.9908017" lon="7.9317339"><ele>693.0</ele><time>2026-04-19T08:30:42.842Z</time></trkpt><trkpt lat="43.9908018" lon="7.9315875"><ele>695.0</ele><time>2026-04-19T08:30:43.841Z</time></trkpt><trkpt lat="43.9907959" lon="7.9314482"><ele>697.0</ele><time>2026-04-19T08:30:44.841Z</time></trkpt><trkpt lat="43.9907937" lon="7.9313067"><ele>699.0</ele><time>2026-04-19T08:30:45.84Z</time></trkpt><trkpt lat="43.9907972" lon="7.9311618"><ele>701.0</ele><time>2026-04-19T08:30:46.841Z</time></trkpt><trkpt lat="43.9908021" lon="7.9310238"><ele>703.0</ele><time>2026-04-19T08:30:47.841Z</time></trkpt><trkpt lat="43.9908038" lon="7.9308752"><ele>703.8</ele><time>2026-04-19T08:30:48.841Z</time></trkpt><trkpt lat="43.9908097" lon="7.9307288"><ele>704.5999999999999</ele><time>2026-04-19T08:30:49.841Z</time></trkpt><trkpt lat="43.9908235" lon="7.9305866"><ele>705.4000000000001</ele><time>2026-04-19T08:30:50.841Z</time></trkpt><trkpt lat="43.9908402" lon="7.9304442"><ele>706.2</ele><time>2026-04-19T08:30:51.842Z</time></trkpt><trkpt lat="43.9908697" lon="7.9303108"><ele>707.0</ele><time>2026-04-19T08:30:52.841Z</time></trkpt><trkpt lat="43.9909098" lon="7.9301738"><ele>713.2</ele><time>2026-04-19T08:30:53.841Z</time></trkpt><trkpt lat="43.9909557" lon="7.9300465"><ele>719.4000000000001</ele><time>2026-04-19T08:30:54.841Z</time></trkpt><trkpt lat="43.9910165" lon="7.9299187"><ele>725.5999999999999</ele><time>2026-04-19T08:30:55.841Z</time></trkpt><trkpt lat="43.9910668" lon="7.9297871"><ele>731.8</ele><time>2026-04-19T08:30:56.841Z</time></trkpt><trkpt lat="43.991117" lon="7.9296557"><ele>738.0</ele><time>2026-04-19T08:30:57.84Z</time></trkpt><trkpt lat="43.9911574" lon="7.9295158"><ele>738.0</ele><time>2026-04-19T08:30:58.842Z</time></trkpt><trkpt lat="43.9911926" lon="7.9293771"><ele>738.0</ele><time>2026-04-19T08:30:59.841Z</time></trkpt><trkpt lat="43.9912199" lon="7.9292338"><ele>738.0</ele><time>2026-04-19T08:31:00.841Z</time></trkpt><trkpt lat="43.9912498" lon="7.9290942"><ele>738.0</ele><time>2026-04-19T08:31:01.841Z</time></trkpt><trkpt lat="43.9912701" lon="7.9289867"><ele>738.0</ele><time>2026-04-19T08:31:02.84Z</time></trkpt><trkpt lat="43.9913073" lon="7.9289013"><ele>738.0</ele><time>2026-04-19T08:31:03.841Z</time></trkpt><trkpt lat="43.9913608" lon="7.9288431"><ele>738.0</ele><time>2026-04-19T08:31:04.841Z</time></trkpt><trkpt lat="43.9914236" lon="7.9288096"><ele>738.0</ele><time>2026-04-19T08:31:05.841Z</time></trkpt><trkpt lat="43.9914923" lon="7.9287761"><ele>738.0</ele><time>2026-04-19T08:31:06.841Z</time></trkpt><trkpt lat="43.9915536" lon="7.928736"><ele>738.0</ele><time>2026-04-19T08:31:07.841Z</time></trkpt><trkpt lat="43.9916129" lon="7.9287047"><ele>738.0</ele><time>2026-04-19T08:31:08.841Z</time></trkpt><trkpt lat="43.9916821" lon="7.9286426"><ele>738.0</ele><time>2026-04-19T08:31:09.841Z</time></trkpt><trkpt lat="43.9917419" lon="7.9285937"><ele>736.4</ele><time>2026-04-19T08:31:10.841Z</time></trkpt><trkpt lat="43.9917847" lon="7.9285178"><ele>734.8</ele><time>2026-04-19T08:31:11.841Z</time></trkpt><trkpt lat="43.9917652" lon="7.9283564"><ele>733.2</ele><time>2026-04-19T08:31:13.841Z</time></trkpt><trkpt lat="43.991699" lon="7.928212"><ele>731.6</ele><time>2026-04-19T08:31:15.841Z</time></trkpt><trkpt lat="43.9916447" lon="7.9280635"><ele>730.0</ele><time>2026-04-19T08:31:17.841Z</time></trkpt><trkpt lat="43.9916454" lon="7.9279093"><ele>734.4</ele><time>2026-04-19T08:31:19.84Z</time></trkpt><trkpt lat="43.991681" lon="7.9277482"><ele>738.8</ele><time>2026-04-19T08:31:21.841Z</time></trkpt><trkpt lat="43.9917457" lon="7.9276409"><ele>743.2</ele><time>2026-04-19T08:31:23.842Z</time></trkpt><trkpt lat="43.9918114" lon="7.9275305"><ele>747.6</ele><time>2026-04-19T08:31:25.84Z</time></trkpt><trkpt lat="43.9918922" lon="7.9274397"><ele>752.0</ele><time>2026-04-19T08:31:27.841Z</time></trkpt><trkpt lat="43.9919872" lon="7.9273677"><ele>752.0</ele><time>2026-04-19T08:31:29.84Z</time></trkpt><trkpt lat="43.992077" lon="7.927257"><ele>752.0</ele><time>2026-04-19T08:31:31.841Z</time></trkpt><trkpt lat="43.9921064" lon="7.9271774"><ele>752.0</ele><time>2026-04-19T08:31:32.841Z</time></trkpt><trkpt lat="43.992107" lon="7.9270121"><ele>752.0</ele><time>2026-04-19T08:31:34.841Z</time></trkpt><trkpt lat="43.9920623" lon="7.926867"><ele>752.0</ele><time>2026-04-19T08:31:36.841Z</time></trkpt><trkpt lat="43.9920118" lon="7.926711"><ele>753.3333333333333</ele><time>2026-04-19T08:31:38.841Z</time></trkpt><trkpt lat="43.9919997" lon="7.9266184"><ele>754.6666666666666</ele><time>2026-04-19T08:31:39.84Z</time></trkpt><trkpt lat="43.9919943" lon="7.9265196"><ele>756.0</ele><time>2026-04-19T08:31:40.84Z</time></trkpt><trkpt lat="43.9919872" lon="7.9264087"><ele>757.3333333333334</ele><time>2026-04-19T08:31:41.841Z</time></trkpt><trkpt lat="43.9919852" lon="7.9263039"><ele>758.6666666666667</ele><time>2026-04-19T08:31:42.841Z</time></trkpt><trkpt lat="43.9919813" lon="7.9261945"><ele>760.0</ele><time>2026-04-19T08:31:43.841Z</time></trkpt><trkpt lat="43.9919853" lon="7.9260829"><ele>760.0</ele><time>2026-04-19T08:31:44.841Z</time></trkpt><trkpt lat="43.9919932" lon="7.9259849"><ele>760.0</ele><time>2026-04-19T08:31:45.841Z</time></trkpt><trkpt lat="43.9919947" lon="7.925876"><ele>760.0</ele><time>2026-04-19T08:31:46.84Z</time></trkpt><trkpt lat="43.9920169" lon="7.9257706"><ele>760.0</ele><time>2026-04-19T08:31:47.84Z</time></trkpt><trkpt lat="43.9920184" lon="7.9256762"><ele>760.0</ele><time>2026-04-19T08:31:48.841Z</time></trkpt><trkpt lat="43.992034" lon="7.9255699"><ele>760.0</ele><time>2026-04-19T08:31:49.841Z</time></trkpt><trkpt lat="43.9920669" lon="7.9254501"><ele>762.2</ele><time>2026-04-19T08:31:50.841Z</time></trkpt><trkpt lat="43.992085" lon="7.9253257"><ele>764.4</ele><time>2026-04-19T08:31:51.841Z</time></trkpt><trkpt lat="43.9921188" lon="7.925192"><ele>766.5999999999999</ele><time>2026-04-19T08:31:52.841Z</time></trkpt><trkpt lat="43.9921126" lon="7.9250671"><ele>768.8</ele><time>2026-04-19T08:31:53.84Z</time></trkpt><trkpt lat="43.9921171" lon="7.9249147"><ele>771.0</ele><time>2026-04-19T08:31:54.841Z</time></trkpt><trkpt lat="43.9921091" lon="7.9247623"><ele>771.5</ele><time>2026-04-19T08:31:55.841Z</time></trkpt><trkpt lat="43.9920957" lon="7.9246113"><ele>772.0</ele><time>2026-04-19T08:31:56.84Z</time></trkpt><trkpt lat="43.9920733" lon="7.9244555"><ele>772.5</ele><time>2026-04-19T08:31:57.841Z</time></trkpt><trkpt lat="43.9920547" lon="7.9243026"><ele>773.0</ele><time>2026-04-19T08:31:58.839Z</time></trkpt><trkpt lat="43.992035" lon="7.9241452"><ele>773.5999999999999</ele><time>2026-04-19T08:31:59.841Z</time></trkpt><trkpt lat="43.9920225" lon="7.9239894"><ele>774.1999999999999</ele><time>2026-04-19T08:32:00.842Z</time></trkpt><trkpt lat="43.9920153" lon="7.9238424"><ele>774.8</ele><time>2026-04-19T08:32:01.842Z</time></trkpt><trkpt lat="43.9920055" lon="7.9237017"><ele>775.4</ele><time>2026-04-19T08:32:02.841Z</time></trkpt><trkpt lat="43.9919848" lon="7.9235777"><ele>776.0</ele><time>2026-04-19T08:32:03.841Z</time></trkpt><trkpt lat="43.9919442" lon="7.9234749"><ele>776.1999999999999</ele><time>2026-04-19T08:32:04.84Z</time></trkpt><trkpt lat="43.9918932" lon="7.923382"><ele>776.4</ele><time>2026-04-19T08:32:05.842Z</time></trkpt><trkpt lat="43.991853" lon="7.9232971"><ele>776.6</ele><time>2026-04-19T08:32:06.84Z</time></trkpt><trkpt lat="43.9918335" lon="7.9231638"><ele>776.8</ele><time>2026-04-19T08:32:08.841Z</time></trkpt><trkpt lat="43.9919292" lon="7.9231352"><ele>777.0</ele><time>2026-04-19T08:32:11.841Z</time></trkpt><trkpt lat="43.9920235" lon="7.9232195"><ele>777.0</ele><time>2026-04-19T08:32:13.841Z</time></trkpt><trkpt lat="43.9920774" lon="7.923291"><ele>777.0</ele><time>2026-04-19T08:32:14.841Z</time></trkpt><trkpt lat="43.9921391" lon="7.9233535"><ele>777.0</ele><time>2026-04-19T08:32:15.84Z</time></trkpt><trkpt lat="43.9921807" lon="7.9234558"><ele>777.0</ele><time>2026-04-19T08:32:16.841Z</time></trkpt><trkpt lat="43.9922117" lon="7.9235745"><ele>777.0</ele><time>2026-04-19T08:32:17.841Z</time></trkpt><trkpt lat="43.992234" lon="7.9236986"><ele>777.0</ele><time>2026-04-19T08:32:18.84Z</time></trkpt><trkpt lat="43.9922617" lon="7.923829"><ele>776.8</ele><time>2026-04-19T08:32:19.841Z</time></trkpt><trkpt lat="43.9922976" lon="7.9239563"><ele>776.6</ele><time>2026-04-19T08:32:20.841Z</time></trkpt><trkpt lat="43.9923275" lon="7.924093"><ele>776.4</ele><time>2026-04-19T08:32:21.841Z</time></trkpt><trkpt lat="43.9923611" lon="7.9242367"><ele>776.1999999999999</ele><time>2026-04-19T08:32:22.84Z</time></trkpt><trkpt lat="43.9923746" lon="7.9243816"><ele>776.0</ele><time>2026-04-19T08:32:23.84Z</time></trkpt><trkpt lat="43.992387" lon="7.9245203"><ele>775.4</ele><time>2026-04-19T08:32:24.841Z</time></trkpt><trkpt lat="43.9924021" lon="7.9246468"><ele>774.8</ele><time>2026-04-19T08:32:25.84Z</time></trkpt><trkpt lat="43.9924179" lon="7.9247844"><ele>774.1999999999999</ele><time>2026-04-19T08:32:26.841Z</time></trkpt><trkpt lat="43.9924453" lon="7.9249138"><ele>773.5999999999999</ele><time>2026-04-19T08:32:27.84Z</time></trkpt><trkpt lat="43.9924925" lon="7.925028"><ele>773.0</ele><time>2026-04-19T08:32:28.841Z</time></trkpt><trkpt lat="43.9925306" lon="7.9251449"><ele>778.0000000000001</ele><time>2026-04-19T08:32:29.84Z</time></trkpt><trkpt lat="43.9925644" lon="7.9252652"><ele>783.0</ele><time>2026-04-19T08:32:30.841Z</time></trkpt><trkpt lat="43.9925887" lon="7.925392"><ele>788.0</ele><time>2026-04-19T08:32:31.841Z</time></trkpt><trkpt lat="43.9926075" lon="7.9254974"><ele>793.0</ele><time>2026-04-19T08:32:32.841Z</time></trkpt><trkpt lat="43.9926236" lon="7.9255937"><ele>798.0000000000001</ele><time>2026-04-19T08:32:33.841Z</time></trkpt><trkpt lat="43.9926414" lon="7.9256835"><ele>803.0</ele><time>2026-04-19T08:32:34.84Z</time></trkpt><trkpt lat="43.9926762" lon="7.9257813"><ele>803.0</ele><time>2026-04-19T08:32:36.842Z</time></trkpt><trkpt lat="43.9927416" lon="7.9257835"><ele>803.0</ele><time>2026-04-19T08:32:39.841Z</time></trkpt><trkpt lat="43.9927394" lon="7.9256343"><ele>803.0</ele><time>2026-04-19T08:32:42.841Z</time></trkpt><trkpt lat="43.9927435" lon="7.9254559"><ele>803.0</ele><time>2026-04-19T08:32:44.842Z</time></trkpt><trkpt lat="43.9927439" lon="7.9253511"><ele>803.0</ele><time>2026-04-19T08:32:45.841Z</time></trkpt><trkpt lat="43.9927455" lon="7.9252378"><ele>803.0</ele><time>2026-04-19T08:32:46.841Z</time></trkpt><trkpt lat="43.9927469" lon="7.9251206"><ele>803.0</ele><time>2026-04-19T08:32:47.841Z</time></trkpt><trkpt lat="43.992748" lon="7.9250008"><ele>803.0</ele><time>2026-04-19T08:32:48.84Z</time></trkpt><trkpt lat="43.9927456" lon="7.9248643"><ele>803.0</ele><time>2026-04-19T08:32:49.841Z</time></trkpt><trkpt lat="43.9927482" lon="7.9247221"><ele>803.0</ele><time>2026-04-19T08:32:50.841Z</time></trkpt><trkpt lat="43.9927486" lon="7.9245753"><ele>804.0</ele><time>2026-04-19T08:32:51.84Z</time></trkpt><trkpt lat="43.9927476" lon="7.9244276"><ele>805.0</ele><time>2026-04-19T08:32:52.84Z</time></trkpt><trkpt lat="43.9927402" lon="7.9242732"><ele>806.0</ele><time>2026-04-19T08:32:53.841Z</time></trkpt><trkpt lat="43.992728" lon="7.9241247"><ele>807.0</ele><time>2026-04-19T08:32:54.841Z</time></trkpt><trkpt lat="43.9927298" lon="7.923965"><ele>808.0</ele><time>2026-04-19T08:32:55.841Z</time></trkpt><trkpt lat="43.9927216" lon="7.9238166"><ele>808.0</ele><time>2026-04-19T08:32:56.841Z</time></trkpt><trkpt lat="43.9927442" lon="7.9236732"><ele>808.0</ele><time>2026-04-19T08:32:57.841Z</time></trkpt><trkpt lat="43.992763" lon="7.9235402"><ele>808.0</ele><time>2026-04-19T08:32:58.841Z</time></trkpt><trkpt lat="43.9928286" lon="7.9234255"><ele>808.0</ele><time>2026-04-19T08:32:59.841Z</time></trkpt><trkpt lat="43.9928927" lon="7.9233082"><ele>808.0</ele><time>2026-04-19T08:33:00.841Z</time></trkpt><trkpt lat="43.9929724" lon="7.9232023"><ele>807.5</ele><time>2026-04-19T08:33:01.841Z</time></trkpt><trkpt lat="43.9930644" lon="7.9231182"><ele>807.0</ele><time>2026-04-19T08:33:02.841Z</time></trkpt><trkpt lat="43.9931733" lon="7.9230535"><ele>806.5</ele><time>2026-04-19T08:33:03.84Z</time></trkpt><trkpt lat="43.9932773" lon="7.9229758"><ele>806.0</ele><time>2026-04-19T08:33:04.841Z</time></trkpt><trkpt lat="43.9933776" lon="7.9228894"><ele>807.5</ele><time>2026-04-19T08:33:05.841Z</time></trkpt><trkpt lat="43.9934688" lon="7.922787"><ele>809.0</ele><time>2026-04-19T08:33:06.841Z</time></trkpt><trkpt lat="43.9935508" lon="7.9226893"><ele>810.5</ele><time>2026-04-19T08:33:07.841Z</time></trkpt><trkpt lat="43.9936496" lon="7.9225951"><ele>812.0</ele><time>2026-04-19T08:33:08.841Z</time></trkpt><trkpt lat="43.9937635" lon="7.9225139"><ele>812.0</ele><time>2026-04-19T08:33:09.84Z</time></trkpt><trkpt lat="43.9938672" lon="7.9224315"><ele>812.0</ele><time>2026-04-19T08:33:10.84Z</time></trkpt><trkpt lat="43.9939809" lon="7.9223474"><ele>812.0</ele><time>2026-04-19T08:33:11.842Z</time></trkpt><trkpt lat="43.9940963" lon="7.9222659"><ele>812.0</ele><time>2026-04-19T08:33:12.84Z</time></trkpt><trkpt lat="43.9942096" lon="7.9221757"><ele>817.25</ele><time>2026-04-19T08:33:13.841Z</time></trkpt><trkpt lat="43.9943214" lon="7.9220936"><ele>822.5</ele><time>2026-04-19T08:33:14.841Z</time></trkpt><trkpt lat="43.9944345" lon="7.9220057"><ele>827.75</ele><time>2026-04-19T08:33:15.841Z</time></trkpt><trkpt lat="43.9945438" lon="7.921915"><ele>833.0</ele><time>2026-04-19T08:33:16.84Z</time></trkpt><trkpt lat="43.9946626" lon="7.9218291"><ele>833.0</ele><time>2026-04-19T08:33:17.84Z</time></trkpt><trkpt lat="43.9947762" lon="7.9217458"><ele>833.0</ele><time>2026-04-19T08:33:18.842Z</time></trkpt><trkpt lat="43.9948914" lon="7.9216563"><ele>833.0</ele><time>2026-04-19T08:33:19.84Z</time></trkpt><trkpt lat="43.9950043" lon="7.9215762"><ele>833.0</ele><time>2026-04-19T08:33:20.841Z</time></trkpt><trkpt lat="43.9951179" lon="7.9214952"><ele>830.25</ele><time>2026-04-19T08:33:21.841Z</time></trkpt><trkpt lat="43.9952318" lon="7.921398"><ele>827.5</ele><time>2026-04-19T08:33:22.841Z</time></trkpt><trkpt lat="43.9952612" lon="7.9212182"><ele>824.75</ele><time>2026-04-19T08:33:23.841Z</time></trkpt><trkpt lat="43.9953028" lon="7.9210706"><ele>822.0</ele><time>2026-04-19T08:33:24.841Z</time></trkpt><trkpt lat="43.9953201" lon="7.9209101"><ele>821.0</ele><time>2026-04-19T08:33:25.84Z</time></trkpt><trkpt lat="43.9953349" lon="7.9207416"><ele>820.0</ele><time>2026-04-19T08:33:26.841Z</time></trkpt><trkpt lat="43.9953429" lon="7.9205817"><ele>819.0</ele><time>2026-04-19T08:33:27.84Z</time></trkpt><trkpt lat="43.9953559" lon="7.9204183"><ele>818.0</ele><time>2026-04-19T08:33:28.841Z</time></trkpt><trkpt lat="43.9953634" lon="7.9202484"><ele>818.0</ele><time>2026-04-19T08:33:29.84Z</time></trkpt><trkpt lat="43.9953753" lon="7.9200902"><ele>818.0</ele><time>2026-04-19T08:33:30.84Z</time></trkpt><trkpt lat="43.9953819" lon="7.9199341"><ele>818.0</ele><time>2026-04-19T08:33:31.841Z</time></trkpt><trkpt lat="43.9954083" lon="7.9197911"><ele>818.0</ele><time>2026-04-19T08:33:32.841Z</time></trkpt><trkpt lat="43.9954792" lon="7.919667"><ele>818.0</ele><time>2026-04-19T08:33:33.84Z</time></trkpt><trkpt lat="43.9955499" lon="7.9195519"><ele>818.2</ele><time>2026-04-19T08:33:34.841Z</time></trkpt><trkpt lat="43.9956201" lon="7.9194385"><ele>818.4</ele><time>2026-04-19T08:33:35.84Z</time></trkpt><trkpt lat="43.9956585" lon="7.9192961"><ele>818.6</ele><time>2026-04-19T08:33:36.84Z</time></trkpt><trkpt lat="43.9956618" lon="7.9191299"><ele>818.8000000000001</ele><time>2026-04-19T08:33:37.841Z</time></trkpt><trkpt lat="43.9956865" lon="7.9189773"><ele>819.0</ele><time>2026-04-19T08:33:38.841Z</time></trkpt><trkpt lat="43.9957502" lon="7.9188679"><ele>818.6</ele><time>2026-04-19T08:33:39.841Z</time></trkpt><trkpt lat="43.9958242" lon="7.918794"><ele>818.2</ele><time>2026-04-19T08:33:40.84Z</time></trkpt><trkpt lat="43.9959005" lon="7.9187133"><ele>817.8000000000001</ele><time>2026-04-19T08:33:41.841Z</time></trkpt><trkpt lat="43.9959759" lon="7.9186274"><ele>817.4000000000001</ele><time>2026-04-19T08:33:42.839Z</time></trkpt><trkpt lat="43.9960263" lon="7.9185169"><ele>817.0</ele><time>2026-04-19T08:33:43.841Z</time></trkpt><trkpt lat="43.9960766" lon="7.9184008"><ele>823.4000000000001</ele><time>2026-04-19T08:33:44.841Z</time></trkpt><trkpt lat="43.9960743" lon="7.9182721"><ele>829.8000000000001</ele><time>2026-04-19T08:33:45.841Z</time></trkpt><trkpt lat="43.9960815" lon="7.9181424"><ele>836.2</ele><time>2026-04-19T08:33:46.841Z</time></trkpt><trkpt lat="43.9960646" lon="7.9179936"><ele>842.6</ele><time>2026-04-19T08:33:47.841Z</time></trkpt><trkpt lat="43.9960838" lon="7.917876"><ele>849.0</ele><time>2026-04-19T08:33:48.842Z</time></trkpt><trkpt lat="43.9961069" lon="7.9177386"><ele>849.0</ele><time>2026-04-19T08:33:49.84Z</time></trkpt><trkpt lat="43.996176" lon="7.9176262"><ele>849.0</ele><time>2026-04-19T08:33:50.841Z</time></trkpt><trkpt lat="43.9962297" lon="7.9174921"><ele>849.0</ele><time>2026-04-19T08:33:51.841Z</time></trkpt><trkpt lat="43.9962988" lon="7.9173996"><ele>849.0</ele><time>2026-04-19T08:33:52.841Z</time></trkpt><trkpt lat="43.9963622" lon="7.9173134"><ele>849.0</ele><time>2026-04-19T08:33:53.842Z</time></trkpt><trkpt lat="43.9964388" lon="7.9172392"><ele>846.6</ele><time>2026-04-19T08:33:54.841Z</time></trkpt><trkpt lat="43.9965013" lon="7.9171471"><ele>844.2</ele><time>2026-04-19T08:33:55.841Z</time></trkpt><trkpt lat="43.9966065" lon="7.9170535"><ele>841.8000000000001</ele><time>2026-04-19T08:33:56.84Z</time></trkpt><trkpt lat="43.9966847" lon="7.9169894"><ele>839.4000000000001</ele><time>2026-04-19T08:33:57.841Z</time></trkpt><trkpt lat="43.9967681" lon="7.9168767"><ele>837.0</ele><time>2026-04-19T08:33:58.842Z</time></trkpt><trkpt lat="43.9968281" lon="7.9167407"><ele>840.0</ele><time>2026-04-19T08:33:59.841Z</time></trkpt><trkpt lat="43.9968692" lon="7.9165842"><ele>843.0</ele><time>2026-04-19T08:34:00.842Z</time></trkpt><trkpt lat="43.9968831" lon="7.9164373"><ele>846.0</ele><time>2026-04-19T08:34:01.84Z</time></trkpt><trkpt lat="43.9968937" lon="7.9162882"><ele>849.0</ele><time>2026-04-19T08:34:02.839Z</time></trkpt><trkpt lat="43.9969044" lon="7.916139"><ele>852.0</ele><time>2026-04-19T08:34:03.841Z</time></trkpt><trkpt lat="43.9969294" lon="7.9160026"><ele>851.5</ele><time>2026-04-19T08:34:04.841Z</time></trkpt><trkpt lat="43.9969505" lon="7.9158616"><ele>851.0</ele><time>2026-04-19T08:34:05.841Z</time></trkpt><trkpt lat="43.9969882" lon="7.9157005"><ele>850.5</ele><time>2026-04-19T08:34:06.84Z</time></trkpt><trkpt lat="43.9970246" lon="7.9155506"><ele>850.0</ele><time>2026-04-19T08:34:07.841Z</time></trkpt><trkpt lat="43.9970474" lon="7.9153994"><ele>850.0</ele><time>2026-04-19T08:34:08.84Z</time></trkpt><trkpt lat="43.9970593" lon="7.9152308"><ele>850.0</ele><time>2026-04-19T08:34:09.841Z</time></trkpt><trkpt lat="43.9970459" lon="7.9150733"><ele>850.0</ele><time>2026-04-19T08:34:10.84Z</time></trkpt><trkpt lat="43.9969896" lon="7.9149294"><ele>850.0</ele><time>2026-04-19T08:34:11.84Z</time></trkpt><trkpt lat="43.9969348" lon="7.914788"><ele>849.5</ele><time>2026-04-19T08:34:12.841Z</time></trkpt><trkpt lat="43.9968554" lon="7.9146702"><ele>849.0</ele><time>2026-04-19T08:34:13.841Z</time></trkpt><trkpt lat="43.9967882" lon="7.9145487"><ele>848.5</ele><time>2026-04-19T08:34:14.841Z</time></trkpt><trkpt lat="43.9967298" lon="7.9143768"><ele>848.0</ele><time>2026-04-19T08:34:15.841Z</time></trkpt><trkpt lat="43.9966888" lon="7.9142147"><ele>843.0</ele><time>2026-04-19T08:34:16.841Z</time></trkpt><trkpt lat="43.9966495" lon="7.9140573"><ele>838.0</ele><time>2026-04-19T08:34:17.841Z</time></trkpt><trkpt lat="43.9966038" lon="7.9138846"><ele>833.0</ele><time>2026-04-19T08:34:18.841Z</time></trkpt><trkpt lat="43.9965621" lon="7.9137128"><ele>828.0</ele><time>2026-04-19T08:34:19.842Z</time></trkpt><trkpt lat="43.9965265" lon="7.9135505"><ele>829.5</ele><time>2026-04-19T08:34:20.841Z</time></trkpt><trkpt lat="43.9964947" lon="7.9133914"><ele>831.0</ele><time>2026-04-19T08:34:21.84Z</time></trkpt><trkpt lat="43.9964732" lon="7.9132218"><ele>832.5</ele><time>2026-04-19T08:34:22.841Z</time></trkpt><trkpt lat="43.9964537" lon="7.9130465"><ele>834.0</ele><time>2026-04-19T08:34:23.842Z</time></trkpt><trkpt lat="43.9964349" lon="7.9128699"><ele>834.0</ele><time>2026-04-19T08:34:24.842Z</time></trkpt><trkpt lat="43.9964158" lon="7.9127027"><ele>834.0</ele><time>2026-04-19T08:34:25.841Z</time></trkpt><trkpt lat="43.9963971" lon="7.9125387"><ele>834.0</ele><time>2026-04-19T08:34:26.842Z</time></trkpt><trkpt lat="43.9963613" lon="7.9123667"><ele>834.0</ele><time>2026-04-19T08:34:27.841Z</time></trkpt><trkpt lat="43.9963013" lon="7.9122203"><ele>835.5</ele><time>2026-04-19T08:34:28.841Z</time></trkpt><trkpt lat="43.9962305" lon="7.9120671"><ele>837.0</ele><time>2026-04-19T08:34:29.841Z</time></trkpt><trkpt lat="43.9961523" lon="7.9119179"><ele>838.5</ele><time>2026-04-19T08:34:30.84Z</time></trkpt><trkpt lat="43.9960928" lon="7.9117613"><ele>840.0</ele><time>2026-04-19T08:34:31.841Z</time></trkpt><trkpt lat="43.9960273" lon="7.9116134"><ele>843.75</ele><time>2026-04-19T08:34:32.841Z</time></trkpt><trkpt lat="43.9959497" lon="7.9114716"><ele>847.5</ele><time>2026-04-19T08:34:33.841Z</time></trkpt><trkpt lat="43.9958853" lon="7.9113178"><ele>851.25</ele><time>2026-04-19T08:34:34.841Z</time></trkpt><trkpt lat="43.9958207" lon="7.9111819"><ele>855.0</ele><time>2026-04-19T08:34:35.84Z</time></trkpt><trkpt lat="43.9957973" lon="7.9110184"><ele>852.0</ele><time>2026-04-19T08:34:36.84Z</time></trkpt><trkpt lat="43.9957807" lon="7.9108533"><ele>849.0</ele><time>2026-04-19T08:34:37.841Z</time></trkpt><trkpt lat="43.9957365" lon="7.9107112"><ele>846.0</ele><time>2026-04-19T08:34:38.84Z</time></trkpt><trkpt lat="43.9956893" lon="7.910593"><ele>843.0</ele><time>2026-04-19T08:34:39.84Z</time></trkpt><trkpt lat="43.9956155" lon="7.9105013"><ele>840.0</ele><time>2026-04-19T08:34:40.841Z</time></trkpt><trkpt lat="43.9955422" lon="7.9104499"><ele>840.0</ele><time>2026-04-19T08:34:41.84Z</time></trkpt><trkpt lat="43.9954668" lon="7.9103958"><ele>840.0</ele><time>2026-04-19T08:34:42.841Z</time></trkpt><trkpt lat="43.9953886" lon="7.9103365"><ele>840.0</ele><time>2026-04-19T08:34:43.841Z</time></trkpt><trkpt lat="43.9953214" lon="7.9102882"><ele>840.0</ele><time>2026-04-19T08:34:44.84Z</time></trkpt><trkpt lat="43.9952686" lon="7.9102178"><ele>840.0</ele><time>2026-04-19T08:34:45.839Z</time></trkpt><trkpt lat="43.9952689" lon="7.9100708"><ele>840.0</ele><time>2026-04-19T08:34:47.84Z</time></trkpt><trkpt lat="43.9953751" lon="7.9099784"><ele>842.0</ele><time>2026-04-19T08:34:49.841Z</time></trkpt><trkpt lat="43.9954434" lon="7.9099253"><ele>844.0</ele><time>2026-04-19T08:34:50.841Z</time></trkpt><trkpt lat="43.9955072" lon="7.9098554"><ele>846.0</ele><time>2026-04-19T08:34:51.841Z</time></trkpt><trkpt lat="43.9955689" lon="7.9097739"><ele>848.0</ele><time>2026-04-19T08:34:52.841Z</time></trkpt><trkpt lat="43.9956241" lon="7.909689"><ele>850.0</ele><time>2026-04-19T08:34:53.842Z</time></trkpt><trkpt lat="43.9956737" lon="7.90958"><ele>852.0</ele><time>2026-04-19T08:34:54.841Z</time></trkpt><trkpt lat="43.9957134" lon="7.9094539"><ele>852.0</ele><time>2026-04-19T08:34:55.84Z</time></trkpt><trkpt lat="43.995749" lon="7.9093297"><ele>852.0</ele><time>2026-04-19T08:34:56.841Z</time></trkpt><trkpt lat="43.9957958" lon="7.9092061"><ele>852.0</ele><time>2026-04-19T08:34:57.84Z</time></trkpt><trkpt lat="43.9958334" lon="7.9090992"><ele>852.0</ele><time>2026-04-19T08:34:58.84Z</time></trkpt><trkpt lat="43.995877" lon="7.9090136"><ele>852.0</ele><time>2026-04-19T08:34:59.841Z</time></trkpt><trkpt lat="43.9959621" lon="7.9089501"><ele>853.5</ele><time>2026-04-19T08:35:00.841Z</time></trkpt><trkpt lat="43.9960347" lon="7.9089463"><ele>855.0</ele><time>2026-04-19T08:35:01.841Z</time></trkpt><trkpt lat="43.9961243" lon="7.9089986"><ele>856.5</ele><time>2026-04-19T08:35:02.841Z</time></trkpt><trkpt lat="43.9962123" lon="7.9090162"><ele>858.0</ele><time>2026-04-19T08:35:03.841Z</time></trkpt><trkpt lat="43.9962934" lon="7.9090036"><ele>859.5</ele><time>2026-04-19T08:35:04.841Z</time></trkpt><trkpt lat="43.9963912" lon="7.9089599"><ele>861.0</ele><time>2026-04-19T08:35:05.842Z</time></trkpt><trkpt lat="43.9964737" lon="7.9089146"><ele>861.0</ele><time>2026-04-19T08:35:06.842Z</time></trkpt><trkpt lat="43.996557" lon="7.9088582"><ele>861.0</ele><time>2026-04-19T08:35:07.841Z</time></trkpt><trkpt lat="43.9966397" lon="7.9088164"><ele>861.0</ele><time>2026-04-19T08:35:08.841Z</time></trkpt><trkpt lat="43.9967271" lon="7.9087981"><ele>861.0</ele><time>2026-04-19T08:35:09.841Z</time></trkpt><trkpt lat="43.9968152" lon="7.9087972"><ele>861.0</ele><time>2026-04-19T08:35:10.84Z</time></trkpt><trkpt lat="43.996904" lon="7.9088046"><ele>861.0</ele><time>2026-04-19T08:35:11.841Z</time></trkpt><trkpt lat="43.9969931" lon="7.9088451"><ele>863.8</ele><time>2026-04-19T08:35:12.842Z</time></trkpt><trkpt lat="43.9970917" lon="7.9088304"><ele>866.5999999999999</ele><time>2026-04-19T08:35:13.841Z</time></trkpt><trkpt lat="43.9972008" lon="7.908819"><ele>869.4</ele><time>2026-04-19T08:35:14.841Z</time></trkpt><trkpt lat="43.9972941" lon="7.9087838"><ele>872.2</ele><time>2026-04-19T08:35:15.841Z</time></trkpt><trkpt lat="43.9973589" lon="7.9087574"><ele>875.0</ele><time>2026-04-19T08:35:16.842Z</time></trkpt><trkpt lat="43.9974459" lon="7.9087042"><ele>875.0</ele><time>2026-04-19T08:35:17.841Z</time></trkpt><trkpt lat="43.9975001" lon="7.908571"><ele>875.0</ele><time>2026-04-19T08:35:18.841Z</time></trkpt><trkpt lat="43.9975439" lon="7.9084539"><ele>875.0</ele><time>2026-04-19T08:35:19.841Z</time></trkpt><trkpt lat="43.997584" lon="7.9083264"><ele>875.0</ele><time>2026-04-19T08:35:20.84Z</time></trkpt><trkpt lat="43.9976122" lon="7.9081957"><ele>875.0</ele><time>2026-04-19T08:35:21.841Z</time></trkpt><trkpt lat="43.9976115" lon="7.9080506"><ele>878.6</ele><time>2026-04-19T08:35:22.842Z</time></trkpt><trkpt lat="43.9976238" lon="7.9079199"><ele>882.2</ele><time>2026-04-19T08:35:23.841Z</time></trkpt><trkpt lat="43.9976279" lon="7.9077847"><ele>885.8</ele><time>2026-04-19T08:35:24.841Z</time></trkpt><trkpt lat="43.997647" lon="7.9076278"><ele>889.4</ele><time>2026-04-19T08:35:25.841Z</time></trkpt><trkpt lat="43.9976627" lon="7.9074701"><ele>893.0</ele><time>2026-04-19T08:35:26.841Z</time></trkpt><trkpt lat="43.9976786" lon="7.9073079"><ele>893.75</ele><time>2026-04-19T08:35:27.84Z</time></trkpt><trkpt lat="43.997695" lon="7.907146"><ele>894.5</ele><time>2026-04-19T08:35:28.84Z</time></trkpt><trkpt lat="43.9977101" lon="7.9069917"><ele>895.25</ele><time>2026-04-19T08:35:29.84Z</time></trkpt><trkpt lat="43.9977267" lon="7.9068306"><ele>896.0</ele><time>2026-04-19T08:35:30.841Z</time></trkpt><trkpt lat="43.9977454" lon="7.9066849"><ele>894.1999999999999</ele><time>2026-04-19T08:35:31.84Z</time></trkpt><trkpt lat="43.9977693" lon="7.9065428"><ele>892.3999999999999</ele><time>2026-04-19T08:35:32.841Z</time></trkpt><trkpt lat="43.9978324" lon="7.9064224"><ele>890.6</ele><time>2026-04-19T08:35:33.84Z</time></trkpt><trkpt lat="43.9978896" lon="7.906289"><ele>888.8</ele><time>2026-04-19T08:35:34.839Z</time></trkpt><trkpt lat="43.9979583" lon="7.9061646"><ele>887.0</ele><time>2026-04-19T08:35:35.84Z</time></trkpt><trkpt lat="43.9980319" lon="7.9060447"><ele>887.0</ele><time>2026-04-19T08:35:36.839Z</time></trkpt><trkpt lat="43.9981032" lon="7.9059253"><ele>887.0</ele><time>2026-04-19T08:35:37.84Z</time></trkpt><trkpt lat="43.9981488" lon="7.9057992"><ele>887.0</ele><time>2026-04-19T08:35:38.841Z</time></trkpt><trkpt lat="43.9981875" lon="7.9056666"><ele>887.0</ele><time>2026-04-19T08:35:39.841Z</time></trkpt><trkpt lat="43.998225" lon="7.9055378"><ele>887.0</ele><time>2026-04-19T08:35:40.84Z</time></trkpt><trkpt lat="43.9982149" lon="7.905402"><ele>883.8</ele><time>2026-04-19T08:35:41.841Z</time></trkpt><trkpt lat="43.9981836" lon="7.9052718"><ele>880.6</ele><time>2026-04-19T08:35:42.841Z</time></trkpt><trkpt lat="43.998154" lon="7.9051476"><ele>877.3999999999999</ele><time>2026-04-19T08:35:43.841Z</time></trkpt><trkpt lat="43.9981076" lon="7.9050309"><ele>874.1999999999999</ele><time>2026-04-19T08:35:44.84Z</time></trkpt><trkpt lat="43.9980626" lon="7.9049084"><ele>871.0</ele><time>2026-04-19T08:35:45.841Z</time></trkpt><trkpt lat="43.9980121" lon="7.9047727"><ele>871.0</ele><time>2026-04-19T08:35:46.841Z</time></trkpt><trkpt lat="43.9979654" lon="7.9046329"><ele>871.0</ele><time>2026-04-19T08:35:47.841Z</time></trkpt><trkpt lat="43.9979181" lon="7.9044817"><ele>871.0</ele><time>2026-04-19T08:35:48.842Z</time></trkpt><trkpt lat="43.9978765" lon="7.9043174"><ele>871.0</ele><time>2026-04-19T08:35:49.841Z</time></trkpt><trkpt lat="43.9978449" lon="7.9041637"><ele>872.4</ele><time>2026-04-19T08:35:50.84Z</time></trkpt><trkpt lat="43.9978154" lon="7.9040031"><ele>873.8</ele><time>2026-04-19T08:35:51.84Z</time></trkpt><trkpt lat="43.9977876" lon="7.9038589"><ele>875.1999999999999</ele><time>2026-04-19T08:35:52.84Z</time></trkpt><trkpt lat="43.9977791" lon="7.9037271"><ele>876.5999999999999</ele><time>2026-04-19T08:35:53.84Z</time></trkpt><trkpt lat="43.9977934" lon="7.9036016"><ele>878.0</ele><time>2026-04-19T08:35:54.841Z</time></trkpt><trkpt lat="43.9978208" lon="7.9034813"><ele>875.5714285714286</ele><time>2026-04-19T08:35:55.841Z</time></trkpt><trkpt lat="43.9978734" lon="7.903413"><ele>873.1428571428571</ele><time>2026-04-19T08:35:56.841Z</time></trkpt><trkpt lat="43.9979231" lon="7.9033461"><ele>870.7142857142858</ele><time>2026-04-19T08:35:57.841Z</time></trkpt><trkpt lat="43.9979931" lon="7.9033644"><ele>868.2857142857142</ele><time>2026-04-19T08:35:58.84Z</time></trkpt><trkpt lat="43.998062" lon="7.903375"><ele>865.8571428571429</ele><time>2026-04-19T08:35:59.84Z</time></trkpt><trkpt lat="43.998135" lon="7.9033762"><ele>863.4285714285714</ele><time>2026-04-19T08:36:00.84Z</time></trkpt><trkpt lat="43.9982145" lon="7.9033713"><ele>861.0</ele><time>2026-04-19T08:36:01.84Z</time></trkpt><trkpt lat="43.9982986" lon="7.9033568"><ele>869.0</ele><time>2026-04-19T08:36:02.841Z</time></trkpt><trkpt lat="43.9983831" lon="7.9033348"><ele>876.9999999999999</ele><time>2026-04-19T08:36:03.84Z</time></trkpt><trkpt lat="43.9984708" lon="7.9033058"><ele>884.9999999999999</ele><time>2026-04-19T08:36:04.841Z</time></trkpt><trkpt lat="43.9985603" lon="7.9032677"><ele>893.0</ele><time>2026-04-19T08:36:05.84Z</time></trkpt><trkpt lat="43.9986521" lon="7.9032215"><ele>901.0</ele><time>2026-04-19T08:36:06.841Z</time></trkpt><trkpt lat="43.9987453" lon="7.9031608"><ele>901.0</ele><time>2026-04-19T08:36:07.841Z</time></trkpt><trkpt lat="43.9988279" lon="7.9030719"><ele>900.9999999999999</ele><time>2026-04-19T08:36:08.841Z</time></trkpt><trkpt lat="43.9989096" lon="7.9029755"><ele>900.9999999999999</ele><time>2026-04-19T08:36:09.841Z</time></trkpt><trkpt lat="43.9989864" lon="7.9028709"><ele>901.0</ele><time>2026-04-19T08:36:10.84Z</time></trkpt><trkpt lat="43.9990623" lon="7.9027683"><ele>901.0</ele><time>2026-04-19T08:36:11.841Z</time></trkpt><trkpt lat="43.9991348" lon="7.902681"><ele>907.1999999999999</ele><time>2026-04-19T08:36:12.841Z</time></trkpt><trkpt lat="43.9992156" lon="7.9026218"><ele>913.3999999999999</ele><time>2026-04-19T08:36:13.842Z</time></trkpt><trkpt lat="43.9993004" lon="7.9026041"><ele>919.6</ele><time>2026-04-19T08:36:14.841Z</time></trkpt><trkpt lat="43.9993973" lon="7.9026072"><ele>925.8</ele><time>2026-04-19T08:36:15.841Z</time></trkpt><trkpt lat="43.9994945" lon="7.9026356"><ele>932.0</ele><time>2026-04-19T08:36:16.841Z</time></trkpt><trkpt lat="43.9995931" lon="7.9026593"><ele>932.0</ele><time>2026-04-19T08:36:17.84Z</time></trkpt><trkpt lat="43.9996971" lon="7.9026714"><ele>932.0</ele><time>2026-04-19T08:36:18.842Z</time></trkpt><trkpt lat="43.9998036" lon="7.9026684"><ele>932.0</ele><time>2026-04-19T08:36:19.839Z</time></trkpt><trkpt lat="43.9999113" lon="7.9026458"><ele>932.0</ele><time>2026-04-19T08:36:20.841Z</time></trkpt><trkpt lat="44.0000151" lon="7.9026085"><ele>932.0</ele><time>2026-04-19T08:36:21.841Z</time></trkpt><trkpt lat="44.0001029" lon="7.902545"><ele>922.6</ele><time>2026-04-19T08:36:22.841Z</time></trkpt><trkpt lat="44.0001776" lon="7.9024604"><ele>913.2</ele><time>2026-04-19T08:36:23.841Z</time></trkpt><trkpt lat="44.0002264" lon="7.9023469"><ele>903.8</ele><time>2026-04-19T08:36:24.841Z</time></trkpt><trkpt lat="44.0002614" lon="7.902232"><ele>894.4</ele><time>2026-04-19T08:36:25.841Z</time></trkpt><trkpt lat="44.0002864" lon="7.9021165"><ele>885.0</ele><time>2026-04-19T08:36:26.841Z</time></trkpt><trkpt lat="44.000341" lon="7.9020263"><ele>885.0</ele><time>2026-04-19T08:36:27.842Z</time></trkpt><trkpt lat="44.000395" lon="7.9019645"><ele>885.0</ele><time>2026-04-19T08:36:28.84Z</time></trkpt><trkpt lat="44.000494" lon="7.9019401"><ele>885.0</ele><time>2026-04-19T08:36:29.841Z</time></trkpt><trkpt lat="44.0005818" lon="7.9018869"><ele>885.0</ele><time>2026-04-19T08:36:30.841Z</time></trkpt><trkpt lat="44.0006745" lon="7.9018475"><ele>885.0</ele><time>2026-04-19T08:36:31.842Z</time></trkpt><trkpt lat="44.000766" lon="7.90179"><ele>886.0</ele><time>2026-04-19T08:36:32.841Z</time></trkpt><trkpt lat="44.0008391" lon="7.901704"><ele>887.0</ele><time>2026-04-19T08:36:33.841Z</time></trkpt><trkpt lat="44.0008836" lon="7.901587"><ele>888.0</ele><time>2026-04-19T08:36:34.842Z</time></trkpt><trkpt lat="44.0009154" lon="7.9014498"><ele>889.0</ele><time>2026-04-19T08:36:35.841Z</time></trkpt><trkpt lat="44.0009371" lon="7.9013061"><ele>890.0</ele><time>2026-04-19T08:36:36.841Z</time></trkpt><trkpt lat="44.0009793" lon="7.9011687"><ele>890.0</ele><time>2026-04-19T08:36:37.84Z</time></trkpt><trkpt lat="44.0010228" lon="7.9010386"><ele>890.0</ele><time>2026-04-19T08:36:38.841Z</time></trkpt><trkpt lat="44.0010746" lon="7.9009159"><ele>890.0</ele><time>2026-04-19T08:36:39.841Z</time></trkpt><trkpt lat="44.0011395" lon="7.9008084"><ele>890.0</ele><time>2026-04-19T08:36:40.842Z</time></trkpt><trkpt lat="44.0011887" lon="7.9006924"><ele>890.0</ele><time>2026-04-19T08:36:41.841Z</time></trkpt><trkpt lat="44.001203" lon="7.9005577"><ele>886.6</ele><time>2026-04-19T08:36:42.84Z</time></trkpt><trkpt lat="44.0012066" lon="7.9004252"><ele>883.2</ele><time>2026-04-19T08:36:43.84Z</time></trkpt><trkpt lat="44.0011864" lon="7.9002904"><ele>879.8</ele><time>2026-04-19T08:36:44.842Z</time></trkpt><trkpt lat="44.0011577" lon="7.9001445"><ele>876.4</ele><time>2026-04-19T08:36:45.841Z</time></trkpt><trkpt lat="44.0011154" lon="7.900012"><ele>873.0</ele><time>2026-04-19T08:36:46.841Z</time></trkpt><trkpt lat="44.0010728" lon="7.8998616"><ele>873.0</ele><time>2026-04-19T08:36:47.841Z</time></trkpt><trkpt lat="44.0010357" lon="7.8997157"><ele>873.0</ele><time>2026-04-19T08:36:48.841Z</time></trkpt><trkpt lat="44.0010103" lon="7.8995567"><ele>873.0</ele><time>2026-04-19T08:36:49.841Z</time></trkpt><trkpt lat="44.0010109" lon="7.8993796"><ele>873.0</ele><time>2026-04-19T08:36:50.841Z</time></trkpt><trkpt lat="44.0010227" lon="7.8992126"><ele>875.0</ele><time>2026-04-19T08:36:51.84Z</time></trkpt><trkpt lat="44.0010311" lon="7.8990314"><ele>877.0</ele><time>2026-04-19T08:36:52.841Z</time></trkpt><trkpt lat="44.0010364" lon="7.8988533"><ele>879.0</ele><time>2026-04-19T08:36:53.842Z</time></trkpt><trkpt lat="44.0010363" lon="7.8986749"><ele>881.0</ele><time>2026-04-19T08:36:54.84Z</time></trkpt><trkpt lat="44.0010378" lon="7.8985129"><ele>880.4</ele><time>2026-04-19T08:36:55.841Z</time></trkpt><trkpt lat="44.00104" lon="7.8983677"><ele>879.8</ele><time>2026-04-19T08:36:56.842Z</time></trkpt><trkpt lat="44.0010711" lon="7.8982226"><ele>879.1999999999999</ele><time>2026-04-19T08:36:57.84Z</time></trkpt><trkpt lat="44.001113" lon="7.8981102"><ele>878.5999999999999</ele><time>2026-04-19T08:36:58.84Z</time></trkpt><trkpt lat="44.0012017" lon="7.8980592"><ele>878.0</ele><time>2026-04-19T08:36:59.842Z</time></trkpt><trkpt lat="44.0012809" lon="7.8980123"><ele>878.0</ele><time>2026-04-19T08:37:00.841Z</time></trkpt><trkpt lat="44.0013545" lon="7.8979841"><ele>878.0</ele><time>2026-04-19T08:37:01.84Z</time></trkpt><trkpt lat="44.001474" lon="7.8979864"><ele>878.0</ele><time>2026-04-19T08:37:02.84Z</time></trkpt><trkpt lat="44.0015822" lon="7.8979536"><ele>878.0</ele><time>2026-04-19T08:37:03.841Z</time></trkpt><trkpt lat="44.0016599" lon="7.8979"><ele>878.0</ele><time>2026-04-19T08:37:04.841Z</time></trkpt><trkpt lat="44.001719" lon="7.897793"><ele>881.8</ele><time>2026-04-19T08:37:05.842Z</time></trkpt><trkpt lat="44.0017602" lon="7.897674"><ele>885.5999999999999</ele><time>2026-04-19T08:37:06.841Z</time></trkpt><trkpt lat="44.0017874" lon="7.8975499"><ele>889.4000000000001</ele><time>2026-04-19T08:37:07.84Z</time></trkpt><trkpt lat="44.0018122" lon="7.8974157"><ele>893.2</ele><time>2026-04-19T08:37:08.841Z</time></trkpt><trkpt lat="44.0018459" lon="7.8973049"><ele>897.0</ele><time>2026-04-19T08:37:09.841Z</time></trkpt><trkpt lat="44.0018978" lon="7.8971656"><ele>897.0</ele><time>2026-04-19T08:37:10.84Z</time></trkpt><trkpt lat="44.001924" lon="7.8970432"><ele>897.0</ele><time>2026-04-19T08:37:11.839Z</time></trkpt><trkpt lat="44.0019242" lon="7.8969045"><ele>897.0</ele><time>2026-04-19T08:37:12.84Z</time></trkpt><trkpt lat="44.0019012" lon="7.896772"><ele>897.0</ele><time>2026-04-19T08:37:13.84Z</time></trkpt><trkpt lat="44.0018702" lon="7.8966433"><ele>897.0</ele><time>2026-04-19T08:37:14.84Z</time></trkpt><trkpt lat="44.0018505" lon="7.8965072"><ele>894.8</ele><time>2026-04-19T08:37:15.841Z</time></trkpt><trkpt lat="44.0018245" lon="7.896393"><ele>892.6</ele><time>2026-04-19T08:37:16.841Z</time></trkpt><trkpt lat="44.0018259" lon="7.8962468"><ele>890.3999999999999</ele><time>2026-04-19T08:37:17.842Z</time></trkpt><trkpt lat="44.0019091" lon="7.8961295"><ele>888.1999999999999</ele><time>2026-04-19T08:37:18.84Z</time></trkpt><trkpt lat="44.0019755" lon="7.8960175"><ele>886.0</ele><time>2026-04-19T08:37:19.841Z</time></trkpt><trkpt lat="44.0020322" lon="7.8958941"><ele>883.5</ele><time>2026-04-19T08:37:20.84Z</time></trkpt><trkpt lat="44.0020823" lon="7.8957637"><ele>881.0</ele><time>2026-04-19T08:37:21.841Z</time></trkpt><trkpt lat="44.0021407" lon="7.8956216"><ele>878.5</ele><time>2026-04-19T08:37:22.841Z</time></trkpt><trkpt lat="44.0022101" lon="7.8954824"><ele>876.0</ele><time>2026-04-19T08:37:23.841Z</time></trkpt><trkpt lat="44.0022802" lon="7.8953449"><ele>876.0</ele><time>2026-04-19T08:37:24.84Z</time></trkpt><trkpt lat="44.0023743" lon="7.8952389"><ele>875.9999999999999</ele><time>2026-04-19T08:37:25.84Z</time></trkpt><trkpt lat="44.0024591" lon="7.8951476"><ele>875.9999999999999</ele><time>2026-04-19T08:37:26.841Z</time></trkpt><trkpt lat="44.0025507" lon="7.895046"><ele>876.0</ele><time>2026-04-19T08:37:27.84Z</time></trkpt><trkpt lat="44.0026098" lon="7.8949358"><ele>876.0</ele><time>2026-04-19T08:37:28.84Z</time></trkpt><trkpt lat="44.0026351" lon="7.8948051"><ele>882.4</ele><time>2026-04-19T08:37:29.841Z</time></trkpt><trkpt lat="44.0026367" lon="7.89467"><ele>888.8</ele><time>2026-04-19T08:37:30.841Z</time></trkpt><trkpt lat="44.0026207" lon="7.8945395"><ele>895.1999999999999</ele><time>2026-04-19T08:37:31.84Z</time></trkpt><trkpt lat="44.0026054" lon="7.894419"><ele>901.5999999999999</ele><time>2026-04-19T08:37:32.841Z</time></trkpt><trkpt lat="44.0026222" lon="7.8942607"><ele>908.0</ele><time>2026-04-19T08:37:33.841Z</time></trkpt><trkpt lat="44.002666" lon="7.8941233"><ele>908.0</ele><time>2026-04-19T08:37:34.839Z</time></trkpt><trkpt lat="44.0026662" lon="7.893967"><ele>908.0</ele><time>2026-04-19T08:37:35.841Z</time></trkpt><trkpt lat="44.0026619" lon="7.8938232"><ele>908.0</ele><time>2026-04-19T08:37:36.84Z</time></trkpt><trkpt lat="44.0025771" lon="7.8937324"><ele>908.0</ele><time>2026-04-19T08:37:37.841Z</time></trkpt><trkpt lat="44.0025048" lon="7.8936174"><ele>908.0</ele><time>2026-04-19T08:37:38.84Z</time></trkpt><trkpt lat="44.0024387" lon="7.8934978"><ele>902.4</ele><time>2026-04-19T08:37:39.841Z</time></trkpt><trkpt lat="44.0023779" lon="7.8934054"><ele>896.8</ele><time>2026-04-19T08:37:40.84Z</time></trkpt><trkpt lat="44.0023259" lon="7.893285"><ele>891.2</ele><time>2026-04-19T08:37:41.841Z</time></trkpt><trkpt lat="44.0022986" lon="7.8931567"><ele>885.6</ele><time>2026-04-19T08:37:42.841Z</time></trkpt><trkpt lat="44.0022918" lon="7.8930004"><ele>880.0</ele><time>2026-04-19T08:37:43.841Z</time></trkpt><trkpt lat="44.0022966" lon="7.8928727"><ele>880.0</ele><time>2026-04-19T08:37:44.842Z</time></trkpt><trkpt lat="44.0023206" lon="7.8927462"><ele>880.0</ele><time>2026-04-19T08:37:45.842Z</time></trkpt><trkpt lat="44.0023366" lon="7.8926032"><ele>880.0</ele><time>2026-04-19T08:37:46.841Z</time></trkpt><trkpt lat="44.0023175" lon="7.8924607"><ele>880.0</ele><time>2026-04-19T08:37:47.84Z</time></trkpt><trkpt lat="44.0022861" lon="7.892336"><ele>880.0</ele><time>2026-04-19T08:37:48.842Z</time></trkpt><trkpt lat="44.0022285" lon="7.892233"><ele>881.4</ele><time>2026-04-19T08:37:49.84Z</time></trkpt><trkpt lat="44.002173" lon="7.8921282"><ele>882.8</ele><time>2026-04-19T08:37:50.841Z</time></trkpt><trkpt lat="44.0021255" lon="7.8920001"><ele>884.2</ele><time>2026-04-19T08:37:51.841Z</time></trkpt><trkpt lat="44.0020804" lon="7.8918733"><ele>885.6</ele><time>2026-04-19T08:37:52.839Z</time></trkpt><trkpt lat="44.0020463" lon="7.8917338"><ele>887.0</ele><time>2026-04-19T08:37:53.841Z</time></trkpt><trkpt lat="44.0020146" lon="7.8915945"><ele>889.8</ele><time>2026-04-19T08:37:54.841Z</time></trkpt><trkpt lat="44.0020029" lon="7.8914541"><ele>892.6</ele><time>2026-04-19T08:37:55.841Z</time></trkpt><trkpt lat="44.0019951" lon="7.8913343"><ele>895.3999999999999</ele><time>2026-04-19T08:37:56.841Z</time></trkpt><trkpt lat="44.0019928" lon="7.891213"><ele>898.1999999999999</ele><time>2026-04-19T08:37:57.84Z</time></trkpt><trkpt lat="44.0019908" lon="7.8910885"><ele>901.0</ele><time>2026-04-19T08:37:58.84Z</time></trkpt><trkpt lat="44.0019453" lon="7.8909747"><ele>903.1999999999999</ele><time>2026-04-19T08:37:59.841Z</time></trkpt><trkpt lat="44.0019045" lon="7.8908617"><ele>905.3999999999999</ele><time>2026-04-19T08:38:00.84Z</time></trkpt><trkpt lat="44.0018736" lon="7.8907396"><ele>907.6</ele><time>2026-04-19T08:38:01.841Z</time></trkpt><trkpt lat="44.0018476" lon="7.8906007"><ele>909.8</ele><time>2026-04-19T08:38:02.842Z</time></trkpt><trkpt lat="44.0018443" lon="7.8904469"><ele>912.0</ele><time>2026-04-19T08:38:03.84Z</time></trkpt><trkpt lat="44.0017911" lon="7.8903082"><ele>912.0</ele><time>2026-04-19T08:38:04.84Z</time></trkpt><trkpt lat="44.0017502" lon="7.890164"><ele>912.0</ele><time>2026-04-19T08:38:05.842Z</time></trkpt><trkpt lat="44.0016973" lon="7.8899982"><ele>912.0</ele><time>2026-04-19T08:38:06.841Z</time></trkpt><trkpt lat="44.0016419" lon="7.8898446"><ele>912.0</ele><time>2026-04-19T08:38:07.841Z</time></trkpt><trkpt lat="44.0015702" lon="7.8897049"><ele>911.75</ele><time>2026-04-19T08:38:08.841Z</time></trkpt><trkpt lat="44.0014857" lon="7.8895881"><ele>911.5</ele><time>2026-04-19T08:38:09.84Z</time></trkpt><trkpt lat="44.0014085" lon="7.8894701"><ele>911.25</ele><time>2026-04-19T08:38:10.841Z</time></trkpt><trkpt lat="44.0013428" lon="7.8893409"><ele>911.0</ele><time>2026-04-19T08:38:11.841Z</time></trkpt><trkpt lat="44.0013055" lon="7.8891928"><ele>911.0</ele><time>2026-04-19T08:38:12.841Z</time></trkpt><trkpt lat="44.0012652" lon="7.8890301"><ele>911.0</ele><time>2026-04-19T08:38:13.84Z</time></trkpt><trkpt lat="44.0012031" lon="7.888876"><ele>911.0</ele><time>2026-04-19T08:38:14.84Z</time></trkpt><trkpt lat="44.0011388" lon="7.8887289"><ele>911.0</ele><time>2026-04-19T08:38:15.842Z</time></trkpt><trkpt lat="44.0010672" lon="7.8885784"><ele>916.0</ele><time>2026-04-19T08:38:16.841Z</time></trkpt><trkpt lat="44.0010082" lon="7.8884165"><ele>921.0</ele><time>2026-04-19T08:38:17.84Z</time></trkpt><trkpt lat="44.0009541" lon="7.888259"><ele>926.0</ele><time>2026-04-19T08:38:18.841Z</time></trkpt><trkpt lat="44.0008849" lon="7.8881051"><ele>931.0</ele><time>2026-04-19T08:38:19.84Z</time></trkpt><trkpt lat="44.0008397" lon="7.8879439"><ele>927.25</ele><time>2026-04-19T08:38:20.84Z</time></trkpt><trkpt lat="44.0007813" lon="7.8877863"><ele>923.5</ele><time>2026-04-19T08:38:21.841Z</time></trkpt><trkpt lat="44.0007134" lon="7.8876377"><ele>919.75</ele><time>2026-04-19T08:38:22.84Z</time></trkpt><trkpt lat="44.0006357" lon="7.8875037"><ele>916.0</ele><time>2026-04-19T08:38:23.841Z</time></trkpt><trkpt lat="44.0005551" lon="7.8873799"><ele>916.0</ele><time>2026-04-19T08:38:24.842Z</time></trkpt><trkpt lat="44.0004959" lon="7.8872631"><ele>915.9999999999999</ele><time>2026-04-19T08:38:25.84Z</time></trkpt><trkpt lat="44.0004627" lon="7.8871377"><ele>915.9999999999999</ele><time>2026-04-19T08:38:26.839Z</time></trkpt><trkpt lat="44.0004611" lon="7.8870021"><ele>916.0</ele><time>2026-04-19T08:38:27.84Z</time></trkpt><trkpt lat="44.0004789" lon="7.8868651"><ele>916.0</ele><time>2026-04-19T08:38:28.841Z</time></trkpt><trkpt lat="44.0005097" lon="7.8867266"><ele>913.75</ele><time>2026-04-19T08:38:29.84Z</time></trkpt><trkpt lat="44.000541" lon="7.8865853"><ele>911.5</ele><time>2026-04-19T08:38:30.84Z</time></trkpt><trkpt lat="44.0005524" lon="7.8864231"><ele>909.25</ele><time>2026-04-19T08:38:31.841Z</time></trkpt><trkpt lat="44.0005541" lon="7.8862638"><ele>907.0</ele><time>2026-04-19T08:38:32.84Z</time></trkpt><trkpt lat="44.0005512" lon="7.8861018"><ele>907.0</ele><time>2026-04-19T08:38:33.841Z</time></trkpt><trkpt lat="44.0005568" lon="7.8859357"><ele>907.0</ele><time>2026-04-19T08:38:34.841Z</time></trkpt><trkpt lat="44.0005929" lon="7.8857786"><ele>907.0</ele><time>2026-04-19T08:38:35.841Z</time></trkpt><trkpt lat="44.0006624" lon="7.8856406"><ele>907.0</ele><time>2026-04-19T08:38:36.84Z</time></trkpt><trkpt lat="44.0007545" lon="7.8855222"><ele>905.5</ele><time>2026-04-19T08:38:37.84Z</time></trkpt><trkpt lat="44.0008324" lon="7.8853911"><ele>904.0</ele><time>2026-04-19T08:38:38.841Z</time></trkpt><trkpt lat="44.0008853" lon="7.8852405"><ele>902.5</ele><time>2026-04-19T08:38:39.84Z</time></trkpt><trkpt lat="44.0009175" lon="7.885069"><ele>901.0</ele><time>2026-04-19T08:38:40.84Z</time></trkpt><trkpt lat="44.0009507" lon="7.884908"><ele>911.25</ele><time>2026-04-19T08:38:41.84Z</time></trkpt><trkpt lat="44.0009823" lon="7.8847385"><ele>921.5</ele><time>2026-04-19T08:38:42.841Z</time></trkpt><trkpt lat="44.0010111" lon="7.8845695"><ele>931.75</ele><time>2026-04-19T08:38:43.84Z</time></trkpt><trkpt lat="44.0010326" lon="7.8843975"><ele>942.0</ele><time>2026-04-19T08:38:44.84Z</time></trkpt><trkpt lat="44.0010372" lon="7.884232"><ele>942.0</ele><time>2026-04-19T08:38:45.841Z</time></trkpt><trkpt lat="44.0010214" lon="7.88407"><ele>942.0</ele><time>2026-04-19T08:38:46.841Z</time></trkpt><trkpt lat="44.000986" lon="7.8839229"><ele>942.0</ele><time>2026-04-19T08:38:47.839Z</time></trkpt><trkpt lat="44.0009259" lon="7.8837867"><ele>942.0</ele><time>2026-04-19T08:38:48.841Z</time></trkpt><trkpt lat="44.0008573" lon="7.8836528"><ele>937.0</ele><time>2026-04-19T08:38:49.841Z</time></trkpt><trkpt lat="44.0007841" lon="7.8835186"><ele>932.0</ele><time>2026-04-19T08:38:50.841Z</time></trkpt><trkpt lat="44.000709" lon="7.8833842"><ele>927.0</ele><time>2026-04-19T08:38:51.84Z</time></trkpt><trkpt lat="44.0006296" lon="7.8832502"><ele>922.0</ele><time>2026-04-19T08:38:52.839Z</time></trkpt><trkpt lat="44.0005533" lon="7.8831112"><ele>922.0</ele><time>2026-04-19T08:38:53.841Z</time></trkpt><trkpt lat="44.0004764" lon="7.8829801"><ele>922.0</ele><time>2026-04-19T08:38:54.841Z</time></trkpt><trkpt lat="44.0003916" lon="7.8828427"><ele>922.0</ele><time>2026-04-19T08:38:55.841Z</time></trkpt><trkpt lat="44.0003109" lon="7.8827049"><ele>922.0</ele><time>2026-04-19T08:38:56.841Z</time></trkpt><trkpt lat="44.0002288" lon="7.8825637"><ele>927.25</ele><time>2026-04-19T08:38:57.841Z</time></trkpt><trkpt lat="44.0001423" lon="7.882424"><ele>932.5</ele><time>2026-04-19T08:38:58.841Z</time></trkpt><trkpt lat="44.0000581" lon="7.8822931"><ele>937.75</ele><time>2026-04-19T08:38:59.84Z</time></trkpt><trkpt lat="43.9999839" lon="7.8821675"><ele>943.0</ele><time>2026-04-19T08:39:00.841Z</time></trkpt><trkpt lat="43.9999268" lon="7.8820382"><ele>943.0</ele><time>2026-04-19T08:39:01.84Z</time></trkpt><trkpt lat="43.9999208" lon="7.8819034"><ele>943.0</ele><time>2026-04-19T08:39:02.84Z</time></trkpt><trkpt lat="43.9999282" lon="7.8817733"><ele>943.0</ele><time>2026-04-19T08:39:03.841Z</time></trkpt><trkpt lat="43.9999986" lon="7.881659"><ele>943.0</ele><time>2026-04-19T08:39:04.841Z</time></trkpt><trkpt lat="44.0000749" lon="7.881558"><ele>943.0</ele><time>2026-04-19T08:39:05.84Z</time></trkpt><trkpt lat="44.0001539" lon="7.8814642"><ele>944.5999999999999</ele><time>2026-04-19T08:39:06.841Z</time></trkpt><trkpt lat="44.0002441" lon="7.8813644"><ele>946.1999999999999</ele><time>2026-04-19T08:39:07.841Z</time></trkpt><trkpt lat="44.0003334" lon="7.8812744"><ele>947.8</ele><time>2026-04-19T08:39:08.841Z</time></trkpt><trkpt lat="44.0004132" lon="7.8811759"><ele>949.4</ele><time>2026-04-19T08:39:09.841Z</time></trkpt><trkpt lat="44.000476" lon="7.8810614"><ele>951.0</ele><time>2026-04-19T08:39:10.841Z</time></trkpt><trkpt lat="44.0005128" lon="7.8809499"><ele>948.0</ele><time>2026-04-19T08:39:11.84Z</time></trkpt><trkpt lat="44.0005504" lon="7.880824"><ele>944.9999999999999</ele><time>2026-04-19T08:39:12.841Z</time></trkpt><trkpt lat="44.0006109" lon="7.8806986"><ele>941.9999999999999</ele><time>2026-04-19T08:39:13.84Z</time></trkpt><trkpt lat="44.0006929" lon="7.8806016"><ele>939.0</ele><time>2026-04-19T08:39:14.841Z</time></trkpt><trkpt lat="44.0007826" lon="7.8805086"><ele>936.0</ele><time>2026-04-19T08:39:15.841Z</time></trkpt><trkpt lat="44.0008393" lon="7.8803814"><ele>933.5999999999999</ele><time>2026-04-19T08:39:16.841Z</time></trkpt><trkpt lat="44.0008773" lon="7.8802358"><ele>931.1999999999999</ele><time>2026-04-19T08:39:17.842Z</time></trkpt><trkpt lat="44.0008879" lon="7.8800858"><ele>928.8000000000001</ele><time>2026-04-19T08:39:18.841Z</time></trkpt><trkpt lat="44.0008783" lon="7.8799287"><ele>926.4000000000001</ele><time>2026-04-19T08:39:19.841Z</time></trkpt><trkpt lat="44.0008471" lon="7.8797795"><ele>924.0</ele><time>2026-04-19T08:39:20.841Z</time></trkpt><trkpt lat="44.0007982" lon="7.8796344"><ele>924.0</ele><time>2026-04-19T08:39:21.84Z</time></trkpt><trkpt lat="44.0007496" lon="7.8794936"><ele>924.0</ele><time>2026-04-19T08:39:22.84Z</time></trkpt><trkpt lat="44.0007414" lon="7.87933"><ele>924.0</ele><time>2026-04-19T08:39:23.841Z</time></trkpt><trkpt lat="44.0007562" lon="7.8791688"><ele>924.0</ele><time>2026-04-19T08:39:24.841Z</time></trkpt><trkpt lat="44.0007855" lon="7.8790231"><ele>923.4000000000001</ele><time>2026-04-19T08:39:25.841Z</time></trkpt><trkpt lat="44.0008164" lon="7.8788745"><ele>922.8000000000001</ele><time>2026-04-19T08:39:26.841Z</time></trkpt><trkpt lat="44.0008567" lon="7.878741"><ele>922.1999999999999</ele><time>2026-04-19T08:39:27.841Z</time></trkpt><trkpt lat="44.0008875" lon="7.8785887"><ele>921.5999999999999</ele><time>2026-04-19T08:39:28.841Z</time></trkpt><trkpt lat="44.0008679" lon="7.8784278"><ele>921.0</ele><time>2026-04-19T08:39:29.84Z</time></trkpt><trkpt lat="44.0008702" lon="7.8782703"><ele>929.1999999999999</ele><time>2026-04-19T08:39:30.839Z</time></trkpt><trkpt lat="44.0008755" lon="7.878105"><ele>937.3999999999999</ele><time>2026-04-19T08:39:31.842Z</time></trkpt><trkpt lat="44.0009161" lon="7.877955"><ele>945.6</ele><time>2026-04-19T08:39:32.842Z</time></trkpt><trkpt lat="44.0009511" lon="7.8778198"><ele>953.8</ele><time>2026-04-19T08:39:33.841Z</time></trkpt><trkpt lat="44.0009659" lon="7.877684"><ele>962.0</ele><time>2026-04-19T08:39:34.841Z</time></trkpt><trkpt lat="44.0009827" lon="7.8775354"><ele>963.8</ele><time>2026-04-19T08:39:35.841Z</time></trkpt><trkpt lat="44.0009368" lon="7.8774039"><ele>965.6</ele><time>2026-04-19T08:39:36.84Z</time></trkpt><trkpt lat="44.0008841" lon="7.8772657"><ele>967.3999999999999</ele><time>2026-04-19T08:39:37.84Z</time></trkpt><trkpt lat="44.000844" lon="7.8771593"><ele>969.1999999999999</ele><time>2026-04-19T08:39:38.841Z</time></trkpt><trkpt lat="44.0008118" lon="7.8770417"><ele>971.0</ele><time>2026-04-19T08:39:39.84Z</time></trkpt><trkpt lat="44.0007926" lon="7.8769152"><ele>972.5999999999999</ele><time>2026-04-19T08:39:40.84Z</time></trkpt><trkpt lat="44.0008129" lon="7.8767805"><ele>974.1999999999999</ele><time>2026-04-19T08:39:41.841Z</time></trkpt><trkpt lat="44.0008454" lon="7.8766352"><ele>975.8000000000001</ele><time>2026-04-19T08:39:42.841Z</time></trkpt><trkpt lat="44.000891" lon="7.8765233"><ele>977.4000000000001</ele><time>2026-04-19T08:39:43.839Z</time></trkpt><trkpt lat="44.0009381" lon="7.8763982"><ele>979.0</ele><time>2026-04-19T08:39:44.842Z</time></trkpt><trkpt lat="44.0009713" lon="7.8762712"><ele>979.0</ele><time>2026-04-19T08:39:45.84Z</time></trkpt><trkpt lat="44.0009775" lon="7.8761277"><ele>979.0000000000001</ele><time>2026-04-19T08:39:46.84Z</time></trkpt><trkpt lat="44.0009294" lon="7.8760142"><ele>979.0000000000001</ele><time>2026-04-19T08:39:47.84Z</time></trkpt><trkpt lat="44.0008656" lon="7.8759117"><ele>979.0</ele><time>2026-04-19T08:39:48.841Z</time></trkpt><trkpt lat="44.0008061" lon="7.8758084"><ele>979.0</ele><time>2026-04-19T08:39:49.841Z</time></trkpt><trkpt lat="44.0007284" lon="7.87569"><ele>975.4000000000001</ele><time>2026-04-19T08:39:50.841Z</time></trkpt><trkpt lat="44.0006792" lon="7.8755528"><ele>971.8000000000001</ele><time>2026-04-19T08:39:51.84Z</time></trkpt><trkpt lat="44.000644" lon="7.875413"><ele>968.1999999999999</ele><time>2026-04-19T08:39:52.841Z</time></trkpt><trkpt lat="44.000588" lon="7.8752655"><ele>964.5999999999999</ele><time>2026-04-19T08:39:53.84Z</time></trkpt><trkpt lat="44.0005245" lon="7.8751457"><ele>961.0</ele><time>2026-04-19T08:39:54.841Z</time></trkpt><trkpt lat="44.0004564" lon="7.8750453"><ele>961.0</ele><time>2026-04-19T08:39:55.841Z</time></trkpt><trkpt lat="44.0004016" lon="7.874927"><ele>960.9999999999999</ele><time>2026-04-19T08:39:56.84Z</time></trkpt><trkpt lat="44.0004048" lon="7.8747764"><ele>960.9999999999999</ele><time>2026-04-19T08:39:57.84Z</time></trkpt><trkpt lat="44.0004053" lon="7.8746396"><ele>961.0</ele><time>2026-04-19T08:39:58.841Z</time></trkpt><trkpt lat="44.0004214" lon="7.874491"><ele>961.0</ele><time>2026-04-19T08:39:59.841Z</time></trkpt><trkpt lat="44.0004362" lon="7.8743475"><ele>962.5999999999999</ele><time>2026-04-19T08:40:00.842Z</time></trkpt><trkpt lat="44.0004515" lon="7.8741898"><ele>964.1999999999999</ele><time>2026-04-19T08:40:01.84Z</time></trkpt><trkpt lat="44.0004507" lon="7.8740403"><ele>965.8000000000001</ele><time>2026-04-19T08:40:02.841Z</time></trkpt><trkpt lat="44.0004335" lon="7.8738963"><ele>967.4000000000001</ele><time>2026-04-19T08:40:03.841Z</time></trkpt><trkpt lat="44.000408" lon="7.8737485"><ele>969.0</ele><time>2026-04-19T08:40:04.84Z</time></trkpt><trkpt lat="44.0003563" lon="7.8736199"><ele>969.0</ele><time>2026-04-19T08:40:05.843Z</time></trkpt><trkpt lat="44.0002833" lon="7.8735027"><ele>969.0000000000001</ele><time>2026-04-19T08:40:06.84Z</time></trkpt><trkpt lat="44.0002164" lon="7.8733807"><ele>969.0000000000001</ele><time>2026-04-19T08:40:07.841Z</time></trkpt><trkpt lat="44.0001478" lon="7.8732657"><ele>969.0</ele><time>2026-04-19T08:40:08.84Z</time></trkpt><trkpt lat="44.0000767" lon="7.8731502"><ele>969.0</ele><time>2026-04-19T08:40:09.84Z</time></trkpt><trkpt lat="44.0000058" lon="7.8730382"><ele>971.6</ele><time>2026-04-19T08:40:10.84Z</time></trkpt><trkpt lat="43.999933" lon="7.8729354"><ele>974.2</ele><time>2026-04-19T08:40:11.841Z</time></trkpt><trkpt lat="43.9998635" lon="7.872838"><ele>976.8000000000001</ele><time>2026-04-19T08:40:12.841Z</time></trkpt><trkpt lat="43.9997931" lon="7.8727485"><ele>979.4000000000001</ele><time>2026-04-19T08:40:13.84Z</time></trkpt><trkpt lat="43.9997261" lon="7.8726635"><ele>982.0</ele><time>2026-04-19T08:40:14.84Z</time></trkpt><trkpt lat="43.9996569" lon="7.8725818"><ele>981.9999999999999</ele><time>2026-04-19T08:40:15.841Z</time></trkpt><trkpt lat="43.9995864" lon="7.8725184"><ele>982.0</ele><time>2026-04-19T08:40:16.84Z</time></trkpt><trkpt lat="43.9995249" lon="7.8724487"><ele>982.0</ele><time>2026-04-19T08:40:17.84Z</time></trkpt><trkpt lat="43.9994674" lon="7.8724016"><ele>982.0</ele><time>2026-04-19T08:40:18.84Z</time></trkpt><trkpt lat="43.9993911" lon="7.872313"><ele>981.9999999999999</ele><time>2026-04-19T08:40:20.84Z</time></trkpt><trkpt lat="43.9993207" lon="7.8722517"><ele>982.0</ele><time>2026-04-19T08:40:23.839Z</time></trkpt><trkpt lat="43.9992559" lon="7.8722657"><ele>982.3333333333333</ele><time>2026-04-19T08:43:08.841Z</time></trkpt><trkpt lat="43.999163" lon="7.8722076"><ele>982.6666666666666</ele><time>2026-04-19T08:43:11.842Z</time></trkpt><trkpt lat="43.9990658" lon="7.8721454"><ele>983.0</ele><time>2026-04-19T08:43:13.84Z</time></trkpt><trkpt lat="43.9989682" lon="7.8720814"><ele>983.3333333333333</ele><time>2026-04-19T08:43:15.841Z</time></trkpt><trkpt lat="43.9989171" lon="7.8720247"><ele>983.6666666666666</ele><time>2026-04-19T08:43:16.84Z</time></trkpt><trkpt lat="43.9988589" lon="7.8719868"><ele>984.0</ele><time>2026-04-19T08:43:17.84Z</time></trkpt><trkpt lat="43.9988049" lon="7.871941"><ele>984.0</ele><time>2026-04-19T08:43:18.84Z</time></trkpt><trkpt lat="43.9987491" lon="7.8718894"><ele>984.0</ele><time>2026-04-19T08:43:19.841Z</time></trkpt><trkpt lat="43.9986935" lon="7.8718464"><ele>984.0</ele><time>2026-04-19T08:43:20.842Z</time></trkpt><trkpt lat="43.9986402" lon="7.8717952"><ele>984.0</ele><time>2026-04-19T08:43:21.841Z</time></trkpt><trkpt lat="43.9985282" lon="7.8717041"><ele>984.0</ele><time>2026-04-19T08:43:23.84Z</time></trkpt><trkpt lat="43.9984714" lon="7.8716533"><ele>984.0</ele><time>2026-04-19T08:43:24.84Z</time></trkpt><trkpt lat="43.9984118" lon="7.8716093"><ele>984.0</ele><time>2026-04-19T08:43:25.84Z</time></trkpt><trkpt lat="43.9983555" lon="7.8715557"><ele>984.0</ele><time>2026-04-19T08:43:26.839Z</time></trkpt><trkpt lat="43.9982914" lon="7.8714967"><ele>984.0</ele><time>2026-04-19T08:43:27.841Z</time></trkpt><trkpt lat="43.9982266" lon="7.8714441"><ele>984.0</ele><time>2026-04-19T08:43:28.841Z</time></trkpt><trkpt lat="43.998161" lon="7.8713923"><ele>984.0</ele><time>2026-04-19T08:43:29.841Z</time></trkpt><trkpt lat="43.9980959" lon="7.871332"><ele>984.0</ele><time>2026-04-19T08:43:30.841Z</time></trkpt><trkpt lat="43.998029" lon="7.8712722"><ele>984.0</ele><time>2026-04-19T08:43:31.841Z</time></trkpt><trkpt lat="43.9979575" lon="7.8712162"><ele>984.0</ele><time>2026-04-19T08:43:32.841Z</time></trkpt><trkpt lat="43.9978829" lon="7.8711738"><ele>984.0</ele><time>2026-04-19T08:43:33.841Z</time></trkpt><trkpt lat="43.9978063" lon="7.8711396"><ele>984.0</ele><time>2026-04-19T08:43:34.842Z</time></trkpt><trkpt lat="43.9977261" lon="7.8711194"><ele>984.0</ele><time>2026-04-19T08:43:35.84Z</time></trkpt><trkpt lat="43.9976461" lon="7.8711145"><ele>984.0</ele><time>2026-04-19T08:43:36.841Z</time></trkpt><trkpt lat="43.9975662" lon="7.8711235"><ele>983.6666666666666</ele><time>2026-04-19T08:43:37.841Z</time></trkpt><trkpt lat="43.9974876" lon="7.8711309"><ele>983.3333333333333</ele><time>2026-04-19T08:43:38.841Z</time></trkpt><trkpt lat="43.9974128" lon="7.8711429"><ele>983.0</ele><time>2026-04-19T08:43:39.84Z</time></trkpt><trkpt lat="43.9973251" lon="7.8711625"><ele>982.6666666666666</ele><time>2026-04-19T08:43:40.84Z</time></trkpt><trkpt lat="43.9972408" lon="7.8711941"><ele>982.3333333333333</ele><time>2026-04-19T08:43:41.84Z</time></trkpt><trkpt lat="43.9971612" lon="7.8712312"><ele>982.0</ele><time>2026-04-19T08:43:42.841Z</time></trkpt><trkpt lat="43.9970782" lon="7.8712641"><ele>981.9999999999999</ele><time>2026-04-19T08:43:43.84Z</time></trkpt><trkpt lat="43.9969947" lon="7.8713011"><ele>982.0</ele><time>2026-04-19T08:43:44.841Z</time></trkpt><trkpt lat="43.9969117" lon="7.8713287"><ele>982.0</ele><time>2026-04-19T08:43:45.842Z</time></trkpt><trkpt lat="43.996837" lon="7.8713497"><ele>982.0</ele><time>2026-04-19T08:43:46.84Z</time></trkpt><trkpt lat="43.9967623" lon="7.8713829"><ele>981.9999999999999</ele><time>2026-04-19T08:43:47.84Z</time></trkpt><trkpt lat="43.9966828" lon="7.8713969"><ele>982.0</ele><time>2026-04-19T08:43:48.84Z</time></trkpt><trkpt lat="43.9965965" lon="7.8713989"><ele>983.4999999999999</ele><time>2026-04-19T08:43:49.84Z</time></trkpt><trkpt lat="43.9965186" lon="7.8714016"><ele>985.0</ele><time>2026-04-19T08:43:50.841Z</time></trkpt><trkpt lat="43.9964352" lon="7.8713875"><ele>986.5</ele><time>2026-04-19T08:43:51.839Z</time></trkpt><trkpt lat="43.996363" lon="7.8713542"><ele>988.0</ele><time>2026-04-19T08:43:52.841Z</time></trkpt><trkpt lat="43.9962818" lon="7.8713083"><ele>989.4999999999999</ele><time>2026-04-19T08:43:53.84Z</time></trkpt><trkpt lat="43.9961969" lon="7.8712522"><ele>991.0</ele><time>2026-04-19T08:43:54.839Z</time></trkpt><trkpt lat="43.9961207" lon="7.8711815"><ele>991.0</ele><time>2026-04-19T08:43:55.841Z</time></trkpt><trkpt lat="43.9960417" lon="7.8711063"><ele>990.9999999999999</ele><time>2026-04-19T08:43:56.841Z</time></trkpt><trkpt lat="43.9959632" lon="7.8710332"><ele>990.9999999999999</ele><time>2026-04-19T08:43:57.84Z</time></trkpt><trkpt lat="43.9958824" lon="7.8709575"><ele>991.0</ele><time>2026-04-19T08:43:58.842Z</time></trkpt><trkpt lat="43.9958042" lon="7.8708883"><ele>991.0</ele><time>2026-04-19T08:43:59.84Z</time></trkpt><trkpt lat="43.9957242" lon="7.8708049"><ele>996.1999999999999</ele><time>2026-04-19T08:44:00.841Z</time></trkpt><trkpt lat="43.9956447" lon="7.8707355"><ele>1001.3999999999999</ele><time>2026-04-19T08:44:01.841Z</time></trkpt><trkpt lat="43.9955638" lon="7.8706679"><ele>1006.6</ele><time>2026-04-19T08:44:02.841Z</time></trkpt><trkpt lat="43.9954776" lon="7.8706255"><ele>1011.8</ele><time>2026-04-19T08:44:03.84Z</time></trkpt><trkpt lat="43.9953821" lon="7.8706071"><ele>1017.0</ele><time>2026-04-19T08:44:04.842Z</time></trkpt><trkpt lat="43.9952925" lon="7.870611"><ele>1017.0</ele><time>2026-04-19T08:44:05.84Z</time></trkpt><trkpt lat="43.9952003" lon="7.8706189"><ele>1017.0</ele><time>2026-04-19T08:44:06.842Z</time></trkpt><trkpt lat="43.9951177" lon="7.8706228"><ele>1017.0</ele><time>2026-04-19T08:44:07.84Z</time></trkpt><trkpt lat="43.9950253" lon="7.8705967"><ele>1017.0</ele><time>2026-04-19T08:44:08.842Z</time></trkpt><trkpt lat="43.9949311" lon="7.8705542"><ele>1017.0</ele><time>2026-04-19T08:44:09.841Z</time></trkpt><trkpt lat="43.9948442" lon="7.8705006"><ele>1015.4000000000001</ele><time>2026-04-19T08:44:10.839Z</time></trkpt><trkpt lat="43.9947588" lon="7.8704535"><ele>1013.8000000000001</ele><time>2026-04-19T08:44:11.841Z</time></trkpt><trkpt lat="43.9946646" lon="7.8704089"><ele>1012.2</ele><time>2026-04-19T08:44:12.84Z</time></trkpt><trkpt lat="43.9945674" lon="7.8703816"><ele>1010.6</ele><time>2026-04-19T08:44:13.84Z</time></trkpt><trkpt lat="43.9944708" lon="7.8703516"><ele>1009.0</ele><time>2026-04-19T08:44:14.841Z</time></trkpt><trkpt lat="43.9943712" lon="7.8703229"><ele>1009.0</ele><time>2026-04-19T08:44:15.839Z</time></trkpt><trkpt lat="43.9942813" lon="7.8702596"><ele>1009.0000000000001</ele><time>2026-04-19T08:44:16.841Z</time></trkpt><trkpt lat="43.9941829" lon="7.8701774"><ele>1009.0000000000001</ele><time>2026-04-19T08:44:17.84Z</time></trkpt><trkpt lat="43.9940948" lon="7.8700805"><ele>1009.0</ele><time>2026-04-19T08:44:18.841Z</time></trkpt><trkpt lat="43.9940161" lon="7.8699912"><ele>1009.0</ele><time>2026-04-19T08:44:19.842Z</time></trkpt><trkpt lat="43.9939314" lon="7.8699085"><ele>1014.0</ele><time>2026-04-19T08:44:20.841Z</time></trkpt><trkpt lat="43.9938413" lon="7.869844"><ele>1019.0000000000001</ele><time>2026-04-19T08:44:21.84Z</time></trkpt><trkpt lat="43.9937451" lon="7.8697844"><ele>1024.0</ele><time>2026-04-19T08:44:22.84Z</time></trkpt><trkpt lat="43.9936593" lon="7.8697104"><ele>1029.0</ele><time>2026-04-19T08:44:23.841Z</time></trkpt><trkpt lat="43.9935723" lon="7.8696441"><ele>1034.0</ele><time>2026-04-19T08:44:24.841Z</time></trkpt><trkpt lat="43.9934711" lon="7.8696296"><ele>1034.0</ele><time>2026-04-19T08:44:25.84Z</time></trkpt><trkpt lat="43.9933709" lon="7.8696163"><ele>1034.0</ele><time>2026-04-19T08:44:26.84Z</time></trkpt><trkpt lat="43.9932767" lon="7.8696053"><ele>1034.0</ele><time>2026-04-19T08:44:27.84Z</time></trkpt><trkpt lat="43.9931826" lon="7.8695728"><ele>1034.0</ele><time>2026-04-19T08:44:28.841Z</time></trkpt><trkpt lat="43.9930951" lon="7.8695669"><ele>1034.0</ele><time>2026-04-19T08:44:29.839Z</time></trkpt><trkpt lat="43.9930145" lon="7.8695829"><ele>1032.5</ele><time>2026-04-19T08:44:30.841Z</time></trkpt><trkpt lat="43.9929403" lon="7.8696295"><ele>1031.0</ele><time>2026-04-19T08:44:31.84Z</time></trkpt><trkpt lat="43.9928669" lon="7.8696789"><ele>1029.5</ele><time>2026-04-19T08:44:32.841Z</time></trkpt><trkpt lat="43.9927902" lon="7.8697351"><ele>1028.0</ele><time>2026-04-19T08:44:33.84Z</time></trkpt><trkpt lat="43.9926976" lon="7.8697537"><ele>1026.5</ele><time>2026-04-19T08:44:34.84Z</time></trkpt><trkpt lat="43.992624" lon="7.8697552"><ele>1025.0</ele><time>2026-04-19T08:44:35.84Z</time></trkpt><trkpt lat="43.9925469" lon="7.8697515"><ele>1026.1666666666667</ele><time>2026-04-19T08:44:36.841Z</time></trkpt><trkpt lat="43.9924106" lon="7.869704"><ele>1027.3333333333335</ele><time>2026-04-19T08:44:38.84Z</time></trkpt><trkpt lat="43.9923439" lon="7.8696614"><ele>1028.5</ele><time>2026-04-19T08:44:39.841Z</time></trkpt><trkpt lat="43.9922852" lon="7.8696063"><ele>1029.6666666666667</ele><time>2026-04-19T08:44:40.84Z</time></trkpt><trkpt lat="43.9922264" lon="7.8695418"><ele>1030.8333333333333</ele><time>2026-04-19T08:44:41.84Z</time></trkpt><trkpt lat="43.9921764" lon="7.8694499"><ele>1032.0</ele><time>2026-04-19T08:44:42.841Z</time></trkpt><trkpt lat="43.992129" lon="7.8693536"><ele>1037.5</ele><time>2026-04-19T08:44:43.84Z</time></trkpt><trkpt lat="43.9920727" lon="7.8692614"><ele>1043.0</ele><time>2026-04-19T08:44:44.84Z</time></trkpt><trkpt lat="43.9920022" lon="7.8691897"><ele>1048.5</ele><time>2026-04-19T08:44:45.839Z</time></trkpt><trkpt lat="43.9919237" lon="7.8691387"><ele>1054.0</ele><time>2026-04-19T08:44:46.84Z</time></trkpt><trkpt lat="43.9918393" lon="7.8691033"><ele>1059.5</ele><time>2026-04-19T08:44:47.841Z</time></trkpt><trkpt lat="43.9917597" lon="7.8690801"><ele>1065.0</ele><time>2026-04-19T08:44:48.84Z</time></trkpt><trkpt lat="43.9916768" lon="7.8690347"><ele>1062.5</ele><time>2026-04-19T08:44:49.841Z</time></trkpt><trkpt lat="43.9916001" lon="7.8689677"><ele>1060.0</ele><time>2026-04-19T08:44:50.841Z</time></trkpt><trkpt lat="43.9915313" lon="7.8688847"><ele>1057.5</ele><time>2026-04-19T08:44:51.841Z</time></trkpt><trkpt lat="43.9914592" lon="7.8688099"><ele>1055.0</ele><time>2026-04-19T08:44:52.842Z</time></trkpt><trkpt lat="43.9913889" lon="7.8687373"><ele>1052.5</ele><time>2026-04-19T08:44:53.841Z</time></trkpt><trkpt lat="43.9913171" lon="7.8686819"><ele>1050.0</ele><time>2026-04-19T08:44:54.839Z</time></trkpt><trkpt lat="43.9912377" lon="7.8686752"><ele>1050.0</ele><time>2026-04-19T08:44:55.839Z</time></trkpt><trkpt lat="43.9911718" lon="7.8686988"><ele>1050.0</ele><time>2026-04-19T08:44:56.841Z</time></trkpt><trkpt lat="43.9911074" lon="7.8687309"><ele>1050.0</ele><time>2026-04-19T08:44:57.841Z</time></trkpt><trkpt lat="43.9910488" lon="7.8687877"><ele>1050.0</ele><time>2026-04-19T08:44:58.842Z</time></trkpt><trkpt lat="43.9909826" lon="7.8688352"><ele>1050.0</ele><time>2026-04-19T08:44:59.84Z</time></trkpt><trkpt lat="43.9909085" lon="7.8688874"><ele>1050.0</ele><time>2026-04-19T08:45:00.84Z</time></trkpt><trkpt lat="43.9908383" lon="7.8689478"><ele>1050.0</ele><time>2026-04-19T08:45:01.841Z</time></trkpt><trkpt lat="43.9907807" lon="7.8690294"><ele>1047.4</ele><time>2026-04-19T08:45:02.841Z</time></trkpt><trkpt lat="43.9907284" lon="7.8691203"><ele>1044.8</ele><time>2026-04-19T08:45:03.839Z</time></trkpt><trkpt lat="43.9906821" lon="7.8692211"><ele>1042.2</ele><time>2026-04-19T08:45:04.84Z</time></trkpt><trkpt lat="43.9905969" lon="7.8694298"><ele>1039.6</ele><time>2026-04-19T08:45:06.841Z</time></trkpt><trkpt lat="43.9905515" lon="7.8695229"><ele>1037.0</ele><time>2026-04-19T08:45:07.841Z</time></trkpt><trkpt lat="43.9905028" lon="7.8696263"><ele>1037.0</ele><time>2026-04-19T08:45:08.84Z</time></trkpt><trkpt lat="43.9904367" lon="7.8697179"><ele>1037.0</ele><time>2026-04-19T08:45:09.84Z</time></trkpt><trkpt lat="43.9903627" lon="7.869797"><ele>1037.0</ele><time>2026-04-19T08:45:10.839Z</time></trkpt><trkpt lat="43.9902916" lon="7.8698571"><ele>1037.0</ele><time>2026-04-19T08:45:11.84Z</time></trkpt><trkpt lat="43.9902176" lon="7.8699252"><ele>1037.0</ele><time>2026-04-19T08:45:12.84Z</time></trkpt><trkpt lat="43.9901404" lon="7.8699873"><ele>1037.0</ele><time>2026-04-19T08:45:13.842Z</time></trkpt><trkpt lat="43.9900654" lon="7.8700509"><ele>1040.0</ele><time>2026-04-19T08:45:14.84Z</time></trkpt><trkpt lat="43.9899868" lon="7.8701105"><ele>1043.0</ele><time>2026-04-19T08:45:15.841Z</time></trkpt><trkpt lat="43.9899078" lon="7.8701641"><ele>1046.0</ele><time>2026-04-19T08:45:16.841Z</time></trkpt><trkpt lat="43.9898335" lon="7.8702201"><ele>1049.0</ele><time>2026-04-19T08:45:17.841Z</time></trkpt><trkpt lat="43.9897468" lon="7.8702412"><ele>1052.0</ele><time>2026-04-19T08:45:18.84Z</time></trkpt><trkpt lat="43.989665" lon="7.8702398"><ele>1055.0</ele><time>2026-04-19T08:45:19.84Z</time></trkpt><trkpt lat="43.989574" lon="7.8702284"><ele>1055.0</ele><time>2026-04-19T08:45:20.839Z</time></trkpt><trkpt lat="43.9894808" lon="7.8702422"><ele>1055.0</ele><time>2026-04-19T08:45:21.84Z</time></trkpt><trkpt lat="43.9893892" lon="7.8702569"><ele>1055.0</ele><time>2026-04-19T08:45:22.839Z</time></trkpt><trkpt lat="43.9892898" lon="7.8702848"><ele>1055.0</ele><time>2026-04-19T08:45:23.84Z</time></trkpt><trkpt lat="43.9891975" lon="7.8702986"><ele>1055.0</ele><time>2026-04-19T08:45:24.84Z</time></trkpt><trkpt lat="43.9891232" lon="7.8702899"><ele>1056.1666666666667</ele><time>2026-04-19T08:45:25.84Z</time></trkpt><trkpt lat="43.9890531" lon="7.8702611"><ele>1057.3333333333335</ele><time>2026-04-19T08:45:26.84Z</time></trkpt><trkpt lat="43.9890019" lon="7.8701715"><ele>1058.5</ele><time>2026-04-19T08:45:27.841Z</time></trkpt><trkpt lat="43.9889741" lon="7.8700669"><ele>1059.6666666666667</ele><time>2026-04-19T08:45:28.841Z</time></trkpt><trkpt lat="43.9889473" lon="7.8699628"><ele>1060.8333333333333</ele><time>2026-04-19T08:45:29.84Z</time></trkpt><trkpt lat="43.9889229" lon="7.8698661"><ele>1062.0</ele><time>2026-04-19T08:45:30.84Z</time></trkpt><trkpt lat="43.9889017" lon="7.8697704"><ele>1066.1666666666667</ele><time>2026-04-19T08:45:31.84Z</time></trkpt><trkpt lat="43.988858" lon="7.8696737"><ele>1070.3333333333333</ele><time>2026-04-19T08:45:32.841Z</time></trkpt><trkpt lat="43.9888184" lon="7.8695692"><ele>1074.5</ele><time>2026-04-19T08:45:33.841Z</time></trkpt><trkpt lat="43.9887774" lon="7.8694664"><ele>1078.6666666666665</ele><time>2026-04-19T08:45:34.839Z</time></trkpt><trkpt lat="43.9887367" lon="7.8693581"><ele>1082.8333333333333</ele><time>2026-04-19T08:45:35.84Z</time></trkpt><trkpt lat="43.9886965" lon="7.8692555"><ele>1087.0</ele><time>2026-04-19T08:45:36.84Z</time></trkpt><trkpt lat="43.9886543" lon="7.869157"><ele>1088.6666666666665</ele><time>2026-04-19T08:45:37.84Z</time></trkpt><trkpt lat="43.9886015" lon="7.8690609"><ele>1090.3333333333333</ele><time>2026-04-19T08:45:38.841Z</time></trkpt><trkpt lat="43.988544" lon="7.8689684"><ele>1092.0</ele><time>2026-04-19T08:45:39.84Z</time></trkpt><trkpt lat="43.988485" lon="7.8688985"><ele>1093.6666666666667</ele><time>2026-04-19T08:45:40.84Z</time></trkpt><trkpt lat="43.9884134" lon="7.8688686"><ele>1095.3333333333335</ele><time>2026-04-19T08:45:41.84Z</time></trkpt><trkpt lat="43.9883461" lon="7.8688754"><ele>1097.0</ele><time>2026-04-19T08:45:42.841Z</time></trkpt><trkpt lat="43.9882796" lon="7.8689111"><ele>1097.0</ele><time>2026-04-19T08:45:43.841Z</time></trkpt><trkpt lat="43.9882195" lon="7.868976"><ele>1097.0</ele><time>2026-04-19T08:45:44.84Z</time></trkpt><trkpt lat="43.9881575" lon="7.869034"><ele>1097.0</ele><time>2026-04-19T08:45:45.841Z</time></trkpt><trkpt lat="43.9880875" lon="7.8690848"><ele>1097.0</ele><time>2026-04-19T08:45:46.84Z</time></trkpt><trkpt lat="43.9880178" lon="7.8691398"><ele>1097.0</ele><time>2026-04-19T08:45:47.84Z</time></trkpt><trkpt lat="43.9879454" lon="7.8691926"><ele>1097.0</ele><time>2026-04-19T08:45:48.841Z</time></trkpt><trkpt lat="43.9878702" lon="7.8692329"><ele>1097.0</ele><time>2026-04-19T08:45:49.841Z</time></trkpt><trkpt lat="43.9877924" lon="7.8692502"><ele>1097.0</ele><time>2026-04-19T08:45:50.841Z</time></trkpt><trkpt lat="43.9877176" lon="7.8692314"><ele>1097.0</ele><time>2026-04-19T08:45:51.84Z</time></trkpt><trkpt lat="43.9876409" lon="7.8691845"><ele>1097.0</ele><time>2026-04-19T08:45:52.84Z</time></trkpt><trkpt lat="43.9875739" lon="7.869119"><ele>1097.0</ele><time>2026-04-19T08:45:53.841Z</time></trkpt><trkpt lat="43.9875117" lon="7.8690444"><ele>1097.0</ele><time>2026-04-19T08:45:54.84Z</time></trkpt><trkpt lat="43.9874551" lon="7.8689595"><ele>1097.3333333333335</ele><time>2026-04-19T08:45:55.84Z</time></trkpt><trkpt lat="43.9874051" lon="7.8688624"><ele>1097.6666666666667</ele><time>2026-04-19T08:45:56.84Z</time></trkpt><trkpt lat="43.9873561" lon="7.8687669"><ele>1098.0</ele><time>2026-04-19T08:45:57.841Z</time></trkpt><trkpt lat="43.9873068" lon="7.8686694"><ele>1098.3333333333333</ele><time>2026-04-19T08:45:58.841Z</time></trkpt><trkpt lat="43.9872569" lon="7.8685791"><ele>1098.6666666666665</ele><time>2026-04-19T08:45:59.841Z</time></trkpt><trkpt lat="43.9872041" lon="7.8684912"><ele>1099.0</ele><time>2026-04-19T08:46:00.84Z</time></trkpt><trkpt lat="43.9871448" lon="7.8684065"><ele>1099.0</ele><time>2026-04-19T08:46:01.842Z</time></trkpt><trkpt lat="43.9870722" lon="7.868349"><ele>1099.0</ele><time>2026-04-19T08:46:02.84Z</time></trkpt><trkpt lat="43.9869929" lon="7.8683162"><ele>1099.0</ele><time>2026-04-19T08:46:03.84Z</time></trkpt><trkpt lat="43.9869105" lon="7.8683166"><ele>1099.0</ele><time>2026-04-19T08:46:04.841Z</time></trkpt><trkpt lat="43.9868346" lon="7.8683467"><ele>1099.0</ele><time>2026-04-19T08:46:05.84Z</time></trkpt><trkpt lat="43.9867611" lon="7.8684126"><ele>1099.0</ele><time>2026-04-19T08:46:06.84Z</time></trkpt><trkpt lat="43.9866954" lon="7.8684704"><ele>1099.1666666666665</ele><time>2026-04-19T08:46:07.841Z</time></trkpt><trkpt lat="43.9866199" lon="7.868537"><ele>1099.3333333333333</ele><time>2026-04-19T08:46:08.84Z</time></trkpt><trkpt lat="43.9865373" lon="7.8685822"><ele>1099.5</ele><time>2026-04-19T08:46:09.84Z</time></trkpt><trkpt lat="43.9864604" lon="7.8686217"><ele>1099.6666666666667</ele><time>2026-04-19T08:46:10.841Z</time></trkpt><trkpt lat="43.9863935" lon="7.8686884"><ele>1099.8333333333335</ele><time>2026-04-19T08:46:11.839Z</time></trkpt><trkpt lat="43.9863367" lon="7.8687735"><ele>1100.0</ele><time>2026-04-19T08:46:12.84Z</time></trkpt><trkpt lat="43.9862871" lon="7.868861"><ele>1100.0</ele><time>2026-04-19T08:46:13.841Z</time></trkpt><trkpt lat="43.9862402" lon="7.86896"><ele>1100.0</ele><time>2026-04-19T08:46:14.841Z</time></trkpt><trkpt lat="43.9861923" lon="7.8690652"><ele>1100.0</ele><time>2026-04-19T08:46:15.84Z</time></trkpt><trkpt lat="43.9861282" lon="7.8691515"><ele>1100.0</ele><time>2026-04-19T08:46:16.84Z</time></trkpt><trkpt lat="43.9860625" lon="7.8692245"><ele>1100.0</ele><time>2026-04-19T08:46:17.839Z</time></trkpt><trkpt lat="43.9859794" lon="7.8692795"><ele>1100.0</ele><time>2026-04-19T08:46:18.841Z</time></trkpt><trkpt lat="43.9859017" lon="7.8693363"><ele>1100.8</ele><time>2026-04-19T08:46:19.839Z</time></trkpt><trkpt lat="43.9858262" lon="7.869405"><ele>1101.6</ele><time>2026-04-19T08:46:20.841Z</time></trkpt><trkpt lat="43.9857511" lon="7.8694768"><ele>1102.4</ele><time>2026-04-19T08:46:21.841Z</time></trkpt><trkpt lat="43.9856882" lon="7.8695634"><ele>1103.2</ele><time>2026-04-19T08:46:22.841Z</time></trkpt><trkpt lat="43.9856207" lon="7.8696498"><ele>1104.0</ele><time>2026-04-19T08:46:23.839Z</time></trkpt><trkpt lat="43.9855561" lon="7.869735"><ele>1104.0</ele><time>2026-04-19T08:46:24.84Z</time></trkpt><trkpt lat="43.9854917" lon="7.8698114"><ele>1104.0</ele><time>2026-04-19T08:46:25.841Z</time></trkpt><trkpt lat="43.9854251" lon="7.8698452"><ele>1104.0</ele><time>2026-04-19T08:46:26.84Z</time></trkpt><trkpt lat="43.985338" lon="7.8698644"><ele>1104.0</ele><time>2026-04-19T08:46:27.84Z</time></trkpt><trkpt lat="43.98526" lon="7.8698789"><ele>1104.0</ele><time>2026-04-19T08:46:28.842Z</time></trkpt><trkpt lat="43.985169" lon="7.8698599"><ele>1104.0</ele><time>2026-04-19T08:46:29.841Z</time></trkpt><trkpt lat="43.98509" lon="7.8698871"><ele>1102.1666666666667</ele><time>2026-04-19T08:46:30.84Z</time></trkpt><trkpt lat="43.9850075" lon="7.8699177"><ele>1100.3333333333333</ele><time>2026-04-19T08:46:31.841Z</time></trkpt><trkpt lat="43.9849143" lon="7.8699305"><ele>1098.5</ele><time>2026-04-19T08:46:32.842Z</time></trkpt><trkpt lat="43.9848383" lon="7.8699782"><ele>1096.6666666666665</ele><time>2026-04-19T08:46:33.839Z</time></trkpt><trkpt lat="43.9847683" lon="7.8700377"><ele>1094.8333333333333</ele><time>2026-04-19T08:46:34.84Z</time></trkpt><trkpt lat="43.9846863" lon="7.8700865"><ele>1093.0</ele><time>2026-04-19T08:46:35.841Z</time></trkpt><trkpt lat="43.9846077" lon="7.8701537"><ele>1093.0</ele><time>2026-04-19T08:46:36.84Z</time></trkpt><trkpt lat="43.9845282" lon="7.8702185"><ele>1093.0</ele><time>2026-04-19T08:46:37.841Z</time></trkpt><trkpt lat="43.9844598" lon="7.8702415"><ele>1093.0</ele><time>2026-04-19T08:46:38.84Z</time></trkpt><trkpt lat="43.9843952" lon="7.8702503"><ele>1093.0</ele><time>2026-04-19T08:46:39.84Z</time></trkpt><trkpt lat="43.9843525" lon="7.8701651"><ele>1093.0</ele><time>2026-04-19T08:46:40.839Z</time></trkpt><trkpt lat="43.984309" lon="7.8700928"><ele>1093.0</ele><time>2026-04-19T08:46:41.84Z</time></trkpt><trkpt lat="43.9842585" lon="7.870018"><ele>1093.0</ele><time>2026-04-19T08:46:42.839Z</time></trkpt><trkpt lat="43.9842037" lon="7.8699385"><ele>1100.6666666666665</ele><time>2026-04-19T08:46:43.839Z</time></trkpt><trkpt lat="43.984147" lon="7.869848"><ele>1108.3333333333333</ele><time>2026-04-19T08:46:44.84Z</time></trkpt><trkpt lat="43.9840837" lon="7.8697639"><ele>1116.0</ele><time>2026-04-19T08:46:45.84Z</time></trkpt><trkpt lat="43.9840172" lon="7.8696895"><ele>1123.6666666666667</ele><time>2026-04-19T08:46:46.84Z</time></trkpt><trkpt lat="43.9839419" lon="7.8696262"><ele>1131.3333333333335</ele><time>2026-04-19T08:46:47.841Z</time></trkpt><trkpt lat="43.9838574" lon="7.869574"><ele>1139.0</ele><time>2026-04-19T08:46:48.841Z</time></trkpt><trkpt lat="43.9837785" lon="7.8695333"><ele>1139.0</ele><time>2026-04-19T08:46:49.839Z</time></trkpt><trkpt lat="43.9836896" lon="7.8694882"><ele>1139.0</ele><time>2026-04-19T08:46:50.84Z</time></trkpt><trkpt lat="43.9835978" lon="7.8694482"><ele>1139.0</ele><time>2026-04-19T08:46:51.841Z</time></trkpt><trkpt lat="43.9834986" lon="7.8694174"><ele>1139.0</ele><time>2026-04-19T08:46:52.841Z</time></trkpt><trkpt lat="43.9834065" lon="7.8694065"><ele>1139.0</ele><time>2026-04-19T08:46:53.84Z</time></trkpt><trkpt lat="43.9832993" lon="7.8694392"><ele>1137.8</ele><time>2026-04-19T08:46:54.841Z</time></trkpt><trkpt lat="43.9831958" lon="7.8694623"><ele>1136.6000000000001</ele><time>2026-04-19T08:46:55.84Z</time></trkpt><trkpt lat="43.9830925" lon="7.8694941"><ele>1135.4</ele><time>2026-04-19T08:46:56.84Z</time></trkpt><trkpt lat="43.9829954" lon="7.8695381"><ele>1134.2</ele><time>2026-04-19T08:46:57.84Z</time></trkpt><trkpt lat="43.9828973" lon="7.8695939"><ele>1133.0</ele><time>2026-04-19T08:46:58.84Z</time></trkpt><trkpt lat="43.9827948" lon="7.8696475"><ele>1133.0</ele><time>2026-04-19T08:46:59.841Z</time></trkpt><trkpt lat="43.9827006" lon="7.8696963"><ele>1133.0</ele><time>2026-04-19T08:47:00.84Z</time></trkpt><trkpt lat="43.9826057" lon="7.8697406"><ele>1133.0</ele><time>2026-04-19T08:47:01.841Z</time></trkpt><trkpt lat="43.9825251" lon="7.8697544"><ele>1133.0</ele><time>2026-04-19T08:47:02.841Z</time></trkpt><trkpt lat="43.9824622" lon="7.8697347"><ele>1133.0</ele><time>2026-04-19T08:47:03.841Z</time></trkpt><trkpt lat="43.9823858" lon="7.8695961"><ele>1136.0</ele><time>2026-04-19T08:47:05.841Z</time></trkpt><trkpt lat="43.9823507" lon="7.8695203"><ele>1139.0</ele><time>2026-04-19T08:47:06.84Z</time></trkpt><trkpt lat="43.9823347" lon="7.8694186"><ele>1142.0</ele><time>2026-04-19T08:47:07.84Z</time></trkpt><trkpt lat="43.982314" lon="7.869316"><ele>1145.0</ele><time>2026-04-19T08:47:08.84Z</time></trkpt><trkpt lat="43.982301" lon="7.8692048"><ele>1148.0</ele><time>2026-04-19T08:47:09.841Z</time></trkpt><trkpt lat="43.9822981" lon="7.8690928"><ele>1151.0</ele><time>2026-04-19T08:47:10.841Z</time></trkpt><trkpt lat="43.9823087" lon="7.8689768"><ele>1153.3999999999999</ele><time>2026-04-19T08:47:11.84Z</time></trkpt><trkpt lat="43.9823317" lon="7.868852"><ele>1155.8</ele><time>2026-04-19T08:47:12.841Z</time></trkpt><trkpt lat="43.9823531" lon="7.8687174"><ele>1158.1999999999998</ele><time>2026-04-19T08:47:13.841Z</time></trkpt><trkpt lat="43.9823369" lon="7.8685774"><ele>1160.6</ele><time>2026-04-19T08:47:14.841Z</time></trkpt><trkpt lat="43.9823039" lon="7.8684644"><ele>1163.0</ele><time>2026-04-19T08:47:15.839Z</time></trkpt><trkpt lat="43.9822437" lon="7.8683558"><ele>1163.8</ele><time>2026-04-19T08:47:16.841Z</time></trkpt><trkpt lat="43.9821597" lon="7.8682585"><ele>1164.6</ele><time>2026-04-19T08:47:17.84Z</time></trkpt><trkpt lat="43.9820874" lon="7.8681448"><ele>1165.4</ele><time>2026-04-19T08:47:18.841Z</time></trkpt><trkpt lat="43.982012" lon="7.868044"><ele>1166.2</ele><time>2026-04-19T08:47:19.84Z</time></trkpt><trkpt lat="43.9819389" lon="7.8679696"><ele>1167.0</ele><time>2026-04-19T08:47:20.84Z</time></trkpt><trkpt lat="43.9818612" lon="7.867902"><ele>1167.0</ele><time>2026-04-19T08:47:21.841Z</time></trkpt><trkpt lat="43.9817903" lon="7.8678498"><ele>1167.0</ele><time>2026-04-19T08:47:22.84Z</time></trkpt><trkpt lat="43.9816803" lon="7.8678382"><ele>1167.0</ele><time>2026-04-19T08:47:24.84Z</time></trkpt><trkpt lat="43.9817" lon="7.8679631"><ele>1167.0</ele><time>2026-04-19T08:47:27.84Z</time></trkpt><trkpt lat="43.9818011" lon="7.8679979"><ele>1167.0</ele><time>2026-04-19T08:47:29.841Z</time></trkpt><trkpt lat="43.9818655" lon="7.8680301"><ele>1167.0</ele><time>2026-04-19T08:47:30.84Z</time></trkpt><trkpt lat="43.9819211" lon="7.8681512"><ele>1167.0</ele><time>2026-04-19T08:47:31.84Z</time></trkpt><trkpt lat="43.9819672" lon="7.8682369"><ele>1167.0</ele><time>2026-04-19T08:47:32.841Z</time></trkpt><trkpt lat="43.9820225" lon="7.8683412"><ele>1167.0</ele><time>2026-04-19T08:47:33.841Z</time></trkpt><trkpt lat="43.982085" lon="7.8684353"><ele>1167.0</ele><time>2026-04-19T08:47:34.84Z</time></trkpt><trkpt lat="43.9821344" lon="7.8685288"><ele>1167.0</ele><time>2026-04-19T08:47:35.84Z</time></trkpt><trkpt lat="43.982169" lon="7.8686207"><ele>1166.3333333333333</ele><time>2026-04-19T08:47:36.839Z</time></trkpt><trkpt lat="43.9821718" lon="7.8687177"><ele>1165.6666666666667</ele><time>2026-04-19T08:47:37.839Z</time></trkpt><trkpt lat="43.9821422" lon="7.8688021"><ele>1165.0</ele><time>2026-04-19T08:47:38.84Z</time></trkpt><trkpt lat="43.9820994" lon="7.8688845"><ele>1164.3333333333335</ele><time>2026-04-19T08:47:39.84Z</time></trkpt><trkpt lat="43.9820488" lon="7.8689767"><ele>1163.6666666666667</ele><time>2026-04-19T08:47:40.84Z</time></trkpt><trkpt lat="43.9819919" lon="7.8690747"><ele>1163.0</ele><time>2026-04-19T08:47:41.841Z</time></trkpt><trkpt lat="43.9819327" lon="7.8691811"><ele>1162.25</ele><time>2026-04-19T08:47:42.839Z</time></trkpt><trkpt lat="43.9818612" lon="7.8692862"><ele>1161.5</ele><time>2026-04-19T08:47:43.84Z</time></trkpt><trkpt lat="43.9817708" lon="7.8693887"><ele>1160.75</ele><time>2026-04-19T08:47:44.841Z</time></trkpt><trkpt lat="43.9816763" lon="7.8694896"><ele>1160.0</ele><time>2026-04-19T08:47:45.84Z</time></trkpt><trkpt lat="43.9815835" lon="7.869584"><ele>1160.0</ele><time>2026-04-19T08:47:46.84Z</time></trkpt><trkpt lat="43.9814867" lon="7.869679"><ele>1160.0</ele><time>2026-04-19T08:47:47.84Z</time></trkpt><trkpt lat="43.9813958" lon="7.8697719"><ele>1160.0</ele><time>2026-04-19T08:47:48.84Z</time></trkpt><trkpt lat="43.9813117" lon="7.8698635"><ele>1160.0</ele><time>2026-04-19T08:47:49.841Z</time></trkpt><trkpt lat="43.9812264" lon="7.8699569"><ele>1160.0</ele><time>2026-04-19T08:47:50.84Z</time></trkpt><trkpt lat="43.9811451" lon="7.870054"><ele>1160.2</ele><time>2026-04-19T08:47:51.841Z</time></trkpt><trkpt lat="43.9810621" lon="7.8701555"><ele>1160.4</ele><time>2026-04-19T08:47:52.84Z</time></trkpt><trkpt lat="43.9809823" lon="7.8702542"><ele>1160.6</ele><time>2026-04-19T08:47:53.84Z</time></trkpt><trkpt lat="43.9809044" lon="7.8703545"><ele>1160.8</ele><time>2026-04-19T08:47:54.84Z</time></trkpt><trkpt lat="43.9808247" lon="7.8704534"><ele>1161.0</ele><time>2026-04-19T08:47:55.84Z</time></trkpt><trkpt lat="43.9807333" lon="7.8705301"><ele>1161.0</ele><time>2026-04-19T08:47:56.841Z</time></trkpt><trkpt lat="43.9806304" lon="7.8705775"><ele>1161.0</ele><time>2026-04-19T08:47:57.84Z</time></trkpt><trkpt lat="43.9805287" lon="7.8705981"><ele>1161.0</ele><time>2026-04-19T08:47:58.841Z</time></trkpt><trkpt lat="43.9804288" lon="7.870604"><ele>1161.0</ele><time>2026-04-19T08:47:59.839Z</time></trkpt><trkpt lat="43.9803273" lon="7.8705996"><ele>1161.0</ele><time>2026-04-19T08:48:00.841Z</time></trkpt><trkpt lat="43.9802217" lon="7.8705984"><ele>1161.0</ele><time>2026-04-19T08:48:01.84Z</time></trkpt><trkpt lat="43.980125" lon="7.8706131"><ele>1161.0</ele><time>2026-04-19T08:48:02.84Z</time></trkpt><trkpt lat="43.9800386" lon="7.870631"><ele>1161.0</ele><time>2026-04-19T08:48:03.841Z</time></trkpt><trkpt lat="43.9799609" lon="7.8706531"><ele>1161.0</ele><time>2026-04-19T08:48:04.84Z</time></trkpt><trkpt lat="43.9798929" lon="7.8707002"><ele>1161.0</ele><time>2026-04-19T08:48:05.84Z</time></trkpt><trkpt lat="43.9798359" lon="7.8707794"><ele>1161.0</ele><time>2026-04-19T08:48:06.84Z</time></trkpt><trkpt lat="43.9797875" lon="7.8708736"><ele>1156.0</ele><time>2026-04-19T08:48:07.841Z</time></trkpt><trkpt lat="43.9797397" lon="7.8709755"><ele>1151.0</ele><time>2026-04-19T08:48:08.841Z</time></trkpt><trkpt lat="43.9796889" lon="7.8710735"><ele>1146.0</ele><time>2026-04-19T08:48:09.84Z</time></trkpt><trkpt lat="43.9796255" lon="7.8711738"><ele>1141.0</ele><time>2026-04-19T08:48:10.841Z</time></trkpt><trkpt lat="43.9795622" lon="7.8712749"><ele>1136.0</ele><time>2026-04-19T08:48:11.84Z</time></trkpt><trkpt lat="43.9794935" lon="7.8713612"><ele>1136.0</ele><time>2026-04-19T08:48:12.84Z</time></trkpt><trkpt lat="43.9794107" lon="7.871424"><ele>1136.0</ele><time>2026-04-19T08:48:13.841Z</time></trkpt><trkpt lat="43.9793222" lon="7.8714563"><ele>1136.0</ele><time>2026-04-19T08:48:14.84Z</time></trkpt><trkpt lat="43.9792318" lon="7.8714526"><ele>1136.0</ele><time>2026-04-19T08:48:15.84Z</time></trkpt><trkpt lat="43.9791376" lon="7.8714563"><ele>1136.0</ele><time>2026-04-19T08:48:16.841Z</time></trkpt><trkpt lat="43.9790415" lon="7.8714668"><ele>1136.5</ele><time>2026-04-19T08:48:17.839Z</time></trkpt><trkpt lat="43.9789487" lon="7.8715249"><ele>1137.0</ele><time>2026-04-19T08:48:18.84Z</time></trkpt><trkpt lat="43.9788449" lon="7.8716048"><ele>1137.5</ele><time>2026-04-19T08:48:19.841Z</time></trkpt><trkpt lat="43.978733" lon="7.871687"><ele>1138.0</ele><time>2026-04-19T08:48:20.841Z</time></trkpt><trkpt lat="43.9786119" lon="7.8717737"><ele>1133.25</ele><time>2026-04-19T08:48:21.84Z</time></trkpt><trkpt lat="43.9784823" lon="7.8718688"><ele>1128.5</ele><time>2026-04-19T08:48:22.841Z</time></trkpt><trkpt lat="43.978349" lon="7.8719631"><ele>1123.75</ele><time>2026-04-19T08:48:23.84Z</time></trkpt><trkpt lat="43.9782179" lon="7.8720388"><ele>1119.0</ele><time>2026-04-19T08:48:24.841Z</time></trkpt><trkpt lat="43.9780914" lon="7.8721022"><ele>1119.0</ele><time>2026-04-19T08:48:25.839Z</time></trkpt><trkpt lat="43.9779731" lon="7.8721721"><ele>1119.0</ele><time>2026-04-19T08:48:26.84Z</time></trkpt><trkpt lat="43.9778725" lon="7.8722721"><ele>1119.0</ele><time>2026-04-19T08:48:27.84Z</time></trkpt><trkpt lat="43.9777783" lon="7.8723486"><ele>1119.0</ele><time>2026-04-19T08:48:28.842Z</time></trkpt><trkpt lat="43.9776764" lon="7.8724162"><ele>1119.0</ele><time>2026-04-19T08:48:29.841Z</time></trkpt><trkpt lat="43.9775698" lon="7.8724721"><ele>1119.0</ele><time>2026-04-19T08:48:30.841Z</time></trkpt><trkpt lat="43.9773178" lon="7.8725546"><ele>1119.0</ele><time>2026-04-19T08:48:32.839Z</time></trkpt><trkpt lat="43.977186" lon="7.8725902"><ele>1115.0</ele><time>2026-04-19T08:48:33.84Z</time></trkpt><trkpt lat="43.9770514" lon="7.8726259"><ele>1111.0</ele><time>2026-04-19T08:48:34.839Z</time></trkpt><trkpt lat="43.9769162" lon="7.8726596"><ele>1107.0</ele><time>2026-04-19T08:48:35.84Z</time></trkpt><trkpt lat="43.9767877" lon="7.8727036"><ele>1103.0</ele><time>2026-04-19T08:48:36.84Z</time></trkpt><trkpt lat="43.976667" lon="7.8727487"><ele>1102.25</ele><time>2026-04-19T08:48:37.841Z</time></trkpt><trkpt lat="43.9765489" lon="7.8728"><ele>1101.5</ele><time>2026-04-19T08:48:38.842Z</time></trkpt><trkpt lat="43.9764318" lon="7.8728398"><ele>1100.75</ele><time>2026-04-19T08:48:39.839Z</time></trkpt><trkpt lat="43.9763103" lon="7.8728648"><ele>1100.0</ele><time>2026-04-19T08:48:40.84Z</time></trkpt><trkpt lat="43.976198" lon="7.8728792"><ele>1100.0</ele><time>2026-04-19T08:48:41.839Z</time></trkpt><trkpt lat="43.9760975" lon="7.8728846"><ele>1100.0</ele><time>2026-04-19T08:48:42.84Z</time></trkpt><trkpt lat="43.9759869" lon="7.8728679"><ele>1100.0</ele><time>2026-04-19T08:48:43.841Z</time></trkpt><trkpt lat="43.975883" lon="7.8728954"><ele>1100.0</ele><time>2026-04-19T08:48:44.84Z</time></trkpt><trkpt lat="43.9757804" lon="7.8729551"><ele>1100.0</ele><time>2026-04-19T08:48:45.84Z</time></trkpt><trkpt lat="43.9756927" lon="7.8730358"><ele>1100.75</ele><time>2026-04-19T08:48:46.84Z</time></trkpt><trkpt lat="43.9755954" lon="7.8731265"><ele>1101.5</ele><time>2026-04-19T08:48:47.84Z</time></trkpt><trkpt lat="43.9754947" lon="7.8732175"><ele>1102.25</ele><time>2026-04-19T08:48:48.839Z</time></trkpt><trkpt lat="43.9754056" lon="7.87332"><ele>1103.0</ele><time>2026-04-19T08:48:49.841Z</time></trkpt><trkpt lat="43.9753034" lon="7.8734162"><ele>1100.5</ele><time>2026-04-19T08:48:50.84Z</time></trkpt><trkpt lat="43.9752095" lon="7.8735228"><ele>1098.0</ele><time>2026-04-19T08:48:51.84Z</time></trkpt><trkpt lat="43.9751077" lon="7.8736291"><ele>1095.5</ele><time>2026-04-19T08:48:52.84Z</time></trkpt><trkpt lat="43.975009" lon="7.8737387"><ele>1093.0</ele><time>2026-04-19T08:48:53.84Z</time></trkpt><trkpt lat="43.9749141" lon="7.8738501"><ele>1093.0</ele><time>2026-04-19T08:48:54.841Z</time></trkpt><trkpt lat="43.9748178" lon="7.8739579"><ele>1093.0</ele><time>2026-04-19T08:48:55.841Z</time></trkpt><trkpt lat="43.9747282" lon="7.8740741"><ele>1093.0</ele><time>2026-04-19T08:48:56.841Z</time></trkpt><trkpt lat="43.9746395" lon="7.8742057"><ele>1093.0</ele><time>2026-04-19T08:48:57.84Z</time></trkpt><trkpt lat="43.9745539" lon="7.8743386"><ele>1086.0</ele><time>2026-04-19T08:48:58.841Z</time></trkpt><trkpt lat="43.9744748" lon="7.8744883"><ele>1079.0</ele><time>2026-04-19T08:48:59.84Z</time></trkpt><trkpt lat="43.9743931" lon="7.8746307"><ele>1072.0</ele><time>2026-04-19T08:49:00.841Z</time></trkpt><trkpt lat="43.9743044" lon="7.8747733"><ele>1065.0</ele><time>2026-04-19T08:49:01.841Z</time></trkpt><trkpt lat="43.9742249" lon="7.8749058"><ele>1065.5</ele><time>2026-04-19T08:49:02.84Z</time></trkpt><trkpt lat="43.9741533" lon="7.8750244"><ele>1066.0</ele><time>2026-04-19T08:49:03.84Z</time></trkpt><trkpt lat="43.9740878" lon="7.8751067"><ele>1066.5</ele><time>2026-04-19T08:49:04.84Z</time></trkpt><trkpt lat="43.974026" lon="7.875158"><ele>1067.0</ele><time>2026-04-19T08:49:05.839Z</time></trkpt><trkpt lat="43.9739548" lon="7.8751619"><ele>1067.5</ele><time>2026-04-19T08:49:06.84Z</time></trkpt><trkpt lat="43.9738723" lon="7.8751415"><ele>1068.0</ele><time>2026-04-19T08:49:07.841Z</time></trkpt><trkpt lat="43.97378" lon="7.8751083"><ele>1068.0</ele><time>2026-04-19T08:49:08.84Z</time></trkpt><trkpt lat="43.9736841" lon="7.8750825"><ele>1068.0</ele><time>2026-04-19T08:49:09.84Z</time></trkpt><trkpt lat="43.9735901" lon="7.8750527"><ele>1068.0</ele><time>2026-04-19T08:49:10.841Z</time></trkpt><trkpt lat="43.9734928" lon="7.8750519"><ele>1068.0</ele><time>2026-04-19T08:49:11.839Z</time></trkpt><trkpt lat="43.973397" lon="7.8750749"><ele>1068.0</ele><time>2026-04-19T08:49:12.841Z</time></trkpt><trkpt lat="43.9733123" lon="7.8751425"><ele>1068.0</ele><time>2026-04-19T08:49:13.841Z</time></trkpt><trkpt lat="43.9732253" lon="7.8752359"><ele>1068.0</ele><time>2026-04-19T08:49:14.839Z</time></trkpt><trkpt lat="43.9731431" lon="7.8753176"><ele>1068.0</ele><time>2026-04-19T08:49:15.841Z</time></trkpt><trkpt lat="43.97305" lon="7.8753781"><ele>1068.0</ele><time>2026-04-19T08:49:16.841Z</time></trkpt><trkpt lat="43.9729401" lon="7.8754052"><ele>1068.0</ele><time>2026-04-19T08:49:17.841Z</time></trkpt><trkpt lat="43.9728157" lon="7.8754125"><ele>1068.0</ele><time>2026-04-19T08:49:18.84Z</time></trkpt><trkpt lat="43.9726908" lon="7.8754203"><ele>1068.0</ele><time>2026-04-19T08:49:19.84Z</time></trkpt><trkpt lat="43.9725598" lon="7.8754325"><ele>1068.0</ele><time>2026-04-19T08:49:20.841Z</time></trkpt><trkpt lat="43.9724293" lon="7.8754374"><ele>1068.0</ele><time>2026-04-19T08:49:21.84Z</time></trkpt><trkpt lat="43.9722994" lon="7.8754392"><ele>1065.75</ele><time>2026-04-19T08:49:22.839Z</time></trkpt><trkpt lat="43.9721709" lon="7.8754517"><ele>1063.5</ele><time>2026-04-19T08:49:23.841Z</time></trkpt><trkpt lat="43.9720553" lon="7.8754861"><ele>1061.25</ele><time>2026-04-19T08:49:24.84Z</time></trkpt><trkpt lat="43.9719417" lon="7.8755444"><ele>1059.0</ele><time>2026-04-19T08:49:25.841Z</time></trkpt><trkpt lat="43.9718286" lon="7.8756053"><ele>1059.0</ele><time>2026-04-19T08:49:26.84Z</time></trkpt><trkpt lat="43.9717125" lon="7.8756644"><ele>1059.0</ele><time>2026-04-19T08:49:27.841Z</time></trkpt><trkpt lat="43.9716085" lon="7.8756969"><ele>1059.0</ele><time>2026-04-19T08:49:28.84Z</time></trkpt><trkpt lat="43.9715079" lon="7.8757334"><ele>1059.0</ele><time>2026-04-19T08:49:29.84Z</time></trkpt><trkpt lat="43.971421" lon="7.8757785"><ele>1059.0</ele><time>2026-04-19T08:49:30.84Z</time></trkpt><trkpt lat="43.97135" lon="7.8758705"><ele>1055.5</ele><time>2026-04-19T08:49:31.84Z</time></trkpt><trkpt lat="43.971295" lon="7.8759935"><ele>1052.0</ele><time>2026-04-19T08:49:32.84Z</time></trkpt><trkpt lat="43.9712638" lon="7.8761419"><ele>1048.5</ele><time>2026-04-19T08:49:33.839Z</time></trkpt><trkpt lat="43.97124" lon="7.8763051"><ele>1045.0</ele><time>2026-04-19T08:49:34.841Z</time></trkpt><trkpt lat="43.9712277" lon="7.8764707"><ele>1045.0</ele><time>2026-04-19T08:49:35.841Z</time></trkpt><trkpt lat="43.9711937" lon="7.8766082"><ele>1045.0</ele><time>2026-04-19T08:49:36.84Z</time></trkpt><trkpt lat="43.9711415" lon="7.8767166"><ele>1045.0</ele><time>2026-04-19T08:49:37.839Z</time></trkpt><trkpt lat="43.9710662" lon="7.8767984"><ele>1045.0</ele><time>2026-04-19T08:49:38.839Z</time></trkpt><trkpt lat="43.9709779" lon="7.8768447"><ele>1045.0</ele><time>2026-04-19T08:49:39.841Z</time></trkpt><trkpt lat="43.9708847" lon="7.8768725"><ele>1042.4</ele><time>2026-04-19T08:49:40.84Z</time></trkpt><trkpt lat="43.9707804" lon="7.8769015"><ele>1039.8</ele><time>2026-04-19T08:49:41.84Z</time></trkpt><trkpt lat="43.9706739" lon="7.876949"><ele>1037.2</ele><time>2026-04-19T08:49:42.841Z</time></trkpt><trkpt lat="43.9705629" lon="7.8769995"><ele>1034.6</ele><time>2026-04-19T08:49:43.841Z</time></trkpt><trkpt lat="43.9704562" lon="7.8770393"><ele>1032.0</ele><time>2026-04-19T08:49:44.841Z</time></trkpt><trkpt lat="43.9703592" lon="7.8770603"><ele>1032.0</ele><time>2026-04-19T08:49:45.84Z</time></trkpt><trkpt lat="43.9702701" lon="7.8770507"><ele>1032.0</ele><time>2026-04-19T08:49:46.84Z</time></trkpt><trkpt lat="43.970194" lon="7.8770121"><ele>1032.0</ele><time>2026-04-19T08:49:47.84Z</time></trkpt><trkpt lat="43.9701393" lon="7.8769387"><ele>1032.0</ele><time>2026-04-19T08:49:48.841Z</time></trkpt><trkpt lat="43.9700899" lon="7.8768416"><ele>1032.0</ele><time>2026-04-19T08:49:49.84Z</time></trkpt><trkpt lat="43.9700339" lon="7.8767303"><ele>1032.0</ele><time>2026-04-19T08:49:50.841Z</time></trkpt><trkpt lat="43.9699642" lon="7.8766245"><ele>1036.75</ele><time>2026-04-19T08:49:51.84Z</time></trkpt><trkpt lat="43.9698781" lon="7.8765264"><ele>1041.5</ele><time>2026-04-19T08:49:52.841Z</time></trkpt><trkpt lat="43.9697733" lon="7.8764585"><ele>1046.25</ele><time>2026-04-19T08:49:53.841Z</time></trkpt><trkpt lat="43.9696603" lon="7.876404"><ele>1051.0</ele><time>2026-04-19T08:49:54.842Z</time></trkpt><trkpt lat="43.9695271" lon="7.8763743"><ele>1051.0</ele><time>2026-04-19T08:49:55.84Z</time></trkpt><trkpt lat="43.9693904" lon="7.8763453"><ele>1051.0</ele><time>2026-04-19T08:49:56.841Z</time></trkpt><trkpt lat="43.9692581" lon="7.8763157"><ele>1051.0</ele><time>2026-04-19T08:49:57.84Z</time></trkpt><trkpt lat="43.9691318" lon="7.8762832"><ele>1051.0</ele><time>2026-04-19T08:49:58.84Z</time></trkpt><trkpt lat="43.9690244" lon="7.876247"><ele>1051.6</ele><time>2026-04-19T08:49:59.841Z</time></trkpt><trkpt lat="43.9689224" lon="7.8761897"><ele>1052.1999999999998</ele><time>2026-04-19T08:50:00.84Z</time></trkpt><trkpt lat="43.9688439" lon="7.8761154"><ele>1052.8000000000002</ele><time>2026-04-19T08:50:01.841Z</time></trkpt><trkpt lat="43.9687856" lon="7.8760244"><ele>1053.4</ele><time>2026-04-19T08:50:02.84Z</time></trkpt><trkpt lat="43.9687353" lon="7.8759293"><ele>1054.0</ele><time>2026-04-19T08:50:03.839Z</time></trkpt><trkpt lat="43.9686835" lon="7.8758402"><ele>1054.0</ele><time>2026-04-19T08:50:04.841Z</time></trkpt><trkpt lat="43.9685889" lon="7.8758314"><ele>1054.0</ele><time>2026-04-19T08:50:05.84Z</time></trkpt><trkpt lat="43.9685019" lon="7.8758392"><ele>1054.0</ele><time>2026-04-19T08:50:06.84Z</time></trkpt><trkpt lat="43.9684129" lon="7.8758807"><ele>1054.0</ele><time>2026-04-19T08:50:07.839Z</time></trkpt><trkpt lat="43.9683173" lon="7.8759344"><ele>1054.0</ele><time>2026-04-19T08:50:08.84Z</time></trkpt><trkpt lat="43.9682191" lon="7.8759842"><ele>1050.8</ele><time>2026-04-19T08:50:09.841Z</time></trkpt><trkpt lat="43.9681214" lon="7.8760219"><ele>1047.6000000000001</ele><time>2026-04-19T08:50:10.84Z</time></trkpt><trkpt lat="43.9680226" lon="7.8760332"><ele>1044.4</ele><time>2026-04-19T08:50:11.841Z</time></trkpt><trkpt lat="43.9679272" lon="7.8760388"><ele>1041.2</ele><time>2026-04-19T08:50:12.84Z</time></trkpt><trkpt lat="43.9678268" lon="7.8759774"><ele>1038.0</ele><time>2026-04-19T08:50:13.841Z</time></trkpt><trkpt lat="43.9677189" lon="7.8759309"><ele>1038.0</ele><time>2026-04-19T08:50:14.84Z</time></trkpt><trkpt lat="43.9676073" lon="7.8758917"><ele>1038.0</ele><time>2026-04-19T08:50:15.841Z</time></trkpt><trkpt lat="43.9674976" lon="7.8758767"><ele>1038.0</ele><time>2026-04-19T08:50:16.84Z</time></trkpt><trkpt lat="43.9673897" lon="7.8758913"><ele>1038.0</ele><time>2026-04-19T08:50:17.839Z</time></trkpt><trkpt lat="43.9672849" lon="7.8759317"><ele>1038.0</ele><time>2026-04-19T08:50:18.84Z</time></trkpt><trkpt lat="43.9671774" lon="7.8759894"><ele>1030.0</ele><time>2026-04-19T08:50:19.84Z</time></trkpt><trkpt lat="43.9670684" lon="7.8760733"><ele>1022.0</ele><time>2026-04-19T08:50:20.84Z</time></trkpt><trkpt lat="43.9669569" lon="7.8761611"><ele>1014.0</ele><time>2026-04-19T08:50:21.84Z</time></trkpt><trkpt lat="43.966849" lon="7.8762629"><ele>1006.0</ele><time>2026-04-19T08:50:22.841Z</time></trkpt><trkpt lat="43.966737" lon="7.8763756"><ele>1006.0</ele><time>2026-04-19T08:50:23.84Z</time></trkpt><trkpt lat="43.9666348" lon="7.8764907"><ele>1006.0</ele><time>2026-04-19T08:50:24.841Z</time></trkpt><trkpt lat="43.9665501" lon="7.8766215"><ele>1006.0</ele><time>2026-04-19T08:50:25.839Z</time></trkpt><trkpt lat="43.9664623" lon="7.876749"><ele>1006.0</ele><time>2026-04-19T08:50:26.84Z</time></trkpt><trkpt lat="43.9663725" lon="7.8768669"><ele>1002.0</ele><time>2026-04-19T08:50:27.841Z</time></trkpt><trkpt lat="43.9662807" lon="7.8769896"><ele>998.0</ele><time>2026-04-19T08:50:28.84Z</time></trkpt><trkpt lat="43.9661896" lon="7.8771103"><ele>994.0</ele><time>2026-04-19T08:50:29.84Z</time></trkpt><trkpt lat="43.9660882" lon="7.8772122"><ele>990.0</ele><time>2026-04-19T08:50:30.84Z</time></trkpt><trkpt lat="43.9659843" lon="7.8773183"><ele>990.0</ele><time>2026-04-19T08:50:31.841Z</time></trkpt><trkpt lat="43.9658781" lon="7.8774203"><ele>990.0</ele><time>2026-04-19T08:50:32.84Z</time></trkpt><trkpt lat="43.9657712" lon="7.8775171"><ele>990.0</ele><time>2026-04-19T08:50:33.84Z</time></trkpt><trkpt lat="43.9656749" lon="7.8776278"><ele>990.0</ele><time>2026-04-19T08:50:34.84Z</time></trkpt><trkpt lat="43.9655942" lon="7.8777498"><ele>990.6</ele><time>2026-04-19T08:50:35.84Z</time></trkpt><trkpt lat="43.9655231" lon="7.8778735"><ele>991.2</ele><time>2026-04-19T08:50:36.841Z</time></trkpt><trkpt lat="43.9654663" lon="7.8780007"><ele>991.8</ele><time>2026-04-19T08:50:37.841Z</time></trkpt><trkpt lat="43.9654135" lon="7.8781339"><ele>992.4</ele><time>2026-04-19T08:50:38.839Z</time></trkpt><trkpt lat="43.965376" lon="7.8782868"><ele>993.0</ele><time>2026-04-19T08:50:39.839Z</time></trkpt><trkpt lat="43.9653567" lon="7.8784472"><ele>991.5</ele><time>2026-04-19T08:50:40.841Z</time></trkpt><trkpt lat="43.9653393" lon="7.8786142"><ele>990.0</ele><time>2026-04-19T08:50:41.841Z</time></trkpt><trkpt lat="43.9653293" lon="7.8787757"><ele>988.5</ele><time>2026-04-19T08:50:42.84Z</time></trkpt><trkpt lat="43.9653182" lon="7.8789443"><ele>987.0</ele><time>2026-04-19T08:50:43.841Z</time></trkpt><trkpt lat="43.9652863" lon="7.8790912"><ele>987.0</ele><time>2026-04-19T08:50:44.841Z</time></trkpt><trkpt lat="43.9652315" lon="7.8792211"><ele>987.0</ele><time>2026-04-19T08:50:45.841Z</time></trkpt><trkpt lat="43.965179" lon="7.8793715"><ele>987.0</ele><time>2026-04-19T08:50:46.841Z</time></trkpt><trkpt lat="43.9651348" lon="7.8795138"><ele>987.0</ele><time>2026-04-19T08:50:47.841Z</time></trkpt><trkpt lat="43.9651139" lon="7.8796671"><ele>988.0</ele><time>2026-04-19T08:50:48.84Z</time></trkpt><trkpt lat="43.9650872" lon="7.8798015"><ele>989.0</ele><time>2026-04-19T08:50:49.84Z</time></trkpt><trkpt lat="43.965053" lon="7.8799556"><ele>990.0</ele><time>2026-04-19T08:50:50.841Z</time></trkpt><trkpt lat="43.9650117" lon="7.8800847"><ele>991.0</ele><time>2026-04-19T08:50:51.84Z</time></trkpt><trkpt lat="43.9649619" lon="7.8801996"><ele>992.0</ele><time>2026-04-19T08:50:52.841Z</time></trkpt><trkpt lat="43.9648966" lon="7.8803168"><ele>992.0</ele><time>2026-04-19T08:50:53.84Z</time></trkpt><trkpt lat="43.9648351" lon="7.880429"><ele>992.0</ele><time>2026-04-19T08:50:54.84Z</time></trkpt><trkpt lat="43.9647737" lon="7.8805417"><ele>992.0</ele><time>2026-04-19T08:50:55.841Z</time></trkpt><trkpt lat="43.9647187" lon="7.880641"><ele>992.0</ele><time>2026-04-19T08:50:56.84Z</time></trkpt><trkpt lat="43.9646385" lon="7.8806763"><ele>992.0</ele><time>2026-04-19T08:50:57.842Z</time></trkpt><trkpt lat="43.9645453" lon="7.8806891"><ele>992.0</ele><time>2026-04-19T08:50:58.84Z</time></trkpt><trkpt lat="43.964459" lon="7.8806863"><ele>992.0</ele><time>2026-04-19T08:50:59.84Z</time></trkpt><trkpt lat="43.9643528" lon="7.8806933"><ele>992.0</ele><time>2026-04-19T08:51:00.841Z</time></trkpt><trkpt lat="43.9642458" lon="7.8806934"><ele>992.0</ele><time>2026-04-19T08:51:01.84Z</time></trkpt><trkpt lat="43.9641399" lon="7.8806917"><ele>992.0</ele><time>2026-04-19T08:51:02.839Z</time></trkpt><trkpt lat="43.9640334" lon="7.8806908"><ele>990.6666666666667</ele><time>2026-04-19T08:51:03.841Z</time></trkpt><trkpt lat="43.9639328" lon="7.8807043"><ele>989.3333333333334</ele><time>2026-04-19T08:51:04.84Z</time></trkpt><trkpt lat="43.9638466" lon="7.8807439"><ele>988.0</ele><time>2026-04-19T08:51:05.842Z</time></trkpt><trkpt lat="43.9637818" lon="7.8808117"><ele>986.6666666666667</ele><time>2026-04-19T08:51:06.841Z</time></trkpt><trkpt lat="43.9637496" lon="7.8809114"><ele>985.3333333333334</ele><time>2026-04-19T08:51:07.841Z</time></trkpt><trkpt lat="43.9637301" lon="7.8810243"><ele>984.0</ele><time>2026-04-19T08:51:08.84Z</time></trkpt><trkpt lat="43.9637258" lon="7.8811529"><ele>984.0</ele><time>2026-04-19T08:51:09.839Z</time></trkpt><trkpt lat="43.9637235" lon="7.8812914"><ele>984.0000000000001</ele><time>2026-04-19T08:51:10.841Z</time></trkpt><trkpt lat="43.9637131" lon="7.8814353"><ele>984.0000000000001</ele><time>2026-04-19T08:51:11.84Z</time></trkpt><trkpt lat="43.9636725" lon="7.8815568"><ele>984.0</ele><time>2026-04-19T08:51:12.84Z</time></trkpt><trkpt lat="43.9636231" lon="7.8817035"><ele>984.0</ele><time>2026-04-19T08:51:13.84Z</time></trkpt><trkpt lat="43.9635313" lon="7.8817995"><ele>986.25</ele><time>2026-04-19T08:51:14.84Z</time></trkpt><trkpt lat="43.9634275" lon="7.8818988"><ele>988.5</ele><time>2026-04-19T08:51:15.84Z</time></trkpt><trkpt lat="43.9633373" lon="7.8820158"><ele>990.75</ele><time>2026-04-19T08:51:16.84Z</time></trkpt><trkpt lat="43.963265" lon="7.8821552"><ele>993.0</ele><time>2026-04-19T08:51:17.84Z</time></trkpt><trkpt lat="43.963199" lon="7.88229"><ele>993.0</ele><time>2026-04-19T08:51:18.841Z</time></trkpt><trkpt lat="43.9631311" lon="7.8824093"><ele>993.0</ele><time>2026-04-19T08:51:19.841Z</time></trkpt><trkpt lat="43.9630274" lon="7.8824867"><ele>993.0</ele><time>2026-04-19T08:51:20.84Z</time></trkpt><trkpt lat="43.9629356" lon="7.8825726"><ele>993.0</ele><time>2026-04-19T08:51:21.839Z</time></trkpt><trkpt lat="43.9628284" lon="7.8826826"><ele>993.5</ele><time>2026-04-19T08:51:22.841Z</time></trkpt><trkpt lat="43.9627366" lon="7.8828123"><ele>994.0</ele><time>2026-04-19T08:51:23.84Z</time></trkpt><trkpt lat="43.962644" lon="7.8829346"><ele>994.5</ele><time>2026-04-19T08:51:24.84Z</time></trkpt><trkpt lat="43.9625472" lon="7.8830658"><ele>995.0</ele><time>2026-04-19T08:51:25.84Z</time></trkpt><trkpt lat="43.9624611" lon="7.8831975"><ele>995.0</ele><time>2026-04-19T08:51:26.839Z</time></trkpt><trkpt lat="43.9623812" lon="7.8833387"><ele>995.0</ele><time>2026-04-19T08:51:27.84Z</time></trkpt><trkpt lat="43.9622949" lon="7.8834877"><ele>995.0</ele><time>2026-04-19T08:51:28.839Z</time></trkpt><trkpt lat="43.9622296" lon="7.8836563"><ele>995.0</ele><time>2026-04-19T08:51:29.84Z</time></trkpt><trkpt lat="43.9621546" lon="7.8837905"><ele>991.4</ele><time>2026-04-19T08:51:30.841Z</time></trkpt><trkpt lat="43.9620808" lon="7.883903"><ele>987.8</ele><time>2026-04-19T08:51:31.841Z</time></trkpt><trkpt lat="43.962009" lon="7.8840109"><ele>984.2</ele><time>2026-04-19T08:51:32.841Z</time></trkpt><trkpt lat="43.9619253" lon="7.8841041"><ele>980.6</ele><time>2026-04-19T08:51:33.84Z</time></trkpt><trkpt lat="43.9618195" lon="7.8841346"><ele>977.0</ele><time>2026-04-19T08:51:34.842Z</time></trkpt><trkpt lat="43.9617103" lon="7.8841872"><ele>975.5</ele><time>2026-04-19T08:51:35.84Z</time></trkpt><trkpt lat="43.9616034" lon="7.8842386"><ele>974.0</ele><time>2026-04-19T08:51:36.841Z</time></trkpt><trkpt lat="43.9615015" lon="7.8843042"><ele>972.5</ele><time>2026-04-19T08:51:37.841Z</time></trkpt><trkpt lat="43.9614042" lon="7.8843719"><ele>971.0</ele><time>2026-04-19T08:51:38.84Z</time></trkpt><trkpt lat="43.9612993" lon="7.8844563"><ele>971.0</ele><time>2026-04-19T08:51:39.839Z</time></trkpt><trkpt lat="43.9612069" lon="7.8845314"><ele>970.9999999999999</ele><time>2026-04-19T08:51:40.84Z</time></trkpt><trkpt lat="43.9611125" lon="7.8846291"><ele>970.9999999999999</ele><time>2026-04-19T08:51:41.839Z</time></trkpt><trkpt lat="43.9610336" lon="7.8847287"><ele>971.0</ele><time>2026-04-19T08:51:42.841Z</time></trkpt><trkpt lat="43.9609703" lon="7.8848187"><ele>971.0</ele><time>2026-04-19T08:51:43.841Z</time></trkpt><trkpt lat="43.9608889" lon="7.884918"><ele>969.0</ele><time>2026-04-19T08:51:44.841Z</time></trkpt><trkpt lat="43.9608014" lon="7.8850065"><ele>966.9999999999999</ele><time>2026-04-19T08:51:45.84Z</time></trkpt><trkpt lat="43.9607226" lon="7.8850577"><ele>964.9999999999999</ele><time>2026-04-19T08:51:46.84Z</time></trkpt><trkpt lat="43.9606382" lon="7.8851435"><ele>963.0</ele><time>2026-04-19T08:51:47.84Z</time></trkpt><trkpt lat="43.9605528" lon="7.8851898"><ele>961.0</ele><time>2026-04-19T08:51:48.84Z</time></trkpt><trkpt lat="43.9604498" lon="7.8852384"><ele>961.0</ele><time>2026-04-19T08:51:49.84Z</time></trkpt><trkpt lat="43.9603641" lon="7.885312"><ele>960.9999999999999</ele><time>2026-04-19T08:51:50.84Z</time></trkpt><trkpt lat="43.960259" lon="7.8854034"><ele>960.9999999999999</ele><time>2026-04-19T08:51:51.839Z</time></trkpt><trkpt lat="43.960195" lon="7.8854884"><ele>961.0</ele><time>2026-04-19T08:51:52.841Z</time></trkpt><trkpt lat="43.9601309" lon="7.8855719"><ele>961.0</ele><time>2026-04-19T08:51:53.841Z</time></trkpt><trkpt lat="43.9600496" lon="7.8856404"><ele>962.5999999999999</ele><time>2026-04-19T08:51:54.841Z</time></trkpt><trkpt lat="43.9599518" lon="7.8856632"><ele>964.1999999999999</ele><time>2026-04-19T08:51:55.841Z</time></trkpt><trkpt lat="43.959844" lon="7.8856747"><ele>965.8000000000001</ele><time>2026-04-19T08:51:56.84Z</time></trkpt><trkpt lat="43.9597421" lon="7.8856869"><ele>967.4000000000001</ele><time>2026-04-19T08:51:57.841Z</time></trkpt><trkpt lat="43.9596611" lon="7.8857361"><ele>969.0</ele><time>2026-04-19T08:51:58.84Z</time></trkpt><trkpt lat="43.9595747" lon="7.8857809"><ele>969.0</ele><time>2026-04-19T08:51:59.84Z</time></trkpt><trkpt lat="43.9594724" lon="7.8858282"><ele>969.0000000000001</ele><time>2026-04-19T08:52:00.839Z</time></trkpt><trkpt lat="43.9593755" lon="7.8857792"><ele>969.0000000000001</ele><time>2026-04-19T08:52:01.841Z</time></trkpt><trkpt lat="43.9592682" lon="7.8857674"><ele>969.0</ele><time>2026-04-19T08:52:02.841Z</time></trkpt><trkpt lat="43.9591909" lon="7.8857249"><ele>969.0</ele><time>2026-04-19T08:52:03.839Z</time></trkpt><trkpt lat="43.9590702" lon="7.8857612"><ele>969.0</ele><time>2026-04-19T08:52:04.84Z</time></trkpt><trkpt lat="43.9589696" lon="7.8858037"><ele>969.0</ele><time>2026-04-19T08:52:05.841Z</time></trkpt><trkpt lat="43.9588643" lon="7.8858782"><ele>969.0</ele><time>2026-04-19T08:52:06.839Z</time></trkpt><trkpt lat="43.9587476" lon="7.8859668"><ele>969.0</ele><time>2026-04-19T08:52:07.84Z</time></trkpt><trkpt lat="43.9586375" lon="7.8860677"><ele>966.25</ele><time>2026-04-19T08:52:08.84Z</time></trkpt><trkpt lat="43.958528" lon="7.8861852"><ele>963.5</ele><time>2026-04-19T08:52:09.839Z</time></trkpt><trkpt lat="43.9584635" lon="7.8863049"><ele>960.75</ele><time>2026-04-19T08:52:10.84Z</time></trkpt><trkpt lat="43.9583677" lon="7.8863865"><ele>958.0</ele><time>2026-04-19T08:52:11.84Z</time></trkpt><trkpt lat="43.9582696" lon="7.8864703"><ele>958.0</ele><time>2026-04-19T08:52:12.841Z</time></trkpt><trkpt lat="43.9581765" lon="7.88653"><ele>958.0</ele><time>2026-04-19T08:52:13.84Z</time></trkpt><trkpt lat="43.9580658" lon="7.8866064"><ele>958.0</ele><time>2026-04-19T08:52:14.842Z</time></trkpt><trkpt lat="43.9579595" lon="7.8866758"><ele>958.0</ele><time>2026-04-19T08:52:15.841Z</time></trkpt><trkpt lat="43.9578809" lon="7.8867665"><ele>958.0</ele><time>2026-04-19T08:52:16.841Z</time></trkpt><trkpt lat="43.9578191" lon="7.8868826"><ele>957.8</ele><time>2026-04-19T08:52:17.839Z</time></trkpt><trkpt lat="43.9577775" lon="7.8869838"><ele>957.5999999999999</ele><time>2026-04-19T08:52:18.84Z</time></trkpt><trkpt lat="43.9577169" lon="7.8871069"><ele>957.4000000000001</ele><time>2026-04-19T08:52:19.84Z</time></trkpt><trkpt lat="43.9576591" lon="7.8872244"><ele>957.2</ele><time>2026-04-19T08:52:20.84Z</time></trkpt><trkpt lat="43.9575679" lon="7.8873326"><ele>957.0</ele><time>2026-04-19T08:52:21.84Z</time></trkpt><trkpt lat="43.9574999" lon="7.8874363"><ele>957.0</ele><time>2026-04-19T08:52:22.839Z</time></trkpt><trkpt lat="43.9574144" lon="7.8875311"><ele>957.0</ele><time>2026-04-19T08:52:23.841Z</time></trkpt><trkpt lat="43.9573311" lon="7.8876331"><ele>957.0</ele><time>2026-04-19T08:52:24.839Z</time></trkpt><trkpt lat="43.9572452" lon="7.8877223"><ele>957.0</ele><time>2026-04-19T08:52:25.84Z</time></trkpt><trkpt lat="43.9571611" lon="7.8878037"><ele>957.0</ele><time>2026-04-19T08:52:26.84Z</time></trkpt><trkpt lat="43.9570499" lon="7.887856"><ele>954.75</ele><time>2026-04-19T08:52:27.841Z</time></trkpt><trkpt lat="43.9569376" lon="7.8879096"><ele>952.5</ele><time>2026-04-19T08:52:28.84Z</time></trkpt><trkpt lat="43.9568165" lon="7.8879799"><ele>950.25</ele><time>2026-04-19T08:52:29.84Z</time></trkpt><trkpt lat="43.9566997" lon="7.8880846"><ele>948.0</ele><time>2026-04-19T08:52:30.841Z</time></trkpt><trkpt lat="43.9565821" lon="7.8881961"><ele>948.0</ele><time>2026-04-19T08:52:31.84Z</time></trkpt><trkpt lat="43.95646" lon="7.8883114"><ele>948.0</ele><time>2026-04-19T08:52:32.84Z</time></trkpt><trkpt lat="43.9563323" lon="7.8884261"><ele>948.0</ele><time>2026-04-19T08:52:33.84Z</time></trkpt><trkpt lat="43.9562372" lon="7.8885272"><ele>948.0</ele><time>2026-04-19T08:52:34.841Z</time></trkpt><trkpt lat="43.9561357" lon="7.8886232"><ele>946.8</ele><time>2026-04-19T08:52:35.841Z</time></trkpt><trkpt lat="43.9560643" lon="7.8886935"><ele>945.5999999999999</ele><time>2026-04-19T08:52:36.841Z</time></trkpt><trkpt lat="43.9559734" lon="7.8887323"><ele>944.4000000000001</ele><time>2026-04-19T08:52:37.841Z</time></trkpt><trkpt lat="43.9558748" lon="7.8887442"><ele>943.2</ele><time>2026-04-19T08:52:38.839Z</time></trkpt><trkpt lat="43.9557836" lon="7.8887249"><ele>942.0</ele><time>2026-04-19T08:52:39.842Z</time></trkpt><trkpt lat="43.9556968" lon="7.8887359"><ele>942.0</ele><time>2026-04-19T08:52:40.84Z</time></trkpt><trkpt lat="43.9556438" lon="7.8887911"><ele>942.0</ele><time>2026-04-19T08:52:41.841Z</time></trkpt><trkpt lat="43.9555853" lon="7.8888409"><ele>942.0</ele><time>2026-04-19T08:52:42.841Z</time></trkpt><trkpt lat="43.9556119" lon="7.888959"><ele>942.0</ele><time>2026-04-19T08:52:43.841Z</time></trkpt><trkpt lat="43.9556096" lon="7.8890616"><ele>942.0</ele><time>2026-04-19T08:52:44.842Z</time></trkpt><trkpt lat="43.9555923" lon="7.8891731"><ele>942.0</ele><time>2026-04-19T08:52:45.839Z</time></trkpt><trkpt lat="43.9555585" lon="7.8892846"><ele>940.3333333333334</ele><time>2026-04-19T08:52:46.84Z</time></trkpt><trkpt lat="43.9555267" lon="7.8893925"><ele>938.6666666666667</ele><time>2026-04-19T08:52:47.84Z</time></trkpt><trkpt lat="43.9554916" lon="7.8895168"><ele>937.0</ele><time>2026-04-19T08:52:48.841Z</time></trkpt><trkpt lat="43.9554826" lon="7.8896629"><ele>935.3333333333334</ele><time>2026-04-19T08:52:49.841Z</time></trkpt><trkpt lat="43.9554832" lon="7.889775"><ele>933.6666666666667</ele><time>2026-04-19T08:52:50.84Z</time></trkpt><trkpt lat="43.9555084" lon="7.8898719"><ele>932.0</ele><time>2026-04-19T08:52:51.841Z</time></trkpt><trkpt lat="43.9555693" lon="7.8899402"><ele>932.0</ele><time>2026-04-19T08:52:52.839Z</time></trkpt><trkpt lat="43.9556276" lon="7.8900364"><ele>932.0</ele><time>2026-04-19T08:52:53.84Z</time></trkpt><trkpt lat="43.9556956" lon="7.8901179"><ele>932.0</ele><time>2026-04-19T08:52:54.84Z</time></trkpt><trkpt lat="43.9557588" lon="7.8902081"><ele>932.0</ele><time>2026-04-19T08:52:55.839Z</time></trkpt><trkpt lat="43.955774" lon="7.8903202"><ele>932.0</ele><time>2026-04-19T08:52:56.84Z</time></trkpt><trkpt lat="43.9557643" lon="7.8904569"><ele>932.0</ele><time>2026-04-19T08:52:57.84Z</time></trkpt><trkpt lat="43.9557487" lon="7.890589"><ele>932.0</ele><time>2026-04-19T08:52:58.84Z</time></trkpt><trkpt lat="43.955735" lon="7.8907337"><ele>932.0</ele><time>2026-04-19T08:52:59.84Z</time></trkpt><trkpt lat="43.9557319" lon="7.8908609"><ele>932.0</ele><time>2026-04-19T08:53:00.84Z</time></trkpt><trkpt lat="43.9557418" lon="7.8910152"><ele>932.0</ele><time>2026-04-19T08:53:01.84Z</time></trkpt><trkpt lat="43.9557447" lon="7.8911549"><ele>933.0</ele><time>2026-04-19T08:53:02.841Z</time></trkpt><trkpt lat="43.9557551" lon="7.8913328"><ele>934.0</ele><time>2026-04-19T08:53:03.84Z</time></trkpt><trkpt lat="43.9557707" lon="7.8915098"><ele>935.0</ele><time>2026-04-19T08:53:04.84Z</time></trkpt><trkpt lat="43.9557865" lon="7.8916774"><ele>936.0</ele><time>2026-04-19T08:53:05.841Z</time></trkpt><trkpt lat="43.9558252" lon="7.8918254"><ele>926.75</ele><time>2026-04-19T08:53:06.84Z</time></trkpt><trkpt lat="43.9558815" lon="7.8919813"><ele>917.5</ele><time>2026-04-19T08:53:07.84Z</time></trkpt><trkpt lat="43.9559223" lon="7.8921437"><ele>908.25</ele><time>2026-04-19T08:53:08.84Z</time></trkpt><trkpt lat="43.9559704" lon="7.8922734"><ele>899.0</ele><time>2026-04-19T08:53:09.84Z</time></trkpt><trkpt lat="43.9560257" lon="7.8924018"><ele>899.0</ele><time>2026-04-19T08:53:10.839Z</time></trkpt><trkpt lat="43.956084" lon="7.8925101"><ele>899.0000000000001</ele><time>2026-04-19T08:53:11.84Z</time></trkpt><trkpt lat="43.9561077" lon="7.8926537"><ele>899.0000000000001</ele><time>2026-04-19T08:53:12.84Z</time></trkpt><trkpt lat="43.9561341" lon="7.8927766"><ele>899.0</ele><time>2026-04-19T08:53:13.84Z</time></trkpt><trkpt lat="43.9561703" lon="7.8929163"><ele>899.0</ele><time>2026-04-19T08:53:14.84Z</time></trkpt><trkpt lat="43.956224" lon="7.8930234"><ele>901.8000000000001</ele><time>2026-04-19T08:53:15.84Z</time></trkpt><trkpt lat="43.9562885" lon="7.8931446"><ele>904.6000000000001</ele><time>2026-04-19T08:53:16.842Z</time></trkpt><trkpt lat="43.9563518" lon="7.8932533"><ele>907.4</ele><time>2026-04-19T08:53:17.842Z</time></trkpt><trkpt lat="43.9564505" lon="7.8933409"><ele>910.2</ele><time>2026-04-19T08:53:18.84Z</time></trkpt><trkpt lat="43.9565509" lon="7.893428"><ele>913.0</ele><time>2026-04-19T08:53:19.84Z</time></trkpt><trkpt lat="43.9566308" lon="7.8935391"><ele>907.0</ele><time>2026-04-19T08:53:20.84Z</time></trkpt><trkpt lat="43.956714" lon="7.893652"><ele>901.0</ele><time>2026-04-19T08:53:21.842Z</time></trkpt><trkpt lat="43.9567487" lon="7.8938142"><ele>895.0</ele><time>2026-04-19T08:53:22.84Z</time></trkpt><trkpt lat="43.956799" lon="7.8939705"><ele>889.0</ele><time>2026-04-19T08:53:23.842Z</time></trkpt><trkpt lat="43.956865" lon="7.8941158"><ele>889.0</ele><time>2026-04-19T08:53:24.841Z</time></trkpt><trkpt lat="43.9569421" lon="7.8942391"><ele>889.0</ele><time>2026-04-19T08:53:25.839Z</time></trkpt><trkpt lat="43.9570109" lon="7.8943709"><ele>889.0</ele><time>2026-04-19T08:53:26.84Z</time></trkpt><trkpt lat="43.9571155" lon="7.8944269"><ele>889.0</ele><time>2026-04-19T08:53:27.84Z</time></trkpt><trkpt lat="43.9572126" lon="7.8945126"><ele>892.8000000000001</ele><time>2026-04-19T08:53:28.84Z</time></trkpt><trkpt lat="43.9572917" lon="7.8945803"><ele>896.6000000000001</ele><time>2026-04-19T08:53:29.841Z</time></trkpt><trkpt lat="43.9573558" lon="7.894698"><ele>900.4</ele><time>2026-04-19T08:53:30.839Z</time></trkpt><trkpt lat="43.957328" lon="7.8948718"><ele>904.2</ele><time>2026-04-19T08:53:31.841Z</time></trkpt><trkpt lat="43.9573726" lon="7.8950037"><ele>908.0</ele><time>2026-04-19T08:53:32.841Z</time></trkpt><trkpt lat="43.9574185" lon="7.8951535"><ele>904.0</ele><time>2026-04-19T08:53:33.84Z</time></trkpt><trkpt lat="43.9574785" lon="7.8952962"><ele>900.0</ele><time>2026-04-19T08:53:34.841Z</time></trkpt><trkpt lat="43.9575716" lon="7.8953817"><ele>896.0</ele><time>2026-04-19T08:53:35.841Z</time></trkpt><trkpt lat="43.9576536" lon="7.8954683"><ele>892.0</ele><time>2026-04-19T08:53:36.841Z</time></trkpt><trkpt lat="43.9577282" lon="7.8955724"><ele>888.0</ele><time>2026-04-19T08:53:37.842Z</time></trkpt><trkpt lat="43.9578145" lon="7.8956447"><ele>888.0</ele><time>2026-04-19T08:53:38.841Z</time></trkpt><trkpt lat="43.9579169" lon="7.8956959"><ele>888.0</ele><time>2026-04-19T08:53:39.842Z</time></trkpt><trkpt lat="43.9579914" lon="7.8957907"><ele>888.0</ele><time>2026-04-19T08:53:40.841Z</time></trkpt><trkpt lat="43.9580648" lon="7.8958791"><ele>888.0</ele><time>2026-04-19T08:53:41.842Z</time></trkpt><trkpt lat="43.9581358" lon="7.8959784"><ele>888.0</ele><time>2026-04-19T08:53:42.841Z</time></trkpt><trkpt lat="43.9581934" lon="7.8960919"><ele>890.75</ele><time>2026-04-19T08:53:43.841Z</time></trkpt><trkpt lat="43.958219" lon="7.896268"><ele>893.5</ele><time>2026-04-19T08:53:44.841Z</time></trkpt><trkpt lat="43.9582681" lon="7.8964185"><ele>896.25</ele><time>2026-04-19T08:53:45.841Z</time></trkpt><trkpt lat="43.9583136" lon="7.8965937"><ele>899.0</ele><time>2026-04-19T08:53:46.841Z</time></trkpt><trkpt lat="43.958344" lon="7.896765"><ele>888.5</ele><time>2026-04-19T08:53:47.841Z</time></trkpt><trkpt lat="43.9583739" lon="7.8969375"><ele>878.0</ele><time>2026-04-19T08:53:48.841Z</time></trkpt><trkpt lat="43.9583957" lon="7.8971209"><ele>867.5</ele><time>2026-04-19T08:53:49.841Z</time></trkpt><trkpt lat="43.9584089" lon="7.897309"><ele>857.0</ele><time>2026-04-19T08:53:50.842Z</time></trkpt><trkpt lat="43.9584422" lon="7.8974986"><ele>858.5</ele><time>2026-04-19T08:53:51.841Z</time></trkpt><trkpt lat="43.9584708" lon="7.8976905"><ele>860.0</ele><time>2026-04-19T08:53:52.841Z</time></trkpt><trkpt lat="43.9585224" lon="7.8978844"><ele>861.5</ele><time>2026-04-19T08:53:53.84Z</time></trkpt><trkpt lat="43.9585385" lon="7.8980293"><ele>863.0</ele><time>2026-04-19T08:53:54.841Z</time></trkpt><trkpt lat="43.9585522" lon="7.8981991"><ele>863.0</ele><time>2026-04-19T08:53:55.841Z</time></trkpt><trkpt lat="43.9585509" lon="7.8983799"><ele>863.0</ele><time>2026-04-19T08:53:56.841Z</time></trkpt><trkpt lat="43.9585683" lon="7.8985405"><ele>863.0</ele><time>2026-04-19T08:53:57.841Z</time></trkpt><trkpt lat="43.9586162" lon="7.8987099"><ele>863.0</ele><time>2026-04-19T08:53:58.841Z</time></trkpt><trkpt lat="43.9586546" lon="7.8988627"><ele>863.5999999999999</ele><time>2026-04-19T08:53:59.841Z</time></trkpt><trkpt lat="43.9587103" lon="7.8990112"><ele>864.1999999999999</ele><time>2026-04-19T08:54:00.841Z</time></trkpt><trkpt lat="43.958765" lon="7.8990564"><ele>864.8</ele><time>2026-04-19T08:54:01.841Z</time></trkpt><trkpt lat="43.9588217" lon="7.8992125"><ele>865.4</ele><time>2026-04-19T08:54:03.841Z</time></trkpt><trkpt lat="43.9587691" lon="7.8993637"><ele>866.0</ele><time>2026-04-19T08:54:04.841Z</time></trkpt><trkpt lat="43.9587538" lon="7.899496"><ele>865.5999999999999</ele><time>2026-04-19T08:54:05.84Z</time></trkpt><trkpt lat="43.9587717" lon="7.8996379"><ele>865.1999999999999</ele><time>2026-04-19T08:54:06.841Z</time></trkpt><trkpt lat="43.9587854" lon="7.8997938"><ele>864.8000000000001</ele><time>2026-04-19T08:54:07.841Z</time></trkpt><trkpt lat="43.9587592" lon="7.8999327"><ele>864.4000000000001</ele><time>2026-04-19T08:54:08.841Z</time></trkpt><trkpt lat="43.9587403" lon="7.9000863"><ele>864.0</ele><time>2026-04-19T08:54:09.842Z</time></trkpt><trkpt lat="43.9587589" lon="7.9002414"><ele>864.0</ele><time>2026-04-19T08:54:10.841Z</time></trkpt><trkpt lat="43.9587972" lon="7.9003953"><ele>864.0000000000001</ele><time>2026-04-19T08:54:11.84Z</time></trkpt><trkpt lat="43.958836" lon="7.9005451"><ele>864.0000000000001</ele><time>2026-04-19T08:54:12.842Z</time></trkpt><trkpt lat="43.958869" lon="7.9006735"><ele>864.0</ele><time>2026-04-19T08:54:13.842Z</time></trkpt><trkpt lat="43.9589048" lon="7.9008088"><ele>864.0</ele><time>2026-04-19T08:54:14.84Z</time></trkpt><trkpt lat="43.9589757" lon="7.9008879"><ele>864.0</ele><time>2026-04-19T08:54:15.841Z</time></trkpt><trkpt lat="43.9591617" lon="7.9009021"><ele>864.0</ele><time>2026-04-19T08:54:16.841Z</time></trkpt><trkpt lat="43.9592606" lon="7.9009546"><ele>864.0</ele><time>2026-04-19T08:54:17.84Z</time></trkpt><trkpt lat="43.959362" lon="7.9010297"><ele>864.0</ele><time>2026-04-19T08:54:18.841Z</time></trkpt><trkpt lat="43.9594642" lon="7.9010929"><ele>857.6</ele><time>2026-04-19T08:54:19.841Z</time></trkpt><trkpt lat="43.9595517" lon="7.9011612"><ele>851.2</ele><time>2026-04-19T08:54:20.841Z</time></trkpt><trkpt lat="43.9595868" lon="7.9012445"><ele>844.8000000000001</ele><time>2026-04-19T08:54:21.841Z</time></trkpt><trkpt lat="43.9595662" lon="7.9013646"><ele>838.4000000000001</ele><time>2026-04-19T08:54:22.841Z</time></trkpt><trkpt lat="43.9595236" lon="7.9014574"><ele>832.0</ele><time>2026-04-19T08:54:23.841Z</time></trkpt><trkpt lat="43.9594181" lon="7.9015602"><ele>832.0</ele><time>2026-04-19T08:54:24.841Z</time></trkpt><trkpt lat="43.9593814" lon="7.9016622"><ele>832.0</ele><time>2026-04-19T08:54:25.842Z</time></trkpt><trkpt lat="43.9593418" lon="7.9017661"><ele>832.0</ele><time>2026-04-19T08:54:26.841Z</time></trkpt><trkpt lat="43.9593539" lon="7.9019033"><ele>832.0</ele><time>2026-04-19T08:54:27.84Z</time></trkpt><trkpt lat="43.9593779" lon="7.902024"><ele>832.0</ele><time>2026-04-19T08:54:28.841Z</time></trkpt><trkpt lat="43.9593643" lon="7.9021652"><ele>830.6</ele><time>2026-04-19T08:54:29.841Z</time></trkpt><trkpt lat="43.9593049" lon="7.9022754"><ele>829.2</ele><time>2026-04-19T08:54:30.841Z</time></trkpt><trkpt lat="43.9592645" lon="7.9023904"><ele>827.8</ele><time>2026-04-19T08:54:31.84Z</time></trkpt><trkpt lat="43.9592286" lon="7.9024985"><ele>826.4</ele><time>2026-04-19T08:54:32.841Z</time></trkpt><trkpt lat="43.9592219" lon="7.9026254"><ele>825.0</ele><time>2026-04-19T08:54:33.841Z</time></trkpt><trkpt lat="43.9592569" lon="7.9027487"><ele>825.0</ele><time>2026-04-19T08:54:34.841Z</time></trkpt><trkpt lat="43.959278" lon="7.902876"><ele>825.0</ele><time>2026-04-19T08:54:35.841Z</time></trkpt><trkpt lat="43.9593183" lon="7.9030093"><ele>825.0</ele><time>2026-04-19T08:54:36.841Z</time></trkpt><trkpt lat="43.9593523" lon="7.903122"><ele>825.0</ele><time>2026-04-19T08:54:37.841Z</time></trkpt><trkpt lat="43.9593372" lon="7.9032591"><ele>825.0</ele><time>2026-04-19T08:54:38.842Z</time></trkpt><trkpt lat="43.9593426" lon="7.9033994"><ele>825.6</ele><time>2026-04-19T08:54:39.841Z</time></trkpt><trkpt lat="43.9593823" lon="7.9035506"><ele>826.2</ele><time>2026-04-19T08:54:40.84Z</time></trkpt><trkpt lat="43.959419" lon="7.9036901"><ele>826.8</ele><time>2026-04-19T08:54:41.841Z</time></trkpt><trkpt lat="43.9594805" lon="7.9038108"><ele>827.4</ele><time>2026-04-19T08:54:42.841Z</time></trkpt><trkpt lat="43.9595054" lon="7.9039347"><ele>828.0</ele><time>2026-04-19T08:54:43.84Z</time></trkpt><trkpt lat="43.959511" lon="7.904058"><ele>828.0</ele><time>2026-04-19T08:54:44.841Z</time></trkpt><trkpt lat="43.959517" lon="7.9041794"><ele>828.0</ele><time>2026-04-19T08:54:45.84Z</time></trkpt><trkpt lat="43.9595161" lon="7.9043179"><ele>828.0</ele><time>2026-04-19T08:54:46.84Z</time></trkpt><trkpt lat="43.9595262" lon="7.9044676"><ele>828.0</ele><time>2026-04-19T08:54:47.84Z</time></trkpt><trkpt lat="43.9595522" lon="7.9046192"><ele>828.0</ele><time>2026-04-19T08:54:48.84Z</time></trkpt><trkpt lat="43.9595896" lon="7.9047593"><ele>828.4</ele><time>2026-04-19T08:54:49.839Z</time></trkpt><trkpt lat="43.9596293" lon="7.9048989"><ele>828.8</ele><time>2026-04-19T08:54:50.841Z</time></trkpt><trkpt lat="43.9596658" lon="7.9050528"><ele>829.2</ele><time>2026-04-19T08:54:51.84Z</time></trkpt><trkpt lat="43.9597076" lon="7.9051805"><ele>829.6</ele><time>2026-04-19T08:54:52.84Z</time></trkpt><trkpt lat="43.9597621" lon="7.9052838"><ele>830.0</ele><time>2026-04-19T08:54:53.84Z</time></trkpt><trkpt lat="43.9598144" lon="7.9053783"><ele>830.0000000000001</ele><time>2026-04-19T08:54:54.84Z</time></trkpt><trkpt lat="43.959862" lon="7.9054395"><ele>830.0</ele><time>2026-04-19T08:54:55.839Z</time></trkpt><trkpt lat="43.9599044" lon="7.9053684"><ele>830.0</ele><time>2026-04-19T08:54:56.84Z</time></trkpt><trkpt lat="43.9599739" lon="7.90528"><ele>830.0</ele><time>2026-04-19T08:54:58.84Z</time></trkpt><trkpt lat="43.9600023" lon="7.9051958"><ele>830.0000000000001</ele><time>2026-04-19T08:54:59.841Z</time></trkpt><trkpt lat="43.960003" lon="7.9050496"><ele>830.0</ele><time>2026-04-19T08:55:01.84Z</time></trkpt><trkpt lat="43.9599422" lon="7.9049312"><ele>830.0000000000001</ele><time>2026-04-19T08:55:02.839Z</time></trkpt><trkpt lat="43.9599051" lon="7.9048106"><ele>830.0</ele><time>2026-04-19T08:55:03.841Z</time></trkpt><trkpt lat="43.9598901" lon="7.9047244"><ele>830.0</ele><time>2026-04-19T08:55:04.84Z</time></trkpt><trkpt lat="43.9598829" lon="7.9046128"><ele>830.0</ele><time>2026-04-19T08:55:05.84Z</time></trkpt><trkpt lat="43.9599263" lon="7.9045142"><ele>830.0000000000001</ele><time>2026-04-19T08:55:06.84Z</time></trkpt><trkpt lat="43.9599635" lon="7.9044099"><ele>830.0</ele><time>2026-04-19T08:55:07.841Z</time></trkpt><trkpt lat="43.9600675" lon="7.9043274"><ele>821.8</ele><time>2026-04-19T08:55:08.841Z</time></trkpt><trkpt lat="43.9601401" lon="7.9042592"><ele>813.6</ele><time>2026-04-19T08:55:09.84Z</time></trkpt><trkpt lat="43.9601969" lon="7.9041409"><ele>805.4000000000001</ele><time>2026-04-19T08:55:10.84Z</time></trkpt><trkpt lat="43.9602499" lon="7.904008"><ele>797.2</ele><time>2026-04-19T08:55:11.84Z</time></trkpt><trkpt lat="43.9603114" lon="7.9038833"><ele>789.0</ele><time>2026-04-19T08:55:12.839Z</time></trkpt><trkpt lat="43.960354" lon="7.9037442"><ele>789.0</ele><time>2026-04-19T08:55:13.84Z</time></trkpt><trkpt lat="43.960401" lon="7.9036183"><ele>789.0</ele><time>2026-04-19T08:55:14.841Z</time></trkpt><trkpt lat="43.9604382" lon="7.9034612"><ele>789.0</ele><time>2026-04-19T08:55:15.84Z</time></trkpt><trkpt lat="43.9604259" lon="7.9033246"><ele>789.0</ele><time>2026-04-19T08:55:16.84Z</time></trkpt><trkpt lat="43.9603778" lon="7.9031994"><ele>789.0</ele><time>2026-04-19T08:55:17.841Z</time></trkpt><trkpt lat="43.960318" lon="7.9030872"><ele>789.8333333333334</ele><time>2026-04-19T08:55:18.84Z</time></trkpt><trkpt lat="43.9602572" lon="7.9030199"><ele>790.6666666666667</ele><time>2026-04-19T08:55:19.84Z</time></trkpt><trkpt lat="43.9601839" lon="7.9029833"><ele>791.5</ele><time>2026-04-19T08:55:20.841Z</time></trkpt><trkpt lat="43.960143" lon="7.902914"><ele>792.3333333333334</ele><time>2026-04-19T08:55:21.839Z</time></trkpt><trkpt lat="43.9601423" lon="7.9028171"><ele>793.1666666666667</ele><time>2026-04-19T08:55:22.841Z</time></trkpt><trkpt lat="43.9601958" lon="7.90269"><ele>794.0</ele><time>2026-04-19T08:55:24.84Z</time></trkpt><trkpt lat="43.960269" lon="7.902702"><ele>794.0000000000001</ele><time>2026-04-19T08:55:25.842Z</time></trkpt><trkpt lat="43.9603273" lon="7.9027514"><ele>794.0</ele><time>2026-04-19T08:55:26.84Z</time></trkpt><trkpt lat="43.960375" lon="7.9028274"><ele>794.0</ele><time>2026-04-19T08:55:27.839Z</time></trkpt><trkpt lat="43.9604272" lon="7.9029202"><ele>794.0</ele><time>2026-04-19T08:55:28.84Z</time></trkpt><trkpt lat="43.9604731" lon="7.9030159"><ele>794.0000000000001</ele><time>2026-04-19T08:55:29.841Z</time></trkpt><trkpt lat="43.960536" lon="7.9031111"><ele>794.0</ele><time>2026-04-19T08:55:30.841Z</time></trkpt><trkpt lat="43.9605837" lon="7.9032322"><ele>794.0000000000001</ele><time>2026-04-19T08:55:31.844Z</time></trkpt><trkpt lat="43.960644" lon="7.9033301"><ele>794.0</ele><time>2026-04-19T08:55:32.84Z</time></trkpt><trkpt lat="43.9606797" lon="7.9034278"><ele>794.0</ele><time>2026-04-19T08:55:33.84Z</time></trkpt><trkpt lat="43.9606861" lon="7.9035475"><ele>794.0</ele><time>2026-04-19T08:55:34.84Z</time></trkpt><trkpt lat="43.9606852" lon="7.9036479"><ele>794.0000000000001</ele><time>2026-04-19T08:55:35.84Z</time></trkpt><trkpt lat="43.9606432" lon="7.9037686"><ele>794.0</ele><time>2026-04-19T08:55:36.839Z</time></trkpt><trkpt lat="43.9606072" lon="7.9038935"><ele>793.0</ele><time>2026-04-19T08:55:37.839Z</time></trkpt><trkpt lat="43.9605878" lon="7.9040484"><ele>792.0</ele><time>2026-04-19T08:55:38.84Z</time></trkpt><trkpt lat="43.9605686" lon="7.9041848"><ele>791.0</ele><time>2026-04-19T08:55:39.839Z</time></trkpt><trkpt lat="43.960541" lon="7.904322"><ele>790.0</ele><time>2026-04-19T08:55:40.839Z</time></trkpt><trkpt lat="43.9605391" lon="7.9044513"><ele>789.0</ele><time>2026-04-19T08:55:41.839Z</time></trkpt><trkpt lat="43.9605467" lon="7.9045695"><ele>788.0</ele><time>2026-04-19T08:55:42.843Z</time></trkpt><trkpt lat="43.9605611" lon="7.9046936"><ele>787.0</ele><time>2026-04-19T08:55:43.841Z</time></trkpt><trkpt lat="43.9605959" lon="7.9048325"><ele>786.0</ele><time>2026-04-19T08:55:44.839Z</time></trkpt><trkpt lat="43.9606412" lon="7.9049796"><ele>785.0</ele><time>2026-04-19T08:55:45.84Z</time></trkpt><trkpt lat="43.9606827" lon="7.9051254"><ele>784.0</ele><time>2026-04-19T08:55:46.84Z</time></trkpt><trkpt lat="43.9607252" lon="7.9052541"><ele>783.0</ele><time>2026-04-19T08:55:47.84Z</time></trkpt><trkpt lat="43.9607605" lon="7.9053831"><ele>782.0</ele><time>2026-04-19T08:55:48.839Z</time></trkpt><trkpt lat="43.9607614" lon="7.9055037"><ele>781.0</ele><time>2026-04-19T08:55:49.843Z</time></trkpt><trkpt lat="43.9607155" lon="7.9056412"><ele>780.0</ele><time>2026-04-19T08:55:50.845Z</time></trkpt><trkpt lat="43.9606798" lon="7.9057892"><ele>779.0</ele><time>2026-04-19T08:55:51.842Z</time></trkpt><trkpt lat="43.9606298" lon="7.905949"><ele>774.5</ele><time>2026-04-19T08:55:52.843Z</time></trkpt><trkpt lat="43.9605857" lon="7.9061069"><ele>770.0</ele><time>2026-04-19T08:55:53.84Z</time></trkpt><trkpt lat="43.9605542" lon="7.9062503"><ele>765.5</ele><time>2026-04-19T08:55:54.84Z</time></trkpt><trkpt lat="43.9605131" lon="7.9064234"><ele>761.0</ele><time>2026-04-19T08:55:55.841Z</time></trkpt><trkpt lat="43.9604334" lon="7.9065608"><ele>761.0</ele><time>2026-04-19T08:55:56.841Z</time></trkpt><trkpt lat="43.9603719" lon="7.9067077"><ele>761.0</ele><time>2026-04-19T08:55:57.841Z</time></trkpt><trkpt lat="43.9602984" lon="7.9068222"><ele>761.0</ele><time>2026-04-19T08:55:58.84Z</time></trkpt><trkpt lat="43.9602088" lon="7.906908"><ele>761.0</ele><time>2026-04-19T08:55:59.84Z</time></trkpt><trkpt lat="43.9601369" lon="7.9070008"><ele>761.0</ele><time>2026-04-19T08:56:00.841Z</time></trkpt><trkpt lat="43.9600611" lon="7.9071225"><ele>760.0</ele><time>2026-04-19T08:56:01.84Z</time></trkpt><trkpt lat="43.959994" lon="7.9072444"><ele>759.0</ele><time>2026-04-19T08:56:02.84Z</time></trkpt><trkpt lat="43.9599416" lon="7.9073949"><ele>758.0</ele><time>2026-04-19T08:56:03.845Z</time></trkpt><trkpt lat="43.959897" lon="7.9075438"><ele>757.0</ele><time>2026-04-19T08:56:04.839Z</time></trkpt><trkpt lat="43.9598439" lon="7.9076779"><ele>757.0</ele><time>2026-04-19T08:56:05.839Z</time></trkpt><trkpt lat="43.959793" lon="7.9078026"><ele>757.0</ele><time>2026-04-19T08:56:07.841Z</time></trkpt><trkpt lat="43.9597732" lon="7.907912"><ele>757.0</ele><time>2026-04-19T08:56:08.84Z</time></trkpt><trkpt lat="43.9597956" lon="7.9080229"><ele>757.0</ele><time>2026-04-19T08:56:09.841Z</time></trkpt><trkpt lat="43.959873" lon="7.9080489"><ele>757.0</ele><time>2026-04-19T08:56:10.841Z</time></trkpt><trkpt lat="43.9599331" lon="7.9078878"><ele>757.0</ele><time>2026-04-19T08:56:11.841Z</time></trkpt><trkpt lat="43.9600302" lon="7.90772"><ele>757.0</ele><time>2026-04-19T08:56:13.841Z</time></trkpt><trkpt lat="43.9601017" lon="7.9076149"><ele>757.0</ele><time>2026-04-19T08:56:14.84Z</time></trkpt><trkpt lat="43.9601647" lon="7.9074992"><ele>757.0</ele><time>2026-04-19T08:56:15.841Z</time></trkpt><trkpt lat="43.9602233" lon="7.9073787"><ele>753.4000000000001</ele><time>2026-04-19T08:56:16.841Z</time></trkpt><trkpt lat="43.9602973" lon="7.9072762"><ele>749.8000000000001</ele><time>2026-04-19T08:56:17.84Z</time></trkpt><trkpt lat="43.960388" lon="7.9071923"><ele>746.2</ele><time>2026-04-19T08:56:18.839Z</time></trkpt><trkpt lat="43.9604874" lon="7.9071251"><ele>742.6</ele><time>2026-04-19T08:56:19.84Z</time></trkpt><trkpt lat="43.9605866" lon="7.9070371"><ele>739.0</ele><time>2026-04-19T08:56:20.84Z</time></trkpt><trkpt lat="43.9606738" lon="7.906938"><ele>739.0</ele><time>2026-04-19T08:56:21.84Z</time></trkpt><trkpt lat="43.9607672" lon="7.9068437"><ele>739.0</ele><time>2026-04-19T08:56:22.84Z</time></trkpt><trkpt lat="43.9608367" lon="7.9067417"><ele>739.0</ele><time>2026-04-19T08:56:23.839Z</time></trkpt><trkpt lat="43.9609277" lon="7.9066335"><ele>739.0</ele><time>2026-04-19T08:56:24.84Z</time></trkpt><trkpt lat="43.9610272" lon="7.9065463"><ele>737.0</ele><time>2026-04-19T08:56:25.842Z</time></trkpt><trkpt lat="43.9611299" lon="7.9064381"><ele>735.0</ele><time>2026-04-19T08:56:26.84Z</time></trkpt><trkpt lat="43.9612237" lon="7.9063155"><ele>733.0</ele><time>2026-04-19T08:56:27.84Z</time></trkpt><trkpt lat="43.9613283" lon="7.9062071"><ele>731.0</ele><time>2026-04-19T08:56:28.839Z</time></trkpt><trkpt lat="43.9614464" lon="7.9061192"><ele>731.0</ele><time>2026-04-19T08:56:29.841Z</time></trkpt><trkpt lat="43.9615485" lon="7.9060324"><ele>731.0</ele><time>2026-04-19T08:56:30.84Z</time></trkpt><trkpt lat="43.9616544" lon="7.905945"><ele>731.0</ele><time>2026-04-19T08:56:31.84Z</time></trkpt><trkpt lat="43.9617247" lon="7.9058417"><ele>731.0</ele><time>2026-04-19T08:56:32.84Z</time></trkpt><trkpt lat="43.9617858" lon="7.9057386"><ele>731.0</ele><time>2026-04-19T08:56:33.839Z</time></trkpt><trkpt lat="43.9618413" lon="7.9056256"><ele>731.1999999999999</ele><time>2026-04-19T08:56:34.84Z</time></trkpt><trkpt lat="43.9618531" lon="7.9055059"><ele>731.4</ele><time>2026-04-19T08:56:35.839Z</time></trkpt><trkpt lat="43.9618291" lon="7.9053954"><ele>731.6</ele><time>2026-04-19T08:56:36.84Z</time></trkpt><trkpt lat="43.9617562" lon="7.9052733"><ele>731.8</ele><time>2026-04-19T08:56:37.84Z</time></trkpt><trkpt lat="43.9617056" lon="7.90515"><ele>732.0</ele><time>2026-04-19T08:56:38.841Z</time></trkpt><trkpt lat="43.9616591" lon="7.9050264"><ele>732.0</ele><time>2026-04-19T08:56:39.84Z</time></trkpt><trkpt lat="43.9616382" lon="7.9049314"><ele>732.0</ele><time>2026-04-19T08:56:40.84Z</time></trkpt><trkpt lat="43.9616246" lon="7.9048354"><ele>732.0</ele><time>2026-04-19T08:56:41.84Z</time></trkpt><trkpt lat="43.9616432" lon="7.9047449"><ele>732.0</ele><time>2026-04-19T08:56:42.841Z</time></trkpt><trkpt lat="43.9617383" lon="7.9046535"><ele>732.0</ele><time>2026-04-19T08:56:43.84Z</time></trkpt><trkpt lat="43.9617896" lon="7.9045832"><ele>732.0</ele><time>2026-04-19T08:56:44.84Z</time></trkpt><trkpt lat="43.9618372" lon="7.9045192"><ele>732.0</ele><time>2026-04-19T08:56:45.84Z</time></trkpt><trkpt lat="43.9619368" lon="7.9045381"><ele>732.0</ele><time>2026-04-19T08:56:47.84Z</time></trkpt><trkpt lat="43.9620043" lon="7.9045588"><ele>732.0</ele><time>2026-04-19T08:56:48.842Z</time></trkpt><trkpt lat="43.96208" lon="7.9045788"><ele>732.0</ele><time>2026-04-19T08:56:49.84Z</time></trkpt><trkpt lat="43.9621677" lon="7.9045798"><ele>732.0</ele><time>2026-04-19T08:56:50.84Z</time></trkpt><trkpt lat="43.9622412" lon="7.9045021"><ele>732.0</ele><time>2026-04-19T08:56:51.84Z</time></trkpt><trkpt lat="43.9622888" lon="7.9044336"><ele>732.0</ele><time>2026-04-19T08:56:52.84Z</time></trkpt><trkpt lat="43.9623465" lon="7.9043373"><ele>732.0</ele><time>2026-04-19T08:56:53.84Z</time></trkpt><trkpt lat="43.9622718" lon="7.9042443"><ele>732.0</ele><time>2026-04-19T08:56:54.84Z</time></trkpt><trkpt lat="43.9622373" lon="7.9041582"><ele>732.0</ele><time>2026-04-19T08:56:55.841Z</time></trkpt><trkpt lat="43.9622412" lon="7.9040689"><ele>732.0</ele><time>2026-04-19T08:56:56.841Z</time></trkpt><trkpt lat="43.9623258" lon="7.9039547"><ele>732.0</ele><time>2026-04-19T08:56:58.841Z</time></trkpt><trkpt lat="43.9624286" lon="7.9039671"><ele>732.2</ele><time>2026-04-19T08:57:00.841Z</time></trkpt><trkpt lat="43.96251" lon="7.9039964"><ele>732.4000000000001</ele><time>2026-04-19T08:57:01.84Z</time></trkpt><trkpt lat="43.9625849" lon="7.9040271"><ele>732.5999999999999</ele><time>2026-04-19T08:57:02.841Z</time></trkpt><trkpt lat="43.9626907" lon="7.9040128"><ele>732.8</ele><time>2026-04-19T08:57:03.839Z</time></trkpt><trkpt lat="43.9627843" lon="7.9040035"><ele>733.0</ele><time>2026-04-19T08:57:04.839Z</time></trkpt><trkpt lat="43.9628689" lon="7.9039261"><ele>730.2</ele><time>2026-04-19T08:57:05.839Z</time></trkpt><trkpt lat="43.9629649" lon="7.903853"><ele>727.4</ele><time>2026-04-19T08:57:06.841Z</time></trkpt><trkpt lat="43.9630473" lon="7.9037718"><ele>724.6</ele><time>2026-04-19T08:57:07.841Z</time></trkpt><trkpt lat="43.9631108" lon="7.9036812"><ele>721.8000000000001</ele><time>2026-04-19T08:57:08.84Z</time></trkpt><trkpt lat="43.9631574" lon="7.903591"><ele>719.0</ele><time>2026-04-19T08:57:09.84Z</time></trkpt><trkpt lat="43.963174" lon="7.903489"><ele>718.4000000000001</ele><time>2026-04-19T08:57:10.84Z</time></trkpt><trkpt lat="43.9631893" lon="7.903361"><ele>717.8</ele><time>2026-04-19T08:57:11.842Z</time></trkpt><trkpt lat="43.9631677" lon="7.9032272"><ele>717.2</ele><time>2026-04-19T08:57:12.841Z</time></trkpt><trkpt lat="43.9631554" lon="7.9031091"><ele>716.5999999999999</ele><time>2026-04-19T08:57:13.84Z</time></trkpt><trkpt lat="43.9631529" lon="7.9029161"><ele>716.0</ele><time>2026-04-19T08:57:15.84Z</time></trkpt><trkpt lat="43.9631706" lon="7.9028315"><ele>716.0</ele><time>2026-04-19T08:57:16.841Z</time></trkpt><trkpt lat="43.9632453" lon="7.9027023"><ele>716.0</ele><time>2026-04-19T08:57:18.84Z</time></trkpt><trkpt lat="43.9633074" lon="7.9026385"><ele>716.0</ele><time>2026-04-19T08:57:19.84Z</time></trkpt><trkpt lat="43.9633667" lon="7.9025421"><ele>716.0</ele><time>2026-04-19T08:57:20.84Z</time></trkpt><trkpt lat="43.9634197" lon="7.9024413"><ele>716.0</ele><time>2026-04-19T08:57:21.84Z</time></trkpt><trkpt lat="43.9634672" lon="7.9023199"><ele>715.5999999999999</ele><time>2026-04-19T08:57:22.841Z</time></trkpt><trkpt lat="43.9633984" lon="7.9021896"><ele>715.2</ele><time>2026-04-19T08:57:23.84Z</time></trkpt><trkpt lat="43.9633206" lon="7.9020792"><ele>714.8</ele><time>2026-04-19T08:57:24.84Z</time></trkpt><trkpt lat="43.9632449" lon="7.9019908"><ele>714.4000000000001</ele><time>2026-04-19T08:57:25.842Z</time></trkpt><trkpt lat="43.9631603" lon="7.9018976"><ele>714.0</ele><time>2026-04-19T08:57:26.84Z</time></trkpt><trkpt lat="43.9630915" lon="7.9018199"><ele>711.6666666666666</ele><time>2026-04-19T08:57:27.84Z</time></trkpt><trkpt lat="43.9630293" lon="7.9017253"><ele>709.3333333333334</ele><time>2026-04-19T08:57:28.839Z</time></trkpt><trkpt lat="43.9629737" lon="7.9016089"><ele>707.0</ele><time>2026-04-19T08:57:29.84Z</time></trkpt><trkpt lat="43.9629303" lon="7.901509"><ele>704.6666666666667</ele><time>2026-04-19T08:57:30.84Z</time></trkpt><trkpt lat="43.9629097" lon="7.9014205"><ele>702.3333333333334</ele><time>2026-04-19T08:57:31.839Z</time></trkpt><trkpt lat="43.9629479" lon="7.9013282"><ele>700.0</ele><time>2026-04-19T08:57:32.84Z</time></trkpt><trkpt lat="43.9630031" lon="7.901274"><ele>700.0</ele><time>2026-04-19T08:57:33.839Z</time></trkpt><trkpt lat="43.9630727" lon="7.9012647"><ele>700.0</ele><time>2026-04-19T08:57:35.839Z</time></trkpt><trkpt lat="43.9631173" lon="7.9013659"><ele>700.0</ele><time>2026-04-19T08:57:36.84Z</time></trkpt><trkpt lat="43.9631335" lon="7.9014573"><ele>700.0</ele><time>2026-04-19T08:57:37.84Z</time></trkpt><trkpt lat="43.9631672" lon="7.9015697"><ele>700.0</ele><time>2026-04-19T08:57:38.839Z</time></trkpt><trkpt lat="43.9632227" lon="7.9016881"><ele>700.0</ele><time>2026-04-19T08:57:39.839Z</time></trkpt><trkpt lat="43.9632856" lon="7.9018077"><ele>703.5</ele><time>2026-04-19T08:57:40.84Z</time></trkpt><trkpt lat="43.9633582" lon="7.9019223"><ele>707.0</ele><time>2026-04-19T08:57:41.841Z</time></trkpt><trkpt lat="43.9634559" lon="7.9020318"><ele>710.5</ele><time>2026-04-19T08:57:42.841Z</time></trkpt><trkpt lat="43.9635569" lon="7.9021291"><ele>714.0</ele><time>2026-04-19T08:57:43.84Z</time></trkpt><trkpt lat="43.9636531" lon="7.9022296"><ele>708.2</ele><time>2026-04-19T08:57:44.841Z</time></trkpt><trkpt lat="43.9637367" lon="7.9023315"><ele>702.4000000000001</ele><time>2026-04-19T08:57:45.84Z</time></trkpt><trkpt lat="43.9638037" lon="7.9024431"><ele>696.6</ele><time>2026-04-19T08:57:46.839Z</time></trkpt><trkpt lat="43.9638327" lon="7.9025693"><ele>690.8</ele><time>2026-04-19T08:57:47.841Z</time></trkpt><trkpt lat="43.9638493" lon="7.9027118"><ele>685.0</ele><time>2026-04-19T08:57:48.84Z</time></trkpt><trkpt lat="43.9638581" lon="7.9028647"><ele>685.0</ele><time>2026-04-19T08:57:49.84Z</time></trkpt><trkpt lat="43.9638645" lon="7.9030259"><ele>685.0</ele><time>2026-04-19T08:57:50.84Z</time></trkpt><trkpt lat="43.9638691" lon="7.9031847"><ele>685.0</ele><time>2026-04-19T08:57:51.84Z</time></trkpt><trkpt lat="43.9638873" lon="7.9033466"><ele>685.0</ele><time>2026-04-19T08:57:52.84Z</time></trkpt><trkpt lat="43.9638984" lon="7.9035083"><ele>686.3333333333334</ele><time>2026-04-19T08:57:53.84Z</time></trkpt><trkpt lat="43.9639054" lon="7.9036538"><ele>687.6666666666667</ele><time>2026-04-19T08:57:54.84Z</time></trkpt><trkpt lat="43.9639252" lon="7.9037864"><ele>689.0</ele><time>2026-04-19T08:57:55.841Z</time></trkpt><trkpt lat="43.9639148" lon="7.9038952"><ele>690.3333333333334</ele><time>2026-04-19T08:57:56.84Z</time></trkpt><trkpt lat="43.9639435" lon="7.9040026"><ele>691.6666666666666</ele><time>2026-04-19T08:57:57.84Z</time></trkpt><trkpt lat="43.9639674" lon="7.9040993"><ele>693.0</ele><time>2026-04-19T08:57:58.841Z</time></trkpt><trkpt lat="43.9640343" lon="7.9041956"><ele>693.5999999999999</ele><time>2026-04-19T08:57:59.839Z</time></trkpt><trkpt lat="43.9640983" lon="7.9042828"><ele>694.1999999999999</ele><time>2026-04-19T08:58:00.84Z</time></trkpt><trkpt lat="43.9641928" lon="7.9043643"><ele>694.8</ele><time>2026-04-19T08:58:01.841Z</time></trkpt><trkpt lat="43.96427" lon="7.9044394"><ele>695.4</ele><time>2026-04-19T08:58:02.84Z</time></trkpt><trkpt lat="43.9643255" lon="7.9045548"><ele>696.0</ele><time>2026-04-19T08:58:03.839Z</time></trkpt><trkpt lat="43.9643798" lon="7.9046743"><ele>689.8</ele><time>2026-04-19T08:58:04.84Z</time></trkpt><trkpt lat="43.9644257" lon="7.9048017"><ele>683.5999999999999</ele><time>2026-04-19T08:58:05.84Z</time></trkpt><trkpt lat="43.9644272" lon="7.9049651"><ele>677.4</ele><time>2026-04-19T08:58:06.839Z</time></trkpt><trkpt lat="43.9644333" lon="7.9050899"><ele>671.2</ele><time>2026-04-19T08:58:07.84Z</time></trkpt><trkpt lat="43.9644414" lon="7.9052262"><ele>665.0</ele><time>2026-04-19T08:58:08.84Z</time></trkpt><trkpt lat="43.9644308" lon="7.9053644"><ele>664.2</ele><time>2026-04-19T08:58:09.84Z</time></trkpt><trkpt lat="43.9643992" lon="7.9055124"><ele>663.4</ele><time>2026-04-19T08:58:10.84Z</time></trkpt><trkpt lat="43.9643787" lon="7.9056467"><ele>662.5999999999999</ele><time>2026-04-19T08:58:11.839Z</time></trkpt><trkpt lat="43.9643622" lon="7.9057913"><ele>661.8</ele><time>2026-04-19T08:58:12.84Z</time></trkpt><trkpt lat="43.9643654" lon="7.9059544"><ele>661.0</ele><time>2026-04-19T08:58:13.841Z</time></trkpt><trkpt lat="43.9643661" lon="7.9061212"><ele>659.0</ele><time>2026-04-19T08:58:14.839Z</time></trkpt><trkpt lat="43.9643528" lon="7.9062412"><ele>657.0</ele><time>2026-04-19T08:58:15.84Z</time></trkpt><trkpt lat="43.9643361" lon="7.9063801"><ele>655.0</ele><time>2026-04-19T08:58:16.841Z</time></trkpt><trkpt lat="43.9643069" lon="7.906494"><ele>653.0</ele><time>2026-04-19T08:58:17.84Z</time></trkpt><trkpt lat="43.964259" lon="7.9066304"><ele>651.0</ele><time>2026-04-19T08:58:18.84Z</time></trkpt><trkpt lat="43.9642101" lon="7.9067489"><ele>648.4</ele><time>2026-04-19T08:58:19.84Z</time></trkpt><trkpt lat="43.964165" lon="7.9068571"><ele>645.8</ele><time>2026-04-19T08:58:20.839Z</time></trkpt><trkpt lat="43.9641741" lon="7.9069958"><ele>643.1999999999999</ele><time>2026-04-19T08:58:21.84Z</time></trkpt><trkpt lat="43.9642418" lon="7.9071388"><ele>640.5999999999999</ele><time>2026-04-19T08:58:22.839Z</time></trkpt><trkpt lat="43.9643054" lon="7.9072695"><ele>638.0</ele><time>2026-04-19T08:58:23.84Z</time></trkpt><trkpt lat="43.964357" lon="7.9074062"><ele>638.0</ele><time>2026-04-19T08:58:24.84Z</time></trkpt><trkpt lat="43.9643986" lon="7.9075375"><ele>638.0</ele><time>2026-04-19T08:58:25.84Z</time></trkpt><trkpt lat="43.9643932" lon="7.9076688"><ele>638.0</ele><time>2026-04-19T08:58:26.839Z</time></trkpt><trkpt lat="43.9643933" lon="7.9078005"><ele>638.0</ele><time>2026-04-19T08:58:27.841Z</time></trkpt><trkpt lat="43.9643493" lon="7.9079299"><ele>638.0</ele><time>2026-04-19T08:58:28.842Z</time></trkpt><trkpt lat="43.9643003" lon="7.9080507"><ele>635.75</ele><time>2026-04-19T08:58:29.839Z</time></trkpt><trkpt lat="43.9642517" lon="7.9081967"><ele>633.5</ele><time>2026-04-19T08:58:30.839Z</time></trkpt><trkpt lat="43.96421" lon="7.9083442"><ele>631.25</ele><time>2026-04-19T08:58:31.84Z</time></trkpt><trkpt lat="43.964188" lon="7.9085062"><ele>629.0</ele><time>2026-04-19T08:58:32.84Z</time></trkpt><trkpt lat="43.9642077" lon="7.9086593"><ele>628.2</ele><time>2026-04-19T08:58:33.841Z</time></trkpt><trkpt lat="43.9642494" lon="7.9088312"><ele>627.4</ele><time>2026-04-19T08:58:34.841Z</time></trkpt><trkpt lat="43.9642673" lon="7.9089835"><ele>626.6</ele><time>2026-04-19T08:58:35.841Z</time></trkpt><trkpt lat="43.9642661" lon="7.9091235"><ele>625.8</ele><time>2026-04-19T08:58:36.84Z</time></trkpt><trkpt lat="43.964228" lon="7.9092541"><ele>625.0</ele><time>2026-04-19T08:58:37.842Z</time></trkpt><trkpt lat="43.9641719" lon="7.9093696"><ele>628.4</ele><time>2026-04-19T08:58:38.84Z</time></trkpt><trkpt lat="43.9640922" lon="7.9094663"><ele>631.8</ele><time>2026-04-19T08:58:39.84Z</time></trkpt><trkpt lat="43.9640196" lon="7.9095635"><ele>635.2</ele><time>2026-04-19T08:58:40.841Z</time></trkpt><trkpt lat="43.9639587" lon="7.9096944"><ele>638.6</ele><time>2026-04-19T08:58:41.841Z</time></trkpt><trkpt lat="43.9639069" lon="7.9098343"><ele>642.0</ele><time>2026-04-19T08:58:42.84Z</time></trkpt><trkpt lat="43.9638738" lon="7.9099795"><ele>637.6</ele><time>2026-04-19T08:58:43.842Z</time></trkpt><trkpt lat="43.9638387" lon="7.9101014"><ele>633.2</ele><time>2026-04-19T08:58:44.84Z</time></trkpt><trkpt lat="43.9637662" lon="7.9101874"><ele>628.8</ele><time>2026-04-19T08:58:45.84Z</time></trkpt><trkpt lat="43.9636967" lon="7.9102583"><ele>624.4</ele><time>2026-04-19T08:58:46.842Z</time></trkpt><trkpt lat="43.963604" lon="7.9102956"><ele>620.0</ele><time>2026-04-19T08:58:47.84Z</time></trkpt><trkpt lat="43.9635129" lon="7.9103235"><ele>620.0</ele><time>2026-04-19T08:58:48.84Z</time></trkpt><trkpt lat="43.9634195" lon="7.9103294"><ele>620.0</ele><time>2026-04-19T08:58:49.839Z</time></trkpt><trkpt lat="43.9633151" lon="7.9103475"><ele>620.0</ele><time>2026-04-19T08:58:50.841Z</time></trkpt><trkpt lat="43.963215" lon="7.9103612"><ele>620.0</ele><time>2026-04-19T08:58:51.84Z</time></trkpt><trkpt lat="43.9631162" lon="7.9104012"><ele>620.0</ele><time>2026-04-19T08:58:52.839Z</time></trkpt><trkpt lat="43.9630258" lon="7.9104447"><ele>620.6</ele><time>2026-04-19T08:58:53.839Z</time></trkpt><trkpt lat="43.962948" lon="7.9105031"><ele>621.2</ele><time>2026-04-19T08:58:54.841Z</time></trkpt><trkpt lat="43.9628979" lon="7.91059"><ele>621.8</ele><time>2026-04-19T08:58:55.841Z</time></trkpt><trkpt lat="43.962849" lon="7.9107306"><ele>622.4</ele><time>2026-04-19T08:58:56.84Z</time></trkpt><trkpt lat="43.9628161" lon="7.9108777"><ele>623.0</ele><time>2026-04-19T08:58:57.84Z</time></trkpt><trkpt lat="43.9628067" lon="7.9110365"><ele>623.0</ele><time>2026-04-19T08:58:58.84Z</time></trkpt><trkpt lat="43.9628061" lon="7.9112308"><ele>623.0</ele><time>2026-04-19T08:58:59.839Z</time></trkpt><trkpt lat="43.9628291" lon="7.9113929"><ele>623.0</ele><time>2026-04-19T08:59:00.839Z</time></trkpt><trkpt lat="43.9628669" lon="7.9115706"><ele>623.0</ele><time>2026-04-19T08:59:01.84Z</time></trkpt><trkpt lat="43.9628894" lon="7.9117253"><ele>622.1666666666666</ele><time>2026-04-19T08:59:02.84Z</time></trkpt><trkpt lat="43.9629386" lon="7.9118613"><ele>621.3333333333333</ele><time>2026-04-19T08:59:03.841Z</time></trkpt><trkpt lat="43.9629844" lon="7.9119434"><ele>620.5</ele><time>2026-04-19T08:59:04.84Z</time></trkpt><trkpt lat="43.9630594" lon="7.9119886"><ele>619.6666666666666</ele><time>2026-04-19T08:59:05.84Z</time></trkpt><trkpt lat="43.9631359" lon="7.9119931"><ele>618.8333333333334</ele><time>2026-04-19T08:59:06.84Z</time></trkpt><trkpt lat="43.9632" lon="7.9119599"><ele>618.0</ele><time>2026-04-19T08:59:07.841Z</time></trkpt><trkpt lat="43.9632441" lon="7.9118855"><ele>618.0</ele><time>2026-04-19T08:59:08.839Z</time></trkpt><trkpt lat="43.9632593" lon="7.9117706"><ele>618.0</ele><time>2026-04-19T08:59:09.84Z</time></trkpt><trkpt lat="43.963241" lon="7.9116672"><ele>618.0</ele><time>2026-04-19T08:59:10.84Z</time></trkpt><trkpt lat="43.9632199" lon="7.9115556"><ele>618.0</ele><time>2026-04-19T08:59:11.841Z</time></trkpt><trkpt lat="43.9631973" lon="7.911438"><ele>618.0</ele><time>2026-04-19T08:59:12.841Z</time></trkpt><trkpt lat="43.9632062" lon="7.9113225"><ele>618.0</ele><time>2026-04-19T08:59:13.841Z</time></trkpt><trkpt lat="43.9632163" lon="7.9112288"><ele>618.8333333333334</ele><time>2026-04-19T08:59:14.839Z</time></trkpt><trkpt lat="43.9632573" lon="7.9111415"><ele>619.6666666666666</ele><time>2026-04-19T08:59:15.84Z</time></trkpt><trkpt lat="43.9633008" lon="7.9110582"><ele>620.5</ele><time>2026-04-19T08:59:16.84Z</time></trkpt><trkpt lat="43.963367" lon="7.9110277"><ele>621.3333333333333</ele><time>2026-04-19T08:59:17.841Z</time></trkpt><trkpt lat="43.9634436" lon="7.9110075"><ele>622.1666666666666</ele><time>2026-04-19T08:59:18.84Z</time></trkpt><trkpt lat="43.9635307" lon="7.9109823"><ele>623.0</ele><time>2026-04-19T08:59:19.841Z</time></trkpt><trkpt lat="43.9636237" lon="7.9109527"><ele>622.4</ele><time>2026-04-19T08:59:20.84Z</time></trkpt><trkpt lat="43.9637112" lon="7.9109294"><ele>621.8</ele><time>2026-04-19T08:59:21.839Z</time></trkpt><trkpt lat="43.9638055" lon="7.9109081"><ele>621.2</ele><time>2026-04-19T08:59:22.841Z</time></trkpt><trkpt lat="43.9639038" lon="7.9108743"><ele>620.6</ele><time>2026-04-19T08:59:23.839Z</time></trkpt><trkpt lat="43.9640014" lon="7.9108201"><ele>620.0</ele><time>2026-04-19T08:59:24.84Z</time></trkpt><trkpt lat="43.9641094" lon="7.9107621"><ele>617.5</ele><time>2026-04-19T08:59:25.841Z</time></trkpt><trkpt lat="43.9642152" lon="7.9106815"><ele>615.0</ele><time>2026-04-19T08:59:26.84Z</time></trkpt><trkpt lat="43.9643252" lon="7.9105979"><ele>612.5</ele><time>2026-04-19T08:59:27.84Z</time></trkpt><trkpt lat="43.9644306" lon="7.9105521"><ele>610.0</ele><time>2026-04-19T08:59:28.84Z</time></trkpt><trkpt lat="43.964529" lon="7.9105227"><ele>610.0</ele><time>2026-04-19T08:59:29.839Z</time></trkpt><trkpt lat="43.9646311" lon="7.9105049"><ele>610.0</ele><time>2026-04-19T08:59:30.841Z</time></trkpt><trkpt lat="43.964724" lon="7.9105347"><ele>610.0</ele><time>2026-04-19T08:59:31.841Z</time></trkpt><trkpt lat="43.9648143" lon="7.910561"><ele>610.0</ele><time>2026-04-19T08:59:32.839Z</time></trkpt><trkpt lat="43.964901" lon="7.9105646"><ele>610.0</ele><time>2026-04-19T08:59:33.84Z</time></trkpt><trkpt lat="43.9649763" lon="7.9105427"><ele>605.6</ele><time>2026-04-19T08:59:34.839Z</time></trkpt><trkpt lat="43.9650409" lon="7.9104848"><ele>601.2</ele><time>2026-04-19T08:59:35.84Z</time></trkpt><trkpt lat="43.9650978" lon="7.9104246"><ele>596.8</ele><time>2026-04-19T08:59:36.84Z</time></trkpt><trkpt lat="43.9651425" lon="7.9103093"><ele>592.4</ele><time>2026-04-19T08:59:37.84Z</time></trkpt><trkpt lat="43.9651932" lon="7.9101836"><ele>588.0</ele><time>2026-04-19T08:59:38.839Z</time></trkpt><trkpt lat="43.965237" lon="7.9100086"><ele>588.0</ele><time>2026-04-19T08:59:39.84Z</time></trkpt><trkpt lat="43.9653033" lon="7.9098573"><ele>588.0</ele><time>2026-04-19T08:59:40.84Z</time></trkpt><trkpt lat="43.9653648" lon="7.9097196"><ele>588.0</ele><time>2026-04-19T08:59:41.84Z</time></trkpt><trkpt lat="43.9654415" lon="7.9095899"><ele>588.0</ele><time>2026-04-19T08:59:42.84Z</time></trkpt><trkpt lat="43.9655269" lon="7.9094574"><ele>588.0</ele><time>2026-04-19T08:59:43.84Z</time></trkpt><trkpt lat="43.9656024" lon="7.9093414"><ele>588.0</ele><time>2026-04-19T08:59:44.841Z</time></trkpt><trkpt lat="43.96566" lon="7.9092215"><ele>588.0</ele><time>2026-04-19T08:59:45.84Z</time></trkpt><trkpt lat="43.9657001" lon="7.9091052"><ele>588.0</ele><time>2026-04-19T08:59:46.84Z</time></trkpt><trkpt lat="43.9657211" lon="7.9089727"><ele>588.0</ele><time>2026-04-19T08:59:47.841Z</time></trkpt><trkpt lat="43.9657273" lon="7.9088378"><ele>589.4</ele><time>2026-04-19T08:59:48.841Z</time></trkpt><trkpt lat="43.9657216" lon="7.9087075"><ele>590.8</ele><time>2026-04-19T08:59:49.841Z</time></trkpt><trkpt lat="43.9657176" lon="7.9085424"><ele>592.2</ele><time>2026-04-19T08:59:50.84Z</time></trkpt><trkpt lat="43.9657389" lon="7.9083882"><ele>593.6</ele><time>2026-04-19T08:59:51.84Z</time></trkpt><trkpt lat="43.9657287" lon="7.9082425"><ele>595.0</ele><time>2026-04-19T08:59:52.839Z</time></trkpt><trkpt lat="43.9657195" lon="7.9081063"><ele>595.6</ele><time>2026-04-19T08:59:53.84Z</time></trkpt><trkpt lat="43.9657397" lon="7.9079955"><ele>596.2</ele><time>2026-04-19T08:59:54.839Z</time></trkpt><trkpt lat="43.9657889" lon="7.907904"><ele>596.8</ele><time>2026-04-19T08:59:55.84Z</time></trkpt><trkpt lat="43.9658946" lon="7.9078355"><ele>597.4</ele><time>2026-04-19T08:59:57.839Z</time></trkpt><trkpt lat="43.9659709" lon="7.9078641"><ele>598.0</ele><time>2026-04-19T08:59:58.84Z</time></trkpt><trkpt lat="43.9660617" lon="7.9079267"><ele>596.0</ele><time>2026-04-19T08:59:59.84Z</time></trkpt><trkpt lat="43.9661324" lon="7.907994"><ele>594.0</ele><time>2026-04-19T09:00:00.84Z</time></trkpt><trkpt lat="43.9662262" lon="7.9080426"><ele>592.0</ele><time>2026-04-19T09:00:01.84Z</time></trkpt><trkpt lat="43.9663263" lon="7.9081049"><ele>590.0</ele><time>2026-04-19T09:00:02.84Z</time></trkpt><trkpt lat="43.9664238" lon="7.9081652"><ele>588.0</ele><time>2026-04-19T09:00:03.84Z</time></trkpt><trkpt lat="43.966514" lon="7.9082287"><ele>588.0</ele><time>2026-04-19T09:00:04.84Z</time></trkpt><trkpt lat="43.9665844" lon="7.9083025"><ele>588.0</ele><time>2026-04-19T09:00:05.839Z</time></trkpt><trkpt lat="43.9666644" lon="7.9083282"><ele>588.0</ele><time>2026-04-19T09:00:06.84Z</time></trkpt><trkpt lat="43.9667376" lon="7.908282"><ele>588.0</ele><time>2026-04-19T09:00:07.839Z</time></trkpt><trkpt lat="43.966795" lon="7.9082064"><ele>588.0</ele><time>2026-04-19T09:00:08.84Z</time></trkpt><trkpt lat="43.9668542" lon="7.9081091"><ele>588.0</ele><time>2026-04-19T09:00:09.84Z</time></trkpt><trkpt lat="43.9669113" lon="7.9080167"><ele>585.6</ele><time>2026-04-19T09:00:10.84Z</time></trkpt><trkpt lat="43.9669825" lon="7.9079329"><ele>583.1999999999999</ele><time>2026-04-19T09:00:11.84Z</time></trkpt><trkpt lat="43.9670761" lon="7.9078335"><ele>580.8</ele><time>2026-04-19T09:00:12.84Z</time></trkpt><trkpt lat="43.967167" lon="7.9077951"><ele>578.4</ele><time>2026-04-19T09:00:13.84Z</time></trkpt><trkpt lat="43.9672492" lon="7.9077895"><ele>576.0</ele><time>2026-04-19T09:00:14.84Z</time></trkpt><trkpt lat="43.9673379" lon="7.9078111"><ele>576.0</ele><time>2026-04-19T09:00:15.84Z</time></trkpt><trkpt lat="43.9674322" lon="7.9078607"><ele>576.0</ele><time>2026-04-19T09:00:16.84Z</time></trkpt><trkpt lat="43.9675087" lon="7.9079099"><ele>576.0</ele><time>2026-04-19T09:00:17.841Z</time></trkpt><trkpt lat="43.9675751" lon="7.9079743"><ele>576.0</ele><time>2026-04-19T09:00:18.84Z</time></trkpt><trkpt lat="43.9676274" lon="7.9080379"><ele>576.0</ele><time>2026-04-19T09:00:19.84Z</time></trkpt><trkpt lat="43.9676137" lon="7.9081531"><ele>576.0</ele><time>2026-04-19T09:00:20.84Z</time></trkpt><trkpt lat="43.9675868" lon="7.9082492"><ele>574.0</ele><time>2026-04-19T09:00:21.841Z</time></trkpt><trkpt lat="43.967542" lon="7.9083544"><ele>572.0</ele><time>2026-04-19T09:00:22.84Z</time></trkpt><trkpt lat="43.9674865" lon="7.9084649"><ele>570.0</ele><time>2026-04-19T09:00:23.841Z</time></trkpt><trkpt lat="43.9674144" lon="7.9085858"><ele>568.0</ele><time>2026-04-19T09:00:24.84Z</time></trkpt><trkpt lat="43.967354" lon="7.9087088"><ele>566.0</ele><time>2026-04-19T09:00:25.839Z</time></trkpt><trkpt lat="43.9672888" lon="7.9088331"><ele>566.0</ele><time>2026-04-19T09:00:26.84Z</time></trkpt><trkpt lat="43.9672278" lon="7.9089516"><ele>566.0</ele><time>2026-04-19T09:00:27.84Z</time></trkpt><trkpt lat="43.9672179" lon="7.9090794"><ele>566.0</ele><time>2026-04-19T09:00:28.84Z</time></trkpt><trkpt lat="43.9671786" lon="7.9091971"><ele>566.0</ele><time>2026-04-19T09:00:29.84Z</time></trkpt><trkpt lat="43.9671676" lon="7.9093422"><ele>566.0</ele><time>2026-04-19T09:00:30.84Z</time></trkpt><trkpt lat="43.967138" lon="7.9094674"><ele>564.0</ele><time>2026-04-19T09:00:31.84Z</time></trkpt><trkpt lat="43.9670866" lon="7.909625"><ele>562.0</ele><time>2026-04-19T09:00:32.84Z</time></trkpt><trkpt lat="43.9670166" lon="7.9097689"><ele>560.0</ele><time>2026-04-19T09:00:33.84Z</time></trkpt><trkpt lat="43.9669836" lon="7.9099372"><ele>558.0</ele><time>2026-04-19T09:00:34.84Z</time></trkpt><trkpt lat="43.9669517" lon="7.9101329"><ele>556.8</ele><time>2026-04-19T09:00:35.84Z</time></trkpt><trkpt lat="43.9669123" lon="7.9102885"><ele>555.5999999999999</ele><time>2026-04-19T09:00:36.84Z</time></trkpt><trkpt lat="43.9669237" lon="7.9104471"><ele>554.4000000000001</ele><time>2026-04-19T09:00:37.84Z</time></trkpt><trkpt lat="43.9669319" lon="7.9105968"><ele>553.2</ele><time>2026-04-19T09:00:38.84Z</time></trkpt><trkpt lat="43.9669575" lon="7.9107365"><ele>552.0</ele><time>2026-04-19T09:00:39.839Z</time></trkpt><trkpt lat="43.9670002" lon="7.9108681"><ele>550.6</ele><time>2026-04-19T09:00:40.84Z</time></trkpt><trkpt lat="43.9670493" lon="7.9109983"><ele>549.2</ele><time>2026-04-19T09:00:41.84Z</time></trkpt><trkpt lat="43.9670931" lon="7.9111238"><ele>547.8</ele><time>2026-04-19T09:00:42.84Z</time></trkpt><trkpt lat="43.9671144" lon="7.9112271"><ele>546.4</ele><time>2026-04-19T09:00:43.84Z</time></trkpt><trkpt lat="43.9670435" lon="7.911341"><ele>545.0</ele><time>2026-04-19T09:00:45.84Z</time></trkpt><trkpt lat="43.9669801" lon="7.9113583"><ele>545.0</ele><time>2026-04-19T09:00:46.84Z</time></trkpt><trkpt lat="43.96689" lon="7.9113866"><ele>545.0</ele><time>2026-04-19T09:00:47.841Z</time></trkpt><trkpt lat="43.9668253" lon="7.9114473"><ele>545.0</ele><time>2026-04-19T09:00:48.841Z</time></trkpt><trkpt lat="43.9667798" lon="7.9115418"><ele>545.0</ele><time>2026-04-19T09:00:49.84Z</time></trkpt><trkpt lat="43.9667643" lon="7.9116523"><ele>545.0</ele><time>2026-04-19T09:00:50.84Z</time></trkpt><trkpt lat="43.9668405" lon="7.9117651"><ele>545.0</ele><time>2026-04-19T09:00:51.839Z</time></trkpt><trkpt lat="43.9668828" lon="7.9119023"><ele>542.75</ele><time>2026-04-19T09:00:52.84Z</time></trkpt><trkpt lat="43.9669493" lon="7.9120506"><ele>540.5</ele><time>2026-04-19T09:00:53.84Z</time></trkpt><trkpt lat="43.9670139" lon="7.912201"><ele>538.25</ele><time>2026-04-19T09:00:54.84Z</time></trkpt><trkpt lat="43.9670725" lon="7.9123455"><ele>536.0</ele><time>2026-04-19T09:00:55.841Z</time></trkpt><trkpt lat="43.9671273" lon="7.9124797"><ele>536.0</ele><time>2026-04-19T09:00:56.84Z</time></trkpt><trkpt lat="43.967156" lon="7.9125719"><ele>536.0</ele><time>2026-04-19T09:00:57.84Z</time></trkpt><trkpt lat="43.9671795" lon="7.9126847"><ele>536.0</ele><time>2026-04-19T09:00:58.839Z</time></trkpt><trkpt lat="43.967113" lon="7.9127284"><ele>536.0</ele><time>2026-04-19T09:00:59.842Z</time></trkpt><trkpt lat="43.9670475" lon="7.9127963"><ele>536.0</ele><time>2026-04-19T09:01:00.84Z</time></trkpt><trkpt lat="43.9669547" lon="7.9128429"><ele>536.0</ele><time>2026-04-19T09:01:01.84Z</time></trkpt><trkpt lat="43.9668506" lon="7.9128773"><ele>535.4</ele><time>2026-04-19T09:01:02.84Z</time></trkpt><trkpt lat="43.9667299" lon="7.9129127"><ele>534.8</ele><time>2026-04-19T09:01:03.841Z</time></trkpt><trkpt lat="43.9666218" lon="7.9129344"><ele>534.1999999999999</ele><time>2026-04-19T09:01:04.841Z</time></trkpt><trkpt lat="43.966528" lon="7.9129507"><ele>533.6</ele><time>2026-04-19T09:01:05.841Z</time></trkpt><trkpt lat="43.9664413" lon="7.9130129"><ele>533.0</ele><time>2026-04-19T09:01:06.84Z</time></trkpt><trkpt lat="43.9663639" lon="7.9130644"><ele>533.0</ele><time>2026-04-19T09:01:07.84Z</time></trkpt><trkpt lat="43.9663319" lon="7.9131864"><ele>533.0</ele><time>2026-04-19T09:01:08.84Z</time></trkpt><trkpt lat="43.966375" lon="7.9133068"><ele>533.0</ele><time>2026-04-19T09:01:09.841Z</time></trkpt><trkpt lat="43.9664046" lon="7.9134337"><ele>533.0</ele><time>2026-04-19T09:01:10.84Z</time></trkpt><trkpt lat="43.9664058" lon="7.9135482"><ele>533.0</ele><time>2026-04-19T09:01:11.84Z</time></trkpt><trkpt lat="43.9663839" lon="7.91364"><ele>533.0</ele><time>2026-04-19T09:01:12.84Z</time></trkpt><trkpt lat="43.966251" lon="7.913727"><ele>529.1999999999999</ele><time>2026-04-19T09:01:14.84Z</time></trkpt><trkpt lat="43.9661672" lon="7.9137598"><ele>525.4</ele><time>2026-04-19T09:01:15.84Z</time></trkpt><trkpt lat="43.9660964" lon="7.9138136"><ele>521.5999999999999</ele><time>2026-04-19T09:01:16.84Z</time></trkpt><trkpt lat="43.9660162" lon="7.9139129"><ele>517.8</ele><time>2026-04-19T09:01:17.84Z</time></trkpt><trkpt lat="43.9659658" lon="7.9140168"><ele>514.0</ele><time>2026-04-19T09:01:18.839Z</time></trkpt><trkpt lat="43.9659719" lon="7.9141886"><ele>510.2</ele><time>2026-04-19T09:01:19.84Z</time></trkpt><trkpt lat="43.9659595" lon="7.9143527"><ele>506.4</ele><time>2026-04-19T09:01:20.84Z</time></trkpt><trkpt lat="43.9659637" lon="7.9145216"><ele>502.6</ele><time>2026-04-19T09:01:21.84Z</time></trkpt><trkpt lat="43.965964" lon="7.9146564"><ele>498.8</ele><time>2026-04-19T09:01:22.84Z</time></trkpt><trkpt lat="43.965948" lon="7.9147725"><ele>495.0</ele><time>2026-04-19T09:01:23.841Z</time></trkpt><trkpt lat="43.9659028" lon="7.9148608"><ele>499.0</ele><time>2026-04-19T09:01:24.841Z</time></trkpt><trkpt lat="43.9658209" lon="7.9149308"><ele>503.0</ele><time>2026-04-19T09:01:25.84Z</time></trkpt><trkpt lat="43.9657325" lon="7.9149827"><ele>507.0</ele><time>2026-04-19T09:01:26.84Z</time></trkpt><trkpt lat="43.9656241" lon="7.9149803"><ele>511.0</ele><time>2026-04-19T09:01:27.841Z</time></trkpt><trkpt lat="43.9655379" lon="7.9149942"><ele>515.0</ele><time>2026-04-19T09:01:28.839Z</time></trkpt><trkpt lat="43.9654502" lon="7.9150123"><ele>512.3333333333333</ele><time>2026-04-19T09:01:29.84Z</time></trkpt><trkpt lat="43.9654095" lon="7.9151306"><ele>509.66666666666663</ele><time>2026-04-19T09:01:30.841Z</time></trkpt><trkpt lat="43.9653909" lon="7.9152366"><ele>507.0</ele><time>2026-04-19T09:01:31.84Z</time></trkpt><trkpt lat="43.9654205" lon="7.9153465"><ele>504.33333333333337</ele><time>2026-04-19T09:01:32.84Z</time></trkpt><trkpt lat="43.9654799" lon="7.9154225"><ele>501.6666666666667</ele><time>2026-04-19T09:01:33.839Z</time></trkpt><trkpt lat="43.9655615" lon="7.91546"><ele>499.0</ele><time>2026-04-19T09:01:34.84Z</time></trkpt><trkpt lat="43.965646" lon="7.9154823"><ele>499.0</ele><time>2026-04-19T09:01:35.84Z</time></trkpt><trkpt lat="43.9657589" lon="7.9154597"><ele>499.0</ele><time>2026-04-19T09:01:36.84Z</time></trkpt><trkpt lat="43.965874" lon="7.91546"><ele>499.0</ele><time>2026-04-19T09:01:37.84Z</time></trkpt><trkpt lat="43.965997" lon="7.9154612"><ele>499.0</ele><time>2026-04-19T09:01:38.84Z</time></trkpt><trkpt lat="43.9661225" lon="7.9154229"><ele>498.2</ele><time>2026-04-19T09:01:39.84Z</time></trkpt><trkpt lat="43.9662309" lon="7.9153767"><ele>497.4</ele><time>2026-04-19T09:01:40.84Z</time></trkpt><trkpt lat="43.9663128" lon="7.9153179"><ele>496.6</ele><time>2026-04-19T09:01:41.84Z</time></trkpt><trkpt lat="43.9663596" lon="7.9152181"><ele>495.8</ele><time>2026-04-19T09:01:42.84Z</time></trkpt><trkpt lat="43.9663902" lon="7.9150779"><ele>495.0</ele><time>2026-04-19T09:01:43.84Z</time></trkpt><trkpt lat="43.9664207" lon="7.9149297"><ele>495.0</ele><time>2026-04-19T09:01:44.841Z</time></trkpt><trkpt lat="43.966467" lon="7.9147859"><ele>495.0</ele><time>2026-04-19T09:01:45.84Z</time></trkpt><trkpt lat="43.9665344" lon="7.9146537"><ele>495.0</ele><time>2026-04-19T09:01:46.839Z</time></trkpt><trkpt lat="43.9666266" lon="7.9145419"><ele>495.0</ele><time>2026-04-19T09:01:47.839Z</time></trkpt><trkpt lat="43.9667083" lon="7.9144584"><ele>490.0</ele><time>2026-04-19T09:01:48.84Z</time></trkpt><trkpt lat="43.9667901" lon="7.9143689"><ele>485.0</ele><time>2026-04-19T09:01:49.841Z</time></trkpt><trkpt lat="43.9668898" lon="7.9144306"><ele>480.0</ele><time>2026-04-19T09:01:51.841Z</time></trkpt><trkpt lat="43.9669259" lon="7.9145218"><ele>475.0</ele><time>2026-04-19T09:01:53.84Z</time></trkpt><trkpt lat="43.9668406" lon="7.9146292"><ele>470.0</ele><time>2026-04-19T09:01:54.841Z</time></trkpt><trkpt lat="43.9668027" lon="7.9147391"><ele>470.0</ele><time>2026-04-19T09:01:55.841Z</time></trkpt><trkpt lat="43.9667613" lon="7.9148603"><ele>470.0</ele><time>2026-04-19T09:01:56.84Z</time></trkpt><trkpt lat="43.966719" lon="7.9150105"><ele>470.0</ele><time>2026-04-19T09:01:57.84Z</time></trkpt><trkpt lat="43.9666794" lon="7.9151873"><ele>470.0</ele><time>2026-04-19T09:01:58.84Z</time></trkpt><trkpt lat="43.9666545" lon="7.9153516"><ele>472.2</ele><time>2026-04-19T09:01:59.84Z</time></trkpt><trkpt lat="43.9666288" lon="7.9154822"><ele>474.4</ele><time>2026-04-19T09:02:00.84Z</time></trkpt><trkpt lat="43.9665931" lon="7.9156275"><ele>476.6</ele><time>2026-04-19T09:02:01.84Z</time></trkpt><trkpt lat="43.9665336" lon="7.9157312"><ele>478.8</ele><time>2026-04-19T09:02:02.84Z</time></trkpt><trkpt lat="43.9664795" lon="7.9158044"><ele>481.0</ele><time>2026-04-19T09:02:03.84Z</time></trkpt><trkpt lat="43.9663661" lon="7.9158781"><ele>478.4</ele><time>2026-04-19T09:02:04.84Z</time></trkpt><trkpt lat="43.9662718" lon="7.9159519"><ele>475.8</ele><time>2026-04-19T09:02:05.84Z</time></trkpt><trkpt lat="43.966188" lon="7.916054"><ele>473.19999999999993</ele><time>2026-04-19T09:02:06.84Z</time></trkpt><trkpt lat="43.9660861" lon="7.9161186"><ele>470.59999999999997</ele><time>2026-04-19T09:02:07.839Z</time></trkpt><trkpt lat="43.9659949" lon="7.9161802"><ele>468.0</ele><time>2026-04-19T09:02:08.84Z</time></trkpt><trkpt lat="43.9659235" lon="7.9162623"><ele>468.0</ele><time>2026-04-19T09:02:09.84Z</time></trkpt><trkpt lat="43.9658976" lon="7.9163749"><ele>467.99999999999994</ele><time>2026-04-19T09:02:10.841Z</time></trkpt><trkpt lat="43.9659174" lon="7.9164921"><ele>467.99999999999994</ele><time>2026-04-19T09:02:11.84Z</time></trkpt><trkpt lat="43.9659704" lon="7.916593"><ele>468.0</ele><time>2026-04-19T09:02:12.84Z</time></trkpt><trkpt lat="43.9660383" lon="7.9166809"><ele>468.0</ele><time>2026-04-19T09:02:13.84Z</time></trkpt><trkpt lat="43.9661099" lon="7.9167818"><ele>468.5</ele><time>2026-04-19T09:02:14.84Z</time></trkpt><trkpt lat="43.9661828" lon="7.916898"><ele>469.0</ele><time>2026-04-19T09:02:15.84Z</time></trkpt><trkpt lat="43.9662407" lon="7.9170326"><ele>469.5</ele><time>2026-04-19T09:02:16.84Z</time></trkpt><trkpt lat="43.9662955" lon="7.9171973"><ele>470.0</ele><time>2026-04-19T09:02:17.84Z</time></trkpt><trkpt lat="43.9663695" lon="7.9173462"><ele>470.0</ele><time>2026-04-19T09:02:18.84Z</time></trkpt><trkpt lat="43.9664437" lon="7.9174813"><ele>470.0</ele><time>2026-04-19T09:02:19.84Z</time></trkpt><trkpt lat="43.9665383" lon="7.9176015"><ele>470.0</ele><time>2026-04-19T09:02:20.84Z</time></trkpt><trkpt lat="43.9666268" lon="7.9177135"><ele>470.0</ele><time>2026-04-19T09:02:21.841Z</time></trkpt><trkpt lat="43.9666735" lon="7.9178829"><ele>471.75</ele><time>2026-04-19T09:02:22.84Z</time></trkpt><trkpt lat="43.9667071" lon="7.9180354"><ele>473.5</ele><time>2026-04-19T09:02:23.839Z</time></trkpt><trkpt lat="43.966664" lon="7.9181863"><ele>475.25</ele><time>2026-04-19T09:02:24.84Z</time></trkpt><trkpt lat="43.9666274" lon="7.9183351"><ele>477.0</ele><time>2026-04-19T09:02:25.84Z</time></trkpt><trkpt lat="43.9665727" lon="7.9184859"><ele>478.5</ele><time>2026-04-19T09:02:26.84Z</time></trkpt><trkpt lat="43.966533" lon="7.9186399"><ele>480.0</ele><time>2026-04-19T09:02:27.84Z</time></trkpt><trkpt lat="43.9665197" lon="7.9188132"><ele>481.5</ele><time>2026-04-19T09:02:28.839Z</time></trkpt><trkpt lat="43.9665703" lon="7.9189424"><ele>483.0</ele><time>2026-04-19T09:02:29.84Z</time></trkpt><trkpt lat="43.9666088" lon="7.9190894"><ele>478.25</ele><time>2026-04-19T09:02:30.84Z</time></trkpt><trkpt lat="43.9667025" lon="7.9192015"><ele>473.5</ele><time>2026-04-19T09:02:31.841Z</time></trkpt><trkpt lat="43.9668116" lon="7.9193087"><ele>468.75</ele><time>2026-04-19T09:02:32.84Z</time></trkpt><trkpt lat="43.9669127" lon="7.9194197"><ele>464.0</ele><time>2026-04-19T09:02:33.839Z</time></trkpt><trkpt lat="43.9670047" lon="7.9195506"><ele>464.0</ele><time>2026-04-19T09:02:34.84Z</time></trkpt><trkpt lat="43.9670795" lon="7.9196857"><ele>464.0</ele><time>2026-04-19T09:02:35.84Z</time></trkpt><trkpt lat="43.9671708" lon="7.9198177"><ele>464.0</ele><time>2026-04-19T09:02:36.841Z</time></trkpt><trkpt lat="43.9672567" lon="7.9199659"><ele>464.0</ele><time>2026-04-19T09:02:37.84Z</time></trkpt><trkpt lat="43.9673497" lon="7.9201104"><ele>467.75</ele><time>2026-04-19T09:02:38.84Z</time></trkpt><trkpt lat="43.9674456" lon="7.920245"><ele>471.5</ele><time>2026-04-19T09:02:39.84Z</time></trkpt><trkpt lat="43.9675233" lon="7.9203774"><ele>475.25</ele><time>2026-04-19T09:02:40.841Z</time></trkpt><trkpt lat="43.9676125" lon="7.9205127"><ele>479.0</ele><time>2026-04-19T09:02:41.839Z</time></trkpt><trkpt lat="43.9676904" lon="7.9206424"><ele>473.79999999999995</ele><time>2026-04-19T09:02:42.84Z</time></trkpt><trkpt lat="43.9677435" lon="7.9207928"><ele>468.59999999999997</ele><time>2026-04-19T09:02:43.84Z</time></trkpt><trkpt lat="43.9677711" lon="7.9209357"><ele>463.4</ele><time>2026-04-19T09:02:44.84Z</time></trkpt><trkpt lat="43.9677561" lon="7.9210792"><ele>458.2</ele><time>2026-04-19T09:02:45.84Z</time></trkpt><trkpt lat="43.9677303" lon="7.9212326"><ele>453.0</ele><time>2026-04-19T09:02:46.84Z</time></trkpt><trkpt lat="43.9677145" lon="7.921376"><ele>453.0</ele><time>2026-04-19T09:02:47.841Z</time></trkpt><trkpt lat="43.9676962" lon="7.9215238"><ele>452.99999999999994</ele><time>2026-04-19T09:02:48.839Z</time></trkpt><trkpt lat="43.9676929" lon="7.9216666"><ele>452.99999999999994</ele><time>2026-04-19T09:02:49.84Z</time></trkpt><trkpt lat="43.9677388" lon="7.9218077"><ele>453.0</ele><time>2026-04-19T09:02:50.84Z</time></trkpt><trkpt lat="43.9677941" lon="7.9219222"><ele>453.0</ele><time>2026-04-19T09:02:51.84Z</time></trkpt><trkpt lat="43.9678766" lon="7.9220161"><ele>452.0</ele><time>2026-04-19T09:02:52.84Z</time></trkpt><trkpt lat="43.9679733" lon="7.9220675"><ele>450.99999999999994</ele><time>2026-04-19T09:02:53.84Z</time></trkpt><trkpt lat="43.9680807" lon="7.9221111"><ele>449.99999999999994</ele><time>2026-04-19T09:02:54.841Z</time></trkpt><trkpt lat="43.9681851" lon="7.9221315"><ele>449.0</ele><time>2026-04-19T09:02:55.841Z</time></trkpt><trkpt lat="43.9682979" lon="7.9221749"><ele>448.0</ele><time>2026-04-19T09:02:56.839Z</time></trkpt><trkpt lat="43.9684039" lon="7.9222101"><ele>448.0</ele><time>2026-04-19T09:02:57.841Z</time></trkpt><trkpt lat="43.9685039" lon="7.9222459"><ele>447.99999999999994</ele><time>2026-04-19T09:02:58.84Z</time></trkpt><trkpt lat="43.9685937" lon="7.9223139"><ele>447.99999999999994</ele><time>2026-04-19T09:02:59.84Z</time></trkpt><trkpt lat="43.9686503" lon="7.922435"><ele>448.0</ele><time>2026-04-19T09:03:00.841Z</time></trkpt><trkpt lat="43.9687124" lon="7.9225687"><ele>448.0</ele><time>2026-04-19T09:03:01.84Z</time></trkpt><trkpt lat="43.9687797" lon="7.9226979"><ele>450.25</ele><time>2026-04-19T09:03:02.84Z</time></trkpt><trkpt lat="43.9688722" lon="7.9228073"><ele>452.5</ele><time>2026-04-19T09:03:03.839Z</time></trkpt><trkpt lat="43.9689705" lon="7.9229027"><ele>454.75</ele><time>2026-04-19T09:03:04.841Z</time></trkpt><trkpt lat="43.9690687" lon="7.9229834"><ele>457.0</ele><time>2026-04-19T09:03:05.841Z</time></trkpt><trkpt lat="43.969162" lon="7.9230564"><ele>457.0</ele><time>2026-04-19T09:03:06.84Z</time></trkpt><trkpt lat="43.9692214" lon="7.9231523"><ele>457.00000000000006</ele><time>2026-04-19T09:03:07.84Z</time></trkpt><trkpt lat="43.9691816" lon="7.9233504"><ele>457.00000000000006</ele><time>2026-04-19T09:03:08.839Z</time></trkpt><trkpt lat="43.9691967" lon="7.923475"><ele>457.0</ele><time>2026-04-19T09:03:09.839Z</time></trkpt><trkpt lat="43.9691926" lon="7.9236257"><ele>457.0</ele><time>2026-04-19T09:03:10.84Z</time></trkpt><trkpt lat="43.969182" lon="7.9237746"><ele>457.0</ele><time>2026-04-19T09:03:11.84Z</time></trkpt><trkpt lat="43.9691629" lon="7.9239311"><ele>457.00000000000006</ele><time>2026-04-19T09:03:12.839Z</time></trkpt><trkpt lat="43.9691513" lon="7.9240715"><ele>457.00000000000006</ele><time>2026-04-19T09:03:13.84Z</time></trkpt><trkpt lat="43.9691505" lon="7.9242309"><ele>457.0</ele><time>2026-04-19T09:03:14.84Z</time></trkpt><trkpt lat="43.9691705" lon="7.9243885"><ele>457.0</ele><time>2026-04-19T09:03:15.84Z</time></trkpt><trkpt lat="43.9692063" lon="7.9245434"><ele>452.75</ele><time>2026-04-19T09:03:16.84Z</time></trkpt><trkpt lat="43.969252" lon="7.9246936"><ele>448.5</ele><time>2026-04-19T09:03:17.84Z</time></trkpt><trkpt lat="43.9692936" lon="7.9248457"><ele>444.25</ele><time>2026-04-19T09:03:18.841Z</time></trkpt><trkpt lat="43.9693382" lon="7.9249923"><ele>440.0</ele><time>2026-04-19T09:03:19.84Z</time></trkpt><trkpt lat="43.9693769" lon="7.92515"><ele>440.0</ele><time>2026-04-19T09:03:20.84Z</time></trkpt><trkpt lat="43.9694079" lon="7.9253233"><ele>440.0</ele><time>2026-04-19T09:03:21.84Z</time></trkpt><trkpt lat="43.9694436" lon="7.9254815"><ele>440.0</ele><time>2026-04-19T09:03:22.839Z</time></trkpt><trkpt lat="43.9694749" lon="7.9256352"><ele>440.0</ele><time>2026-04-19T09:03:23.84Z</time></trkpt><trkpt lat="43.9695145" lon="7.9257466"><ele>439.99999999999994</ele><time>2026-04-19T09:03:24.84Z</time></trkpt><trkpt lat="43.9695449" lon="7.9258767"><ele>440.0</ele><time>2026-04-19T09:03:25.84Z</time></trkpt><trkpt lat="43.9695457" lon="7.925982"><ele>440.0</ele><time>2026-04-19T09:03:26.84Z</time></trkpt><trkpt lat="43.9695521" lon="7.926085"><ele>440.0</ele><time>2026-04-19T09:03:27.84Z</time></trkpt><trkpt lat="43.9695654" lon="7.9261762"><ele>439.99999999999994</ele><time>2026-04-19T09:03:28.84Z</time></trkpt><trkpt lat="43.9695381" lon="7.9263353"><ele>440.0</ele><time>2026-04-19T09:03:30.84Z</time></trkpt><trkpt lat="43.9694715" lon="7.9264042"><ele>441.16666666666663</ele><time>2026-04-19T09:03:31.84Z</time></trkpt><trkpt lat="43.9694023" lon="7.9264726"><ele>442.3333333333333</ele><time>2026-04-19T09:03:32.84Z</time></trkpt><trkpt lat="43.9693292" lon="7.9265197"><ele>443.5</ele><time>2026-04-19T09:03:33.84Z</time></trkpt><trkpt lat="43.9692537" lon="7.9265605"><ele>444.66666666666663</ele><time>2026-04-19T09:03:34.84Z</time></trkpt><trkpt lat="43.96918" lon="7.9266029"><ele>445.8333333333333</ele><time>2026-04-19T09:03:35.84Z</time></trkpt><trkpt lat="43.9691089" lon="7.9266473"><ele>447.0</ele><time>2026-04-19T09:03:36.84Z</time></trkpt><trkpt lat="43.9690438" lon="7.9267113"><ele>444.8333333333333</ele><time>2026-04-19T09:03:37.84Z</time></trkpt><trkpt lat="43.9689668" lon="7.9267596"><ele>442.66666666666663</ele><time>2026-04-19T09:03:38.84Z</time></trkpt><trkpt lat="43.9688828" lon="7.9267995"><ele>440.5</ele><time>2026-04-19T09:03:39.84Z</time></trkpt><trkpt lat="43.9687785" lon="7.9268349"><ele>438.3333333333333</ele><time>2026-04-19T09:03:40.84Z</time></trkpt><trkpt lat="43.9686959" lon="7.9268129"><ele>436.16666666666663</ele><time>2026-04-19T09:03:41.84Z</time></trkpt><trkpt lat="43.9686209" lon="7.926774"><ele>434.0</ele><time>2026-04-19T09:03:42.84Z</time></trkpt><trkpt lat="43.9685336" lon="7.9267937"><ele>433.99999999999994</ele><time>2026-04-19T09:03:43.84Z</time></trkpt><trkpt lat="43.9685295" lon="7.9269169"><ele>434.0</ele><time>2026-04-19T09:03:44.839Z</time></trkpt><trkpt lat="43.9685881" lon="7.9270524"><ele>434.0</ele><time>2026-04-19T09:03:46.84Z</time></trkpt><trkpt lat="43.9686548" lon="7.9270789"><ele>434.0</ele><time>2026-04-19T09:03:47.84Z</time></trkpt><trkpt lat="43.9687351" lon="7.9270802"><ele>433.99999999999994</ele><time>2026-04-19T09:03:48.84Z</time></trkpt><trkpt lat="43.9688214" lon="7.9270839"><ele>434.0</ele><time>2026-04-19T09:03:49.84Z</time></trkpt><trkpt lat="43.9689201" lon="7.9270833"><ele>434.0</ele><time>2026-04-19T09:03:50.84Z</time></trkpt><trkpt lat="43.9690243" lon="7.927087"><ele>434.0</ele><time>2026-04-19T09:03:51.839Z</time></trkpt><trkpt lat="43.9691266" lon="7.9271045"><ele>434.0</ele><time>2026-04-19T09:03:52.84Z</time></trkpt><trkpt lat="43.9692414" lon="7.9271163"><ele>434.0</ele><time>2026-04-19T09:03:53.841Z</time></trkpt><trkpt lat="43.9693575" lon="7.9271288"><ele>434.0</ele><time>2026-04-19T09:03:54.84Z</time></trkpt><trkpt lat="43.9694801" lon="7.9271492"><ele>433.75</ele><time>2026-04-19T09:03:55.84Z</time></trkpt><trkpt lat="43.9695935" lon="7.9271812"><ele>433.5</ele><time>2026-04-19T09:03:56.839Z</time></trkpt><trkpt lat="43.9697108" lon="7.9272154"><ele>433.25</ele><time>2026-04-19T09:03:57.84Z</time></trkpt><trkpt lat="43.9698262" lon="7.9272603"><ele>433.0</ele><time>2026-04-19T09:03:58.84Z</time></trkpt><trkpt lat="43.9699401" lon="7.9273049"><ele>432.75</ele><time>2026-04-19T09:03:59.84Z</time></trkpt><trkpt lat="43.9700591" lon="7.9273578"><ele>432.5</ele><time>2026-04-19T09:04:00.839Z</time></trkpt><trkpt lat="43.9701688" lon="7.9274245"><ele>432.25</ele><time>2026-04-19T09:04:01.84Z</time></trkpt><trkpt lat="43.9702809" lon="7.9275182"><ele>432.0</ele><time>2026-04-19T09:04:02.84Z</time></trkpt><trkpt lat="43.9703941" lon="7.9276067"><ele>429.25</ele><time>2026-04-19T09:04:03.841Z</time></trkpt><trkpt lat="43.9705009" lon="7.9277011"><ele>426.5</ele><time>2026-04-19T09:04:04.84Z</time></trkpt><trkpt lat="43.9706" lon="7.9277844"><ele>423.75</ele><time>2026-04-19T09:04:05.84Z</time></trkpt><trkpt lat="43.9706932" lon="7.9278557"><ele>421.0</ele><time>2026-04-19T09:04:06.839Z</time></trkpt><trkpt lat="43.9707958" lon="7.9278829"><ele>417.0</ele><time>2026-04-19T09:04:07.84Z</time></trkpt><trkpt lat="43.9709041" lon="7.9278582"><ele>413.0</ele><time>2026-04-19T09:04:08.84Z</time></trkpt><trkpt lat="43.9710199" lon="7.9277957"><ele>409.0</ele><time>2026-04-19T09:04:09.84Z</time></trkpt><trkpt lat="43.9711286" lon="7.927729"><ele>405.0</ele><time>2026-04-19T09:04:10.841Z</time></trkpt><trkpt lat="43.971223" lon="7.9276572"><ele>405.0</ele><time>2026-04-19T09:04:11.84Z</time></trkpt><trkpt lat="43.9712979" lon="7.9275641"><ele>405.0</ele><time>2026-04-19T09:04:12.84Z</time></trkpt><trkpt lat="43.9713365" lon="7.9274021"><ele>405.0</ele><time>2026-04-19T09:04:13.84Z</time></trkpt><trkpt lat="43.9713344" lon="7.927253"><ele>405.0</ele><time>2026-04-19T09:04:14.84Z</time></trkpt><trkpt lat="43.9713124" lon="7.9271022"><ele>405.0</ele><time>2026-04-19T09:04:15.84Z</time></trkpt><trkpt lat="43.9712815" lon="7.9269423"><ele>407.0</ele><time>2026-04-19T09:04:16.84Z</time></trkpt><trkpt lat="43.9712453" lon="7.9267689"><ele>409.0</ele><time>2026-04-19T09:04:17.84Z</time></trkpt><trkpt lat="43.97119" lon="7.9265942"><ele>411.0</ele><time>2026-04-19T09:04:18.841Z</time></trkpt><trkpt lat="43.9711364" lon="7.9264303"><ele>413.0</ele><time>2026-04-19T09:04:19.84Z</time></trkpt><trkpt lat="43.9710866" lon="7.9262884"><ele>412.99999999999994</ele><time>2026-04-19T09:04:20.84Z</time></trkpt><trkpt lat="43.9710524" lon="7.9261604"><ele>413.0</ele><time>2026-04-19T09:04:21.84Z</time></trkpt><trkpt lat="43.9710368" lon="7.9260425"><ele>413.0</ele><time>2026-04-19T09:04:22.84Z</time></trkpt><trkpt lat="43.971033" lon="7.9259533"><ele>413.0</ele><time>2026-04-19T09:04:23.84Z</time></trkpt><trkpt lat="43.97105" lon="7.9258687"><ele>412.99999999999994</ele><time>2026-04-19T09:04:24.84Z</time></trkpt><trkpt lat="43.9711359" lon="7.9258442"><ele>413.0</ele><time>2026-04-19T09:04:25.84Z</time></trkpt><trkpt lat="43.9712079" lon="7.9258638"><ele>413.0</ele><time>2026-04-19T09:04:26.841Z</time></trkpt><trkpt lat="43.9712514" lon="7.9261359"><ele>413.0</ele><time>2026-04-19T09:04:27.84Z</time></trkpt><trkpt lat="43.9712999" lon="7.9262733"><ele>413.0</ele><time>2026-04-19T09:04:28.839Z</time></trkpt><trkpt lat="43.9713474" lon="7.9264215"><ele>413.0</ele><time>2026-04-19T09:04:29.84Z</time></trkpt><trkpt lat="43.9713936" lon="7.9265739"><ele>413.0</ele><time>2026-04-19T09:04:30.839Z</time></trkpt><trkpt lat="43.9714521" lon="7.9267126"><ele>413.0</ele><time>2026-04-19T09:04:31.84Z</time></trkpt><trkpt lat="43.971543" lon="7.9268198"><ele>413.0</ele><time>2026-04-19T09:04:32.839Z</time></trkpt><trkpt lat="43.9716427" lon="7.9268987"><ele>413.0</ele><time>2026-04-19T09:04:33.84Z</time></trkpt><trkpt lat="43.9717384" lon="7.9269792"><ele>409.0</ele><time>2026-04-19T09:04:34.841Z</time></trkpt><trkpt lat="43.9718209" lon="7.9270956"><ele>405.0</ele><time>2026-04-19T09:04:35.84Z</time></trkpt><trkpt lat="43.9718881" lon="7.9272165"><ele>401.0</ele><time>2026-04-19T09:04:36.84Z</time></trkpt><trkpt lat="43.971947" lon="7.9273442"><ele>397.0</ele><time>2026-04-19T09:04:37.84Z</time></trkpt><trkpt lat="43.9720132" lon="7.9274591"><ele>393.0</ele><time>2026-04-19T09:04:38.841Z</time></trkpt><trkpt lat="43.9720597" lon="7.927582"><ele>392.2</ele><time>2026-04-19T09:04:39.84Z</time></trkpt><trkpt lat="43.972058" lon="7.9277275"><ele>391.4</ele><time>2026-04-19T09:04:40.84Z</time></trkpt><trkpt lat="43.9720137" lon="7.9278875"><ele>390.59999999999997</ele><time>2026-04-19T09:04:42.84Z</time></trkpt><trkpt lat="43.9719349" lon="7.9279716"><ele>389.79999999999995</ele><time>2026-04-19T09:04:43.839Z</time></trkpt><trkpt lat="43.9718325" lon="7.9280511"><ele>389.0</ele><time>2026-04-19T09:04:44.84Z</time></trkpt><trkpt lat="43.9717228" lon="7.9281277"><ele>391.75</ele><time>2026-04-19T09:04:45.84Z</time></trkpt><trkpt lat="43.9716215" lon="7.9282078"><ele>394.5</ele><time>2026-04-19T09:04:46.84Z</time></trkpt><trkpt lat="43.9715322" lon="7.9283155"><ele>397.25</ele><time>2026-04-19T09:04:47.84Z</time></trkpt><trkpt lat="43.9714672" lon="7.9284521"><ele>400.0</ele><time>2026-04-19T09:04:48.84Z</time></trkpt><trkpt lat="43.9714243" lon="7.9286097"><ele>400.0</ele><time>2026-04-19T09:04:49.84Z</time></trkpt><trkpt lat="43.9714017" lon="7.9287689"><ele>400.0</ele><time>2026-04-19T09:04:50.839Z</time></trkpt><trkpt lat="43.9714157" lon="7.9289387"><ele>400.0</ele><time>2026-04-19T09:04:51.84Z</time></trkpt><trkpt lat="43.9714657" lon="7.9291094"><ele>400.0</ele><time>2026-04-19T09:04:52.84Z</time></trkpt><trkpt lat="43.971521" lon="7.929271"><ele>399.0</ele><time>2026-04-19T09:04:53.841Z</time></trkpt><trkpt lat="43.9715753" lon="7.9294178"><ele>398.0</ele><time>2026-04-19T09:04:54.838Z</time></trkpt><trkpt lat="43.971625" lon="7.9295684"><ele>397.0</ele><time>2026-04-19T09:04:55.839Z</time></trkpt><trkpt lat="43.971671" lon="7.9297068"><ele>396.0</ele><time>2026-04-19T09:04:56.841Z</time></trkpt><trkpt lat="43.9716977" lon="7.9298333"><ele>395.0</ele><time>2026-04-19T09:04:57.84Z</time></trkpt><trkpt lat="43.9716841" lon="7.9299477"><ele>394.99999999999994</ele><time>2026-04-19T09:04:58.839Z</time></trkpt><trkpt lat="43.971631" lon="7.9300206"><ele>395.0</ele><time>2026-04-19T09:04:59.84Z</time></trkpt><trkpt lat="43.9715627" lon="7.93006"><ele>395.0</ele><time>2026-04-19T09:05:00.84Z</time></trkpt><trkpt lat="43.9714754" lon="7.9300635"><ele>395.0</ele><time>2026-04-19T09:05:01.84Z</time></trkpt><trkpt lat="43.9713781" lon="7.9300526"><ele>394.99999999999994</ele><time>2026-04-19T09:05:02.84Z</time></trkpt><trkpt lat="43.971268" lon="7.9300393"><ele>395.0</ele><time>2026-04-19T09:05:03.84Z</time></trkpt><trkpt lat="43.9711477" lon="7.9300189"><ele>395.0</ele><time>2026-04-19T09:05:04.84Z</time></trkpt><trkpt lat="43.9710142" lon="7.9300052"><ele>395.0</ele><time>2026-04-19T09:05:05.839Z</time></trkpt><trkpt lat="43.9708707" lon="7.9299894"><ele>395.0</ele><time>2026-04-19T09:05:06.84Z</time></trkpt><trkpt lat="43.9707239" lon="7.9299686"><ele>395.0</ele><time>2026-04-19T09:05:07.839Z</time></trkpt><trkpt lat="43.9705665" lon="7.9299312"><ele>394.25</ele><time>2026-04-19T09:05:08.841Z</time></trkpt><trkpt lat="43.9704368" lon="7.9298531"><ele>393.5</ele><time>2026-04-19T09:05:09.84Z</time></trkpt><trkpt lat="43.9703222" lon="7.9297575"><ele>392.75</ele><time>2026-04-19T09:05:10.84Z</time></trkpt><trkpt lat="43.9702272" lon="7.9296535"><ele>392.0</ele><time>2026-04-19T09:05:11.839Z</time></trkpt><trkpt lat="43.9701356" lon="7.9295891"><ele>392.0</ele><time>2026-04-19T09:05:12.84Z</time></trkpt><trkpt lat="43.9700331" lon="7.9295667"><ele>392.0</ele><time>2026-04-19T09:05:13.84Z</time></trkpt><trkpt lat="43.9699435" lon="7.9296066"><ele>392.0</ele><time>2026-04-19T09:05:14.84Z</time></trkpt><trkpt lat="43.9698741" lon="7.9296894"><ele>392.0</ele><time>2026-04-19T09:05:15.841Z</time></trkpt><trkpt lat="43.969808" lon="7.9297989"><ele>392.0</ele><time>2026-04-19T09:05:16.84Z</time></trkpt><trkpt lat="43.9697732" lon="7.9299527"><ele>387.20000000000005</ele><time>2026-04-19T09:05:17.839Z</time></trkpt><trkpt lat="43.9697193" lon="7.9300771"><ele>382.4</ele><time>2026-04-19T09:05:18.84Z</time></trkpt><trkpt lat="43.969645" lon="7.9301564"><ele>377.6</ele><time>2026-04-19T09:05:19.839Z</time></trkpt><trkpt lat="43.9695578" lon="7.9301955"><ele>372.79999999999995</ele><time>2026-04-19T09:05:20.84Z</time></trkpt><trkpt lat="43.9694544" lon="7.9302078"><ele>368.0</ele><time>2026-04-19T09:05:21.84Z</time></trkpt><trkpt lat="43.9693363" lon="7.93015"><ele>368.0</ele><time>2026-04-19T09:05:22.84Z</time></trkpt><trkpt lat="43.969211" lon="7.9300968"><ele>368.0</ele><time>2026-04-19T09:05:23.84Z</time></trkpt><trkpt lat="43.9690747" lon="7.9300264"><ele>368.0</ele><time>2026-04-19T09:05:24.84Z</time></trkpt><trkpt lat="43.968942" lon="7.9299779"><ele>368.0</ele><time>2026-04-19T09:05:25.84Z</time></trkpt><trkpt lat="43.9688107" lon="7.9299299"><ele>365.25</ele><time>2026-04-19T09:05:26.84Z</time></trkpt><trkpt lat="43.9686805" lon="7.9299186"><ele>362.5</ele><time>2026-04-19T09:05:27.84Z</time></trkpt><trkpt lat="43.9685492" lon="7.9299312"><ele>359.75</ele><time>2026-04-19T09:05:28.839Z</time></trkpt><trkpt lat="43.9684177" lon="7.9300028"><ele>357.0</ele><time>2026-04-19T09:05:29.84Z</time></trkpt><trkpt lat="43.9682848" lon="7.9300845"><ele>357.0</ele><time>2026-04-19T09:05:30.84Z</time></trkpt><trkpt lat="43.9681584" lon="7.9301683"><ele>357.0</ele><time>2026-04-19T09:05:31.84Z</time></trkpt><trkpt lat="43.9680425" lon="7.9302354"><ele>357.0</ele><time>2026-04-19T09:05:32.84Z</time></trkpt><trkpt lat="43.9679372" lon="7.9302934"><ele>357.0</ele><time>2026-04-19T09:05:33.841Z</time></trkpt><trkpt lat="43.9678422" lon="7.9303219"><ele>357.0</ele><time>2026-04-19T09:05:34.84Z</time></trkpt><trkpt lat="43.9677412" lon="7.9302903"><ele>357.0</ele><time>2026-04-19T09:05:35.84Z</time></trkpt><trkpt lat="43.9676599" lon="7.9302303"><ele>357.0</ele><time>2026-04-19T09:05:36.84Z</time></trkpt><trkpt lat="43.967568" lon="7.9301586"><ele>357.0</ele><time>2026-04-19T09:05:37.84Z</time></trkpt><trkpt lat="43.9674743" lon="7.9301586"><ele>357.0</ele><time>2026-04-19T09:05:38.841Z</time></trkpt><trkpt lat="43.9673937" lon="7.930197"><ele>359.0</ele><time>2026-04-19T09:05:39.84Z</time></trkpt><trkpt lat="43.9673398" lon="7.9302862"><ele>361.0</ele><time>2026-04-19T09:05:40.84Z</time></trkpt><trkpt lat="43.9673044" lon="7.9304014"><ele>363.0</ele><time>2026-04-19T09:05:41.84Z</time></trkpt><trkpt lat="43.9673245" lon="7.9305507"><ele>365.0</ele><time>2026-04-19T09:05:42.84Z</time></trkpt><trkpt lat="43.967402" lon="7.9306576"><ele>367.0</ele><time>2026-04-19T09:05:43.839Z</time></trkpt><trkpt lat="43.9674742" lon="7.930777"><ele>362.0</ele><time>2026-04-19T09:05:44.84Z</time></trkpt><trkpt lat="43.9675417" lon="7.9308974"><ele>357.0</ele><time>2026-04-19T09:05:45.839Z</time></trkpt><trkpt lat="43.9675955" lon="7.9310181"><ele>352.0</ele><time>2026-04-19T09:05:46.841Z</time></trkpt><trkpt lat="43.9676319" lon="7.9311475"><ele>347.0</ele><time>2026-04-19T09:05:47.84Z</time></trkpt><trkpt lat="43.9676645" lon="7.9312681"><ele>342.0</ele><time>2026-04-19T09:05:48.84Z</time></trkpt><trkpt lat="43.9676581" lon="7.9314065"><ele>342.0</ele><time>2026-04-19T09:05:49.84Z</time></trkpt><trkpt lat="43.9675659" lon="7.931601"><ele>342.0</ele><time>2026-04-19T09:05:50.84Z</time></trkpt><trkpt lat="43.9674914" lon="7.9317601"><ele>342.0</ele><time>2026-04-19T09:05:51.84Z</time></trkpt><trkpt lat="43.967403" lon="7.9318906"><ele>342.0</ele><time>2026-04-19T09:05:52.84Z</time></trkpt><trkpt lat="43.9673014" lon="7.9320133"><ele>343.25</ele><time>2026-04-19T09:05:53.838Z</time></trkpt><trkpt lat="43.9671918" lon="7.9321085"><ele>344.5</ele><time>2026-04-19T09:05:54.84Z</time></trkpt><trkpt lat="43.9670721" lon="7.9321419"><ele>345.75</ele><time>2026-04-19T09:05:55.84Z</time></trkpt><trkpt lat="43.9669711" lon="7.9321856"><ele>347.0</ele><time>2026-04-19T09:05:56.84Z</time></trkpt><trkpt lat="43.9668768" lon="7.9322536"><ele>347.0</ele><time>2026-04-19T09:05:57.839Z</time></trkpt><trkpt lat="43.9667987" lon="7.9323377"><ele>347.0</ele><time>2026-04-19T09:05:58.839Z</time></trkpt><trkpt lat="43.966806" lon="7.9324859"><ele>347.0</ele><time>2026-04-19T09:05:59.839Z</time></trkpt><trkpt lat="43.9668546" lon="7.9325827"><ele>347.0</ele><time>2026-04-19T09:06:00.84Z</time></trkpt><trkpt lat="43.966905" lon="7.9326827"><ele>347.0</ele><time>2026-04-19T09:06:01.839Z</time></trkpt><trkpt lat="43.9669935" lon="7.93279"><ele>346.0</ele><time>2026-04-19T09:06:02.84Z</time></trkpt><trkpt lat="43.9670508" lon="7.9329227"><ele>345.0</ele><time>2026-04-19T09:06:03.84Z</time></trkpt><trkpt lat="43.9670771" lon="7.9330818"><ele>344.0</ele><time>2026-04-19T09:06:04.839Z</time></trkpt><trkpt lat="43.9671105" lon="7.9332468"><ele>343.0</ele><time>2026-04-19T09:06:05.84Z</time></trkpt><trkpt lat="43.9671233" lon="7.9334227"><ele>343.0</ele><time>2026-04-19T09:06:06.84Z</time></trkpt><trkpt lat="43.9671527" lon="7.9335801"><ele>343.0</ele><time>2026-04-19T09:06:07.84Z</time></trkpt><trkpt lat="43.9672079" lon="7.9337395"><ele>343.0</ele><time>2026-04-19T09:06:08.84Z</time></trkpt><trkpt lat="43.9672713" lon="7.9338935"><ele>343.0</ele><time>2026-04-19T09:06:09.84Z</time></trkpt><trkpt lat="43.9673892" lon="7.9340417"><ele>339.66666666666663</ele><time>2026-04-19T09:06:10.841Z</time></trkpt><trkpt lat="43.9675303" lon="7.9341613"><ele>336.3333333333333</ele><time>2026-04-19T09:06:11.84Z</time></trkpt><trkpt lat="43.9676638" lon="7.9343007"><ele>333.0</ele><time>2026-04-19T09:06:12.839Z</time></trkpt><trkpt lat="43.9678035" lon="7.9344315"><ele>333.0</ele><time>2026-04-19T09:06:13.84Z</time></trkpt><trkpt lat="43.967945" lon="7.9345641"><ele>333.0</ele><time>2026-04-19T09:06:14.839Z</time></trkpt><trkpt lat="43.9680752" lon="7.9346932"><ele>333.0</ele><time>2026-04-19T09:06:15.84Z</time></trkpt><trkpt lat="43.968205" lon="7.9348202"><ele>333.0</ele><time>2026-04-19T09:06:16.841Z</time></trkpt><trkpt lat="43.9683123" lon="7.9349577"><ele>333.0</ele><time>2026-04-19T09:06:17.84Z</time></trkpt><trkpt lat="43.9684178" lon="7.9351097"><ele>333.0</ele><time>2026-04-19T09:06:18.84Z</time></trkpt><trkpt lat="43.9685237" lon="7.9352731"><ele>328.0</ele><time>2026-04-19T09:06:19.839Z</time></trkpt><trkpt lat="43.9686374" lon="7.9354372"><ele>323.0</ele><time>2026-04-19T09:06:20.84Z</time></trkpt><trkpt lat="43.9687415" lon="7.9356079"><ele>318.0</ele><time>2026-04-19T09:06:21.84Z</time></trkpt><trkpt lat="43.9688428" lon="7.9357808"><ele>320.3333333333333</ele><time>2026-04-19T09:06:22.84Z</time></trkpt><trkpt lat="43.9689408" lon="7.9359757"><ele>322.66666666666663</ele><time>2026-04-19T09:06:23.84Z</time></trkpt><trkpt lat="43.9690308" lon="7.936178"><ele>325.0</ele><time>2026-04-19T09:06:24.839Z</time></trkpt><trkpt lat="43.969121" lon="7.9364046"><ele>318.3333333333333</ele><time>2026-04-19T09:06:25.839Z</time></trkpt><trkpt lat="43.9692338" lon="7.9366112"><ele>311.6666666666667</ele><time>2026-04-19T09:06:26.84Z</time></trkpt><trkpt lat="43.9693503" lon="7.9367992"><ele>305.0</ele><time>2026-04-19T09:06:27.84Z</time></trkpt><trkpt lat="43.9694621" lon="7.936978"><ele>305.0</ele><time>2026-04-19T09:06:28.84Z</time></trkpt><trkpt lat="43.9695612" lon="7.9371483"><ele>305.0</ele><time>2026-04-19T09:06:29.839Z</time></trkpt><trkpt lat="43.9696504" lon="7.9373194"><ele>305.0</ele><time>2026-04-19T09:06:30.84Z</time></trkpt><trkpt lat="43.9697098" lon="7.9375072"><ele>304.75</ele><time>2026-04-19T09:06:31.839Z</time></trkpt><trkpt lat="43.9697368" lon="7.9377187"><ele>304.5</ele><time>2026-04-19T09:06:32.84Z</time></trkpt><trkpt lat="43.9697632" lon="7.9379084"><ele>304.25</ele><time>2026-04-19T09:06:33.84Z</time></trkpt><trkpt lat="43.9697813" lon="7.9380645"><ele>304.0</ele><time>2026-04-19T09:06:34.84Z</time></trkpt><trkpt lat="43.9697719" lon="7.9381914"><ele>304.0</ele><time>2026-04-19T09:06:35.839Z</time></trkpt><trkpt lat="43.9697302" lon="7.9383088"><ele>304.0</ele><time>2026-04-19T09:06:36.839Z</time></trkpt><trkpt lat="43.9696666" lon="7.9383921"><ele>304.0</ele><time>2026-04-19T09:06:37.84Z</time></trkpt><trkpt lat="43.9695883" lon="7.9384904"><ele>304.0</ele><time>2026-04-19T09:06:38.839Z</time></trkpt><trkpt lat="43.9695138" lon="7.9385844"><ele>304.0</ele><time>2026-04-19T09:06:39.84Z</time></trkpt><trkpt lat="43.9694509" lon="7.9386724"><ele>304.3333333333333</ele><time>2026-04-19T09:06:40.84Z</time></trkpt><trkpt lat="43.9694174" lon="7.9387715"><ele>304.66666666666663</ele><time>2026-04-19T09:06:41.84Z</time></trkpt><trkpt lat="43.9694332" lon="7.9388646"><ele>305.0</ele><time>2026-04-19T09:06:42.839Z</time></trkpt><trkpt lat="43.9694636" lon="7.9389533"><ele>305.3333333333333</ele><time>2026-04-19T09:06:43.839Z</time></trkpt><trkpt lat="43.9695274" lon="7.939055"><ele>305.6666666666667</ele><time>2026-04-19T09:06:44.84Z</time></trkpt><trkpt lat="43.9695953" lon="7.9391627"><ele>306.0</ele><time>2026-04-19T09:06:45.841Z</time></trkpt><trkpt lat="43.9696675" lon="7.9392776"><ele>304.25</ele><time>2026-04-19T09:06:46.839Z</time></trkpt><trkpt lat="43.9697818" lon="7.9393627"><ele>302.5</ele><time>2026-04-19T09:06:47.84Z</time></trkpt><trkpt lat="43.9699071" lon="7.9394246"><ele>300.75</ele><time>2026-04-19T09:06:48.84Z</time></trkpt><trkpt lat="43.9700507" lon="7.9394655"><ele>299.0</ele><time>2026-04-19T09:06:49.84Z</time></trkpt><trkpt lat="43.9701874" lon="7.9395123"><ele>299.0</ele><time>2026-04-19T09:06:50.84Z</time></trkpt><trkpt lat="43.9703254" lon="7.9395617"><ele>299.0</ele><time>2026-04-19T09:06:51.84Z</time></trkpt><trkpt lat="43.9704643" lon="7.9396296"><ele>299.0</ele><time>2026-04-19T09:06:52.841Z</time></trkpt><trkpt lat="43.9705865" lon="7.9397253"><ele>299.0</ele><time>2026-04-19T09:06:53.841Z</time></trkpt><trkpt lat="43.9706892" lon="7.939816"><ele>299.0</ele><time>2026-04-19T09:06:54.84Z</time></trkpt><trkpt lat="43.9707578" lon="7.9399446"><ele>299.0</ele><time>2026-04-19T09:06:55.84Z</time></trkpt><trkpt lat="43.9707871" lon="7.9401156"><ele>299.0</ele><time>2026-04-19T09:06:56.839Z</time></trkpt><trkpt lat="43.9708374" lon="7.9402782"><ele>299.0</ele><time>2026-04-19T09:06:57.839Z</time></trkpt><trkpt lat="43.9708726" lon="7.9404693"><ele>295.0</ele><time>2026-04-19T09:06:58.841Z</time></trkpt><trkpt lat="43.9709093" lon="7.9406633"><ele>291.0</ele><time>2026-04-19T09:06:59.839Z</time></trkpt><trkpt lat="43.9709447" lon="7.9408646"><ele>287.0</ele><time>2026-04-19T09:07:00.839Z</time></trkpt><trkpt lat="43.9709845" lon="7.9410494"><ele>283.0</ele><time>2026-04-19T09:07:01.84Z</time></trkpt><trkpt lat="43.9710344" lon="7.941221"><ele>283.0</ele><time>2026-04-19T09:07:02.84Z</time></trkpt><trkpt lat="43.9711022" lon="7.9413743"><ele>283.0</ele><time>2026-04-19T09:07:03.839Z</time></trkpt><trkpt lat="43.9711922" lon="7.9415091"><ele>283.0</ele><time>2026-04-19T09:07:04.84Z</time></trkpt><trkpt lat="43.9712896" lon="7.9416321"><ele>283.0</ele><time>2026-04-19T09:07:05.84Z</time></trkpt><trkpt lat="43.971391" lon="7.9417478"><ele>284.0</ele><time>2026-04-19T09:07:06.84Z</time></trkpt><trkpt lat="43.9715009" lon="7.941861"><ele>285.0</ele><time>2026-04-19T09:07:07.839Z</time></trkpt><trkpt lat="43.9716079" lon="7.9419687"><ele>286.0</ele><time>2026-04-19T09:07:08.84Z</time></trkpt><trkpt lat="43.9717089" lon="7.9420825"><ele>287.0</ele><time>2026-04-19T09:07:09.839Z</time></trkpt><trkpt lat="43.9718071" lon="7.9422119"><ele>286.0</ele><time>2026-04-19T09:07:10.838Z</time></trkpt><trkpt lat="43.9718938" lon="7.9423249"><ele>285.0</ele><time>2026-04-19T09:07:11.839Z</time></trkpt><trkpt lat="43.9719694" lon="7.9424683"><ele>284.0</ele><time>2026-04-19T09:07:12.841Z</time></trkpt><trkpt lat="43.9720369" lon="7.9426241"><ele>283.0</ele><time>2026-04-19T09:07:13.841Z</time></trkpt><trkpt lat="43.9720931" lon="7.9427896"><ele>283.0</ele><time>2026-04-19T09:07:14.842Z</time></trkpt><trkpt lat="43.9721464" lon="7.942938"><ele>283.0</ele><time>2026-04-19T09:07:15.84Z</time></trkpt><trkpt lat="43.9722079" lon="7.9430755"><ele>283.0</ele><time>2026-04-19T09:07:16.84Z</time></trkpt><trkpt lat="43.9722661" lon="7.9431804"><ele>283.0</ele><time>2026-04-19T09:07:17.84Z</time></trkpt><trkpt lat="43.9723288" lon="7.9432522"><ele>283.0</ele><time>2026-04-19T09:07:18.839Z</time></trkpt><trkpt lat="43.9724436" lon="7.9432754"><ele>283.0</ele><time>2026-04-19T09:07:20.84Z</time></trkpt><trkpt lat="43.9725111" lon="7.9431428"><ele>283.0</ele><time>2026-04-19T09:07:22.84Z</time></trkpt><trkpt lat="43.972504" lon="7.9430531"><ele>283.0</ele><time>2026-04-19T09:07:23.84Z</time></trkpt><trkpt lat="43.9724783" lon="7.9429583"><ele>283.0</ele><time>2026-04-19T09:07:24.841Z</time></trkpt><trkpt lat="43.9724281" lon="7.9428547"><ele>283.0</ele><time>2026-04-19T09:07:25.84Z</time></trkpt><trkpt lat="43.9723653" lon="7.9427398"><ele>283.0</ele><time>2026-04-19T09:07:26.84Z</time></trkpt><trkpt lat="43.9722944" lon="7.9426202"><ele>279.75</ele><time>2026-04-19T09:07:27.839Z</time></trkpt><trkpt lat="43.9722229" lon="7.9424892"><ele>276.5</ele><time>2026-04-19T09:07:28.839Z</time></trkpt><trkpt lat="43.9721386" lon="7.9423556"><ele>273.25</ele><time>2026-04-19T09:07:29.84Z</time></trkpt><trkpt lat="43.9720569" lon="7.9422148"><ele>270.0</ele><time>2026-04-19T09:07:30.84Z</time></trkpt><trkpt lat="43.9719716" lon="7.9420652"><ele>270.0</ele><time>2026-04-19T09:07:31.84Z</time></trkpt><trkpt lat="43.9718821" lon="7.9419247"><ele>270.0</ele><time>2026-04-19T09:07:32.84Z</time></trkpt><trkpt lat="43.9717905" lon="7.9417819"><ele>270.0</ele><time>2026-04-19T09:07:33.839Z</time></trkpt><trkpt lat="43.9716995" lon="7.9416495"><ele>270.0</ele><time>2026-04-19T09:07:34.839Z</time></trkpt><trkpt lat="43.9716171" lon="7.9415264"><ele>273.25</ele><time>2026-04-19T09:07:35.84Z</time></trkpt><trkpt lat="43.9715382" lon="7.9413913"><ele>276.5</ele><time>2026-04-19T09:07:36.839Z</time></trkpt><trkpt lat="43.971477" lon="7.9412392"><ele>279.75</ele><time>2026-04-19T09:07:37.84Z</time></trkpt><trkpt lat="43.9714221" lon="7.9410821"><ele>283.0</ele><time>2026-04-19T09:07:38.839Z</time></trkpt><trkpt lat="43.9713705" lon="7.9409169"><ele>279.75</ele><time>2026-04-19T09:07:39.84Z</time></trkpt><trkpt lat="43.9713217" lon="7.9407427"><ele>276.5</ele><time>2026-04-19T09:07:40.84Z</time></trkpt><trkpt lat="43.9712735" lon="7.9405679"><ele>273.25</ele><time>2026-04-19T09:07:41.839Z</time></trkpt><trkpt lat="43.9712269" lon="7.9403854"><ele>270.0</ele><time>2026-04-19T09:07:42.84Z</time></trkpt><trkpt lat="43.9711845" lon="7.940214"><ele>268.0</ele><time>2026-04-19T09:07:43.84Z</time></trkpt><trkpt lat="43.9711583" lon="7.9400465"><ele>266.0</ele><time>2026-04-19T09:07:44.839Z</time></trkpt><trkpt lat="43.9711247" lon="7.9398814"><ele>264.0</ele><time>2026-04-19T09:07:45.84Z</time></trkpt><trkpt lat="43.9710912" lon="7.9397238"><ele>262.0</ele><time>2026-04-19T09:07:46.84Z</time></trkpt><trkpt lat="43.9710796" lon="7.9395547"><ele>262.0</ele><time>2026-04-19T09:07:47.839Z</time></trkpt><trkpt lat="43.9710697" lon="7.9393931"><ele>262.0</ele><time>2026-04-19T09:07:48.84Z</time></trkpt><trkpt lat="43.9710631" lon="7.9392322"><ele>262.0</ele><time>2026-04-19T09:07:49.838Z</time></trkpt><trkpt lat="43.9710455" lon="7.9390725"><ele>262.0</ele><time>2026-04-19T09:07:50.841Z</time></trkpt><trkpt lat="43.971023" lon="7.938908"><ele>262.66666666666663</ele><time>2026-04-19T09:07:51.839Z</time></trkpt><trkpt lat="43.9709931" lon="7.9387534"><ele>263.3333333333333</ele><time>2026-04-19T09:07:52.839Z</time></trkpt><trkpt lat="43.970969" lon="7.9386123"><ele>264.0</ele><time>2026-04-19T09:07:53.839Z</time></trkpt><trkpt lat="43.970952" lon="7.9385057"><ele>264.6666666666667</ele><time>2026-04-19T09:07:54.84Z</time></trkpt><trkpt lat="43.9709487" lon="7.9384122"><ele>265.33333333333337</ele><time>2026-04-19T09:07:55.84Z</time></trkpt><trkpt lat="43.9709861" lon="7.9383368"><ele>266.0</ele><time>2026-04-19T09:07:56.84Z</time></trkpt><trkpt lat="43.9710371" lon="7.9382698"><ele>266.40000000000003</ele><time>2026-04-19T09:07:57.84Z</time></trkpt><trkpt lat="43.9711059" lon="7.9382348"><ele>266.8</ele><time>2026-04-19T09:07:58.84Z</time></trkpt><trkpt lat="43.9712049" lon="7.9382244"><ele>267.20000000000005</ele><time>2026-04-19T09:07:59.84Z</time></trkpt><trkpt lat="43.9713042" lon="7.9381974"><ele>267.6</ele><time>2026-04-19T09:08:00.839Z</time></trkpt><trkpt lat="43.9713969" lon="7.9381595"><ele>268.0</ele><time>2026-04-19T09:08:01.84Z</time></trkpt><trkpt lat="43.9714738" lon="7.938083"><ele>268.0</ele><time>2026-04-19T09:08:02.839Z</time></trkpt><trkpt lat="43.9715182" lon="7.9379704"><ele>268.0</ele><time>2026-04-19T09:08:03.839Z</time></trkpt><trkpt lat="43.9715455" lon="7.9378321"><ele>268.0</ele><time>2026-04-19T09:08:04.84Z</time></trkpt><trkpt lat="43.9715819" lon="7.9376843"><ele>268.0</ele><time>2026-04-19T09:08:05.84Z</time></trkpt><trkpt lat="43.9716165" lon="7.937518"><ele>268.0</ele><time>2026-04-19T09:08:06.838Z</time></trkpt><trkpt lat="43.9716854" lon="7.93734"><ele>267.8</ele><time>2026-04-19T09:08:07.841Z</time></trkpt><trkpt lat="43.9717363" lon="7.9371786"><ele>267.6</ele><time>2026-04-19T09:08:08.84Z</time></trkpt><trkpt lat="43.9717971" lon="7.937058"><ele>267.4</ele><time>2026-04-19T09:08:09.839Z</time></trkpt><trkpt lat="43.9718724" lon="7.9369564"><ele>267.2</ele><time>2026-04-19T09:08:10.839Z</time></trkpt><trkpt lat="43.9719492" lon="7.9368877"><ele>267.0</ele><time>2026-04-19T09:08:11.84Z</time></trkpt><trkpt lat="43.972041" lon="7.9368495"><ele>267.0</ele><time>2026-04-19T09:08:12.839Z</time></trkpt><trkpt lat="43.9721197" lon="7.9369618"><ele>267.0</ele><time>2026-04-19T09:08:13.841Z</time></trkpt><trkpt lat="43.9721709" lon="7.9370441"><ele>267.0</ele><time>2026-04-19T09:08:14.84Z</time></trkpt><trkpt lat="43.9721838" lon="7.9371548"><ele>267.0</ele><time>2026-04-19T09:08:15.84Z</time></trkpt><trkpt lat="43.9721992" lon="7.9372771"><ele>267.0</ele><time>2026-04-19T09:08:16.84Z</time></trkpt><trkpt lat="43.9722301" lon="7.9374004"><ele>267.0</ele><time>2026-04-19T09:08:17.84Z</time></trkpt><trkpt lat="43.9722963" lon="7.9374911"><ele>267.0</ele><time>2026-04-19T09:08:18.839Z</time></trkpt><trkpt lat="43.9723735" lon="7.9375522"><ele>267.0</ele><time>2026-04-19T09:08:19.84Z</time></trkpt><trkpt lat="43.9724716" lon="7.9376085"><ele>267.0</ele><time>2026-04-19T09:08:20.839Z</time></trkpt><trkpt lat="43.972586" lon="7.9376436"><ele>267.0</ele><time>2026-04-19T09:08:21.84Z</time></trkpt><trkpt lat="43.9726884" lon="7.9376909"><ele>264.0</ele><time>2026-04-19T09:08:22.84Z</time></trkpt><trkpt lat="43.9727744" lon="7.9377637"><ele>261.0</ele><time>2026-04-19T09:08:23.84Z</time></trkpt><trkpt lat="43.9728403" lon="7.9378594"><ele>258.0</ele><time>2026-04-19T09:08:24.839Z</time></trkpt><trkpt lat="43.9728876" lon="7.9379969"><ele>255.0</ele><time>2026-04-19T09:08:25.84Z</time></trkpt><trkpt lat="43.9729431" lon="7.9381299"><ele>252.0</ele><time>2026-04-19T09:08:26.839Z</time></trkpt><trkpt lat="43.9729996" lon="7.9382599"><ele>252.0</ele><time>2026-04-19T09:08:27.84Z</time></trkpt><trkpt lat="43.973083" lon="7.9383629"><ele>252.0</ele><time>2026-04-19T09:08:28.84Z</time></trkpt><trkpt lat="43.9731787" lon="7.9384529"><ele>252.0</ele><time>2026-04-19T09:08:29.84Z</time></trkpt><trkpt lat="43.9732962" lon="7.938523"><ele>252.0</ele><time>2026-04-19T09:08:30.839Z</time></trkpt><trkpt lat="43.9734206" lon="7.9385922"><ele>248.0</ele><time>2026-04-19T09:08:31.841Z</time></trkpt><trkpt lat="43.9735573" lon="7.9386514"><ele>244.0</ele><time>2026-04-19T09:08:32.84Z</time></trkpt><trkpt lat="43.9737148" lon="7.9386845"><ele>240.0</ele><time>2026-04-19T09:08:33.84Z</time></trkpt><trkpt lat="43.9738759" lon="7.9387174"><ele>240.0</ele><time>2026-04-19T09:08:34.839Z</time></trkpt><trkpt lat="43.9740433" lon="7.9387503"><ele>240.0</ele><time>2026-04-19T09:08:35.839Z</time></trkpt><trkpt lat="43.9742236" lon="7.9387548"><ele>240.0</ele><time>2026-04-19T09:08:36.84Z</time></trkpt><trkpt lat="43.9743766" lon="7.9387783"><ele>240.75</ele><time>2026-04-19T09:08:37.839Z</time></trkpt><trkpt lat="43.974507" lon="7.9388106"><ele>241.5</ele><time>2026-04-19T09:08:38.84Z</time></trkpt><trkpt lat="43.9746294" lon="7.9388631"><ele>242.25</ele><time>2026-04-19T09:08:39.839Z</time></trkpt><trkpt lat="43.9747408" lon="7.9389475"><ele>243.0</ele><time>2026-04-19T09:08:40.84Z</time></trkpt><trkpt lat="43.9748513" lon="7.9390216"><ele>243.0</ele><time>2026-04-19T09:08:41.839Z</time></trkpt><trkpt lat="43.9749724" lon="7.9390722"><ele>243.0</ele><time>2026-04-19T09:08:42.84Z</time></trkpt><trkpt lat="43.9750891" lon="7.9391038"><ele>243.0</ele><time>2026-04-19T09:08:43.839Z</time></trkpt><trkpt lat="43.9751927" lon="7.93912"><ele>243.0</ele><time>2026-04-19T09:08:44.839Z</time></trkpt><trkpt lat="43.9752804" lon="7.9391408"><ele>243.0</ele><time>2026-04-19T09:08:45.841Z</time></trkpt><trkpt lat="43.9753496" lon="7.939202"><ele>241.0</ele><time>2026-04-19T09:08:46.84Z</time></trkpt><trkpt lat="43.9753846" lon="7.939282"><ele>239.0</ele><time>2026-04-19T09:08:47.84Z</time></trkpt><trkpt lat="43.9753726" lon="7.9393758"><ele>237.0</ele><time>2026-04-19T09:08:48.84Z</time></trkpt><trkpt lat="43.9753204" lon="7.9394368"><ele>235.0</ele><time>2026-04-19T09:08:49.84Z</time></trkpt><trkpt lat="43.9752488" lon="7.9394509"><ele>233.0</ele><time>2026-04-19T09:08:50.84Z</time></trkpt><trkpt lat="43.9751663" lon="7.9394265"><ele>231.0</ele><time>2026-04-19T09:08:51.838Z</time></trkpt><trkpt lat="43.9750713" lon="7.9394203"><ele>230.5</ele><time>2026-04-19T09:08:52.839Z</time></trkpt><trkpt lat="43.9749722" lon="7.9394307"><ele>230.0</ele><time>2026-04-19T09:08:53.84Z</time></trkpt><trkpt lat="43.9748592" lon="7.939445"><ele>229.5</ele><time>2026-04-19T09:08:54.839Z</time></trkpt><trkpt lat="43.9747336" lon="7.9394642"><ele>229.0</ele><time>2026-04-19T09:08:55.839Z</time></trkpt><trkpt lat="43.9746036" lon="7.9394892"><ele>229.0</ele><time>2026-04-19T09:08:56.84Z</time></trkpt><trkpt lat="43.9744755" lon="7.9395219"><ele>229.0</ele><time>2026-04-19T09:08:57.839Z</time></trkpt><trkpt lat="43.974362" lon="7.9395469"><ele>229.0</ele><time>2026-04-19T09:08:58.84Z</time></trkpt><trkpt lat="43.9742791" lon="7.9395571"><ele>229.0</ele><time>2026-04-19T09:08:59.84Z</time></trkpt><trkpt lat="43.9741869" lon="7.9396941"><ele>228.99999999999997</ele><time>2026-04-19T09:09:01.84Z</time></trkpt><trkpt lat="43.9741857" lon="7.9397925"><ele>229.0</ele><time>2026-04-19T09:09:02.839Z</time></trkpt><trkpt lat="43.9742237" lon="7.9398781"><ele>229.0</ele><time>2026-04-19T09:09:03.841Z</time></trkpt><trkpt lat="43.9742686" lon="7.9399519"><ele>229.0</ele><time>2026-04-19T09:09:04.84Z</time></trkpt><trkpt lat="43.9743478" lon="7.9399659"><ele>228.99999999999997</ele><time>2026-04-19T09:09:05.839Z</time></trkpt><trkpt lat="43.9744612" lon="7.9399153"><ele>229.0</ele><time>2026-04-19T09:09:06.84Z</time></trkpt><trkpt lat="43.9745765" lon="7.9399063"><ele>229.0</ele><time>2026-04-19T09:09:07.84Z</time></trkpt><trkpt lat="43.9747043" lon="7.939897"><ele>229.0</ele><time>2026-04-19T09:09:08.84Z</time></trkpt><trkpt lat="43.9748314" lon="7.9398986"><ele>229.0</ele><time>2026-04-19T09:09:09.84Z</time></trkpt><trkpt lat="43.9749573" lon="7.9399004"><ele>229.0</ele><time>2026-04-19T09:09:10.839Z</time></trkpt><trkpt lat="43.9750815" lon="7.9399318"><ele>229.5</ele><time>2026-04-19T09:09:11.839Z</time></trkpt><trkpt lat="43.9751932" lon="7.9399795"><ele>230.0</ele><time>2026-04-19T09:09:12.838Z</time></trkpt><trkpt lat="43.9753096" lon="7.9400474"><ele>230.5</ele><time>2026-04-19T09:09:13.84Z</time></trkpt><trkpt lat="43.9754182" lon="7.9401452"><ele>231.0</ele><time>2026-04-19T09:09:14.84Z</time></trkpt><trkpt lat="43.9755224" lon="7.9402354"><ele>227.5</ele><time>2026-04-19T09:09:15.839Z</time></trkpt><trkpt lat="43.9756285" lon="7.9403309"><ele>224.0</ele><time>2026-04-19T09:09:16.841Z</time></trkpt><trkpt lat="43.975738" lon="7.9404199"><ele>220.5</ele><time>2026-04-19T09:09:17.84Z</time></trkpt><trkpt lat="43.9758453" lon="7.9405065"><ele>217.0</ele><time>2026-04-19T09:09:18.839Z</time></trkpt><trkpt lat="43.9759648" lon="7.9405441"><ele>216.2</ele><time>2026-04-19T09:09:19.84Z</time></trkpt><trkpt lat="43.9760632" lon="7.9405841"><ele>215.39999999999998</ele><time>2026-04-19T09:09:20.84Z</time></trkpt><trkpt lat="43.9761558" lon="7.9406173"><ele>214.60000000000002</ele><time>2026-04-19T09:09:21.84Z</time></trkpt><trkpt lat="43.9762314" lon="7.9406667"><ele>213.8</ele><time>2026-04-19T09:09:22.839Z</time></trkpt><trkpt lat="43.9762777" lon="7.9407442"><ele>213.0</ele><time>2026-04-19T09:09:23.84Z</time></trkpt><trkpt lat="43.9762414" lon="7.9409003"><ele>211.4</ele><time>2026-04-19T09:09:25.84Z</time></trkpt><trkpt lat="43.9761588" lon="7.9409166"><ele>209.8</ele><time>2026-04-19T09:09:26.839Z</time></trkpt><trkpt lat="43.9760599" lon="7.9409321"><ele>208.2</ele><time>2026-04-19T09:09:27.84Z</time></trkpt><trkpt lat="43.9759553" lon="7.940924"><ele>206.6</ele><time>2026-04-19T09:09:28.839Z</time></trkpt><trkpt lat="43.9758339" lon="7.9409255"><ele>205.0</ele><time>2026-04-19T09:09:29.84Z</time></trkpt><trkpt lat="43.9757108" lon="7.9409179"><ele>204.4</ele><time>2026-04-19T09:09:30.839Z</time></trkpt><trkpt lat="43.9755796" lon="7.9409033"><ele>203.8</ele><time>2026-04-19T09:09:31.84Z</time></trkpt><trkpt lat="43.9754693" lon="7.9408754"><ele>203.2</ele><time>2026-04-19T09:09:32.84Z</time></trkpt><trkpt lat="43.9753759" lon="7.9408532"><ele>202.6</ele><time>2026-04-19T09:09:33.839Z</time></trkpt><trkpt lat="43.9752962" lon="7.9408792"><ele>202.0</ele><time>2026-04-19T09:09:34.84Z</time></trkpt><trkpt lat="43.9752367" lon="7.9409546"><ele>201.99999999999997</ele><time>2026-04-19T09:09:35.84Z</time></trkpt><trkpt lat="43.9752001" lon="7.9410457"><ele>202.0</ele><time>2026-04-19T09:09:36.839Z</time></trkpt><trkpt lat="43.9752407" lon="7.9411373"><ele>202.0</ele><time>2026-04-19T09:09:37.839Z</time></trkpt><trkpt lat="43.9752959" lon="7.9412059"><ele>202.0</ele><time>2026-04-19T09:09:38.841Z</time></trkpt><trkpt lat="43.975377" lon="7.9412451"><ele>201.99999999999997</ele><time>2026-04-19T09:09:39.839Z</time></trkpt><trkpt lat="43.975476" lon="7.9412707"><ele>202.0</ele><time>2026-04-19T09:09:40.839Z</time></trkpt><trkpt lat="43.9755728" lon="7.941313"><ele>202.0</ele><time>2026-04-19T09:09:41.839Z</time></trkpt><trkpt lat="43.9756771" lon="7.941347"><ele>202.0</ele><time>2026-04-19T09:09:42.839Z</time></trkpt><trkpt lat="43.9757961" lon="7.9413962"><ele>202.0</ele><time>2026-04-19T09:09:43.839Z</time></trkpt><trkpt lat="43.9759219" lon="7.9414483"><ele>202.0</ele><time>2026-04-19T09:09:44.839Z</time></trkpt><trkpt lat="43.9760478" lon="7.9414617"><ele>202.75</ele><time>2026-04-19T09:09:45.84Z</time></trkpt><trkpt lat="43.976169" lon="7.9414525"><ele>203.5</ele><time>2026-04-19T09:09:46.84Z</time></trkpt><trkpt lat="43.9762787" lon="7.941412"><ele>204.25</ele><time>2026-04-19T09:09:47.84Z</time></trkpt><trkpt lat="43.9763801" lon="7.9413424"><ele>205.0</ele><time>2026-04-19T09:09:48.84Z</time></trkpt><trkpt lat="43.9764714" lon="7.9412491"><ele>205.0</ele><time>2026-04-19T09:09:49.84Z</time></trkpt><trkpt lat="43.9765655" lon="7.9411548"><ele>205.0</ele><time>2026-04-19T09:09:50.84Z</time></trkpt><trkpt lat="43.9766477" lon="7.9410863"><ele>205.0</ele><time>2026-04-19T09:09:51.839Z</time></trkpt><trkpt lat="43.9767451" lon="7.9410399"><ele>205.0</ele><time>2026-04-19T09:09:52.839Z</time></trkpt><trkpt lat="43.9768462" lon="7.9410543"><ele>205.0</ele><time>2026-04-19T09:09:53.839Z</time></trkpt><trkpt lat="43.9769462" lon="7.9410592"><ele>208.33333333333331</ele><time>2026-04-19T09:09:54.839Z</time></trkpt><trkpt lat="43.9770401" lon="7.941072"><ele>211.66666666666666</ele><time>2026-04-19T09:09:55.839Z</time></trkpt><trkpt lat="43.9771152" lon="7.9411092"><ele>215.0</ele><time>2026-04-19T09:09:56.84Z</time></trkpt><trkpt lat="43.9771675" lon="7.9411751"><ele>218.33333333333331</ele><time>2026-04-19T09:09:57.84Z</time></trkpt><trkpt lat="43.9771898" lon="7.9412678"><ele>221.66666666666666</ele><time>2026-04-19T09:09:58.839Z</time></trkpt><trkpt lat="43.9771845" lon="7.9413748"><ele>225.0</ele><time>2026-04-19T09:09:59.838Z</time></trkpt><trkpt lat="43.9771559" lon="7.9414791"><ele>225.0</ele><time>2026-04-19T09:10:00.839Z</time></trkpt><trkpt lat="43.9771176" lon="7.9415825"><ele>225.0</ele><time>2026-04-19T09:10:01.84Z</time></trkpt><trkpt lat="43.9770564" lon="7.9416756"><ele>225.0</ele><time>2026-04-19T09:10:02.84Z</time></trkpt><trkpt lat="43.9769709" lon="7.9417536"><ele>225.0</ele><time>2026-04-19T09:10:03.84Z</time></trkpt><trkpt lat="43.9768852" lon="7.9418321"><ele>225.0</ele><time>2026-04-19T09:10:04.839Z</time></trkpt><trkpt lat="43.9767803" lon="7.9418946"><ele>223.25</ele><time>2026-04-19T09:10:05.839Z</time></trkpt><trkpt lat="43.9766709" lon="7.9419638"><ele>221.5</ele><time>2026-04-19T09:10:06.839Z</time></trkpt><trkpt lat="43.9765591" lon="7.942028"><ele>219.75</ele><time>2026-04-19T09:10:07.839Z</time></trkpt><trkpt lat="43.9764481" lon="7.9420871"><ele>218.0</ele><time>2026-04-19T09:10:08.84Z</time></trkpt><trkpt lat="43.9763334" lon="7.9421391"><ele>218.0</ele><time>2026-04-19T09:10:09.84Z</time></trkpt><trkpt lat="43.9762019" lon="7.942142"><ele>218.0</ele><time>2026-04-19T09:10:10.84Z</time></trkpt><trkpt lat="43.9760688" lon="7.9421431"><ele>218.0</ele><time>2026-04-19T09:10:11.839Z</time></trkpt><trkpt lat="43.9759341" lon="7.9421528"><ele>218.0</ele><time>2026-04-19T09:10:12.839Z</time></trkpt><trkpt lat="43.9758066" lon="7.9421712"><ele>215.0</ele><time>2026-04-19T09:10:13.84Z</time></trkpt><trkpt lat="43.9756795" lon="7.9421906"><ele>212.0</ele><time>2026-04-19T09:10:14.84Z</time></trkpt><trkpt lat="43.9755587" lon="7.942217"><ele>209.0</ele><time>2026-04-19T09:10:15.839Z</time></trkpt><trkpt lat="43.9754409" lon="7.9422445"><ele>206.0</ele><time>2026-04-19T09:10:16.84Z</time></trkpt><trkpt lat="43.9753497" lon="7.9422663"><ele>206.0</ele><time>2026-04-19T09:10:17.84Z</time></trkpt><trkpt lat="43.9752537" lon="7.9422947"><ele>206.0</ele><time>2026-04-19T09:10:18.841Z</time></trkpt><trkpt lat="43.9751562" lon="7.9423138"><ele>206.0</ele><time>2026-04-19T09:10:19.84Z</time></trkpt><trkpt lat="43.9750587" lon="7.9423269"><ele>206.0</ele><time>2026-04-19T09:10:20.84Z</time></trkpt><trkpt lat="43.9749705" lon="7.9423382"><ele>206.0</ele><time>2026-04-19T09:10:21.84Z</time></trkpt><trkpt lat="43.9748871" lon="7.9423723"><ele>204.00000000000003</ele><time>2026-04-19T09:10:22.84Z</time></trkpt><trkpt lat="43.9748222" lon="7.9424136"><ele>202.0</ele><time>2026-04-19T09:10:23.84Z</time></trkpt><trkpt lat="43.9747686" lon="7.9424643"><ele>200.0</ele><time>2026-04-19T09:10:24.841Z</time></trkpt><trkpt lat="43.9747713" lon="7.942563"><ele>198.0</ele><time>2026-04-19T09:10:25.839Z</time></trkpt><trkpt lat="43.9747867" lon="7.9426625"><ele>196.00000000000003</ele><time>2026-04-19T09:10:26.839Z</time></trkpt><trkpt lat="43.974816" lon="7.9427678"><ele>194.0</ele><time>2026-04-19T09:10:27.838Z</time></trkpt><trkpt lat="43.9748549" lon="7.9428775"><ele>193.79999999999998</ele><time>2026-04-19T09:10:28.839Z</time></trkpt><trkpt lat="43.9749014" lon="7.9429881"><ele>193.6</ele><time>2026-04-19T09:10:29.839Z</time></trkpt><trkpt lat="43.974957" lon="7.9431171"><ele>193.4</ele><time>2026-04-19T09:10:30.839Z</time></trkpt><trkpt lat="43.9749927" lon="7.9432742"><ele>193.2</ele><time>2026-04-19T09:10:31.839Z</time></trkpt><trkpt lat="43.9750315" lon="7.9434269"><ele>193.0</ele><time>2026-04-19T09:10:32.84Z</time></trkpt><trkpt lat="43.9750831" lon="7.9435728"><ele>193.4</ele><time>2026-04-19T09:10:33.84Z</time></trkpt><trkpt lat="43.9751336" lon="7.9437211"><ele>193.8</ele><time>2026-04-19T09:10:34.84Z</time></trkpt><trkpt lat="43.9751876" lon="7.9438562"><ele>194.2</ele><time>2026-04-19T09:10:35.84Z</time></trkpt><trkpt lat="43.9752405" lon="7.9439939"><ele>194.6</ele><time>2026-04-19T09:10:36.839Z</time></trkpt><trkpt lat="43.9752877" lon="7.9441233"><ele>195.0</ele><time>2026-04-19T09:10:37.84Z</time></trkpt><trkpt lat="43.9753264" lon="7.9442491"><ele>195.0</ele><time>2026-04-19T09:10:38.84Z</time></trkpt><trkpt lat="43.9753678" lon="7.9443843"><ele>195.0</ele><time>2026-04-19T09:10:39.84Z</time></trkpt><trkpt lat="43.9754081" lon="7.9445211"><ele>195.0</ele><time>2026-04-19T09:10:40.84Z</time></trkpt><trkpt lat="43.9754466" lon="7.9446507"><ele>195.0</ele><time>2026-04-19T09:10:41.839Z</time></trkpt><trkpt lat="43.9754711" lon="7.9447897"><ele>195.0</ele><time>2026-04-19T09:10:42.84Z</time></trkpt><trkpt lat="43.9754883" lon="7.9449179"><ele>195.0</ele><time>2026-04-19T09:10:43.84Z</time></trkpt><trkpt lat="43.9755001" lon="7.9450353"><ele>195.0</ele><time>2026-04-19T09:10:44.841Z</time></trkpt><trkpt lat="43.9755132" lon="7.9451371"><ele>195.0</ele><time>2026-04-19T09:10:45.839Z</time></trkpt><trkpt lat="43.9755286" lon="7.9452318"><ele>195.0</ele><time>2026-04-19T09:10:46.838Z</time></trkpt><trkpt lat="43.9755266" lon="7.945326"><ele>195.0</ele><time>2026-04-19T09:10:47.839Z</time></trkpt><trkpt lat="43.975527" lon="7.9454237"><ele>195.0</ele><time>2026-04-19T09:10:48.839Z</time></trkpt><trkpt lat="43.9755309" lon="7.9455205"><ele>195.0</ele><time>2026-04-19T09:10:49.84Z</time></trkpt><trkpt lat="43.9755354" lon="7.9456208"><ele>194.83333333333334</ele><time>2026-04-19T09:10:50.839Z</time></trkpt><trkpt lat="43.9755409" lon="7.9457198"><ele>194.66666666666669</ele><time>2026-04-19T09:10:51.839Z</time></trkpt><trkpt lat="43.9755388" lon="7.9458192"><ele>194.5</ele><time>2026-04-19T09:10:52.839Z</time></trkpt><trkpt lat="43.9755228" lon="7.9459854"><ele>194.33333333333334</ele><time>2026-04-19T09:10:54.839Z</time></trkpt><trkpt lat="43.9755026" lon="7.9460696"><ele>194.16666666666669</ele><time>2026-04-19T09:10:55.84Z</time></trkpt><trkpt lat="43.9754817" lon="7.9461618"><ele>194.0</ele><time>2026-04-19T09:10:56.839Z</time></trkpt><trkpt lat="43.975461" lon="7.9462533"><ele>194.83333333333334</ele><time>2026-04-19T09:10:57.84Z</time></trkpt><trkpt lat="43.9754315" lon="7.9463575"><ele>195.66666666666669</ele><time>2026-04-19T09:10:58.839Z</time></trkpt><trkpt lat="43.9753952" lon="7.9464657"><ele>196.5</ele><time>2026-04-19T09:10:59.84Z</time></trkpt><trkpt lat="43.9753579" lon="7.946577"><ele>197.33333333333331</ele><time>2026-04-19T09:11:00.838Z</time></trkpt><trkpt lat="43.9753026" lon="7.9466799"><ele>198.16666666666666</ele><time>2026-04-19T09:11:01.84Z</time></trkpt><trkpt lat="43.9752562" lon="7.9467825"><ele>199.0</ele><time>2026-04-19T09:11:02.84Z</time></trkpt><trkpt lat="43.9752182" lon="7.9468717"><ele>199.33333333333331</ele><time>2026-04-19T09:11:03.838Z</time></trkpt><trkpt lat="43.9751824" lon="7.9469562"><ele>199.66666666666666</ele><time>2026-04-19T09:11:04.84Z</time></trkpt><trkpt lat="43.9751439" lon="7.9470462"><ele>200.0</ele><time>2026-04-19T09:11:05.839Z</time></trkpt><trkpt lat="43.9751122" lon="7.9471473"><ele>200.33333333333331</ele><time>2026-04-19T09:11:06.838Z</time></trkpt><trkpt lat="43.9750848" lon="7.9472607"><ele>200.66666666666666</ele><time>2026-04-19T09:11:07.839Z</time></trkpt><trkpt lat="43.9750499" lon="7.9473797"><ele>201.0</ele><time>2026-04-19T09:11:08.84Z</time></trkpt><trkpt lat="43.9750204" lon="7.9475095"><ele>197.8</ele><time>2026-04-19T09:11:09.84Z</time></trkpt><trkpt lat="43.9749949" lon="7.9476444"><ele>194.60000000000002</ele><time>2026-04-19T09:11:10.839Z</time></trkpt><trkpt lat="43.9749676" lon="7.9477878"><ele>191.4</ele><time>2026-04-19T09:11:11.84Z</time></trkpt><trkpt lat="43.9749505" lon="7.947935"><ele>188.2</ele><time>2026-04-19T09:11:12.841Z</time></trkpt><trkpt lat="43.9749281" lon="7.9480867"><ele>185.0</ele><time>2026-04-19T09:11:13.839Z</time></trkpt><trkpt lat="43.9748997" lon="7.9482422"><ele>185.25</ele><time>2026-04-19T09:11:14.84Z</time></trkpt><trkpt lat="43.9748792" lon="7.9483952"><ele>185.5</ele><time>2026-04-19T09:11:15.839Z</time></trkpt><trkpt lat="43.974861" lon="7.9485463"><ele>185.75</ele><time>2026-04-19T09:11:16.84Z</time></trkpt><trkpt lat="43.974841" lon="7.948701"><ele>186.0</ele><time>2026-04-19T09:11:17.841Z</time></trkpt><trkpt lat="43.9748153" lon="7.9488565"><ele>186.0</ele><time>2026-04-19T09:11:18.84Z</time></trkpt><trkpt lat="43.9747901" lon="7.9490202"><ele>186.0</ele><time>2026-04-19T09:11:19.84Z</time></trkpt><trkpt lat="43.9747595" lon="7.949183"><ele>186.0</ele><time>2026-04-19T09:11:20.839Z</time></trkpt><trkpt lat="43.9747326" lon="7.9493464"><ele>186.0</ele><time>2026-04-19T09:11:21.838Z</time></trkpt><trkpt lat="43.9747026" lon="7.9495139"><ele>186.0</ele><time>2026-04-19T09:11:22.84Z</time></trkpt><trkpt lat="43.9746665" lon="7.9496782"><ele>186.0</ele><time>2026-04-19T09:11:23.839Z</time></trkpt><trkpt lat="43.9746337" lon="7.9498465"><ele>186.0</ele><time>2026-04-19T09:11:24.84Z</time></trkpt><trkpt lat="43.9746001" lon="7.9500088"><ele>186.0</ele><time>2026-04-19T09:11:25.84Z</time></trkpt><trkpt lat="43.9745697" lon="7.9501771"><ele>186.0</ele><time>2026-04-19T09:11:26.84Z</time></trkpt><trkpt lat="43.9745415" lon="7.9503487"><ele>186.0</ele><time>2026-04-19T09:11:27.838Z</time></trkpt><trkpt lat="43.9745075" lon="7.9505209"><ele>186.0</ele><time>2026-04-19T09:11:28.839Z</time></trkpt><trkpt lat="43.9744679" lon="7.950691"><ele>186.0</ele><time>2026-04-19T09:11:29.84Z</time></trkpt><trkpt lat="43.9744266" lon="7.9508633"><ele>187.0</ele><time>2026-04-19T09:11:30.84Z</time></trkpt><trkpt lat="43.974381" lon="7.9510296"><ele>188.0</ele><time>2026-04-19T09:11:31.839Z</time></trkpt><trkpt lat="43.9743372" lon="7.9511919"><ele>189.0</ele><time>2026-04-19T09:11:32.839Z</time></trkpt><trkpt lat="43.9742998" lon="7.9513453"><ele>190.0</ele><time>2026-04-19T09:11:33.84Z</time></trkpt><trkpt lat="43.9742537" lon="7.951492"><ele>190.0</ele><time>2026-04-19T09:11:34.841Z</time></trkpt><trkpt lat="43.9742005" lon="7.9516238"><ele>190.0</ele><time>2026-04-19T09:11:35.839Z</time></trkpt><trkpt lat="43.9741487" lon="7.951751"><ele>190.0</ele><time>2026-04-19T09:11:36.841Z</time></trkpt><trkpt lat="43.9740941" lon="7.9518803"><ele>190.0</ele><time>2026-04-19T09:11:37.841Z</time></trkpt><trkpt lat="43.9740487" lon="7.9520098"><ele>190.0</ele><time>2026-04-19T09:11:38.841Z</time></trkpt><trkpt lat="43.9740082" lon="7.9521436"><ele>188.4</ele><time>2026-04-19T09:11:39.838Z</time></trkpt><trkpt lat="43.9739744" lon="7.9522853"><ele>186.8</ele><time>2026-04-19T09:11:40.84Z</time></trkpt><trkpt lat="43.9739537" lon="7.9524314"><ele>185.2</ele><time>2026-04-19T09:11:41.839Z</time></trkpt><trkpt lat="43.9739519" lon="7.9525765"><ele>183.6</ele><time>2026-04-19T09:11:42.839Z</time></trkpt><trkpt lat="43.9739562" lon="7.9527284"><ele>182.0</ele><time>2026-04-19T09:11:43.839Z</time></trkpt><trkpt lat="43.9739696" lon="7.9528789"><ele>181.25</ele><time>2026-04-19T09:11:44.84Z</time></trkpt><trkpt lat="43.9739876" lon="7.9530324"><ele>180.5</ele><time>2026-04-19T09:11:45.839Z</time></trkpt><trkpt lat="43.9740177" lon="7.9531893"><ele>179.75</ele><time>2026-04-19T09:11:46.84Z</time></trkpt><trkpt lat="43.9740511" lon="7.953342"><ele>179.0</ele><time>2026-04-19T09:11:47.84Z</time></trkpt><trkpt lat="43.9740904" lon="7.9534949"><ele>178.0</ele><time>2026-04-19T09:11:48.839Z</time></trkpt><trkpt lat="43.9741313" lon="7.9536521"><ele>177.0</ele><time>2026-04-19T09:11:49.84Z</time></trkpt><trkpt lat="43.9741761" lon="7.9538102"><ele>176.0</ele><time>2026-04-19T09:11:50.839Z</time></trkpt><trkpt lat="43.9742031" lon="7.9539699"><ele>175.0</ele><time>2026-04-19T09:11:51.84Z</time></trkpt><trkpt lat="43.9742368" lon="7.9541332"><ele>178.0</ele><time>2026-04-19T09:11:52.839Z</time></trkpt><trkpt lat="43.9742684" lon="7.9543067"><ele>181.0</ele><time>2026-04-19T09:11:53.84Z</time></trkpt><trkpt lat="43.9743016" lon="7.954479"><ele>184.0</ele><time>2026-04-19T09:11:54.839Z</time></trkpt><trkpt lat="43.9743327" lon="7.954653"><ele>187.0</ele><time>2026-04-19T09:11:55.84Z</time></trkpt><trkpt lat="43.974364" lon="7.9548298"><ele>187.0</ele><time>2026-04-19T09:11:56.839Z</time></trkpt><trkpt lat="43.9743959" lon="7.9550048"><ele>187.0</ele><time>2026-04-19T09:11:57.84Z</time></trkpt><trkpt lat="43.974423" lon="7.9551833"><ele>187.0</ele><time>2026-04-19T09:11:58.84Z</time></trkpt><trkpt lat="43.9744387" lon="7.9553634"><ele>187.0</ele><time>2026-04-19T09:11:59.841Z</time></trkpt><trkpt lat="43.9744375" lon="7.9555474"><ele>186.5</ele><time>2026-04-19T09:12:00.84Z</time></trkpt><trkpt lat="43.9744172" lon="7.9557355"><ele>186.0</ele><time>2026-04-19T09:12:01.84Z</time></trkpt><trkpt lat="43.9743858" lon="7.9559131"><ele>185.5</ele><time>2026-04-19T09:12:02.839Z</time></trkpt><trkpt lat="43.9743638" lon="7.9560933"><ele>185.0</ele><time>2026-04-19T09:12:03.839Z</time></trkpt><trkpt lat="43.9743569" lon="7.956283"><ele>185.0</ele><time>2026-04-19T09:12:04.839Z</time></trkpt><trkpt lat="43.9743637" lon="7.9564624"><ele>185.0</ele><time>2026-04-19T09:12:05.839Z</time></trkpt><trkpt lat="43.9743737" lon="7.9566429"><ele>185.0</ele><time>2026-04-19T09:12:06.839Z</time></trkpt><trkpt lat="43.9743898" lon="7.9568232"><ele>185.0</ele><time>2026-04-19T09:12:07.84Z</time></trkpt><trkpt lat="43.9744061" lon="7.9570046"><ele>183.75</ele><time>2026-04-19T09:12:08.839Z</time></trkpt><trkpt lat="43.9744304" lon="7.9571825"><ele>182.5</ele><time>2026-04-19T09:12:09.84Z</time></trkpt><trkpt lat="43.9744597" lon="7.957369"><ele>181.25</ele><time>2026-04-19T09:12:10.839Z</time></trkpt><trkpt lat="43.9744843" lon="7.9575498"><ele>180.0</ele><time>2026-04-19T09:12:11.839Z</time></trkpt><trkpt lat="43.9745192" lon="7.9577352"><ele>178.25</ele><time>2026-04-19T09:12:12.839Z</time></trkpt><trkpt lat="43.9745635" lon="7.9579166"><ele>176.5</ele><time>2026-04-19T09:12:13.84Z</time></trkpt><trkpt lat="43.9746266" lon="7.9580849"><ele>174.75</ele><time>2026-04-19T09:12:14.839Z</time></trkpt><trkpt lat="43.9746966" lon="7.9582588"><ele>173.0</ele><time>2026-04-19T09:12:15.84Z</time></trkpt><trkpt lat="43.9747587" lon="7.9584347"><ele>173.0</ele><time>2026-04-19T09:12:16.84Z</time></trkpt><trkpt lat="43.9748156" lon="7.95861"><ele>173.0</ele><time>2026-04-19T09:12:17.84Z</time></trkpt><trkpt lat="43.9748777" lon="7.958793"><ele>173.0</ele><time>2026-04-19T09:12:18.839Z</time></trkpt><trkpt lat="43.974938" lon="7.9589722"><ele>173.0</ele><time>2026-04-19T09:12:19.84Z</time></trkpt><trkpt lat="43.9749965" lon="7.9591531"><ele>172.25</ele><time>2026-04-19T09:12:20.838Z</time></trkpt><trkpt lat="43.9750632" lon="7.9593279"><ele>171.5</ele><time>2026-04-19T09:12:21.839Z</time></trkpt><trkpt lat="43.9751397" lon="7.9594988"><ele>170.75</ele><time>2026-04-19T09:12:22.84Z</time></trkpt><trkpt lat="43.9752139" lon="7.9596616"><ele>170.0</ele><time>2026-04-19T09:12:23.838Z</time></trkpt><trkpt lat="43.9752928" lon="7.9598164"><ele>170.0</ele><time>2026-04-19T09:12:24.839Z</time></trkpt><trkpt lat="43.9753803" lon="7.959971"><ele>170.0</ele><time>2026-04-19T09:12:25.839Z</time></trkpt><trkpt lat="43.9754608" lon="7.960123"><ele>170.0</ele><time>2026-04-19T09:12:26.84Z</time></trkpt><trkpt lat="43.9755394" lon="7.9602727"><ele>170.0</ele><time>2026-04-19T09:12:27.839Z</time></trkpt><trkpt lat="43.9756201" lon="7.9604122"><ele>169.25</ele><time>2026-04-19T09:12:28.839Z</time></trkpt><trkpt lat="43.9756963" lon="7.9605502"><ele>168.5</ele><time>2026-04-19T09:12:29.838Z</time></trkpt><trkpt lat="43.9757728" lon="7.9606854"><ele>167.75</ele><time>2026-04-19T09:12:30.84Z</time></trkpt><trkpt lat="43.9758489" lon="7.9608203"><ele>167.0</ele><time>2026-04-19T09:12:31.84Z</time></trkpt><trkpt lat="43.9759203" lon="7.9609539"><ele>174.5</ele><time>2026-04-19T09:12:32.84Z</time></trkpt><trkpt lat="43.9759958" lon="7.9610932"><ele>182.0</ele><time>2026-04-19T09:12:33.84Z</time></trkpt><trkpt lat="43.9760582" lon="7.9612378"><ele>189.5</ele><time>2026-04-19T09:12:34.838Z</time></trkpt><trkpt lat="43.9761002" lon="7.9613915"><ele>197.0</ele><time>2026-04-19T09:12:35.84Z</time></trkpt><trkpt lat="43.9761343" lon="7.9615484"><ele>197.0</ele><time>2026-04-19T09:12:36.84Z</time></trkpt><trkpt lat="43.9761471" lon="7.9616984"><ele>197.0</ele><time>2026-04-19T09:12:37.84Z</time></trkpt><trkpt lat="43.9761014" lon="7.9618572"><ele>197.0</ele><time>2026-04-19T09:12:38.838Z</time></trkpt><trkpt lat="43.9760406" lon="7.9620038"><ele>197.0</ele><time>2026-04-19T09:12:39.84Z</time></trkpt><trkpt lat="43.9759838" lon="7.9621636"><ele>194.75</ele><time>2026-04-19T09:12:40.839Z</time></trkpt><trkpt lat="43.9759352" lon="7.9623339"><ele>192.5</ele><time>2026-04-19T09:12:41.839Z</time></trkpt><trkpt lat="43.9758868" lon="7.9625117"><ele>190.25</ele><time>2026-04-19T09:12:42.839Z</time></trkpt><trkpt lat="43.9758368" lon="7.9626939"><ele>188.0</ele><time>2026-04-19T09:12:43.84Z</time></trkpt><trkpt lat="43.9757981" lon="7.9628825"><ele>182.0</ele><time>2026-04-19T09:12:44.84Z</time></trkpt><trkpt lat="43.9757687" lon="7.9630717"><ele>176.0</ele><time>2026-04-19T09:12:45.839Z</time></trkpt><trkpt lat="43.9757823" lon="7.9632795"><ele>170.0</ele><time>2026-04-19T09:12:46.84Z</time></trkpt><trkpt lat="43.9757836" lon="7.9634832"><ele>164.0</ele><time>2026-04-19T09:12:47.84Z</time></trkpt><trkpt lat="43.9758039" lon="7.9636756"><ele>162.75</ele><time>2026-04-19T09:12:48.84Z</time></trkpt><trkpt lat="43.9758374" lon="7.9638661"><ele>161.5</ele><time>2026-04-19T09:12:49.84Z</time></trkpt><trkpt lat="43.9758851" lon="7.9640485"><ele>160.25</ele><time>2026-04-19T09:12:50.839Z</time></trkpt><trkpt lat="43.9759429" lon="7.9642218"><ele>159.0</ele><time>2026-04-19T09:12:51.84Z</time></trkpt><trkpt lat="43.976014" lon="7.9643868"><ele>166.75</ele><time>2026-04-19T09:12:52.839Z</time></trkpt><trkpt lat="43.9760868" lon="7.9645462"><ele>174.5</ele><time>2026-04-19T09:12:53.839Z</time></trkpt><trkpt lat="43.9761457" lon="7.9646979"><ele>182.25</ele><time>2026-04-19T09:12:54.838Z</time></trkpt><trkpt lat="43.9761768" lon="7.9648469"><ele>190.0</ele><time>2026-04-19T09:12:55.839Z</time></trkpt><trkpt lat="43.9761701" lon="7.964983"><ele>193.0</ele><time>2026-04-19T09:12:56.838Z</time></trkpt><trkpt lat="43.9761187" lon="7.9651177"><ele>196.0</ele><time>2026-04-19T09:12:57.841Z</time></trkpt><trkpt lat="43.9760559" lon="7.9652525"><ele>199.0</ele><time>2026-04-19T09:12:58.84Z</time></trkpt><trkpt lat="43.9759929" lon="7.9654006"><ele>202.0</ele><time>2026-04-19T09:12:59.839Z</time></trkpt><trkpt lat="43.9759295" lon="7.965542"><ele>202.0</ele><time>2026-04-19T09:13:00.839Z</time></trkpt><trkpt lat="43.9758725" lon="7.965694"><ele>202.0</ele><time>2026-04-19T09:13:01.839Z</time></trkpt><trkpt lat="43.9758331" lon="7.9658456"><ele>202.0</ele><time>2026-04-19T09:13:02.84Z</time></trkpt><trkpt lat="43.9757973" lon="7.9659906"><ele>202.0</ele><time>2026-04-19T09:13:03.839Z</time></trkpt><trkpt lat="43.9757887" lon="7.9661179"><ele>202.0</ele><time>2026-04-19T09:13:04.838Z</time></trkpt><trkpt lat="43.9757749" lon="7.9662341"><ele>196.33333333333331</ele><time>2026-04-19T09:13:05.839Z</time></trkpt><trkpt lat="43.9757554" lon="7.9663197"><ele>190.66666666666666</ele><time>2026-04-19T09:13:06.839Z</time></trkpt><trkpt lat="43.9757429" lon="7.9664084"><ele>185.0</ele><time>2026-04-19T09:13:07.841Z</time></trkpt><trkpt lat="43.9757241" lon="7.9665503"><ele>179.33333333333331</ele><time>2026-04-19T09:13:09.84Z</time></trkpt><trkpt lat="43.9756882" lon="7.9666439"><ele>173.66666666666666</ele><time>2026-04-19T09:13:12.84Z</time></trkpt><trkpt lat="43.9756253" lon="7.9666751"><ele>168.0</ele><time>2026-04-19T09:13:20.839Z</time></trkpt><trkpt lat="43.9756649" lon="7.9667784"><ele>167.33333333333334</ele><time>2026-04-19T09:25:46.838Z</time></trkpt><trkpt lat="43.975673" lon="7.9668832"><ele>166.66666666666666</ele><time>2026-04-19T09:25:47.839Z</time></trkpt><trkpt lat="43.9756796" lon="7.9669814"><ele>166.0</ele><time>2026-04-19T09:25:48.84Z</time></trkpt><trkpt lat="43.9756774" lon="7.9671062"><ele>165.33333333333331</ele><time>2026-04-19T09:25:49.84Z</time></trkpt><trkpt lat="43.9756745" lon="7.9672081"><ele>164.66666666666666</ele><time>2026-04-19T09:25:50.839Z</time></trkpt><trkpt lat="43.9756812" lon="7.967311"><ele>164.0</ele><time>2026-04-19T09:25:51.839Z</time></trkpt><trkpt lat="43.9756896" lon="7.9674154"><ele>164.0</ele><time>2026-04-19T09:25:52.838Z</time></trkpt><trkpt lat="43.9757" lon="7.967521"><ele>164.0</ele><time>2026-04-19T09:25:53.838Z</time></trkpt><trkpt lat="43.9757272" lon="7.9676378"><ele>164.0</ele><time>2026-04-19T09:25:54.838Z</time></trkpt><trkpt lat="43.9757696" lon="7.9677584"><ele>164.0</ele><time>2026-04-19T09:25:55.839Z</time></trkpt><trkpt lat="43.9758158" lon="7.9678804"><ele>164.0</ele><time>2026-04-19T09:25:56.839Z</time></trkpt><trkpt lat="43.9758647" lon="7.9680064"><ele>164.0</ele><time>2026-04-19T09:25:57.84Z</time></trkpt><trkpt lat="43.975922" lon="7.9681262"><ele>164.0</ele><time>2026-04-19T09:25:58.837Z</time></trkpt><trkpt lat="43.9759913" lon="7.9682321"><ele>164.0</ele><time>2026-04-19T09:25:59.838Z</time></trkpt><trkpt lat="43.9761271" lon="7.9684521"><ele>164.0</ele><time>2026-04-19T09:26:01.838Z</time></trkpt><trkpt lat="43.9761851" lon="7.9685795"><ele>164.0</ele><time>2026-04-19T09:26:02.839Z</time></trkpt><trkpt lat="43.9762408" lon="7.9687121"><ele>164.0</ele><time>2026-04-19T09:26:03.837Z</time></trkpt><trkpt lat="43.976294" lon="7.9688493"><ele>164.0</ele><time>2026-04-19T09:26:04.838Z</time></trkpt><trkpt lat="43.9763494" lon="7.9689846"><ele>164.0</ele><time>2026-04-19T09:26:05.837Z</time></trkpt><trkpt lat="43.9764074" lon="7.9691092"><ele>164.0</ele><time>2026-04-19T09:26:06.839Z</time></trkpt><trkpt lat="43.9764624" lon="7.9692292"><ele>161.79999999999998</ele><time>2026-04-19T09:26:07.839Z</time></trkpt><trkpt lat="43.9765136" lon="7.96935"><ele>159.6</ele><time>2026-04-19T09:26:08.839Z</time></trkpt><trkpt lat="43.9765599" lon="7.9694635"><ele>157.4</ele><time>2026-04-19T09:26:09.838Z</time></trkpt><trkpt lat="43.9765975" lon="7.9695776"><ele>155.2</ele><time>2026-04-19T09:26:10.839Z</time></trkpt><trkpt lat="43.9766307" lon="7.969708"><ele>153.0</ele><time>2026-04-19T09:26:11.839Z</time></trkpt><trkpt lat="43.9766675" lon="7.9698131"><ele>153.83333333333334</ele><time>2026-04-19T09:26:12.839Z</time></trkpt><trkpt lat="43.976699" lon="7.9699216"><ele>154.66666666666666</ele><time>2026-04-19T09:26:13.839Z</time></trkpt><trkpt lat="43.9767257" lon="7.9700301"><ele>155.5</ele><time>2026-04-19T09:26:14.838Z</time></trkpt><trkpt lat="43.9767661" lon="7.9701341"><ele>156.33333333333331</ele><time>2026-04-19T09:26:15.839Z</time></trkpt><trkpt lat="43.9768126" lon="7.9702393"><ele>157.16666666666666</ele><time>2026-04-19T09:26:16.837Z</time></trkpt><trkpt lat="43.976856" lon="7.9703477"><ele>158.0</ele><time>2026-04-19T09:26:17.838Z</time></trkpt><trkpt lat="43.9769009" lon="7.9704564"><ele>159.33333333333331</ele><time>2026-04-19T09:26:18.838Z</time></trkpt><trkpt lat="43.976939" lon="7.9705661"><ele>160.66666666666666</ele><time>2026-04-19T09:26:19.839Z</time></trkpt><trkpt lat="43.9769649" lon="7.9706777"><ele>162.0</ele><time>2026-04-19T09:26:20.839Z</time></trkpt><trkpt lat="43.9769901" lon="7.9707892"><ele>163.33333333333334</ele><time>2026-04-19T09:26:21.839Z</time></trkpt><trkpt lat="43.976995" lon="7.9708941"><ele>164.66666666666669</ele><time>2026-04-19T09:26:22.838Z</time></trkpt><trkpt lat="43.9769737" lon="7.9709901"><ele>166.0</ele><time>2026-04-19T09:26:23.837Z</time></trkpt><trkpt lat="43.9769364" lon="7.9710723"><ele>166.0</ele><time>2026-04-19T09:26:24.838Z</time></trkpt><trkpt lat="43.9768872" lon="7.9711633"><ele>166.0</ele><time>2026-04-19T09:26:25.839Z</time></trkpt><trkpt lat="43.9768307" lon="7.9712462"><ele>166.0</ele><time>2026-04-19T09:26:26.837Z</time></trkpt><trkpt lat="43.9767742" lon="7.9713311"><ele>166.0</ele><time>2026-04-19T09:26:27.838Z</time></trkpt><trkpt lat="43.9767119" lon="7.9714205"><ele>166.0</ele><time>2026-04-19T09:26:28.839Z</time></trkpt><trkpt lat="43.9766422" lon="7.9715008"><ele>166.0</ele><time>2026-04-19T09:26:29.839Z</time></trkpt><trkpt lat="43.9765585" lon="7.971581"><ele>166.0</ele><time>2026-04-19T09:26:30.838Z</time></trkpt><trkpt lat="43.9764748" lon="7.9716548"><ele>166.0</ele><time>2026-04-19T09:26:31.838Z</time></trkpt><trkpt lat="43.9763912" lon="7.9717397"><ele>166.0</ele><time>2026-04-19T09:26:32.837Z</time></trkpt><trkpt lat="43.976306" lon="7.9718189"><ele>166.0</ele><time>2026-04-19T09:26:33.838Z</time></trkpt><trkpt lat="43.9762219" lon="7.9719077"><ele>166.0</ele><time>2026-04-19T09:26:34.839Z</time></trkpt><trkpt lat="43.9761356" lon="7.9719881"><ele>166.0</ele><time>2026-04-19T09:26:35.839Z</time></trkpt><trkpt lat="43.9760434" lon="7.9720666"><ele>166.0</ele><time>2026-04-19T09:26:36.84Z</time></trkpt><trkpt lat="43.9759501" lon="7.9721452"><ele>166.0</ele><time>2026-04-19T09:26:37.838Z</time></trkpt><trkpt lat="43.9758536" lon="7.9722106"><ele>166.0</ele><time>2026-04-19T09:26:38.839Z</time></trkpt><trkpt lat="43.9757543" lon="7.9722813"><ele>166.0</ele><time>2026-04-19T09:26:39.838Z</time></trkpt><trkpt lat="43.9756626" lon="7.9723645"><ele>166.0</ele><time>2026-04-19T09:26:40.838Z</time></trkpt><trkpt lat="43.9755852" lon="7.9724682"><ele>166.0</ele><time>2026-04-19T09:26:41.838Z</time></trkpt><trkpt lat="43.9755229" lon="7.9726005"><ele>166.0</ele><time>2026-04-19T09:26:42.839Z</time></trkpt><trkpt lat="43.9754734" lon="7.972733"><ele>166.0</ele><time>2026-04-19T09:26:43.837Z</time></trkpt><trkpt lat="43.9754307" lon="7.972883"><ele>166.0</ele><time>2026-04-19T09:26:44.838Z</time></trkpt><trkpt lat="43.9753894" lon="7.9730347"><ele>170.5</ele><time>2026-04-19T09:26:45.838Z</time></trkpt><trkpt lat="43.9753415" lon="7.9731778"><ele>175.0</ele><time>2026-04-19T09:26:46.838Z</time></trkpt><trkpt lat="43.9752951" lon="7.973317"><ele>179.5</ele><time>2026-04-19T09:26:47.838Z</time></trkpt><trkpt lat="43.9752575" lon="7.9734725"><ele>184.0</ele><time>2026-04-19T09:26:48.838Z</time></trkpt><trkpt lat="43.9752268" lon="7.9736226"><ele>186.25</ele><time>2026-04-19T09:26:49.838Z</time></trkpt><trkpt lat="43.9751881" lon="7.9737759"><ele>188.5</ele><time>2026-04-19T09:26:50.838Z</time></trkpt><trkpt lat="43.9751539" lon="7.9739295"><ele>190.75</ele><time>2026-04-19T09:26:51.838Z</time></trkpt><trkpt lat="43.9751265" lon="7.9740829"><ele>193.0</ele><time>2026-04-19T09:26:52.839Z</time></trkpt><trkpt lat="43.9750998" lon="7.9742356"><ele>198.5</ele><time>2026-04-19T09:26:53.839Z</time></trkpt><trkpt lat="43.9750728" lon="7.9743809"><ele>204.0</ele><time>2026-04-19T09:26:54.839Z</time></trkpt><trkpt lat="43.9750555" lon="7.9745391"><ele>209.5</ele><time>2026-04-19T09:26:55.838Z</time></trkpt><trkpt lat="43.9750395" lon="7.9747004"><ele>215.0</ele><time>2026-04-19T09:26:56.837Z</time></trkpt><trkpt lat="43.9750245" lon="7.9748701"><ele>207.5</ele><time>2026-04-19T09:26:57.839Z</time></trkpt><trkpt lat="43.9750078" lon="7.975035"><ele>200.0</ele><time>2026-04-19T09:26:58.838Z</time></trkpt><trkpt lat="43.9749884" lon="7.97519"><ele>192.5</ele><time>2026-04-19T09:26:59.84Z</time></trkpt><trkpt lat="43.9749646" lon="7.9753423"><ele>185.0</ele><time>2026-04-19T09:27:00.838Z</time></trkpt><trkpt lat="43.9749335" lon="7.9754843"><ele>185.0</ele><time>2026-04-19T09:27:01.838Z</time></trkpt><trkpt lat="43.9748639" lon="7.9756144"><ele>185.0</ele><time>2026-04-19T09:27:02.837Z</time></trkpt><trkpt lat="43.9747853" lon="7.9757421"><ele>185.0</ele><time>2026-04-19T09:27:03.837Z</time></trkpt><trkpt lat="43.9746894" lon="7.9758588"><ele>185.0</ele><time>2026-04-19T09:27:04.839Z</time></trkpt><trkpt lat="43.9745786" lon="7.9759621"><ele>182.75</ele><time>2026-04-19T09:27:05.838Z</time></trkpt><trkpt lat="43.9744578" lon="7.9760418"><ele>180.5</ele><time>2026-04-19T09:27:06.837Z</time></trkpt><trkpt lat="43.9743341" lon="7.9761008"><ele>178.25</ele><time>2026-04-19T09:27:07.839Z</time></trkpt><trkpt lat="43.9742122" lon="7.9761677"><ele>176.0</ele><time>2026-04-19T09:27:08.839Z</time></trkpt><trkpt lat="43.9741019" lon="7.976264"><ele>176.0</ele><time>2026-04-19T09:27:09.839Z</time></trkpt><trkpt lat="43.9740075" lon="7.9763916"><ele>176.0</ele><time>2026-04-19T09:27:10.839Z</time></trkpt><trkpt lat="43.9739185" lon="7.9765329"><ele>176.0</ele><time>2026-04-19T09:27:11.839Z</time></trkpt><trkpt lat="43.9738375" lon="7.9766837"><ele>176.0</ele><time>2026-04-19T09:27:12.838Z</time></trkpt><trkpt lat="43.9737667" lon="7.9768493"><ele>179.75</ele><time>2026-04-19T09:27:13.837Z</time></trkpt><trkpt lat="43.9737006" lon="7.9770199"><ele>183.5</ele><time>2026-04-19T09:27:14.839Z</time></trkpt><trkpt lat="43.9736383" lon="7.9771837"><ele>187.25</ele><time>2026-04-19T09:27:15.84Z</time></trkpt><trkpt lat="43.9735668" lon="7.977334"><ele>191.0</ele><time>2026-04-19T09:27:16.838Z</time></trkpt><trkpt lat="43.973505" lon="7.9774897"><ele>196.0</ele><time>2026-04-19T09:27:17.838Z</time></trkpt><trkpt lat="43.9734606" lon="7.9776521"><ele>201.0</ele><time>2026-04-19T09:27:18.839Z</time></trkpt><trkpt lat="43.9734313" lon="7.9778207"><ele>206.0</ele><time>2026-04-19T09:27:19.838Z</time></trkpt><trkpt lat="43.9733972" lon="7.9779807"><ele>211.0</ele><time>2026-04-19T09:27:20.839Z</time></trkpt><trkpt lat="43.9733545" lon="7.9781463"><ele>203.5</ele><time>2026-04-19T09:27:21.838Z</time></trkpt><trkpt lat="43.9732995" lon="7.9783064"><ele>196.0</ele><time>2026-04-19T09:27:22.838Z</time></trkpt><trkpt lat="43.9732172" lon="7.9784475"><ele>188.5</ele><time>2026-04-19T09:27:23.839Z</time></trkpt><trkpt lat="43.9731217" lon="7.9785761"><ele>181.0</ele><time>2026-04-19T09:27:24.837Z</time></trkpt><trkpt lat="43.9730211" lon="7.9786884"><ele>181.0</ele><time>2026-04-19T09:27:25.838Z</time></trkpt><trkpt lat="43.972914" lon="7.9787847"><ele>181.0</ele><time>2026-04-19T09:27:26.838Z</time></trkpt><trkpt lat="43.9727996" lon="7.9788563"><ele>181.0</ele><time>2026-04-19T09:27:27.839Z</time></trkpt><trkpt lat="43.9726821" lon="7.9789016"><ele>181.0</ele><time>2026-04-19T09:27:28.838Z</time></trkpt><trkpt lat="43.9725688" lon="7.9789469"><ele>173.5</ele><time>2026-04-19T09:27:29.839Z</time></trkpt><trkpt lat="43.9724614" lon="7.9790051"><ele>166.0</ele><time>2026-04-19T09:27:30.839Z</time></trkpt><trkpt lat="43.9724017" lon="7.9791386"><ele>158.5</ele><time>2026-04-19T09:27:31.838Z</time></trkpt><trkpt lat="43.9723659" lon="7.9792847"><ele>151.0</ele><time>2026-04-19T09:27:32.839Z</time></trkpt><trkpt lat="43.9723471" lon="7.9794371"><ele>151.0</ele><time>2026-04-19T09:27:33.837Z</time></trkpt><trkpt lat="43.9724009" lon="7.9795546"><ele>151.0</ele><time>2026-04-19T09:27:34.839Z</time></trkpt><trkpt lat="43.9724661" lon="7.9796692"><ele>151.0</ele><time>2026-04-19T09:27:35.838Z</time></trkpt><trkpt lat="43.9725164" lon="7.9797757"><ele>151.0</ele><time>2026-04-19T09:27:36.838Z</time></trkpt><trkpt lat="43.972561" lon="7.9798898"><ele>151.0</ele><time>2026-04-19T09:27:37.838Z</time></trkpt><trkpt lat="43.9725391" lon="7.9800152"><ele>153.66666666666669</ele><time>2026-04-19T09:27:38.838Z</time></trkpt><trkpt lat="43.9724963" lon="7.9801085"><ele>156.33333333333334</ele><time>2026-04-19T09:27:39.838Z</time></trkpt><trkpt lat="43.972431" lon="7.980162"><ele>159.0</ele><time>2026-04-19T09:27:40.839Z</time></trkpt><trkpt lat="43.9723518" lon="7.9801674"><ele>161.66666666666666</ele><time>2026-04-19T09:27:41.838Z</time></trkpt><trkpt lat="43.9722715" lon="7.9801371"><ele>164.33333333333331</ele><time>2026-04-19T09:27:42.838Z</time></trkpt><trkpt lat="43.9721916" lon="7.980087"><ele>167.0</ele><time>2026-04-19T09:27:43.839Z</time></trkpt><trkpt lat="43.9720991" lon="7.9800428"><ele>163.79999999999998</ele><time>2026-04-19T09:27:44.838Z</time></trkpt><trkpt lat="43.9720075" lon="7.9799924"><ele>160.6</ele><time>2026-04-19T09:27:45.838Z</time></trkpt><trkpt lat="43.9719132" lon="7.9799606"><ele>157.39999999999998</ele><time>2026-04-19T09:27:46.837Z</time></trkpt><trkpt lat="43.9718063" lon="7.9799397"><ele>154.2</ele><time>2026-04-19T09:27:47.839Z</time></trkpt><trkpt lat="43.9716974" lon="7.9799316"><ele>151.0</ele><time>2026-04-19T09:27:48.838Z</time></trkpt><trkpt lat="43.9715783" lon="7.9799646"><ele>154.5</ele><time>2026-04-19T09:27:49.838Z</time></trkpt><trkpt lat="43.9714723" lon="7.9800175"><ele>158.0</ele><time>2026-04-19T09:27:50.837Z</time></trkpt><trkpt lat="43.9713723" lon="7.9800927"><ele>161.5</ele><time>2026-04-19T09:27:51.839Z</time></trkpt><trkpt lat="43.9712918" lon="7.9802143"><ele>165.0</ele><time>2026-04-19T09:27:52.837Z</time></trkpt><trkpt lat="43.9712126" lon="7.9803369"><ele>165.0</ele><time>2026-04-19T09:27:53.838Z</time></trkpt><trkpt lat="43.971138" lon="7.9804609"><ele>165.0</ele><time>2026-04-19T09:27:54.838Z</time></trkpt><trkpt lat="43.9710588" lon="7.9805939"><ele>165.0</ele><time>2026-04-19T09:27:55.839Z</time></trkpt><trkpt lat="43.9709806" lon="7.9807248"><ele>165.0</ele><time>2026-04-19T09:27:56.838Z</time></trkpt><trkpt lat="43.9708969" lon="7.9808601"><ele>165.25</ele><time>2026-04-19T09:27:57.838Z</time></trkpt><trkpt lat="43.9708054" lon="7.9809765"><ele>165.5</ele><time>2026-04-19T09:27:58.838Z</time></trkpt><trkpt lat="43.9707046" lon="7.98108"><ele>165.75</ele><time>2026-04-19T09:27:59.838Z</time></trkpt><trkpt lat="43.970602" lon="7.9811865"><ele>166.0</ele><time>2026-04-19T09:28:00.837Z</time></trkpt><trkpt lat="43.9704969" lon="7.9812908"><ele>166.0</ele><time>2026-04-19T09:28:01.838Z</time></trkpt><trkpt lat="43.970388" lon="7.9813893"><ele>166.0</ele><time>2026-04-19T09:28:02.838Z</time></trkpt><trkpt lat="43.9702707" lon="7.9814784"><ele>166.0</ele><time>2026-04-19T09:28:03.838Z</time></trkpt><trkpt lat="43.9701573" lon="7.9815523"><ele>166.0</ele><time>2026-04-19T09:28:04.838Z</time></trkpt><trkpt lat="43.9700434" lon="7.9816256"><ele>164.75</ele><time>2026-04-19T09:28:05.838Z</time></trkpt><trkpt lat="43.9699428" lon="7.9817051"><ele>163.5</ele><time>2026-04-19T09:28:06.839Z</time></trkpt><trkpt lat="43.9698473" lon="7.9818009"><ele>162.25</ele><time>2026-04-19T09:28:07.838Z</time></trkpt><trkpt lat="43.9697568" lon="7.9819055"><ele>161.0</ele><time>2026-04-19T09:28:08.838Z</time></trkpt><trkpt lat="43.9696737" lon="7.9820132"><ele>161.0</ele><time>2026-04-19T09:28:09.838Z</time></trkpt><trkpt lat="43.9695907" lon="7.9821247"><ele>161.0</ele><time>2026-04-19T09:28:10.838Z</time></trkpt><trkpt lat="43.9695452" lon="7.9822713"><ele>161.0</ele><time>2026-04-19T09:28:11.839Z</time></trkpt><trkpt lat="43.9695028" lon="7.9824075"><ele>161.0</ele><time>2026-04-19T09:28:12.839Z</time></trkpt><trkpt lat="43.9694641" lon="7.9825366"><ele>161.0</ele><time>2026-04-19T09:28:13.839Z</time></trkpt><trkpt lat="43.9694036" lon="7.9826371"><ele>160.8</ele><time>2026-04-19T09:28:14.838Z</time></trkpt><trkpt lat="43.9693317" lon="7.9827005"><ele>160.60000000000002</ele><time>2026-04-19T09:28:15.838Z</time></trkpt><trkpt lat="43.9692432" lon="7.9827396"><ele>160.4</ele><time>2026-04-19T09:28:16.839Z</time></trkpt><trkpt lat="43.9691405" lon="7.9827718"><ele>160.2</ele><time>2026-04-19T09:28:17.838Z</time></trkpt><trkpt lat="43.9690418" lon="7.9827962"><ele>160.0</ele><time>2026-04-19T09:28:18.838Z</time></trkpt><trkpt lat="43.9689425" lon="7.9828225"><ele>160.0</ele><time>2026-04-19T09:28:19.837Z</time></trkpt><trkpt lat="43.96885" lon="7.9828616"><ele>160.0</ele><time>2026-04-19T09:28:20.838Z</time></trkpt><trkpt lat="43.9687468" lon="7.9829038"><ele>160.0</ele><time>2026-04-19T09:28:21.838Z</time></trkpt><trkpt lat="43.9686477" lon="7.9829697"><ele>160.0</ele><time>2026-04-19T09:28:22.838Z</time></trkpt><trkpt lat="43.9685481" lon="7.9830404"><ele>160.0</ele><time>2026-04-19T09:28:23.838Z</time></trkpt><trkpt lat="43.9684486" lon="7.9831155"><ele>159.8</ele><time>2026-04-19T09:28:24.838Z</time></trkpt><trkpt lat="43.9683518" lon="7.9831891"><ele>159.6</ele><time>2026-04-19T09:28:25.838Z</time></trkpt><trkpt lat="43.9682516" lon="7.9832595"><ele>159.4</ele><time>2026-04-19T09:28:26.838Z</time></trkpt><trkpt lat="43.9681608" lon="7.9833368"><ele>159.2</ele><time>2026-04-19T09:28:27.837Z</time></trkpt><trkpt lat="43.9680666" lon="7.9834014"><ele>159.0</ele><time>2026-04-19T09:28:28.838Z</time></trkpt><trkpt lat="43.9679687" lon="7.9834634"><ele>159.0</ele><time>2026-04-19T09:28:29.839Z</time></trkpt><trkpt lat="43.9678761" lon="7.9835152"><ele>159.0</ele><time>2026-04-19T09:28:30.838Z</time></trkpt><trkpt lat="43.9677847" lon="7.9835601"><ele>159.0</ele><time>2026-04-19T09:28:31.838Z</time></trkpt><trkpt lat="43.9677007" lon="7.9836087"><ele>159.0</ele><time>2026-04-19T09:28:32.837Z</time></trkpt><trkpt lat="43.9676277" lon="7.9836721"><ele>159.0</ele><time>2026-04-19T09:28:33.839Z</time></trkpt><trkpt lat="43.967556" lon="7.9837549"><ele>157.2</ele><time>2026-04-19T09:28:34.838Z</time></trkpt><trkpt lat="43.9674937" lon="7.9838482"><ele>155.4</ele><time>2026-04-19T09:28:35.839Z</time></trkpt><trkpt lat="43.9674623" lon="7.9839738"><ele>153.6</ele><time>2026-04-19T09:28:36.838Z</time></trkpt><trkpt lat="43.9674468" lon="7.9841025"><ele>151.8</ele><time>2026-04-19T09:28:37.839Z</time></trkpt><trkpt lat="43.9674555" lon="7.9842558"><ele>150.0</ele><time>2026-04-19T09:28:38.837Z</time></trkpt><trkpt lat="43.9674588" lon="7.9844"><ele>150.0</ele><time>2026-04-19T09:28:39.838Z</time></trkpt><trkpt lat="43.9674735" lon="7.9845438"><ele>150.0</ele><time>2026-04-19T09:28:40.838Z</time></trkpt><trkpt lat="43.9674793" lon="7.9846939"><ele>150.0</ele><time>2026-04-19T09:28:41.837Z</time></trkpt><trkpt lat="43.9674501" lon="7.9848271"><ele>150.0</ele><time>2026-04-19T09:28:42.839Z</time></trkpt><trkpt lat="43.9673836" lon="7.9849339"><ele>150.0</ele><time>2026-04-19T09:28:43.838Z</time></trkpt><trkpt lat="43.9673104" lon="7.9850362"><ele>155.0</ele><time>2026-04-19T09:28:44.838Z</time></trkpt><trkpt lat="43.9672235" lon="7.985147"><ele>160.0</ele><time>2026-04-19T09:28:45.839Z</time></trkpt><trkpt lat="43.9671343" lon="7.9852645"><ele>165.0</ele><time>2026-04-19T09:28:46.838Z</time></trkpt><trkpt lat="43.9670567" lon="7.9853942"><ele>170.0</ele><time>2026-04-19T09:28:47.838Z</time></trkpt><trkpt lat="43.9669697" lon="7.9855207"><ele>170.0</ele><time>2026-04-19T09:28:48.838Z</time></trkpt><trkpt lat="43.966886" lon="7.9856544"><ele>170.0</ele><time>2026-04-19T09:28:49.838Z</time></trkpt><trkpt lat="43.9667954" lon="7.9857813"><ele>170.0</ele><time>2026-04-19T09:28:50.84Z</time></trkpt><trkpt lat="43.9667032" lon="7.9859059"><ele>170.0</ele><time>2026-04-19T09:28:51.838Z</time></trkpt><trkpt lat="43.9666081" lon="7.986043"><ele>168.5</ele><time>2026-04-19T09:28:52.839Z</time></trkpt><trkpt lat="43.9665133" lon="7.986177"><ele>167.0</ele><time>2026-04-19T09:28:53.838Z</time></trkpt><trkpt lat="43.9664096" lon="7.9862714"><ele>165.5</ele><time>2026-04-19T09:28:54.838Z</time></trkpt><trkpt lat="43.9662866" lon="7.9863412"><ele>164.0</ele><time>2026-04-19T09:28:55.838Z</time></trkpt><trkpt lat="43.9661636" lon="7.9864114"><ele>164.0</ele><time>2026-04-19T09:28:56.839Z</time></trkpt><trkpt lat="43.9660382" lon="7.9864871"><ele>164.0</ele><time>2026-04-19T09:28:57.839Z</time></trkpt><trkpt lat="43.9659048" lon="7.9865599"><ele>164.0</ele><time>2026-04-19T09:28:58.837Z</time></trkpt><trkpt lat="43.9657828" lon="7.9866405"><ele>164.0</ele><time>2026-04-19T09:28:59.837Z</time></trkpt><trkpt lat="43.9656594" lon="7.9867197"><ele>163.5</ele><time>2026-04-19T09:29:00.839Z</time></trkpt><trkpt lat="43.9655416" lon="7.9868092"><ele>163.0</ele><time>2026-04-19T09:29:01.838Z</time></trkpt><trkpt lat="43.9654272" lon="7.9869111"><ele>162.5</ele><time>2026-04-19T09:29:02.839Z</time></trkpt><trkpt lat="43.9653187" lon="7.9870301"><ele>162.0</ele><time>2026-04-19T09:29:03.839Z</time></trkpt><trkpt lat="43.9652134" lon="7.9871547"><ele>162.0</ele><time>2026-04-19T09:29:04.838Z</time></trkpt><trkpt lat="43.9651012" lon="7.9872842"><ele>162.0</ele><time>2026-04-19T09:29:05.838Z</time></trkpt><trkpt lat="43.9649874" lon="7.9874134"><ele>162.0</ele><time>2026-04-19T09:29:06.838Z</time></trkpt><trkpt lat="43.9648727" lon="7.9875398"><ele>162.0</ele><time>2026-04-19T09:29:07.839Z</time></trkpt><trkpt lat="43.9647533" lon="7.9876636"><ele>161.25</ele><time>2026-04-19T09:29:08.838Z</time></trkpt><trkpt lat="43.9646331" lon="7.9877821"><ele>160.5</ele><time>2026-04-19T09:29:09.84Z</time></trkpt><trkpt lat="43.9645191" lon="7.9878966"><ele>159.75</ele><time>2026-04-19T09:29:10.838Z</time></trkpt><trkpt lat="43.9644101" lon="7.9880118"><ele>159.0</ele><time>2026-04-19T09:29:11.838Z</time></trkpt><trkpt lat="43.9642926" lon="7.9881206"><ele>157.5</ele><time>2026-04-19T09:29:12.837Z</time></trkpt><trkpt lat="43.964167" lon="7.9882224"><ele>156.0</ele><time>2026-04-19T09:29:13.838Z</time></trkpt><trkpt lat="43.9640441" lon="7.9883206"><ele>154.5</ele><time>2026-04-19T09:29:14.839Z</time></trkpt><trkpt lat="43.9639198" lon="7.9884204"><ele>153.0</ele><time>2026-04-19T09:29:15.838Z</time></trkpt><trkpt lat="43.9638116" lon="7.9885406"><ele>153.0</ele><time>2026-04-19T09:29:16.838Z</time></trkpt><trkpt lat="43.9637195" lon="7.9886863"><ele>153.0</ele><time>2026-04-19T09:29:17.838Z</time></trkpt><trkpt lat="43.9636292" lon="7.9888382"><ele>153.0</ele><time>2026-04-19T09:29:18.838Z</time></trkpt><trkpt lat="43.9635404" lon="7.9889885"><ele>153.0</ele><time>2026-04-19T09:29:19.838Z</time></trkpt><trkpt lat="43.9634515" lon="7.9891388"><ele>148.5</ele><time>2026-04-19T09:29:20.838Z</time></trkpt><trkpt lat="43.9633603" lon="7.9892885"><ele>144.0</ele><time>2026-04-19T09:29:21.837Z</time></trkpt><trkpt lat="43.9632727" lon="7.989428"><ele>139.5</ele><time>2026-04-19T09:29:22.838Z</time></trkpt><trkpt lat="43.9631948" lon="7.9895829"><ele>135.0</ele><time>2026-04-19T09:29:23.838Z</time></trkpt><trkpt lat="43.9631313" lon="7.9897366"><ele>135.0</ele><time>2026-04-19T09:29:24.838Z</time></trkpt><trkpt lat="43.9630754" lon="7.9898938"><ele>135.0</ele><time>2026-04-19T09:29:25.838Z</time></trkpt><trkpt lat="43.9630331" lon="7.9900508"><ele>135.0</ele><time>2026-04-19T09:29:26.838Z</time></trkpt><trkpt lat="43.9630088" lon="7.9902006"><ele>135.0</ele><time>2026-04-19T09:29:27.84Z</time></trkpt><trkpt lat="43.9629772" lon="7.9903352"><ele>135.2</ele><time>2026-04-19T09:29:28.838Z</time></trkpt><trkpt lat="43.9629268" lon="7.9904462"><ele>135.4</ele><time>2026-04-19T09:29:29.838Z</time></trkpt><trkpt lat="43.9628333" lon="7.9905099"><ele>135.6</ele><time>2026-04-19T09:29:30.838Z</time></trkpt><trkpt lat="43.9627336" lon="7.9905756"><ele>135.8</ele><time>2026-04-19T09:29:31.838Z</time></trkpt><trkpt lat="43.962639" lon="7.9906467"><ele>136.0</ele><time>2026-04-19T09:29:32.838Z</time></trkpt><trkpt lat="43.9625421" lon="7.9907292"><ele>132.75</ele><time>2026-04-19T09:29:33.838Z</time></trkpt><trkpt lat="43.96244" lon="7.9908058"><ele>129.5</ele><time>2026-04-19T09:29:34.837Z</time></trkpt><trkpt lat="43.9623295" lon="7.9908302"><ele>126.25</ele><time>2026-04-19T09:29:35.838Z</time></trkpt><trkpt lat="43.9622084" lon="7.9908487"><ele>123.0</ele><time>2026-04-19T09:29:36.838Z</time></trkpt><trkpt lat="43.9620826" lon="7.990875"><ele>128.25</ele><time>2026-04-19T09:29:37.838Z</time></trkpt><trkpt lat="43.9619645" lon="7.9909232"><ele>133.5</ele><time>2026-04-19T09:29:38.838Z</time></trkpt><trkpt lat="43.9618338" lon="7.9909231"><ele>138.75</ele><time>2026-04-19T09:29:39.838Z</time></trkpt><trkpt lat="43.9617057" lon="7.9909261"><ele>144.0</ele><time>2026-04-19T09:29:40.837Z</time></trkpt><trkpt lat="43.9615792" lon="7.9909343"><ele>144.0</ele><time>2026-04-19T09:29:41.838Z</time></trkpt><trkpt lat="43.961446" lon="7.9909632"><ele>144.0</ele><time>2026-04-19T09:29:42.839Z</time></trkpt><trkpt lat="43.9613134" lon="7.9909986"><ele>144.0</ele><time>2026-04-19T09:29:43.839Z</time></trkpt><trkpt lat="43.9611852" lon="7.9910481"><ele>144.0</ele><time>2026-04-19T09:29:44.838Z</time></trkpt><trkpt lat="43.9610622" lon="7.9911046"><ele>144.0</ele><time>2026-04-19T09:29:45.838Z</time></trkpt><trkpt lat="43.9609429" lon="7.9911678"><ele>144.0</ele><time>2026-04-19T09:29:46.838Z</time></trkpt><trkpt lat="43.9608199" lon="7.9912347"><ele>144.0</ele><time>2026-04-19T09:29:47.838Z</time></trkpt><trkpt lat="43.9606967" lon="7.9913126"><ele>144.0</ele><time>2026-04-19T09:29:48.838Z</time></trkpt><trkpt lat="43.9605762" lon="7.9913936"><ele>143.5</ele><time>2026-04-19T09:29:49.838Z</time></trkpt><trkpt lat="43.9604572" lon="7.9914877"><ele>143.0</ele><time>2026-04-19T09:29:50.838Z</time></trkpt><trkpt lat="43.960346" lon="7.9915971"><ele>142.5</ele><time>2026-04-19T09:29:51.838Z</time></trkpt><trkpt lat="43.9602344" lon="7.9917099"><ele>142.0</ele><time>2026-04-19T09:29:52.838Z</time></trkpt><trkpt lat="43.9601242" lon="7.9918247"><ele>136.5</ele><time>2026-04-19T09:29:53.838Z</time></trkpt><trkpt lat="43.960015" lon="7.9919379"><ele>131.0</ele><time>2026-04-19T09:29:54.838Z</time></trkpt><trkpt lat="43.9599063" lon="7.9920539"><ele>125.5</ele><time>2026-04-19T09:29:55.838Z</time></trkpt><trkpt lat="43.9597895" lon="7.9921602"><ele>120.0</ele><time>2026-04-19T09:29:56.838Z</time></trkpt><trkpt lat="43.9596839" lon="7.9922764"><ele>120.0</ele><time>2026-04-19T09:29:57.838Z</time></trkpt><trkpt lat="43.9595795" lon="7.9923965"><ele>120.0</ele><time>2026-04-19T09:29:58.838Z</time></trkpt><trkpt lat="43.9594714" lon="7.9925071"><ele>120.0</ele><time>2026-04-19T09:29:59.838Z</time></trkpt><trkpt lat="43.9593702" lon="7.9926184"><ele>120.0</ele><time>2026-04-19T09:30:00.838Z</time></trkpt><trkpt lat="43.9592632" lon="7.9927361"><ele>121.25</ele><time>2026-04-19T09:30:01.838Z</time></trkpt><trkpt lat="43.9591573" lon="7.9928508"><ele>122.5</ele><time>2026-04-19T09:30:02.838Z</time></trkpt><trkpt lat="43.9590502" lon="7.9929676"><ele>123.75</ele><time>2026-04-19T09:30:03.839Z</time></trkpt><trkpt lat="43.9589435" lon="7.9930824"><ele>125.0</ele><time>2026-04-19T09:30:04.838Z</time></trkpt><trkpt lat="43.9588347" lon="7.9931985"><ele>125.0</ele><time>2026-04-19T09:30:05.84Z</time></trkpt><trkpt lat="43.9587277" lon="7.9933146"><ele>125.0</ele><time>2026-04-19T09:30:06.838Z</time></trkpt><trkpt lat="43.958621" lon="7.9934362"><ele>125.0</ele><time>2026-04-19T09:30:07.838Z</time></trkpt><trkpt lat="43.9585175" lon="7.9935617"><ele>125.0</ele><time>2026-04-19T09:30:08.838Z</time></trkpt><trkpt lat="43.958415" lon="7.9936876"><ele>124.0</ele><time>2026-04-19T09:30:09.839Z</time></trkpt><trkpt lat="43.9583181" lon="7.9938142"><ele>123.0</ele><time>2026-04-19T09:30:10.839Z</time></trkpt><trkpt lat="43.9582279" lon="7.9939526"><ele>122.0</ele><time>2026-04-19T09:30:11.838Z</time></trkpt><trkpt lat="43.9581539" lon="7.9941037"><ele>121.0</ele><time>2026-04-19T09:30:12.838Z</time></trkpt><trkpt lat="43.9580933" lon="7.9942598"><ele>121.0</ele><time>2026-04-19T09:30:13.838Z</time></trkpt><trkpt lat="43.9580268" lon="7.9944128"><ele>121.0</ele><time>2026-04-19T09:30:14.838Z</time></trkpt><trkpt lat="43.9579812" lon="7.9945813"><ele>121.0</ele><time>2026-04-19T09:30:15.838Z</time></trkpt><trkpt lat="43.957933" lon="7.9947435"><ele>121.0</ele><time>2026-04-19T09:30:16.838Z</time></trkpt><trkpt lat="43.957891" lon="7.9949046"><ele>123.0</ele><time>2026-04-19T09:30:17.838Z</time></trkpt><trkpt lat="43.9578423" lon="7.9950792"><ele>125.0</ele><time>2026-04-19T09:30:18.839Z</time></trkpt><trkpt lat="43.9577993" lon="7.99525"><ele>127.0</ele><time>2026-04-19T09:30:19.838Z</time></trkpt><trkpt lat="43.9577614" lon="7.9954261"><ele>129.0</ele><time>2026-04-19T09:30:20.838Z</time></trkpt><trkpt lat="43.95772" lon="7.9955911"><ele>129.0</ele><time>2026-04-19T09:30:21.838Z</time></trkpt><trkpt lat="43.9576762" lon="7.9957636"><ele>129.0</ele><time>2026-04-19T09:30:22.838Z</time></trkpt><trkpt lat="43.9576306" lon="7.9959421"><ele>129.0</ele><time>2026-04-19T09:30:23.838Z</time></trkpt><trkpt lat="43.9575895" lon="7.996117"><ele>129.0</ele><time>2026-04-19T09:30:24.838Z</time></trkpt><trkpt lat="43.9575548" lon="7.996289"><ele>127.75</ele><time>2026-04-19T09:30:25.838Z</time></trkpt><trkpt lat="43.9575111" lon="7.9964578"><ele>126.5</ele><time>2026-04-19T09:30:26.838Z</time></trkpt><trkpt lat="43.9574744" lon="7.9966302"><ele>125.25</ele><time>2026-04-19T09:30:27.838Z</time></trkpt><trkpt lat="43.957415" lon="7.9967872"><ele>124.0</ele><time>2026-04-19T09:30:28.839Z</time></trkpt><trkpt lat="43.9573538" lon="7.9969407"><ele>124.0</ele><time>2026-04-19T09:30:29.838Z</time></trkpt><trkpt lat="43.9572866" lon="7.9970856"><ele>124.0</ele><time>2026-04-19T09:30:30.838Z</time></trkpt><trkpt lat="43.9572148" lon="7.9972308"><ele>124.0</ele><time>2026-04-19T09:30:31.838Z</time></trkpt><trkpt lat="43.9571423" lon="7.9973716"><ele>124.0</ele><time>2026-04-19T09:30:32.838Z</time></trkpt><trkpt lat="43.957053" lon="7.997484"><ele>130.0</ele><time>2026-04-19T09:30:33.837Z</time></trkpt><trkpt lat="43.9569585" lon="7.9975893"><ele>136.0</ele><time>2026-04-19T09:30:34.838Z</time></trkpt><trkpt lat="43.9568542" lon="7.9976756"><ele>142.0</ele><time>2026-04-19T09:30:35.839Z</time></trkpt><trkpt lat="43.9567254" lon="7.9977002"><ele>148.0</ele><time>2026-04-19T09:30:36.838Z</time></trkpt><trkpt lat="43.956603" lon="7.9977207"><ele>148.0</ele><time>2026-04-19T09:30:37.839Z</time></trkpt><trkpt lat="43.9564869" lon="7.9977007"><ele>148.0</ele><time>2026-04-19T09:30:38.838Z</time></trkpt><trkpt lat="43.9563785" lon="7.9976546"><ele>148.0</ele><time>2026-04-19T09:30:39.838Z</time></trkpt><trkpt lat="43.9562763" lon="7.99758"><ele>148.0</ele><time>2026-04-19T09:30:40.838Z</time></trkpt><trkpt lat="43.9561836" lon="7.9975289"><ele>148.0</ele><time>2026-04-19T09:30:41.838Z</time></trkpt><trkpt lat="43.9560842" lon="7.997501"><ele>148.0</ele><time>2026-04-19T09:30:42.838Z</time></trkpt><trkpt lat="43.9559851" lon="7.9975197"><ele>148.0</ele><time>2026-04-19T09:30:43.837Z</time></trkpt><trkpt lat="43.9558877" lon="7.9975738"><ele>148.0</ele><time>2026-04-19T09:30:44.838Z</time></trkpt><trkpt lat="43.955798" lon="7.9976524"><ele>148.0</ele><time>2026-04-19T09:30:45.839Z</time></trkpt><trkpt lat="43.9557203" lon="7.9977553"><ele>148.0</ele><time>2026-04-19T09:30:46.837Z</time></trkpt><trkpt lat="43.9556296" lon="7.9978664"><ele>146.0</ele><time>2026-04-19T09:30:47.837Z</time></trkpt><trkpt lat="43.9555592" lon="7.9979786"><ele>144.0</ele><time>2026-04-19T09:30:48.838Z</time></trkpt><trkpt lat="43.9554821" lon="7.9980875"><ele>142.0</ele><time>2026-04-19T09:30:49.838Z</time></trkpt><trkpt lat="43.9554075" lon="7.9982081"><ele>140.0</ele><time>2026-04-19T09:30:50.838Z</time></trkpt><trkpt lat="43.9553428" lon="7.9983377"><ele>138.0</ele><time>2026-04-19T09:30:51.838Z</time></trkpt><trkpt lat="43.9552765" lon="7.9984794"><ele>138.0</ele><time>2026-04-19T09:30:52.838Z</time></trkpt><trkpt lat="43.9552103" lon="7.9986165"><ele>138.0</ele><time>2026-04-19T09:30:53.838Z</time></trkpt><trkpt lat="43.9551447" lon="7.9987546"><ele>138.0</ele><time>2026-04-19T09:30:54.838Z</time></trkpt><trkpt lat="43.9550784" lon="7.9988974"><ele>138.0</ele><time>2026-04-19T09:30:55.839Z</time></trkpt><trkpt lat="43.9550095" lon="7.9990388"><ele>134.0</ele><time>2026-04-19T09:30:56.838Z</time></trkpt><trkpt lat="43.9549431" lon="7.9991881"><ele>130.0</ele><time>2026-04-19T09:30:57.838Z</time></trkpt><trkpt lat="43.9548682" lon="7.9993273"><ele>126.0</ele><time>2026-04-19T09:30:58.838Z</time></trkpt><trkpt lat="43.9547817" lon="7.9994486"><ele>122.0</ele><time>2026-04-19T09:30:59.838Z</time></trkpt><trkpt lat="43.954681" lon="7.9995432"><ele>122.0</ele><time>2026-04-19T09:31:00.838Z</time></trkpt><trkpt lat="43.9545741" lon="7.9996036"><ele>122.0</ele><time>2026-04-19T09:31:01.838Z</time></trkpt><trkpt lat="43.9544513" lon="7.9996385"><ele>122.0</ele><time>2026-04-19T09:31:02.838Z</time></trkpt><trkpt lat="43.9543311" lon="7.999644"><ele>122.0</ele><time>2026-04-19T09:31:03.838Z</time></trkpt><trkpt lat="43.9542111" lon="7.9996267"><ele>119.0</ele><time>2026-04-19T09:31:04.838Z</time></trkpt><trkpt lat="43.9540937" lon="7.9996017"><ele>116.0</ele><time>2026-04-19T09:31:05.838Z</time></trkpt><trkpt lat="43.9539745" lon="7.9995841"><ele>113.0</ele><time>2026-04-19T09:31:06.838Z</time></trkpt><trkpt lat="43.953859" lon="7.999543"><ele>110.0</ele><time>2026-04-19T09:31:07.839Z</time></trkpt><trkpt lat="43.9537492" lon="7.999473"><ele>110.0</ele><time>2026-04-19T09:31:08.838Z</time></trkpt><trkpt lat="43.9536487" lon="7.9993914"><ele>110.0</ele><time>2026-04-19T09:31:09.838Z</time></trkpt><trkpt lat="43.9535467" lon="7.9993144"><ele>110.0</ele><time>2026-04-19T09:31:10.838Z</time></trkpt><trkpt lat="43.9534291" lon="7.999287"><ele>110.0</ele><time>2026-04-19T09:31:11.838Z</time></trkpt><trkpt lat="43.9533148" lon="7.999291"><ele>110.0</ele><time>2026-04-19T09:31:12.838Z</time></trkpt><trkpt lat="43.9531937" lon="7.9993019"><ele>110.0</ele><time>2026-04-19T09:31:13.838Z</time></trkpt><trkpt lat="43.9530709" lon="7.9993155"><ele>110.0</ele><time>2026-04-19T09:31:14.838Z</time></trkpt><trkpt lat="43.9529462" lon="7.9993186"><ele>110.0</ele><time>2026-04-19T09:31:15.838Z</time></trkpt><trkpt lat="43.9528225" lon="7.999321"><ele>110.0</ele><time>2026-04-19T09:31:16.838Z</time></trkpt><trkpt lat="43.952701" lon="7.9993236"><ele>110.0</ele><time>2026-04-19T09:31:17.838Z</time></trkpt><trkpt lat="43.9525828" lon="7.9993372"><ele>110.0</ele><time>2026-04-19T09:31:18.838Z</time></trkpt><trkpt lat="43.9524985" lon="7.9994349"><ele>110.0</ele><time>2026-04-19T09:31:19.838Z</time></trkpt><trkpt lat="43.9524264" lon="7.9995356"><ele>108.6</ele><time>2026-04-19T09:31:20.838Z</time></trkpt><trkpt lat="43.9523779" lon="7.9996625"><ele>107.2</ele><time>2026-04-19T09:31:21.838Z</time></trkpt><trkpt lat="43.9523477" lon="7.9998002"><ele>105.80000000000001</ele><time>2026-04-19T09:31:22.837Z</time></trkpt><trkpt lat="43.9523209" lon="7.9999431"><ele>104.4</ele><time>2026-04-19T09:31:23.838Z</time></trkpt><trkpt lat="43.9522587" lon="8.0000784"><ele>103.0</ele><time>2026-04-19T09:31:24.838Z</time></trkpt><trkpt lat="43.9522032" lon="8.0002065"><ele>103.0</ele><time>2026-04-19T09:31:25.838Z</time></trkpt><trkpt lat="43.952148" lon="8.0003455"><ele>103.0</ele><time>2026-04-19T09:31:26.838Z</time></trkpt><trkpt lat="43.9520879" lon="8.0004811"><ele>103.0</ele><time>2026-04-19T09:31:27.837Z</time></trkpt><trkpt lat="43.9520267" lon="8.0006222"><ele>103.0</ele><time>2026-04-19T09:31:28.837Z</time></trkpt><trkpt lat="43.9519612" lon="8.0007719"><ele>101.0</ele><time>2026-04-19T09:31:29.838Z</time></trkpt><trkpt lat="43.9519027" lon="8.0009197"><ele>99.0</ele><time>2026-04-19T09:31:30.838Z</time></trkpt><trkpt lat="43.9518378" lon="8.0010651"><ele>97.0</ele><time>2026-04-19T09:31:31.837Z</time></trkpt><trkpt lat="43.951766" lon="8.0012158"><ele>95.0</ele><time>2026-04-19T09:31:32.839Z</time></trkpt><trkpt lat="43.9516918" lon="8.0013737"><ele>95.0</ele><time>2026-04-19T09:31:33.838Z</time></trkpt><trkpt lat="43.9516181" lon="8.0015347"><ele>95.0</ele><time>2026-04-19T09:31:34.839Z</time></trkpt><trkpt lat="43.9515431" lon="8.0016964"><ele>95.0</ele><time>2026-04-19T09:31:35.838Z</time></trkpt><trkpt lat="43.9514687" lon="8.0018658"><ele>95.0</ele><time>2026-04-19T09:31:36.837Z</time></trkpt><trkpt lat="43.9513906" lon="8.0020317"><ele>95.5</ele><time>2026-04-19T09:31:37.839Z</time></trkpt><trkpt lat="43.9513263" lon="8.0022048"><ele>96.0</ele><time>2026-04-19T09:31:38.838Z</time></trkpt><trkpt lat="43.9512459" lon="8.0023521"><ele>96.5</ele><time>2026-04-19T09:31:39.838Z</time></trkpt><trkpt lat="43.9511687" lon="8.0025114"><ele>97.0</ele><time>2026-04-19T09:31:40.839Z</time></trkpt><trkpt lat="43.9510939" lon="8.0026442"><ele>97.8</ele><time>2026-04-19T09:31:41.838Z</time></trkpt><trkpt lat="43.9510168" lon="8.0027334"><ele>98.6</ele><time>2026-04-19T09:31:42.837Z</time></trkpt><trkpt lat="43.9509199" lon="8.0027762"><ele>99.39999999999999</ele><time>2026-04-19T09:31:43.838Z</time></trkpt><trkpt lat="43.9508178" lon="8.002766"><ele>100.19999999999999</ele><time>2026-04-19T09:31:44.838Z</time></trkpt><trkpt lat="43.9507175" lon="8.0027536"><ele>101.0</ele><time>2026-04-19T09:31:45.838Z</time></trkpt><trkpt lat="43.9505982" lon="8.002758"><ele>98.5</ele><time>2026-04-19T09:31:46.838Z</time></trkpt><trkpt lat="43.9504807" lon="8.0027521"><ele>96.0</ele><time>2026-04-19T09:31:47.838Z</time></trkpt><trkpt lat="43.9503536" lon="8.0027412"><ele>93.5</ele><time>2026-04-19T09:31:48.838Z</time></trkpt><trkpt lat="43.9502173" lon="8.0027235"><ele>91.0</ele><time>2026-04-19T09:31:49.838Z</time></trkpt><trkpt lat="43.9500737" lon="8.0027253"><ele>90.5</ele><time>2026-04-19T09:31:50.837Z</time></trkpt><trkpt lat="43.9499318" lon="8.0027181"><ele>90.0</ele><time>2026-04-19T09:31:51.838Z</time></trkpt><trkpt lat="43.9497926" lon="8.0027141"><ele>89.5</ele><time>2026-04-19T09:31:52.838Z</time></trkpt><trkpt lat="43.9496504" lon="8.0027099"><ele>89.0</ele><time>2026-04-19T09:31:53.838Z</time></trkpt><trkpt lat="43.9495066" lon="8.0027006"><ele>89.0</ele><time>2026-04-19T09:31:54.838Z</time></trkpt><trkpt lat="43.9493583" lon="8.0026776"><ele>89.0</ele><time>2026-04-19T09:31:55.838Z</time></trkpt><trkpt lat="43.9492088" lon="8.0026506"><ele>89.0</ele><time>2026-04-19T09:31:56.837Z</time></trkpt><trkpt lat="43.9490562" lon="8.0026251"><ele>89.66666666666667</ele><time>2026-04-19T09:31:57.838Z</time></trkpt><trkpt lat="43.9489069" lon="8.0025915"><ele>90.33333333333333</ele><time>2026-04-19T09:31:58.838Z</time></trkpt><trkpt lat="43.9487536" lon="8.0025433"><ele>91.0</ele><time>2026-04-19T09:31:59.838Z</time></trkpt><trkpt lat="43.9485954" lon="8.0025125"><ele>91.0</ele><time>2026-04-19T09:32:00.837Z</time></trkpt><trkpt lat="43.9484387" lon="8.0025002"><ele>91.0</ele><time>2026-04-19T09:32:01.838Z</time></trkpt><trkpt lat="43.9482821" lon="8.0024671"><ele>91.0</ele><time>2026-04-19T09:32:02.839Z</time></trkpt><trkpt lat="43.9481342" lon="8.0024438"><ele>89.75</ele><time>2026-04-19T09:32:03.838Z</time></trkpt><trkpt lat="43.9479978" lon="8.0024232"><ele>88.5</ele><time>2026-04-19T09:32:04.838Z</time></trkpt><trkpt lat="43.9478606" lon="8.0023877"><ele>87.25</ele><time>2026-04-19T09:32:05.838Z</time></trkpt><trkpt lat="43.9477312" lon="8.0023577"><ele>86.0</ele><time>2026-04-19T09:32:06.839Z</time></trkpt><trkpt lat="43.9476137" lon="8.002333"><ele>85.16666666666667</ele><time>2026-04-19T09:32:07.837Z</time></trkpt><trkpt lat="43.9475118" lon="8.0023022"><ele>84.33333333333334</ele><time>2026-04-19T09:32:08.838Z</time></trkpt><trkpt lat="43.9474269" lon="8.0022913"><ele>83.5</ele><time>2026-04-19T09:32:09.838Z</time></trkpt><trkpt lat="43.9473467" lon="8.0022981"><ele>82.66666666666667</ele><time>2026-04-19T09:32:10.837Z</time></trkpt><trkpt lat="43.9472708" lon="8.0023054"><ele>81.83333333333333</ele><time>2026-04-19T09:32:11.838Z</time></trkpt><trkpt lat="43.9471905" lon="8.0023254"><ele>81.0</ele><time>2026-04-19T09:32:12.838Z</time></trkpt><trkpt lat="43.9471028" lon="8.0023568"><ele>81.0</ele><time>2026-04-19T09:32:13.838Z</time></trkpt><trkpt lat="43.9470058" lon="8.0023848"><ele>81.0</ele><time>2026-04-19T09:32:14.838Z</time></trkpt><trkpt lat="43.946901" lon="8.0024199"><ele>81.0</ele><time>2026-04-19T09:32:15.838Z</time></trkpt><trkpt lat="43.9467923" lon="8.0024618"><ele>81.0</ele><time>2026-04-19T09:32:16.837Z</time></trkpt><trkpt lat="43.9466798" lon="8.0025098"><ele>81.0</ele><time>2026-04-19T09:32:17.838Z</time></trkpt><trkpt lat="43.9465622" lon="8.0025623"><ele>82.25</ele><time>2026-04-19T09:32:18.838Z</time></trkpt><trkpt lat="43.9464485" lon="8.0026264"><ele>83.5</ele><time>2026-04-19T09:32:19.838Z</time></trkpt><trkpt lat="43.9463517" lon="8.0027184"><ele>84.75</ele><time>2026-04-19T09:32:20.838Z</time></trkpt><trkpt lat="43.9462679" lon="8.0028366"><ele>86.0</ele><time>2026-04-19T09:32:21.838Z</time></trkpt><trkpt lat="43.9461859" lon="8.0029588"><ele>86.0</ele><time>2026-04-19T09:32:22.838Z</time></trkpt><trkpt lat="43.9461001" lon="8.0030781"><ele>86.0</ele><time>2026-04-19T09:32:23.839Z</time></trkpt><trkpt lat="43.9460135" lon="8.0032017"><ele>86.0</ele><time>2026-04-19T09:32:24.838Z</time></trkpt><trkpt lat="43.9459164" lon="8.0033168"><ele>86.0</ele><time>2026-04-19T09:32:25.838Z</time></trkpt><trkpt lat="43.9458151" lon="8.0034306"><ele>87.0</ele><time>2026-04-19T09:32:26.838Z</time></trkpt><trkpt lat="43.9457095" lon="8.0035421"><ele>88.0</ele><time>2026-04-19T09:32:27.838Z</time></trkpt><trkpt lat="43.9456" lon="8.0036522"><ele>89.0</ele><time>2026-04-19T09:32:28.839Z</time></trkpt><trkpt lat="43.9454822" lon="8.0037567"><ele>90.0</ele><time>2026-04-19T09:32:29.837Z</time></trkpt><trkpt lat="43.9453622" lon="8.0038596"><ele>90.0</ele><time>2026-04-19T09:32:30.837Z</time></trkpt><trkpt lat="43.9452398" lon="8.0039656"><ele>90.0</ele><time>2026-04-19T09:32:31.838Z</time></trkpt><trkpt lat="43.9451179" lon="8.0040737"><ele>90.0</ele><time>2026-04-19T09:32:32.838Z</time></trkpt><trkpt lat="43.9449923" lon="8.0041756"><ele>90.0</ele><time>2026-04-19T09:32:33.838Z</time></trkpt><trkpt lat="43.9448614" lon="8.0042674"><ele>90.75</ele><time>2026-04-19T09:32:34.838Z</time></trkpt><trkpt lat="43.9447199" lon="8.004348"><ele>91.5</ele><time>2026-04-19T09:32:35.838Z</time></trkpt><trkpt lat="43.9445762" lon="8.0044016"><ele>92.25</ele><time>2026-04-19T09:32:36.838Z</time></trkpt><trkpt lat="43.9444342" lon="8.0044448"><ele>93.0</ele><time>2026-04-19T09:32:37.839Z</time></trkpt><trkpt lat="43.9443019" lon="8.0044511"><ele>89.75</ele><time>2026-04-19T09:32:38.838Z</time></trkpt><trkpt lat="43.9441714" lon="8.0044144"><ele>86.5</ele><time>2026-04-19T09:32:39.838Z</time></trkpt><trkpt lat="43.9440376" lon="8.0043843"><ele>83.25</ele><time>2026-04-19T09:32:40.838Z</time></trkpt><trkpt lat="43.9439107" lon="8.0043829"><ele>80.0</ele><time>2026-04-19T09:32:41.838Z</time></trkpt><trkpt lat="43.943791" lon="8.0044327"><ele>80.0</ele><time>2026-04-19T09:32:42.838Z</time></trkpt><trkpt lat="43.9436854" lon="8.0045252"><ele>80.0</ele><time>2026-04-19T09:32:43.838Z</time></trkpt><trkpt lat="43.9435853" lon="8.0046197"><ele>80.0</ele><time>2026-04-19T09:32:44.838Z</time></trkpt><trkpt lat="43.9434947" lon="8.0047537"><ele>80.0</ele><time>2026-04-19T09:32:45.838Z</time></trkpt><trkpt lat="43.9434051" lon="8.0048905"><ele>82.0</ele><time>2026-04-19T09:32:46.838Z</time></trkpt><trkpt lat="43.9433156" lon="8.0050293"><ele>84.0</ele><time>2026-04-19T09:32:47.837Z</time></trkpt><trkpt lat="43.9432275" lon="8.0051779"><ele>86.0</ele><time>2026-04-19T09:32:48.838Z</time></trkpt><trkpt lat="43.9431422" lon="8.005326"><ele>88.0</ele><time>2026-04-19T09:32:49.838Z</time></trkpt><trkpt lat="43.9430561" lon="8.0054612"><ele>88.0</ele><time>2026-04-19T09:32:50.838Z</time></trkpt><trkpt lat="43.9429767" lon="8.005613"><ele>88.0</ele><time>2026-04-19T09:32:51.838Z</time></trkpt><trkpt lat="43.9428989" lon="8.0057675"><ele>88.0</ele><time>2026-04-19T09:32:52.838Z</time></trkpt><trkpt lat="43.9428188" lon="8.005923"><ele>88.0</ele><time>2026-04-19T09:32:53.837Z</time></trkpt><trkpt lat="43.9427318" lon="8.0060796"><ele>86.25</ele><time>2026-04-19T09:32:54.837Z</time></trkpt><trkpt lat="43.9426444" lon="8.0062319"><ele>84.5</ele><time>2026-04-19T09:32:55.837Z</time></trkpt><trkpt lat="43.9425614" lon="8.0063915"><ele>82.75</ele><time>2026-04-19T09:32:56.838Z</time></trkpt><trkpt lat="43.9424878" lon="8.0065621"><ele>81.0</ele><time>2026-04-19T09:32:57.837Z</time></trkpt><trkpt lat="43.9424262" lon="8.0067483"><ele>81.0</ele><time>2026-04-19T09:32:58.838Z</time></trkpt><trkpt lat="43.9423816" lon="8.006949"><ele>81.0</ele><time>2026-04-19T09:32:59.836Z</time></trkpt><trkpt lat="43.9423379" lon="8.0071532"><ele>81.0</ele><time>2026-04-19T09:33:00.838Z</time></trkpt><trkpt lat="43.9422849" lon="8.0073609"><ele>87.33333333333334</ele><time>2026-04-19T09:33:01.839Z</time></trkpt><trkpt lat="43.942225" lon="8.0075682"><ele>93.66666666666667</ele><time>2026-04-19T09:33:02.838Z</time></trkpt><trkpt lat="43.942157" lon="8.0077788"><ele>100.0</ele><time>2026-04-19T09:33:03.838Z</time></trkpt><trkpt lat="43.9420838" lon="8.0079901"><ele>100.0</ele><time>2026-04-19T09:33:04.838Z</time></trkpt><trkpt lat="43.9420183" lon="8.0082032"><ele>100.0</ele><time>2026-04-19T09:33:05.837Z</time></trkpt><trkpt lat="43.9419369" lon="8.0084222"><ele>100.0</ele><time>2026-04-19T09:33:06.838Z</time></trkpt><trkpt lat="43.9418453" lon="8.0086331"><ele>96.33333333333334</ele><time>2026-04-19T09:33:07.838Z</time></trkpt><trkpt lat="43.9417498" lon="8.0088344"><ele>92.66666666666667</ele><time>2026-04-19T09:33:08.837Z</time></trkpt><trkpt lat="43.9416512" lon="8.0090222"><ele>89.0</ele><time>2026-04-19T09:33:09.837Z</time></trkpt><trkpt lat="43.9415555" lon="8.0092032"><ele>89.0</ele><time>2026-04-19T09:33:10.84Z</time></trkpt><trkpt lat="43.941454" lon="8.0093605"><ele>89.0</ele><time>2026-04-19T09:33:11.838Z</time></trkpt><trkpt lat="43.9413409" lon="8.0094748"><ele>89.0</ele><time>2026-04-19T09:33:12.838Z</time></trkpt><trkpt lat="43.9412531" lon="8.0095936"><ele>89.0</ele><time>2026-04-19T09:33:13.838Z</time></trkpt><trkpt lat="43.9411788" lon="8.0097061"><ele>89.0</ele><time>2026-04-19T09:33:14.837Z</time></trkpt><trkpt lat="43.9411204" lon="8.0098015"><ele>89.0</ele><time>2026-04-19T09:33:15.838Z</time></trkpt><trkpt lat="43.9410727" lon="8.0098786"><ele>89.0</ele><time>2026-04-19T09:33:16.838Z</time></trkpt><trkpt lat="43.9410143" lon="8.0099671"><ele>89.0</ele><time>2026-04-19T09:33:18.837Z</time></trkpt><trkpt lat="43.9409487" lon="8.0100022"><ele>89.0</ele><time>2026-04-19T09:33:30.838Z</time></trkpt><trkpt lat="43.9408642" lon="8.0100561"><ele>89.0</ele><time>2026-04-19T09:33:32.838Z</time></trkpt><trkpt lat="43.940809" lon="8.0101101"><ele>87.2</ele><time>2026-04-19T09:33:33.837Z</time></trkpt><trkpt lat="43.9407525" lon="8.0101889"><ele>85.4</ele><time>2026-04-19T09:33:34.836Z</time></trkpt><trkpt lat="43.9406876" lon="8.0102709"><ele>83.6</ele><time>2026-04-19T09:33:35.838Z</time></trkpt><trkpt lat="43.9406279" lon="8.0103693"><ele>81.8</ele><time>2026-04-19T09:33:36.838Z</time></trkpt><trkpt lat="43.9405802" lon="8.0104892"><ele>80.0</ele><time>2026-04-19T09:33:37.837Z</time></trkpt><trkpt lat="43.9405352" lon="8.0106084"><ele>80.0</ele><time>2026-04-19T09:33:38.839Z</time></trkpt><trkpt lat="43.9404919" lon="8.0107333"><ele>80.0</ele><time>2026-04-19T09:33:39.838Z</time></trkpt><trkpt lat="43.9404486" lon="8.0108554"><ele>80.0</ele><time>2026-04-19T09:33:40.838Z</time></trkpt><trkpt lat="43.9404194" lon="8.0109912"><ele>80.0</ele><time>2026-04-19T09:33:41.837Z</time></trkpt><trkpt lat="43.9403722" lon="8.0111055"><ele>80.0</ele><time>2026-04-19T09:33:42.838Z</time></trkpt><trkpt lat="43.9403284" lon="8.0112151"><ele>81.83333333333334</ele><time>2026-04-19T09:33:43.837Z</time></trkpt><trkpt lat="43.9403113" lon="8.0113402"><ele>83.66666666666667</ele><time>2026-04-19T09:33:44.836Z</time></trkpt><trkpt lat="43.940306" lon="8.011459"><ele>85.5</ele><time>2026-04-19T09:33:45.838Z</time></trkpt><trkpt lat="43.9403092" lon="8.0115783"><ele>87.33333333333333</ele><time>2026-04-19T09:33:46.837Z</time></trkpt><trkpt lat="43.9403252" lon="8.0117024"><ele>89.16666666666666</ele><time>2026-04-19T09:33:47.838Z</time></trkpt><trkpt lat="43.9403516" lon="8.0118193"><ele>91.0</ele><time>2026-04-19T09:33:48.838Z</time></trkpt><trkpt lat="43.9403704" lon="8.0119254"><ele>91.16666666666666</ele><time>2026-04-19T09:33:49.839Z</time></trkpt><trkpt lat="43.9404124" lon="8.0120375"><ele>91.33333333333333</ele><time>2026-04-19T09:33:50.838Z</time></trkpt><trkpt lat="43.9404341" lon="8.0121317"><ele>91.5</ele><time>2026-04-19T09:33:51.837Z</time></trkpt><trkpt lat="43.9404776" lon="8.0122251"><ele>91.66666666666667</ele><time>2026-04-19T09:33:52.837Z</time></trkpt><trkpt lat="43.940531" lon="8.0123249"><ele>91.83333333333334</ele><time>2026-04-19T09:33:53.838Z</time></trkpt><trkpt lat="43.9405763" lon="8.0124039"><ele>92.0</ele><time>2026-04-19T09:33:54.838Z</time></trkpt><trkpt lat="43.9406229" lon="8.0124788"><ele>92.0</ele><time>2026-04-19T09:33:55.838Z</time></trkpt><trkpt lat="43.9406574" lon="8.0125546"><ele>92.0</ele><time>2026-04-19T09:33:56.836Z</time></trkpt><trkpt lat="43.9406735" lon="8.0126775"><ele>92.0</ele><time>2026-04-19T09:33:58.838Z</time></trkpt><trkpt lat="43.9407144" lon="8.0127711"><ele>92.0</ele><time>2026-04-19T09:34:00.838Z</time></trkpt><trkpt lat="43.9408074" lon="8.0128192"><ele>92.0</ele><time>2026-04-19T09:34:02.838Z</time></trkpt><trkpt lat="43.9408783" lon="8.0128245"><ele>92.0</ele><time>2026-04-19T09:34:03.838Z</time></trkpt><trkpt lat="43.9409506" lon="8.0128252"><ele>92.0</ele><time>2026-04-19T09:34:04.838Z</time></trkpt><trkpt lat="43.9410774" lon="8.0128047"><ele>92.0</ele><time>2026-04-19T09:34:06.837Z</time></trkpt><trkpt lat="43.941116" lon="8.0128815"><ele>92.0</ele><time>2026-04-19T09:34:08.836Z</time></trkpt><trkpt lat="43.9410616" lon="8.0129797"><ele>92.0</ele><time>2026-04-19T09:34:10.837Z</time></trkpt><trkpt lat="43.9409378" lon="8.0130436"><ele>92.0</ele><time>2026-04-19T09:34:12.837Z</time></trkpt><trkpt lat="43.940871" lon="8.0131019"><ele>91.0</ele><time>2026-04-19T09:34:13.837Z</time></trkpt><trkpt lat="43.9408082" lon="8.0131848"><ele>90.0</ele><time>2026-04-19T09:34:14.838Z</time></trkpt><trkpt lat="43.9407719" lon="8.0132626"><ele>89.0</ele><time>2026-04-19T09:34:15.838Z</time></trkpt><trkpt lat="43.9407557" lon="8.0133566"><ele>88.0</ele><time>2026-04-19T09:34:16.838Z</time></trkpt><trkpt lat="43.9407529" lon="8.0134621"><ele>87.0</ele><time>2026-04-19T09:34:17.839Z</time></trkpt><trkpt lat="43.9407605" lon="8.013563"><ele>86.0</ele><time>2026-04-19T09:34:18.837Z</time></trkpt><trkpt lat="43.9407797" lon="8.0136775"><ele>86.0</ele><time>2026-04-19T09:34:19.837Z</time></trkpt><trkpt lat="43.9408002" lon="8.0137891"><ele>86.0</ele><time>2026-04-19T09:34:20.838Z</time></trkpt><trkpt lat="43.9407914" lon="8.0139219"><ele>86.0</ele><time>2026-04-19T09:34:21.838Z</time></trkpt><trkpt lat="43.9407855" lon="8.0140617"><ele>86.0</ele><time>2026-04-19T09:34:22.839Z</time></trkpt><trkpt lat="43.9407781" lon="8.0142073"><ele>86.0</ele><time>2026-04-19T09:34:23.838Z</time></trkpt><trkpt lat="43.9407698" lon="8.0143607"><ele>87.25</ele><time>2026-04-19T09:34:24.838Z</time></trkpt><trkpt lat="43.9407565" lon="8.0145097"><ele>88.5</ele><time>2026-04-19T09:34:25.837Z</time></trkpt><trkpt lat="43.9407505" lon="8.0146673"><ele>89.75</ele><time>2026-04-19T09:34:26.836Z</time></trkpt><trkpt lat="43.9407509" lon="8.0148285"><ele>91.0</ele><time>2026-04-19T09:34:27.838Z</time></trkpt><trkpt lat="43.9407534" lon="8.0149934"><ele>92.19999999999999</ele><time>2026-04-19T09:34:28.837Z</time></trkpt><trkpt lat="43.9407584" lon="8.0151471"><ele>93.39999999999999</ele><time>2026-04-19T09:34:29.838Z</time></trkpt><trkpt lat="43.940773" lon="8.0153052"><ele>94.6</ele><time>2026-04-19T09:34:30.838Z</time></trkpt><trkpt lat="43.9407974" lon="8.015456"><ele>95.8</ele><time>2026-04-19T09:34:31.837Z</time></trkpt><trkpt lat="43.9408291" lon="8.0156008"><ele>97.0</ele><time>2026-04-19T09:34:32.837Z</time></trkpt><trkpt lat="43.9408609" lon="8.0157388"><ele>103.39999999999999</ele><time>2026-04-19T09:34:33.839Z</time></trkpt><trkpt lat="43.9408982" lon="8.015881"><ele>109.8</ele><time>2026-04-19T09:34:34.837Z</time></trkpt><trkpt lat="43.940945" lon="8.0160214"><ele>116.2</ele><time>2026-04-19T09:34:35.839Z</time></trkpt><trkpt lat="43.940982" lon="8.0161592"><ele>122.6</ele><time>2026-04-19T09:34:36.837Z</time></trkpt><trkpt lat="43.9410053" lon="8.0162963"><ele>129.0</ele><time>2026-04-19T09:34:37.838Z</time></trkpt><trkpt lat="43.9409953" lon="8.0164226"><ele>129.0</ele><time>2026-04-19T09:34:38.838Z</time></trkpt><trkpt lat="43.9409556" lon="8.0165437"><ele>129.0</ele><time>2026-04-19T09:34:39.837Z</time></trkpt><trkpt lat="43.9408979" lon="8.0166411"><ele>129.0</ele><time>2026-04-19T09:34:40.838Z</time></trkpt><trkpt lat="43.9408204" lon="8.0167105"><ele>129.0</ele><time>2026-04-19T09:34:41.837Z</time></trkpt><trkpt lat="43.9407452" lon="8.0167742"><ele>129.0</ele><time>2026-04-19T09:34:42.839Z</time></trkpt><trkpt lat="43.9406937" lon="8.0168554"><ele>129.0</ele><time>2026-04-19T09:34:43.838Z</time></trkpt><trkpt lat="43.9406709" lon="8.0169503"><ele>125.5</ele><time>2026-04-19T09:34:44.837Z</time></trkpt><trkpt lat="43.9406815" lon="8.0170549"><ele>122.0</ele><time>2026-04-19T09:34:45.838Z</time></trkpt><trkpt lat="43.9407004" lon="8.0171602"><ele>118.5</ele><time>2026-04-19T09:34:46.838Z</time></trkpt><trkpt lat="43.9407374" lon="8.0172653"><ele>115.0</ele><time>2026-04-19T09:34:47.838Z</time></trkpt><trkpt lat="43.9407733" lon="8.0173801"><ele>111.5</ele><time>2026-04-19T09:34:48.839Z</time></trkpt><trkpt lat="43.9408077" lon="8.017496"><ele>108.0</ele><time>2026-04-19T09:34:49.837Z</time></trkpt><trkpt lat="43.940834" lon="8.0175984"><ele>108.0</ele><time>2026-04-19T09:34:50.838Z</time></trkpt><trkpt lat="43.9408675" lon="8.0176765"><ele>108.0</ele><time>2026-04-19T09:34:51.837Z</time></trkpt><trkpt lat="43.940981" lon="8.017695"><ele>108.0</ele><time>2026-04-19T09:34:53.838Z</time></trkpt><trkpt lat="43.9410398" lon="8.0176579"><ele>108.0</ele><time>2026-04-19T09:34:54.837Z</time></trkpt><trkpt lat="43.941005" lon="8.0175521"><ele>108.0</ele><time>2026-04-19T09:34:55.838Z</time></trkpt><trkpt lat="43.9409882" lon="8.0174647"><ele>108.0</ele><time>2026-04-19T09:34:56.838Z</time></trkpt><trkpt lat="43.9409517" lon="8.0173501"><ele>112.0</ele><time>2026-04-19T09:34:57.838Z</time></trkpt><trkpt lat="43.9409165" lon="8.0172439"><ele>116.0</ele><time>2026-04-19T09:34:58.838Z</time></trkpt><trkpt lat="43.9409023" lon="8.0171426"><ele>120.0</ele><time>2026-04-19T09:34:59.836Z</time></trkpt><trkpt lat="43.940896" lon="8.0170482"><ele>124.0</ele><time>2026-04-19T09:35:00.838Z</time></trkpt><trkpt lat="43.9409661" lon="8.0170149"><ele>128.0</ele><time>2026-04-19T09:35:01.837Z</time></trkpt><trkpt lat="43.9410299" lon="8.0169882"><ele>131.99999999999997</ele><time>2026-04-19T09:35:02.838Z</time></trkpt><trkpt lat="43.9411095" lon="8.0169787"><ele>136.0</ele><time>2026-04-19T09:35:03.839Z</time></trkpt><trkpt lat="43.9411849" lon="8.0169258"><ele>136.0</ele><time>2026-04-19T09:35:04.837Z</time></trkpt><trkpt lat="43.9412529" lon="8.0168502"><ele>136.0</ele><time>2026-04-19T09:35:05.837Z</time></trkpt><trkpt lat="43.9413114" lon="8.016751"><ele>136.0</ele><time>2026-04-19T09:35:06.837Z</time></trkpt><trkpt lat="43.9413662" lon="8.0166382"><ele>136.0</ele><time>2026-04-19T09:35:07.837Z</time></trkpt><trkpt lat="43.9414196" lon="8.0165144"><ele>136.0</ele><time>2026-04-19T09:35:08.837Z</time></trkpt><trkpt lat="43.9414649" lon="8.0163756"><ele>134.25</ele><time>2026-04-19T09:35:09.838Z</time></trkpt><trkpt lat="43.9415085" lon="8.0162375"><ele>132.5</ele><time>2026-04-19T09:35:10.837Z</time></trkpt><trkpt lat="43.9415443" lon="8.0160837"><ele>130.75</ele><time>2026-04-19T09:35:11.838Z</time></trkpt><trkpt lat="43.9415712" lon="8.0159226"><ele>129.0</ele><time>2026-04-19T09:35:12.838Z</time></trkpt><trkpt lat="43.9415921" lon="8.0157619"><ele>127.4</ele><time>2026-04-19T09:35:13.838Z</time></trkpt><trkpt lat="43.941622" lon="8.0156133"><ele>125.80000000000001</ele><time>2026-04-19T09:35:14.837Z</time></trkpt><trkpt lat="43.9416605" lon="8.0154895"><ele>124.19999999999999</ele><time>2026-04-19T09:35:15.839Z</time></trkpt><trkpt lat="43.9417397" lon="8.0154148"><ele>122.6</ele><time>2026-04-19T09:35:16.838Z</time></trkpt><trkpt lat="43.9418113" lon="8.0153206"><ele>121.0</ele><time>2026-04-19T09:35:17.839Z</time></trkpt><trkpt lat="43.9418988" lon="8.0152356"><ele>122.5</ele><time>2026-04-19T09:35:18.837Z</time></trkpt><trkpt lat="43.9419805" lon="8.0151278"><ele>124.0</ele><time>2026-04-19T09:35:19.837Z</time></trkpt><trkpt lat="43.9420634" lon="8.0150156"><ele>125.5</ele><time>2026-04-19T09:35:20.838Z</time></trkpt><trkpt lat="43.9421351" lon="8.0148995"><ele>127.0</ele><time>2026-04-19T09:35:21.837Z</time></trkpt><trkpt lat="43.9422233" lon="8.0148007"><ele>127.0</ele><time>2026-04-19T09:35:22.837Z</time></trkpt><trkpt lat="43.9423051" lon="8.0146977"><ele>127.0</ele><time>2026-04-19T09:35:23.838Z</time></trkpt><trkpt lat="43.942407" lon="8.014591"><ele>127.0</ele><time>2026-04-19T09:35:24.837Z</time></trkpt><trkpt lat="43.9425113" lon="8.0144801"><ele>127.0</ele><time>2026-04-19T09:35:25.838Z</time></trkpt><trkpt lat="43.9426292" lon="8.0143856"><ele>124.5</ele><time>2026-04-19T09:35:26.838Z</time></trkpt><trkpt lat="43.9427301" lon="8.0142907"><ele>122.0</ele><time>2026-04-19T09:35:27.837Z</time></trkpt><trkpt lat="43.9428703" lon="8.0141977"><ele>119.5</ele><time>2026-04-19T09:35:28.838Z</time></trkpt><trkpt lat="43.9429989" lon="8.0141156"><ele>117.0</ele><time>2026-04-19T09:35:29.838Z</time></trkpt><trkpt lat="43.9431336" lon="8.0140426"><ele>117.0</ele><time>2026-04-19T09:35:30.837Z</time></trkpt><trkpt lat="43.9432583" lon="8.0139958"><ele>117.0</ele><time>2026-04-19T09:35:31.837Z</time></trkpt><trkpt lat="43.9433753" lon="8.0139532"><ele>117.0</ele><time>2026-04-19T09:35:32.837Z</time></trkpt><trkpt lat="43.9434689" lon="8.013884"><ele>117.0</ele><time>2026-04-19T09:35:33.837Z</time></trkpt><trkpt lat="43.9435621" lon="8.0138357"><ele>119.0</ele><time>2026-04-19T09:35:34.838Z</time></trkpt><trkpt lat="43.943635" lon="8.0138327"><ele>121.0</ele><time>2026-04-19T09:35:35.838Z</time></trkpt><trkpt lat="43.9437055" lon="8.0139369"><ele>123.0</ele><time>2026-04-19T09:35:37.838Z</time></trkpt><trkpt lat="43.9436704" lon="8.0140148"><ele>125.0</ele><time>2026-04-19T09:35:38.838Z</time></trkpt><trkpt lat="43.943615" lon="8.0140646"><ele>127.0</ele><time>2026-04-19T09:35:39.838Z</time></trkpt><trkpt lat="43.9435385" lon="8.0141083"><ele>129.0</ele><time>2026-04-19T09:35:40.838Z</time></trkpt><trkpt lat="43.9434523" lon="8.0141563"><ele>132.4</ele><time>2026-04-19T09:35:41.838Z</time></trkpt><trkpt lat="43.9433607" lon="8.0142096"><ele>135.8</ele><time>2026-04-19T09:35:42.838Z</time></trkpt><trkpt lat="43.943266" lon="8.0142553"><ele>139.2</ele><time>2026-04-19T09:35:43.839Z</time></trkpt><trkpt lat="43.943173" lon="8.014314"><ele>142.6</ele><time>2026-04-19T09:35:44.838Z</time></trkpt><trkpt lat="43.9430749" lon="8.0143803"><ele>146.0</ele><time>2026-04-19T09:35:45.838Z</time></trkpt><trkpt lat="43.9429797" lon="8.0144526"><ele>146.0</ele><time>2026-04-19T09:35:46.838Z</time></trkpt><trkpt lat="43.9428838" lon="8.0145313"><ele>146.0</ele><time>2026-04-19T09:35:47.837Z</time></trkpt><trkpt lat="43.9427872" lon="8.0146178"><ele>146.0</ele><time>2026-04-19T09:35:48.837Z</time></trkpt><trkpt lat="43.9426879" lon="8.0147072"><ele>146.0</ele><time>2026-04-19T09:35:49.837Z</time></trkpt><trkpt lat="43.9425984" lon="8.0148244"><ele>147.0</ele><time>2026-04-19T09:35:50.837Z</time></trkpt><trkpt lat="43.9425168" lon="8.0149417"><ele>148.0</ele><time>2026-04-19T09:35:51.837Z</time></trkpt><trkpt lat="43.9424526" lon="8.0150842"><ele>149.0</ele><time>2026-04-19T09:35:52.838Z</time></trkpt><trkpt lat="43.9424023" lon="8.0152327"><ele>150.0</ele><time>2026-04-19T09:35:53.837Z</time></trkpt><trkpt lat="43.9423633" lon="8.0153964"><ele>150.0</ele><time>2026-04-19T09:35:54.838Z</time></trkpt><trkpt lat="43.9423429" lon="8.015569"><ele>150.0</ele><time>2026-04-19T09:35:55.838Z</time></trkpt><trkpt lat="43.9423297" lon="8.0157406"><ele>150.0</ele><time>2026-04-19T09:35:56.838Z</time></trkpt><trkpt lat="43.9423249" lon="8.0159166"><ele>150.0</ele><time>2026-04-19T09:35:57.837Z</time></trkpt><trkpt lat="43.9423005" lon="8.0160884"><ele>154.25</ele><time>2026-04-19T09:35:58.838Z</time></trkpt><trkpt lat="43.942273" lon="8.0162654"><ele>158.5</ele><time>2026-04-19T09:35:59.838Z</time></trkpt><trkpt lat="43.9422501" lon="8.0164395"><ele>162.75</ele><time>2026-04-19T09:36:00.838Z</time></trkpt><trkpt lat="43.9422367" lon="8.0166169"><ele>167.0</ele><time>2026-04-19T09:36:01.838Z</time></trkpt><trkpt lat="43.9422256" lon="8.0167974"><ele>170.75</ele><time>2026-04-19T09:36:02.837Z</time></trkpt><trkpt lat="43.9422128" lon="8.0169765"><ele>174.5</ele><time>2026-04-19T09:36:03.837Z</time></trkpt><trkpt lat="43.9422028" lon="8.0171597"><ele>178.25</ele><time>2026-04-19T09:36:04.838Z</time></trkpt><trkpt lat="43.942188" lon="8.0173407"><ele>182.0</ele><time>2026-04-19T09:36:05.838Z</time></trkpt><trkpt lat="43.9421775" lon="8.0175042"><ele>182.75</ele><time>2026-04-19T09:36:06.837Z</time></trkpt><trkpt lat="43.9421729" lon="8.0176761"><ele>183.5</ele><time>2026-04-19T09:36:07.837Z</time></trkpt><trkpt lat="43.9421893" lon="8.0178448"><ele>184.25</ele><time>2026-04-19T09:36:08.838Z</time></trkpt><trkpt lat="43.9422205" lon="8.0180154"><ele>185.0</ele><time>2026-04-19T09:36:09.838Z</time></trkpt><trkpt lat="43.9422742" lon="8.0181821"><ele>184.0</ele><time>2026-04-19T09:36:10.838Z</time></trkpt><trkpt lat="43.9423316" lon="8.0183448"><ele>183.0</ele><time>2026-04-19T09:36:11.836Z</time></trkpt><trkpt lat="43.9423873" lon="8.0185073"><ele>182.0</ele><time>2026-04-19T09:36:12.837Z</time></trkpt><trkpt lat="43.9424515" lon="8.0186682"><ele>181.0</ele><time>2026-04-19T09:36:13.838Z</time></trkpt><trkpt lat="43.9425116" lon="8.0188328"><ele>187.20000000000002</ele><time>2026-04-19T09:36:14.837Z</time></trkpt><trkpt lat="43.9425792" lon="8.0189784"><ele>193.4</ele><time>2026-04-19T09:36:15.838Z</time></trkpt><trkpt lat="43.9426352" lon="8.0191041"><ele>199.6</ele><time>2026-04-19T09:36:16.838Z</time></trkpt><trkpt lat="43.9426872" lon="8.0192025"><ele>205.8</ele><time>2026-04-19T09:36:17.838Z</time></trkpt><trkpt lat="43.9427918" lon="8.0192101"><ele>212.0</ele><time>2026-04-19T09:36:19.837Z</time></trkpt><trkpt lat="43.9427305" lon="8.0190692"><ele>214.50000000000003</ele><time>2026-04-19T09:36:22.837Z</time></trkpt><trkpt lat="43.9426745" lon="8.0189926"><ele>217.0</ele><time>2026-04-19T09:36:23.837Z</time></trkpt><trkpt lat="43.9426306" lon="8.0189081"><ele>219.5</ele><time>2026-04-19T09:36:24.838Z</time></trkpt><trkpt lat="43.9425991" lon="8.0187973"><ele>222.0</ele><time>2026-04-19T09:36:25.838Z</time></trkpt><trkpt lat="43.9425752" lon="8.0186694"><ele>224.50000000000003</ele><time>2026-04-19T09:36:26.838Z</time></trkpt><trkpt lat="43.9425407" lon="8.0185345"><ele>227.0</ele><time>2026-04-19T09:36:27.838Z</time></trkpt><trkpt lat="43.9425141" lon="8.0184027"><ele>218.6</ele><time>2026-04-19T09:36:28.838Z</time></trkpt><trkpt lat="43.9424979" lon="8.0182545"><ele>210.2</ele><time>2026-04-19T09:36:29.838Z</time></trkpt><trkpt lat="43.9424885" lon="8.0181157"><ele>201.8</ele><time>2026-04-19T09:36:30.838Z</time></trkpt><trkpt lat="43.9425139" lon="8.0179613"><ele>193.4</ele><time>2026-04-19T09:36:31.838Z</time></trkpt><trkpt lat="43.9425234" lon="8.0178084"><ele>185.0</ele><time>2026-04-19T09:36:32.836Z</time></trkpt><trkpt lat="43.9425436" lon="8.0176631"><ele>193.4</ele><time>2026-04-19T09:36:33.836Z</time></trkpt><trkpt lat="43.9425978" lon="8.0175267"><ele>201.8</ele><time>2026-04-19T09:36:34.837Z</time></trkpt><trkpt lat="43.9426471" lon="8.0173816"><ele>210.2</ele><time>2026-04-19T09:36:35.837Z</time></trkpt><trkpt lat="43.9426796" lon="8.0172302"><ele>218.6</ele><time>2026-04-19T09:36:36.838Z</time></trkpt><trkpt lat="43.9427028" lon="8.0170926"><ele>227.0</ele><time>2026-04-19T09:36:37.837Z</time></trkpt><trkpt lat="43.9427361" lon="8.0169404"><ele>227.0</ele><time>2026-04-19T09:36:38.837Z</time></trkpt><trkpt lat="43.9427723" lon="8.0167914"><ele>227.0</ele><time>2026-04-19T09:36:39.837Z</time></trkpt><trkpt lat="43.9428047" lon="8.0166286"><ele>227.0</ele><time>2026-04-19T09:36:40.837Z</time></trkpt><trkpt lat="43.9428404" lon="8.0164733"><ele>227.0</ele><time>2026-04-19T09:36:41.838Z</time></trkpt><trkpt lat="43.9428738" lon="8.0163124"><ele>222.8</ele><time>2026-04-19T09:36:42.838Z</time></trkpt><trkpt lat="43.9429038" lon="8.0161561"><ele>218.6</ele><time>2026-04-19T09:36:43.838Z</time></trkpt><trkpt lat="43.9429647" lon="8.0160301"><ele>214.4</ele><time>2026-04-19T09:36:44.837Z</time></trkpt><trkpt lat="43.9430231" lon="8.0158998"><ele>210.20000000000002</ele><time>2026-04-19T09:36:45.838Z</time></trkpt><trkpt lat="43.9430914" lon="8.015783"><ele>206.0</ele><time>2026-04-19T09:36:46.838Z</time></trkpt><trkpt lat="43.9431643" lon="8.015664"><ele>203.25</ele><time>2026-04-19T09:36:47.838Z</time></trkpt><trkpt lat="43.9432364" lon="8.0155526"><ele>200.5</ele><time>2026-04-19T09:36:48.837Z</time></trkpt><trkpt lat="43.9433665" lon="8.0154741"><ele>197.75</ele><time>2026-04-19T09:36:49.837Z</time></trkpt><trkpt lat="43.943516" lon="8.0154705"><ele>195.0</ele><time>2026-04-19T09:36:50.837Z</time></trkpt><trkpt lat="43.9436303" lon="8.0154424"><ele>195.0</ele><time>2026-04-19T09:36:51.836Z</time></trkpt><trkpt lat="43.9437448" lon="8.0154151"><ele>195.0</ele><time>2026-04-19T09:36:52.838Z</time></trkpt><trkpt lat="43.9438567" lon="8.0153916"><ele>195.0</ele><time>2026-04-19T09:36:53.838Z</time></trkpt><trkpt lat="43.9439746" lon="8.0153505"><ele>195.0</ele><time>2026-04-19T09:36:54.838Z</time></trkpt><trkpt lat="43.9440829" lon="8.0153111"><ele>195.0</ele><time>2026-04-19T09:36:55.839Z</time></trkpt><trkpt lat="43.9441944" lon="8.0152706"><ele>195.0</ele><time>2026-04-19T09:36:56.837Z</time></trkpt><trkpt lat="43.9443094" lon="8.0152403"><ele>195.0</ele><time>2026-04-19T09:36:57.837Z</time></trkpt><trkpt lat="43.9444327" lon="8.0152112"><ele>195.0</ele><time>2026-04-19T09:36:58.837Z</time></trkpt><trkpt lat="43.9445429" lon="8.0151807"><ele>199.25</ele><time>2026-04-19T09:36:59.837Z</time></trkpt><trkpt lat="43.9446636" lon="8.0151425"><ele>203.5</ele><time>2026-04-19T09:37:00.837Z</time></trkpt><trkpt lat="43.9447893" lon="8.0151072"><ele>207.75</ele><time>2026-04-19T09:37:01.837Z</time></trkpt><trkpt lat="43.9449106" lon="8.0150914"><ele>212.0</ele><time>2026-04-19T09:37:02.838Z</time></trkpt><trkpt lat="43.9450327" lon="8.0150738"><ele>210.25</ele><time>2026-04-19T09:37:03.838Z</time></trkpt><trkpt lat="43.9451547" lon="8.0150895"><ele>208.5</ele><time>2026-04-19T09:37:04.837Z</time></trkpt><trkpt lat="43.9452833" lon="8.0151252"><ele>206.75</ele><time>2026-04-19T09:37:05.837Z</time></trkpt><trkpt lat="43.9453939" lon="8.0151902"><ele>205.0</ele><time>2026-04-19T09:37:06.837Z</time></trkpt><trkpt lat="43.945503" lon="8.0153269"><ele>205.0</ele><time>2026-04-19T09:37:07.839Z</time></trkpt><trkpt lat="43.9456103" lon="8.0154125"><ele>205.0</ele><time>2026-04-19T09:37:08.838Z</time></trkpt><trkpt lat="43.9457154" lon="8.0155172"><ele>205.0</ele><time>2026-04-19T09:37:09.836Z</time></trkpt><trkpt lat="43.9458272" lon="8.0156177"><ele>205.0</ele><time>2026-04-19T09:37:10.837Z</time></trkpt><trkpt lat="43.9459405" lon="8.0157141"><ele>204.25</ele><time>2026-04-19T09:37:11.838Z</time></trkpt><trkpt lat="43.946066" lon="8.0157913"><ele>203.5</ele><time>2026-04-19T09:37:12.837Z</time></trkpt><trkpt lat="43.9461907" lon="8.0158644"><ele>202.75</ele><time>2026-04-19T09:37:13.837Z</time></trkpt><trkpt lat="43.9463191" lon="8.015917"><ele>202.0</ele><time>2026-04-19T09:37:14.838Z</time></trkpt><trkpt lat="43.9464565" lon="8.0159739"><ele>208.5</ele><time>2026-04-19T09:37:15.837Z</time></trkpt><trkpt lat="43.9465931" lon="8.0160544"><ele>215.0</ele><time>2026-04-19T09:37:16.837Z</time></trkpt><trkpt lat="43.9467242" lon="8.0161193"><ele>221.5</ele><time>2026-04-19T09:37:17.837Z</time></trkpt><trkpt lat="43.9468561" lon="8.0162271"><ele>228.0</ele><time>2026-04-19T09:37:18.838Z</time></trkpt><trkpt lat="43.9469799" lon="8.0162988"><ele>228.25</ele><time>2026-04-19T09:37:19.836Z</time></trkpt><trkpt lat="43.9471085" lon="8.0163701"><ele>228.5</ele><time>2026-04-19T09:37:20.836Z</time></trkpt><trkpt lat="43.9472373" lon="8.0164186"><ele>228.75</ele><time>2026-04-19T09:37:21.837Z</time></trkpt><trkpt lat="43.9473689" lon="8.0164433"><ele>229.0</ele><time>2026-04-19T09:37:22.836Z</time></trkpt><trkpt lat="43.9474944" lon="8.0164401"><ele>231.5</ele><time>2026-04-19T09:37:23.837Z</time></trkpt><trkpt lat="43.9476255" lon="8.0163857"><ele>234.0</ele><time>2026-04-19T09:37:24.838Z</time></trkpt><trkpt lat="43.9477456" lon="8.0163009"><ele>236.5</ele><time>2026-04-19T09:37:25.838Z</time></trkpt><trkpt lat="43.9478545" lon="8.0162062"><ele>239.0</ele><time>2026-04-19T09:37:26.839Z</time></trkpt><trkpt lat="43.9479869" lon="8.0161286"><ele>239.0</ele><time>2026-04-19T09:37:27.839Z</time></trkpt><trkpt lat="43.948124" lon="8.0161004"><ele>239.0</ele><time>2026-04-19T09:37:28.838Z</time></trkpt><trkpt lat="43.9482522" lon="8.0160823"><ele>239.0</ele><time>2026-04-19T09:37:29.837Z</time></trkpt><trkpt lat="43.9483805" lon="8.0160795"><ele>239.0</ele><time>2026-04-19T09:37:30.837Z</time></trkpt><trkpt lat="43.9485159" lon="8.0160746"><ele>242.75</ele><time>2026-04-19T09:37:31.838Z</time></trkpt><trkpt lat="43.9486449" lon="8.0160541"><ele>246.5</ele><time>2026-04-19T09:37:32.837Z</time></trkpt><trkpt lat="43.948778" lon="8.0160411"><ele>250.25</ele><time>2026-04-19T09:37:33.838Z</time></trkpt><trkpt lat="43.9489058" lon="8.0160303"><ele>254.0</ele><time>2026-04-19T09:37:34.838Z</time></trkpt><trkpt lat="43.949026" lon="8.0160115"><ele>254.0</ele><time>2026-04-19T09:37:35.836Z</time></trkpt><trkpt lat="43.9491469" lon="8.015995"><ele>254.0</ele><time>2026-04-19T09:37:36.837Z</time></trkpt><trkpt lat="43.9492642" lon="8.015939"><ele>254.0</ele><time>2026-04-19T09:37:37.837Z</time></trkpt><trkpt lat="43.9493787" lon="8.015868"><ele>254.0</ele><time>2026-04-19T09:37:38.837Z</time></trkpt><trkpt lat="43.9494974" lon="8.0157968"><ele>259.5</ele><time>2026-04-19T09:37:39.838Z</time></trkpt><trkpt lat="43.9496149" lon="8.0157217"><ele>265.0</ele><time>2026-04-19T09:37:40.838Z</time></trkpt><trkpt lat="43.9497325" lon="8.0156429"><ele>270.5</ele><time>2026-04-19T09:37:41.838Z</time></trkpt><trkpt lat="43.9498426" lon="8.015571"><ele>276.0</ele><time>2026-04-19T09:37:42.838Z</time></trkpt><trkpt lat="43.9499254" lon="8.0154945"><ele>276.0</ele><time>2026-04-19T09:37:43.837Z</time></trkpt><trkpt lat="43.9500043" lon="8.0154244"><ele>276.0</ele><time>2026-04-19T09:37:44.837Z</time></trkpt><trkpt lat="43.9500512" lon="8.0153359"><ele>276.0</ele><time>2026-04-19T09:37:45.838Z</time></trkpt><trkpt lat="43.9500576" lon="8.0152337"><ele>276.0</ele><time>2026-04-19T09:37:46.838Z</time></trkpt><trkpt lat="43.9500099" lon="8.0151358"><ele>276.0</ele><time>2026-04-19T09:37:47.837Z</time></trkpt><trkpt lat="43.9499416" lon="8.015077"><ele>276.0</ele><time>2026-04-19T09:37:48.838Z</time></trkpt><trkpt lat="43.949865" lon="8.0150089"><ele>280.0</ele><time>2026-04-19T09:37:49.838Z</time></trkpt><trkpt lat="43.9497784" lon="8.0149375"><ele>284.0</ele><time>2026-04-19T09:37:50.838Z</time></trkpt><trkpt lat="43.9496948" lon="8.014853"><ele>288.0</ele><time>2026-04-19T09:37:51.837Z</time></trkpt><trkpt lat="43.9496074" lon="8.0147651"><ele>292.0</ele><time>2026-04-19T09:37:52.837Z</time></trkpt><trkpt lat="43.9495117" lon="8.0146714"><ele>296.0</ele><time>2026-04-19T09:37:53.836Z</time></trkpt><trkpt lat="43.9494167" lon="8.0145724"><ele>296.0</ele><time>2026-04-19T09:37:54.837Z</time></trkpt><trkpt lat="43.9493211" lon="8.0144657"><ele>296.0</ele><time>2026-04-19T09:37:55.838Z</time></trkpt><trkpt lat="43.9492358" lon="8.0143593"><ele>296.0</ele><time>2026-04-19T09:37:56.837Z</time></trkpt><trkpt lat="43.949152" lon="8.0142532"><ele>296.0</ele><time>2026-04-19T09:37:57.838Z</time></trkpt><trkpt lat="43.9490832" lon="8.0141287"><ele>295.2</ele><time>2026-04-19T09:37:58.838Z</time></trkpt><trkpt lat="43.9490418" lon="8.0140008"><ele>294.40000000000003</ele><time>2026-04-19T09:37:59.837Z</time></trkpt><trkpt lat="43.9490224" lon="8.0138588"><ele>293.6</ele><time>2026-04-19T09:38:00.838Z</time></trkpt><trkpt lat="43.9489937" lon="8.0137174"><ele>292.8</ele><time>2026-04-19T09:38:01.838Z</time></trkpt><trkpt lat="43.9489567" lon="8.0135703"><ele>292.0</ele><time>2026-04-19T09:38:02.838Z</time></trkpt><trkpt lat="43.9489186" lon="8.0134291"><ele>296.2</ele><time>2026-04-19T09:38:03.837Z</time></trkpt><trkpt lat="43.9488799" lon="8.0132807"><ele>300.4</ele><time>2026-04-19T09:38:04.837Z</time></trkpt><trkpt lat="43.9488379" lon="8.0131367"><ele>304.6</ele><time>2026-04-19T09:38:05.837Z</time></trkpt><trkpt lat="43.9487953" lon="8.0129937"><ele>308.8</ele><time>2026-04-19T09:38:06.838Z</time></trkpt><trkpt lat="43.9487517" lon="8.0128671"><ele>313.0</ele><time>2026-04-19T09:38:07.837Z</time></trkpt><trkpt lat="43.9487022" lon="8.0127249"><ele>313.0</ele><time>2026-04-19T09:38:08.838Z</time></trkpt><trkpt lat="43.948641" lon="8.0125929"><ele>313.0</ele><time>2026-04-19T09:38:09.837Z</time></trkpt><trkpt lat="43.9485914" lon="8.0124595"><ele>313.0</ele><time>2026-04-19T09:38:10.837Z</time></trkpt><trkpt lat="43.9485214" lon="8.0123455"><ele>313.0</ele><time>2026-04-19T09:38:11.838Z</time></trkpt><trkpt lat="43.94846" lon="8.0122074"><ele>313.0</ele><time>2026-04-19T09:38:12.838Z</time></trkpt><trkpt lat="43.9484024" lon="8.0120807"><ele>311.2</ele><time>2026-04-19T09:38:13.836Z</time></trkpt><trkpt lat="43.9483411" lon="8.0119485"><ele>309.4</ele><time>2026-04-19T09:38:14.837Z</time></trkpt><trkpt lat="43.9482863" lon="8.0118206"><ele>307.59999999999997</ele><time>2026-04-19T09:38:15.837Z</time></trkpt><trkpt lat="43.9482258" lon="8.0116887"><ele>305.8</ele><time>2026-04-19T09:38:16.837Z</time></trkpt><trkpt lat="43.9481607" lon="8.0115638"><ele>304.0</ele><time>2026-04-19T09:38:17.837Z</time></trkpt><trkpt lat="43.9480994" lon="8.0114423"><ele>304.0</ele><time>2026-04-19T09:38:18.838Z</time></trkpt><trkpt lat="43.9480452" lon="8.011311"><ele>304.0</ele><time>2026-04-19T09:38:19.837Z</time></trkpt><trkpt lat="43.9479836" lon="8.011187"><ele>304.0</ele><time>2026-04-19T09:38:20.836Z</time></trkpt><trkpt lat="43.9479271" lon="8.011066"><ele>304.0</ele><time>2026-04-19T09:38:21.836Z</time></trkpt><trkpt lat="43.9478788" lon="8.0109386"><ele>304.0</ele><time>2026-04-19T09:38:22.837Z</time></trkpt><trkpt lat="43.9478466" lon="8.0108146"><ele>300.66666666666663</ele><time>2026-04-19T09:38:23.838Z</time></trkpt><trkpt lat="43.9478479" lon="8.0106951"><ele>297.3333333333333</ele><time>2026-04-19T09:38:24.837Z</time></trkpt><trkpt lat="43.9478608" lon="8.010609"><ele>294.0</ele><time>2026-04-19T09:38:25.838Z</time></trkpt><trkpt lat="43.9479163" lon="8.0105537"><ele>290.6666666666667</ele><time>2026-04-19T09:38:26.837Z</time></trkpt><trkpt lat="43.9480416" lon="8.0105997"><ele>287.33333333333337</ele><time>2026-04-19T09:38:28.837Z</time></trkpt><trkpt lat="43.9481145" lon="8.0106366"><ele>284.0</ele><time>2026-04-19T09:38:29.837Z</time></trkpt><trkpt lat="43.9481687" lon="8.0107023"><ele>284.0</ele><time>2026-04-19T09:38:30.838Z</time></trkpt><trkpt lat="43.9482316" lon="8.0107685"><ele>284.0</ele><time>2026-04-19T09:38:31.838Z</time></trkpt><trkpt lat="43.9482891" lon="8.010867"><ele>284.0</ele><time>2026-04-19T09:38:32.837Z</time></trkpt><trkpt lat="43.9483388" lon="8.0109935"><ele>284.0</ele><time>2026-04-19T09:38:33.837Z</time></trkpt><trkpt lat="43.9483712" lon="8.0111281"><ele>284.0</ele><time>2026-04-19T09:38:34.837Z</time></trkpt><trkpt lat="43.9484229" lon="8.0112521"><ele>288.2</ele><time>2026-04-19T09:38:35.836Z</time></trkpt><trkpt lat="43.9484964" lon="8.0113576"><ele>292.4</ele><time>2026-04-19T09:38:36.837Z</time></trkpt><trkpt lat="43.9485852" lon="8.0114615"><ele>296.6</ele><time>2026-04-19T09:38:37.836Z</time></trkpt><trkpt lat="43.9486626" lon="8.0115686"><ele>300.8</ele><time>2026-04-19T09:38:38.838Z</time></trkpt><trkpt lat="43.9487452" lon="8.0116778"><ele>305.0</ele><time>2026-04-19T09:38:39.836Z</time></trkpt><trkpt lat="43.9488286" lon="8.0118016"><ele>309.4</ele><time>2026-04-19T09:38:40.837Z</time></trkpt><trkpt lat="43.9489051" lon="8.0119225"><ele>313.8</ele><time>2026-04-19T09:38:41.837Z</time></trkpt><trkpt lat="43.9489749" lon="8.0120432"><ele>318.20000000000005</ele><time>2026-04-19T09:38:42.837Z</time></trkpt><trkpt lat="43.9490505" lon="8.0121455"><ele>322.6</ele><time>2026-04-19T09:38:43.838Z</time></trkpt><trkpt lat="43.949138" lon="8.0122221"><ele>327.0</ele><time>2026-04-19T09:38:44.837Z</time></trkpt><trkpt lat="43.949233" lon="8.0122777"><ele>328.40000000000003</ele><time>2026-04-19T09:38:45.838Z</time></trkpt><trkpt lat="43.949332" lon="8.0123304"><ele>329.8</ele><time>2026-04-19T09:38:46.838Z</time></trkpt><trkpt lat="43.9494245" lon="8.0124001"><ele>331.2</ele><time>2026-04-19T09:38:47.837Z</time></trkpt><trkpt lat="43.9495188" lon="8.0124597"><ele>332.6</ele><time>2026-04-19T09:38:48.838Z</time></trkpt><trkpt lat="43.9496188" lon="8.0125202"><ele>334.0</ele><time>2026-04-19T09:38:49.837Z</time></trkpt><trkpt lat="43.9497169" lon="8.0125789"><ele>334.5</ele><time>2026-04-19T09:38:50.839Z</time></trkpt><trkpt lat="43.9498226" lon="8.0126388"><ele>335.0</ele><time>2026-04-19T09:38:51.837Z</time></trkpt><trkpt lat="43.9499248" lon="8.0127013"><ele>335.5</ele><time>2026-04-19T09:38:52.838Z</time></trkpt><trkpt lat="43.9500278" lon="8.0127529"><ele>336.0</ele><time>2026-04-19T09:38:53.836Z</time></trkpt><trkpt lat="43.9501381" lon="8.0128051"><ele>338.75</ele><time>2026-04-19T09:38:54.837Z</time></trkpt><trkpt lat="43.9502427" lon="8.0128681"><ele>341.5</ele><time>2026-04-19T09:38:55.836Z</time></trkpt><trkpt lat="43.9503489" lon="8.0129421"><ele>344.25</ele><time>2026-04-19T09:38:56.837Z</time></trkpt><trkpt lat="43.9504513" lon="8.0130311"><ele>347.0</ele><time>2026-04-19T09:38:57.836Z</time></trkpt><trkpt lat="43.9505448" lon="8.0131309"><ele>347.0</ele><time>2026-04-19T09:38:58.837Z</time></trkpt><trkpt lat="43.9506311" lon="8.0132669"><ele>347.0</ele><time>2026-04-19T09:38:59.838Z</time></trkpt><trkpt lat="43.9507259" lon="8.013398"><ele>347.0</ele><time>2026-04-19T09:39:00.837Z</time></trkpt><trkpt lat="43.950826" lon="8.0135201"><ele>347.0</ele><time>2026-04-19T09:39:01.838Z</time></trkpt><trkpt lat="43.9509355" lon="8.0136371"><ele>348.0</ele><time>2026-04-19T09:39:02.837Z</time></trkpt><trkpt lat="43.9510447" lon="8.0137576"><ele>349.0</ele><time>2026-04-19T09:39:03.838Z</time></trkpt><trkpt lat="43.9511526" lon="8.0138828"><ele>350.0</ele><time>2026-04-19T09:39:04.837Z</time></trkpt><trkpt lat="43.9512453" lon="8.0140521"><ele>351.0</ele><time>2026-04-19T09:39:05.838Z</time></trkpt><trkpt lat="43.9513363" lon="8.0142207"><ele>351.0</ele><time>2026-04-19T09:39:06.836Z</time></trkpt><trkpt lat="43.9514174" lon="8.014393"><ele>351.0</ele><time>2026-04-19T09:39:07.837Z</time></trkpt><trkpt lat="43.9514894" lon="8.0145584"><ele>351.0</ele><time>2026-04-19T09:39:08.838Z</time></trkpt><trkpt lat="43.9515613" lon="8.0147124"><ele>351.0</ele><time>2026-04-19T09:39:09.836Z</time></trkpt><trkpt lat="43.9516424" lon="8.0148514"><ele>355.5</ele><time>2026-04-19T09:39:10.838Z</time></trkpt><trkpt lat="43.9517337" lon="8.0149693"><ele>360.0</ele><time>2026-04-19T09:39:11.836Z</time></trkpt><trkpt lat="43.9518291" lon="8.0150769"><ele>364.5</ele><time>2026-04-19T09:39:12.836Z</time></trkpt><trkpt lat="43.9519194" lon="8.0151805"><ele>369.0</ele><time>2026-04-19T09:39:13.837Z</time></trkpt><trkpt lat="43.9520087" lon="8.0152894"><ele>369.0</ele><time>2026-04-19T09:39:14.837Z</time></trkpt><trkpt lat="43.9521" lon="8.0153943"><ele>369.0</ele><time>2026-04-19T09:39:15.837Z</time></trkpt><trkpt lat="43.9521944" lon="8.0154988"><ele>369.0</ele><time>2026-04-19T09:39:16.837Z</time></trkpt><trkpt lat="43.9522798" lon="8.0156043"><ele>369.0</ele><time>2026-04-19T09:39:17.836Z</time></trkpt><trkpt lat="43.9523625" lon="8.0157121"><ele>369.0</ele><time>2026-04-19T09:39:18.836Z</time></trkpt><trkpt lat="43.952446" lon="8.0158149"><ele>369.0</ele><time>2026-04-19T09:39:19.838Z</time></trkpt><trkpt lat="43.9525337" lon="8.0159159"><ele>369.0</ele><time>2026-04-19T09:39:20.837Z</time></trkpt><trkpt lat="43.9526111" lon="8.0160119"><ele>369.0</ele><time>2026-04-19T09:39:21.837Z</time></trkpt><trkpt lat="43.9526733" lon="8.0161114"><ele>369.0</ele><time>2026-04-19T09:39:22.837Z</time></trkpt><trkpt lat="43.9527251" lon="8.0162011"><ele>372.0</ele><time>2026-04-19T09:39:23.836Z</time></trkpt><trkpt lat="43.9527353" lon="8.0163092"><ele>375.0</ele><time>2026-04-19T09:39:24.837Z</time></trkpt><trkpt lat="43.9526875" lon="8.0164206"><ele>378.0</ele><time>2026-04-19T09:39:25.838Z</time></trkpt><trkpt lat="43.9526846" lon="8.0165459"><ele>381.0</ele><time>2026-04-19T09:39:26.836Z</time></trkpt><trkpt lat="43.952699" lon="8.0166654"><ele>384.0</ele><time>2026-04-19T09:39:27.837Z</time></trkpt><trkpt lat="43.9527275" lon="8.0167867"><ele>387.0</ele><time>2026-04-19T09:39:28.837Z</time></trkpt><trkpt lat="43.9527577" lon="8.0169145"><ele>387.0</ele><time>2026-04-19T09:39:29.838Z</time></trkpt><trkpt lat="43.952775" lon="8.0170378"><ele>387.0</ele><time>2026-04-19T09:39:30.836Z</time></trkpt><trkpt lat="43.9527845" lon="8.0171577"><ele>387.0</ele><time>2026-04-19T09:39:31.837Z</time></trkpt><trkpt lat="43.9528006" lon="8.0172532"><ele>387.0</ele><time>2026-04-19T09:39:32.836Z</time></trkpt><trkpt lat="43.9527725" lon="8.0173475"><ele>387.0</ele><time>2026-04-19T09:39:33.838Z</time></trkpt><trkpt lat="43.9526703" lon="8.017317"><ele>387.0</ele><time>2026-04-19T09:39:35.837Z</time></trkpt><trkpt lat="43.9526135" lon="8.0172608"><ele>387.0</ele><time>2026-04-19T09:39:36.837Z</time></trkpt><trkpt lat="43.9525486" lon="8.0172028"><ele>387.0</ele><time>2026-04-19T09:39:37.837Z</time></trkpt><trkpt lat="43.9524728" lon="8.0171604"><ele>387.0</ele><time>2026-04-19T09:39:38.837Z</time></trkpt><trkpt lat="43.9523809" lon="8.0171371"><ele>387.0</ele><time>2026-04-19T09:39:39.837Z</time></trkpt><trkpt lat="43.9522889" lon="8.0171122"><ele>387.0</ele><time>2026-04-19T09:39:40.837Z</time></trkpt><trkpt lat="43.9521906" lon="8.0170982"><ele>387.0</ele><time>2026-04-19T09:39:41.838Z</time></trkpt><trkpt lat="43.9520929" lon="8.0170984"><ele>381.40000000000003</ele><time>2026-04-19T09:39:42.836Z</time></trkpt><trkpt lat="43.9519886" lon="8.0170685"><ele>375.8</ele><time>2026-04-19T09:39:43.836Z</time></trkpt><trkpt lat="43.9518915" lon="8.0170693"><ele>370.2</ele><time>2026-04-19T09:39:44.837Z</time></trkpt><trkpt lat="43.9517903" lon="8.0170743"><ele>364.6</ele><time>2026-04-19T09:39:45.836Z</time></trkpt><trkpt lat="43.9516957" lon="8.0171105"><ele>359.0</ele><time>2026-04-19T09:39:46.837Z</time></trkpt><trkpt lat="43.9516206" lon="8.0171928"><ele>356.79999999999995</ele><time>2026-04-19T09:39:47.838Z</time></trkpt><trkpt lat="43.9515628" lon="8.0172992"><ele>354.59999999999997</ele><time>2026-04-19T09:39:48.838Z</time></trkpt><trkpt lat="43.951517" lon="8.0174249"><ele>352.4</ele><time>2026-04-19T09:39:49.838Z</time></trkpt><trkpt lat="43.9514775" lon="8.0175666"><ele>350.2</ele><time>2026-04-19T09:39:50.837Z</time></trkpt><trkpt lat="43.9514376" lon="8.0176993"><ele>348.0</ele><time>2026-04-19T09:39:51.837Z</time></trkpt><trkpt lat="43.9513931" lon="8.0178342"><ele>355.5</ele><time>2026-04-19T09:39:52.837Z</time></trkpt><trkpt lat="43.9513186" lon="8.0179504"><ele>363.0</ele><time>2026-04-19T09:39:53.837Z</time></trkpt><trkpt lat="43.9512321" lon="8.0180537"><ele>370.5</ele><time>2026-04-19T09:39:54.838Z</time></trkpt><trkpt lat="43.9511228" lon="8.0181087"><ele>378.0</ele><time>2026-04-19T09:39:55.837Z</time></trkpt><trkpt lat="43.9510077" lon="8.0181508"><ele>378.0</ele><time>2026-04-19T09:39:56.836Z</time></trkpt><trkpt lat="43.9509062" lon="8.0181831"><ele>378.0</ele><time>2026-04-19T09:39:57.837Z</time></trkpt><trkpt lat="43.9507928" lon="8.0182145"><ele>378.0</ele><time>2026-04-19T09:39:58.838Z</time></trkpt><trkpt lat="43.9506829" lon="8.0182623"><ele>378.0</ele><time>2026-04-19T09:39:59.837Z</time></trkpt><trkpt lat="43.950582" lon="8.0183378"><ele>380.75</ele><time>2026-04-19T09:40:00.837Z</time></trkpt><trkpt lat="43.950482" lon="8.0184191"><ele>383.5</ele><time>2026-04-19T09:40:01.837Z</time></trkpt><trkpt lat="43.9503764" lon="8.018488"><ele>386.25</ele><time>2026-04-19T09:40:02.838Z</time></trkpt><trkpt lat="43.9502656" lon="8.0185364"><ele>389.0</ele><time>2026-04-19T09:40:03.837Z</time></trkpt><trkpt lat="43.9501531" lon="8.0185786"><ele>387.0</ele><time>2026-04-19T09:40:04.837Z</time></trkpt><trkpt lat="43.9500392" lon="8.0186066"><ele>385.0</ele><time>2026-04-19T09:40:05.838Z</time></trkpt><trkpt lat="43.9499237" lon="8.0186215"><ele>383.0</ele><time>2026-04-19T09:40:06.837Z</time></trkpt><trkpt lat="43.9498099" lon="8.0186406"><ele>381.0</ele><time>2026-04-19T09:40:07.837Z</time></trkpt><trkpt lat="43.9497006" lon="8.0186772"><ele>381.0</ele><time>2026-04-19T09:40:08.838Z</time></trkpt><trkpt lat="43.9495927" lon="8.0187369"><ele>381.0</ele><time>2026-04-19T09:40:09.836Z</time></trkpt><trkpt lat="43.9494932" lon="8.0188066"><ele>381.0</ele><time>2026-04-19T09:40:10.839Z</time></trkpt><trkpt lat="43.9493971" lon="8.0188922"><ele>381.0</ele><time>2026-04-19T09:40:11.837Z</time></trkpt><trkpt lat="43.9493025" lon="8.0189751"><ele>377.75</ele><time>2026-04-19T09:40:12.837Z</time></trkpt><trkpt lat="43.9492034" lon="8.0190592"><ele>374.5</ele><time>2026-04-19T09:40:13.837Z</time></trkpt><trkpt lat="43.9491022" lon="8.0191324"><ele>371.25</ele><time>2026-04-19T09:40:14.837Z</time></trkpt><trkpt lat="43.9489952" lon="8.0191948"><ele>368.0</ele><time>2026-04-19T09:40:15.837Z</time></trkpt><trkpt lat="43.9488807" lon="8.0192568"><ele>376.75</ele><time>2026-04-19T09:40:16.837Z</time></trkpt><trkpt lat="43.9487678" lon="8.019311"><ele>385.5</ele><time>2026-04-19T09:40:17.838Z</time></trkpt><trkpt lat="43.9486504" lon="8.0193586"><ele>394.25</ele><time>2026-04-19T09:40:18.839Z</time></trkpt><trkpt lat="43.9485257" lon="8.0193839"><ele>403.0</ele><time>2026-04-19T09:40:19.836Z</time></trkpt><trkpt lat="43.9484134" lon="8.0194154"><ele>400.59999999999997</ele><time>2026-04-19T09:40:20.837Z</time></trkpt><trkpt lat="43.9483037" lon="8.0194327"><ele>398.2</ele><time>2026-04-19T09:40:21.838Z</time></trkpt><trkpt lat="43.9482168" lon="8.0194786"><ele>395.8</ele><time>2026-04-19T09:40:22.838Z</time></trkpt><trkpt lat="43.9481677" lon="8.0195498"><ele>393.4</ele><time>2026-04-19T09:40:23.836Z</time></trkpt><trkpt lat="43.9481847" lon="8.0197116"><ele>391.0</ele><time>2026-04-19T09:40:25.839Z</time></trkpt><trkpt lat="43.9482366" lon="8.0197934"><ele>391.0</ele><time>2026-04-19T09:40:26.837Z</time></trkpt><trkpt lat="43.948284" lon="8.019876"><ele>391.0</ele><time>2026-04-19T09:40:27.837Z</time></trkpt><trkpt lat="43.9483516" lon="8.0199805"><ele>391.0</ele><time>2026-04-19T09:40:28.837Z</time></trkpt><trkpt lat="43.9484063" lon="8.0200787"><ele>391.0</ele><time>2026-04-19T09:40:29.837Z</time></trkpt><trkpt lat="43.9484719" lon="8.0201755"><ele>391.0</ele><time>2026-04-19T09:40:30.837Z</time></trkpt><trkpt lat="43.9485326" lon="8.0202821"><ele>398.6</ele><time>2026-04-19T09:40:31.836Z</time></trkpt><trkpt lat="43.948592" lon="8.0203858"><ele>406.20000000000005</ele><time>2026-04-19T09:40:32.836Z</time></trkpt><trkpt lat="43.9486705" lon="8.0204727"><ele>413.79999999999995</ele><time>2026-04-19T09:40:33.836Z</time></trkpt><trkpt lat="43.9487611" lon="8.020531"><ele>421.4</ele><time>2026-04-19T09:40:34.836Z</time></trkpt><trkpt lat="43.9488566" lon="8.020581"><ele>429.0</ele><time>2026-04-19T09:40:35.837Z</time></trkpt><trkpt lat="43.9489482" lon="8.0206439"><ele>429.0</ele><time>2026-04-19T09:40:36.837Z</time></trkpt><trkpt lat="43.949038" lon="8.0207204"><ele>429.0</ele><time>2026-04-19T09:40:37.837Z</time></trkpt><trkpt lat="43.9491178" lon="8.0208192"><ele>429.0</ele><time>2026-04-19T09:40:38.837Z</time></trkpt><trkpt lat="43.9491958" lon="8.0209118"><ele>429.0</ele><time>2026-04-19T09:40:39.837Z</time></trkpt><trkpt lat="43.9492801" lon="8.0209852"><ele>429.0</ele><time>2026-04-19T09:40:40.837Z</time></trkpt><trkpt lat="43.9493707" lon="8.0210677"><ele>432.79999999999995</ele><time>2026-04-19T09:40:41.837Z</time></trkpt><trkpt lat="43.9494629" lon="8.0211568"><ele>436.59999999999997</ele><time>2026-04-19T09:40:42.837Z</time></trkpt><trkpt lat="43.9495516" lon="8.0212419"><ele>440.4</ele><time>2026-04-19T09:40:43.836Z</time></trkpt><trkpt lat="43.9496433" lon="8.021325"><ele>444.2</ele><time>2026-04-19T09:40:44.836Z</time></trkpt><trkpt lat="43.9497372" lon="8.0214119"><ele>448.0</ele><time>2026-04-19T09:40:45.838Z</time></trkpt><trkpt lat="43.9498328" lon="8.0214839"><ele>448.0</ele><time>2026-04-19T09:40:46.837Z</time></trkpt><trkpt lat="43.9499271" lon="8.0215798"><ele>448.0</ele><time>2026-04-19T09:40:47.837Z</time></trkpt><trkpt lat="43.9500077" lon="8.0216939"><ele>448.0</ele><time>2026-04-19T09:40:48.837Z</time></trkpt><trkpt lat="43.9500734" lon="8.0218351"><ele>448.0</ele><time>2026-04-19T09:40:49.838Z</time></trkpt><trkpt lat="43.9501218" lon="8.0219758"><ele>449.4</ele><time>2026-04-19T09:40:50.837Z</time></trkpt><trkpt lat="43.9501578" lon="8.0221083"><ele>450.79999999999995</ele><time>2026-04-19T09:40:51.836Z</time></trkpt><trkpt lat="43.950173" lon="8.0222238"><ele>452.2</ele><time>2026-04-19T09:40:52.837Z</time></trkpt><trkpt lat="43.9502228" lon="8.0223368"><ele>453.6</ele><time>2026-04-19T09:40:54.838Z</time></trkpt><trkpt lat="43.9502771" lon="8.0222768"><ele>455.0</ele><time>2026-04-19T09:40:56.838Z</time></trkpt><trkpt lat="43.9503006" lon="8.0221338"><ele>455.0</ele><time>2026-04-19T09:40:58.837Z</time></trkpt><trkpt lat="43.9503215" lon="8.0220506"><ele>455.0</ele><time>2026-04-19T09:40:59.836Z</time></trkpt><trkpt lat="43.9503562" lon="8.0219586"><ele>455.0</ele><time>2026-04-19T09:41:00.837Z</time></trkpt><trkpt lat="43.9503699" lon="8.0218541"><ele>455.0</ele><time>2026-04-19T09:41:01.837Z</time></trkpt><trkpt lat="43.9503775" lon="8.0217586"><ele>455.0</ele><time>2026-04-19T09:41:02.837Z</time></trkpt><trkpt lat="43.9503485" lon="8.0216618"><ele>455.0</ele><time>2026-04-19T09:41:03.836Z</time></trkpt><trkpt lat="43.9503046" lon="8.0215579"><ele>455.0</ele><time>2026-04-19T09:41:04.839Z</time></trkpt><trkpt lat="43.9502615" lon="8.0214651"><ele>457.0</ele><time>2026-04-19T09:41:05.838Z</time></trkpt><trkpt lat="43.9502243" lon="8.0213247"><ele>459.0</ele><time>2026-04-19T09:41:07.837Z</time></trkpt><trkpt lat="43.9503043" lon="8.0212811"><ele>461.0</ele><time>2026-04-19T09:41:09.837Z</time></trkpt><trkpt lat="43.9504086" lon="8.021369"><ele>463.0</ele><time>2026-04-19T09:41:11.837Z</time></trkpt><trkpt lat="43.9504562" lon="8.0214317"><ele>465.0</ele><time>2026-04-19T09:41:12.837Z</time></trkpt><trkpt lat="43.9505292" lon="8.021503"><ele>465.0</ele><time>2026-04-19T09:41:13.837Z</time></trkpt><trkpt lat="43.9505765" lon="8.0215819"><ele>465.0</ele><time>2026-04-19T09:41:14.837Z</time></trkpt><trkpt lat="43.9506401" lon="8.0216617"><ele>465.0</ele><time>2026-04-19T09:41:15.838Z</time></trkpt><trkpt lat="43.950708" lon="8.0217606"><ele>465.0</ele><time>2026-04-19T09:41:16.837Z</time></trkpt><trkpt lat="43.9507744" lon="8.0218532"><ele>465.0</ele><time>2026-04-19T09:41:17.838Z</time></trkpt><trkpt lat="43.9508357" lon="8.0219652"><ele>466.6</ele><time>2026-04-19T09:41:18.838Z</time></trkpt><trkpt lat="43.9508887" lon="8.022081"><ele>468.2</ele><time>2026-04-19T09:41:19.837Z</time></trkpt><trkpt lat="43.9509428" lon="8.0222098"><ele>469.79999999999995</ele><time>2026-04-19T09:41:20.838Z</time></trkpt><trkpt lat="43.9510018" lon="8.0223307"><ele>471.4</ele><time>2026-04-19T09:41:21.837Z</time></trkpt><trkpt lat="43.9510684" lon="8.0224512"><ele>473.0</ele><time>2026-04-19T09:41:22.837Z</time></trkpt><trkpt lat="43.9511339" lon="8.0225763"><ele>473.0</ele><time>2026-04-19T09:41:23.836Z</time></trkpt><trkpt lat="43.9511841" lon="8.0227031"><ele>472.99999999999994</ele><time>2026-04-19T09:41:24.838Z</time></trkpt><trkpt lat="43.9512106" lon="8.0228339"><ele>472.99999999999994</ele><time>2026-04-19T09:41:25.837Z</time></trkpt><trkpt lat="43.9512057" lon="8.0229545"><ele>473.0</ele><time>2026-04-19T09:41:26.837Z</time></trkpt><trkpt lat="43.9511781" lon="8.023085"><ele>473.0</ele><time>2026-04-19T09:41:27.836Z</time></trkpt><trkpt lat="43.9511524" lon="8.023226"><ele>472.59999999999997</ele><time>2026-04-19T09:41:28.838Z</time></trkpt><trkpt lat="43.9511308" lon="8.0233711"><ele>472.19999999999993</ele><time>2026-04-19T09:41:29.837Z</time></trkpt><trkpt lat="43.9510934" lon="8.0235157"><ele>471.8</ele><time>2026-04-19T09:41:30.837Z</time></trkpt><trkpt lat="43.951035" lon="8.0236482"><ele>471.4</ele><time>2026-04-19T09:41:31.836Z</time></trkpt><trkpt lat="43.9509724" lon="8.0237874"><ele>471.0</ele><time>2026-04-19T09:41:32.838Z</time></trkpt><trkpt lat="43.9509109" lon="8.0239401"><ele>467.75</ele><time>2026-04-19T09:41:33.838Z</time></trkpt><trkpt lat="43.9508527" lon="8.0241029"><ele>464.5</ele><time>2026-04-19T09:41:34.837Z</time></trkpt><trkpt lat="43.9507963" lon="8.0242597"><ele>461.25</ele><time>2026-04-19T09:41:35.837Z</time></trkpt><trkpt lat="43.9507366" lon="8.0244065"><ele>458.0</ele><time>2026-04-19T09:41:36.837Z</time></trkpt><trkpt lat="43.9506563" lon="8.0245098"><ele>458.0</ele><time>2026-04-19T09:41:37.837Z</time></trkpt><trkpt lat="43.950581" lon="8.0246008"><ele>457.99999999999994</ele><time>2026-04-19T09:41:38.837Z</time></trkpt><trkpt lat="43.9504915" lon="8.0246723"><ele>457.99999999999994</ele><time>2026-04-19T09:41:39.837Z</time></trkpt><trkpt lat="43.950395" lon="8.0247451"><ele>458.0</ele><time>2026-04-19T09:41:40.837Z</time></trkpt><trkpt lat="43.9502999" lon="8.0248305"><ele>458.0</ele><time>2026-04-19T09:41:41.837Z</time></trkpt><trkpt lat="43.9502057" lon="8.0249192"><ele>458.5</ele><time>2026-04-19T09:41:42.838Z</time></trkpt><trkpt lat="43.9501123" lon="8.0250156"><ele>459.0</ele><time>2026-04-19T09:41:43.837Z</time></trkpt><trkpt lat="43.950019" lon="8.0251069"><ele>459.5</ele><time>2026-04-19T09:41:44.837Z</time></trkpt><trkpt lat="43.9499285" lon="8.025205"><ele>460.0</ele><time>2026-04-19T09:41:45.838Z</time></trkpt><trkpt lat="43.9498398" lon="8.0253062"><ele>460.0</ele><time>2026-04-19T09:41:46.837Z</time></trkpt><trkpt lat="43.9497583" lon="8.0254043"><ele>460.0</ele><time>2026-04-19T09:41:47.836Z</time></trkpt><trkpt lat="43.9496854" lon="8.0254894"><ele>460.0</ele><time>2026-04-19T09:41:48.836Z</time></trkpt><trkpt lat="43.9496246" lon="8.025575"><ele>460.0</ele><time>2026-04-19T09:41:49.837Z</time></trkpt><trkpt lat="43.949586" lon="8.0256776"><ele>460.0</ele><time>2026-04-19T09:41:50.836Z</time></trkpt><trkpt lat="43.9495728" lon="8.0257983"><ele>462.0</ele><time>2026-04-19T09:41:51.837Z</time></trkpt><trkpt lat="43.9495893" lon="8.0259322"><ele>464.0</ele><time>2026-04-19T09:41:52.837Z</time></trkpt><trkpt lat="43.9496316" lon="8.0260579"><ele>466.0</ele><time>2026-04-19T09:41:53.837Z</time></trkpt><trkpt lat="43.9496854" lon="8.0261767"><ele>468.0</ele><time>2026-04-19T09:41:54.836Z</time></trkpt><trkpt lat="43.9497222" lon="8.0262856"><ele>470.0</ele><time>2026-04-19T09:41:55.837Z</time></trkpt><trkpt lat="43.9497518" lon="8.0264019"><ele>470.0</ele><time>2026-04-19T09:41:56.837Z</time></trkpt><trkpt lat="43.9497349" lon="8.0265113"><ele>470.0</ele><time>2026-04-19T09:41:57.837Z</time></trkpt><trkpt lat="43.9496847" lon="8.0266231"><ele>470.0</ele><time>2026-04-19T09:41:58.837Z</time></trkpt><trkpt lat="43.949627" lon="8.0267366"><ele>470.0</ele><time>2026-04-19T09:41:59.837Z</time></trkpt><trkpt lat="43.9495681" lon="8.0268657"><ele>470.0</ele><time>2026-04-19T09:42:00.837Z</time></trkpt><trkpt lat="43.9495094" lon="8.0269891"><ele>470.0</ele><time>2026-04-19T09:42:01.838Z</time></trkpt><trkpt lat="43.9494592" lon="8.0271186"><ele>470.0</ele><time>2026-04-19T09:42:02.838Z</time></trkpt><trkpt lat="43.9494004" lon="8.0272346"><ele>470.0</ele><time>2026-04-19T09:42:03.837Z</time></trkpt><trkpt lat="43.9493434" lon="8.027345"><ele>470.0</ele><time>2026-04-19T09:42:04.838Z</time></trkpt><trkpt lat="43.9492738" lon="8.0274658"><ele>470.0</ele><time>2026-04-19T09:42:05.838Z</time></trkpt><trkpt lat="43.9491939" lon="8.0275615"><ele>469.2</ele><time>2026-04-19T09:42:06.837Z</time></trkpt><trkpt lat="43.9491288" lon="8.0276694"><ele>468.4</ele><time>2026-04-19T09:42:07.838Z</time></trkpt><trkpt lat="43.9490559" lon="8.027792"><ele>467.6</ele><time>2026-04-19T09:42:08.837Z</time></trkpt><trkpt lat="43.9489833" lon="8.0279106"><ele>466.8</ele><time>2026-04-19T09:42:09.837Z</time></trkpt><trkpt lat="43.9489032" lon="8.0280268"><ele>466.0</ele><time>2026-04-19T09:42:10.836Z</time></trkpt><trkpt lat="43.9487991" lon="8.0281207"><ele>466.0</ele><time>2026-04-19T09:42:11.837Z</time></trkpt><trkpt lat="43.9486944" lon="8.0282206"><ele>466.0</ele><time>2026-04-19T09:42:12.838Z</time></trkpt><trkpt lat="43.9485804" lon="8.0283019"><ele>466.0</ele><time>2026-04-19T09:42:13.837Z</time></trkpt><trkpt lat="43.9484723" lon="8.0283574"><ele>466.0</ele><time>2026-04-19T09:42:14.837Z</time></trkpt><trkpt lat="43.9483717" lon="8.0284039"><ele>464.4</ele><time>2026-04-19T09:42:15.837Z</time></trkpt><trkpt lat="43.9482844" lon="8.0284709"><ele>462.8</ele><time>2026-04-19T09:42:16.837Z</time></trkpt><trkpt lat="43.9482087" lon="8.0285625"><ele>461.19999999999993</ele><time>2026-04-19T09:42:17.836Z</time></trkpt><trkpt lat="43.9481566" lon="8.0287068"><ele>459.59999999999997</ele><time>2026-04-19T09:42:18.837Z</time></trkpt><trkpt lat="43.9481084" lon="8.0288419"><ele>458.0</ele><time>2026-04-19T09:42:19.837Z</time></trkpt><trkpt lat="43.9480584" lon="8.0289751"><ele>458.0</ele><time>2026-04-19T09:42:20.838Z</time></trkpt><trkpt lat="43.9479599" lon="8.0290775"><ele>458.0</ele><time>2026-04-19T09:42:21.837Z</time></trkpt><trkpt lat="43.9478714" lon="8.029195"><ele>458.0</ele><time>2026-04-19T09:42:22.838Z</time></trkpt><trkpt lat="43.9477898" lon="8.0293303"><ele>458.0</ele><time>2026-04-19T09:42:23.837Z</time></trkpt><trkpt lat="43.9476996" lon="8.0294667"><ele>461.0</ele><time>2026-04-19T09:42:24.837Z</time></trkpt><trkpt lat="43.9476246" lon="8.0295832"><ele>464.0</ele><time>2026-04-19T09:42:25.837Z</time></trkpt><trkpt lat="43.9475271" lon="8.0296753"><ele>467.0</ele><time>2026-04-19T09:42:26.837Z</time></trkpt><trkpt lat="43.9474152" lon="8.0297278"><ele>470.0</ele><time>2026-04-19T09:42:27.836Z</time></trkpt><trkpt lat="43.9473023" lon="8.0297544"><ele>467.8</ele><time>2026-04-19T09:42:28.837Z</time></trkpt><trkpt lat="43.9472125" lon="8.0298167"><ele>465.6</ele><time>2026-04-19T09:42:29.838Z</time></trkpt><trkpt lat="43.9471519" lon="8.0298983"><ele>463.4</ele><time>2026-04-19T09:42:30.837Z</time></trkpt><trkpt lat="43.9470887" lon="8.0300027"><ele>461.2</ele><time>2026-04-19T09:42:31.837Z</time></trkpt><trkpt lat="43.9470406" lon="8.0301176"><ele>459.0</ele><time>2026-04-19T09:42:32.837Z</time></trkpt><trkpt lat="43.9470076" lon="8.0302663"><ele>459.0</ele><time>2026-04-19T09:42:33.837Z</time></trkpt><trkpt lat="43.9469695" lon="8.0303915"><ele>459.0</ele><time>2026-04-19T09:42:34.838Z</time></trkpt><trkpt lat="43.9469225" lon="8.0304744"><ele>459.0</ele><time>2026-04-19T09:42:35.837Z</time></trkpt><trkpt lat="43.9468844" lon="8.0305522"><ele>459.0</ele><time>2026-04-19T09:42:36.836Z</time></trkpt><trkpt lat="43.9468107" lon="8.0305224"><ele>459.0</ele><time>2026-04-19T09:42:37.837Z</time></trkpt><trkpt lat="43.9467368" lon="8.0304909"><ele>459.0</ele><time>2026-04-19T09:42:38.837Z</time></trkpt><trkpt lat="43.946648" lon="8.0304529"><ele>454.75</ele><time>2026-04-19T09:42:39.837Z</time></trkpt><trkpt lat="43.9465471" lon="8.030401"><ele>450.5</ele><time>2026-04-19T09:42:40.837Z</time></trkpt><trkpt lat="43.9464397" lon="8.0303328"><ele>446.25</ele><time>2026-04-19T09:42:41.838Z</time></trkpt><trkpt lat="43.9463289" lon="8.0302421"><ele>442.0</ele><time>2026-04-19T09:42:42.837Z</time></trkpt><trkpt lat="43.9462281" lon="8.0301658"><ele>442.00000000000006</ele><time>2026-04-19T09:42:43.837Z</time></trkpt><trkpt lat="43.9461308" lon="8.0300757"><ele>442.0</ele><time>2026-04-19T09:42:44.836Z</time></trkpt><trkpt lat="43.9460396" lon="8.0300136"><ele>442.0</ele><time>2026-04-19T09:42:45.837Z</time></trkpt><trkpt lat="43.9459632" lon="8.0300083"><ele>442.0</ele><time>2026-04-19T09:42:46.837Z</time></trkpt><trkpt lat="43.9458928" lon="8.0300496"><ele>442.00000000000006</ele><time>2026-04-19T09:42:47.836Z</time></trkpt><trkpt lat="43.9458533" lon="8.0301305"><ele>442.0</ele><time>2026-04-19T09:42:48.837Z</time></trkpt><trkpt lat="43.945832" lon="8.0302385"><ele>441.20000000000005</ele><time>2026-04-19T09:42:49.837Z</time></trkpt><trkpt lat="43.9458029" lon="8.0303575"><ele>440.40000000000003</ele><time>2026-04-19T09:42:50.836Z</time></trkpt><trkpt lat="43.9457686" lon="8.0304925"><ele>439.59999999999997</ele><time>2026-04-19T09:42:51.837Z</time></trkpt><trkpt lat="43.9457223" lon="8.0306362"><ele>438.79999999999995</ele><time>2026-04-19T09:42:52.837Z</time></trkpt><trkpt lat="43.9456522" lon="8.0307801"><ele>438.0</ele><time>2026-04-19T09:42:53.836Z</time></trkpt><trkpt lat="43.9455669" lon="8.030926"><ele>442.5</ele><time>2026-04-19T09:42:54.837Z</time></trkpt><trkpt lat="43.9454589" lon="8.0310364"><ele>447.0</ele><time>2026-04-19T09:42:55.838Z</time></trkpt><trkpt lat="43.9453699" lon="8.0311577"><ele>451.5</ele><time>2026-04-19T09:42:56.837Z</time></trkpt><trkpt lat="43.9453005" lon="8.0312716"><ele>456.0</ele><time>2026-04-19T09:42:57.837Z</time></trkpt><trkpt lat="43.9452159" lon="8.0313547"><ele>456.0</ele><time>2026-04-19T09:42:58.836Z</time></trkpt><trkpt lat="43.9451432" lon="8.0313816"><ele>456.0</ele><time>2026-04-19T09:42:59.836Z</time></trkpt><trkpt lat="43.9450349" lon="8.0313642"><ele>456.0</ele><time>2026-04-19T09:43:00.836Z</time></trkpt><trkpt lat="43.9449261" lon="8.0313198"><ele>456.0</ele><time>2026-04-19T09:43:01.837Z</time></trkpt><trkpt lat="43.9448533" lon="8.0312447"><ele>456.0</ele><time>2026-04-19T09:43:02.837Z</time></trkpt><trkpt lat="43.9447902" lon="8.0311396"><ele>451.8</ele><time>2026-04-19T09:43:03.836Z</time></trkpt><trkpt lat="43.9447312" lon="8.0310236"><ele>447.6</ele><time>2026-04-19T09:43:04.837Z</time></trkpt><trkpt lat="43.9446548" lon="8.030962"><ele>443.4</ele><time>2026-04-19T09:43:05.837Z</time></trkpt><trkpt lat="43.9445649" lon="8.0309631"><ele>439.2</ele><time>2026-04-19T09:43:06.837Z</time></trkpt><trkpt lat="43.9444707" lon="8.0310038"><ele>435.0</ele><time>2026-04-19T09:43:07.837Z</time></trkpt><trkpt lat="43.9443709" lon="8.0310438"><ele>435.0</ele><time>2026-04-19T09:43:08.837Z</time></trkpt><trkpt lat="43.944269" lon="8.0310691"><ele>435.0</ele><time>2026-04-19T09:43:09.836Z</time></trkpt><trkpt lat="43.9441727" lon="8.0311262"><ele>435.0</ele><time>2026-04-19T09:43:10.837Z</time></trkpt><trkpt lat="43.9440945" lon="8.0312139"><ele>435.0</ele><time>2026-04-19T09:43:11.837Z</time></trkpt><trkpt lat="43.9440374" lon="8.0313318"><ele>435.0</ele><time>2026-04-19T09:43:12.836Z</time></trkpt><trkpt lat="43.9439976" lon="8.0314788"><ele>434.25</ele><time>2026-04-19T09:43:13.836Z</time></trkpt><trkpt lat="43.9439573" lon="8.0316348"><ele>433.5</ele><time>2026-04-19T09:43:14.837Z</time></trkpt><trkpt lat="43.9439143" lon="8.0317921"><ele>432.75</ele><time>2026-04-19T09:43:15.837Z</time></trkpt><trkpt lat="43.9438545" lon="8.0319414"><ele>432.0</ele><time>2026-04-19T09:43:16.837Z</time></trkpt><trkpt lat="43.9437736" lon="8.0320827"><ele>436.0</ele><time>2026-04-19T09:43:17.837Z</time></trkpt><trkpt lat="43.9436777" lon="8.0322192"><ele>440.0</ele><time>2026-04-19T09:43:18.836Z</time></trkpt><trkpt lat="43.9435796" lon="8.0323621"><ele>444.0</ele><time>2026-04-19T09:43:19.838Z</time></trkpt><trkpt lat="43.9434878" lon="8.0325037"><ele>448.0</ele><time>2026-04-19T09:43:20.837Z</time></trkpt><trkpt lat="43.943392" lon="8.0326429"><ele>444.5</ele><time>2026-04-19T09:43:21.837Z</time></trkpt><trkpt lat="43.9432907" lon="8.032774"><ele>441.0</ele><time>2026-04-19T09:43:22.837Z</time></trkpt><trkpt lat="43.9431787" lon="8.0328764"><ele>437.5</ele><time>2026-04-19T09:43:23.836Z</time></trkpt><trkpt lat="43.9430513" lon="8.032955"><ele>434.0</ele><time>2026-04-19T09:43:24.837Z</time></trkpt><trkpt lat="43.9429217" lon="8.0330114"><ele>434.0</ele><time>2026-04-19T09:43:25.836Z</time></trkpt><trkpt lat="43.9427902" lon="8.033058"><ele>434.0</ele><time>2026-04-19T09:43:26.838Z</time></trkpt><trkpt lat="43.9426558" lon="8.0331011"><ele>434.0</ele><time>2026-04-19T09:43:27.836Z</time></trkpt><trkpt lat="43.9425265" lon="8.0331205"><ele>434.0</ele><time>2026-04-19T09:43:28.837Z</time></trkpt><trkpt lat="43.9423994" lon="8.0331256"><ele>431.5</ele><time>2026-04-19T09:43:29.837Z</time></trkpt><trkpt lat="43.9422757" lon="8.0330835"><ele>429.0</ele><time>2026-04-19T09:43:30.838Z</time></trkpt><trkpt lat="43.9421565" lon="8.0330219"><ele>426.5</ele><time>2026-04-19T09:43:31.837Z</time></trkpt><trkpt lat="43.9420395" lon="8.0329654"><ele>424.0</ele><time>2026-04-19T09:43:32.837Z</time></trkpt><trkpt lat="43.9419274" lon="8.0329417"><ele>424.0</ele><time>2026-04-19T09:43:33.837Z</time></trkpt><trkpt lat="43.9418245" lon="8.0329616"><ele>424.0</ele><time>2026-04-19T09:43:34.838Z</time></trkpt><trkpt lat="43.9417377" lon="8.0330201"><ele>424.0</ele><time>2026-04-19T09:43:35.838Z</time></trkpt><trkpt lat="43.9416685" lon="8.0331113"><ele>424.0</ele><time>2026-04-19T09:43:36.837Z</time></trkpt><trkpt lat="43.9416171" lon="8.0332264"><ele>424.0</ele><time>2026-04-19T09:43:37.836Z</time></trkpt><trkpt lat="43.9415665" lon="8.0333568"><ele>426.79999999999995</ele><time>2026-04-19T09:43:38.837Z</time></trkpt><trkpt lat="43.9415208" lon="8.0334761"><ele>429.59999999999997</ele><time>2026-04-19T09:43:39.837Z</time></trkpt><trkpt lat="43.941468" lon="8.0335984"><ele>432.4</ele><time>2026-04-19T09:43:40.836Z</time></trkpt><trkpt lat="43.941385" lon="8.0337075"><ele>435.2</ele><time>2026-04-19T09:43:41.837Z</time></trkpt><trkpt lat="43.9413042" lon="8.0338151"><ele>438.0</ele><time>2026-04-19T09:43:42.837Z</time></trkpt><trkpt lat="43.9412192" lon="8.033911"><ele>438.0</ele><time>2026-04-19T09:43:43.837Z</time></trkpt><trkpt lat="43.9411292" lon="8.0339895"><ele>438.0</ele><time>2026-04-19T09:43:44.837Z</time></trkpt><trkpt lat="43.9410365" lon="8.0340716"><ele>438.0</ele><time>2026-04-19T09:43:45.836Z</time></trkpt><trkpt lat="43.9409252" lon="8.0341241"><ele>438.0</ele><time>2026-04-19T09:43:46.837Z</time></trkpt><trkpt lat="43.9407986" lon="8.0341608"><ele>437.2</ele><time>2026-04-19T09:43:47.837Z</time></trkpt><trkpt lat="43.9406764" lon="8.0342014"><ele>436.4</ele><time>2026-04-19T09:43:48.837Z</time></trkpt><trkpt lat="43.9405626" lon="8.0342475"><ele>435.59999999999997</ele><time>2026-04-19T09:43:49.837Z</time></trkpt><trkpt lat="43.9404754" lon="8.0342856"><ele>434.79999999999995</ele><time>2026-04-19T09:43:50.836Z</time></trkpt><trkpt lat="43.9404075" lon="8.034326"><ele>434.0</ele><time>2026-04-19T09:43:51.837Z</time></trkpt><trkpt lat="43.9403228" lon="8.0343881"><ele>433.99999999999994</ele><time>2026-04-19T09:43:53.837Z</time></trkpt><trkpt lat="43.9402619" lon="8.0344215"><ele>434.0</ele><time>2026-04-19T09:43:59.837Z</time></trkpt><trkpt lat="43.9402064" lon="8.0343708"><ele>434.0</ele><time>2026-04-19T09:44:08.838Z</time></trkpt><trkpt lat="43.9401945" lon="8.0344747"><ele>434.0</ele><time>2026-04-19T09:45:49.837Z</time></trkpt><trkpt lat="43.9401018" lon="8.0345281"><ele>433.99999999999994</ele><time>2026-04-19T09:45:52.836Z</time></trkpt><trkpt lat="43.9400147" lon="8.0345158"><ele>434.0</ele><time>2026-04-19T09:45:53.836Z</time></trkpt><trkpt lat="43.9399294" lon="8.0344842"><ele>433.0</ele><time>2026-04-19T09:45:54.836Z</time></trkpt><trkpt lat="43.9398408" lon="8.0344499"><ele>432.0</ele><time>2026-04-19T09:45:55.837Z</time></trkpt><trkpt lat="43.9397552" lon="8.034426"><ele>431.0</ele><time>2026-04-19T09:45:56.837Z</time></trkpt><trkpt lat="43.939658" lon="8.0344106"><ele>430.0</ele><time>2026-04-19T09:45:57.837Z</time></trkpt><trkpt lat="43.93956" lon="8.0344184"><ele>429.0</ele><time>2026-04-19T09:45:58.836Z</time></trkpt><trkpt lat="43.9394507" lon="8.0344477"><ele>429.0</ele><time>2026-04-19T09:45:59.835Z</time></trkpt><trkpt lat="43.9393386" lon="8.0344645"><ele>429.0</ele><time>2026-04-19T09:46:00.837Z</time></trkpt><trkpt lat="43.9392305" lon="8.0344875"><ele>429.0</ele><time>2026-04-19T09:46:01.837Z</time></trkpt><trkpt lat="43.9391416" lon="8.0344825"><ele>429.0</ele><time>2026-04-19T09:46:02.837Z</time></trkpt><trkpt lat="43.9390691" lon="8.0344486"><ele>429.0</ele><time>2026-04-19T09:46:03.837Z</time></trkpt><trkpt lat="43.9389846" lon="8.0343746"><ele>429.4</ele><time>2026-04-19T09:46:04.837Z</time></trkpt><trkpt lat="43.9388896" lon="8.034301"><ele>429.79999999999995</ele><time>2026-04-19T09:46:05.837Z</time></trkpt><trkpt lat="43.9387947" lon="8.0342357"><ele>430.20000000000005</ele><time>2026-04-19T09:46:06.836Z</time></trkpt><trkpt lat="43.9387254" lon="8.0341975"><ele>430.6</ele><time>2026-04-19T09:46:07.837Z</time></trkpt><trkpt lat="43.9386221" lon="8.0342214"><ele>431.0</ele><time>2026-04-19T09:46:09.837Z</time></trkpt><trkpt lat="43.9386258" lon="8.0343614"><ele>431.0</ele><time>2026-04-19T09:46:11.837Z</time></trkpt><trkpt lat="43.9387649" lon="8.0344713"><ele>431.0</ele><time>2026-04-19T09:46:13.837Z</time></trkpt><trkpt lat="43.9388498" lon="8.0345464"><ele>431.0</ele><time>2026-04-19T09:46:14.837Z</time></trkpt><trkpt lat="43.9389145" lon="8.0346486"><ele>431.0</ele><time>2026-04-19T09:46:15.837Z</time></trkpt><trkpt lat="43.9389554" lon="8.0347698"><ele>431.0</ele><time>2026-04-19T09:46:16.837Z</time></trkpt><trkpt lat="43.9389813" lon="8.0348988"><ele>431.0</ele><time>2026-04-19T09:46:17.835Z</time></trkpt><trkpt lat="43.9390118" lon="8.0350144"><ele>431.0</ele><time>2026-04-19T09:46:18.836Z</time></trkpt><trkpt lat="43.9390536" lon="8.0350923"><ele>431.0</ele><time>2026-04-19T09:46:19.837Z</time></trkpt><trkpt lat="43.9391705" lon="8.035134"><ele>431.0</ele><time>2026-04-19T09:46:21.837Z</time></trkpt><trkpt lat="43.9392502" lon="8.0351161"><ele>427.75</ele><time>2026-04-19T09:46:22.837Z</time></trkpt><trkpt lat="43.9393544" lon="8.0351048"><ele>424.5</ele><time>2026-04-19T09:46:23.837Z</time></trkpt><trkpt lat="43.9394723" lon="8.0351253"><ele>421.25</ele><time>2026-04-19T09:46:24.837Z</time></trkpt><trkpt lat="43.9395911" lon="8.0351584"><ele>418.0</ele><time>2026-04-19T09:46:25.838Z</time></trkpt><trkpt lat="43.9397069" lon="8.0352024"><ele>418.0</ele><time>2026-04-19T09:46:26.838Z</time></trkpt><trkpt lat="43.9398126" lon="8.0352778"><ele>418.0</ele><time>2026-04-19T09:46:27.838Z</time></trkpt><trkpt lat="43.9399101" lon="8.0353697"><ele>418.0</ele><time>2026-04-19T09:46:28.837Z</time></trkpt><trkpt lat="43.9400216" lon="8.0354273"><ele>418.0</ele><time>2026-04-19T09:46:29.837Z</time></trkpt><trkpt lat="43.9401312" lon="8.0354889"><ele>418.5</ele><time>2026-04-19T09:46:30.836Z</time></trkpt><trkpt lat="43.9402528" lon="8.0355701"><ele>419.0</ele><time>2026-04-19T09:46:31.836Z</time></trkpt><trkpt lat="43.9403729" lon="8.0356554"><ele>419.5</ele><time>2026-04-19T09:46:32.837Z</time></trkpt><trkpt lat="43.940473" lon="8.0357642"><ele>420.0</ele><time>2026-04-19T09:46:33.835Z</time></trkpt><trkpt lat="43.9405527" lon="8.0358791"><ele>420.0</ele><time>2026-04-19T09:46:34.836Z</time></trkpt><trkpt lat="43.9406097" lon="8.0360209"><ele>420.0</ele><time>2026-04-19T09:46:35.837Z</time></trkpt><trkpt lat="43.9406501" lon="8.0361739"><ele>420.0</ele><time>2026-04-19T09:46:36.837Z</time></trkpt><trkpt lat="43.9406364" lon="8.0363379"><ele>420.0</ele><time>2026-04-19T09:46:37.837Z</time></trkpt><trkpt lat="43.9406339" lon="8.0364871"><ele>420.0</ele><time>2026-04-19T09:46:38.837Z</time></trkpt><trkpt lat="43.9406495" lon="8.0366152"><ele>420.0</ele><time>2026-04-19T09:46:39.837Z</time></trkpt><trkpt lat="43.9406959" lon="8.0367081"><ele>420.0</ele><time>2026-04-19T09:46:40.836Z</time></trkpt><trkpt lat="43.9407667" lon="8.0367527"><ele>420.0</ele><time>2026-04-19T09:46:41.837Z</time></trkpt><trkpt lat="43.9408552" lon="8.036749"><ele>420.0</ele><time>2026-04-19T09:46:42.837Z</time></trkpt><trkpt lat="43.9409466" lon="8.0367405"><ele>420.0</ele><time>2026-04-19T09:46:43.836Z</time></trkpt><trkpt lat="43.9410425" lon="8.0367835"><ele>420.0</ele><time>2026-04-19T09:46:44.837Z</time></trkpt><trkpt lat="43.9411427" lon="8.0368731"><ele>420.0</ele><time>2026-04-19T09:46:45.836Z</time></trkpt><trkpt lat="43.9412397" lon="8.0369931"><ele>420.0</ele><time>2026-04-19T09:46:46.837Z</time></trkpt><trkpt lat="43.9413361" lon="8.0371382"><ele>420.0</ele><time>2026-04-19T09:46:47.837Z</time></trkpt><trkpt lat="43.9414206" lon="8.0373171"><ele>413.33333333333337</ele><time>2026-04-19T09:46:48.837Z</time></trkpt><trkpt lat="43.9415013" lon="8.0375166"><ele>406.6666666666667</ele><time>2026-04-19T09:46:49.837Z</time></trkpt><trkpt lat="43.9415871" lon="8.03772"><ele>400.0</ele><time>2026-04-19T09:46:50.837Z</time></trkpt><trkpt lat="43.9416969" lon="8.0378997"><ele>398.33333333333337</ele><time>2026-04-19T09:46:51.837Z</time></trkpt><trkpt lat="43.9417984" lon="8.0380675"><ele>396.66666666666663</ele><time>2026-04-19T09:46:52.837Z</time></trkpt><trkpt lat="43.9418828" lon="8.0382428"><ele>395.0</ele><time>2026-04-19T09:46:53.837Z</time></trkpt><trkpt lat="43.941953" lon="8.0384136"><ele>395.0</ele><time>2026-04-19T09:46:54.836Z</time></trkpt><trkpt lat="43.9420173" lon="8.0385635"><ele>395.0</ele><time>2026-04-19T09:46:55.837Z</time></trkpt><trkpt lat="43.9420701" lon="8.0386818"><ele>395.0</ele><time>2026-04-19T09:46:56.837Z</time></trkpt><trkpt lat="43.9421199" lon="8.0387527"><ele>395.0</ele><time>2026-04-19T09:46:57.836Z</time></trkpt><trkpt lat="43.942185" lon="8.0387884"><ele>395.0</ele><time>2026-04-19T09:46:58.838Z</time></trkpt><trkpt lat="43.9422752" lon="8.0387892"><ele>395.0</ele><time>2026-04-19T09:46:59.837Z</time></trkpt><trkpt lat="43.9423756" lon="8.0387767"><ele>395.0</ele><time>2026-04-19T09:47:00.838Z</time></trkpt><trkpt lat="43.9424782" lon="8.0388003"><ele>395.0</ele><time>2026-04-19T09:47:01.838Z</time></trkpt><trkpt lat="43.9425783" lon="8.0388469"><ele>395.0</ele><time>2026-04-19T09:47:02.838Z</time></trkpt><trkpt lat="43.9426753" lon="8.0389174"><ele>395.0</ele><time>2026-04-19T09:47:03.837Z</time></trkpt><trkpt lat="43.9427715" lon="8.0389961"><ele>395.4</ele><time>2026-04-19T09:47:04.835Z</time></trkpt><trkpt lat="43.9428619" lon="8.0390748"><ele>395.8</ele><time>2026-04-19T09:47:05.838Z</time></trkpt><trkpt lat="43.9429443" lon="8.0391707"><ele>396.20000000000005</ele><time>2026-04-19T09:47:06.837Z</time></trkpt><trkpt lat="43.9430261" lon="8.0392815"><ele>396.6</ele><time>2026-04-19T09:47:07.836Z</time></trkpt><trkpt lat="43.9431152" lon="8.0393771"><ele>397.0</ele><time>2026-04-19T09:47:08.837Z</time></trkpt><trkpt lat="43.9432155" lon="8.0394556"><ele>395.75</ele><time>2026-04-19T09:47:09.838Z</time></trkpt><trkpt lat="43.9433164" lon="8.0395309"><ele>394.5</ele><time>2026-04-19T09:47:10.835Z</time></trkpt><trkpt lat="43.9434167" lon="8.0396254"><ele>393.25</ele><time>2026-04-19T09:47:11.837Z</time></trkpt><trkpt lat="43.9435089" lon="8.0397287"><ele>392.0</ele><time>2026-04-19T09:47:12.837Z</time></trkpt><trkpt lat="43.9435832" lon="8.0398451"><ele>386.0</ele><time>2026-04-19T09:47:13.837Z</time></trkpt><trkpt lat="43.9436476" lon="8.0399712"><ele>380.0</ele><time>2026-04-19T09:47:14.837Z</time></trkpt><trkpt lat="43.9437072" lon="8.040102"><ele>374.0</ele><time>2026-04-19T09:47:15.836Z</time></trkpt><trkpt lat="43.9437763" lon="8.0402297"><ele>368.0</ele><time>2026-04-19T09:47:16.836Z</time></trkpt><trkpt lat="43.943857" lon="8.0403484"><ele>368.0</ele><time>2026-04-19T09:47:17.837Z</time></trkpt><trkpt lat="43.9439497" lon="8.0404555"><ele>368.0</ele><time>2026-04-19T09:47:18.836Z</time></trkpt><trkpt lat="43.9440372" lon="8.0405523"><ele>368.0</ele><time>2026-04-19T09:47:19.837Z</time></trkpt><trkpt lat="43.9441024" lon="8.040639"><ele>368.0</ele><time>2026-04-19T09:47:20.836Z</time></trkpt><trkpt lat="43.9441565" lon="8.0407045"><ele>368.0</ele><time>2026-04-19T09:47:21.837Z</time></trkpt><trkpt lat="43.9442857" lon="8.0407063"><ele>365.4</ele><time>2026-04-19T09:47:23.838Z</time></trkpt><trkpt lat="43.9443654" lon="8.0406459"><ele>362.79999999999995</ele><time>2026-04-19T09:47:24.837Z</time></trkpt><trkpt lat="43.9444596" lon="8.0405733"><ele>360.2</ele><time>2026-04-19T09:47:25.837Z</time></trkpt><trkpt lat="43.9445616" lon="8.0405085"><ele>357.6</ele><time>2026-04-19T09:47:26.837Z</time></trkpt><trkpt lat="43.944654" lon="8.0404476"><ele>355.0</ele><time>2026-04-19T09:47:27.836Z</time></trkpt><trkpt lat="43.9447502" lon="8.04039"><ele>355.0</ele><time>2026-04-19T09:47:28.836Z</time></trkpt><trkpt lat="43.9448582" lon="8.0403445"><ele>355.0</ele><time>2026-04-19T09:47:29.836Z</time></trkpt><trkpt lat="43.9449631" lon="8.0402855"><ele>355.0</ele><time>2026-04-19T09:47:30.838Z</time></trkpt><trkpt lat="43.9450504" lon="8.040191"><ele>355.0</ele><time>2026-04-19T09:47:31.837Z</time></trkpt><trkpt lat="43.9451273" lon="8.0400902"><ele>355.0</ele><time>2026-04-19T09:47:32.836Z</time></trkpt><trkpt lat="43.9451979" lon="8.0400297"><ele>353.5</ele><time>2026-04-19T09:47:33.836Z</time></trkpt><trkpt lat="43.945263" lon="8.0400127"><ele>352.0</ele><time>2026-04-19T09:47:34.836Z</time></trkpt><trkpt lat="43.9453349" lon="8.0400512"><ele>350.5</ele><time>2026-04-19T09:47:35.836Z</time></trkpt><trkpt lat="43.9454086" lon="8.0401238"><ele>349.0</ele><time>2026-04-19T09:47:36.838Z</time></trkpt><trkpt lat="43.9454776" lon="8.0402203"><ele>347.5</ele><time>2026-04-19T09:47:37.835Z</time></trkpt><trkpt lat="43.9455565" lon="8.0403201"><ele>346.0</ele><time>2026-04-19T09:47:38.837Z</time></trkpt><trkpt lat="43.9456468" lon="8.0403967"><ele>346.0</ele><time>2026-04-19T09:47:39.837Z</time></trkpt><trkpt lat="43.945738" lon="8.0404554"><ele>346.0</ele><time>2026-04-19T09:47:40.836Z</time></trkpt><trkpt lat="43.9458331" lon="8.0405056"><ele>346.0</ele><time>2026-04-19T09:47:41.837Z</time></trkpt><trkpt lat="43.9459379" lon="8.0405438"><ele>346.0</ele><time>2026-04-19T09:47:42.837Z</time></trkpt><trkpt lat="43.946052" lon="8.0405659"><ele>346.0</ele><time>2026-04-19T09:47:43.837Z</time></trkpt><trkpt lat="43.9461652" lon="8.0405914"><ele>344.8</ele><time>2026-04-19T09:47:44.836Z</time></trkpt><trkpt lat="43.9462677" lon="8.0406108"><ele>343.6</ele><time>2026-04-19T09:47:45.836Z</time></trkpt><trkpt lat="43.9463678" lon="8.0406274"><ele>342.4</ele><time>2026-04-19T09:47:46.837Z</time></trkpt><trkpt lat="43.9464607" lon="8.0406392"><ele>341.2</ele><time>2026-04-19T09:47:47.836Z</time></trkpt><trkpt lat="43.946553" lon="8.0406541"><ele>340.0</ele><time>2026-04-19T09:47:48.835Z</time></trkpt><trkpt lat="43.946645" lon="8.0406723"><ele>337.66666666666663</ele><time>2026-04-19T09:47:49.836Z</time></trkpt><trkpt lat="43.9467237" lon="8.040685"><ele>335.3333333333333</ele><time>2026-04-19T09:47:50.836Z</time></trkpt><trkpt lat="43.9468055" lon="8.040683"><ele>333.0</ele><time>2026-04-19T09:47:51.837Z</time></trkpt><trkpt lat="43.9468824" lon="8.0406898"><ele>330.6666666666667</ele><time>2026-04-19T09:47:52.835Z</time></trkpt><trkpt lat="43.9469757" lon="8.0406568"><ele>328.33333333333337</ele><time>2026-04-19T09:47:54.837Z</time></trkpt><trkpt lat="43.9469864" lon="8.0405199"><ele>326.0</ele><time>2026-04-19T09:47:56.837Z</time></trkpt><trkpt lat="43.9469821" lon="8.0404286"><ele>326.0</ele><time>2026-04-19T09:47:57.836Z</time></trkpt><trkpt lat="43.9469633" lon="8.0403179"><ele>326.0</ele><time>2026-04-19T09:47:58.837Z</time></trkpt><trkpt lat="43.9469458" lon="8.0402085"><ele>326.0</ele><time>2026-04-19T09:47:59.835Z</time></trkpt><trkpt lat="43.9469477" lon="8.0401103"><ele>326.0</ele><time>2026-04-19T09:48:00.836Z</time></trkpt><trkpt lat="43.9470298" lon="8.0399903"><ele>326.0</ele><time>2026-04-19T09:48:02.837Z</time></trkpt><trkpt lat="43.9471034" lon="8.0399816"><ele>326.0</ele><time>2026-04-19T09:48:03.836Z</time></trkpt><trkpt lat="43.9471853" lon="8.0399838"><ele>326.0</ele><time>2026-04-19T09:48:04.837Z</time></trkpt><trkpt lat="43.9472819" lon="8.0399755"><ele>326.0</ele><time>2026-04-19T09:48:05.837Z</time></trkpt><trkpt lat="43.9473835" lon="8.039955"><ele>326.0</ele><time>2026-04-19T09:48:06.836Z</time></trkpt><trkpt lat="43.9474941" lon="8.0399267"><ele>326.0</ele><time>2026-04-19T09:48:07.836Z</time></trkpt><trkpt lat="43.9476076" lon="8.0398886"><ele>326.0</ele><time>2026-04-19T09:48:08.835Z</time></trkpt><trkpt lat="43.9477156" lon="8.0398436"><ele>328.6</ele><time>2026-04-19T09:48:09.835Z</time></trkpt><trkpt lat="43.9478216" lon="8.0398034"><ele>331.20000000000005</ele><time>2026-04-19T09:48:10.837Z</time></trkpt><trkpt lat="43.9479265" lon="8.0397743"><ele>333.79999999999995</ele><time>2026-04-19T09:48:11.835Z</time></trkpt><trkpt lat="43.9480336" lon="8.0397672"><ele>336.4</ele><time>2026-04-19T09:48:12.836Z</time></trkpt><trkpt lat="43.9481403" lon="8.039792"><ele>339.0</ele><time>2026-04-19T09:48:13.836Z</time></trkpt><trkpt lat="43.948239" lon="8.0398149"><ele>339.0</ele><time>2026-04-19T09:48:14.838Z</time></trkpt><trkpt lat="43.9483303" lon="8.0398279"><ele>339.0</ele><time>2026-04-19T09:48:15.836Z</time></trkpt><trkpt lat="43.9484243" lon="8.0397883"><ele>339.0</ele><time>2026-04-19T09:48:16.837Z</time></trkpt><trkpt lat="43.9485083" lon="8.0397418"><ele>339.0</ele><time>2026-04-19T09:48:17.837Z</time></trkpt><trkpt lat="43.9485862" lon="8.0397441"><ele>339.0</ele><time>2026-04-19T09:48:18.838Z</time></trkpt><trkpt lat="43.9486704" lon="8.0397819"><ele>339.0</ele><time>2026-04-19T09:48:19.837Z</time></trkpt><trkpt lat="43.94876" lon="8.0398442"><ele>339.5</ele><time>2026-04-19T09:48:20.837Z</time></trkpt><trkpt lat="43.9488459" lon="8.0399133"><ele>340.0</ele><time>2026-04-19T09:48:21.837Z</time></trkpt><trkpt lat="43.9489268" lon="8.0399803"><ele>340.5</ele><time>2026-04-19T09:48:22.837Z</time></trkpt><trkpt lat="43.9490036" lon="8.0400396"><ele>341.0</ele><time>2026-04-19T09:48:23.838Z</time></trkpt><trkpt lat="43.9490701" lon="8.0400912"><ele>341.5</ele><time>2026-04-19T09:48:24.836Z</time></trkpt><trkpt lat="43.9491246" lon="8.0401429"><ele>342.0</ele><time>2026-04-19T09:48:25.836Z</time></trkpt><trkpt lat="43.9491581" lon="8.040224"><ele>341.1666666666667</ele><time>2026-04-19T09:48:26.836Z</time></trkpt><trkpt lat="43.9491788" lon="8.0403289"><ele>340.3333333333333</ele><time>2026-04-19T09:48:27.838Z</time></trkpt><trkpt lat="43.9492082" lon="8.040427"><ele>339.5</ele><time>2026-04-19T09:48:28.837Z</time></trkpt><trkpt lat="43.94924" lon="8.0405067"><ele>338.66666666666663</ele><time>2026-04-19T09:48:29.836Z</time></trkpt><trkpt lat="43.9493349" lon="8.0405679"><ele>337.8333333333333</ele><time>2026-04-19T09:48:31.836Z</time></trkpt><trkpt lat="43.9493603" lon="8.0406687"><ele>337.0</ele><time>2026-04-19T09:48:33.837Z</time></trkpt><trkpt lat="43.9493299" lon="8.0407476"><ele>335.16666666666663</ele><time>2026-04-19T09:48:34.837Z</time></trkpt><trkpt lat="43.9492848" lon="8.0408396"><ele>333.3333333333333</ele><time>2026-04-19T09:48:35.836Z</time></trkpt><trkpt lat="43.9492227" lon="8.0409241"><ele>331.5</ele><time>2026-04-19T09:48:36.838Z</time></trkpt><trkpt lat="43.9491847" lon="8.0410381"><ele>329.6666666666667</ele><time>2026-04-19T09:48:37.837Z</time></trkpt><trkpt lat="43.9491768" lon="8.0411645"><ele>327.83333333333337</ele><time>2026-04-19T09:48:38.837Z</time></trkpt><trkpt lat="43.9491797" lon="8.0413002"><ele>326.0</ele><time>2026-04-19T09:48:39.836Z</time></trkpt><trkpt lat="43.9491819" lon="8.0414485"><ele>324.0</ele><time>2026-04-19T09:48:40.838Z</time></trkpt><trkpt lat="43.9491783" lon="8.0415628"><ele>322.0</ele><time>2026-04-19T09:48:41.836Z</time></trkpt><trkpt lat="43.949148" lon="8.0416507"><ele>320.0</ele><time>2026-04-19T09:48:42.836Z</time></trkpt><trkpt lat="43.9490692" lon="8.041707"><ele>318.0</ele><time>2026-04-19T09:48:43.836Z</time></trkpt><trkpt lat="43.9489729" lon="8.0417398"><ele>316.0</ele><time>2026-04-19T09:48:44.837Z</time></trkpt><trkpt lat="43.9488761" lon="8.0417628"><ele>314.0</ele><time>2026-04-19T09:48:45.837Z</time></trkpt><trkpt lat="43.9487719" lon="8.0417582"><ele>313.59999999999997</ele><time>2026-04-19T09:48:46.837Z</time></trkpt><trkpt lat="43.9486615" lon="8.0417373"><ele>313.2</ele><time>2026-04-19T09:48:47.836Z</time></trkpt><trkpt lat="43.9485544" lon="8.0416931"><ele>312.79999999999995</ele><time>2026-04-19T09:48:48.836Z</time></trkpt><trkpt lat="43.948457" lon="8.041644"><ele>312.4</ele><time>2026-04-19T09:48:49.836Z</time></trkpt><trkpt lat="43.9483648" lon="8.0416205"><ele>312.0</ele><time>2026-04-19T09:48:50.838Z</time></trkpt><trkpt lat="43.94827" lon="8.041645"><ele>309.75</ele><time>2026-04-19T09:48:51.836Z</time></trkpt><trkpt lat="43.9481726" lon="8.0417231"><ele>307.5</ele><time>2026-04-19T09:48:52.837Z</time></trkpt><trkpt lat="43.9480786" lon="8.0418388"><ele>305.25</ele><time>2026-04-19T09:48:53.836Z</time></trkpt><trkpt lat="43.9479899" lon="8.0419687"><ele>303.0</ele><time>2026-04-19T09:48:54.836Z</time></trkpt><trkpt lat="43.9478681" lon="8.042049"><ele>303.0</ele><time>2026-04-19T09:48:55.836Z</time></trkpt><trkpt lat="43.9477457" lon="8.0421305"><ele>303.0</ele><time>2026-04-19T09:48:56.836Z</time></trkpt><trkpt lat="43.947619" lon="8.0422165"><ele>303.0</ele><time>2026-04-19T09:48:57.836Z</time></trkpt><trkpt lat="43.947485" lon="8.0422897"><ele>303.0</ele><time>2026-04-19T09:48:58.838Z</time></trkpt><trkpt lat="43.947343" lon="8.0423539"><ele>304.5</ele><time>2026-04-19T09:48:59.836Z</time></trkpt><trkpt lat="43.9472071" lon="8.0424346"><ele>306.0</ele><time>2026-04-19T09:49:00.836Z</time></trkpt><trkpt lat="43.9470709" lon="8.0425242"><ele>307.5</ele><time>2026-04-19T09:49:01.836Z</time></trkpt><trkpt lat="43.9469473" lon="8.0426162"><ele>309.0</ele><time>2026-04-19T09:49:02.836Z</time></trkpt><trkpt lat="43.9468311" lon="8.0427098"><ele>306.5</ele><time>2026-04-19T09:49:03.836Z</time></trkpt><trkpt lat="43.946722" lon="8.0428151"><ele>304.0</ele><time>2026-04-19T09:49:04.837Z</time></trkpt><trkpt lat="43.9466177" lon="8.0429367"><ele>301.5</ele><time>2026-04-19T09:49:05.837Z</time></trkpt><trkpt lat="43.9465883" lon="8.0431048"><ele>299.0</ele><time>2026-04-19T09:49:06.837Z</time></trkpt><trkpt lat="43.9465706" lon="8.0432756"><ele>295.8</ele><time>2026-04-19T09:49:07.836Z</time></trkpt><trkpt lat="43.9465618" lon="8.0434474"><ele>292.59999999999997</ele><time>2026-04-19T09:49:08.835Z</time></trkpt><trkpt lat="43.9465638" lon="8.043607"><ele>289.4</ele><time>2026-04-19T09:49:09.836Z</time></trkpt><trkpt lat="43.9465689" lon="8.0437575"><ele>286.2</ele><time>2026-04-19T09:49:10.835Z</time></trkpt><trkpt lat="43.9465569" lon="8.0438785"><ele>283.0</ele><time>2026-04-19T09:49:11.836Z</time></trkpt><trkpt lat="43.9465243" lon="8.0439756"><ele>283.0</ele><time>2026-04-19T09:49:12.838Z</time></trkpt><trkpt lat="43.9464595" lon="8.0440429"><ele>283.0</ele><time>2026-04-19T09:49:13.837Z</time></trkpt><trkpt lat="43.9463793" lon="8.0441135"><ele>283.0</ele><time>2026-04-19T09:49:14.836Z</time></trkpt><trkpt lat="43.9463037" lon="8.0442004"><ele>283.0</ele><time>2026-04-19T09:49:15.837Z</time></trkpt><trkpt lat="43.9462435" lon="8.0443125"><ele>283.0</ele><time>2026-04-19T09:49:16.837Z</time></trkpt><trkpt lat="43.9462071" lon="8.0444419"><ele>280.8</ele><time>2026-04-19T09:49:17.835Z</time></trkpt><trkpt lat="43.9461869" lon="8.0445695"><ele>278.6</ele><time>2026-04-19T09:49:18.837Z</time></trkpt><trkpt lat="43.946206" lon="8.0446937"><ele>276.4</ele><time>2026-04-19T09:49:19.836Z</time></trkpt><trkpt lat="43.9462297" lon="8.0448164"><ele>274.2</ele><time>2026-04-19T09:49:20.837Z</time></trkpt><trkpt lat="43.9462821" lon="8.0449238"><ele>272.0</ele><time>2026-04-19T09:49:21.838Z</time></trkpt><trkpt lat="43.9463465" lon="8.0450288"><ele>271.4</ele><time>2026-04-19T09:49:22.837Z</time></trkpt><trkpt lat="43.9464102" lon="8.0451356"><ele>270.79999999999995</ele><time>2026-04-19T09:49:23.835Z</time></trkpt><trkpt lat="43.9464774" lon="8.0452441"><ele>270.2</ele><time>2026-04-19T09:49:24.837Z</time></trkpt><trkpt lat="43.9465422" lon="8.0453583"><ele>269.59999999999997</ele><time>2026-04-19T09:49:25.837Z</time></trkpt><trkpt lat="43.9465944" lon="8.045454"><ele>269.0</ele><time>2026-04-19T09:49:26.837Z</time></trkpt><trkpt lat="43.9466086" lon="8.0455846"><ele>269.0</ele><time>2026-04-19T09:49:27.837Z</time></trkpt><trkpt lat="43.9466031" lon="8.0457388"><ele>269.0</ele><time>2026-04-19T09:49:28.836Z</time></trkpt><trkpt lat="43.9466048" lon="8.0458786"><ele>269.0</ele><time>2026-04-19T09:49:29.835Z</time></trkpt><trkpt lat="43.9465911" lon="8.0460193"><ele>269.0</ele><time>2026-04-19T09:49:30.836Z</time></trkpt><trkpt lat="43.9465155" lon="8.0461249"><ele>269.0</ele><time>2026-04-19T09:49:31.838Z</time></trkpt><trkpt lat="43.9464403" lon="8.0462118"><ele>269.0</ele><time>2026-04-19T09:49:32.838Z</time></trkpt><trkpt lat="43.946368" lon="8.0463167"><ele>269.0</ele><time>2026-04-19T09:49:33.837Z</time></trkpt><trkpt lat="43.9463181" lon="8.0464393"><ele>269.0</ele><time>2026-04-19T09:49:34.837Z</time></trkpt><trkpt lat="43.9463044" lon="8.0466058"><ele>269.0</ele><time>2026-04-19T09:49:35.836Z</time></trkpt><trkpt lat="43.9462795" lon="8.0467762"><ele>267.0</ele><time>2026-04-19T09:49:36.836Z</time></trkpt><trkpt lat="43.9462789" lon="8.0469364"><ele>265.0</ele><time>2026-04-19T09:49:37.835Z</time></trkpt><trkpt lat="43.9462818" lon="8.0471054"><ele>263.0</ele><time>2026-04-19T09:49:38.837Z</time></trkpt><trkpt lat="43.9462799" lon="8.0472598"><ele>261.0</ele><time>2026-04-19T09:49:39.835Z</time></trkpt><trkpt lat="43.9462741" lon="8.0474077"><ele>259.3333333333333</ele><time>2026-04-19T09:49:40.836Z</time></trkpt><trkpt lat="43.9462653" lon="8.047541"><ele>257.6666666666667</ele><time>2026-04-19T09:49:41.835Z</time></trkpt><trkpt lat="43.9462307" lon="8.0476378"><ele>256.0</ele><time>2026-04-19T09:49:42.836Z</time></trkpt><trkpt lat="43.9461601" lon="8.0477347"><ele>254.33333333333334</ele><time>2026-04-19T09:49:43.836Z</time></trkpt><trkpt lat="43.9460864" lon="8.047807"><ele>252.66666666666669</ele><time>2026-04-19T09:49:44.836Z</time></trkpt><trkpt lat="43.9460134" lon="8.0478658"><ele>251.0</ele><time>2026-04-19T09:49:45.837Z</time></trkpt><trkpt lat="43.9459262" lon="8.0479091"><ele>253.60000000000002</ele><time>2026-04-19T09:49:46.837Z</time></trkpt><trkpt lat="43.9458588" lon="8.047909"><ele>256.20000000000005</ele><time>2026-04-19T09:49:47.836Z</time></trkpt><trkpt lat="43.9457641" lon="8.047896"><ele>258.79999999999995</ele><time>2026-04-19T09:49:48.838Z</time></trkpt><trkpt lat="43.9456557" lon="8.0478805"><ele>261.4</ele><time>2026-04-19T09:49:49.836Z</time></trkpt><trkpt lat="43.9455484" lon="8.047832"><ele>264.0</ele><time>2026-04-19T09:49:50.836Z</time></trkpt><trkpt lat="43.9454462" lon="8.0477845"><ele>264.0</ele><time>2026-04-19T09:49:51.836Z</time></trkpt><trkpt lat="43.9453342" lon="8.0477124"><ele>264.0</ele><time>2026-04-19T09:49:52.836Z</time></trkpt><trkpt lat="43.9452299" lon="8.047667"><ele>264.0</ele><time>2026-04-19T09:49:53.836Z</time></trkpt><trkpt lat="43.9451098" lon="8.0476088"><ele>264.0</ele><time>2026-04-19T09:49:54.837Z</time></trkpt><trkpt lat="43.944986" lon="8.04757"><ele>261.5</ele><time>2026-04-19T09:49:55.835Z</time></trkpt><trkpt lat="43.9448634" lon="8.0475135"><ele>259.0</ele><time>2026-04-19T09:49:56.836Z</time></trkpt><trkpt lat="43.9447417" lon="8.0474583"><ele>256.5</ele><time>2026-04-19T09:49:57.836Z</time></trkpt><trkpt lat="43.9446193" lon="8.0474154"><ele>254.0</ele><time>2026-04-19T09:49:58.836Z</time></trkpt><trkpt lat="43.9444998" lon="8.0473945"><ele>253.0</ele><time>2026-04-19T09:49:59.837Z</time></trkpt><trkpt lat="43.9443793" lon="8.0474055"><ele>252.0</ele><time>2026-04-19T09:50:00.836Z</time></trkpt><trkpt lat="43.9442778" lon="8.0474547"><ele>251.0</ele><time>2026-04-19T09:50:01.837Z</time></trkpt><trkpt lat="43.9441858" lon="8.0475465"><ele>250.0</ele><time>2026-04-19T09:50:02.836Z</time></trkpt><trkpt lat="43.9441101" lon="8.0476703"><ele>250.0</ele><time>2026-04-19T09:50:03.837Z</time></trkpt><trkpt lat="43.9440528" lon="8.0478075"><ele>250.0</ele><time>2026-04-19T09:50:04.836Z</time></trkpt><trkpt lat="43.94401" lon="8.0479511"><ele>250.0</ele><time>2026-04-19T09:50:05.837Z</time></trkpt><trkpt lat="43.9439726" lon="8.0480912"><ele>250.0</ele><time>2026-04-19T09:50:06.837Z</time></trkpt><trkpt lat="43.9439163" lon="8.0482156"><ele>250.0</ele><time>2026-04-19T09:50:07.837Z</time></trkpt><trkpt lat="43.9438285" lon="8.0483212"><ele>245.0</ele><time>2026-04-19T09:50:08.838Z</time></trkpt><trkpt lat="43.9437431" lon="8.0484313"><ele>240.0</ele><time>2026-04-19T09:50:09.838Z</time></trkpt><trkpt lat="43.9436625" lon="8.0485504"><ele>235.0</ele><time>2026-04-19T09:50:10.837Z</time></trkpt><trkpt lat="43.9435932" lon="8.048682"><ele>230.0</ele><time>2026-04-19T09:50:11.837Z</time></trkpt><trkpt lat="43.9435299" lon="8.0488224"><ele>230.0</ele><time>2026-04-19T09:50:12.837Z</time></trkpt><trkpt lat="43.9434728" lon="8.048968"><ele>230.0</ele><time>2026-04-19T09:50:13.837Z</time></trkpt><trkpt lat="43.9433944" lon="8.0490733"><ele>230.0</ele><time>2026-04-19T09:50:14.836Z</time></trkpt><trkpt lat="43.9433042" lon="8.0491425"><ele>230.0</ele><time>2026-04-19T09:50:15.835Z</time></trkpt><trkpt lat="43.9432099" lon="8.0491737"><ele>230.0</ele><time>2026-04-19T09:50:16.836Z</time></trkpt><trkpt lat="43.943124" lon="8.0491432"><ele>232.0</ele><time>2026-04-19T09:50:17.837Z</time></trkpt><trkpt lat="43.9430357" lon="8.0490765"><ele>234.0</ele><time>2026-04-19T09:50:18.837Z</time></trkpt><trkpt lat="43.9429641" lon="8.0489646"><ele>236.0</ele><time>2026-04-19T09:50:19.836Z</time></trkpt><trkpt lat="43.9429156" lon="8.0488441"><ele>238.0</ele><time>2026-04-19T09:50:20.836Z</time></trkpt><trkpt lat="43.942863" lon="8.048712"><ele>240.0</ele><time>2026-04-19T09:50:21.835Z</time></trkpt><trkpt lat="43.942819" lon="8.048568"><ele>240.0</ele><time>2026-04-19T09:50:22.836Z</time></trkpt><trkpt lat="43.9427778" lon="8.0484138"><ele>240.0</ele><time>2026-04-19T09:50:23.835Z</time></trkpt><trkpt lat="43.9427501" lon="8.0482526"><ele>240.0</ele><time>2026-04-19T09:50:24.836Z</time></trkpt><trkpt lat="43.9426928" lon="8.0480892"><ele>240.0</ele><time>2026-04-19T09:50:25.837Z</time></trkpt><trkpt lat="43.9426316" lon="8.047952"><ele>238.5</ele><time>2026-04-19T09:50:26.836Z</time></trkpt><trkpt lat="43.9425691" lon="8.0477966"><ele>237.0</ele><time>2026-04-19T09:50:27.836Z</time></trkpt><trkpt lat="43.9425134" lon="8.0476425"><ele>235.5</ele><time>2026-04-19T09:50:28.836Z</time></trkpt><trkpt lat="43.94246" lon="8.0474995"><ele>234.0</ele><time>2026-04-19T09:50:29.836Z</time></trkpt><trkpt lat="43.9424083" lon="8.047344"><ele>234.0</ele><time>2026-04-19T09:50:30.837Z</time></trkpt><trkpt lat="43.942357" lon="8.0472169"><ele>233.99999999999997</ele><time>2026-04-19T09:50:31.837Z</time></trkpt><trkpt lat="43.9423136" lon="8.0471064"><ele>233.99999999999997</ele><time>2026-04-19T09:50:32.835Z</time></trkpt><trkpt lat="43.9422724" lon="8.0469911"><ele>234.0</ele><time>2026-04-19T09:50:33.836Z</time></trkpt><trkpt lat="43.9421842" lon="8.0469638"><ele>234.0</ele><time>2026-04-19T09:50:34.836Z</time></trkpt><trkpt lat="43.9421028" lon="8.046964"><ele>234.0</ele><time>2026-04-19T09:50:35.837Z</time></trkpt><trkpt lat="43.9420318" lon="8.0469905"><ele>233.99999999999997</ele><time>2026-04-19T09:50:36.837Z</time></trkpt><trkpt lat="43.941957" lon="8.0470611"><ele>233.99999999999997</ele><time>2026-04-19T09:50:37.836Z</time></trkpt><trkpt lat="43.9418827" lon="8.0471578"><ele>234.0</ele><time>2026-04-19T09:50:38.836Z</time></trkpt><trkpt lat="43.9418078" lon="8.047251"><ele>234.0</ele><time>2026-04-19T09:50:39.836Z</time></trkpt><trkpt lat="43.9417577" lon="8.0474006"><ele>231.25</ele><time>2026-04-19T09:50:40.836Z</time></trkpt><trkpt lat="43.9417046" lon="8.0475609"><ele>228.5</ele><time>2026-04-19T09:50:41.836Z</time></trkpt><trkpt lat="43.9416739" lon="8.0477082"><ele>225.75</ele><time>2026-04-19T09:50:42.837Z</time></trkpt><trkpt lat="43.9416575" lon="8.0478518"><ele>223.0</ele><time>2026-04-19T09:50:43.835Z</time></trkpt><trkpt lat="43.9416197" lon="8.0480054"><ele>223.0</ele><time>2026-04-19T09:50:44.836Z</time></trkpt><trkpt lat="43.9415515" lon="8.0481389"><ele>223.0</ele><time>2026-04-19T09:50:45.836Z</time></trkpt><trkpt lat="43.9414653" lon="8.0482595"><ele>223.0</ele><time>2026-04-19T09:50:46.836Z</time></trkpt><trkpt lat="43.9413939" lon="8.0483859"><ele>223.0</ele><time>2026-04-19T09:50:47.835Z</time></trkpt><trkpt lat="43.94132" lon="8.0485198"><ele>218.25</ele><time>2026-04-19T09:50:48.837Z</time></trkpt><trkpt lat="43.941267" lon="8.0486851"><ele>213.5</ele><time>2026-04-19T09:50:49.836Z</time></trkpt><trkpt lat="43.9412281" lon="8.0488703"><ele>208.75</ele><time>2026-04-19T09:50:50.836Z</time></trkpt><trkpt lat="43.9411879" lon="8.0490253"><ele>204.0</ele><time>2026-04-19T09:50:51.837Z</time></trkpt><trkpt lat="43.9411398" lon="8.0491938"><ele>205.0</ele><time>2026-04-19T09:50:52.835Z</time></trkpt><trkpt lat="43.9410821" lon="8.0493591"><ele>206.0</ele><time>2026-04-19T09:50:53.837Z</time></trkpt><trkpt lat="43.941011" lon="8.0494977"><ele>207.0</ele><time>2026-04-19T09:50:54.835Z</time></trkpt><trkpt lat="43.9409353" lon="8.0496319"><ele>208.0</ele><time>2026-04-19T09:50:55.836Z</time></trkpt><trkpt lat="43.9408377" lon="8.049738"><ele>208.0</ele><time>2026-04-19T09:50:56.837Z</time></trkpt><trkpt lat="43.9407368" lon="8.0498196"><ele>208.0</ele><time>2026-04-19T09:50:57.836Z</time></trkpt><trkpt lat="43.9406336" lon="8.0498857"><ele>208.0</ele><time>2026-04-19T09:50:58.837Z</time></trkpt><trkpt lat="43.9405557" lon="8.0499802"><ele>208.0</ele><time>2026-04-19T09:50:59.836Z</time></trkpt><trkpt lat="43.9404982" lon="8.0500959"><ele>208.0</ele><time>2026-04-19T09:51:00.836Z</time></trkpt><trkpt lat="43.9404837" lon="8.0502372"><ele>203.4</ele><time>2026-04-19T09:51:01.836Z</time></trkpt><trkpt lat="43.9404738" lon="8.0503745"><ele>198.8</ele><time>2026-04-19T09:51:02.836Z</time></trkpt><trkpt lat="43.9404492" lon="8.0505196"><ele>194.2</ele><time>2026-04-19T09:51:03.836Z</time></trkpt><trkpt lat="43.9403914" lon="8.0506506"><ele>189.6</ele><time>2026-04-19T09:51:04.836Z</time></trkpt><trkpt lat="43.9403066" lon="8.0507727"><ele>185.0</ele><time>2026-04-19T09:51:05.835Z</time></trkpt><trkpt lat="43.9402266" lon="8.0509088"><ele>186.0</ele><time>2026-04-19T09:51:06.836Z</time></trkpt><trkpt lat="43.9401469" lon="8.0510726"><ele>187.0</ele><time>2026-04-19T09:51:07.838Z</time></trkpt><trkpt lat="43.9400967" lon="8.0512519"><ele>188.0</ele><time>2026-04-19T09:51:08.836Z</time></trkpt><trkpt lat="43.9400509" lon="8.0514208"><ele>189.0</ele><time>2026-04-19T09:51:09.837Z</time></trkpt><trkpt lat="43.940015" lon="8.0515697"><ele>188.0</ele><time>2026-04-19T09:51:10.836Z</time></trkpt><trkpt lat="43.939986" lon="8.0517248"><ele>187.0</ele><time>2026-04-19T09:51:11.836Z</time></trkpt><trkpt lat="43.9399826" lon="8.0518917"><ele>186.0</ele><time>2026-04-19T09:51:12.837Z</time></trkpt><trkpt lat="43.9400039" lon="8.0520672"><ele>185.0</ele><time>2026-04-19T09:51:13.838Z</time></trkpt><trkpt lat="43.9400194" lon="8.0522414"><ele>185.0</ele><time>2026-04-19T09:51:14.836Z</time></trkpt><trkpt lat="43.940041" lon="8.0524226"><ele>185.0</ele><time>2026-04-19T09:51:15.837Z</time></trkpt><trkpt lat="43.9400613" lon="8.0525919"><ele>185.0</ele><time>2026-04-19T09:51:16.836Z</time></trkpt><trkpt lat="43.9400792" lon="8.0527582"><ele>185.0</ele><time>2026-04-19T09:51:17.836Z</time></trkpt><trkpt lat="43.9400728" lon="8.0529125"><ele>184.5</ele><time>2026-04-19T09:51:18.836Z</time></trkpt><trkpt lat="43.9400602" lon="8.0530808"><ele>184.0</ele><time>2026-04-19T09:51:19.836Z</time></trkpt><trkpt lat="43.9400405" lon="8.0532458"><ele>183.5</ele><time>2026-04-19T09:51:20.836Z</time></trkpt><trkpt lat="43.9399956" lon="8.0534016"><ele>183.0</ele><time>2026-04-19T09:51:21.836Z</time></trkpt><trkpt lat="43.9399306" lon="8.0535445"><ele>181.2</ele><time>2026-04-19T09:51:22.837Z</time></trkpt><trkpt lat="43.9398747" lon="8.0536649"><ele>179.4</ele><time>2026-04-19T09:51:23.837Z</time></trkpt><trkpt lat="43.9397937" lon="8.0537783"><ele>177.6</ele><time>2026-04-19T09:51:24.837Z</time></trkpt><trkpt lat="43.9397146" lon="8.0538817"><ele>175.79999999999998</ele><time>2026-04-19T09:51:25.837Z</time></trkpt><trkpt lat="43.9396381" lon="8.0539531"><ele>174.0</ele><time>2026-04-19T09:51:26.835Z</time></trkpt><trkpt lat="43.9395286" lon="8.0540667"><ele>174.2</ele><time>2026-04-19T09:51:27.836Z</time></trkpt><trkpt lat="43.9394446" lon="8.0541717"><ele>174.39999999999998</ele><time>2026-04-19T09:51:28.838Z</time></trkpt><trkpt lat="43.9393543" lon="8.0542289"><ele>174.6</ele><time>2026-04-19T09:51:29.838Z</time></trkpt><trkpt lat="43.9392636" lon="8.0542463"><ele>174.8</ele><time>2026-04-19T09:51:30.835Z</time></trkpt><trkpt lat="43.9391733" lon="8.0542418"><ele>175.0</ele><time>2026-04-19T09:51:31.836Z</time></trkpt><trkpt lat="43.9390805" lon="8.0542273"><ele>175.0</ele><time>2026-04-19T09:51:32.837Z</time></trkpt><trkpt lat="43.9389675" lon="8.0542219"><ele>175.0</ele><time>2026-04-19T09:51:33.836Z</time></trkpt><trkpt lat="43.938854" lon="8.0542405"><ele>175.0</ele><time>2026-04-19T09:51:34.836Z</time></trkpt><trkpt lat="43.9387487" lon="8.0542791"><ele>175.0</ele><time>2026-04-19T09:51:35.836Z</time></trkpt><trkpt lat="43.9386294" lon="8.054324"><ele>175.0</ele><time>2026-04-19T09:51:36.837Z</time></trkpt><trkpt lat="43.938507" lon="8.0543754"><ele>175.0</ele><time>2026-04-19T09:51:37.836Z</time></trkpt><trkpt lat="43.9383826" lon="8.0544373"><ele>175.0</ele><time>2026-04-19T09:51:38.836Z</time></trkpt><trkpt lat="43.9382623" lon="8.0545102"><ele>175.0</ele><time>2026-04-19T09:51:39.836Z</time></trkpt><trkpt lat="43.9381537" lon="8.0546095"><ele>174.25</ele><time>2026-04-19T09:51:40.837Z</time></trkpt><trkpt lat="43.9380485" lon="8.0547297"><ele>173.5</ele><time>2026-04-19T09:51:41.836Z</time></trkpt><trkpt lat="43.9379534" lon="8.0548629"><ele>172.75</ele><time>2026-04-19T09:51:42.836Z</time></trkpt><trkpt lat="43.9378572" lon="8.0550077"><ele>172.0</ele><time>2026-04-19T09:51:43.837Z</time></trkpt><trkpt lat="43.937759" lon="8.0551572"><ele>170.25</ele><time>2026-04-19T09:51:44.836Z</time></trkpt><trkpt lat="43.9376578" lon="8.0553086"><ele>168.5</ele><time>2026-04-19T09:51:45.836Z</time></trkpt><trkpt lat="43.9375557" lon="8.05546"><ele>166.75</ele><time>2026-04-19T09:51:46.836Z</time></trkpt><trkpt lat="43.9374635" lon="8.055612"><ele>165.0</ele><time>2026-04-19T09:51:47.837Z</time></trkpt><trkpt lat="43.9373613" lon="8.0557699"><ele>165.75</ele><time>2026-04-19T09:51:48.837Z</time></trkpt><trkpt lat="43.9372542" lon="8.0559207"><ele>166.5</ele><time>2026-04-19T09:51:49.836Z</time></trkpt><trkpt lat="43.9371421" lon="8.0560625"><ele>167.25</ele><time>2026-04-19T09:51:50.836Z</time></trkpt><trkpt lat="43.9370186" lon="8.0561658"><ele>168.0</ele><time>2026-04-19T09:51:51.837Z</time></trkpt><trkpt lat="43.9368918" lon="8.0562511"><ele>168.0</ele><time>2026-04-19T09:51:52.837Z</time></trkpt><trkpt lat="43.9367634" lon="8.0563089"><ele>168.0</ele><time>2026-04-19T09:51:53.836Z</time></trkpt><trkpt lat="43.9366365" lon="8.0563587"><ele>168.0</ele><time>2026-04-19T09:51:54.836Z</time></trkpt><trkpt lat="43.9365131" lon="8.0564141"><ele>168.0</ele><time>2026-04-19T09:51:55.836Z</time></trkpt><trkpt lat="43.9363916" lon="8.0564685"><ele>166.5</ele><time>2026-04-19T09:51:56.838Z</time></trkpt><trkpt lat="43.9362642" lon="8.0565271"><ele>165.0</ele><time>2026-04-19T09:51:57.836Z</time></trkpt><trkpt lat="43.9361516" lon="8.0566043"><ele>163.5</ele><time>2026-04-19T09:51:58.837Z</time></trkpt><trkpt lat="43.93604" lon="8.0566945"><ele>162.0</ele><time>2026-04-19T09:51:59.836Z</time></trkpt><trkpt lat="43.9359324" lon="8.0568032"><ele>164.75</ele><time>2026-04-19T09:52:00.837Z</time></trkpt><trkpt lat="43.9358209" lon="8.0569094"><ele>167.5</ele><time>2026-04-19T09:52:01.836Z</time></trkpt><trkpt lat="43.935718" lon="8.0570253"><ele>170.25</ele><time>2026-04-19T09:52:02.836Z</time></trkpt><trkpt lat="43.9356155" lon="8.0571548"><ele>173.0</ele><time>2026-04-19T09:52:03.836Z</time></trkpt><trkpt lat="43.9355143" lon="8.0573013"><ele>177.0</ele><time>2026-04-19T09:52:04.836Z</time></trkpt><trkpt lat="43.9354292" lon="8.0574725"><ele>181.0</ele><time>2026-04-19T09:52:05.837Z</time></trkpt><trkpt lat="43.9353481" lon="8.0576579"><ele>185.0</ele><time>2026-04-19T09:52:06.836Z</time></trkpt><trkpt lat="43.9352693" lon="8.0578516"><ele>185.0</ele><time>2026-04-19T09:52:07.836Z</time></trkpt><trkpt lat="43.935189" lon="8.058051"><ele>185.0</ele><time>2026-04-19T09:52:08.837Z</time></trkpt><trkpt lat="43.9351099" lon="8.0582501"><ele>185.0</ele><time>2026-04-19T09:52:09.836Z</time></trkpt><trkpt lat="43.9350195" lon="8.0584331"><ele>182.0</ele><time>2026-04-19T09:52:10.836Z</time></trkpt><trkpt lat="43.9349415" lon="8.0586086"><ele>179.0</ele><time>2026-04-19T09:52:11.836Z</time></trkpt><trkpt lat="43.9348702" lon="8.0587782"><ele>176.0</ele><time>2026-04-19T09:52:12.837Z</time></trkpt><trkpt lat="43.9347652" lon="8.0589151"><ele>173.0</ele><time>2026-04-19T09:52:13.836Z</time></trkpt><trkpt lat="43.9346599" lon="8.0590229"><ele>172.66666666666666</ele><time>2026-04-19T09:52:14.837Z</time></trkpt><trkpt lat="43.9345336" lon="8.0591203"><ele>172.33333333333334</ele><time>2026-04-19T09:52:15.836Z</time></trkpt><trkpt lat="43.934401" lon="8.0592229"><ele>172.0</ele><time>2026-04-19T09:52:16.835Z</time></trkpt><trkpt lat="43.9342658" lon="8.0593285"><ele>170.66666666666669</ele><time>2026-04-19T09:52:17.837Z</time></trkpt><trkpt lat="43.9341286" lon="8.0594282"><ele>169.33333333333334</ele><time>2026-04-19T09:52:18.836Z</time></trkpt><trkpt lat="43.9339845" lon="8.0595222"><ele>168.0</ele><time>2026-04-19T09:52:19.836Z</time></trkpt><trkpt lat="43.9338364" lon="8.0596164"><ele>168.0</ele><time>2026-04-19T09:52:20.836Z</time></trkpt><trkpt lat="43.9336846" lon="8.0597003"><ele>168.0</ele><time>2026-04-19T09:52:21.836Z</time></trkpt><trkpt lat="43.9335395" lon="8.0597943"><ele>168.0</ele><time>2026-04-19T09:52:22.836Z</time></trkpt><trkpt lat="43.9333896" lon="8.0598899"><ele>168.0</ele><time>2026-04-19T09:52:23.835Z</time></trkpt><trkpt lat="43.9332503" lon="8.0599892"><ele>168.0</ele><time>2026-04-19T09:52:24.836Z</time></trkpt><trkpt lat="43.9331012" lon="8.0600807"><ele>168.0</ele><time>2026-04-19T09:52:25.836Z</time></trkpt><trkpt lat="43.9329635" lon="8.0601567"><ele>168.0</ele><time>2026-04-19T09:52:26.836Z</time></trkpt><trkpt lat="43.9328223" lon="8.0602293"><ele>168.0</ele><time>2026-04-19T09:52:27.836Z</time></trkpt><trkpt lat="43.9326783" lon="8.060286"><ele>168.0</ele><time>2026-04-19T09:52:28.836Z</time></trkpt><trkpt lat="43.9325269" lon="8.0603293"><ele>167.66666666666666</ele><time>2026-04-19T09:52:29.837Z</time></trkpt><trkpt lat="43.9323766" lon="8.0603734"><ele>167.33333333333331</ele><time>2026-04-19T09:52:30.836Z</time></trkpt><trkpt lat="43.9322196" lon="8.0604034"><ele>167.0</ele><time>2026-04-19T09:52:31.836Z</time></trkpt><trkpt lat="43.9320642" lon="8.0604351"><ele>167.0</ele><time>2026-04-19T09:52:32.836Z</time></trkpt><trkpt lat="43.9319062" lon="8.0604628"><ele>167.0</ele><time>2026-04-19T09:52:33.836Z</time></trkpt><trkpt lat="43.931747" lon="8.0604862"><ele>167.0</ele><time>2026-04-19T09:52:34.837Z</time></trkpt><trkpt lat="43.9315993" lon="8.0605094"><ele>165.25</ele><time>2026-04-19T09:52:35.835Z</time></trkpt><trkpt lat="43.9314635" lon="8.0605291"><ele>163.5</ele><time>2026-04-19T09:52:36.836Z</time></trkpt><trkpt lat="43.9313492" lon="8.060549"><ele>161.75</ele><time>2026-04-19T09:52:37.836Z</time></trkpt><trkpt lat="43.9312428" lon="8.0605738"><ele>160.0</ele><time>2026-04-19T09:52:38.835Z</time></trkpt><trkpt lat="43.9311456" lon="8.0605985"><ele>160.0</ele><time>2026-04-19T09:52:39.836Z</time></trkpt><trkpt lat="43.9310504" lon="8.0606486"><ele>160.0</ele><time>2026-04-19T09:52:40.837Z</time></trkpt><trkpt lat="43.9309396" lon="8.0606942"><ele>160.0</ele><time>2026-04-19T09:52:41.836Z</time></trkpt><trkpt lat="43.9308306" lon="8.0607611"><ele>160.0</ele><time>2026-04-19T09:52:42.836Z</time></trkpt><trkpt lat="43.930709" lon="8.0608134"><ele>159.75</ele><time>2026-04-19T09:52:43.836Z</time></trkpt><trkpt lat="43.9305941" lon="8.0608719"><ele>159.5</ele><time>2026-04-19T09:52:44.836Z</time></trkpt><trkpt lat="43.9304776" lon="8.0609384"><ele>159.25</ele><time>2026-04-19T09:52:45.837Z</time></trkpt><trkpt lat="43.930375" lon="8.0610448"><ele>159.0</ele><time>2026-04-19T09:52:46.836Z</time></trkpt><trkpt lat="43.9302686" lon="8.0611489"><ele>159.0</ele><time>2026-04-19T09:52:47.836Z</time></trkpt><trkpt lat="43.9301563" lon="8.0612634"><ele>159.0</ele><time>2026-04-19T09:52:48.837Z</time></trkpt><trkpt lat="43.93005" lon="8.061383"><ele>159.0</ele><time>2026-04-19T09:52:49.836Z</time></trkpt><trkpt lat="43.9299279" lon="8.0614959"><ele>159.0</ele><time>2026-04-19T09:52:50.837Z</time></trkpt><trkpt lat="43.9298107" lon="8.0616072"><ele>156.5</ele><time>2026-04-19T09:52:51.836Z</time></trkpt><trkpt lat="43.9296804" lon="8.0617016"><ele>154.0</ele><time>2026-04-19T09:52:52.837Z</time></trkpt><trkpt lat="43.9295581" lon="8.0617979"><ele>151.5</ele><time>2026-04-19T09:52:53.837Z</time></trkpt><trkpt lat="43.929435" lon="8.0618936"><ele>149.0</ele><time>2026-04-19T09:52:54.836Z</time></trkpt><trkpt lat="43.9293123" lon="8.0619736"><ele>149.0</ele><time>2026-04-19T09:52:55.837Z</time></trkpt><trkpt lat="43.9291883" lon="8.0620306"><ele>149.0</ele><time>2026-04-19T09:52:56.836Z</time></trkpt><trkpt lat="43.929065" lon="8.0620781"><ele>149.0</ele><time>2026-04-19T09:52:57.836Z</time></trkpt><trkpt lat="43.9289419" lon="8.0621122"><ele>149.0</ele><time>2026-04-19T09:52:58.836Z</time></trkpt><trkpt lat="43.9288139" lon="8.0621224"><ele>149.0</ele><time>2026-04-19T09:52:59.836Z</time></trkpt><trkpt lat="43.9286885" lon="8.0621308"><ele>149.0</ele><time>2026-04-19T09:53:00.836Z</time></trkpt><trkpt lat="43.928571" lon="8.06214"><ele>149.0</ele><time>2026-04-19T09:53:01.836Z</time></trkpt><trkpt lat="43.9284572" lon="8.0621652"><ele>149.0</ele><time>2026-04-19T09:53:02.836Z</time></trkpt><trkpt lat="43.9283459" lon="8.062208"><ele>147.5</ele><time>2026-04-19T09:53:03.836Z</time></trkpt><trkpt lat="43.9282306" lon="8.0622638"><ele>146.0</ele><time>2026-04-19T09:53:04.836Z</time></trkpt><trkpt lat="43.9281153" lon="8.0623372"><ele>144.5</ele><time>2026-04-19T09:53:05.836Z</time></trkpt><trkpt lat="43.9280067" lon="8.0623978"><ele>143.0</ele><time>2026-04-19T09:53:06.837Z</time></trkpt><trkpt lat="43.9278928" lon="8.0624639"><ele>143.0</ele><time>2026-04-19T09:53:07.836Z</time></trkpt><trkpt lat="43.9277967" lon="8.0625148"><ele>143.0</ele><time>2026-04-19T09:53:08.836Z</time></trkpt><trkpt lat="43.927706" lon="8.0625733"><ele>143.0</ele><time>2026-04-19T09:53:09.837Z</time></trkpt><trkpt lat="43.927621" lon="8.0626254"><ele>143.0</ele><time>2026-04-19T09:53:10.838Z</time></trkpt><trkpt lat="43.9275397" lon="8.0626708"><ele>143.0</ele><time>2026-04-19T09:53:11.836Z</time></trkpt><trkpt lat="43.9274675" lon="8.0627131"><ele>142.83333333333331</ele><time>2026-04-19T09:53:12.836Z</time></trkpt><trkpt lat="43.9273976" lon="8.0627604"><ele>142.66666666666666</ele><time>2026-04-19T09:53:13.836Z</time></trkpt><trkpt lat="43.927308" lon="8.0627934"><ele>142.5</ele><time>2026-04-19T09:53:14.836Z</time></trkpt><trkpt lat="43.9272311" lon="8.0628155"><ele>142.33333333333334</ele><time>2026-04-19T09:53:15.836Z</time></trkpt><trkpt lat="43.9271368" lon="8.0628394"><ele>142.16666666666669</ele><time>2026-04-19T09:53:16.835Z</time></trkpt><trkpt lat="43.9270383" lon="8.0628428"><ele>142.0</ele><time>2026-04-19T09:53:17.836Z</time></trkpt><trkpt lat="43.9269379" lon="8.0628681"><ele>142.0</ele><time>2026-04-19T09:53:18.835Z</time></trkpt><trkpt lat="43.9268404" lon="8.0628742"><ele>142.0</ele><time>2026-04-19T09:53:19.836Z</time></trkpt><trkpt lat="43.9267368" lon="8.062897"><ele>142.0</ele><time>2026-04-19T09:53:20.836Z</time></trkpt><trkpt lat="43.9266519" lon="8.0629122"><ele>142.0</ele><time>2026-04-19T09:53:21.837Z</time></trkpt><trkpt lat="43.9265741" lon="8.0629204"><ele>142.0</ele><time>2026-04-19T09:53:22.836Z</time></trkpt><trkpt lat="43.9264706" lon="8.062934"><ele>141.2</ele><time>2026-04-19T09:53:24.836Z</time></trkpt><trkpt lat="43.9263834" lon="8.0630238"><ele>140.39999999999998</ele><time>2026-04-19T09:53:26.837Z</time></trkpt><trkpt lat="43.9263479" lon="8.0630962"><ele>139.60000000000002</ele><time>2026-04-19T09:53:27.838Z</time></trkpt><trkpt lat="43.9263075" lon="8.0632352"><ele>138.8</ele><time>2026-04-19T09:53:29.836Z</time></trkpt><trkpt lat="43.9262494" lon="8.0633864"><ele>138.0</ele><time>2026-04-19T09:53:31.836Z</time></trkpt><trkpt lat="43.9262152" lon="8.0634917"><ele>137.83333333333334</ele><time>2026-04-19T09:53:32.836Z</time></trkpt><trkpt lat="43.9261793" lon="8.0635922"><ele>137.66666666666666</ele><time>2026-04-19T09:53:33.836Z</time></trkpt><trkpt lat="43.926154" lon="8.0637059"><ele>137.5</ele><time>2026-04-19T09:53:34.836Z</time></trkpt><trkpt lat="43.9261344" lon="8.0638197"><ele>137.33333333333331</ele><time>2026-04-19T09:53:35.836Z</time></trkpt><trkpt lat="43.9261066" lon="8.0639409"><ele>137.16666666666666</ele><time>2026-04-19T09:53:36.838Z</time></trkpt><trkpt lat="43.9260926" lon="8.0640661"><ele>137.0</ele><time>2026-04-19T09:53:37.835Z</time></trkpt><trkpt lat="43.9260703" lon="8.0641873"><ele>135.66666666666666</ele><time>2026-04-19T09:53:38.836Z</time></trkpt><trkpt lat="43.9260466" lon="8.0642853"><ele>134.33333333333331</ele><time>2026-04-19T09:53:39.836Z</time></trkpt><trkpt lat="43.9260352" lon="8.06439"><ele>133.0</ele><time>2026-04-19T09:53:40.837Z</time></trkpt><trkpt lat="43.9260278" lon="8.0644943"><ele>131.66666666666666</ele><time>2026-04-19T09:53:41.837Z</time></trkpt><trkpt lat="43.9260236" lon="8.0645924"><ele>130.33333333333334</ele><time>2026-04-19T09:53:42.835Z</time></trkpt><trkpt lat="43.9260127" lon="8.0646833"><ele>129.0</ele><time>2026-04-19T09:53:43.836Z</time></trkpt><trkpt lat="43.9259808" lon="8.0648095"><ele>128.83333333333334</ele><time>2026-04-19T09:53:45.836Z</time></trkpt><trkpt lat="43.925928" lon="8.0649484"><ele>128.66666666666666</ele><time>2026-04-19T09:53:47.837Z</time></trkpt><trkpt lat="43.9258981" lon="8.0650292"><ele>128.5</ele><time>2026-04-19T09:53:48.836Z</time></trkpt><trkpt lat="43.9258672" lon="8.065115"><ele>128.33333333333331</ele><time>2026-04-19T09:53:49.835Z</time></trkpt><trkpt lat="43.9258174" lon="8.0651932"><ele>128.16666666666666</ele><time>2026-04-19T09:53:50.835Z</time></trkpt><trkpt lat="43.9257616" lon="8.0652606"><ele>128.0</ele><time>2026-04-19T09:53:51.836Z</time></trkpt><trkpt lat="43.9257036" lon="8.0653192"><ele>129.16666666666666</ele><time>2026-04-19T09:53:52.836Z</time></trkpt><trkpt lat="43.9256428" lon="8.0653835"><ele>130.33333333333331</ele><time>2026-04-19T09:53:53.835Z</time></trkpt><trkpt lat="43.9255851" lon="8.0654513"><ele>131.5</ele><time>2026-04-19T09:53:54.837Z</time></trkpt><trkpt lat="43.9255306" lon="8.0655209"><ele>132.66666666666666</ele><time>2026-04-19T09:53:55.836Z</time></trkpt><trkpt lat="43.9254764" lon="8.0655886"><ele>133.83333333333334</ele><time>2026-04-19T09:53:56.835Z</time></trkpt><trkpt lat="43.9254286" lon="8.0656496"><ele>135.0</ele><time>2026-04-19T09:53:57.835Z</time></trkpt><trkpt lat="43.9253426" lon="8.0657694"><ele>136.0</ele><time>2026-04-19T09:53:59.836Z</time></trkpt><trkpt lat="43.9252916" lon="8.0658295"><ele>137.0</ele><time>2026-04-19T09:54:00.838Z</time></trkpt><trkpt lat="43.9251696" lon="8.0658551"><ele>138.0</ele><time>2026-04-19T09:54:02.837Z</time></trkpt><trkpt lat="43.9251038" lon="8.0658657"><ele>139.0</ele><time>2026-04-19T09:54:03.837Z</time></trkpt><trkpt lat="43.9250355" lon="8.0658937"><ele>140.0</ele><time>2026-04-19T09:54:04.836Z</time></trkpt><trkpt lat="43.9249617" lon="8.0658983"><ele>141.0</ele><time>2026-04-19T09:54:05.835Z</time></trkpt><trkpt lat="43.9248872" lon="8.0659165"><ele>141.0</ele><time>2026-04-19T09:54:06.835Z</time></trkpt><trkpt lat="43.9248173" lon="8.0659527"><ele>141.0</ele><time>2026-04-19T09:54:07.835Z</time></trkpt><trkpt lat="43.9247539" lon="8.0660003"><ele>141.0</ele><time>2026-04-19T09:54:08.837Z</time></trkpt><trkpt lat="43.9246843" lon="8.0660335"><ele>141.0</ele><time>2026-04-19T09:54:09.836Z</time></trkpt><trkpt lat="43.9246247" lon="8.0660824"><ele>141.0</ele><time>2026-04-19T09:54:10.836Z</time></trkpt><trkpt lat="43.9245611" lon="8.0661294"><ele>141.0</ele><time>2026-04-19T09:54:11.836Z</time></trkpt><trkpt lat="43.9245037" lon="8.0661666"><ele>141.0</ele><time>2026-04-19T09:54:12.836Z</time></trkpt><trkpt lat="43.9244408" lon="8.0662092"><ele>141.0</ele><time>2026-04-19T09:54:13.836Z</time></trkpt><trkpt lat="43.9243369" lon="8.0662892"><ele>141.0</ele><time>2026-04-19T09:54:15.837Z</time></trkpt><trkpt lat="43.9242749" lon="8.0663294"><ele>141.0</ele><time>2026-04-19T09:54:16.836Z</time></trkpt><trkpt lat="43.9242163" lon="8.0663803"><ele>141.0</ele><time>2026-04-19T09:54:17.836Z</time></trkpt><trkpt lat="43.9241526" lon="8.0664207"><ele>141.0</ele><time>2026-04-19T09:54:18.836Z</time></trkpt><trkpt lat="43.9240928" lon="8.0664599"><ele>141.0</ele><time>2026-04-19T09:54:19.836Z</time></trkpt><trkpt lat="43.9240363" lon="8.0665015"><ele>139.6</ele><time>2026-04-19T09:54:20.837Z</time></trkpt><trkpt lat="43.9239275" lon="8.0665792"><ele>138.2</ele><time>2026-04-19T09:54:22.836Z</time></trkpt><trkpt lat="43.9238658" lon="8.0666539"><ele>136.8</ele><time>2026-04-19T09:54:24.838Z</time></trkpt><trkpt lat="43.9239052" lon="8.0667821"><ele>135.4</ele><time>2026-04-19T09:54:26.838Z</time></trkpt><trkpt lat="43.9238805" lon="8.0668822"><ele>134.0</ele><time>2026-04-19T09:54:29.837Z</time></trkpt><trkpt lat="43.923795" lon="8.0669193"><ele>134.0</ele><time>2026-04-19T09:54:31.836Z</time></trkpt><trkpt lat="43.9236969" lon="8.0670026"><ele>134.0</ele><time>2026-04-19T09:54:33.835Z</time></trkpt><trkpt lat="43.9236519" lon="8.0670799"><ele>134.0</ele><time>2026-04-19T09:54:34.835Z</time></trkpt><trkpt lat="43.9236109" lon="8.0671817"><ele>134.0</ele><time>2026-04-19T09:54:35.836Z</time></trkpt><trkpt lat="43.9235621" lon="8.0672878"><ele>134.0</ele><time>2026-04-19T09:54:36.836Z</time></trkpt><trkpt lat="43.9235175" lon="8.0673972"><ele>130.4</ele><time>2026-04-19T09:54:37.836Z</time></trkpt><trkpt lat="43.9234688" lon="8.0675015"><ele>126.80000000000001</ele><time>2026-04-19T09:54:38.836Z</time></trkpt><trkpt lat="43.9234141" lon="8.0676026"><ele>123.19999999999999</ele><time>2026-04-19T09:54:39.836Z</time></trkpt><trkpt lat="43.9233508" lon="8.0676863"><ele>119.6</ele><time>2026-04-19T09:54:40.836Z</time></trkpt><trkpt lat="43.9232552" lon="8.0677414"><ele>116.0</ele><time>2026-04-19T09:54:41.836Z</time></trkpt><trkpt lat="43.9231597" lon="8.0677838"><ele>114.6</ele><time>2026-04-19T09:54:42.836Z</time></trkpt><trkpt lat="43.9230633" lon="8.0678191"><ele>113.19999999999999</ele><time>2026-04-19T09:54:43.837Z</time></trkpt><trkpt lat="43.922955" lon="8.0678425"><ele>111.80000000000001</ele><time>2026-04-19T09:54:44.836Z</time></trkpt><trkpt lat="43.9228447" lon="8.0678577"><ele>110.4</ele><time>2026-04-19T09:54:45.836Z</time></trkpt><trkpt lat="43.9227389" lon="8.0678752"><ele>109.0</ele><time>2026-04-19T09:54:46.835Z</time></trkpt><trkpt lat="43.9226461" lon="8.0678939"><ele>109.0</ele><time>2026-04-19T09:54:47.835Z</time></trkpt><trkpt lat="43.9225703" lon="8.0679159"><ele>109.0</ele><time>2026-04-19T09:54:48.837Z</time></trkpt><trkpt lat="43.9225138" lon="8.0679626"><ele>109.0</ele><time>2026-04-19T09:54:49.836Z</time></trkpt><trkpt lat="43.9224901" lon="8.068046"><ele>109.0</ele><time>2026-04-19T09:54:50.836Z</time></trkpt><trkpt lat="43.9225014" lon="8.0681329"><ele>109.0</ele><time>2026-04-19T09:54:51.836Z</time></trkpt><trkpt lat="43.922547" lon="8.0682028"><ele>109.0</ele><time>2026-04-19T09:54:52.836Z</time></trkpt><trkpt lat="43.922612" lon="8.0682572"><ele>109.0</ele><time>2026-04-19T09:54:53.835Z</time></trkpt><trkpt lat="43.9226874" lon="8.0683107"><ele>107.4</ele><time>2026-04-19T09:54:54.836Z</time></trkpt><trkpt lat="43.9227733" lon="8.068373"><ele>105.80000000000001</ele><time>2026-04-19T09:54:55.836Z</time></trkpt><trkpt lat="43.9228473" lon="8.0684365"><ele>104.19999999999999</ele><time>2026-04-19T09:54:56.836Z</time></trkpt><trkpt lat="43.922933" lon="8.0685024"><ele>102.6</ele><time>2026-04-19T09:54:57.836Z</time></trkpt><trkpt lat="43.9230147" lon="8.0685608"><ele>101.0</ele><time>2026-04-19T09:54:58.835Z</time></trkpt><trkpt lat="43.9230981" lon="8.068586"><ele>100.99999999999999</ele><time>2026-04-19T09:54:59.836Z</time></trkpt><trkpt lat="43.9231596" lon="8.0685566"><ele>101.0</ele><time>2026-04-19T09:55:00.836Z</time></trkpt><trkpt lat="43.9232506" lon="8.0686132"><ele>101.0</ele><time>2026-04-19T09:55:02.836Z</time></trkpt><trkpt lat="43.9232061" lon="8.0687031"><ele>101.0</ele><time>2026-04-19T09:55:04.836Z</time></trkpt><trkpt lat="43.9231429" lon="8.0687665"><ele>100.99999999999999</ele><time>2026-04-19T09:55:05.836Z</time></trkpt><trkpt lat="43.9230446" lon="8.068809"><ele>101.0</ele><time>2026-04-19T09:55:06.836Z</time></trkpt><trkpt lat="43.9229518" lon="8.068826"><ele>101.0</ele><time>2026-04-19T09:55:07.836Z</time></trkpt><trkpt lat="43.9228421" lon="8.0688251"><ele>101.0</ele><time>2026-04-19T09:55:08.836Z</time></trkpt><trkpt lat="43.9227328" lon="8.0688138"><ele>101.0</ele><time>2026-04-19T09:55:09.836Z</time></trkpt><trkpt lat="43.922617" lon="8.0688039"><ele>101.0</ele><time>2026-04-19T09:55:10.836Z</time></trkpt><trkpt lat="43.9224995" lon="8.0687993"><ele>100.25</ele><time>2026-04-19T09:55:11.836Z</time></trkpt><trkpt lat="43.9223742" lon="8.0688038"><ele>99.5</ele><time>2026-04-19T09:55:12.838Z</time></trkpt><trkpt lat="43.9222472" lon="8.0688099"><ele>98.75</ele><time>2026-04-19T09:55:13.835Z</time></trkpt><trkpt lat="43.9221145" lon="8.0688112"><ele>98.0</ele><time>2026-04-19T09:55:14.836Z</time></trkpt><trkpt lat="43.921992" lon="8.0688065"><ele>98.0</ele><time>2026-04-19T09:55:15.836Z</time></trkpt><trkpt lat="43.9218685" lon="8.068781"><ele>98.0</ele><time>2026-04-19T09:55:16.836Z</time></trkpt><trkpt lat="43.9217541" lon="8.0687245"><ele>98.0</ele><time>2026-04-19T09:55:17.836Z</time></trkpt><trkpt lat="43.9216521" lon="8.0686708"><ele>98.0</ele><time>2026-04-19T09:55:18.835Z</time></trkpt><trkpt lat="43.9215577" lon="8.0686136"><ele>95.0</ele><time>2026-04-19T09:55:19.836Z</time></trkpt><trkpt lat="43.9214674" lon="8.068556"><ele>92.0</ele><time>2026-04-19T09:55:20.836Z</time></trkpt><trkpt lat="43.9213906" lon="8.0684992"><ele>89.0</ele><time>2026-04-19T09:55:21.836Z</time></trkpt><trkpt lat="43.9213258" lon="8.068447"><ele>86.0</ele><time>2026-04-19T09:55:22.838Z</time></trkpt><trkpt lat="43.9212763" lon="8.0683504"><ele>83.0</ele><time>2026-04-19T09:55:23.836Z</time></trkpt><trkpt lat="43.9211692" lon="8.0683786"><ele>83.0</ele><time>2026-04-19T09:55:25.837Z</time></trkpt><trkpt lat="43.9210929" lon="8.0685176"><ele>83.0</ele><time>2026-04-19T09:55:27.836Z</time></trkpt><trkpt lat="43.9210524" lon="8.0686162"><ele>83.0</ele><time>2026-04-19T09:55:28.837Z</time></trkpt><trkpt lat="43.9209884" lon="8.0687325"><ele>83.0</ele><time>2026-04-19T09:55:29.836Z</time></trkpt><trkpt lat="43.9209147" lon="8.06883"><ele>83.0</ele><time>2026-04-19T09:55:30.836Z</time></trkpt><trkpt lat="43.9208421" lon="8.0689434"><ele>80.2</ele><time>2026-04-19T09:55:31.836Z</time></trkpt><trkpt lat="43.9207714" lon="8.0690562"><ele>77.4</ele><time>2026-04-19T09:55:32.837Z</time></trkpt><trkpt lat="43.9206886" lon="8.0691646"><ele>74.60000000000001</ele><time>2026-04-19T09:55:33.836Z</time></trkpt><trkpt lat="43.9206172" lon="8.0692865"><ele>71.80000000000001</ele><time>2026-04-19T09:55:34.836Z</time></trkpt><trkpt lat="43.9205389" lon="8.0693597"><ele>69.0</ele><time>2026-04-19T09:55:35.836Z</time></trkpt><trkpt lat="43.9204377" lon="8.0694193"><ele>69.0</ele><time>2026-04-19T09:55:36.836Z</time></trkpt><trkpt lat="43.9203369" lon="8.0694828"><ele>69.0</ele><time>2026-04-19T09:55:37.836Z</time></trkpt><trkpt lat="43.9202396" lon="8.0695513"><ele>69.0</ele><time>2026-04-19T09:55:38.835Z</time></trkpt><trkpt lat="43.9201458" lon="8.0696133"><ele>69.0</ele><time>2026-04-19T09:55:39.836Z</time></trkpt><trkpt lat="43.9200524" lon="8.0696781"><ele>69.0</ele><time>2026-04-19T09:55:40.836Z</time></trkpt><trkpt lat="43.9199653" lon="8.0697624"><ele>67.2</ele><time>2026-04-19T09:55:41.835Z</time></trkpt><trkpt lat="43.9198857" lon="8.069867"><ele>65.4</ele><time>2026-04-19T09:55:42.836Z</time></trkpt><trkpt lat="43.9198165" lon="8.0699768"><ele>63.6</ele><time>2026-04-19T09:55:43.836Z</time></trkpt><trkpt lat="43.9197521" lon="8.0700917"><ele>61.8</ele><time>2026-04-19T09:55:44.836Z</time></trkpt><trkpt lat="43.9196766" lon="8.0701942"><ele>60.0</ele><time>2026-04-19T09:55:45.836Z</time></trkpt><trkpt lat="43.9195833" lon="8.070273"><ele>59.25</ele><time>2026-04-19T09:55:46.835Z</time></trkpt><trkpt lat="43.9194821" lon="8.0703315"><ele>58.5</ele><time>2026-04-19T09:55:47.836Z</time></trkpt><trkpt lat="43.9193837" lon="8.0704007"><ele>57.75</ele><time>2026-04-19T09:55:48.837Z</time></trkpt><trkpt lat="43.9192856" lon="8.0704941"><ele>57.0</ele><time>2026-04-19T09:55:49.836Z</time></trkpt><trkpt lat="43.9191959" lon="8.0706038"><ele>55.25</ele><time>2026-04-19T09:55:50.836Z</time></trkpt><trkpt lat="43.9191089" lon="8.0707206"><ele>53.5</ele><time>2026-04-19T09:55:51.835Z</time></trkpt><trkpt lat="43.9190154" lon="8.070828"><ele>51.75</ele><time>2026-04-19T09:55:52.836Z</time></trkpt><trkpt lat="43.9189151" lon="8.0709159"><ele>50.0</ele><time>2026-04-19T09:55:53.835Z</time></trkpt><trkpt lat="43.9188013" lon="8.070989"><ele>49.6</ele><time>2026-04-19T09:55:54.835Z</time></trkpt><trkpt lat="43.9186977" lon="8.071077"><ele>49.2</ele><time>2026-04-19T09:55:55.835Z</time></trkpt><trkpt lat="43.918583" lon="8.0711328"><ele>48.8</ele><time>2026-04-19T09:55:56.836Z</time></trkpt><trkpt lat="43.9184994" lon="8.0712025"><ele>48.4</ele><time>2026-04-19T09:55:57.836Z</time></trkpt><trkpt lat="43.9184203" lon="8.0712601"><ele>48.0</ele><time>2026-04-19T09:55:58.836Z</time></trkpt><trkpt lat="43.918356" lon="8.0713204"><ele>47.599999999999994</ele><time>2026-04-19T09:55:59.836Z</time></trkpt><trkpt lat="43.9182737" lon="8.0713677"><ele>47.199999999999996</ele><time>2026-04-19T09:56:00.836Z</time></trkpt><trkpt lat="43.9181952" lon="8.071418"><ele>46.8</ele><time>2026-04-19T09:56:01.836Z</time></trkpt><trkpt lat="43.9181056" lon="8.0714688"><ele>46.4</ele><time>2026-04-19T09:56:02.836Z</time></trkpt><trkpt lat="43.9180069" lon="8.0715252"><ele>46.0</ele><time>2026-04-19T09:56:03.837Z</time></trkpt><trkpt lat="43.9179016" lon="8.0715846"><ele>45.75</ele><time>2026-04-19T09:56:04.837Z</time></trkpt><trkpt lat="43.9177927" lon="8.0716576"><ele>45.5</ele><time>2026-04-19T09:56:05.835Z</time></trkpt><trkpt lat="43.917684" lon="8.0717088"><ele>45.25</ele><time>2026-04-19T09:56:06.836Z</time></trkpt><trkpt lat="43.9175752" lon="8.0717775"><ele>45.0</ele><time>2026-04-19T09:56:07.836Z</time></trkpt><trkpt lat="43.9174693" lon="8.0718597"><ele>43.25</ele><time>2026-04-19T09:56:08.836Z</time></trkpt><trkpt lat="43.9173583" lon="8.0719633"><ele>41.5</ele><time>2026-04-19T09:56:09.836Z</time></trkpt><trkpt lat="43.9172554" lon="8.0720646"><ele>39.75</ele><time>2026-04-19T09:56:10.836Z</time></trkpt><trkpt lat="43.9171433" lon="8.0721745"><ele>38.0</ele><time>2026-04-19T09:56:11.836Z</time></trkpt><trkpt lat="43.9170426" lon="8.072276"><ele>38.0</ele><time>2026-04-19T09:56:12.835Z</time></trkpt><trkpt lat="43.916948" lon="8.0723847"><ele>38.0</ele><time>2026-04-19T09:56:13.836Z</time></trkpt><trkpt lat="43.9168629" lon="8.0724873"><ele>38.0</ele><time>2026-04-19T09:56:14.836Z</time></trkpt><trkpt lat="43.9167806" lon="8.0725812"><ele>38.0</ele><time>2026-04-19T09:56:15.837Z</time></trkpt><trkpt lat="43.9167142" lon="8.0726626"><ele>38.0</ele><time>2026-04-19T09:56:16.836Z</time></trkpt><trkpt lat="43.9166566" lon="8.0727365"><ele>37.4</ele><time>2026-04-19T09:56:17.836Z</time></trkpt><trkpt lat="43.9166038" lon="8.0728227"><ele>36.8</ele><time>2026-04-19T09:56:18.836Z</time></trkpt><trkpt lat="43.9165366" lon="8.0729065"><ele>36.2</ele><time>2026-04-19T09:56:19.836Z</time></trkpt><trkpt lat="43.9164723" lon="8.0729999"><ele>35.6</ele><time>2026-04-19T09:56:20.836Z</time></trkpt><trkpt lat="43.9163957" lon="8.0730881"><ele>35.0</ele><time>2026-04-19T09:56:21.837Z</time></trkpt><trkpt lat="43.916316" lon="8.0731745"><ele>35.0</ele><time>2026-04-19T09:56:22.836Z</time></trkpt><trkpt lat="43.9162343" lon="8.0732571"><ele>35.0</ele><time>2026-04-19T09:56:23.836Z</time></trkpt><trkpt lat="43.9161448" lon="8.0733408"><ele>35.0</ele><time>2026-04-19T09:56:24.836Z</time></trkpt><trkpt lat="43.9160655" lon="8.0734238"><ele>35.0</ele><time>2026-04-19T09:56:25.836Z</time></trkpt><trkpt lat="43.9159891" lon="8.0735025"><ele>35.0</ele><time>2026-04-19T09:56:26.836Z</time></trkpt><trkpt lat="43.9159236" lon="8.0735806"><ele>35.2</ele><time>2026-04-19T09:56:27.835Z</time></trkpt><trkpt lat="43.9158641" lon="8.0736691"><ele>35.4</ele><time>2026-04-19T09:56:28.836Z</time></trkpt><trkpt lat="43.9158016" lon="8.0737614"><ele>35.6</ele><time>2026-04-19T09:56:29.836Z</time></trkpt><trkpt lat="43.9157373" lon="8.073858"><ele>35.8</ele><time>2026-04-19T09:56:30.837Z</time></trkpt><trkpt lat="43.9156535" lon="8.0739424"><ele>36.0</ele><time>2026-04-19T09:56:31.836Z</time></trkpt><trkpt lat="43.9155672" lon="8.0740074"><ele>36.0</ele><time>2026-04-19T09:56:32.837Z</time></trkpt><trkpt lat="43.9154843" lon="8.0740741"><ele>36.0</ele><time>2026-04-19T09:56:33.836Z</time></trkpt><trkpt lat="43.9153794" lon="8.0741308"><ele>36.0</ele><time>2026-04-19T09:56:34.835Z</time></trkpt><trkpt lat="43.9152721" lon="8.0741812"><ele>36.0</ele><time>2026-04-19T09:56:35.836Z</time></trkpt><trkpt lat="43.9151545" lon="8.0742377"><ele>36.0</ele><time>2026-04-19T09:56:36.836Z</time></trkpt><trkpt lat="43.9150451" lon="8.0742824"><ele>34.75</ele><time>2026-04-19T09:56:37.837Z</time></trkpt><trkpt lat="43.9149388" lon="8.0743451"><ele>33.5</ele><time>2026-04-19T09:56:38.836Z</time></trkpt><trkpt lat="43.9148469" lon="8.0744418"><ele>32.25</ele><time>2026-04-19T09:56:39.837Z</time></trkpt><trkpt lat="43.9147512" lon="8.0745552"><ele>31.0</ele><time>2026-04-19T09:56:40.836Z</time></trkpt><trkpt lat="43.9146477" lon="8.074672"><ele>31.0</ele><time>2026-04-19T09:56:41.836Z</time></trkpt><trkpt lat="43.9145452" lon="8.0747953"><ele>31.0</ele><time>2026-04-19T09:56:42.836Z</time></trkpt><trkpt lat="43.9144452" lon="8.074922"><ele>31.0</ele><time>2026-04-19T09:56:43.837Z</time></trkpt><trkpt lat="43.9143618" lon="8.0750476"><ele>31.0</ele><time>2026-04-19T09:56:44.835Z</time></trkpt><trkpt lat="43.9142519" lon="8.0751587"><ele>29.0</ele><time>2026-04-19T09:56:45.837Z</time></trkpt><trkpt lat="43.9141709" lon="8.0752614"><ele>27.0</ele><time>2026-04-19T09:56:46.836Z</time></trkpt><trkpt lat="43.9140937" lon="8.0753673"><ele>25.0</ele><time>2026-04-19T09:56:47.836Z</time></trkpt><trkpt lat="43.9140494" lon="8.0754494"><ele>23.0</ele><time>2026-04-19T09:56:48.836Z</time></trkpt><trkpt lat="43.9139867" lon="8.075545"><ele>21.0</ele><time>2026-04-19T09:56:49.836Z</time></trkpt><trkpt lat="43.9139091" lon="8.0756391"><ele>21.0</ele><time>2026-04-19T09:56:50.836Z</time></trkpt><trkpt lat="43.9138333" lon="8.0757405"><ele>21.0</ele><time>2026-04-19T09:56:51.835Z</time></trkpt><trkpt lat="43.913754" lon="8.0758483"><ele>21.0</ele><time>2026-04-19T09:56:52.836Z</time></trkpt><trkpt lat="43.9136701" lon="8.0759516"><ele>21.0</ele><time>2026-04-19T09:56:53.836Z</time></trkpt><trkpt lat="43.913585" lon="8.0760623"><ele>21.0</ele><time>2026-04-19T09:56:54.836Z</time></trkpt><trkpt lat="43.9135007" lon="8.0761727"><ele>19.75</ele><time>2026-04-19T09:56:55.837Z</time></trkpt><trkpt lat="43.9134145" lon="8.0762872"><ele>18.5</ele><time>2026-04-19T09:56:56.836Z</time></trkpt><trkpt lat="43.9133366" lon="8.0764008"><ele>17.25</ele><time>2026-04-19T09:56:57.835Z</time></trkpt><trkpt lat="43.9132485" lon="8.0765211"><ele>16.0</ele><time>2026-04-19T09:56:58.836Z</time></trkpt><trkpt lat="43.9131673" lon="8.0766358"><ele>15.200000000000001</ele><time>2026-04-19T09:56:59.837Z</time></trkpt><trkpt lat="43.9130963" lon="8.0767331"><ele>14.400000000000002</ele><time>2026-04-19T09:57:00.836Z</time></trkpt><trkpt lat="43.913025" lon="8.0768214"><ele>13.6</ele><time>2026-04-19T09:57:01.835Z</time></trkpt><trkpt lat="43.9129648" lon="8.0769016"><ele>12.8</ele><time>2026-04-19T09:57:02.836Z</time></trkpt><trkpt lat="43.9128752" lon="8.077009"><ele>12.0</ele><time>2026-04-19T09:57:04.836Z</time></trkpt><trkpt lat="43.9127809" lon="8.0771516"><ele>12.0</ele><time>2026-04-19T09:57:06.836Z</time></trkpt><trkpt lat="43.912739" lon="8.0772251"><ele>12.0</ele><time>2026-04-19T09:57:07.835Z</time></trkpt><trkpt lat="43.9126869" lon="8.0773063"><ele>12.0</ele><time>2026-04-19T09:57:08.836Z</time></trkpt><trkpt lat="43.9126363" lon="8.0773986"><ele>12.0</ele><time>2026-04-19T09:57:09.836Z</time></trkpt><trkpt lat="43.91258" lon="8.077492"><ele>12.0</ele><time>2026-04-19T09:57:10.836Z</time></trkpt><trkpt lat="43.9125212" lon="8.0775872"><ele>12.0</ele><time>2026-04-19T09:57:11.837Z</time></trkpt><trkpt lat="43.9124664" lon="8.0776925"><ele>11.4</ele><time>2026-04-19T09:57:12.836Z</time></trkpt><trkpt lat="43.9124084" lon="8.0777831"><ele>10.799999999999999</ele><time>2026-04-19T09:57:13.836Z</time></trkpt><trkpt lat="43.9123448" lon="8.0778882"><ele>10.2</ele><time>2026-04-19T09:57:14.836Z</time></trkpt><trkpt lat="43.9122829" lon="8.0780115"><ele>9.6</ele><time>2026-04-19T09:57:15.836Z</time></trkpt><trkpt lat="43.9122222" lon="8.0781202"><ele>9.0</ele><time>2026-04-19T09:57:16.836Z</time></trkpt><trkpt lat="43.9121624" lon="8.0782406"><ele>8.6</ele><time>2026-04-19T09:57:17.836Z</time></trkpt><trkpt lat="43.9120958" lon="8.0783568"><ele>8.2</ele><time>2026-04-19T09:57:18.836Z</time></trkpt><trkpt lat="43.912032" lon="8.0784729"><ele>7.799999999999999</ele><time>2026-04-19T09:57:19.836Z</time></trkpt><trkpt lat="43.9119709" lon="8.0785801"><ele>7.3999999999999995</ele><time>2026-04-19T09:57:20.836Z</time></trkpt><trkpt lat="43.9119033" lon="8.0786843"><ele>7.0</ele><time>2026-04-19T09:57:21.836Z</time></trkpt><trkpt lat="43.9118498" lon="8.0787777"><ele>7.0</ele><time>2026-04-19T09:57:22.836Z</time></trkpt><trkpt lat="43.9117842" lon="8.0788831"><ele>6.999999999999999</ele><time>2026-04-19T09:57:23.835Z</time></trkpt><trkpt lat="43.9117234" lon="8.0789852"><ele>6.999999999999999</ele><time>2026-04-19T09:57:24.836Z</time></trkpt><trkpt lat="43.9116712" lon="8.0790902"><ele>7.0</ele><time>2026-04-19T09:57:25.836Z</time></trkpt><trkpt lat="43.9116184" lon="8.079187"><ele>7.0</ele><time>2026-04-19T09:57:26.835Z</time></trkpt><trkpt lat="43.9115612" lon="8.0792762"><ele>7.000000000000001</ele><time>2026-04-19T09:57:27.836Z</time></trkpt><trkpt lat="43.9115014" lon="8.079363"><ele>7.0</ele><time>2026-04-19T09:57:28.836Z</time></trkpt><trkpt lat="43.9114462" lon="8.0794384"><ele>7.0</ele><time>2026-04-19T09:57:29.836Z</time></trkpt><trkpt lat="43.9113972" lon="8.0795155"><ele>7.0</ele><time>2026-04-19T09:57:30.836Z</time></trkpt><trkpt lat="43.9113394" lon="8.079591"><ele>7.000000000000001</ele><time>2026-04-19T09:57:31.836Z</time></trkpt><trkpt lat="43.9112872" lon="8.0796623"><ele>7.0</ele><time>2026-04-19T09:57:32.836Z</time></trkpt><trkpt lat="43.9112365" lon="8.0797381"><ele>7.000000000000001</ele><time>2026-04-19T09:57:33.836Z</time></trkpt><trkpt lat="43.9111805" lon="8.0798009"><ele>7.0</ele><time>2026-04-19T09:57:34.835Z</time></trkpt><trkpt lat="43.9111218" lon="8.0798597"><ele>7.0</ele><time>2026-04-19T09:57:35.836Z</time></trkpt><trkpt lat="43.9110718" lon="8.0799177"><ele>7.0</ele><time>2026-04-19T09:57:36.836Z</time></trkpt><trkpt lat="43.9109938" lon="8.0800092"><ele>7.000000000000001</ele><time>2026-04-19T09:57:38.835Z</time></trkpt><trkpt lat="43.9109341" lon="8.080052"><ele>7.0</ele><time>2026-04-19T09:57:40.836Z</time></trkpt><trkpt lat="43.9108462" lon="8.0799711"><ele>6.6</ele><time>2026-04-19T09:57:43.835Z</time></trkpt><trkpt lat="43.9107699" lon="8.0798255"><ele>6.199999999999999</ele><time>2026-04-19T09:57:45.836Z</time></trkpt><trkpt lat="43.9107321" lon="8.0797438"><ele>5.8</ele><time>2026-04-19T09:57:46.837Z</time></trkpt><trkpt lat="43.9106758" lon="8.0796582"><ele>5.4</ele><time>2026-04-19T09:57:47.836Z</time></trkpt><trkpt lat="43.9106186" lon="8.0795648"><ele>5.0</ele><time>2026-04-19T09:57:48.836Z</time></trkpt><trkpt lat="43.9105572" lon="8.0794706"><ele>5.0</ele><time>2026-04-19T09:57:49.835Z</time></trkpt><trkpt lat="43.9104903" lon="8.0793795"><ele>5.0</ele><time>2026-04-19T09:57:50.836Z</time></trkpt><trkpt lat="43.9104222" lon="8.0792862"><ele>5.0</ele><time>2026-04-19T09:57:51.836Z</time></trkpt><trkpt lat="43.9103441" lon="8.0791911"><ele>5.0</ele><time>2026-04-19T09:57:52.836Z</time></trkpt><trkpt lat="43.9102663" lon="8.0790928"><ele>5.0</ele><time>2026-04-19T09:57:53.836Z</time></trkpt><trkpt lat="43.9101839" lon="8.079002"><ele>5.0</ele><time>2026-04-19T09:57:54.835Z</time></trkpt><trkpt lat="43.9101023" lon="8.0789163"><ele>5.0</ele><time>2026-04-19T09:57:55.836Z</time></trkpt><trkpt lat="43.9100292" lon="8.0788369"><ele>5.0</ele><time>2026-04-19T09:57:56.837Z</time></trkpt><trkpt lat="43.9099608" lon="8.0787628"><ele>5.0</ele><time>2026-04-19T09:57:57.835Z</time></trkpt><trkpt lat="43.9099043" lon="8.0786972"><ele>5.0</ele><time>2026-04-19T09:57:58.836Z</time></trkpt><trkpt lat="43.9098127" lon="8.0786372"><ele>5.0</ele><time>2026-04-19T09:58:00.837Z</time></trkpt><trkpt lat="43.9097529" lon="8.0786711"><ele>5.0</ele><time>2026-04-19T09:58:02.836Z</time></trkpt><trkpt lat="43.9097078" lon="8.0787544"><ele>5.0</ele><time>2026-04-19T09:58:04.836Z</time></trkpt><trkpt lat="43.9096631" lon="8.0788249"><ele>5.0</ele><time>2026-04-19T09:58:06.835Z</time></trkpt><trkpt lat="43.909583" lon="8.0788165"><ele>5.0</ele><time>2026-04-19T09:58:09.836Z</time></trkpt><trkpt lat="43.9094597" lon="8.078783"><ele>5.0</ele><time>2026-04-19T09:58:11.836Z</time></trkpt><trkpt lat="43.9093889" lon="8.0787385"><ele>5.0</ele><time>2026-04-19T09:58:12.835Z</time></trkpt><trkpt lat="43.9093131" lon="8.078693"><ele>5.0</ele><time>2026-04-19T09:58:13.836Z</time></trkpt><trkpt lat="43.9092373" lon="8.0786622"><ele>5.0</ele><time>2026-04-19T09:58:14.836Z</time></trkpt><trkpt lat="43.9091708" lon="8.0786145"><ele>5.0</ele><time>2026-04-19T09:58:15.836Z</time></trkpt><trkpt lat="43.9091085" lon="8.0785786"><ele>5.0</ele><time>2026-04-19T09:58:16.835Z</time></trkpt><trkpt lat="43.9090429" lon="8.0785512"><ele>5.0</ele><time>2026-04-19T09:58:17.836Z</time></trkpt><trkpt lat="43.9089552" lon="8.0786357"><ele>5.333333333333334</ele><time>2026-04-19T09:58:19.836Z</time></trkpt><trkpt lat="43.9089154" lon="8.078708"><ele>5.666666666666667</ele><time>2026-04-19T09:58:20.835Z</time></trkpt><trkpt lat="43.9088666" lon="8.0787844"><ele>6.0</ele><time>2026-04-19T09:58:21.836Z</time></trkpt><trkpt lat="43.9088108" lon="8.0788629"><ele>6.333333333333334</ele><time>2026-04-19T09:58:22.836Z</time></trkpt><trkpt lat="43.9087542" lon="8.0789455"><ele>6.666666666666667</ele><time>2026-04-19T09:58:23.836Z</time></trkpt><trkpt lat="43.9086944" lon="8.0790322"><ele>7.0</ele><time>2026-04-19T09:58:24.836Z</time></trkpt><trkpt lat="43.9086376" lon="8.0791228"><ele>7.0</ele><time>2026-04-19T09:58:25.836Z</time></trkpt><trkpt lat="43.9085787" lon="8.0792173"><ele>6.999999999999999</ele><time>2026-04-19T09:58:26.836Z</time></trkpt><trkpt lat="43.9085179" lon="8.0793129"><ele>6.999999999999999</ele><time>2026-04-19T09:58:27.835Z</time></trkpt><trkpt lat="43.9084573" lon="8.0794079"><ele>7.0</ele><time>2026-04-19T09:58:28.836Z</time></trkpt><trkpt lat="43.9083952" lon="8.0794969"><ele>7.0</ele><time>2026-04-19T09:58:29.835Z</time></trkpt><trkpt lat="43.9083356" lon="8.0795852"><ele>7.0</ele><time>2026-04-19T09:58:30.836Z</time></trkpt><trkpt lat="43.9082781" lon="8.0796758"><ele>6.999999999999999</ele><time>2026-04-19T09:58:31.836Z</time></trkpt><trkpt lat="43.9082133" lon="8.0797648"><ele>6.999999999999999</ele><time>2026-04-19T09:58:32.835Z</time></trkpt><trkpt lat="43.90815" lon="8.0798588"><ele>7.0</ele><time>2026-04-19T09:58:33.836Z</time></trkpt><trkpt lat="43.9080866" lon="8.0799633"><ele>7.0</ele><time>2026-04-19T09:58:34.836Z</time></trkpt><trkpt lat="43.9080096" lon="8.0800762"><ele>6.8</ele><time>2026-04-19T09:58:35.836Z</time></trkpt><trkpt lat="43.9079395" lon="8.0801881"><ele>6.6</ele><time>2026-04-19T09:58:36.836Z</time></trkpt><trkpt lat="43.9078717" lon="8.0802994"><ele>6.3999999999999995</ele><time>2026-04-19T09:58:37.836Z</time></trkpt><trkpt lat="43.9078014" lon="8.0803955"><ele>6.199999999999999</ele><time>2026-04-19T09:58:38.835Z</time></trkpt><trkpt lat="43.9077364" lon="8.0804782"><ele>6.0</ele><time>2026-04-19T09:58:39.835Z</time></trkpt><trkpt lat="43.9076851" lon="8.080577"><ele>6.0</ele><time>2026-04-19T09:58:40.836Z</time></trkpt><trkpt lat="43.907629" lon="8.0806637"><ele>6.0</ele><time>2026-04-19T09:58:41.836Z</time></trkpt><trkpt lat="43.9075735" lon="8.0807486"><ele>6.0</ele><time>2026-04-19T09:58:42.834Z</time></trkpt><trkpt lat="43.9075244" lon="8.080832"><ele>6.0</ele><time>2026-04-19T09:58:43.835Z</time></trkpt><trkpt lat="43.9074777" lon="8.0809093"><ele>6.0</ele><time>2026-04-19T09:58:44.836Z</time></trkpt><trkpt lat="43.9074642" lon="8.0810562"><ele>6.0</ele><time>2026-04-19T09:58:46.836Z</time></trkpt><trkpt lat="43.907509" lon="8.0811298"><ele>6.166666666666667</ele><time>2026-04-19T09:58:47.836Z</time></trkpt><trkpt lat="43.9075492" lon="8.0812087"><ele>6.333333333333334</ele><time>2026-04-19T09:58:48.837Z</time></trkpt><trkpt lat="43.9076169" lon="8.0812737"><ele>6.5</ele><time>2026-04-19T09:58:49.836Z</time></trkpt><trkpt lat="43.9076891" lon="8.0813405"><ele>6.666666666666667</ele><time>2026-04-19T09:58:50.837Z</time></trkpt><trkpt lat="43.9077657" lon="8.0814277"><ele>6.833333333333334</ele><time>2026-04-19T09:58:51.836Z</time></trkpt><trkpt lat="43.9078428" lon="8.0815097"><ele>7.0</ele><time>2026-04-19T09:58:52.836Z</time></trkpt><trkpt lat="43.9079183" lon="8.0815974"><ele>7.000000000000001</ele><time>2026-04-19T09:58:53.836Z</time></trkpt><trkpt lat="43.9080072" lon="8.0816884"><ele>7.0</ele><time>2026-04-19T09:58:54.836Z</time></trkpt><trkpt lat="43.9080777" lon="8.0817659"><ele>7.0</ele><time>2026-04-19T09:58:55.835Z</time></trkpt><trkpt lat="43.9081355" lon="8.0818311"><ele>7.0</ele><time>2026-04-19T09:58:56.836Z</time></trkpt><trkpt lat="43.9081893" lon="8.0818948"><ele>7.000000000000001</ele><time>2026-04-19T09:58:57.836Z</time></trkpt><trkpt lat="43.9082392" lon="8.0819574"><ele>7.0</ele><time>2026-04-19T09:58:58.836Z</time></trkpt><trkpt lat="43.9082994" lon="8.0820099"><ele>7.000000000000001</ele><time>2026-04-19T09:58:59.836Z</time></trkpt><trkpt lat="43.9083476" lon="8.0820744"><ele>7.0</ele><time>2026-04-19T09:59:00.836Z</time></trkpt><trkpt lat="43.9083941" lon="8.0821391"><ele>7.0</ele><time>2026-04-19T09:59:01.836Z</time></trkpt><trkpt lat="43.9084497" lon="8.0822059"><ele>7.0</ele><time>2026-04-19T09:59:02.836Z</time></trkpt><trkpt lat="43.9085076" lon="8.0822928"><ele>7.000000000000001</ele><time>2026-04-19T09:59:03.836Z</time></trkpt><trkpt lat="43.9085655" lon="8.082385"><ele>7.0</ele><time>2026-04-19T09:59:04.836Z</time></trkpt><trkpt lat="43.9086222" lon="8.0824749"><ele>7.3999999999999995</ele><time>2026-04-19T09:59:05.835Z</time></trkpt><trkpt lat="43.9086761" lon="8.0825642"><ele>7.799999999999999</ele><time>2026-04-19T09:59:06.836Z</time></trkpt><trkpt lat="43.90873" lon="8.0826592"><ele>8.2</ele><time>2026-04-19T09:59:07.836Z</time></trkpt><trkpt lat="43.9087863" lon="8.0827608"><ele>8.6</ele><time>2026-04-19T09:59:08.836Z</time></trkpt><trkpt lat="43.9088455" lon="8.0828596"><ele>9.0</ele><time>2026-04-19T09:59:09.836Z</time></trkpt><trkpt lat="43.9089055" lon="8.0829627"><ele>9.0</ele><time>2026-04-19T09:59:10.836Z</time></trkpt><trkpt lat="43.9089666" lon="8.0830742"><ele>9.0</ele><time>2026-04-19T09:59:11.836Z</time></trkpt><trkpt lat="43.9090276" lon="8.0831845"><ele>9.0</ele><time>2026-04-19T09:59:12.836Z</time></trkpt><trkpt lat="43.9090848" lon="8.0832945"><ele>9.0</ele><time>2026-04-19T09:59:13.836Z</time></trkpt><trkpt lat="43.9091508" lon="8.0834074"><ele>9.0</ele><time>2026-04-19T09:59:14.836Z</time></trkpt><trkpt lat="43.9092125" lon="8.0835189"><ele>9.0</ele><time>2026-04-19T09:59:15.835Z</time></trkpt><trkpt lat="43.9092742" lon="8.0836298"><ele>9.0</ele><time>2026-04-19T09:59:16.836Z</time></trkpt><trkpt lat="43.9093382" lon="8.0837417"><ele>9.0</ele><time>2026-04-19T09:59:17.837Z</time></trkpt><trkpt lat="43.9093996" lon="8.0838536"><ele>9.0</ele><time>2026-04-19T09:59:18.835Z</time></trkpt><trkpt lat="43.9094651" lon="8.083968"><ele>9.0</ele><time>2026-04-19T09:59:19.836Z</time></trkpt><trkpt lat="43.9095322" lon="8.0840856"><ele>8.6</ele><time>2026-04-19T09:59:20.834Z</time></trkpt><trkpt lat="43.9096035" lon="8.0841955"><ele>8.2</ele><time>2026-04-19T09:59:21.835Z</time></trkpt><trkpt lat="43.9096716" lon="8.0842982"><ele>7.799999999999999</ele><time>2026-04-19T09:59:22.834Z</time></trkpt><trkpt lat="43.9097385" lon="8.0844101"><ele>7.3999999999999995</ele><time>2026-04-19T09:59:23.836Z</time></trkpt><trkpt lat="43.9098009" lon="8.0845198"><ele>7.0</ele><time>2026-04-19T09:59:24.836Z</time></trkpt><trkpt lat="43.9098604" lon="8.084637"><ele>7.0</ele><time>2026-04-19T09:59:25.836Z</time></trkpt><trkpt lat="43.9099216" lon="8.0847558"><ele>6.999999999999999</ele><time>2026-04-19T09:59:26.836Z</time></trkpt><trkpt lat="43.9099851" lon="8.0848661"><ele>6.999999999999999</ele><time>2026-04-19T09:59:27.836Z</time></trkpt><trkpt lat="43.9100445" lon="8.0849854"><ele>7.0</ele><time>2026-04-19T09:59:28.836Z</time></trkpt><trkpt lat="43.9101036" lon="8.0850916"><ele>7.0</ele><time>2026-04-19T09:59:29.836Z</time></trkpt><trkpt lat="43.9101859" lon="8.085179"><ele>6.8</ele><time>2026-04-19T09:59:30.835Z</time></trkpt><trkpt lat="43.9102568" lon="8.085254"><ele>6.6</ele><time>2026-04-19T09:59:31.836Z</time></trkpt><trkpt lat="43.910347" lon="8.0853149"><ele>6.3999999999999995</ele><time>2026-04-19T09:59:32.836Z</time></trkpt><trkpt lat="43.9104731" lon="8.0853305"><ele>6.199999999999999</ele><time>2026-04-19T09:59:33.836Z</time></trkpt><trkpt lat="43.9105489" lon="8.0853586"><ele>6.0</ele><time>2026-04-19T09:59:34.836Z</time></trkpt><trkpt lat="43.9106472" lon="8.0853882"><ele>6.0</ele><time>2026-04-19T09:59:35.836Z</time></trkpt><trkpt lat="43.9107464" lon="8.0854514"><ele>6.0</ele><time>2026-04-19T09:59:36.835Z</time></trkpt><trkpt lat="43.910839" lon="8.0855107"><ele>6.0</ele><time>2026-04-19T09:59:37.836Z</time></trkpt><trkpt lat="43.9109321" lon="8.085573"><ele>6.0</ele><time>2026-04-19T09:59:38.835Z</time></trkpt><trkpt lat="43.9110247" lon="8.0856426"><ele>6.0</ele><time>2026-04-19T09:59:39.835Z</time></trkpt><trkpt lat="43.9111187" lon="8.085721"><ele>6.0</ele><time>2026-04-19T09:59:40.834Z</time></trkpt><trkpt lat="43.9112143" lon="8.0858041"><ele>6.0</ele><time>2026-04-19T09:59:41.836Z</time></trkpt><trkpt lat="43.911309" lon="8.0858773"><ele>6.0</ele><time>2026-04-19T09:59:42.836Z</time></trkpt><trkpt lat="43.9114" lon="8.0859388"><ele>6.0</ele><time>2026-04-19T09:59:43.836Z</time></trkpt><trkpt lat="43.9114986" lon="8.085997"><ele>6.0</ele><time>2026-04-19T09:59:44.836Z</time></trkpt><trkpt lat="43.9115939" lon="8.0860679"><ele>6.0</ele><time>2026-04-19T09:59:45.836Z</time></trkpt><trkpt lat="43.911696" lon="8.0861355"><ele>6.0</ele><time>2026-04-19T09:59:46.835Z</time></trkpt><trkpt lat="43.9117936" lon="8.0862054"><ele>6.0</ele><time>2026-04-19T09:59:47.836Z</time></trkpt><trkpt lat="43.9118882" lon="8.0862718"><ele>6.0</ele><time>2026-04-19T09:59:48.836Z</time></trkpt><trkpt lat="43.9119891" lon="8.086339"><ele>6.0</ele><time>2026-04-19T09:59:49.836Z</time></trkpt><trkpt lat="43.9120851" lon="8.0864146"><ele>6.0</ele><time>2026-04-19T09:59:50.835Z</time></trkpt><trkpt lat="43.9121832" lon="8.0864893"><ele>6.0</ele><time>2026-04-19T09:59:51.836Z</time></trkpt><trkpt lat="43.9122948" lon="8.0865717"><ele>6.0</ele><time>2026-04-19T09:59:52.836Z</time></trkpt><trkpt lat="43.9123884" lon="8.0866509"><ele>6.0</ele><time>2026-04-19T09:59:53.836Z</time></trkpt><trkpt lat="43.9124883" lon="8.0867172"><ele>6.0</ele><time>2026-04-19T09:59:54.835Z</time></trkpt><trkpt lat="43.9125958" lon="8.0867931"><ele>6.0</ele><time>2026-04-19T09:59:55.836Z</time></trkpt><trkpt lat="43.9126944" lon="8.0868656"><ele>6.0</ele><time>2026-04-19T09:59:56.836Z</time></trkpt><trkpt lat="43.9127905" lon="8.0869422"><ele>6.0</ele><time>2026-04-19T09:59:57.835Z</time></trkpt><trkpt lat="43.9128905" lon="8.08701"><ele>6.0</ele><time>2026-04-19T09:59:58.836Z</time></trkpt><trkpt lat="43.9129889" lon="8.0870813"><ele>6.0</ele><time>2026-04-19T09:59:59.835Z</time></trkpt><trkpt lat="43.9130844" lon="8.0871496"><ele>6.0</ele><time>2026-04-19T10:00:00.835Z</time></trkpt><trkpt lat="43.9131817" lon="8.0872196"><ele>6.0</ele><time>2026-04-19T10:00:01.836Z</time></trkpt><trkpt lat="43.9132788" lon="8.0872931"><ele>6.0</ele><time>2026-04-19T10:00:02.836Z</time></trkpt><trkpt lat="43.9133773" lon="8.0873634"><ele>6.199999999999999</ele><time>2026-04-19T10:00:03.836Z</time></trkpt><trkpt lat="43.9134787" lon="8.0874294"><ele>6.3999999999999995</ele><time>2026-04-19T10:00:04.835Z</time></trkpt><trkpt lat="43.9135887" lon="8.0874817"><ele>6.6</ele><time>2026-04-19T10:00:05.834Z</time></trkpt><trkpt lat="43.9136859" lon="8.0875509"><ele>6.8</ele><time>2026-04-19T10:00:06.837Z</time></trkpt><trkpt lat="43.913779" lon="8.0876236"><ele>7.0</ele><time>2026-04-19T10:00:07.836Z</time></trkpt><trkpt lat="43.9138742" lon="8.0876981"><ele>7.0</ele><time>2026-04-19T10:00:08.836Z</time></trkpt><trkpt lat="43.9139709" lon="8.0877667"><ele>6.999999999999999</ele><time>2026-04-19T10:00:09.836Z</time></trkpt><trkpt lat="43.9140674" lon="8.0878409"><ele>6.999999999999999</ele><time>2026-04-19T10:00:10.836Z</time></trkpt><trkpt lat="43.9141728" lon="8.0879091"><ele>7.0</ele><time>2026-04-19T10:00:11.835Z</time></trkpt><trkpt lat="43.914272" lon="8.0879866"><ele>7.0</ele><time>2026-04-19T10:00:12.835Z</time></trkpt><trkpt lat="43.9143677" lon="8.0880568"><ele>6.8</ele><time>2026-04-19T10:00:13.836Z</time></trkpt><trkpt lat="43.9144622" lon="8.0881363"><ele>6.6</ele><time>2026-04-19T10:00:14.836Z</time></trkpt><trkpt lat="43.914551" lon="8.0882285"><ele>6.3999999999999995</ele><time>2026-04-19T10:00:15.836Z</time></trkpt><trkpt lat="43.9146449" lon="8.0882916"><ele>6.199999999999999</ele><time>2026-04-19T10:00:16.836Z</time></trkpt><trkpt lat="43.914733" lon="8.0883506"><ele>6.0</ele><time>2026-04-19T10:00:17.835Z</time></trkpt><trkpt lat="43.9148169" lon="8.088408"><ele>6.0</ele><time>2026-04-19T10:00:18.834Z</time></trkpt><trkpt lat="43.9148982" lon="8.0884626"><ele>6.0</ele><time>2026-04-19T10:00:19.837Z</time></trkpt><trkpt lat="43.9149796" lon="8.0885299"><ele>6.0</ele><time>2026-04-19T10:00:20.836Z</time></trkpt><trkpt lat="43.9150575" lon="8.0885934"><ele>6.0</ele><time>2026-04-19T10:00:21.836Z</time></trkpt><trkpt lat="43.9151281" lon="8.0886665"><ele>6.0</ele><time>2026-04-19T10:00:22.837Z</time></trkpt><trkpt lat="43.9151903" lon="8.0887511"><ele>6.0</ele><time>2026-04-19T10:00:23.837Z</time></trkpt><trkpt lat="43.9152776" lon="8.0888353"><ele>6.0</ele><time>2026-04-19T10:00:24.837Z</time></trkpt><trkpt lat="43.915384" lon="8.0888965"><ele>6.0</ele><time>2026-04-19T10:00:25.834Z</time></trkpt><trkpt lat="43.9154922" lon="8.088968"><ele>6.0</ele><time>2026-04-19T10:00:26.835Z</time></trkpt><trkpt lat="43.9155993" lon="8.0890434"><ele>6.0</ele><time>2026-04-19T10:00:27.837Z</time></trkpt><trkpt lat="43.9157102" lon="8.0891253"><ele>6.0</ele><time>2026-04-19T10:00:28.836Z</time></trkpt><trkpt lat="43.9158209" lon="8.0892076"><ele>6.0</ele><time>2026-04-19T10:00:29.836Z</time></trkpt><trkpt lat="43.915943" lon="8.0892728"><ele>6.0</ele><time>2026-04-19T10:00:30.836Z</time></trkpt><trkpt lat="43.9160612" lon="8.0893525"><ele>5.5</ele><time>2026-04-19T10:00:31.836Z</time></trkpt><trkpt lat="43.9161843" lon="8.0894329"><ele>5.0</ele><time>2026-04-19T10:00:32.836Z</time></trkpt><trkpt lat="43.9162997" lon="8.0895196"><ele>4.5</ele><time>2026-04-19T10:00:33.836Z</time></trkpt><trkpt lat="43.9164174" lon="8.0895987"><ele>4.0</ele><time>2026-04-19T10:00:34.836Z</time></trkpt><trkpt lat="43.9165379" lon="8.0896818"><ele>4.0</ele><time>2026-04-19T10:00:35.836Z</time></trkpt><trkpt lat="43.9166511" lon="8.0897676"><ele>4.0</ele><time>2026-04-19T10:00:36.834Z</time></trkpt><trkpt lat="43.9167646" lon="8.0898518"><ele>4.0</ele><time>2026-04-19T10:00:37.836Z</time></trkpt><trkpt lat="43.9168706" lon="8.0899647"><ele>4.0</ele><time>2026-04-19T10:00:38.837Z</time></trkpt><trkpt lat="43.9169936" lon="8.0900157"><ele>4.5</ele><time>2026-04-19T10:00:39.835Z</time></trkpt><trkpt lat="43.9171051" lon="8.0901033"><ele>5.0</ele><time>2026-04-19T10:00:40.835Z</time></trkpt><trkpt lat="43.9172089" lon="8.0901849"><ele>5.5</ele><time>2026-04-19T10:00:41.835Z</time></trkpt><trkpt lat="43.9173128" lon="8.0902659"><ele>6.0</ele><time>2026-04-19T10:00:42.836Z</time></trkpt><trkpt lat="43.9174207" lon="8.0903538"><ele>6.0</ele><time>2026-04-19T10:00:43.836Z</time></trkpt><trkpt lat="43.9175173" lon="8.0904568"><ele>6.0</ele><time>2026-04-19T10:00:44.835Z</time></trkpt><trkpt lat="43.9176091" lon="8.0905586"><ele>6.0</ele><time>2026-04-19T10:00:45.835Z</time></trkpt><trkpt lat="43.9176899" lon="8.0906825"><ele>6.0</ele><time>2026-04-19T10:00:46.836Z</time></trkpt><trkpt lat="43.9177633" lon="8.0908143"><ele>6.5</ele><time>2026-04-19T10:00:47.836Z</time></trkpt><trkpt lat="43.9178237" lon="8.0909628"><ele>7.0</ele><time>2026-04-19T10:00:48.836Z</time></trkpt><trkpt lat="43.9178834" lon="8.0911073"><ele>7.5</ele><time>2026-04-19T10:00:49.836Z</time></trkpt><trkpt lat="43.9179377" lon="8.0912567"><ele>8.0</ele><time>2026-04-19T10:00:50.835Z</time></trkpt><trkpt lat="43.9179929" lon="8.0914068"><ele>8.0</ele><time>2026-04-19T10:00:51.835Z</time></trkpt><trkpt lat="43.9180464" lon="8.0915643"><ele>8.0</ele><time>2026-04-19T10:00:52.835Z</time></trkpt><trkpt lat="43.9180961" lon="8.0917261"><ele>8.0</ele><time>2026-04-19T10:00:53.835Z</time></trkpt><trkpt lat="43.9181466" lon="8.0918855"><ele>8.0</ele><time>2026-04-19T10:00:54.836Z</time></trkpt><trkpt lat="43.9182062" lon="8.0920503"><ele>8.0</ele><time>2026-04-19T10:00:55.835Z</time></trkpt><trkpt lat="43.9182661" lon="8.0921993"><ele>8.0</ele><time>2026-04-19T10:00:56.836Z</time></trkpt><trkpt lat="43.9183259" lon="8.0923456"><ele>8.0</ele><time>2026-04-19T10:00:57.836Z</time></trkpt><trkpt lat="43.918369" lon="8.0924927"><ele>8.0</ele><time>2026-04-19T10:00:58.836Z</time></trkpt><trkpt lat="43.9184114" lon="8.09264"><ele>8.0</ele><time>2026-04-19T10:00:59.835Z</time></trkpt><trkpt lat="43.918453" lon="8.0927801"><ele>8.0</ele><time>2026-04-19T10:01:00.835Z</time></trkpt><trkpt lat="43.9184953" lon="8.0929196"><ele>8.0</ele><time>2026-04-19T10:01:01.836Z</time></trkpt><trkpt lat="43.9185333" lon="8.0930572"><ele>8.0</ele><time>2026-04-19T10:01:02.836Z</time></trkpt><trkpt lat="43.9185724" lon="8.0931934"><ele>8.0</ele><time>2026-04-19T10:01:03.836Z</time></trkpt><trkpt lat="43.9186033" lon="8.0933357"><ele>8.200000000000001</ele><time>2026-04-19T10:01:04.835Z</time></trkpt><trkpt lat="43.9186511" lon="8.0934556"><ele>8.4</ele><time>2026-04-19T10:01:05.836Z</time></trkpt><trkpt lat="43.9187078" lon="8.0935854"><ele>8.600000000000001</ele><time>2026-04-19T10:01:06.836Z</time></trkpt><trkpt lat="43.9187406" lon="8.0937255"><ele>8.8</ele><time>2026-04-19T10:01:07.835Z</time></trkpt><trkpt lat="43.918784" lon="8.0938574"><ele>9.0</ele><time>2026-04-19T10:01:08.835Z</time></trkpt><trkpt lat="43.9188281" lon="8.0939861"><ele>8.4</ele><time>2026-04-19T10:01:09.835Z</time></trkpt><trkpt lat="43.9188703" lon="8.0941257"><ele>7.800000000000001</ele><time>2026-04-19T10:01:10.837Z</time></trkpt><trkpt lat="43.9189139" lon="8.0942579"><ele>7.199999999999999</ele><time>2026-04-19T10:01:11.836Z</time></trkpt><trkpt lat="43.918957" lon="8.0943877"><ele>6.6</ele><time>2026-04-19T10:01:12.836Z</time></trkpt><trkpt lat="43.9190033" lon="8.094524"><ele>6.0</ele><time>2026-04-19T10:01:13.836Z</time></trkpt><trkpt lat="43.9190499" lon="8.0946571"><ele>6.0</ele><time>2026-04-19T10:01:14.836Z</time></trkpt><trkpt lat="43.9190947" lon="8.0947987"><ele>6.0</ele><time>2026-04-19T10:01:15.835Z</time></trkpt><trkpt lat="43.9191416" lon="8.0949345"><ele>6.0</ele><time>2026-04-19T10:01:16.836Z</time></trkpt><trkpt lat="43.9191887" lon="8.0950774"><ele>6.0</ele><time>2026-04-19T10:01:17.836Z</time></trkpt><trkpt lat="43.9192388" lon="8.0952239"><ele>6.6</ele><time>2026-04-19T10:01:18.836Z</time></trkpt><trkpt lat="43.9192833" lon="8.0953657"><ele>7.199999999999999</ele><time>2026-04-19T10:01:19.835Z</time></trkpt><trkpt lat="43.9193278" lon="8.0955064"><ele>7.800000000000001</ele><time>2026-04-19T10:01:20.836Z</time></trkpt><trkpt lat="43.9193784" lon="8.0956468"><ele>8.4</ele><time>2026-04-19T10:01:21.835Z</time></trkpt><trkpt lat="43.919422" lon="8.0957933"><ele>9.0</ele><time>2026-04-19T10:01:22.836Z</time></trkpt><trkpt lat="43.9194685" lon="8.0959391"><ele>9.0</ele><time>2026-04-19T10:01:23.836Z</time></trkpt><trkpt lat="43.9195181" lon="8.0960762"><ele>9.0</ele><time>2026-04-19T10:01:24.835Z</time></trkpt><trkpt lat="43.9195633" lon="8.0962193"><ele>9.0</ele><time>2026-04-19T10:01:25.836Z</time></trkpt><trkpt lat="43.9196063" lon="8.0963638"><ele>9.0</ele><time>2026-04-19T10:01:26.834Z</time></trkpt><trkpt lat="43.9196481" lon="8.0965027"><ele>9.0</ele><time>2026-04-19T10:01:27.836Z</time></trkpt><trkpt lat="43.9196949" lon="8.0966493"><ele>9.0</ele><time>2026-04-19T10:01:28.835Z</time></trkpt><trkpt lat="43.9197422" lon="8.0967984"><ele>9.0</ele><time>2026-04-19T10:01:29.836Z</time></trkpt><trkpt lat="43.9197954" lon="8.0969491"><ele>9.0</ele><time>2026-04-19T10:01:30.835Z</time></trkpt><trkpt lat="43.9198482" lon="8.0971037"><ele>9.0</ele><time>2026-04-19T10:01:31.836Z</time></trkpt><trkpt lat="43.9199007" lon="8.0972578"><ele>9.0</ele><time>2026-04-19T10:01:32.836Z</time></trkpt><trkpt lat="43.9199518" lon="8.0974108"><ele>9.0</ele><time>2026-04-19T10:01:33.836Z</time></trkpt><trkpt lat="43.9200022" lon="8.0975623"><ele>9.0</ele><time>2026-04-19T10:01:34.835Z</time></trkpt><trkpt lat="43.920053" lon="8.0977159"><ele>9.0</ele><time>2026-04-19T10:01:35.836Z</time></trkpt><trkpt lat="43.920103" lon="8.097871"><ele>9.0</ele><time>2026-04-19T10:01:36.836Z</time></trkpt><trkpt lat="43.9201533" lon="8.098024"><ele>9.0</ele><time>2026-04-19T10:01:37.835Z</time></trkpt><trkpt lat="43.9202022" lon="8.0981761"><ele>9.0</ele><time>2026-04-19T10:01:38.835Z</time></trkpt><trkpt lat="43.9202475" lon="8.0983178"><ele>9.0</ele><time>2026-04-19T10:01:39.836Z</time></trkpt><trkpt lat="43.9202879" lon="8.0984604"><ele>9.0</ele><time>2026-04-19T10:01:40.834Z</time></trkpt><trkpt lat="43.9203342" lon="8.0985826"><ele>9.0</ele><time>2026-04-19T10:01:41.834Z</time></trkpt><trkpt lat="43.920376" lon="8.0987034"><ele>9.0</ele><time>2026-04-19T10:01:42.836Z</time></trkpt><trkpt lat="43.9204131" lon="8.0988258"><ele>9.0</ele><time>2026-04-19T10:01:43.835Z</time></trkpt><trkpt lat="43.9204499" lon="8.0989427"><ele>9.0</ele><time>2026-04-19T10:01:44.835Z</time></trkpt><trkpt lat="43.920483" lon="8.0990572"><ele>9.2</ele><time>2026-04-19T10:01:45.835Z</time></trkpt><trkpt lat="43.9205158" lon="8.0991726"><ele>9.4</ele><time>2026-04-19T10:01:46.835Z</time></trkpt><trkpt lat="43.9205415" lon="8.099292"><ele>9.6</ele><time>2026-04-19T10:01:47.834Z</time></trkpt><trkpt lat="43.9205777" lon="8.0994118"><ele>9.8</ele><time>2026-04-19T10:01:48.836Z</time></trkpt><trkpt lat="43.9206205" lon="8.0995371"><ele>10.0</ele><time>2026-04-19T10:01:49.835Z</time></trkpt><trkpt lat="43.9206613" lon="8.0996471"><ele>10.0</ele><time>2026-04-19T10:01:50.836Z</time></trkpt><trkpt lat="43.9206963" lon="8.0997606"><ele>10.0</ele><time>2026-04-19T10:01:51.836Z</time></trkpt><trkpt lat="43.9207316" lon="8.0998737"><ele>10.0</ele><time>2026-04-19T10:01:52.835Z</time></trkpt><trkpt lat="43.9207728" lon="8.0999947"><ele>10.0</ele><time>2026-04-19T10:01:53.835Z</time></trkpt><trkpt lat="43.9208046" lon="8.1001104"><ele>10.0</ele><time>2026-04-19T10:01:54.835Z</time></trkpt><trkpt lat="43.9208416" lon="8.1002221"><ele>9.8</ele><time>2026-04-19T10:01:55.835Z</time></trkpt><trkpt lat="43.9208794" lon="8.1003475"><ele>9.6</ele><time>2026-04-19T10:01:56.835Z</time></trkpt><trkpt lat="43.9209204" lon="8.1004822"><ele>9.4</ele><time>2026-04-19T10:01:57.835Z</time></trkpt><trkpt lat="43.9209673" lon="8.1006047"><ele>9.2</ele><time>2026-04-19T10:01:58.836Z</time></trkpt><trkpt lat="43.9210157" lon="8.1007469"><ele>9.0</ele><time>2026-04-19T10:01:59.835Z</time></trkpt><trkpt lat="43.9210681" lon="8.1008908"><ele>8.666666666666666</ele><time>2026-04-19T10:02:00.836Z</time></trkpt><trkpt lat="43.921113" lon="8.1010189"><ele>8.333333333333334</ele><time>2026-04-19T10:02:01.836Z</time></trkpt><trkpt lat="43.9211523" lon="8.1011307"><ele>8.0</ele><time>2026-04-19T10:02:02.835Z</time></trkpt><trkpt lat="43.9211787" lon="8.1012192"><ele>7.666666666666667</ele><time>2026-04-19T10:02:03.836Z</time></trkpt><trkpt lat="43.9212116" lon="8.1013172"><ele>7.333333333333334</ele><time>2026-04-19T10:02:05.835Z</time></trkpt><trkpt lat="43.9212459" lon="8.1014183"><ele>7.0</ele><time>2026-04-19T10:02:08.836Z</time></trkpt><trkpt lat="43.9212824" lon="8.1015271"><ele>7.142857142857142</ele><time>2026-04-19T10:02:10.836Z</time></trkpt><trkpt lat="43.9213007" lon="8.1016145"><ele>7.285714285714286</ele><time>2026-04-19T10:02:11.836Z</time></trkpt><trkpt lat="43.9213203" lon="8.1017003"><ele>7.428571428571429</ele><time>2026-04-19T10:02:12.836Z</time></trkpt><trkpt lat="43.9213456" lon="8.1017933"><ele>7.571428571428571</ele><time>2026-04-19T10:02:13.834Z</time></trkpt><trkpt lat="43.9213696" lon="8.1018966"><ele>7.7142857142857135</ele><time>2026-04-19T10:02:14.836Z</time></trkpt><trkpt lat="43.9213939" lon="8.1019961"><ele>7.857142857142857</ele><time>2026-04-19T10:02:15.835Z</time></trkpt><trkpt lat="43.9214297" lon="8.1020859"><ele>8.0</ele><time>2026-04-19T10:02:16.836Z</time></trkpt><trkpt lat="43.9214536" lon="8.1021791"><ele>8.0</ele><time>2026-04-19T10:02:17.837Z</time></trkpt><trkpt lat="43.9215185" lon="8.1023211"><ele>8.0</ele><time>2026-04-19T10:02:19.834Z</time></trkpt><trkpt lat="43.9215456" lon="8.1024021"><ele>8.0</ele><time>2026-04-19T10:02:20.836Z</time></trkpt><trkpt lat="43.9215734" lon="8.1025488"><ele>8.0</ele><time>2026-04-19T10:02:22.836Z</time></trkpt><trkpt lat="43.9215404" lon="8.1026555"><ele>8.0</ele><time>2026-04-19T10:02:24.836Z</time></trkpt><trkpt lat="43.9214667" lon="8.1026734"><ele>8.200000000000001</ele><time>2026-04-19T10:02:26.836Z</time></trkpt><trkpt lat="43.921377" lon="8.1027092"><ele>8.4</ele><time>2026-04-19T10:02:28.834Z</time></trkpt><trkpt lat="43.9212766" lon="8.1027388"><ele>8.600000000000001</ele><time>2026-04-19T10:02:30.837Z</time></trkpt><trkpt lat="43.9212158" lon="8.1027707"><ele>8.8</ele><time>2026-04-19T10:02:31.834Z</time></trkpt><trkpt lat="43.921114" lon="8.1028037"><ele>9.0</ele><time>2026-04-19T10:02:33.836Z</time></trkpt><trkpt lat="43.9210125" lon="8.1028355"><ele>9.0</ele><time>2026-04-19T10:02:35.836Z</time></trkpt><trkpt lat="43.9209141" lon="8.1028772"><ele>9.0</ele><time>2026-04-19T10:02:37.835Z</time></trkpt><trkpt lat="43.920831" lon="8.1029128"><ele>9.0</ele><time>2026-04-19T10:02:39.836Z</time></trkpt><trkpt lat="43.9207685" lon="8.102956"><ele>9.0</ele><time>2026-04-19T10:02:42.835Z</time></trkpt><trkpt lat="43.9206959" lon="8.1029683"><ele>9.0</ele><time>2026-04-19T10:03:09.836Z</time></trkpt><trkpt lat="43.9206381" lon="8.1029104"><ele>9.0</ele><time>2026-04-19T10:03:13.835Z</time></trkpt><trkpt lat="43.9206272" lon="8.1028109"><ele>9.0</ele><time>2026-04-19T10:03:15.835Z</time></trkpt><trkpt lat="43.9206111" lon="8.1027048"><ele>9.0</ele><time>2026-04-19T10:03:17.836Z</time></trkpt><trkpt lat="43.9205942" lon="8.1026195"><ele>9.0</ele><time>2026-04-19T10:03:19.836Z</time></trkpt><trkpt lat="43.9205739" lon="8.1025097"><ele>9.0</ele><time>2026-04-19T10:03:22.836Z</time></trkpt><trkpt lat="43.920539" lon="8.1024077"><ele>8.0</ele><time>2026-04-19T10:03:26.835Z</time></trkpt><trkpt lat="43.9204589" lon="8.1024317"><ele>9.0</ele><time>2026-04-19T10:03:30.835Z</time></trkpt></trkseg></trk></gpx>